<?xml version="1.0" encoding="UTF-8" standalone="no" ?>
<gpx xmlns="http://www.topografix.com/GPX/1/1" xmlns:xsi="http://www.w3.org/2001/XMLSchema-instance" xsi:schemaLocation="http://www.topografix.com/GPX/1/1 http://www.topografix.com/GPX/1/1/gpx.xsd" version="1.1" creator="VisuGPX - https://www.visugpx.com">
  <metadata>
    <name>French-divide 2021</name>
  </metadata>
  <trk>
    <name><![CDATA[12 FD]]></name>
    <trkseg>
      <trkpt lat="43.9941" lon="1.70931">
        <ele>282.28</ele>
        <time>2021-08-18T05:10:05Z</time>
      </trkpt>
      <trkpt lat="43.99389" lon="1.70916">
        <ele>282.28</ele>
        <time>2021-08-18T05:10:15Z</time>
      </trkpt>
      <trkpt lat="43.99374" lon="1.70905">
        <ele>282.28</ele>
        <time>2021-08-18T05:10:24Z</time>
      </trkpt>
      <trkpt lat="43.99357" lon="1.70897">
        <ele>282.28</ele>
        <time>2021-08-18T05:10:33Z</time>
      </trkpt>
      <trkpt lat="43.9934" lon="1.70898">
        <ele>282.28</ele>
        <time>2021-08-18T05:10:41Z</time>
      </trkpt>
      <trkpt lat="43.99328" lon="1.70904">
        <ele>283.25</ele>
        <time>2021-08-18T05:10:46Z</time>
      </trkpt>
      <trkpt lat="43.99313" lon="1.70909">
        <ele>283.73</ele>
        <time>2021-08-18T05:10:52Z</time>
      </trkpt>
      <trkpt lat="43.99306" lon="1.70923">
        <ele>283.73</ele>
        <time>2021-08-18T05:10:59Z</time>
      </trkpt>
      <trkpt lat="43.99297" lon="1.70937">
        <ele>284.21</ele>
        <time>2021-08-18T05:11:05Z</time>
      </trkpt>
      <trkpt lat="43.99288" lon="1.70953">
        <ele>284.21</ele>
        <time>2021-08-18T05:11:11Z</time>
      </trkpt>
      <trkpt lat="43.99278" lon="1.70978">
        <ele>284.69</ele>
        <time>2021-08-18T05:11:20Z</time>
      </trkpt>
      <trkpt lat="43.99273" lon="1.70996">
        <ele>285.17</ele>
        <time>2021-08-18T05:11:27Z</time>
      </trkpt>
      <trkpt lat="43.99272" lon="1.7101">
        <ele>285.65</ele>
        <time>2021-08-18T05:11:33Z</time>
      </trkpt>
      <trkpt lat="43.99273" lon="1.71012">
        <ele>285.65</ele>
        <time>2021-08-18T05:11:34Z</time>
      </trkpt>
      <trkpt lat="43.99278" lon="1.71029">
        <ele>286.13</ele>
        <time>2021-08-18T05:11:41Z</time>
      </trkpt>
      <trkpt lat="43.99284" lon="1.71054">
        <ele>286.13</ele>
        <time>2021-08-18T05:11:49Z</time>
      </trkpt>
      <trkpt lat="43.99284" lon="1.71072">
        <ele>286.13</ele>
        <time>2021-08-18T05:11:55Z</time>
      </trkpt>
      <trkpt lat="43.99284" lon="1.71075">
        <ele>286.13</ele>
        <time>2021-08-18T05:12:01Z</time>
      </trkpt>
      <trkpt lat="43.99286" lon="1.71079">
        <ele>286.13</ele>
        <time>2021-08-18T05:12:18Z</time>
      </trkpt>
      <trkpt lat="43.99287" lon="1.71078">
        <ele>286.61</ele>
        <time>2021-08-18T05:12:34Z</time>
      </trkpt>
      <trkpt lat="43.99286" lon="1.7108">
        <ele>286.61</ele>
        <time>2021-08-18T05:12:49Z</time>
      </trkpt>
      <trkpt lat="43.99286" lon="1.71082">
        <ele>286.61</ele>
        <time>2021-08-18T05:13:04Z</time>
      </trkpt>
      <trkpt lat="43.99285" lon="1.71081">
        <ele>287.09</ele>
        <time>2021-08-18T05:13:25Z</time>
      </trkpt>
      <trkpt lat="43.99284" lon="1.71078">
        <ele>286.13</ele>
        <time>2021-08-18T05:13:46Z</time>
      </trkpt>
      <trkpt lat="43.99284" lon="1.71078">
        <ele>286.13</ele>
        <time>2021-08-18T05:14:01Z</time>
      </trkpt>
      <trkpt lat="43.99282" lon="1.71083">
        <ele>286.61</ele>
        <time>2021-08-18T05:14:25Z</time>
      </trkpt>
      <trkpt lat="43.99282" lon="1.71082">
        <ele>286.61</ele>
        <time>2021-08-18T05:14:43Z</time>
      </trkpt>
      <trkpt lat="43.99283" lon="1.7108">
        <ele>286.61</ele>
        <time>2021-08-18T05:15:03Z</time>
      </trkpt>
      <trkpt lat="43.99283" lon="1.7108">
        <ele>286.61</ele>
        <time>2021-08-18T05:15:15Z</time>
      </trkpt>
      <trkpt lat="43.99283" lon="1.71078">
        <ele>286.61</ele>
        <time>2021-08-18T05:15:29Z</time>
      </trkpt>
      <trkpt lat="43.99285" lon="1.71078">
        <ele>286.61</ele>
        <time>2021-08-18T05:15:35Z</time>
      </trkpt>
      <trkpt lat="43.99286" lon="1.71078">
        <ele>286.61</ele>
        <time>2021-08-18T05:15:36Z</time>
      </trkpt>
      <trkpt lat="43.99287" lon="1.71075">
        <ele>286.61</ele>
        <time>2021-08-18T05:15:38Z</time>
      </trkpt>
      <trkpt lat="43.99287" lon="1.71072">
        <ele>286.61</ele>
        <time>2021-08-18T05:15:39Z</time>
      </trkpt>
      <trkpt lat="43.99287" lon="1.71071">
        <ele>286.61</ele>
        <time>2021-08-18T05:15:40Z</time>
      </trkpt>
      <trkpt lat="43.99286" lon="1.71069">
        <ele>286.61</ele>
        <time>2021-08-18T05:15:41Z</time>
      </trkpt>
      <trkpt lat="43.99286" lon="1.71066">
        <ele>286.61</ele>
        <time>2021-08-18T05:15:43Z</time>
      </trkpt>
      <trkpt lat="43.99287" lon="1.71062">
        <ele>286.61</ele>
        <time>2021-08-18T05:15:44Z</time>
      </trkpt>
      <trkpt lat="43.99287" lon="1.71059">
        <ele>286.61</ele>
        <time>2021-08-18T05:15:45Z</time>
      </trkpt>
      <trkpt lat="43.99288" lon="1.71057">
        <ele>286.61</ele>
        <time>2021-08-18T05:15:46Z</time>
      </trkpt>
      <trkpt lat="43.99285" lon="1.71052">
        <ele>286.61</ele>
        <time>2021-08-18T05:15:52Z</time>
      </trkpt>
      <trkpt lat="43.99284" lon="1.71051">
        <ele>287.09</ele>
        <time>2021-08-18T05:15:57Z</time>
      </trkpt>
      <trkpt lat="43.99285" lon="1.71051">
        <ele>287.09</ele>
        <time>2021-08-18T05:15:58Z</time>
      </trkpt>
      <trkpt lat="43.99284" lon="1.71049">
        <ele>287.09</ele>
        <time>2021-08-18T05:16:00Z</time>
      </trkpt>
      <trkpt lat="43.99283" lon="1.71047">
        <ele>287.09</ele>
        <time>2021-08-18T05:16:01Z</time>
      </trkpt>
      <trkpt lat="43.99282" lon="1.71044">
        <ele>287.09</ele>
        <time>2021-08-18T05:16:02Z</time>
      </trkpt>
      <trkpt lat="43.99282" lon="1.71042">
        <ele>287.09</ele>
        <time>2021-08-18T05:16:03Z</time>
      </trkpt>
      <trkpt lat="43.99281" lon="1.7104">
        <ele>287.09</ele>
        <time>2021-08-18T05:16:04Z</time>
      </trkpt>
      <trkpt lat="43.99276" lon="1.71019">
        <ele>287.09</ele>
        <time>2021-08-18T05:16:11Z</time>
      </trkpt>
      <trkpt lat="43.99276" lon="1.71016">
        <ele>287.09</ele>
        <time>2021-08-18T05:16:12Z</time>
      </trkpt>
      <trkpt lat="43.99274" lon="1.71013">
        <ele>287.09</ele>
        <time>2021-08-18T05:16:15Z</time>
      </trkpt>
      <trkpt lat="43.99273" lon="1.71007">
        <ele>287.09</ele>
        <time>2021-08-18T05:16:21Z</time>
      </trkpt>
      <trkpt lat="43.99273" lon="1.71001">
        <ele>287.09</ele>
        <time>2021-08-18T05:16:29Z</time>
      </trkpt>
      <trkpt lat="43.99271" lon="1.70998">
        <ele>287.09</ele>
        <time>2021-08-18T05:16:51Z</time>
      </trkpt>
      <trkpt lat="43.99272" lon="1.70998">
        <ele>287.09</ele>
        <time>2021-08-18T05:17:11Z</time>
      </trkpt>
      <trkpt lat="43.99272" lon="1.70997">
        <ele>287.09</ele>
        <time>2021-08-18T05:17:30Z</time>
      </trkpt>
      <trkpt lat="43.99273" lon="1.70997">
        <ele>287.09</ele>
        <time>2021-08-18T05:17:46Z</time>
      </trkpt>
      <trkpt lat="43.99273" lon="1.70997">
        <ele>287.09</ele>
        <time>2021-08-18T05:18:06Z</time>
      </trkpt>
      <trkpt lat="43.99272" lon="1.70997">
        <ele>287.09</ele>
        <time>2021-08-18T05:18:21Z</time>
      </trkpt>
      <trkpt lat="43.99271" lon="1.70997">
        <ele>287.09</ele>
        <time>2021-08-18T05:18:38Z</time>
      </trkpt>
      <trkpt lat="43.99273" lon="1.70997">
        <ele>287.09</ele>
        <time>2021-08-18T05:18:52Z</time>
      </trkpt>
      <trkpt lat="43.99273" lon="1.70997">
        <ele>287.09</ele>
        <time>2021-08-18T05:19:07Z</time>
      </trkpt>
      <trkpt lat="43.99274" lon="1.70996">
        <ele>287.09</ele>
        <time>2021-08-18T05:19:16Z</time>
      </trkpt>
      <trkpt lat="43.99276" lon="1.70991">
        <ele>287.09</ele>
        <time>2021-08-18T05:19:19Z</time>
      </trkpt>
      <trkpt lat="43.99277" lon="1.70988">
        <ele>287.09</ele>
        <time>2021-08-18T05:19:20Z</time>
      </trkpt>
      <trkpt lat="43.99278" lon="1.70985">
        <ele>287.09</ele>
        <time>2021-08-18T05:19:21Z</time>
      </trkpt>
      <trkpt lat="43.99279" lon="1.70982">
        <ele>287.09</ele>
        <time>2021-08-18T05:19:22Z</time>
      </trkpt>
      <trkpt lat="43.9928" lon="1.70979">
        <ele>287.09</ele>
        <time>2021-08-18T05:19:23Z</time>
      </trkpt>
      <trkpt lat="43.99281" lon="1.70976">
        <ele>287.09</ele>
        <time>2021-08-18T05:19:24Z</time>
      </trkpt>
      <trkpt lat="43.99282" lon="1.70973">
        <ele>287.09</ele>
        <time>2021-08-18T05:19:25Z</time>
      </trkpt>
      <trkpt lat="43.99283" lon="1.70969">
        <ele>286.61</ele>
        <time>2021-08-18T05:19:26Z</time>
      </trkpt>
      <trkpt lat="43.99297" lon="1.70941">
        <ele>286.13</ele>
        <time>2021-08-18T05:19:33Z</time>
      </trkpt>
      <trkpt lat="43.99312" lon="1.70909">
        <ele>285.65</ele>
        <time>2021-08-18T05:19:41Z</time>
      </trkpt>
      <trkpt lat="43.99326" lon="1.70896">
        <ele>285.65</ele>
        <time>2021-08-18T05:19:48Z</time>
      </trkpt>
      <trkpt lat="43.99327" lon="1.70893">
        <ele>285.65</ele>
        <time>2021-08-18T05:19:49Z</time>
      </trkpt>
      <trkpt lat="43.99326" lon="1.70891">
        <ele>285.65</ele>
        <time>2021-08-18T05:19:50Z</time>
      </trkpt>
      <trkpt lat="43.99323" lon="1.70891">
        <ele>285.65</ele>
        <time>2021-08-18T05:19:51Z</time>
      </trkpt>
      <trkpt lat="43.99322" lon="1.70893">
        <ele>285.65</ele>
        <time>2021-08-18T05:19:52Z</time>
      </trkpt>
      <trkpt lat="43.9932" lon="1.70896">
        <ele>285.65</ele>
        <time>2021-08-18T05:19:53Z</time>
      </trkpt>
      <trkpt lat="43.99318" lon="1.70898">
        <ele>285.65</ele>
        <time>2021-08-18T05:19:54Z</time>
      </trkpt>
      <trkpt lat="43.99317" lon="1.70898">
        <ele>285.65</ele>
        <time>2021-08-18T05:19:55Z</time>
      </trkpt>
      <trkpt lat="43.99317" lon="1.70899">
        <ele>285.65</ele>
        <time>2021-08-18T05:20:01Z</time>
      </trkpt>
      <trkpt lat="43.99318" lon="1.709">
        <ele>285.65</ele>
        <time>2021-08-18T05:20:15Z</time>
      </trkpt>
      <trkpt lat="43.99318" lon="1.709">
        <ele>299.11</ele>
        <time>2021-08-18T05:20:16Z</time>
      </trkpt>
      <trkpt lat="43.99318" lon="1.709">
        <ele>299.11</ele>
        <time>2021-08-18T05:20:17Z</time>
      </trkpt>
      <trkpt lat="43.99319" lon="1.709">
        <ele>290.94</ele>
        <time>2021-08-18T05:20:21Z</time>
      </trkpt>
      <trkpt lat="43.99319" lon="1.70901">
        <ele>290.94</ele>
        <time>2021-08-18T05:20:22Z</time>
      </trkpt>
      <trkpt lat="43.99319" lon="1.70904">
        <ele>290.94</ele>
        <time>2021-08-18T05:20:28Z</time>
      </trkpt>
      <trkpt lat="43.99318" lon="1.70905">
        <ele>290.94</ele>
        <time>2021-08-18T05:20:29Z</time>
      </trkpt>
      <trkpt lat="43.99317" lon="1.70906">
        <ele>290.94</ele>
        <time>2021-08-18T05:20:30Z</time>
      </trkpt>
      <trkpt lat="43.99306" lon="1.70919">
        <ele>290.94</ele>
        <time>2021-08-18T05:20:38Z</time>
      </trkpt>
      <trkpt lat="43.99306" lon="1.7092">
        <ele>290.94</ele>
        <time>2021-08-18T05:20:49Z</time>
      </trkpt>
      <trkpt lat="43.99312" lon="1.70924">
        <ele>290.94</ele>
        <time>2021-08-18T05:21:03Z</time>
      </trkpt>
      <trkpt lat="43.99311" lon="1.70925">
        <ele>290.94</ele>
        <time>2021-08-18T05:21:25Z</time>
      </trkpt>
      <trkpt lat="43.9931" lon="1.70927">
        <ele>290.94</ele>
        <time>2021-08-18T05:21:31Z</time>
      </trkpt>
      <trkpt lat="43.99308" lon="1.70928">
        <ele>291.42</ele>
        <time>2021-08-18T05:21:33Z</time>
      </trkpt>
      <trkpt lat="43.99298" lon="1.70939">
        <ele>291.42</ele>
        <time>2021-08-18T05:21:39Z</time>
      </trkpt>
      <trkpt lat="43.99286" lon="1.70961">
        <ele>291.9</ele>
        <time>2021-08-18T05:21:47Z</time>
      </trkpt>
      <trkpt lat="43.99278" lon="1.70984">
        <ele>291.9</ele>
        <time>2021-08-18T05:21:54Z</time>
      </trkpt>
      <trkpt lat="43.99273" lon="1.71001">
        <ele>292.38</ele>
        <time>2021-08-18T05:22:00Z</time>
      </trkpt>
      <trkpt lat="43.99274" lon="1.71015">
        <ele>292.86</ele>
        <time>2021-08-18T05:22:05Z</time>
      </trkpt>
      <trkpt lat="43.99274" lon="1.71017">
        <ele>292.86</ele>
        <time>2021-08-18T05:22:06Z</time>
      </trkpt>
      <trkpt lat="43.99274" lon="1.71019">
        <ele>292.86</ele>
        <time>2021-08-18T05:22:07Z</time>
      </trkpt>
      <trkpt lat="43.99275" lon="1.71021">
        <ele>292.86</ele>
        <time>2021-08-18T05:22:08Z</time>
      </trkpt>
      <trkpt lat="43.99275" lon="1.71024">
        <ele>292.86</ele>
        <time>2021-08-18T05:22:09Z</time>
      </trkpt>
      <trkpt lat="43.9928" lon="1.71048">
        <ele>293.34</ele>
        <time>2021-08-18T05:22:16Z</time>
      </trkpt>
      <trkpt lat="43.99284" lon="1.71069">
        <ele>293.34</ele>
        <time>2021-08-18T05:22:21Z</time>
      </trkpt>
      <trkpt lat="43.99283" lon="1.71072">
        <ele>293.34</ele>
        <time>2021-08-18T05:22:22Z</time>
      </trkpt>
      <trkpt lat="43.9928" lon="1.71074">
        <ele>293.34</ele>
        <time>2021-08-18T05:22:23Z</time>
      </trkpt>
      <trkpt lat="43.99278" lon="1.71074">
        <ele>293.34</ele>
        <time>2021-08-18T05:22:24Z</time>
      </trkpt>
      <trkpt lat="43.99276" lon="1.71073">
        <ele>293.34</ele>
        <time>2021-08-18T05:22:25Z</time>
      </trkpt>
      <trkpt lat="43.99274" lon="1.71071">
        <ele>293.34</ele>
        <time>2021-08-18T05:22:26Z</time>
      </trkpt>
      <trkpt lat="43.99262" lon="1.71066">
        <ele>292.38</ele>
        <time>2021-08-18T05:22:31Z</time>
      </trkpt>
      <trkpt lat="43.99243" lon="1.71062">
        <ele>290.94</ele>
        <time>2021-08-18T05:22:38Z</time>
      </trkpt>
      <trkpt lat="43.99232" lon="1.71063">
        <ele>289.97</ele>
        <time>2021-08-18T05:22:42Z</time>
      </trkpt>
      <trkpt lat="43.99208" lon="1.7108">
        <ele>286.61</ele>
        <time>2021-08-18T05:22:51Z</time>
      </trkpt>
      <trkpt lat="43.99192" lon="1.7108">
        <ele>284.69</ele>
        <time>2021-08-18T05:22:56Z</time>
      </trkpt>
      <trkpt lat="43.99184" lon="1.71078">
        <ele>283.73</ele>
        <time>2021-08-18T05:22:58Z</time>
      </trkpt>
      <trkpt lat="43.99181" lon="1.71079">
        <ele>283.73</ele>
        <time>2021-08-18T05:22:59Z</time>
      </trkpt>
      <trkpt lat="43.99178" lon="1.71081">
        <ele>283.25</ele>
        <time>2021-08-18T05:23:00Z</time>
      </trkpt>
      <trkpt lat="43.99176" lon="1.71082">
        <ele>282.77</ele>
        <time>2021-08-18T05:23:01Z</time>
      </trkpt>
      <trkpt lat="43.99173" lon="1.71084">
        <ele>282.77</ele>
        <time>2021-08-18T05:23:02Z</time>
      </trkpt>
      <trkpt lat="43.99172" lon="1.71087">
        <ele>281.8</ele>
        <time>2021-08-18T05:23:03Z</time>
      </trkpt>
      <trkpt lat="43.99171" lon="1.71091">
        <ele>281.8</ele>
        <time>2021-08-18T05:23:04Z</time>
      </trkpt>
      <trkpt lat="43.9917" lon="1.71093">
        <ele>281.8</ele>
        <time>2021-08-18T05:23:05Z</time>
      </trkpt>
      <trkpt lat="43.99171" lon="1.71097">
        <ele>281.8</ele>
        <time>2021-08-18T05:23:06Z</time>
      </trkpt>
      <trkpt lat="43.99172" lon="1.711">
        <ele>280.84</ele>
        <time>2021-08-18T05:23:07Z</time>
      </trkpt>
      <trkpt lat="43.99174" lon="1.71102">
        <ele>280.84</ele>
        <time>2021-08-18T05:23:08Z</time>
      </trkpt>
      <trkpt lat="43.99177" lon="1.71104">
        <ele>280.36</ele>
        <time>2021-08-18T05:23:09Z</time>
      </trkpt>
      <trkpt lat="43.99194" lon="1.71116">
        <ele>277.96</ele>
        <time>2021-08-18T05:23:14Z</time>
      </trkpt>
      <trkpt lat="43.99199" lon="1.71118">
        <ele>277.96</ele>
        <time>2021-08-18T05:23:15Z</time>
      </trkpt>
      <trkpt lat="43.99203" lon="1.7112">
        <ele>277.96</ele>
        <time>2021-08-18T05:23:16Z</time>
      </trkpt>
      <trkpt lat="43.99224" lon="1.71125">
        <ele>277.96</ele>
        <time>2021-08-18T05:23:22Z</time>
      </trkpt>
      <trkpt lat="43.99235" lon="1.7113">
        <ele>277.96</ele>
        <time>2021-08-18T05:23:28Z</time>
      </trkpt>
      <trkpt lat="43.99255" lon="1.71137">
        <ele>277.96</ele>
        <time>2021-08-18T05:23:35Z</time>
      </trkpt>
      <trkpt lat="43.99276" lon="1.71142">
        <ele>277.96</ele>
        <time>2021-08-18T05:23:42Z</time>
      </trkpt>
      <trkpt lat="43.99294" lon="1.71146">
        <ele>277.96</ele>
        <time>2021-08-18T05:23:49Z</time>
      </trkpt>
      <trkpt lat="43.99309" lon="1.71157">
        <ele>277.96</ele>
        <time>2021-08-18T05:23:55Z</time>
      </trkpt>
      <trkpt lat="43.99333" lon="1.71167">
        <ele>275.07</ele>
        <time>2021-08-18T05:24:01Z</time>
      </trkpt>
      <trkpt lat="43.99352" lon="1.71174">
        <ele>272.67</ele>
        <time>2021-08-18T05:24:05Z</time>
      </trkpt>
      <trkpt lat="43.9937" lon="1.71184">
        <ele>269.79</ele>
        <time>2021-08-18T05:24:09Z</time>
      </trkpt>
      <trkpt lat="43.99387" lon="1.71196">
        <ele>266.9</ele>
        <time>2021-08-18T05:24:13Z</time>
      </trkpt>
      <trkpt lat="43.994" lon="1.71206">
        <ele>264.02</ele>
        <time>2021-08-18T05:24:16Z</time>
      </trkpt>
      <trkpt lat="43.99403" lon="1.71209">
        <ele>263.54</ele>
        <time>2021-08-18T05:24:17Z</time>
      </trkpt>
      <trkpt lat="43.99407" lon="1.71213">
        <ele>262.1</ele>
        <time>2021-08-18T05:24:18Z</time>
      </trkpt>
      <trkpt lat="43.99413" lon="1.7122">
        <ele>260.65</ele>
        <time>2021-08-18T05:24:20Z</time>
      </trkpt>
      <trkpt lat="43.99416" lon="1.71225">
        <ele>259.69</ele>
        <time>2021-08-18T05:24:21Z</time>
      </trkpt>
      <trkpt lat="43.99417" lon="1.7123">
        <ele>259.21</ele>
        <time>2021-08-18T05:24:22Z</time>
      </trkpt>
      <trkpt lat="43.99419" lon="1.71234">
        <ele>258.25</ele>
        <time>2021-08-18T05:24:23Z</time>
      </trkpt>
      <trkpt lat="43.99421" lon="1.71239">
        <ele>257.77</ele>
        <time>2021-08-18T05:24:24Z</time>
      </trkpt>
      <trkpt lat="43.99424" lon="1.7125">
        <ele>256.33</ele>
        <time>2021-08-18T05:24:26Z</time>
      </trkpt>
      <trkpt lat="43.99424" lon="1.71258">
        <ele>255.85</ele>
        <time>2021-08-18T05:24:27Z</time>
      </trkpt>
      <trkpt lat="43.99422" lon="1.71281">
        <ele>255.85</ele>
        <time>2021-08-18T05:24:32Z</time>
      </trkpt>
      <trkpt lat="43.99419" lon="1.71284">
        <ele>255.85</ele>
        <time>2021-08-18T05:24:33Z</time>
      </trkpt>
      <trkpt lat="43.99415" lon="1.71286">
        <ele>255.85</ele>
        <time>2021-08-18T05:24:34Z</time>
      </trkpt>
      <trkpt lat="43.99411" lon="1.71286">
        <ele>254.41</ele>
        <time>2021-08-18T05:24:35Z</time>
      </trkpt>
      <trkpt lat="43.99405" lon="1.71285">
        <ele>253.93</ele>
        <time>2021-08-18T05:24:36Z</time>
      </trkpt>
      <trkpt lat="43.994" lon="1.71284">
        <ele>252.96</ele>
        <time>2021-08-18T05:24:37Z</time>
      </trkpt>
      <trkpt lat="43.99394" lon="1.71283">
        <ele>252.96</ele>
        <time>2021-08-18T05:24:38Z</time>
      </trkpt>
      <trkpt lat="43.99367" lon="1.71278">
        <ele>251.04</ele>
        <time>2021-08-18T05:24:43Z</time>
      </trkpt>
      <trkpt lat="43.99362" lon="1.71279">
        <ele>249.6</ele>
        <time>2021-08-18T05:24:44Z</time>
      </trkpt>
      <trkpt lat="43.99358" lon="1.71281">
        <ele>249.12</ele>
        <time>2021-08-18T05:24:45Z</time>
      </trkpt>
      <trkpt lat="43.99355" lon="1.71286">
        <ele>248.64</ele>
        <time>2021-08-18T05:24:46Z</time>
      </trkpt>
      <trkpt lat="43.99352" lon="1.71292">
        <ele>247.68</ele>
        <time>2021-08-18T05:24:47Z</time>
      </trkpt>
      <trkpt lat="43.99351" lon="1.71298">
        <ele>247.2</ele>
        <time>2021-08-18T05:24:48Z</time>
      </trkpt>
      <trkpt lat="43.99349" lon="1.71305">
        <ele>246.72</ele>
        <time>2021-08-18T05:24:49Z</time>
      </trkpt>
      <trkpt lat="43.99341" lon="1.7134">
        <ele>244.31</ele>
        <time>2021-08-18T05:24:54Z</time>
      </trkpt>
      <trkpt lat="43.99339" lon="1.71345">
        <ele>244.79</ele>
        <time>2021-08-18T05:24:55Z</time>
      </trkpt>
      <trkpt lat="43.99335" lon="1.7135">
        <ele>243.83</ele>
        <time>2021-08-18T05:24:56Z</time>
      </trkpt>
      <trkpt lat="43.99331" lon="1.71354">
        <ele>243.83</ele>
        <time>2021-08-18T05:24:57Z</time>
      </trkpt>
      <trkpt lat="43.99326" lon="1.71356">
        <ele>242.87</ele>
        <time>2021-08-18T05:24:58Z</time>
      </trkpt>
      <trkpt lat="43.9932" lon="1.71358">
        <ele>241.91</ele>
        <time>2021-08-18T05:24:59Z</time>
      </trkpt>
      <trkpt lat="43.99314" lon="1.71359">
        <ele>241.43</ele>
        <time>2021-08-18T05:25:00Z</time>
      </trkpt>
      <trkpt lat="43.99307" lon="1.71359">
        <ele>240.47</ele>
        <time>2021-08-18T05:25:01Z</time>
      </trkpt>
      <trkpt lat="43.99282" lon="1.7136">
        <ele>236.62</ele>
        <time>2021-08-18T05:25:04Z</time>
      </trkpt>
      <trkpt lat="43.99254" lon="1.71361">
        <ele>231.33</ele>
        <time>2021-08-18T05:25:07Z</time>
      </trkpt>
      <trkpt lat="43.99227" lon="1.71362">
        <ele>227.01</ele>
        <time>2021-08-18T05:25:10Z</time>
      </trkpt>
      <trkpt lat="43.992" lon="1.71365">
        <ele>222.68</ele>
        <time>2021-08-18T05:25:13Z</time>
      </trkpt>
      <trkpt lat="43.99176" lon="1.71369">
        <ele>218.84</ele>
        <time>2021-08-18T05:25:16Z</time>
      </trkpt>
      <trkpt lat="43.9917" lon="1.71371">
        <ele>217.88</ele>
        <time>2021-08-18T05:25:17Z</time>
      </trkpt>
      <trkpt lat="43.99164" lon="1.71373">
        <ele>216.91</ele>
        <time>2021-08-18T05:25:18Z</time>
      </trkpt>
      <trkpt lat="43.99159" lon="1.71378">
        <ele>215.95</ele>
        <time>2021-08-18T05:25:19Z</time>
      </trkpt>
      <trkpt lat="43.99155" lon="1.71384">
        <ele>214.99</ele>
        <time>2021-08-18T05:25:20Z</time>
      </trkpt>
      <trkpt lat="43.99152" lon="1.71391">
        <ele>214.03</ele>
        <time>2021-08-18T05:25:21Z</time>
      </trkpt>
      <trkpt lat="43.9915" lon="1.714">
        <ele>213.07</ele>
        <time>2021-08-18T05:25:22Z</time>
      </trkpt>
      <trkpt lat="43.99148" lon="1.7141">
        <ele>211.63</ele>
        <time>2021-08-18T05:25:23Z</time>
      </trkpt>
      <trkpt lat="43.99146" lon="1.71418">
        <ele>210.67</ele>
        <time>2021-08-18T05:25:24Z</time>
      </trkpt>
      <trkpt lat="43.99143" lon="1.71434">
        <ele>209.22</ele>
        <time>2021-08-18T05:25:26Z</time>
      </trkpt>
      <trkpt lat="43.9914" lon="1.71439">
        <ele>208.26</ele>
        <time>2021-08-18T05:25:27Z</time>
      </trkpt>
      <trkpt lat="43.99136" lon="1.71444">
        <ele>207.3</ele>
        <time>2021-08-18T05:25:28Z</time>
      </trkpt>
      <trkpt lat="43.99131" lon="1.71445">
        <ele>205.86</ele>
        <time>2021-08-18T05:25:29Z</time>
      </trkpt>
      <trkpt lat="43.99126" lon="1.71445">
        <ele>204.9</ele>
        <time>2021-08-18T05:25:30Z</time>
      </trkpt>
      <trkpt lat="43.99121" lon="1.71442">
        <ele>203.46</ele>
        <time>2021-08-18T05:25:31Z</time>
      </trkpt>
      <trkpt lat="43.99115" lon="1.71436">
        <ele>202.01</ele>
        <time>2021-08-18T05:25:32Z</time>
      </trkpt>
      <trkpt lat="43.99109" lon="1.71429">
        <ele>199.61</ele>
        <time>2021-08-18T05:25:33Z</time>
      </trkpt>
      <trkpt lat="43.99095" lon="1.71414">
        <ele>197.21</ele>
        <time>2021-08-18T05:25:35Z</time>
      </trkpt>
      <trkpt lat="43.99087" lon="1.71408">
        <ele>195.77</ele>
        <time>2021-08-18T05:25:36Z</time>
      </trkpt>
      <trkpt lat="43.99078" lon="1.71402">
        <ele>193.84</ele>
        <time>2021-08-18T05:25:37Z</time>
      </trkpt>
      <trkpt lat="43.99068" lon="1.71398">
        <ele>191.92</ele>
        <time>2021-08-18T05:25:38Z</time>
      </trkpt>
      <trkpt lat="43.99059" lon="1.71394">
        <ele>190.96</ele>
        <time>2021-08-18T05:25:39Z</time>
      </trkpt>
      <trkpt lat="43.99049" lon="1.71389">
        <ele>189.52</ele>
        <time>2021-08-18T05:25:40Z</time>
      </trkpt>
      <trkpt lat="43.9904" lon="1.71383">
        <ele>187.59</ele>
        <time>2021-08-18T05:25:41Z</time>
      </trkpt>
      <trkpt lat="43.99031" lon="1.71376">
        <ele>185.67</ele>
        <time>2021-08-18T05:25:42Z</time>
      </trkpt>
      <trkpt lat="43.99012" lon="1.71359">
        <ele>181.83</ele>
        <time>2021-08-18T05:25:44Z</time>
      </trkpt>
      <trkpt lat="43.98992" lon="1.7134">
        <ele>177.98</ele>
        <time>2021-08-18T05:25:46Z</time>
      </trkpt>
      <trkpt lat="43.98972" lon="1.71321">
        <ele>174.14</ele>
        <time>2021-08-18T05:25:48Z</time>
      </trkpt>
      <trkpt lat="43.98954" lon="1.71305">
        <ele>170.77</ele>
        <time>2021-08-18T05:25:50Z</time>
      </trkpt>
      <trkpt lat="43.98923" lon="1.71288">
        <ele>166.93</ele>
        <time>2021-08-18T05:25:53Z</time>
      </trkpt>
      <trkpt lat="43.98904" lon="1.71276">
        <ele>164.52</ele>
        <time>2021-08-18T05:25:55Z</time>
      </trkpt>
      <trkpt lat="43.98897" lon="1.71268">
        <ele>163.56</ele>
        <time>2021-08-18T05:25:56Z</time>
      </trkpt>
      <trkpt lat="43.98891" lon="1.71258">
        <ele>162.6</ele>
        <time>2021-08-18T05:25:57Z</time>
      </trkpt>
      <trkpt lat="43.98887" lon="1.71247">
        <ele>162.12</ele>
        <time>2021-08-18T05:25:58Z</time>
      </trkpt>
      <trkpt lat="43.98883" lon="1.71235">
        <ele>161.64</ele>
        <time>2021-08-18T05:25:59Z</time>
      </trkpt>
      <trkpt lat="43.98879" lon="1.71222">
        <ele>160.2</ele>
        <time>2021-08-18T05:26:00Z</time>
      </trkpt>
      <trkpt lat="43.98869" lon="1.71181">
        <ele>156.83</ele>
        <time>2021-08-18T05:26:03Z</time>
      </trkpt>
      <trkpt lat="43.98852" lon="1.71118">
        <ele>153.47</ele>
        <time>2021-08-18T05:26:08Z</time>
      </trkpt>
      <trkpt lat="43.98846" lon="1.71094">
        <ele>152.51</ele>
        <time>2021-08-18T05:26:10Z</time>
      </trkpt>
      <trkpt lat="43.98838" lon="1.71055">
        <ele>151.06</ele>
        <time>2021-08-18T05:26:14Z</time>
      </trkpt>
      <trkpt lat="43.98832" lon="1.71027">
        <ele>149.62</ele>
        <time>2021-08-18T05:26:19Z</time>
      </trkpt>
      <trkpt lat="43.98828" lon="1.71022">
        <ele>150.1</ele>
        <time>2021-08-18T05:26:24Z</time>
      </trkpt>
      <trkpt lat="43.98826" lon="1.7102">
        <ele>150.1</ele>
        <time>2021-08-18T05:26:25Z</time>
      </trkpt>
      <trkpt lat="43.98824" lon="1.71019">
        <ele>150.1</ele>
        <time>2021-08-18T05:26:26Z</time>
      </trkpt>
      <trkpt lat="43.98822" lon="1.7102">
        <ele>150.1</ele>
        <time>2021-08-18T05:26:27Z</time>
      </trkpt>
      <trkpt lat="43.98819" lon="1.71021">
        <ele>149.62</ele>
        <time>2021-08-18T05:26:28Z</time>
      </trkpt>
      <trkpt lat="43.98817" lon="1.71024">
        <ele>149.62</ele>
        <time>2021-08-18T05:26:29Z</time>
      </trkpt>
      <trkpt lat="43.98792" lon="1.71041">
        <ele>149.62</ele>
        <time>2021-08-18T05:26:37Z</time>
      </trkpt>
      <trkpt lat="43.98768" lon="1.7104">
        <ele>149.62</ele>
        <time>2021-08-18T05:26:43Z</time>
      </trkpt>
      <trkpt lat="43.98743" lon="1.71021">
        <ele>147.22</ele>
        <time>2021-08-18T05:26:49Z</time>
      </trkpt>
      <trkpt lat="43.98705" lon="1.70999">
        <ele>143.37</ele>
        <time>2021-08-18T05:26:55Z</time>
      </trkpt>
      <trkpt lat="43.98647" lon="1.70962">
        <ele>140.49</ele>
        <time>2021-08-18T05:27:03Z</time>
      </trkpt>
      <trkpt lat="43.98628" lon="1.70946">
        <ele>140.01</ele>
        <time>2021-08-18T05:27:06Z</time>
      </trkpt>
      <trkpt lat="43.98622" lon="1.70943">
        <ele>140.01</ele>
        <time>2021-08-18T05:27:07Z</time>
      </trkpt>
      <trkpt lat="43.98616" lon="1.7094">
        <ele>140.01</ele>
        <time>2021-08-18T05:27:08Z</time>
      </trkpt>
      <trkpt lat="43.98574" lon="1.70929">
        <ele>140.01</ele>
        <time>2021-08-18T05:27:15Z</time>
      </trkpt>
      <trkpt lat="43.98544" lon="1.70925">
        <ele>140.01</ele>
        <time>2021-08-18T05:27:20Z</time>
      </trkpt>
      <trkpt lat="43.98539" lon="1.70927">
        <ele>140.01</ele>
        <time>2021-08-18T05:27:21Z</time>
      </trkpt>
      <trkpt lat="43.98534" lon="1.70929">
        <ele>140.01</ele>
        <time>2021-08-18T05:27:22Z</time>
      </trkpt>
      <trkpt lat="43.98502" lon="1.70945">
        <ele>140.01</ele>
        <time>2021-08-18T05:27:28Z</time>
      </trkpt>
      <trkpt lat="43.98497" lon="1.70949">
        <ele>140.01</ele>
        <time>2021-08-18T05:27:29Z</time>
      </trkpt>
      <trkpt lat="43.98492" lon="1.70952">
        <ele>140.01</ele>
        <time>2021-08-18T05:27:30Z</time>
      </trkpt>
      <trkpt lat="43.98487" lon="1.70954">
        <ele>140.01</ele>
        <time>2021-08-18T05:27:31Z</time>
      </trkpt>
      <trkpt lat="43.98481" lon="1.70956">
        <ele>140.01</ele>
        <time>2021-08-18T05:27:32Z</time>
      </trkpt>
      <trkpt lat="43.98476" lon="1.70957">
        <ele>140.01</ele>
        <time>2021-08-18T05:27:33Z</time>
      </trkpt>
      <trkpt lat="43.98464" lon="1.70958">
        <ele>140.01</ele>
        <time>2021-08-18T05:27:35Z</time>
      </trkpt>
      <trkpt lat="43.98459" lon="1.70957">
        <ele>140.01</ele>
        <time>2021-08-18T05:27:36Z</time>
      </trkpt>
      <trkpt lat="43.98432" lon="1.70948">
        <ele>139.53</ele>
        <time>2021-08-18T05:27:41Z</time>
      </trkpt>
      <trkpt lat="43.98425" lon="1.70947">
        <ele>140.97</ele>
        <time>2021-08-18T05:27:44Z</time>
      </trkpt>
      <trkpt lat="43.98425" lon="1.70947">
        <ele>140.49</ele>
        <time>2021-08-18T05:27:55Z</time>
      </trkpt>
      <trkpt lat="43.98422" lon="1.70947">
        <ele>140.49</ele>
        <time>2021-08-18T05:28:13Z</time>
      </trkpt>
      <trkpt lat="43.98405" lon="1.70947">
        <ele>140.49</ele>
        <time>2021-08-18T05:28:20Z</time>
      </trkpt>
      <trkpt lat="43.98378" lon="1.70951">
        <ele>140.97</ele>
        <time>2021-08-18T05:28:28Z</time>
      </trkpt>
      <trkpt lat="43.98353" lon="1.7097">
        <ele>140.97</ele>
        <time>2021-08-18T05:28:35Z</time>
      </trkpt>
      <trkpt lat="43.9832" lon="1.70995">
        <ele>140.97</ele>
        <time>2021-08-18T05:28:44Z</time>
      </trkpt>
      <trkpt lat="43.98283" lon="1.71012">
        <ele>141.93</ele>
        <time>2021-08-18T05:28:53Z</time>
      </trkpt>
      <trkpt lat="43.98251" lon="1.71022">
        <ele>142.41</ele>
        <time>2021-08-18T05:29:01Z</time>
      </trkpt>
      <trkpt lat="43.98222" lon="1.71032">
        <ele>143.37</ele>
        <time>2021-08-18T05:29:09Z</time>
      </trkpt>
      <trkpt lat="43.98186" lon="1.71048">
        <ele>143.85</ele>
        <time>2021-08-18T05:29:19Z</time>
      </trkpt>
      <trkpt lat="43.98156" lon="1.71061">
        <ele>145.3</ele>
        <time>2021-08-18T05:29:29Z</time>
      </trkpt>
      <trkpt lat="43.98145" lon="1.71066">
        <ele>145.78</ele>
        <time>2021-08-18T05:29:34Z</time>
      </trkpt>
      <trkpt lat="43.98143" lon="1.71065">
        <ele>145.78</ele>
        <time>2021-08-18T05:29:35Z</time>
      </trkpt>
      <trkpt lat="43.98142" lon="1.71064">
        <ele>145.78</ele>
        <time>2021-08-18T05:29:36Z</time>
      </trkpt>
      <trkpt lat="43.98136" lon="1.71055">
        <ele>147.22</ele>
        <time>2021-08-18T05:29:42Z</time>
      </trkpt>
      <trkpt lat="43.98129" lon="1.71043">
        <ele>149.14</ele>
        <time>2021-08-18T05:29:51Z</time>
      </trkpt>
      <trkpt lat="43.98128" lon="1.71043">
        <ele>149.62</ele>
        <time>2021-08-18T05:29:52Z</time>
      </trkpt>
      <trkpt lat="43.98127" lon="1.71041">
        <ele>150.1</ele>
        <time>2021-08-18T05:29:54Z</time>
      </trkpt>
      <trkpt lat="43.98119" lon="1.71031">
        <ele>151.06</ele>
        <time>2021-08-18T05:30:02Z</time>
      </trkpt>
      <trkpt lat="43.98111" lon="1.71022">
        <ele>152.51</ele>
        <time>2021-08-18T05:30:10Z</time>
      </trkpt>
      <trkpt lat="43.98102" lon="1.71015">
        <ele>153.47</ele>
        <time>2021-08-18T05:30:18Z</time>
      </trkpt>
      <trkpt lat="43.98093" lon="1.71007">
        <ele>154.43</ele>
        <time>2021-08-18T05:30:27Z</time>
      </trkpt>
      <trkpt lat="43.98093" lon="1.71005">
        <ele>154.91</ele>
        <time>2021-08-18T05:30:28Z</time>
      </trkpt>
      <trkpt lat="43.98092" lon="1.71003">
        <ele>154.91</ele>
        <time>2021-08-18T05:30:29Z</time>
      </trkpt>
      <trkpt lat="43.98091" lon="1.71002">
        <ele>155.39</ele>
        <time>2021-08-18T05:30:30Z</time>
      </trkpt>
      <trkpt lat="43.98081" lon="1.70991">
        <ele>156.83</ele>
        <time>2021-08-18T05:30:40Z</time>
      </trkpt>
      <trkpt lat="43.9807" lon="1.70985">
        <ele>158.27</ele>
        <time>2021-08-18T05:30:50Z</time>
      </trkpt>
      <trkpt lat="43.98063" lon="1.70984">
        <ele>159.72</ele>
        <time>2021-08-18T05:30:55Z</time>
      </trkpt>
      <trkpt lat="43.98057" lon="1.70981">
        <ele>160.68</ele>
        <time>2021-08-18T05:31:00Z</time>
      </trkpt>
      <trkpt lat="43.98056" lon="1.7098">
        <ele>160.68</ele>
        <time>2021-08-18T05:31:01Z</time>
      </trkpt>
      <trkpt lat="43.9805" lon="1.70975">
        <ele>162.12</ele>
        <time>2021-08-18T05:31:06Z</time>
      </trkpt>
      <trkpt lat="43.98049" lon="1.70969">
        <ele>162.6</ele>
        <time>2021-08-18T05:31:10Z</time>
      </trkpt>
      <trkpt lat="43.98049" lon="1.70965">
        <ele>162.6</ele>
        <time>2021-08-18T05:31:12Z</time>
      </trkpt>
      <trkpt lat="43.98055" lon="1.70942">
        <ele>163.56</ele>
        <time>2021-08-18T05:31:22Z</time>
      </trkpt>
      <trkpt lat="43.98049" lon="1.70922">
        <ele>164.52</ele>
        <time>2021-08-18T05:31:31Z</time>
      </trkpt>
      <trkpt lat="43.98036" lon="1.70915">
        <ele>165</ele>
        <time>2021-08-18T05:31:39Z</time>
      </trkpt>
      <trkpt lat="43.98019" lon="1.70904">
        <ele>165.48</ele>
        <time>2021-08-18T05:31:48Z</time>
      </trkpt>
      <trkpt lat="43.98003" lon="1.70896">
        <ele>166.45</ele>
        <time>2021-08-18T05:31:56Z</time>
      </trkpt>
      <trkpt lat="43.98001" lon="1.70897">
        <ele>166.45</ele>
        <time>2021-08-18T05:31:57Z</time>
      </trkpt>
      <trkpt lat="43.97999" lon="1.70898">
        <ele>166.45</ele>
        <time>2021-08-18T05:32:04Z</time>
      </trkpt>
      <trkpt lat="43.97995" lon="1.70902">
        <ele>166.45</ele>
        <time>2021-08-18T05:32:09Z</time>
      </trkpt>
      <trkpt lat="43.97995" lon="1.70904">
        <ele>166.45</ele>
        <time>2021-08-18T05:32:10Z</time>
      </trkpt>
      <trkpt lat="43.97996" lon="1.70921">
        <ele>166.93</ele>
        <time>2021-08-18T05:32:17Z</time>
      </trkpt>
      <trkpt lat="43.97995" lon="1.70923">
        <ele>166.93</ele>
        <time>2021-08-18T05:32:18Z</time>
      </trkpt>
      <trkpt lat="43.97994" lon="1.70926">
        <ele>167.41</ele>
        <time>2021-08-18T05:32:19Z</time>
      </trkpt>
      <trkpt lat="43.97994" lon="1.70931">
        <ele>167.89</ele>
        <time>2021-08-18T05:32:21Z</time>
      </trkpt>
      <trkpt lat="43.97994" lon="1.70933">
        <ele>167.89</ele>
        <time>2021-08-18T05:32:22Z</time>
      </trkpt>
      <trkpt lat="43.97994" lon="1.70936">
        <ele>167.89</ele>
        <time>2021-08-18T05:32:23Z</time>
      </trkpt>
      <trkpt lat="43.97994" lon="1.70938">
        <ele>168.85</ele>
        <time>2021-08-18T05:32:24Z</time>
      </trkpt>
      <trkpt lat="43.97994" lon="1.70941">
        <ele>168.85</ele>
        <time>2021-08-18T05:32:25Z</time>
      </trkpt>
      <trkpt lat="43.97993" lon="1.70956">
        <ele>170.29</ele>
        <time>2021-08-18T05:32:32Z</time>
      </trkpt>
      <trkpt lat="43.97991" lon="1.70972">
        <ele>171.25</ele>
        <time>2021-08-18T05:32:39Z</time>
      </trkpt>
      <trkpt lat="43.97987" lon="1.70988">
        <ele>173.17</ele>
        <time>2021-08-18T05:32:46Z</time>
      </trkpt>
      <trkpt lat="43.97986" lon="1.7099">
        <ele>173.66</ele>
        <time>2021-08-18T05:32:47Z</time>
      </trkpt>
      <trkpt lat="43.97986" lon="1.70993">
        <ele>173.66</ele>
        <time>2021-08-18T05:32:48Z</time>
      </trkpt>
      <trkpt lat="43.97986" lon="1.70997">
        <ele>173.66</ele>
        <time>2021-08-18T05:32:49Z</time>
      </trkpt>
      <trkpt lat="43.97986" lon="1.71024">
        <ele>172.21</ele>
        <time>2021-08-18T05:32:54Z</time>
      </trkpt>
      <trkpt lat="43.97985" lon="1.71048">
        <ele>171.25</ele>
        <time>2021-08-18T05:33:00Z</time>
      </trkpt>
      <trkpt lat="43.97985" lon="1.71076">
        <ele>170.29</ele>
        <time>2021-08-18T05:33:06Z</time>
      </trkpt>
      <trkpt lat="43.97982" lon="1.71098">
        <ele>169.33</ele>
        <time>2021-08-18T05:33:10Z</time>
      </trkpt>
      <trkpt lat="43.97982" lon="1.71111">
        <ele>168.85</ele>
        <time>2021-08-18T05:33:12Z</time>
      </trkpt>
      <trkpt lat="43.9798" lon="1.71116">
        <ele>168.37</ele>
        <time>2021-08-18T05:33:13Z</time>
      </trkpt>
      <trkpt lat="43.97977" lon="1.71122">
        <ele>168.37</ele>
        <time>2021-08-18T05:33:14Z</time>
      </trkpt>
      <trkpt lat="43.97975" lon="1.71127">
        <ele>168.37</ele>
        <time>2021-08-18T05:33:15Z</time>
      </trkpt>
      <trkpt lat="43.97973" lon="1.71131">
        <ele>168.37</ele>
        <time>2021-08-18T05:33:16Z</time>
      </trkpt>
      <trkpt lat="43.97971" lon="1.71135">
        <ele>168.37</ele>
        <time>2021-08-18T05:33:17Z</time>
      </trkpt>
      <trkpt lat="43.9797" lon="1.71136">
        <ele>168.37</ele>
        <time>2021-08-18T05:33:18Z</time>
      </trkpt>
      <trkpt lat="43.97969" lon="1.71138">
        <ele>169.33</ele>
        <time>2021-08-18T05:33:19Z</time>
      </trkpt>
      <trkpt lat="43.97968" lon="1.71139">
        <ele>169.33</ele>
        <time>2021-08-18T05:33:20Z</time>
      </trkpt>
      <trkpt lat="43.97967" lon="1.7114">
        <ele>169.81</ele>
        <time>2021-08-18T05:33:21Z</time>
      </trkpt>
      <trkpt lat="43.97966" lon="1.71141">
        <ele>169.81</ele>
        <time>2021-08-18T05:33:22Z</time>
      </trkpt>
      <trkpt lat="43.9796" lon="1.71148">
        <ele>171.25</ele>
        <time>2021-08-18T05:33:30Z</time>
      </trkpt>
      <trkpt lat="43.97953" lon="1.71154">
        <ele>173.17</ele>
        <time>2021-08-18T05:33:38Z</time>
      </trkpt>
      <trkpt lat="43.97947" lon="1.71163">
        <ele>174.62</ele>
        <time>2021-08-18T05:33:47Z</time>
      </trkpt>
      <trkpt lat="43.97943" lon="1.71169">
        <ele>175.58</ele>
        <time>2021-08-18T05:33:55Z</time>
      </trkpt>
      <trkpt lat="43.97938" lon="1.71176">
        <ele>177.02</ele>
        <time>2021-08-18T05:34:04Z</time>
      </trkpt>
      <trkpt lat="43.97933" lon="1.71182">
        <ele>177.98</ele>
        <time>2021-08-18T05:34:12Z</time>
      </trkpt>
      <trkpt lat="43.9793" lon="1.7119">
        <ele>179.42</ele>
        <time>2021-08-18T05:34:20Z</time>
      </trkpt>
      <trkpt lat="43.97928" lon="1.71199">
        <ele>180.87</ele>
        <time>2021-08-18T05:34:29Z</time>
      </trkpt>
      <trkpt lat="43.97924" lon="1.71206">
        <ele>182.79</ele>
        <time>2021-08-18T05:34:39Z</time>
      </trkpt>
      <trkpt lat="43.9792" lon="1.71215">
        <ele>183.75</ele>
        <time>2021-08-18T05:34:47Z</time>
      </trkpt>
      <trkpt lat="43.97917" lon="1.71224">
        <ele>185.19</ele>
        <time>2021-08-18T05:34:56Z</time>
      </trkpt>
      <trkpt lat="43.97913" lon="1.71232">
        <ele>186.63</ele>
        <time>2021-08-18T05:35:07Z</time>
      </trkpt>
      <trkpt lat="43.97911" lon="1.71241">
        <ele>188.08</ele>
        <time>2021-08-18T05:35:15Z</time>
      </trkpt>
      <trkpt lat="43.97908" lon="1.71248">
        <ele>189.04</ele>
        <time>2021-08-18T05:35:23Z</time>
      </trkpt>
      <trkpt lat="43.97906" lon="1.71256">
        <ele>190</ele>
        <time>2021-08-18T05:35:31Z</time>
      </trkpt>
      <trkpt lat="43.97901" lon="1.71265">
        <ele>191.92</ele>
        <time>2021-08-18T05:35:41Z</time>
      </trkpt>
      <trkpt lat="43.97899" lon="1.71271">
        <ele>192.88</ele>
        <time>2021-08-18T05:35:48Z</time>
      </trkpt>
      <trkpt lat="43.97895" lon="1.71279">
        <ele>194.32</ele>
        <time>2021-08-18T05:35:57Z</time>
      </trkpt>
      <trkpt lat="43.97892" lon="1.71288">
        <ele>195.28</ele>
        <time>2021-08-18T05:36:05Z</time>
      </trkpt>
      <trkpt lat="43.97889" lon="1.71296">
        <ele>196.25</ele>
        <time>2021-08-18T05:36:13Z</time>
      </trkpt>
      <trkpt lat="43.97886" lon="1.71307">
        <ele>197.69</ele>
        <time>2021-08-18T05:36:22Z</time>
      </trkpt>
      <trkpt lat="43.97882" lon="1.71318">
        <ele>199.13</ele>
        <time>2021-08-18T05:36:31Z</time>
      </trkpt>
      <trkpt lat="43.97877" lon="1.71329">
        <ele>200.09</ele>
        <time>2021-08-18T05:36:40Z</time>
      </trkpt>
      <trkpt lat="43.97873" lon="1.71341">
        <ele>202.01</ele>
        <time>2021-08-18T05:36:51Z</time>
      </trkpt>
      <trkpt lat="43.97868" lon="1.71351">
        <ele>202.98</ele>
        <time>2021-08-18T05:36:59Z</time>
      </trkpt>
      <trkpt lat="43.97865" lon="1.71362">
        <ele>204.42</ele>
        <time>2021-08-18T05:37:08Z</time>
      </trkpt>
      <trkpt lat="43.97861" lon="1.71371">
        <ele>204.9</ele>
        <time>2021-08-18T05:37:17Z</time>
      </trkpt>
      <trkpt lat="43.97857" lon="1.71381">
        <ele>204.9</ele>
        <time>2021-08-18T05:37:24Z</time>
      </trkpt>
      <trkpt lat="43.97845" lon="1.71402">
        <ele>205.38</ele>
        <time>2021-08-18T05:37:31Z</time>
      </trkpt>
      <trkpt lat="43.9783" lon="1.7141">
        <ele>206.34</ele>
        <time>2021-08-18T05:37:38Z</time>
      </trkpt>
      <trkpt lat="43.97815" lon="1.71411">
        <ele>206.82</ele>
        <time>2021-08-18T05:37:45Z</time>
      </trkpt>
      <trkpt lat="43.97799" lon="1.71403">
        <ele>208.26</ele>
        <time>2021-08-18T05:37:52Z</time>
      </trkpt>
      <trkpt lat="43.97779" lon="1.71393">
        <ele>207.78</ele>
        <time>2021-08-18T05:37:58Z</time>
      </trkpt>
      <trkpt lat="43.97775" lon="1.71393">
        <ele>206.82</ele>
        <time>2021-08-18T05:37:59Z</time>
      </trkpt>
      <trkpt lat="43.97771" lon="1.71392">
        <ele>206.34</ele>
        <time>2021-08-18T05:38:00Z</time>
      </trkpt>
      <trkpt lat="43.97758" lon="1.71387">
        <ele>205.86</ele>
        <time>2021-08-18T05:38:03Z</time>
      </trkpt>
      <trkpt lat="43.97725" lon="1.71367">
        <ele>204.42</ele>
        <time>2021-08-18T05:38:10Z</time>
      </trkpt>
      <trkpt lat="43.9772" lon="1.71367">
        <ele>204.42</ele>
        <time>2021-08-18T05:38:11Z</time>
      </trkpt>
      <trkpt lat="43.97715" lon="1.71367">
        <ele>204.42</ele>
        <time>2021-08-18T05:38:12Z</time>
      </trkpt>
      <trkpt lat="43.97711" lon="1.71369">
        <ele>204.42</ele>
        <time>2021-08-18T05:38:13Z</time>
      </trkpt>
      <trkpt lat="43.97706" lon="1.7137">
        <ele>204.42</ele>
        <time>2021-08-18T05:38:14Z</time>
      </trkpt>
      <trkpt lat="43.97685" lon="1.71383">
        <ele>204.42</ele>
        <time>2021-08-18T05:38:21Z</time>
      </trkpt>
      <trkpt lat="43.97656" lon="1.71401">
        <ele>206.82</ele>
        <time>2021-08-18T05:38:31Z</time>
      </trkpt>
      <trkpt lat="43.97628" lon="1.71416">
        <ele>207.78</ele>
        <time>2021-08-18T05:38:40Z</time>
      </trkpt>
      <trkpt lat="43.97598" lon="1.71421">
        <ele>208.74</ele>
        <time>2021-08-18T05:38:49Z</time>
      </trkpt>
      <trkpt lat="43.97573" lon="1.71411">
        <ele>209.22</ele>
        <time>2021-08-18T05:38:56Z</time>
      </trkpt>
      <trkpt lat="43.97539" lon="1.71396">
        <ele>209.7</ele>
        <time>2021-08-18T05:39:05Z</time>
      </trkpt>
      <trkpt lat="43.97499" lon="1.7139">
        <ele>210.19</ele>
        <time>2021-08-18T05:39:15Z</time>
      </trkpt>
      <trkpt lat="43.97478" lon="1.71387">
        <ele>211.63</ele>
        <time>2021-08-18T05:39:22Z</time>
      </trkpt>
      <trkpt lat="43.97459" lon="1.71386">
        <ele>213.55</ele>
        <time>2021-08-18T05:39:32Z</time>
      </trkpt>
      <trkpt lat="43.97441" lon="1.71385">
        <ele>215.47</ele>
        <time>2021-08-18T05:39:41Z</time>
      </trkpt>
      <trkpt lat="43.97431" lon="1.71387">
        <ele>215.95</ele>
        <time>2021-08-18T05:39:46Z</time>
      </trkpt>
      <trkpt lat="43.97429" lon="1.71385">
        <ele>215.95</ele>
        <time>2021-08-18T05:39:47Z</time>
      </trkpt>
      <trkpt lat="43.97427" lon="1.71383">
        <ele>215.95</ele>
        <time>2021-08-18T05:39:48Z</time>
      </trkpt>
      <trkpt lat="43.97425" lon="1.7138">
        <ele>215.95</ele>
        <time>2021-08-18T05:39:49Z</time>
      </trkpt>
      <trkpt lat="43.97423" lon="1.71376">
        <ele>215.95</ele>
        <time>2021-08-18T05:39:50Z</time>
      </trkpt>
      <trkpt lat="43.97421" lon="1.71372">
        <ele>215.95</ele>
        <time>2021-08-18T05:39:51Z</time>
      </trkpt>
      <trkpt lat="43.97419" lon="1.71367">
        <ele>215.95</ele>
        <time>2021-08-18T05:39:52Z</time>
      </trkpt>
      <trkpt lat="43.97414" lon="1.71356">
        <ele>214.51</ele>
        <time>2021-08-18T05:39:54Z</time>
      </trkpt>
      <trkpt lat="43.97411" lon="1.7135">
        <ele>214.03</ele>
        <time>2021-08-18T05:39:55Z</time>
      </trkpt>
      <trkpt lat="43.97399" lon="1.7133">
        <ele>212.59</ele>
        <time>2021-08-18T05:39:58Z</time>
      </trkpt>
      <trkpt lat="43.97394" lon="1.71324">
        <ele>212.11</ele>
        <time>2021-08-18T05:39:59Z</time>
      </trkpt>
      <trkpt lat="43.97389" lon="1.7132">
        <ele>211.63</ele>
        <time>2021-08-18T05:40:00Z</time>
      </trkpt>
      <trkpt lat="43.97382" lon="1.71316">
        <ele>211.63</ele>
        <time>2021-08-18T05:40:01Z</time>
      </trkpt>
      <trkpt lat="43.97376" lon="1.71315">
        <ele>211.63</ele>
        <time>2021-08-18T05:40:02Z</time>
      </trkpt>
      <trkpt lat="43.9737" lon="1.71315">
        <ele>211.63</ele>
        <time>2021-08-18T05:40:03Z</time>
      </trkpt>
      <trkpt lat="43.97363" lon="1.71316">
        <ele>211.15</ele>
        <time>2021-08-18T05:40:04Z</time>
      </trkpt>
      <trkpt lat="43.97356" lon="1.71318">
        <ele>211.15</ele>
        <time>2021-08-18T05:40:05Z</time>
      </trkpt>
      <trkpt lat="43.97298" lon="1.71334">
        <ele>209.22</ele>
        <time>2021-08-18T05:40:14Z</time>
      </trkpt>
      <trkpt lat="43.97246" lon="1.71344">
        <ele>206.82</ele>
        <time>2021-08-18T05:40:22Z</time>
      </trkpt>
      <trkpt lat="43.97219" lon="1.71345">
        <ele>203.46</ele>
        <time>2021-08-18T05:40:26Z</time>
      </trkpt>
      <trkpt lat="43.97213" lon="1.71343">
        <ele>202.49</ele>
        <time>2021-08-18T05:40:27Z</time>
      </trkpt>
      <trkpt lat="43.97206" lon="1.71339">
        <ele>202.01</ele>
        <time>2021-08-18T05:40:28Z</time>
      </trkpt>
      <trkpt lat="43.97201" lon="1.71334">
        <ele>201.05</ele>
        <time>2021-08-18T05:40:29Z</time>
      </trkpt>
      <trkpt lat="43.97197" lon="1.71326">
        <ele>200.57</ele>
        <time>2021-08-18T05:40:30Z</time>
      </trkpt>
      <trkpt lat="43.97194" lon="1.71317">
        <ele>200.09</ele>
        <time>2021-08-18T05:40:31Z</time>
      </trkpt>
      <trkpt lat="43.97192" lon="1.71307">
        <ele>199.61</ele>
        <time>2021-08-18T05:40:32Z</time>
      </trkpt>
      <trkpt lat="43.97189" lon="1.71297">
        <ele>198.65</ele>
        <time>2021-08-18T05:40:33Z</time>
      </trkpt>
      <trkpt lat="43.97187" lon="1.71286">
        <ele>198.17</ele>
        <time>2021-08-18T05:40:34Z</time>
      </trkpt>
      <trkpt lat="43.97179" lon="1.71238">
        <ele>194.8</ele>
        <time>2021-08-18T05:40:38Z</time>
      </trkpt>
      <trkpt lat="43.97175" lon="1.71216">
        <ele>193.36</ele>
        <time>2021-08-18T05:40:40Z</time>
      </trkpt>
      <trkpt lat="43.97172" lon="1.71207">
        <ele>192.88</ele>
        <time>2021-08-18T05:40:41Z</time>
      </trkpt>
      <trkpt lat="43.97168" lon="1.71199">
        <ele>191.92</ele>
        <time>2021-08-18T05:40:42Z</time>
      </trkpt>
      <trkpt lat="43.97164" lon="1.71192">
        <ele>191.44</ele>
        <time>2021-08-18T05:40:43Z</time>
      </trkpt>
      <trkpt lat="43.97159" lon="1.71187">
        <ele>190.96</ele>
        <time>2021-08-18T05:40:44Z</time>
      </trkpt>
      <trkpt lat="43.97154" lon="1.71183">
        <ele>190</ele>
        <time>2021-08-18T05:40:45Z</time>
      </trkpt>
      <trkpt lat="43.97149" lon="1.7118">
        <ele>189.52</ele>
        <time>2021-08-18T05:40:46Z</time>
      </trkpt>
      <trkpt lat="43.97144" lon="1.71178">
        <ele>189.52</ele>
        <time>2021-08-18T05:40:47Z</time>
      </trkpt>
      <trkpt lat="43.9714" lon="1.71177">
        <ele>189.04</ele>
        <time>2021-08-18T05:40:48Z</time>
      </trkpt>
      <trkpt lat="43.97136" lon="1.71174">
        <ele>188.56</ele>
        <time>2021-08-18T05:40:49Z</time>
      </trkpt>
      <trkpt lat="43.97132" lon="1.71171">
        <ele>188.56</ele>
        <time>2021-08-18T05:40:50Z</time>
      </trkpt>
      <trkpt lat="43.97129" lon="1.71168">
        <ele>187.59</ele>
        <time>2021-08-18T05:40:51Z</time>
      </trkpt>
      <trkpt lat="43.97119" lon="1.71162">
        <ele>186.63</ele>
        <time>2021-08-18T05:40:53Z</time>
      </trkpt>
      <trkpt lat="43.97093" lon="1.71152">
        <ele>184.71</ele>
        <time>2021-08-18T05:40:57Z</time>
      </trkpt>
      <trkpt lat="43.97079" lon="1.71149">
        <ele>182.79</ele>
        <time>2021-08-18T05:40:59Z</time>
      </trkpt>
      <trkpt lat="43.97049" lon="1.71142">
        <ele>180.38</ele>
        <time>2021-08-18T05:41:03Z</time>
      </trkpt>
      <trkpt lat="43.97043" lon="1.71138">
        <ele>179.9</ele>
        <time>2021-08-18T05:41:04Z</time>
      </trkpt>
      <trkpt lat="43.97036" lon="1.71133">
        <ele>179.42</ele>
        <time>2021-08-18T05:41:05Z</time>
      </trkpt>
      <trkpt lat="43.97016" lon="1.71115">
        <ele>176.06</ele>
        <time>2021-08-18T05:41:08Z</time>
      </trkpt>
      <trkpt lat="43.96994" lon="1.71096">
        <ele>172.69</ele>
        <time>2021-08-18T05:41:11Z</time>
      </trkpt>
      <trkpt lat="43.96986" lon="1.71092">
        <ele>171.73</ele>
        <time>2021-08-18T05:41:12Z</time>
      </trkpt>
      <trkpt lat="43.96978" lon="1.71088">
        <ele>171.25</ele>
        <time>2021-08-18T05:41:13Z</time>
      </trkpt>
      <trkpt lat="43.9697" lon="1.71086">
        <ele>170.77</ele>
        <time>2021-08-18T05:41:14Z</time>
      </trkpt>
      <trkpt lat="43.96961" lon="1.71085">
        <ele>170.77</ele>
        <time>2021-08-18T05:41:15Z</time>
      </trkpt>
      <trkpt lat="43.96952" lon="1.71084">
        <ele>169.81</ele>
        <time>2021-08-18T05:41:16Z</time>
      </trkpt>
      <trkpt lat="43.96944" lon="1.71084">
        <ele>170.29</ele>
        <time>2021-08-18T05:41:17Z</time>
      </trkpt>
      <trkpt lat="43.96936" lon="1.71086">
        <ele>169.81</ele>
        <time>2021-08-18T05:41:18Z</time>
      </trkpt>
      <trkpt lat="43.96929" lon="1.71088">
        <ele>169.81</ele>
        <time>2021-08-18T05:41:19Z</time>
      </trkpt>
      <trkpt lat="43.96898" lon="1.71097">
        <ele>171.73</ele>
        <time>2021-08-18T05:41:24Z</time>
      </trkpt>
      <trkpt lat="43.96871" lon="1.71109">
        <ele>172.21</ele>
        <time>2021-08-18T05:41:31Z</time>
      </trkpt>
      <trkpt lat="43.96845" lon="1.71125">
        <ele>172.69</ele>
        <time>2021-08-18T05:41:38Z</time>
      </trkpt>
      <trkpt lat="43.96809" lon="1.71135">
        <ele>173.17</ele>
        <time>2021-08-18T05:41:47Z</time>
      </trkpt>
      <trkpt lat="43.96782" lon="1.71141">
        <ele>174.14</ele>
        <time>2021-08-18T05:41:54Z</time>
      </trkpt>
      <trkpt lat="43.96774" lon="1.71144">
        <ele>174.62</ele>
        <time>2021-08-18T05:41:57Z</time>
      </trkpt>
      <trkpt lat="43.96764" lon="1.71156">
        <ele>174.62</ele>
        <time>2021-08-18T05:42:03Z</time>
      </trkpt>
      <trkpt lat="43.96752" lon="1.71165">
        <ele>175.58</ele>
        <time>2021-08-18T05:42:11Z</time>
      </trkpt>
      <trkpt lat="43.96747" lon="1.71173">
        <ele>176.06</ele>
        <time>2021-08-18T05:42:17Z</time>
      </trkpt>
      <trkpt lat="43.96746" lon="1.71175">
        <ele>176.54</ele>
        <time>2021-08-18T05:42:18Z</time>
      </trkpt>
      <trkpt lat="43.96745" lon="1.71177">
        <ele>176.54</ele>
        <time>2021-08-18T05:42:19Z</time>
      </trkpt>
      <trkpt lat="43.96738" lon="1.71193">
        <ele>177.98</ele>
        <time>2021-08-18T05:42:30Z</time>
      </trkpt>
      <trkpt lat="43.9673" lon="1.71202">
        <ele>178.94</ele>
        <time>2021-08-18T05:42:38Z</time>
      </trkpt>
      <trkpt lat="43.96724" lon="1.71209">
        <ele>179.9</ele>
        <time>2021-08-18T05:42:46Z</time>
      </trkpt>
      <trkpt lat="43.96718" lon="1.71214">
        <ele>181.35</ele>
        <time>2021-08-18T05:42:52Z</time>
      </trkpt>
      <trkpt lat="43.96708" lon="1.71225">
        <ele>182.31</ele>
        <time>2021-08-18T05:43:01Z</time>
      </trkpt>
      <trkpt lat="43.96703" lon="1.71232">
        <ele>183.75</ele>
        <time>2021-08-18T05:43:08Z</time>
      </trkpt>
      <trkpt lat="43.96697" lon="1.71241">
        <ele>184.71</ele>
        <time>2021-08-18T05:43:15Z</time>
      </trkpt>
      <trkpt lat="43.96691" lon="1.71255">
        <ele>185.67</ele>
        <time>2021-08-18T05:43:25Z</time>
      </trkpt>
      <trkpt lat="43.96684" lon="1.7127">
        <ele>187.11</ele>
        <time>2021-08-18T05:43:35Z</time>
      </trkpt>
      <trkpt lat="43.9668" lon="1.71279">
        <ele>188.08</ele>
        <time>2021-08-18T05:43:41Z</time>
      </trkpt>
      <trkpt lat="43.96675" lon="1.71286">
        <ele>189.04</ele>
        <time>2021-08-18T05:43:48Z</time>
      </trkpt>
      <trkpt lat="43.96671" lon="1.71288">
        <ele>190.48</ele>
        <time>2021-08-18T05:43:55Z</time>
      </trkpt>
      <trkpt lat="43.9667" lon="1.71287">
        <ele>190.48</ele>
        <time>2021-08-18T05:43:56Z</time>
      </trkpt>
      <trkpt lat="43.9667" lon="1.71282">
        <ele>191.44</ele>
        <time>2021-08-18T05:44:01Z</time>
      </trkpt>
      <trkpt lat="43.9667" lon="1.71281">
        <ele>191.44</ele>
        <time>2021-08-18T05:44:02Z</time>
      </trkpt>
      <trkpt lat="43.9667" lon="1.7128">
        <ele>191.92</ele>
        <time>2021-08-18T05:44:03Z</time>
      </trkpt>
      <trkpt lat="43.96669" lon="1.71274">
        <ele>192.4</ele>
        <time>2021-08-18T05:44:10Z</time>
      </trkpt>
      <trkpt lat="43.96667" lon="1.71267">
        <ele>193.84</ele>
        <time>2021-08-18T05:44:17Z</time>
      </trkpt>
      <trkpt lat="43.96664" lon="1.71259">
        <ele>194.8</ele>
        <time>2021-08-18T05:44:25Z</time>
      </trkpt>
      <trkpt lat="43.96663" lon="1.71251">
        <ele>195.77</ele>
        <time>2021-08-18T05:44:32Z</time>
      </trkpt>
      <trkpt lat="43.96663" lon="1.71241">
        <ele>196.25</ele>
        <time>2021-08-18T05:44:39Z</time>
      </trkpt>
      <trkpt lat="43.96661" lon="1.71234">
        <ele>197.69</ele>
        <time>2021-08-18T05:44:47Z</time>
      </trkpt>
      <trkpt lat="43.96657" lon="1.71233">
        <ele>198.65</ele>
        <time>2021-08-18T05:44:54Z</time>
      </trkpt>
      <trkpt lat="43.96656" lon="1.71234">
        <ele>200.09</ele>
        <time>2021-08-18T05:45:01Z</time>
      </trkpt>
      <trkpt lat="43.96651" lon="1.71235">
        <ele>201.05</ele>
        <time>2021-08-18T05:45:09Z</time>
      </trkpt>
      <trkpt lat="43.96646" lon="1.7124">
        <ele>202.49</ele>
        <time>2021-08-18T05:45:17Z</time>
      </trkpt>
      <trkpt lat="43.96644" lon="1.7124">
        <ele>202.98</ele>
        <time>2021-08-18T05:45:18Z</time>
      </trkpt>
      <trkpt lat="43.96633" lon="1.71242">
        <ele>203.94</ele>
        <time>2021-08-18T05:45:26Z</time>
      </trkpt>
      <trkpt lat="43.96627" lon="1.71248">
        <ele>205.38</ele>
        <time>2021-08-18T05:45:35Z</time>
      </trkpt>
      <trkpt lat="43.96621" lon="1.71256">
        <ele>206.82</ele>
        <time>2021-08-18T05:45:46Z</time>
      </trkpt>
      <trkpt lat="43.96615" lon="1.71263">
        <ele>208.26</ele>
        <time>2021-08-18T05:45:54Z</time>
      </trkpt>
      <trkpt lat="43.9661" lon="1.71269">
        <ele>209.22</ele>
        <time>2021-08-18T05:46:02Z</time>
      </trkpt>
      <trkpt lat="43.96603" lon="1.71275">
        <ele>210.67</ele>
        <time>2021-08-18T05:46:11Z</time>
      </trkpt>
      <trkpt lat="43.96598" lon="1.7128">
        <ele>212.11</ele>
        <time>2021-08-18T05:46:19Z</time>
      </trkpt>
      <trkpt lat="43.96592" lon="1.71287">
        <ele>213.55</ele>
        <time>2021-08-18T05:46:28Z</time>
      </trkpt>
      <trkpt lat="43.96587" lon="1.71294">
        <ele>215.47</ele>
        <time>2021-08-18T05:46:38Z</time>
      </trkpt>
      <trkpt lat="43.96584" lon="1.71297">
        <ele>215.95</ele>
        <time>2021-08-18T05:46:43Z</time>
      </trkpt>
      <trkpt lat="43.9658" lon="1.71299">
        <ele>217.4</ele>
        <time>2021-08-18T05:46:49Z</time>
      </trkpt>
      <trkpt lat="43.96581" lon="1.71297">
        <ele>217.4</ele>
        <time>2021-08-18T05:46:50Z</time>
      </trkpt>
      <trkpt lat="43.9658" lon="1.71299">
        <ele>218.36</ele>
        <time>2021-08-18T05:46:53Z</time>
      </trkpt>
      <trkpt lat="43.96573" lon="1.71309">
        <ele>218.84</ele>
        <time>2021-08-18T05:47:03Z</time>
      </trkpt>
      <trkpt lat="43.96567" lon="1.71316">
        <ele>220.76</ele>
        <time>2021-08-18T05:47:12Z</time>
      </trkpt>
      <trkpt lat="43.96561" lon="1.71321">
        <ele>222.2</ele>
        <time>2021-08-18T05:47:22Z</time>
      </trkpt>
      <trkpt lat="43.96555" lon="1.71323">
        <ele>223.16</ele>
        <time>2021-08-18T05:47:31Z</time>
      </trkpt>
      <trkpt lat="43.96555" lon="1.71326">
        <ele>224.12</ele>
        <time>2021-08-18T05:47:40Z</time>
      </trkpt>
      <trkpt lat="43.9655" lon="1.71326">
        <ele>224.61</ele>
        <time>2021-08-18T05:47:50Z</time>
      </trkpt>
      <trkpt lat="43.96542" lon="1.71325">
        <ele>226.05</ele>
        <time>2021-08-18T05:47:59Z</time>
      </trkpt>
      <trkpt lat="43.96537" lon="1.71321">
        <ele>227.49</ele>
        <time>2021-08-18T05:48:10Z</time>
      </trkpt>
      <trkpt lat="43.96534" lon="1.71319">
        <ele>228.93</ele>
        <time>2021-08-18T05:48:19Z</time>
      </trkpt>
      <trkpt lat="43.9653" lon="1.71317">
        <ele>230.37</ele>
        <time>2021-08-18T05:48:27Z</time>
      </trkpt>
      <trkpt lat="43.96527" lon="1.71318">
        <ele>231.81</ele>
        <time>2021-08-18T05:48:35Z</time>
      </trkpt>
      <trkpt lat="43.96522" lon="1.71321">
        <ele>232.78</ele>
        <time>2021-08-18T05:48:43Z</time>
      </trkpt>
      <trkpt lat="43.96516" lon="1.71325">
        <ele>234.22</ele>
        <time>2021-08-18T05:48:52Z</time>
      </trkpt>
      <trkpt lat="43.96507" lon="1.71327">
        <ele>235.66</ele>
        <time>2021-08-18T05:49:01Z</time>
      </trkpt>
      <trkpt lat="43.96497" lon="1.71331">
        <ele>237.1</ele>
        <time>2021-08-18T05:49:10Z</time>
      </trkpt>
      <trkpt lat="43.96488" lon="1.71334">
        <ele>237.58</ele>
        <time>2021-08-18T05:49:19Z</time>
      </trkpt>
      <trkpt lat="43.9648" lon="1.71338">
        <ele>239.51</ele>
        <time>2021-08-18T05:49:28Z</time>
      </trkpt>
      <trkpt lat="43.96473" lon="1.71343">
        <ele>240.47</ele>
        <time>2021-08-18T05:49:37Z</time>
      </trkpt>
      <trkpt lat="43.96469" lon="1.71348">
        <ele>240.95</ele>
        <time>2021-08-18T05:49:46Z</time>
      </trkpt>
      <trkpt lat="43.96464" lon="1.71348">
        <ele>240.95</ele>
        <time>2021-08-18T05:50:00Z</time>
      </trkpt>
      <trkpt lat="43.96459" lon="1.71351">
        <ele>241.91</ele>
        <time>2021-08-18T05:50:11Z</time>
      </trkpt>
      <trkpt lat="43.96455" lon="1.71354">
        <ele>242.87</ele>
        <time>2021-08-18T05:50:18Z</time>
      </trkpt>
      <trkpt lat="43.96449" lon="1.71357">
        <ele>243.83</ele>
        <time>2021-08-18T05:50:26Z</time>
      </trkpt>
      <trkpt lat="43.9644" lon="1.71358">
        <ele>245.27</ele>
        <time>2021-08-18T05:50:35Z</time>
      </trkpt>
      <trkpt lat="43.96433" lon="1.7136">
        <ele>246.23</ele>
        <time>2021-08-18T05:50:43Z</time>
      </trkpt>
      <trkpt lat="43.96425" lon="1.71361">
        <ele>247.2</ele>
        <time>2021-08-18T05:50:52Z</time>
      </trkpt>
      <trkpt lat="43.9642" lon="1.71361">
        <ele>248.16</ele>
        <time>2021-08-18T05:51:00Z</time>
      </trkpt>
      <trkpt lat="43.96407" lon="1.71363">
        <ele>248.16</ele>
        <time>2021-08-18T05:51:06Z</time>
      </trkpt>
      <trkpt lat="43.96393" lon="1.71371">
        <ele>248.16</ele>
        <time>2021-08-18T05:51:13Z</time>
      </trkpt>
      <trkpt lat="43.96381" lon="1.71379">
        <ele>248.64</ele>
        <time>2021-08-18T05:51:19Z</time>
      </trkpt>
      <trkpt lat="43.96365" lon="1.71386">
        <ele>249.12</ele>
        <time>2021-08-18T05:51:25Z</time>
      </trkpt>
      <trkpt lat="43.96346" lon="1.71392">
        <ele>249.6</ele>
        <time>2021-08-18T05:51:32Z</time>
      </trkpt>
      <trkpt lat="43.96321" lon="1.71398">
        <ele>250.56</ele>
        <time>2021-08-18T05:51:40Z</time>
      </trkpt>
      <trkpt lat="43.963" lon="1.71402">
        <ele>251.52</ele>
        <time>2021-08-18T05:51:48Z</time>
      </trkpt>
      <trkpt lat="43.96283" lon="1.71401">
        <ele>252.48</ele>
        <time>2021-08-18T05:51:55Z</time>
      </trkpt>
      <trkpt lat="43.96263" lon="1.71403">
        <ele>252.48</ele>
        <time>2021-08-18T05:52:02Z</time>
      </trkpt>
      <trkpt lat="43.96251" lon="1.71401">
        <ele>251.04</ele>
        <time>2021-08-18T05:52:05Z</time>
      </trkpt>
      <trkpt lat="43.96237" lon="1.714">
        <ele>250.56</ele>
        <time>2021-08-18T05:52:08Z</time>
      </trkpt>
      <trkpt lat="43.96232" lon="1.714">
        <ele>250.56</ele>
        <time>2021-08-18T05:52:09Z</time>
      </trkpt>
      <trkpt lat="43.96223" lon="1.714">
        <ele>250.56</ele>
        <time>2021-08-18T05:52:11Z</time>
      </trkpt>
      <trkpt lat="43.96209" lon="1.71399">
        <ele>250.56</ele>
        <time>2021-08-18T05:52:16Z</time>
      </trkpt>
      <trkpt lat="43.96202" lon="1.71399">
        <ele>252</ele>
        <time>2021-08-18T05:52:20Z</time>
      </trkpt>
      <trkpt lat="43.96199" lon="1.71399">
        <ele>252</ele>
        <time>2021-08-18T05:52:21Z</time>
      </trkpt>
      <trkpt lat="43.96176" lon="1.71395">
        <ele>252.96</ele>
        <time>2021-08-18T05:52:28Z</time>
      </trkpt>
      <trkpt lat="43.96152" lon="1.71396">
        <ele>252.96</ele>
        <time>2021-08-18T05:52:34Z</time>
      </trkpt>
      <trkpt lat="43.96131" lon="1.71388">
        <ele>253.93</ele>
        <time>2021-08-18T05:52:40Z</time>
      </trkpt>
      <trkpt lat="43.96103" lon="1.71387">
        <ele>254.41</ele>
        <time>2021-08-18T05:52:49Z</time>
      </trkpt>
      <trkpt lat="43.96088" lon="1.71391">
        <ele>255.37</ele>
        <time>2021-08-18T05:52:55Z</time>
      </trkpt>
      <trkpt lat="43.96067" lon="1.71398">
        <ele>254.41</ele>
        <time>2021-08-18T05:53:01Z</time>
      </trkpt>
      <trkpt lat="43.96031" lon="1.71415">
        <ele>252.48</ele>
        <time>2021-08-18T05:53:08Z</time>
      </trkpt>
      <trkpt lat="43.95998" lon="1.71425">
        <ele>252.48</ele>
        <time>2021-08-18T05:53:15Z</time>
      </trkpt>
      <trkpt lat="43.9597" lon="1.71436">
        <ele>252.48</ele>
        <time>2021-08-18T05:53:23Z</time>
      </trkpt>
      <trkpt lat="43.95955" lon="1.71443">
        <ele>253.93</ele>
        <time>2021-08-18T05:53:26Z</time>
      </trkpt>
      <trkpt lat="43.95924" lon="1.7146">
        <ele>254.89</ele>
        <time>2021-08-18T05:53:34Z</time>
      </trkpt>
      <trkpt lat="43.9591" lon="1.71469">
        <ele>255.85</ele>
        <time>2021-08-18T05:53:40Z</time>
      </trkpt>
      <trkpt lat="43.95902" lon="1.7148">
        <ele>254.89</ele>
        <time>2021-08-18T05:53:43Z</time>
      </trkpt>
      <trkpt lat="43.95885" lon="1.71512">
        <ele>253.93</ele>
        <time>2021-08-18T05:53:49Z</time>
      </trkpt>
      <trkpt lat="43.95883" lon="1.71517">
        <ele>253.93</ele>
        <time>2021-08-18T05:53:50Z</time>
      </trkpt>
      <trkpt lat="43.9588" lon="1.71522">
        <ele>253.93</ele>
        <time>2021-08-18T05:53:51Z</time>
      </trkpt>
      <trkpt lat="43.95879" lon="1.71528">
        <ele>253.44</ele>
        <time>2021-08-18T05:53:52Z</time>
      </trkpt>
      <trkpt lat="43.95877" lon="1.71534">
        <ele>253.44</ele>
        <time>2021-08-18T05:53:53Z</time>
      </trkpt>
      <trkpt lat="43.95868" lon="1.7156">
        <ele>252.96</ele>
        <time>2021-08-18T05:53:59Z</time>
      </trkpt>
      <trkpt lat="43.95857" lon="1.71586">
        <ele>252.96</ele>
        <time>2021-08-18T05:54:05Z</time>
      </trkpt>
      <trkpt lat="43.95839" lon="1.71613">
        <ele>252.48</ele>
        <time>2021-08-18T05:54:12Z</time>
      </trkpt>
      <trkpt lat="43.95815" lon="1.71628">
        <ele>252.48</ele>
        <time>2021-08-18T05:54:20Z</time>
      </trkpt>
      <trkpt lat="43.95806" lon="1.71634">
        <ele>253.93</ele>
        <time>2021-08-18T05:54:24Z</time>
      </trkpt>
      <trkpt lat="43.95791" lon="1.7164">
        <ele>255.37</ele>
        <time>2021-08-18T05:54:31Z</time>
      </trkpt>
      <trkpt lat="43.95766" lon="1.71638">
        <ele>255.85</ele>
        <time>2021-08-18T05:54:39Z</time>
      </trkpt>
      <trkpt lat="43.95738" lon="1.71632">
        <ele>256.33</ele>
        <time>2021-08-18T05:54:47Z</time>
      </trkpt>
      <trkpt lat="43.95714" lon="1.71623">
        <ele>256.81</ele>
        <time>2021-08-18T05:54:55Z</time>
      </trkpt>
      <trkpt lat="43.95681" lon="1.71606">
        <ele>257.29</ele>
        <time>2021-08-18T05:55:03Z</time>
      </trkpt>
      <trkpt lat="43.95663" lon="1.71598">
        <ele>256.33</ele>
        <time>2021-08-18T05:55:07Z</time>
      </trkpt>
      <trkpt lat="43.95659" lon="1.71596">
        <ele>256.33</ele>
        <time>2021-08-18T05:55:08Z</time>
      </trkpt>
      <trkpt lat="43.95654" lon="1.71594">
        <ele>256.33</ele>
        <time>2021-08-18T05:55:09Z</time>
      </trkpt>
      <trkpt lat="43.95637" lon="1.71587">
        <ele>255.85</ele>
        <time>2021-08-18T05:55:13Z</time>
      </trkpt>
      <trkpt lat="43.95632" lon="1.71587">
        <ele>255.37</ele>
        <time>2021-08-18T05:55:14Z</time>
      </trkpt>
      <trkpt lat="43.95627" lon="1.71587">
        <ele>255.85</ele>
        <time>2021-08-18T05:55:15Z</time>
      </trkpt>
      <trkpt lat="43.95622" lon="1.71587">
        <ele>255.85</ele>
        <time>2021-08-18T05:55:16Z</time>
      </trkpt>
      <trkpt lat="43.95617" lon="1.71587">
        <ele>255.85</ele>
        <time>2021-08-18T05:55:17Z</time>
      </trkpt>
      <trkpt lat="43.95591" lon="1.71593">
        <ele>255.85</ele>
        <time>2021-08-18T05:55:23Z</time>
      </trkpt>
      <trkpt lat="43.95561" lon="1.71601">
        <ele>256.81</ele>
        <time>2021-08-18T05:55:30Z</time>
      </trkpt>
      <trkpt lat="43.95527" lon="1.71599">
        <ele>258.25</ele>
        <time>2021-08-18T05:55:39Z</time>
      </trkpt>
      <trkpt lat="43.95501" lon="1.71597">
        <ele>259.69</ele>
        <time>2021-08-18T05:55:48Z</time>
      </trkpt>
      <trkpt lat="43.95476" lon="1.71597">
        <ele>260.17</ele>
        <time>2021-08-18T05:55:56Z</time>
      </trkpt>
      <trkpt lat="43.95452" lon="1.71595">
        <ele>261.14</ele>
        <time>2021-08-18T05:56:05Z</time>
      </trkpt>
      <trkpt lat="43.95435" lon="1.71594">
        <ele>263.06</ele>
        <time>2021-08-18T05:56:13Z</time>
      </trkpt>
      <trkpt lat="43.95417" lon="1.7159">
        <ele>264.5</ele>
        <time>2021-08-18T05:56:23Z</time>
      </trkpt>
      <trkpt lat="43.95395" lon="1.71584">
        <ele>266.42</ele>
        <time>2021-08-18T05:56:33Z</time>
      </trkpt>
      <trkpt lat="43.9537" lon="1.7158">
        <ele>266.42</ele>
        <time>2021-08-18T05:56:40Z</time>
      </trkpt>
      <trkpt lat="43.95335" lon="1.71573">
        <ele>266.42</ele>
        <time>2021-08-18T05:56:48Z</time>
      </trkpt>
      <trkpt lat="43.95288" lon="1.7156">
        <ele>266.42</ele>
        <time>2021-08-18T05:56:59Z</time>
      </trkpt>
      <trkpt lat="43.95284" lon="1.71558">
        <ele>266.42</ele>
        <time>2021-08-18T05:57:00Z</time>
      </trkpt>
      <trkpt lat="43.9528" lon="1.71556">
        <ele>266.42</ele>
        <time>2021-08-18T05:57:01Z</time>
      </trkpt>
      <trkpt lat="43.95261" lon="1.71546">
        <ele>266.42</ele>
        <time>2021-08-18T05:57:06Z</time>
      </trkpt>
      <trkpt lat="43.95232" lon="1.71529">
        <ele>267.38</ele>
        <time>2021-08-18T05:57:14Z</time>
      </trkpt>
      <trkpt lat="43.95214" lon="1.71512">
        <ele>268.83</ele>
        <time>2021-08-18T05:57:21Z</time>
      </trkpt>
      <trkpt lat="43.95188" lon="1.71494">
        <ele>269.31</ele>
        <time>2021-08-18T05:57:30Z</time>
      </trkpt>
      <trkpt lat="43.95159" lon="1.71485">
        <ele>269.79</ele>
        <time>2021-08-18T05:57:38Z</time>
      </trkpt>
      <trkpt lat="43.95141" lon="1.71482">
        <ele>271.23</ele>
        <time>2021-08-18T05:57:45Z</time>
      </trkpt>
      <trkpt lat="43.95126" lon="1.71473">
        <ele>271.23</ele>
        <time>2021-08-18T05:57:51Z</time>
      </trkpt>
      <trkpt lat="43.9512" lon="1.71472">
        <ele>270.27</ele>
        <time>2021-08-18T05:57:53Z</time>
      </trkpt>
      <trkpt lat="43.95117" lon="1.71475">
        <ele>270.27</ele>
        <time>2021-08-18T05:57:54Z</time>
      </trkpt>
      <trkpt lat="43.95113" lon="1.71478">
        <ele>270.27</ele>
        <time>2021-08-18T05:57:55Z</time>
      </trkpt>
      <trkpt lat="43.95111" lon="1.71482">
        <ele>270.27</ele>
        <time>2021-08-18T05:57:56Z</time>
      </trkpt>
      <trkpt lat="43.95108" lon="1.71487">
        <ele>270.27</ele>
        <time>2021-08-18T05:57:57Z</time>
      </trkpt>
      <trkpt lat="43.95103" lon="1.71497">
        <ele>269.79</ele>
        <time>2021-08-18T05:57:59Z</time>
      </trkpt>
      <trkpt lat="43.9509" lon="1.71516">
        <ele>269.79</ele>
        <time>2021-08-18T05:58:03Z</time>
      </trkpt>
      <trkpt lat="43.95062" lon="1.71562">
        <ele>270.27</ele>
        <time>2021-08-18T05:58:12Z</time>
      </trkpt>
      <trkpt lat="43.95036" lon="1.71602">
        <ele>271.23</ele>
        <time>2021-08-18T05:58:21Z</time>
      </trkpt>
      <trkpt lat="43.95034" lon="1.71607">
        <ele>271.23</ele>
        <time>2021-08-18T05:58:22Z</time>
      </trkpt>
      <trkpt lat="43.9503" lon="1.71611">
        <ele>272.19</ele>
        <time>2021-08-18T05:58:23Z</time>
      </trkpt>
      <trkpt lat="43.95014" lon="1.71628">
        <ele>272.67</ele>
        <time>2021-08-18T05:58:28Z</time>
      </trkpt>
      <trkpt lat="43.94987" lon="1.71648">
        <ele>272.67</ele>
        <time>2021-08-18T05:58:36Z</time>
      </trkpt>
      <trkpt lat="43.9495" lon="1.71665">
        <ele>271.23</ele>
        <time>2021-08-18T05:58:43Z</time>
      </trkpt>
      <trkpt lat="43.94908" lon="1.71686">
        <ele>270.27</ele>
        <time>2021-08-18T05:58:50Z</time>
      </trkpt>
      <trkpt lat="43.9487" lon="1.71712">
        <ele>269.31</ele>
        <time>2021-08-18T05:58:57Z</time>
      </trkpt>
      <trkpt lat="43.94828" lon="1.71746">
        <ele>267.86</ele>
        <time>2021-08-18T05:59:05Z</time>
      </trkpt>
      <trkpt lat="43.94782" lon="1.71785">
        <ele>266.9</ele>
        <time>2021-08-18T05:59:13Z</time>
      </trkpt>
      <trkpt lat="43.94723" lon="1.71832">
        <ele>264.98</ele>
        <time>2021-08-18T05:59:23Z</time>
      </trkpt>
      <trkpt lat="43.94686" lon="1.71861">
        <ele>264.5</ele>
        <time>2021-08-18T05:59:29Z</time>
      </trkpt>
      <trkpt lat="43.94673" lon="1.71871">
        <ele>264.5</ele>
        <time>2021-08-18T05:59:31Z</time>
      </trkpt>
      <trkpt lat="43.9462" lon="1.71915">
        <ele>264.5</ele>
        <time>2021-08-18T05:59:40Z</time>
      </trkpt>
      <trkpt lat="43.94596" lon="1.71931">
        <ele>264.5</ele>
        <time>2021-08-18T05:59:44Z</time>
      </trkpt>
      <trkpt lat="43.94571" lon="1.7194">
        <ele>264.5</ele>
        <time>2021-08-18T05:59:48Z</time>
      </trkpt>
      <trkpt lat="43.94559" lon="1.71941">
        <ele>264.5</ele>
        <time>2021-08-18T05:59:50Z</time>
      </trkpt>
      <trkpt lat="43.94514" lon="1.71943">
        <ele>265.46</ele>
        <time>2021-08-18T05:59:58Z</time>
      </trkpt>
      <trkpt lat="43.94477" lon="1.71941">
        <ele>266.42</ele>
        <time>2021-08-18T06:00:06Z</time>
      </trkpt>
      <trkpt lat="43.94443" lon="1.71935">
        <ele>266.9</ele>
        <time>2021-08-18T06:00:14Z</time>
      </trkpt>
      <trkpt lat="43.94401" lon="1.71924">
        <ele>268.35</ele>
        <time>2021-08-18T06:00:25Z</time>
      </trkpt>
      <trkpt lat="43.94394" lon="1.7192">
        <ele>268.35</ele>
        <time>2021-08-18T06:00:27Z</time>
      </trkpt>
      <trkpt lat="43.94392" lon="1.71916">
        <ele>268.35</ele>
        <time>2021-08-18T06:00:28Z</time>
      </trkpt>
      <trkpt lat="43.94391" lon="1.71911">
        <ele>268.35</ele>
        <time>2021-08-18T06:00:29Z</time>
      </trkpt>
      <trkpt lat="43.94392" lon="1.71907">
        <ele>268.35</ele>
        <time>2021-08-18T06:00:30Z</time>
      </trkpt>
      <trkpt lat="43.94392" lon="1.71902">
        <ele>268.35</ele>
        <time>2021-08-18T06:00:31Z</time>
      </trkpt>
      <trkpt lat="43.94392" lon="1.71896">
        <ele>268.35</ele>
        <time>2021-08-18T06:00:32Z</time>
      </trkpt>
      <trkpt lat="43.94392" lon="1.71891">
        <ele>268.35</ele>
        <time>2021-08-18T06:00:33Z</time>
      </trkpt>
      <trkpt lat="43.94389" lon="1.71817">
        <ele>268.35</ele>
        <time>2021-08-18T06:00:45Z</time>
      </trkpt>
      <trkpt lat="43.94386" lon="1.71772">
        <ele>269.31</ele>
        <time>2021-08-18T06:00:53Z</time>
      </trkpt>
      <trkpt lat="43.94386" lon="1.71732">
        <ele>269.79</ele>
        <time>2021-08-18T06:01:00Z</time>
      </trkpt>
      <trkpt lat="43.94392" lon="1.71704">
        <ele>269.79</ele>
        <time>2021-08-18T06:01:05Z</time>
      </trkpt>
      <trkpt lat="43.94393" lon="1.71698">
        <ele>269.79</ele>
        <time>2021-08-18T06:01:06Z</time>
      </trkpt>
      <trkpt lat="43.94402" lon="1.71664">
        <ele>269.79</ele>
        <time>2021-08-18T06:01:12Z</time>
      </trkpt>
      <trkpt lat="43.94406" lon="1.71653">
        <ele>269.79</ele>
        <time>2021-08-18T06:01:14Z</time>
      </trkpt>
      <trkpt lat="43.94422" lon="1.71592">
        <ele>269.79</ele>
        <time>2021-08-18T06:01:24Z</time>
      </trkpt>
      <trkpt lat="43.94427" lon="1.71574">
        <ele>269.79</ele>
        <time>2021-08-18T06:01:27Z</time>
      </trkpt>
      <trkpt lat="43.94444" lon="1.71517">
        <ele>269.79</ele>
        <time>2021-08-18T06:01:36Z</time>
      </trkpt>
      <trkpt lat="43.94465" lon="1.71471">
        <ele>269.79</ele>
        <time>2021-08-18T06:01:44Z</time>
      </trkpt>
      <trkpt lat="43.9447" lon="1.71459">
        <ele>268.35</ele>
        <time>2021-08-18T06:01:46Z</time>
      </trkpt>
      <trkpt lat="43.94488" lon="1.71411">
        <ele>267.86</ele>
        <time>2021-08-18T06:01:54Z</time>
      </trkpt>
      <trkpt lat="43.9449" lon="1.71405">
        <ele>267.86</ele>
        <time>2021-08-18T06:01:55Z</time>
      </trkpt>
      <trkpt lat="43.94497" lon="1.71377">
        <ele>267.86</ele>
        <time>2021-08-18T06:02:00Z</time>
      </trkpt>
      <trkpt lat="43.94512" lon="1.71344">
        <ele>269.31</ele>
        <time>2021-08-18T06:02:07Z</time>
      </trkpt>
      <trkpt lat="43.94515" lon="1.71339">
        <ele>269.31</ele>
        <time>2021-08-18T06:02:08Z</time>
      </trkpt>
      <trkpt lat="43.94518" lon="1.71335">
        <ele>269.31</ele>
        <time>2021-08-18T06:02:09Z</time>
      </trkpt>
      <trkpt lat="43.94521" lon="1.71331">
        <ele>269.31</ele>
        <time>2021-08-18T06:02:10Z</time>
      </trkpt>
      <trkpt lat="43.94524" lon="1.71326">
        <ele>269.31</ele>
        <time>2021-08-18T06:02:11Z</time>
      </trkpt>
      <trkpt lat="43.94527" lon="1.71321">
        <ele>269.31</ele>
        <time>2021-08-18T06:02:12Z</time>
      </trkpt>
      <trkpt lat="43.94532" lon="1.7131">
        <ele>269.31</ele>
        <time>2021-08-18T06:02:14Z</time>
      </trkpt>
      <trkpt lat="43.94538" lon="1.71294">
        <ele>269.31</ele>
        <time>2021-08-18T06:02:17Z</time>
      </trkpt>
      <trkpt lat="43.94552" lon="1.71241">
        <ele>267.38</ele>
        <time>2021-08-18T06:02:27Z</time>
      </trkpt>
      <trkpt lat="43.94564" lon="1.71207">
        <ele>267.38</ele>
        <time>2021-08-18T06:02:33Z</time>
      </trkpt>
      <trkpt lat="43.94575" lon="1.71189">
        <ele>267.38</ele>
        <time>2021-08-18T06:02:37Z</time>
      </trkpt>
      <trkpt lat="43.94585" lon="1.71177">
        <ele>266.9</ele>
        <time>2021-08-18T06:02:40Z</time>
      </trkpt>
      <trkpt lat="43.94601" lon="1.71161">
        <ele>266.42</ele>
        <time>2021-08-18T06:02:45Z</time>
      </trkpt>
      <trkpt lat="43.94604" lon="1.71157">
        <ele>266.42</ele>
        <time>2021-08-18T06:02:46Z</time>
      </trkpt>
      <trkpt lat="43.94607" lon="1.71153">
        <ele>266.42</ele>
        <time>2021-08-18T06:02:47Z</time>
      </trkpt>
      <trkpt lat="43.94608" lon="1.71147">
        <ele>266.42</ele>
        <time>2021-08-18T06:02:48Z</time>
      </trkpt>
      <trkpt lat="43.94609" lon="1.71142">
        <ele>266.42</ele>
        <time>2021-08-18T06:02:49Z</time>
      </trkpt>
      <trkpt lat="43.94609" lon="1.71138">
        <ele>266.42</ele>
        <time>2021-08-18T06:02:50Z</time>
      </trkpt>
      <trkpt lat="43.94612" lon="1.71101">
        <ele>265.94</ele>
        <time>2021-08-18T06:02:57Z</time>
      </trkpt>
      <trkpt lat="43.94618" lon="1.71062">
        <ele>264.98</ele>
        <time>2021-08-18T06:03:03Z</time>
      </trkpt>
      <trkpt lat="43.94627" lon="1.71015">
        <ele>261.62</ele>
        <time>2021-08-18T06:03:09Z</time>
      </trkpt>
      <trkpt lat="43.94635" lon="1.7097">
        <ele>258.73</ele>
        <time>2021-08-18T06:03:14Z</time>
      </trkpt>
      <trkpt lat="43.9464" lon="1.70945">
        <ele>257.29</ele>
        <time>2021-08-18T06:03:17Z</time>
      </trkpt>
      <trkpt lat="43.94643" lon="1.70937">
        <ele>256.33</ele>
        <time>2021-08-18T06:03:18Z</time>
      </trkpt>
      <trkpt lat="43.94658" lon="1.70885">
        <ele>252.48</ele>
        <time>2021-08-18T06:03:24Z</time>
      </trkpt>
      <trkpt lat="43.94665" lon="1.70868">
        <ele>251.52</ele>
        <time>2021-08-18T06:03:26Z</time>
      </trkpt>
      <trkpt lat="43.94679" lon="1.70842">
        <ele>248.16</ele>
        <time>2021-08-18T06:03:29Z</time>
      </trkpt>
      <trkpt lat="43.94702" lon="1.70791">
        <ele>245.27</ele>
        <time>2021-08-18T06:03:34Z</time>
      </trkpt>
      <trkpt lat="43.94711" lon="1.70762">
        <ele>242.87</ele>
        <time>2021-08-18T06:03:37Z</time>
      </trkpt>
      <trkpt lat="43.94712" lon="1.7075">
        <ele>241.91</ele>
        <time>2021-08-18T06:03:38Z</time>
      </trkpt>
      <trkpt lat="43.9471" lon="1.70738">
        <ele>240.95</ele>
        <time>2021-08-18T06:03:39Z</time>
      </trkpt>
      <trkpt lat="43.94707" lon="1.70725">
        <ele>240.95</ele>
        <time>2021-08-18T06:03:40Z</time>
      </trkpt>
      <trkpt lat="43.94703" lon="1.70714">
        <ele>239.99</ele>
        <time>2021-08-18T06:03:41Z</time>
      </trkpt>
      <trkpt lat="43.94699" lon="1.70703">
        <ele>239.51</ele>
        <time>2021-08-18T06:03:42Z</time>
      </trkpt>
      <trkpt lat="43.94695" lon="1.70693">
        <ele>238.54</ele>
        <time>2021-08-18T06:03:43Z</time>
      </trkpt>
      <trkpt lat="43.94679" lon="1.70656">
        <ele>236.62</ele>
        <time>2021-08-18T06:03:47Z</time>
      </trkpt>
      <trkpt lat="43.94674" lon="1.7064">
        <ele>234.22</ele>
        <time>2021-08-18T06:03:49Z</time>
      </trkpt>
      <trkpt lat="43.94667" lon="1.70619">
        <ele>232.3</ele>
        <time>2021-08-18T06:03:53Z</time>
      </trkpt>
      <trkpt lat="43.94664" lon="1.70588">
        <ele>229.89</ele>
        <time>2021-08-18T06:03:58Z</time>
      </trkpt>
      <trkpt lat="43.94662" lon="1.70581">
        <ele>230.37</ele>
        <time>2021-08-18T06:03:59Z</time>
      </trkpt>
      <trkpt lat="43.94661" lon="1.70575">
        <ele>229.41</ele>
        <time>2021-08-18T06:04:00Z</time>
      </trkpt>
      <trkpt lat="43.94658" lon="1.70568">
        <ele>229.41</ele>
        <time>2021-08-18T06:04:01Z</time>
      </trkpt>
      <trkpt lat="43.94647" lon="1.70544">
        <ele>229.41</ele>
        <time>2021-08-18T06:04:05Z</time>
      </trkpt>
      <trkpt lat="43.94635" lon="1.70528">
        <ele>228.45</ele>
        <time>2021-08-18T06:04:08Z</time>
      </trkpt>
      <trkpt lat="43.94617" lon="1.70507">
        <ele>227.49</ele>
        <time>2021-08-18T06:04:12Z</time>
      </trkpt>
      <trkpt lat="43.94612" lon="1.70502">
        <ele>227.49</ele>
        <time>2021-08-18T06:04:13Z</time>
      </trkpt>
      <trkpt lat="43.94606" lon="1.70496">
        <ele>226.53</ele>
        <time>2021-08-18T06:04:14Z</time>
      </trkpt>
      <trkpt lat="43.94585" lon="1.70472">
        <ele>223.16</ele>
        <time>2021-08-18T06:04:18Z</time>
      </trkpt>
      <trkpt lat="43.9457" lon="1.70452">
        <ele>220.28</ele>
        <time>2021-08-18T06:04:21Z</time>
      </trkpt>
      <trkpt lat="43.94565" lon="1.70446">
        <ele>220.28</ele>
        <time>2021-08-18T06:04:22Z</time>
      </trkpt>
      <trkpt lat="43.94556" lon="1.70434">
        <ele>220.28</ele>
        <time>2021-08-18T06:04:24Z</time>
      </trkpt>
      <trkpt lat="43.94556" lon="1.7043">
        <ele>220.28</ele>
        <time>2021-08-18T06:04:25Z</time>
      </trkpt>
      <trkpt lat="43.94558" lon="1.70425">
        <ele>220.28</ele>
        <time>2021-08-18T06:04:26Z</time>
      </trkpt>
      <trkpt lat="43.9456" lon="1.70419">
        <ele>220.28</ele>
        <time>2021-08-18T06:04:27Z</time>
      </trkpt>
      <trkpt lat="43.94563" lon="1.70414">
        <ele>220.28</ele>
        <time>2021-08-18T06:04:28Z</time>
      </trkpt>
      <trkpt lat="43.94565" lon="1.70409">
        <ele>220.28</ele>
        <time>2021-08-18T06:04:29Z</time>
      </trkpt>
      <trkpt lat="43.94567" lon="1.70404">
        <ele>219.8</ele>
        <time>2021-08-18T06:04:30Z</time>
      </trkpt>
      <trkpt lat="43.94571" lon="1.70399">
        <ele>219.8</ele>
        <time>2021-08-18T06:04:31Z</time>
      </trkpt>
      <trkpt lat="43.946" lon="1.70353">
        <ele>218.84</ele>
        <time>2021-08-18T06:04:40Z</time>
      </trkpt>
      <trkpt lat="43.94603" lon="1.70347">
        <ele>218.84</ele>
        <time>2021-08-18T06:04:41Z</time>
      </trkpt>
      <trkpt lat="43.94627" lon="1.70308">
        <ele>217.88</ele>
        <time>2021-08-18T06:04:49Z</time>
      </trkpt>
      <trkpt lat="43.94633" lon="1.70299">
        <ele>217.4</ele>
        <time>2021-08-18T06:04:51Z</time>
      </trkpt>
      <trkpt lat="43.94661" lon="1.70262">
        <ele>216.43</ele>
        <time>2021-08-18T06:04:59Z</time>
      </trkpt>
      <trkpt lat="43.94664" lon="1.70256">
        <ele>216.43</ele>
        <time>2021-08-18T06:05:01Z</time>
      </trkpt>
      <trkpt lat="43.94667" lon="1.70247">
        <ele>216.43</ele>
        <time>2021-08-18T06:05:07Z</time>
      </trkpt>
      <trkpt lat="43.94669" lon="1.70245">
        <ele>216.43</ele>
        <time>2021-08-18T06:05:08Z</time>
      </trkpt>
      <trkpt lat="43.94671" lon="1.70243">
        <ele>216.43</ele>
        <time>2021-08-18T06:05:09Z</time>
      </trkpt>
      <trkpt lat="43.94688" lon="1.70227">
        <ele>215.95</ele>
        <time>2021-08-18T06:05:15Z</time>
      </trkpt>
      <trkpt lat="43.94706" lon="1.70207">
        <ele>215.47</ele>
        <time>2021-08-18T06:05:22Z</time>
      </trkpt>
      <trkpt lat="43.94721" lon="1.70188">
        <ele>214.99</ele>
        <time>2021-08-18T06:05:27Z</time>
      </trkpt>
      <trkpt lat="43.94724" lon="1.70183">
        <ele>214.99</ele>
        <time>2021-08-18T06:05:28Z</time>
      </trkpt>
      <trkpt lat="43.9475" lon="1.70142">
        <ele>213.55</ele>
        <time>2021-08-18T06:05:36Z</time>
      </trkpt>
      <trkpt lat="43.94783" lon="1.701">
        <ele>212.11</ele>
        <time>2021-08-18T06:05:45Z</time>
      </trkpt>
      <trkpt lat="43.94797" lon="1.70079">
        <ele>212.11</ele>
        <time>2021-08-18T06:05:50Z</time>
      </trkpt>
      <trkpt lat="43.94809" lon="1.7005">
        <ele>211.63</ele>
        <time>2021-08-18T06:05:58Z</time>
      </trkpt>
      <trkpt lat="43.94809" lon="1.70045">
        <ele>211.15</ele>
        <time>2021-08-18T06:05:59Z</time>
      </trkpt>
      <trkpt lat="43.94808" lon="1.70041">
        <ele>211.15</ele>
        <time>2021-08-18T06:06:00Z</time>
      </trkpt>
      <trkpt lat="43.94808" lon="1.70038">
        <ele>211.15</ele>
        <time>2021-08-18T06:06:01Z</time>
      </trkpt>
      <trkpt lat="43.94807" lon="1.70035">
        <ele>211.15</ele>
        <time>2021-08-18T06:06:02Z</time>
      </trkpt>
      <trkpt lat="43.94806" lon="1.70033">
        <ele>211.15</ele>
        <time>2021-08-18T06:06:03Z</time>
      </trkpt>
      <trkpt lat="43.94805" lon="1.70031">
        <ele>211.15</ele>
        <time>2021-08-18T06:06:04Z</time>
      </trkpt>
      <trkpt lat="43.94805" lon="1.7003">
        <ele>211.15</ele>
        <time>2021-08-18T06:06:05Z</time>
      </trkpt>
      <trkpt lat="43.94804" lon="1.70024">
        <ele>212.11</ele>
        <time>2021-08-18T06:06:07Z</time>
      </trkpt>
      <trkpt lat="43.94803" lon="1.70021">
        <ele>212.11</ele>
        <time>2021-08-18T06:06:08Z</time>
      </trkpt>
      <trkpt lat="43.94804" lon="1.70018">
        <ele>212.11</ele>
        <time>2021-08-18T06:06:09Z</time>
      </trkpt>
      <trkpt lat="43.94805" lon="1.70014">
        <ele>212.59</ele>
        <time>2021-08-18T06:06:10Z</time>
      </trkpt>
      <trkpt lat="43.94805" lon="1.70011">
        <ele>212.59</ele>
        <time>2021-08-18T06:06:11Z</time>
      </trkpt>
      <trkpt lat="43.94805" lon="1.70008">
        <ele>212.59</ele>
        <time>2021-08-18T06:06:12Z</time>
      </trkpt>
      <trkpt lat="43.94805" lon="1.70004">
        <ele>212.59</ele>
        <time>2021-08-18T06:06:13Z</time>
      </trkpt>
      <trkpt lat="43.94805" lon="1.70001">
        <ele>212.59</ele>
        <time>2021-08-18T06:06:14Z</time>
      </trkpt>
      <trkpt lat="43.94805" lon="1.69997">
        <ele>212.59</ele>
        <time>2021-08-18T06:06:15Z</time>
      </trkpt>
      <trkpt lat="43.948" lon="1.69981">
        <ele>213.55</ele>
        <time>2021-08-18T06:06:20Z</time>
      </trkpt>
      <trkpt lat="43.94797" lon="1.6998">
        <ele>214.03</ele>
        <time>2021-08-18T06:06:21Z</time>
      </trkpt>
      <trkpt lat="43.94795" lon="1.6998">
        <ele>214.03</ele>
        <time>2021-08-18T06:06:22Z</time>
      </trkpt>
      <trkpt lat="43.94786" lon="1.69982">
        <ele>214.51</ele>
        <time>2021-08-18T06:06:28Z</time>
      </trkpt>
      <trkpt lat="43.94785" lon="1.69983">
        <ele>214.51</ele>
        <time>2021-08-18T06:06:29Z</time>
      </trkpt>
      <trkpt lat="43.94784" lon="1.69984">
        <ele>214.99</ele>
        <time>2021-08-18T06:06:30Z</time>
      </trkpt>
      <trkpt lat="43.94783" lon="1.69985">
        <ele>214.99</ele>
        <time>2021-08-18T06:06:31Z</time>
      </trkpt>
      <trkpt lat="43.94781" lon="1.69987">
        <ele>214.99</ele>
        <time>2021-08-18T06:06:33Z</time>
      </trkpt>
      <trkpt lat="43.94768" lon="1.69997">
        <ele>215.95</ele>
        <time>2021-08-18T06:06:42Z</time>
      </trkpt>
      <trkpt lat="43.94756" lon="1.70004">
        <ele>216.91</ele>
        <time>2021-08-18T06:06:49Z</time>
      </trkpt>
      <trkpt lat="43.94744" lon="1.70012">
        <ele>217.88</ele>
        <time>2021-08-18T06:06:56Z</time>
      </trkpt>
      <trkpt lat="43.94726" lon="1.70019">
        <ele>218.84</ele>
        <time>2021-08-18T06:07:04Z</time>
      </trkpt>
      <trkpt lat="43.94712" lon="1.70022">
        <ele>219.32</ele>
        <time>2021-08-18T06:07:11Z</time>
      </trkpt>
      <trkpt lat="43.94698" lon="1.70018">
        <ele>219.32</ele>
        <time>2021-08-18T06:07:18Z</time>
      </trkpt>
      <trkpt lat="43.94696" lon="1.70018">
        <ele>219.32</ele>
        <time>2021-08-18T06:07:19Z</time>
      </trkpt>
      <trkpt lat="43.94695" lon="1.70017">
        <ele>219.32</ele>
        <time>2021-08-18T06:07:20Z</time>
      </trkpt>
      <trkpt lat="43.94693" lon="1.70016">
        <ele>219.32</ele>
        <time>2021-08-18T06:07:21Z</time>
      </trkpt>
      <trkpt lat="43.94691" lon="1.70015">
        <ele>219.8</ele>
        <time>2021-08-18T06:07:22Z</time>
      </trkpt>
      <trkpt lat="43.9469" lon="1.70013">
        <ele>219.8</ele>
        <time>2021-08-18T06:07:23Z</time>
      </trkpt>
      <trkpt lat="43.94689" lon="1.70011">
        <ele>219.8</ele>
        <time>2021-08-18T06:07:24Z</time>
      </trkpt>
      <trkpt lat="43.94689" lon="1.70008">
        <ele>219.8</ele>
        <time>2021-08-18T06:07:25Z</time>
      </trkpt>
      <trkpt lat="43.94693" lon="1.69994">
        <ele>220.28</ele>
        <time>2021-08-18T06:07:32Z</time>
      </trkpt>
      <trkpt lat="43.94694" lon="1.69992">
        <ele>220.28</ele>
        <time>2021-08-18T06:07:34Z</time>
      </trkpt>
      <trkpt lat="43.94695" lon="1.69991">
        <ele>220.76</ele>
        <time>2021-08-18T06:07:35Z</time>
      </trkpt>
      <trkpt lat="43.94696" lon="1.6999">
        <ele>220.76</ele>
        <time>2021-08-18T06:07:36Z</time>
      </trkpt>
      <trkpt lat="43.94698" lon="1.69988">
        <ele>221.24</ele>
        <time>2021-08-18T06:07:37Z</time>
      </trkpt>
      <trkpt lat="43.94699" lon="1.69986">
        <ele>221.24</ele>
        <time>2021-08-18T06:07:38Z</time>
      </trkpt>
      <trkpt lat="43.947" lon="1.69984">
        <ele>221.72</ele>
        <time>2021-08-18T06:07:39Z</time>
      </trkpt>
      <trkpt lat="43.947" lon="1.69981">
        <ele>221.72</ele>
        <time>2021-08-18T06:07:40Z</time>
      </trkpt>
      <trkpt lat="43.94705" lon="1.6997">
        <ele>223.16</ele>
        <time>2021-08-18T06:07:47Z</time>
      </trkpt>
      <trkpt lat="43.94708" lon="1.69954">
        <ele>224.61</ele>
        <time>2021-08-18T06:07:57Z</time>
      </trkpt>
      <trkpt lat="43.94708" lon="1.69953">
        <ele>225.09</ele>
        <time>2021-08-18T06:07:58Z</time>
      </trkpt>
      <trkpt lat="43.94708" lon="1.69951">
        <ele>225.57</ele>
        <time>2021-08-18T06:07:59Z</time>
      </trkpt>
      <trkpt lat="43.94707" lon="1.69949">
        <ele>225.57</ele>
        <time>2021-08-18T06:08:00Z</time>
      </trkpt>
      <trkpt lat="43.94707" lon="1.69947">
        <ele>225.09</ele>
        <time>2021-08-18T06:08:01Z</time>
      </trkpt>
      <trkpt lat="43.94707" lon="1.69945">
        <ele>225.09</ele>
        <time>2021-08-18T06:08:02Z</time>
      </trkpt>
      <trkpt lat="43.94704" lon="1.69924">
        <ele>225.57</ele>
        <time>2021-08-18T06:08:09Z</time>
      </trkpt>
      <trkpt lat="43.94702" lon="1.69912">
        <ele>225.57</ele>
        <time>2021-08-18T06:08:13Z</time>
      </trkpt>
      <trkpt lat="43.94699" lon="1.69882">
        <ele>226.05</ele>
        <time>2021-08-18T06:08:21Z</time>
      </trkpt>
      <trkpt lat="43.94695" lon="1.6985">
        <ele>227.01</ele>
        <time>2021-08-18T06:08:29Z</time>
      </trkpt>
      <trkpt lat="43.9469" lon="1.69825">
        <ele>227.49</ele>
        <time>2021-08-18T06:08:36Z</time>
      </trkpt>
      <trkpt lat="43.94679" lon="1.69803">
        <ele>228.45</ele>
        <time>2021-08-18T06:08:44Z</time>
      </trkpt>
      <trkpt lat="43.94673" lon="1.69784">
        <ele>229.41</ele>
        <time>2021-08-18T06:08:50Z</time>
      </trkpt>
      <trkpt lat="43.94672" lon="1.69783">
        <ele>229.41</ele>
        <time>2021-08-18T06:08:51Z</time>
      </trkpt>
      <trkpt lat="43.94671" lon="1.69781">
        <ele>229.89</ele>
        <time>2021-08-18T06:08:52Z</time>
      </trkpt>
      <trkpt lat="43.9467" lon="1.69779">
        <ele>229.89</ele>
        <time>2021-08-18T06:08:53Z</time>
      </trkpt>
      <trkpt lat="43.94665" lon="1.69761">
        <ele>231.33</ele>
        <time>2021-08-18T06:09:01Z</time>
      </trkpt>
      <trkpt lat="43.94663" lon="1.69751">
        <ele>232.78</ele>
        <time>2021-08-18T06:09:10Z</time>
      </trkpt>
      <trkpt lat="43.94658" lon="1.69742">
        <ele>232.78</ele>
        <time>2021-08-18T06:09:20Z</time>
      </trkpt>
      <trkpt lat="43.94654" lon="1.69725">
        <ele>234.22</ele>
        <time>2021-08-18T06:09:29Z</time>
      </trkpt>
      <trkpt lat="43.94648" lon="1.69713">
        <ele>235.18</ele>
        <time>2021-08-18T06:09:35Z</time>
      </trkpt>
      <trkpt lat="43.94643" lon="1.69707">
        <ele>235.18</ele>
        <time>2021-08-18T06:09:39Z</time>
      </trkpt>
      <trkpt lat="43.94625" lon="1.69696">
        <ele>235.66</ele>
        <time>2021-08-18T06:09:46Z</time>
      </trkpt>
      <trkpt lat="43.94612" lon="1.69697">
        <ele>236.14</ele>
        <time>2021-08-18T06:09:53Z</time>
      </trkpt>
      <trkpt lat="43.94598" lon="1.69697">
        <ele>236.62</ele>
        <time>2021-08-18T06:10:00Z</time>
      </trkpt>
      <trkpt lat="43.9459" lon="1.69695">
        <ele>236.62</ele>
        <time>2021-08-18T06:10:07Z</time>
      </trkpt>
      <trkpt lat="43.94589" lon="1.69693">
        <ele>236.62</ele>
        <time>2021-08-18T06:10:15Z</time>
      </trkpt>
      <trkpt lat="43.94587" lon="1.6969">
        <ele>236.62</ele>
        <time>2021-08-18T06:10:22Z</time>
      </trkpt>
      <trkpt lat="43.94586" lon="1.69689">
        <ele>236.62</ele>
        <time>2021-08-18T06:10:23Z</time>
      </trkpt>
      <trkpt lat="43.94578" lon="1.69688">
        <ele>238.54</ele>
        <time>2021-08-18T06:10:31Z</time>
      </trkpt>
      <trkpt lat="43.94576" lon="1.69688">
        <ele>238.54</ele>
        <time>2021-08-18T06:10:33Z</time>
      </trkpt>
      <trkpt lat="43.9457" lon="1.69685">
        <ele>239.99</ele>
        <time>2021-08-18T06:10:41Z</time>
      </trkpt>
      <trkpt lat="43.94566" lon="1.69681">
        <ele>241.91</ele>
        <time>2021-08-18T06:10:49Z</time>
      </trkpt>
      <trkpt lat="43.94561" lon="1.69676">
        <ele>243.35</ele>
        <time>2021-08-18T06:10:57Z</time>
      </trkpt>
      <trkpt lat="43.94555" lon="1.69669">
        <ele>244.79</ele>
        <time>2021-08-18T06:11:06Z</time>
      </trkpt>
      <trkpt lat="43.94552" lon="1.69664">
        <ele>245.75</ele>
        <time>2021-08-18T06:11:14Z</time>
      </trkpt>
      <trkpt lat="43.94548" lon="1.69656">
        <ele>247.2</ele>
        <time>2021-08-18T06:11:23Z</time>
      </trkpt>
      <trkpt lat="43.94542" lon="1.69651">
        <ele>248.16</ele>
        <time>2021-08-18T06:11:31Z</time>
      </trkpt>
      <trkpt lat="43.94539" lon="1.69644">
        <ele>248.64</ele>
        <time>2021-08-18T06:11:39Z</time>
      </trkpt>
      <trkpt lat="43.94539" lon="1.69629">
        <ele>248.64</ele>
        <time>2021-08-18T06:11:44Z</time>
      </trkpt>
      <trkpt lat="43.9454" lon="1.69626">
        <ele>248.64</ele>
        <time>2021-08-18T06:11:45Z</time>
      </trkpt>
      <trkpt lat="43.94541" lon="1.69622">
        <ele>248.64</ele>
        <time>2021-08-18T06:11:46Z</time>
      </trkpt>
      <trkpt lat="43.94546" lon="1.69614">
        <ele>247.2</ele>
        <time>2021-08-18T06:11:48Z</time>
      </trkpt>
      <trkpt lat="43.94549" lon="1.69609">
        <ele>246.23</ele>
        <time>2021-08-18T06:11:49Z</time>
      </trkpt>
      <trkpt lat="43.94565" lon="1.69581">
        <ele>243.35</ele>
        <time>2021-08-18T06:11:54Z</time>
      </trkpt>
      <trkpt lat="43.94575" lon="1.69567">
        <ele>242.39</ele>
        <time>2021-08-18T06:11:56Z</time>
      </trkpt>
      <trkpt lat="43.94595" lon="1.69541">
        <ele>239.51</ele>
        <time>2021-08-18T06:12:00Z</time>
      </trkpt>
      <trkpt lat="43.94601" lon="1.69537">
        <ele>238.54</ele>
        <time>2021-08-18T06:12:01Z</time>
      </trkpt>
      <trkpt lat="43.94608" lon="1.69534">
        <ele>237.58</ele>
        <time>2021-08-18T06:12:02Z</time>
      </trkpt>
      <trkpt lat="43.94622" lon="1.6953">
        <ele>235.18</ele>
        <time>2021-08-18T06:12:04Z</time>
      </trkpt>
      <trkpt lat="43.94652" lon="1.69526">
        <ele>230.85</ele>
        <time>2021-08-18T06:12:08Z</time>
      </trkpt>
      <trkpt lat="43.94658" lon="1.69524">
        <ele>229.89</ele>
        <time>2021-08-18T06:12:09Z</time>
      </trkpt>
      <trkpt lat="43.94664" lon="1.69522">
        <ele>228.93</ele>
        <time>2021-08-18T06:12:10Z</time>
      </trkpt>
      <trkpt lat="43.94669" lon="1.69517">
        <ele>227.97</ele>
        <time>2021-08-18T06:12:11Z</time>
      </trkpt>
      <trkpt lat="43.94674" lon="1.69511">
        <ele>226.53</ele>
        <time>2021-08-18T06:12:12Z</time>
      </trkpt>
      <trkpt lat="43.94679" lon="1.69502">
        <ele>226.05</ele>
        <time>2021-08-18T06:12:13Z</time>
      </trkpt>
      <trkpt lat="43.9469" lon="1.69487">
        <ele>224.12</ele>
        <time>2021-08-18T06:12:15Z</time>
      </trkpt>
      <trkpt lat="43.94697" lon="1.69481">
        <ele>223.16</ele>
        <time>2021-08-18T06:12:16Z</time>
      </trkpt>
      <trkpt lat="43.94719" lon="1.69462">
        <ele>220.28</ele>
        <time>2021-08-18T06:12:20Z</time>
      </trkpt>
      <trkpt lat="43.94737" lon="1.69452">
        <ele>216.91</ele>
        <time>2021-08-18T06:12:23Z</time>
      </trkpt>
      <trkpt lat="43.94742" lon="1.69449">
        <ele>215.95</ele>
        <time>2021-08-18T06:12:24Z</time>
      </trkpt>
      <trkpt lat="43.94756" lon="1.69434">
        <ele>214.03</ele>
        <time>2021-08-18T06:12:27Z</time>
      </trkpt>
      <trkpt lat="43.94771" lon="1.69416">
        <ele>210.67</ele>
        <time>2021-08-18T06:12:30Z</time>
      </trkpt>
      <trkpt lat="43.94775" lon="1.69411">
        <ele>210.19</ele>
        <time>2021-08-18T06:12:31Z</time>
      </trkpt>
      <trkpt lat="43.94778" lon="1.69405">
        <ele>210.19</ele>
        <time>2021-08-18T06:12:32Z</time>
      </trkpt>
      <trkpt lat="43.94781" lon="1.694">
        <ele>209.22</ele>
        <time>2021-08-18T06:12:33Z</time>
      </trkpt>
      <trkpt lat="43.94783" lon="1.69394">
        <ele>208.74</ele>
        <time>2021-08-18T06:12:34Z</time>
      </trkpt>
      <trkpt lat="43.94786" lon="1.69388">
        <ele>208.26</ele>
        <time>2021-08-18T06:12:35Z</time>
      </trkpt>
      <trkpt lat="43.94788" lon="1.69383">
        <ele>208.26</ele>
        <time>2021-08-18T06:12:36Z</time>
      </trkpt>
      <trkpt lat="43.94791" lon="1.69378">
        <ele>207.3</ele>
        <time>2021-08-18T06:12:37Z</time>
      </trkpt>
      <trkpt lat="43.94795" lon="1.69373">
        <ele>206.82</ele>
        <time>2021-08-18T06:12:38Z</time>
      </trkpt>
      <trkpt lat="43.94799" lon="1.69368">
        <ele>205.86</ele>
        <time>2021-08-18T06:12:39Z</time>
      </trkpt>
      <trkpt lat="43.94803" lon="1.69365">
        <ele>205.86</ele>
        <time>2021-08-18T06:12:40Z</time>
      </trkpt>
      <trkpt lat="43.94806" lon="1.69363">
        <ele>205.38</ele>
        <time>2021-08-18T06:12:41Z</time>
      </trkpt>
      <trkpt lat="43.9481" lon="1.69362">
        <ele>205.38</ele>
        <time>2021-08-18T06:12:42Z</time>
      </trkpt>
      <trkpt lat="43.94812" lon="1.6936">
        <ele>205.38</ele>
        <time>2021-08-18T06:12:43Z</time>
      </trkpt>
      <trkpt lat="43.94814" lon="1.69358">
        <ele>205.38</ele>
        <time>2021-08-18T06:12:44Z</time>
      </trkpt>
      <trkpt lat="43.94815" lon="1.69355">
        <ele>204.9</ele>
        <time>2021-08-18T06:12:45Z</time>
      </trkpt>
      <trkpt lat="43.94815" lon="1.69353">
        <ele>204.9</ele>
        <time>2021-08-18T06:12:46Z</time>
      </trkpt>
      <trkpt lat="43.94816" lon="1.69349">
        <ele>204.42</ele>
        <time>2021-08-18T06:12:47Z</time>
      </trkpt>
      <trkpt lat="43.94817" lon="1.69345">
        <ele>204.42</ele>
        <time>2021-08-18T06:12:52Z</time>
      </trkpt>
      <trkpt lat="43.9482" lon="1.69332">
        <ele>204.42</ele>
        <time>2021-08-18T06:13:01Z</time>
      </trkpt>
      <trkpt lat="43.94821" lon="1.6933">
        <ele>204.42</ele>
        <time>2021-08-18T06:13:07Z</time>
      </trkpt>
      <trkpt lat="43.94823" lon="1.69327">
        <ele>204.42</ele>
        <time>2021-08-18T06:13:14Z</time>
      </trkpt>
      <trkpt lat="43.94823" lon="1.6932">
        <ele>204.42</ele>
        <time>2021-08-18T06:13:19Z</time>
      </trkpt>
      <trkpt lat="43.94824" lon="1.69314">
        <ele>205.86</ele>
        <time>2021-08-18T06:13:22Z</time>
      </trkpt>
      <trkpt lat="43.94825" lon="1.69311">
        <ele>205.86</ele>
        <time>2021-08-18T06:13:23Z</time>
      </trkpt>
      <trkpt lat="43.94825" lon="1.69306">
        <ele>205.86</ele>
        <time>2021-08-18T06:13:25Z</time>
      </trkpt>
      <trkpt lat="43.94824" lon="1.69303">
        <ele>205.86</ele>
        <time>2021-08-18T06:13:26Z</time>
      </trkpt>
      <trkpt lat="43.94825" lon="1.693">
        <ele>205.86</ele>
        <time>2021-08-18T06:13:27Z</time>
      </trkpt>
      <trkpt lat="43.94826" lon="1.69297">
        <ele>205.86</ele>
        <time>2021-08-18T06:13:28Z</time>
      </trkpt>
      <trkpt lat="43.94827" lon="1.69294">
        <ele>205.86</ele>
        <time>2021-08-18T06:13:29Z</time>
      </trkpt>
      <trkpt lat="43.94828" lon="1.69292">
        <ele>205.86</ele>
        <time>2021-08-18T06:13:30Z</time>
      </trkpt>
      <trkpt lat="43.94829" lon="1.69289">
        <ele>205.86</ele>
        <time>2021-08-18T06:13:31Z</time>
      </trkpt>
      <trkpt lat="43.94838" lon="1.6927">
        <ele>205.86</ele>
        <time>2021-08-18T06:13:39Z</time>
      </trkpt>
      <trkpt lat="43.94853" lon="1.69248">
        <ele>206.82</ele>
        <time>2021-08-18T06:13:48Z</time>
      </trkpt>
      <trkpt lat="43.94867" lon="1.69228">
        <ele>206.82</ele>
        <time>2021-08-18T06:13:54Z</time>
      </trkpt>
      <trkpt lat="43.94878" lon="1.69212">
        <ele>205.86</ele>
        <time>2021-08-18T06:14:00Z</time>
      </trkpt>
      <trkpt lat="43.94895" lon="1.69191">
        <ele>205.38</ele>
        <time>2021-08-18T06:14:07Z</time>
      </trkpt>
      <trkpt lat="43.94918" lon="1.6917">
        <ele>204.9</ele>
        <time>2021-08-18T06:14:15Z</time>
      </trkpt>
      <trkpt lat="43.94928" lon="1.69157">
        <ele>204.9</ele>
        <time>2021-08-18T06:14:20Z</time>
      </trkpt>
      <trkpt lat="43.94931" lon="1.69152">
        <ele>204.42</ele>
        <time>2021-08-18T06:14:23Z</time>
      </trkpt>
      <trkpt lat="43.94933" lon="1.6915">
        <ele>204.42</ele>
        <time>2021-08-18T06:14:24Z</time>
      </trkpt>
      <trkpt lat="43.94935" lon="1.69148">
        <ele>204.42</ele>
        <time>2021-08-18T06:14:25Z</time>
      </trkpt>
      <trkpt lat="43.94936" lon="1.69145">
        <ele>204.42</ele>
        <time>2021-08-18T06:14:26Z</time>
      </trkpt>
      <trkpt lat="43.94938" lon="1.69142">
        <ele>204.42</ele>
        <time>2021-08-18T06:14:27Z</time>
      </trkpt>
      <trkpt lat="43.94947" lon="1.69131">
        <ele>204.42</ele>
        <time>2021-08-18T06:14:33Z</time>
      </trkpt>
      <trkpt lat="43.94949" lon="1.69129">
        <ele>204.42</ele>
        <time>2021-08-18T06:14:34Z</time>
      </trkpt>
      <trkpt lat="43.94951" lon="1.69127">
        <ele>204.42</ele>
        <time>2021-08-18T06:14:35Z</time>
      </trkpt>
      <trkpt lat="43.94965" lon="1.69113">
        <ele>204.42</ele>
        <time>2021-08-18T06:14:42Z</time>
      </trkpt>
      <trkpt lat="43.94971" lon="1.69104">
        <ele>203.94</ele>
        <time>2021-08-18T06:14:44Z</time>
      </trkpt>
      <trkpt lat="43.94973" lon="1.691">
        <ele>203.94</ele>
        <time>2021-08-18T06:14:45Z</time>
      </trkpt>
      <trkpt lat="43.94981" lon="1.69089">
        <ele>203.46</ele>
        <time>2021-08-18T06:14:50Z</time>
      </trkpt>
      <trkpt lat="43.94997" lon="1.6907">
        <ele>202.01</ele>
        <time>2021-08-18T06:14:58Z</time>
      </trkpt>
      <trkpt lat="43.95001" lon="1.69054">
        <ele>202.01</ele>
        <time>2021-08-18T06:15:03Z</time>
      </trkpt>
      <trkpt lat="43.95003" lon="1.69033">
        <ele>203.46</ele>
        <time>2021-08-18T06:15:10Z</time>
      </trkpt>
      <trkpt lat="43.94998" lon="1.69022">
        <ele>204.9</ele>
        <time>2021-08-18T06:15:18Z</time>
      </trkpt>
      <trkpt lat="43.94988" lon="1.69021">
        <ele>206.34</ele>
        <time>2021-08-18T06:15:27Z</time>
      </trkpt>
      <trkpt lat="43.94982" lon="1.69021">
        <ele>207.3</ele>
        <time>2021-08-18T06:15:34Z</time>
      </trkpt>
      <trkpt lat="43.94973" lon="1.69019">
        <ele>208.74</ele>
        <time>2021-08-18T06:15:41Z</time>
      </trkpt>
      <trkpt lat="43.94961" lon="1.69018">
        <ele>210.19</ele>
        <time>2021-08-18T06:15:49Z</time>
      </trkpt>
      <trkpt lat="43.94956" lon="1.69019">
        <ele>211.15</ele>
        <time>2021-08-18T06:15:56Z</time>
      </trkpt>
      <trkpt lat="43.94948" lon="1.69018">
        <ele>213.07</ele>
        <time>2021-08-18T06:16:07Z</time>
      </trkpt>
      <trkpt lat="43.94939" lon="1.69018">
        <ele>213.55</ele>
        <time>2021-08-18T06:16:15Z</time>
      </trkpt>
      <trkpt lat="43.94926" lon="1.69017">
        <ele>215.47</ele>
        <time>2021-08-18T06:16:25Z</time>
      </trkpt>
      <trkpt lat="43.94916" lon="1.69018">
        <ele>216.43</ele>
        <time>2021-08-18T06:16:33Z</time>
      </trkpt>
      <trkpt lat="43.94915" lon="1.69018">
        <ele>216.91</ele>
        <time>2021-08-18T06:16:34Z</time>
      </trkpt>
      <trkpt lat="43.94905" lon="1.6902">
        <ele>217.4</ele>
        <time>2021-08-18T06:16:42Z</time>
      </trkpt>
      <trkpt lat="43.94892" lon="1.69021">
        <ele>218.84</ele>
        <time>2021-08-18T06:16:51Z</time>
      </trkpt>
      <trkpt lat="43.94884" lon="1.69024">
        <ele>219.8</ele>
        <time>2021-08-18T06:17:00Z</time>
      </trkpt>
      <trkpt lat="43.94873" lon="1.69026">
        <ele>220.76</ele>
        <time>2021-08-18T06:17:08Z</time>
      </trkpt>
      <trkpt lat="43.94867" lon="1.69025">
        <ele>221.24</ele>
        <time>2021-08-18T06:17:17Z</time>
      </trkpt>
      <trkpt lat="43.94861" lon="1.69025">
        <ele>222.68</ele>
        <time>2021-08-18T06:17:25Z</time>
      </trkpt>
      <trkpt lat="43.94851" lon="1.69021">
        <ele>224.12</ele>
        <time>2021-08-18T06:17:33Z</time>
      </trkpt>
      <trkpt lat="43.94844" lon="1.69018">
        <ele>224.61</ele>
        <time>2021-08-18T06:17:38Z</time>
      </trkpt>
      <trkpt lat="43.94835" lon="1.69013">
        <ele>226.05</ele>
        <time>2021-08-18T06:17:46Z</time>
      </trkpt>
      <trkpt lat="43.94829" lon="1.6901">
        <ele>227.49</ele>
        <time>2021-08-18T06:17:53Z</time>
      </trkpt>
      <trkpt lat="43.94819" lon="1.69006">
        <ele>228.93</ele>
        <time>2021-08-18T06:18:02Z</time>
      </trkpt>
      <trkpt lat="43.94811" lon="1.69005">
        <ele>229.89</ele>
        <time>2021-08-18T06:18:09Z</time>
      </trkpt>
      <trkpt lat="43.94806" lon="1.69007">
        <ele>230.85</ele>
        <time>2021-08-18T06:18:16Z</time>
      </trkpt>
      <trkpt lat="43.94804" lon="1.69007">
        <ele>230.85</ele>
        <time>2021-08-18T06:18:18Z</time>
      </trkpt>
      <trkpt lat="43.94797" lon="1.69012">
        <ele>231.81</ele>
        <time>2021-08-18T06:18:25Z</time>
      </trkpt>
      <trkpt lat="43.94784" lon="1.69018">
        <ele>233.26</ele>
        <time>2021-08-18T06:18:35Z</time>
      </trkpt>
      <trkpt lat="43.9477" lon="1.69023">
        <ele>235.66</ele>
        <time>2021-08-18T06:18:46Z</time>
      </trkpt>
      <trkpt lat="43.94754" lon="1.69023">
        <ele>237.1</ele>
        <time>2021-08-18T06:18:55Z</time>
      </trkpt>
      <trkpt lat="43.94752" lon="1.69023">
        <ele>237.1</ele>
        <time>2021-08-18T06:18:56Z</time>
      </trkpt>
      <trkpt lat="43.94751" lon="1.69023">
        <ele>237.58</ele>
        <time>2021-08-18T06:18:57Z</time>
      </trkpt>
      <trkpt lat="43.94749" lon="1.69023">
        <ele>237.58</ele>
        <time>2021-08-18T06:18:58Z</time>
      </trkpt>
      <trkpt lat="43.94748" lon="1.69022">
        <ele>237.58</ele>
        <time>2021-08-18T06:18:59Z</time>
      </trkpt>
      <trkpt lat="43.94746" lon="1.69022">
        <ele>237.58</ele>
        <time>2021-08-18T06:19:00Z</time>
      </trkpt>
      <trkpt lat="43.94745" lon="1.69021">
        <ele>237.58</ele>
        <time>2021-08-18T06:19:01Z</time>
      </trkpt>
      <trkpt lat="43.94743" lon="1.6902">
        <ele>237.58</ele>
        <time>2021-08-18T06:19:02Z</time>
      </trkpt>
      <trkpt lat="43.94742" lon="1.6902">
        <ele>238.06</ele>
        <time>2021-08-18T06:19:03Z</time>
      </trkpt>
      <trkpt lat="43.94729" lon="1.69014">
        <ele>238.54</ele>
        <time>2021-08-18T06:19:12Z</time>
      </trkpt>
      <trkpt lat="43.94722" lon="1.69012">
        <ele>239.02</ele>
        <time>2021-08-18T06:19:18Z</time>
      </trkpt>
      <trkpt lat="43.9472" lon="1.69011">
        <ele>239.02</ele>
        <time>2021-08-18T06:19:24Z</time>
      </trkpt>
      <trkpt lat="43.94719" lon="1.6901">
        <ele>239.02</ele>
        <time>2021-08-18T06:19:43Z</time>
      </trkpt>
      <trkpt lat="43.94717" lon="1.69011">
        <ele>239.02</ele>
        <time>2021-08-18T06:20:03Z</time>
      </trkpt>
      <trkpt lat="43.94714" lon="1.69012">
        <ele>239.02</ele>
        <time>2021-08-18T06:20:24Z</time>
      </trkpt>
      <trkpt lat="43.94711" lon="1.69014">
        <ele>239.02</ele>
        <time>2021-08-18T06:20:45Z</time>
      </trkpt>
      <trkpt lat="43.94715" lon="1.69015">
        <ele>239.02</ele>
        <time>2021-08-18T06:20:59Z</time>
      </trkpt>
      <trkpt lat="43.94721" lon="1.69015">
        <ele>239.02</ele>
        <time>2021-08-18T06:21:18Z</time>
      </trkpt>
      <trkpt lat="43.94724" lon="1.69013">
        <ele>238.54</ele>
        <time>2021-08-18T06:21:40Z</time>
      </trkpt>
      <trkpt lat="43.94721" lon="1.69014">
        <ele>238.54</ele>
        <time>2021-08-18T06:22:07Z</time>
      </trkpt>
      <trkpt lat="43.94722" lon="1.69009">
        <ele>238.54</ele>
        <time>2021-08-18T06:22:31Z</time>
      </trkpt>
      <trkpt lat="43.94719" lon="1.69008">
        <ele>238.54</ele>
        <time>2021-08-18T06:23:00Z</time>
      </trkpt>
      <trkpt lat="43.94722" lon="1.69012">
        <ele>238.54</ele>
        <time>2021-08-18T06:23:26Z</time>
      </trkpt>
      <trkpt lat="43.94721" lon="1.69013">
        <ele>238.54</ele>
        <time>2021-08-18T06:23:51Z</time>
      </trkpt>
      <trkpt lat="43.94717" lon="1.69011">
        <ele>238.54</ele>
        <time>2021-08-18T06:24:13Z</time>
      </trkpt>
      <trkpt lat="43.94714" lon="1.69013">
        <ele>238.54</ele>
        <time>2021-08-18T06:24:36Z</time>
      </trkpt>
      <trkpt lat="43.94712" lon="1.69012">
        <ele>238.54</ele>
        <time>2021-08-18T06:24:52Z</time>
      </trkpt>
      <trkpt lat="43.94714" lon="1.69012">
        <ele>238.54</ele>
        <time>2021-08-18T06:25:07Z</time>
      </trkpt>
      <trkpt lat="43.94714" lon="1.69015">
        <ele>238.54</ele>
        <time>2021-08-18T06:25:25Z</time>
      </trkpt>
      <trkpt lat="43.94713" lon="1.69014">
        <ele>238.54</ele>
        <time>2021-08-18T06:25:37Z</time>
      </trkpt>
      <trkpt lat="43.94711" lon="1.69015">
        <ele>238.54</ele>
        <time>2021-08-18T06:25:45Z</time>
      </trkpt>
      <trkpt lat="43.94716" lon="1.69018">
        <ele>238.54</ele>
        <time>2021-08-18T06:26:09Z</time>
      </trkpt>
      <trkpt lat="43.94721" lon="1.69015">
        <ele>238.54</ele>
        <time>2021-08-18T06:26:40Z</time>
      </trkpt>
      <trkpt lat="43.94719" lon="1.6902">
        <ele>238.54</ele>
        <time>2021-08-18T06:27:03Z</time>
      </trkpt>
      <trkpt lat="43.94718" lon="1.69017">
        <ele>238.54</ele>
        <time>2021-08-18T06:27:24Z</time>
      </trkpt>
      <trkpt lat="43.94718" lon="1.69017">
        <ele>238.54</ele>
        <time>2021-08-18T06:27:41Z</time>
      </trkpt>
      <trkpt lat="43.94713" lon="1.69014">
        <ele>238.54</ele>
        <time>2021-08-18T06:28:02Z</time>
      </trkpt>
      <trkpt lat="43.94716" lon="1.69015">
        <ele>238.54</ele>
        <time>2021-08-18T06:28:21Z</time>
      </trkpt>
      <trkpt lat="43.94718" lon="1.69014">
        <ele>238.54</ele>
        <time>2021-08-18T06:28:43Z</time>
      </trkpt>
      <trkpt lat="43.94716" lon="1.69015">
        <ele>238.54</ele>
        <time>2021-08-18T06:29:02Z</time>
      </trkpt>
      <trkpt lat="43.94716" lon="1.69014">
        <ele>238.54</ele>
        <time>2021-08-18T06:29:17Z</time>
      </trkpt>
      <trkpt lat="43.94716" lon="1.69012">
        <ele>238.54</ele>
        <time>2021-08-18T06:29:32Z</time>
      </trkpt>
      <trkpt lat="43.94719" lon="1.69011">
        <ele>238.54</ele>
        <time>2021-08-18T06:29:49Z</time>
      </trkpt>
      <trkpt lat="43.94718" lon="1.69013">
        <ele>238.54</ele>
        <time>2021-08-18T06:30:07Z</time>
      </trkpt>
      <trkpt lat="43.94718" lon="1.69014">
        <ele>238.54</ele>
        <time>2021-08-18T06:30:21Z</time>
      </trkpt>
      <trkpt lat="43.94718" lon="1.69015">
        <ele>238.06</ele>
        <time>2021-08-18T06:30:33Z</time>
      </trkpt>
      <trkpt lat="43.94718" lon="1.69016">
        <ele>238.06</ele>
        <time>2021-08-18T06:30:42Z</time>
      </trkpt>
      <trkpt lat="43.94715" lon="1.69014">
        <ele>238.06</ele>
        <time>2021-08-18T06:31:07Z</time>
      </trkpt>
      <trkpt lat="43.94719" lon="1.69013">
        <ele>238.06</ele>
        <time>2021-08-18T06:31:32Z</time>
      </trkpt>
      <trkpt lat="43.94717" lon="1.69014">
        <ele>238.06</ele>
        <time>2021-08-18T06:31:53Z</time>
      </trkpt>
      <trkpt lat="43.94717" lon="1.69013">
        <ele>238.06</ele>
        <time>2021-08-18T06:32:14Z</time>
      </trkpt>
      <trkpt lat="43.9472" lon="1.69011">
        <ele>238.06</ele>
        <time>2021-08-18T06:32:30Z</time>
      </trkpt>
      <trkpt lat="43.94718" lon="1.69009">
        <ele>238.06</ele>
        <time>2021-08-18T06:32:52Z</time>
      </trkpt>
      <trkpt lat="43.94715" lon="1.69007">
        <ele>238.06</ele>
        <time>2021-08-18T06:33:15Z</time>
      </trkpt>
      <trkpt lat="43.94718" lon="1.69015">
        <ele>238.06</ele>
        <time>2021-08-18T06:33:43Z</time>
      </trkpt>
      <trkpt lat="43.94721" lon="1.69011">
        <ele>238.06</ele>
        <time>2021-08-18T06:34:06Z</time>
      </trkpt>
      <trkpt lat="43.94719" lon="1.69011">
        <ele>238.06</ele>
        <time>2021-08-18T06:34:18Z</time>
      </trkpt>
      <trkpt lat="43.94715" lon="1.69012">
        <ele>238.54</ele>
        <time>2021-08-18T06:34:31Z</time>
      </trkpt>
      <trkpt lat="43.9471" lon="1.69012">
        <ele>238.54</ele>
        <time>2021-08-18T06:34:48Z</time>
      </trkpt>
      <trkpt lat="43.9471" lon="1.69015">
        <ele>238.06</ele>
        <time>2021-08-18T06:35:03Z</time>
      </trkpt>
      <trkpt lat="43.94713" lon="1.69013">
        <ele>238.06</ele>
        <time>2021-08-18T06:35:19Z</time>
      </trkpt>
      <trkpt lat="43.94715" lon="1.69012">
        <ele>238.06</ele>
        <time>2021-08-18T06:35:33Z</time>
      </trkpt>
      <trkpt lat="43.94713" lon="1.69011">
        <ele>238.06</ele>
        <time>2021-08-18T06:35:46Z</time>
      </trkpt>
      <trkpt lat="43.94713" lon="1.69009">
        <ele>238.06</ele>
        <time>2021-08-18T06:35:57Z</time>
      </trkpt>
      <trkpt lat="43.94706" lon="1.69002">
        <ele>238.54</ele>
        <time>2021-08-18T06:36:05Z</time>
      </trkpt>
      <trkpt lat="43.94694" lon="1.68991">
        <ele>239.51</ele>
        <time>2021-08-18T06:36:13Z</time>
      </trkpt>
      <trkpt lat="43.94683" lon="1.68981">
        <ele>240.95</ele>
        <time>2021-08-18T06:36:21Z</time>
      </trkpt>
      <trkpt lat="43.94676" lon="1.68975">
        <ele>241.43</ele>
        <time>2021-08-18T06:36:27Z</time>
      </trkpt>
      <trkpt lat="43.94674" lon="1.68973">
        <ele>241.43</ele>
        <time>2021-08-18T06:36:28Z</time>
      </trkpt>
      <trkpt lat="43.94673" lon="1.68972">
        <ele>241.91</ele>
        <time>2021-08-18T06:36:29Z</time>
      </trkpt>
      <trkpt lat="43.94664" lon="1.68964">
        <ele>242.87</ele>
        <time>2021-08-18T06:36:37Z</time>
      </trkpt>
      <trkpt lat="43.94657" lon="1.68958">
        <ele>243.83</ele>
        <time>2021-08-18T06:36:44Z</time>
      </trkpt>
      <trkpt lat="43.94647" lon="1.68949">
        <ele>244.79</ele>
        <time>2021-08-18T06:36:51Z</time>
      </trkpt>
      <trkpt lat="43.94635" lon="1.6894">
        <ele>246.23</ele>
        <time>2021-08-18T06:37:00Z</time>
      </trkpt>
      <trkpt lat="43.9463" lon="1.68936">
        <ele>246.72</ele>
        <time>2021-08-18T06:37:04Z</time>
      </trkpt>
      <trkpt lat="43.94623" lon="1.68929">
        <ele>247.2</ele>
        <time>2021-08-18T06:37:11Z</time>
      </trkpt>
      <trkpt lat="43.94616" lon="1.68923">
        <ele>248.64</ele>
        <time>2021-08-18T06:37:18Z</time>
      </trkpt>
      <trkpt lat="43.94611" lon="1.68921">
        <ele>249.12</ele>
        <time>2021-08-18T06:37:22Z</time>
      </trkpt>
      <trkpt lat="43.94609" lon="1.6892">
        <ele>249.12</ele>
        <time>2021-08-18T06:37:23Z</time>
      </trkpt>
      <trkpt lat="43.94608" lon="1.68919">
        <ele>249.6</ele>
        <time>2021-08-18T06:37:24Z</time>
      </trkpt>
      <trkpt lat="43.94597" lon="1.68912">
        <ele>250.56</ele>
        <time>2021-08-18T06:37:31Z</time>
      </trkpt>
      <trkpt lat="43.94588" lon="1.68901">
        <ele>251.04</ele>
        <time>2021-08-18T06:37:38Z</time>
      </trkpt>
      <trkpt lat="43.94573" lon="1.68889">
        <ele>252</ele>
        <time>2021-08-18T06:37:46Z</time>
      </trkpt>
      <trkpt lat="43.9456" lon="1.68877">
        <ele>253.44</ele>
        <time>2021-08-18T06:37:55Z</time>
      </trkpt>
      <trkpt lat="43.94554" lon="1.68875">
        <ele>253.44</ele>
        <time>2021-08-18T06:37:58Z</time>
      </trkpt>
      <trkpt lat="43.94552" lon="1.68874">
        <ele>253.44</ele>
        <time>2021-08-18T06:37:59Z</time>
      </trkpt>
      <trkpt lat="43.9455" lon="1.68872">
        <ele>253.44</ele>
        <time>2021-08-18T06:38:00Z</time>
      </trkpt>
      <trkpt lat="43.94548" lon="1.68871">
        <ele>253.93</ele>
        <time>2021-08-18T06:38:01Z</time>
      </trkpt>
      <trkpt lat="43.94546" lon="1.6887">
        <ele>254.41</ele>
        <time>2021-08-18T06:38:02Z</time>
      </trkpt>
      <trkpt lat="43.94533" lon="1.68858">
        <ele>254.89</ele>
        <time>2021-08-18T06:38:09Z</time>
      </trkpt>
      <trkpt lat="43.94517" lon="1.68843">
        <ele>254.89</ele>
        <time>2021-08-18T06:38:16Z</time>
      </trkpt>
      <trkpt lat="43.945" lon="1.68814">
        <ele>253.93</ele>
        <time>2021-08-18T06:38:23Z</time>
      </trkpt>
      <trkpt lat="43.94498" lon="1.6881">
        <ele>253.93</ele>
        <time>2021-08-18T06:38:24Z</time>
      </trkpt>
      <trkpt lat="43.94492" lon="1.68801">
        <ele>252.96</ele>
        <time>2021-08-18T06:38:26Z</time>
      </trkpt>
      <trkpt lat="43.94488" lon="1.68798">
        <ele>252.48</ele>
        <time>2021-08-18T06:38:27Z</time>
      </trkpt>
      <trkpt lat="43.94484" lon="1.68795">
        <ele>252.48</ele>
        <time>2021-08-18T06:38:28Z</time>
      </trkpt>
      <trkpt lat="43.94479" lon="1.68793">
        <ele>252.48</ele>
        <time>2021-08-18T06:38:29Z</time>
      </trkpt>
      <trkpt lat="43.94474" lon="1.68791">
        <ele>252</ele>
        <time>2021-08-18T06:38:30Z</time>
      </trkpt>
      <trkpt lat="43.94469" lon="1.6879">
        <ele>252</ele>
        <time>2021-08-18T06:38:31Z</time>
      </trkpt>
      <trkpt lat="43.94463" lon="1.6879">
        <ele>252</ele>
        <time>2021-08-18T06:38:32Z</time>
      </trkpt>
      <trkpt lat="43.94426" lon="1.68786">
        <ele>251.04</ele>
        <time>2021-08-18T06:38:39Z</time>
      </trkpt>
      <trkpt lat="43.94367" lon="1.6878">
        <ele>250.08</ele>
        <time>2021-08-18T06:38:49Z</time>
      </trkpt>
      <trkpt lat="43.94316" lon="1.6877">
        <ele>250.08</ele>
        <time>2021-08-18T06:38:58Z</time>
      </trkpt>
      <trkpt lat="43.94275" lon="1.68763">
        <ele>252.48</ele>
        <time>2021-08-18T06:39:07Z</time>
      </trkpt>
      <trkpt lat="43.9424" lon="1.68755">
        <ele>254.41</ele>
        <time>2021-08-18T06:39:16Z</time>
      </trkpt>
      <trkpt lat="43.94209" lon="1.6875">
        <ele>256.33</ele>
        <time>2021-08-18T06:39:24Z</time>
      </trkpt>
      <trkpt lat="43.94174" lon="1.68742">
        <ele>256.81</ele>
        <time>2021-08-18T06:39:34Z</time>
      </trkpt>
      <trkpt lat="43.9417" lon="1.68741">
        <ele>256.81</ele>
        <time>2021-08-18T06:39:35Z</time>
      </trkpt>
      <trkpt lat="43.94147" lon="1.68737">
        <ele>253.44</ele>
        <time>2021-08-18T06:39:39Z</time>
      </trkpt>
      <trkpt lat="43.94113" lon="1.68728">
        <ele>249.6</ele>
        <time>2021-08-18T06:39:44Z</time>
      </trkpt>
      <trkpt lat="43.94106" lon="1.68723">
        <ele>248.16</ele>
        <time>2021-08-18T06:39:45Z</time>
      </trkpt>
      <trkpt lat="43.9409" lon="1.68714">
        <ele>246.72</ele>
        <time>2021-08-18T06:39:47Z</time>
      </trkpt>
      <trkpt lat="43.94083" lon="1.68712">
        <ele>246.72</ele>
        <time>2021-08-18T06:39:48Z</time>
      </trkpt>
      <trkpt lat="43.94075" lon="1.6871">
        <ele>246.23</ele>
        <time>2021-08-18T06:39:49Z</time>
      </trkpt>
      <trkpt lat="43.94039" lon="1.68705">
        <ele>242.39</ele>
        <time>2021-08-18T06:39:53Z</time>
      </trkpt>
      <trkpt lat="43.93989" lon="1.68698">
        <ele>239.02</ele>
        <time>2021-08-18T06:39:58Z</time>
      </trkpt>
      <trkpt lat="43.93979" lon="1.68697">
        <ele>238.54</ele>
        <time>2021-08-18T06:39:59Z</time>
      </trkpt>
      <trkpt lat="43.93958" lon="1.68696">
        <ele>238.06</ele>
        <time>2021-08-18T06:40:01Z</time>
      </trkpt>
      <trkpt lat="43.93949" lon="1.68698">
        <ele>237.58</ele>
        <time>2021-08-18T06:40:02Z</time>
      </trkpt>
      <trkpt lat="43.9394" lon="1.68701">
        <ele>237.1</ele>
        <time>2021-08-18T06:40:03Z</time>
      </trkpt>
      <trkpt lat="43.93931" lon="1.68705">
        <ele>236.62</ele>
        <time>2021-08-18T06:40:04Z</time>
      </trkpt>
      <trkpt lat="43.93922" lon="1.6871">
        <ele>236.62</ele>
        <time>2021-08-18T06:40:05Z</time>
      </trkpt>
      <trkpt lat="43.93913" lon="1.68714">
        <ele>235.18</ele>
        <time>2021-08-18T06:40:06Z</time>
      </trkpt>
      <trkpt lat="43.93903" lon="1.68717">
        <ele>233.74</ele>
        <time>2021-08-18T06:40:07Z</time>
      </trkpt>
      <trkpt lat="43.93871" lon="1.68721">
        <ele>229.89</ele>
        <time>2021-08-18T06:40:10Z</time>
      </trkpt>
      <trkpt lat="43.93836" lon="1.68726">
        <ele>226.53</ele>
        <time>2021-08-18T06:40:13Z</time>
      </trkpt>
      <trkpt lat="43.9378" lon="1.68741">
        <ele>224.12</ele>
        <time>2021-08-18T06:40:18Z</time>
      </trkpt>
      <trkpt lat="43.93706" lon="1.68787">
        <ele>222.68</ele>
        <time>2021-08-18T06:40:26Z</time>
      </trkpt>
      <trkpt lat="43.93644" lon="1.68816">
        <ele>221.72</ele>
        <time>2021-08-18T06:40:33Z</time>
      </trkpt>
      <trkpt lat="43.93607" lon="1.68824">
        <ele>219.32</ele>
        <time>2021-08-18T06:40:37Z</time>
      </trkpt>
      <trkpt lat="43.93597" lon="1.68823">
        <ele>219.32</ele>
        <time>2021-08-18T06:40:38Z</time>
      </trkpt>
      <trkpt lat="43.93587" lon="1.68822">
        <ele>218.36</ele>
        <time>2021-08-18T06:40:39Z</time>
      </trkpt>
      <trkpt lat="43.9355" lon="1.68818">
        <ele>217.88</ele>
        <time>2021-08-18T06:40:43Z</time>
      </trkpt>
      <trkpt lat="43.93541" lon="1.6882">
        <ele>217.4</ele>
        <time>2021-08-18T06:40:44Z</time>
      </trkpt>
      <trkpt lat="43.93531" lon="1.68822">
        <ele>217.4</ele>
        <time>2021-08-18T06:40:45Z</time>
      </trkpt>
      <trkpt lat="43.93476" lon="1.68842">
        <ele>213.55</ele>
        <time>2021-08-18T06:40:51Z</time>
      </trkpt>
      <trkpt lat="43.93442" lon="1.68851">
        <ele>210.19</ele>
        <time>2021-08-18T06:40:54Z</time>
      </trkpt>
      <trkpt lat="43.93405" lon="1.68858">
        <ele>206.34</ele>
        <time>2021-08-18T06:40:57Z</time>
      </trkpt>
      <trkpt lat="43.93368" lon="1.68865">
        <ele>202.49</ele>
        <time>2021-08-18T06:41:00Z</time>
      </trkpt>
      <trkpt lat="43.93318" lon="1.68878">
        <ele>200.57</ele>
        <time>2021-08-18T06:41:05Z</time>
      </trkpt>
      <trkpt lat="43.93316" lon="1.68876">
        <ele>200.57</ele>
        <time>2021-08-18T06:41:06Z</time>
      </trkpt>
      <trkpt lat="43.93315" lon="1.68872">
        <ele>200.57</ele>
        <time>2021-08-18T06:41:07Z</time>
      </trkpt>
      <trkpt lat="43.93314" lon="1.68866">
        <ele>199.61</ele>
        <time>2021-08-18T06:41:08Z</time>
      </trkpt>
      <trkpt lat="43.93313" lon="1.6886">
        <ele>199.13</ele>
        <time>2021-08-18T06:41:09Z</time>
      </trkpt>
      <trkpt lat="43.9331" lon="1.68854">
        <ele>198.17</ele>
        <time>2021-08-18T06:41:10Z</time>
      </trkpt>
      <trkpt lat="43.93308" lon="1.68846">
        <ele>197.21</ele>
        <time>2021-08-18T06:41:11Z</time>
      </trkpt>
      <trkpt lat="43.93302" lon="1.68828">
        <ele>195.77</ele>
        <time>2021-08-18T06:41:13Z</time>
      </trkpt>
      <trkpt lat="43.93299" lon="1.6882">
        <ele>195.28</ele>
        <time>2021-08-18T06:41:14Z</time>
      </trkpt>
      <trkpt lat="43.93294" lon="1.68812">
        <ele>194.32</ele>
        <time>2021-08-18T06:41:15Z</time>
      </trkpt>
      <trkpt lat="43.93288" lon="1.68804">
        <ele>193.36</ele>
        <time>2021-08-18T06:41:16Z</time>
      </trkpt>
      <trkpt lat="43.93281" lon="1.68797">
        <ele>192.88</ele>
        <time>2021-08-18T06:41:17Z</time>
      </trkpt>
      <trkpt lat="43.93274" lon="1.68793">
        <ele>191.92</ele>
        <time>2021-08-18T06:41:18Z</time>
      </trkpt>
      <trkpt lat="43.9327" lon="1.68789">
        <ele>191.44</ele>
        <time>2021-08-18T06:41:19Z</time>
      </trkpt>
      <trkpt lat="43.93265" lon="1.68787">
        <ele>190.96</ele>
        <time>2021-08-18T06:41:22Z</time>
      </trkpt>
      <trkpt lat="43.93266" lon="1.68788">
        <ele>191.44</ele>
        <time>2021-08-18T06:41:30Z</time>
      </trkpt>
      <trkpt lat="43.93263" lon="1.68788">
        <ele>191.44</ele>
        <time>2021-08-18T06:41:36Z</time>
      </trkpt>
      <trkpt lat="43.93261" lon="1.68788">
        <ele>191.44</ele>
        <time>2021-08-18T06:41:37Z</time>
      </trkpt>
      <trkpt lat="43.93259" lon="1.68786">
        <ele>190.96</ele>
        <time>2021-08-18T06:41:38Z</time>
      </trkpt>
      <trkpt lat="43.93231" lon="1.68769">
        <ele>187.59</ele>
        <time>2021-08-18T06:41:44Z</time>
      </trkpt>
      <trkpt lat="43.93213" lon="1.68759">
        <ele>186.15</ele>
        <time>2021-08-18T06:41:47Z</time>
      </trkpt>
      <trkpt lat="43.93192" lon="1.68745">
        <ele>182.79</ele>
        <time>2021-08-18T06:41:51Z</time>
      </trkpt>
      <trkpt lat="43.93164" lon="1.68728">
        <ele>178.94</ele>
        <time>2021-08-18T06:41:55Z</time>
      </trkpt>
      <trkpt lat="43.93136" lon="1.68712">
        <ele>175.58</ele>
        <time>2021-08-18T06:41:59Z</time>
      </trkpt>
      <trkpt lat="43.93109" lon="1.68696">
        <ele>173.66</ele>
        <time>2021-08-18T06:42:03Z</time>
      </trkpt>
      <trkpt lat="43.93074" lon="1.68677">
        <ele>171.73</ele>
        <time>2021-08-18T06:42:08Z</time>
      </trkpt>
      <trkpt lat="43.93068" lon="1.68672">
        <ele>171.73</ele>
        <time>2021-08-18T06:42:09Z</time>
      </trkpt>
      <trkpt lat="43.93062" lon="1.68666">
        <ele>171.73</ele>
        <time>2021-08-18T06:42:10Z</time>
      </trkpt>
      <trkpt lat="43.93057" lon="1.68659">
        <ele>171.73</ele>
        <time>2021-08-18T06:42:11Z</time>
      </trkpt>
      <trkpt lat="43.93053" lon="1.68653">
        <ele>171.73</ele>
        <time>2021-08-18T06:42:12Z</time>
      </trkpt>
      <trkpt lat="43.93049" lon="1.68645">
        <ele>171.73</ele>
        <time>2021-08-18T06:42:13Z</time>
      </trkpt>
      <trkpt lat="43.93046" lon="1.68638">
        <ele>171.73</ele>
        <time>2021-08-18T06:42:14Z</time>
      </trkpt>
      <trkpt lat="43.93042" lon="1.68631">
        <ele>171.73</ele>
        <time>2021-08-18T06:42:15Z</time>
      </trkpt>
      <trkpt lat="43.93039" lon="1.68625">
        <ele>171.73</ele>
        <time>2021-08-18T06:42:16Z</time>
      </trkpt>
      <trkpt lat="43.93035" lon="1.68618">
        <ele>171.73</ele>
        <time>2021-08-18T06:42:17Z</time>
      </trkpt>
      <trkpt lat="43.93011" lon="1.68578">
        <ele>171.73</ele>
        <time>2021-08-18T06:42:24Z</time>
      </trkpt>
      <trkpt lat="43.93005" lon="1.6857">
        <ele>171.73</ele>
        <time>2021-08-18T06:42:26Z</time>
      </trkpt>
      <trkpt lat="43.93001" lon="1.68567">
        <ele>171.73</ele>
        <time>2021-08-18T06:42:27Z</time>
      </trkpt>
      <trkpt lat="43.92979" lon="1.6855">
        <ele>171.73</ele>
        <time>2021-08-18T06:42:34Z</time>
      </trkpt>
      <trkpt lat="43.92958" lon="1.68541">
        <ele>171.73</ele>
        <time>2021-08-18T06:42:40Z</time>
      </trkpt>
      <trkpt lat="43.92945" lon="1.68539">
        <ele>171.25</ele>
        <time>2021-08-18T06:42:43Z</time>
      </trkpt>
      <trkpt lat="43.9294" lon="1.68539">
        <ele>171.25</ele>
        <time>2021-08-18T06:42:44Z</time>
      </trkpt>
      <trkpt lat="43.92935" lon="1.6854">
        <ele>171.25</ele>
        <time>2021-08-18T06:42:45Z</time>
      </trkpt>
      <trkpt lat="43.92894" lon="1.68556">
        <ele>170.77</ele>
        <time>2021-08-18T06:42:54Z</time>
      </trkpt>
      <trkpt lat="43.92874" lon="1.68561">
        <ele>170.77</ele>
        <time>2021-08-18T06:42:58Z</time>
      </trkpt>
      <trkpt lat="43.92865" lon="1.6856">
        <ele>170.77</ele>
        <time>2021-08-18T06:43:00Z</time>
      </trkpt>
      <trkpt lat="43.9286" lon="1.6856">
        <ele>170.77</ele>
        <time>2021-08-18T06:43:01Z</time>
      </trkpt>
      <trkpt lat="43.92836" lon="1.68551">
        <ele>172.21</ele>
        <time>2021-08-18T06:43:07Z</time>
      </trkpt>
      <trkpt lat="43.92799" lon="1.68535">
        <ele>170.77</ele>
        <time>2021-08-18T06:43:15Z</time>
      </trkpt>
      <trkpt lat="43.92795" lon="1.68532">
        <ele>170.77</ele>
        <time>2021-08-18T06:43:16Z</time>
      </trkpt>
      <trkpt lat="43.92754" lon="1.68509">
        <ele>169.33</ele>
        <time>2021-08-18T06:43:24Z</time>
      </trkpt>
      <trkpt lat="43.92718" lon="1.68502">
        <ele>168.85</ele>
        <time>2021-08-18T06:43:31Z</time>
      </trkpt>
      <trkpt lat="43.92661" lon="1.6848">
        <ele>167.89</ele>
        <time>2021-08-18T06:43:42Z</time>
      </trkpt>
      <trkpt lat="43.92636" lon="1.68467">
        <ele>167.41</ele>
        <time>2021-08-18T06:43:47Z</time>
      </trkpt>
      <trkpt lat="43.92632" lon="1.68463">
        <ele>167.41</ele>
        <time>2021-08-18T06:43:48Z</time>
      </trkpt>
      <trkpt lat="43.92629" lon="1.68458">
        <ele>167.41</ele>
        <time>2021-08-18T06:43:49Z</time>
      </trkpt>
      <trkpt lat="43.92626" lon="1.68452">
        <ele>167.41</ele>
        <time>2021-08-18T06:43:50Z</time>
      </trkpt>
      <trkpt lat="43.92624" lon="1.68447">
        <ele>167.41</ele>
        <time>2021-08-18T06:43:51Z</time>
      </trkpt>
      <trkpt lat="43.92596" lon="1.68387">
        <ele>166.93</ele>
        <time>2021-08-18T06:44:01Z</time>
      </trkpt>
      <trkpt lat="43.92566" lon="1.68345">
        <ele>166.93</ele>
        <time>2021-08-18T06:44:10Z</time>
      </trkpt>
      <trkpt lat="43.92555" lon="1.68334">
        <ele>166.93</ele>
        <time>2021-08-18T06:44:13Z</time>
      </trkpt>
      <trkpt lat="43.92551" lon="1.68332">
        <ele>166.93</ele>
        <time>2021-08-18T06:44:14Z</time>
      </trkpt>
      <trkpt lat="43.92546" lon="1.6833">
        <ele>166.93</ele>
        <time>2021-08-18T06:44:15Z</time>
      </trkpt>
      <trkpt lat="43.92505" lon="1.68323">
        <ele>166.45</ele>
        <time>2021-08-18T06:44:23Z</time>
      </trkpt>
      <trkpt lat="43.92471" lon="1.68313">
        <ele>166.45</ele>
        <time>2021-08-18T06:44:29Z</time>
      </trkpt>
      <trkpt lat="43.92466" lon="1.68309">
        <ele>166.45</ele>
        <time>2021-08-18T06:44:30Z</time>
      </trkpt>
      <trkpt lat="43.92461" lon="1.68305">
        <ele>166.45</ele>
        <time>2021-08-18T06:44:31Z</time>
      </trkpt>
      <trkpt lat="43.92421" lon="1.68264">
        <ele>166.45</ele>
        <time>2021-08-18T06:44:40Z</time>
      </trkpt>
      <trkpt lat="43.92412" lon="1.68258">
        <ele>166.45</ele>
        <time>2021-08-18T06:44:42Z</time>
      </trkpt>
      <trkpt lat="43.92394" lon="1.68248">
        <ele>167.89</ele>
        <time>2021-08-18T06:44:46Z</time>
      </trkpt>
      <trkpt lat="43.92372" lon="1.68238">
        <ele>169.81</ele>
        <time>2021-08-18T06:44:53Z</time>
      </trkpt>
      <trkpt lat="43.9235" lon="1.68226">
        <ele>170.77</ele>
        <time>2021-08-18T06:45:00Z</time>
      </trkpt>
      <trkpt lat="43.92319" lon="1.68217">
        <ele>168.85</ele>
        <time>2021-08-18T06:45:06Z</time>
      </trkpt>
      <trkpt lat="43.92265" lon="1.6821">
        <ele>167.41</ele>
        <time>2021-08-18T06:45:14Z</time>
      </trkpt>
      <trkpt lat="43.9224" lon="1.68211">
        <ele>169.33</ele>
        <time>2021-08-18T06:45:19Z</time>
      </trkpt>
      <trkpt lat="43.92222" lon="1.68211">
        <ele>171.73</ele>
        <time>2021-08-18T06:45:26Z</time>
      </trkpt>
      <trkpt lat="43.92197" lon="1.68204">
        <ele>172.69</ele>
        <time>2021-08-18T06:45:36Z</time>
      </trkpt>
      <trkpt lat="43.92167" lon="1.68188">
        <ele>173.17</ele>
        <time>2021-08-18T06:45:45Z</time>
      </trkpt>
      <trkpt lat="43.9215" lon="1.68176">
        <ele>173.17</ele>
        <time>2021-08-18T06:45:50Z</time>
      </trkpt>
      <trkpt lat="43.92123" lon="1.68158">
        <ele>174.14</ele>
        <time>2021-08-18T06:45:58Z</time>
      </trkpt>
      <trkpt lat="43.92098" lon="1.68139">
        <ele>175.1</ele>
        <time>2021-08-18T06:46:06Z</time>
      </trkpt>
      <trkpt lat="43.92072" lon="1.68118">
        <ele>176.06</ele>
        <time>2021-08-18T06:46:14Z</time>
      </trkpt>
      <trkpt lat="43.92037" lon="1.681">
        <ele>176.06</ele>
        <time>2021-08-18T06:46:23Z</time>
      </trkpt>
      <trkpt lat="43.92009" lon="1.68083">
        <ele>174.62</ele>
        <time>2021-08-18T06:46:29Z</time>
      </trkpt>
      <trkpt lat="43.91977" lon="1.68061">
        <ele>171.73</ele>
        <time>2021-08-18T06:46:35Z</time>
      </trkpt>
      <trkpt lat="43.91945" lon="1.68046">
        <ele>167.89</ele>
        <time>2021-08-18T06:46:39Z</time>
      </trkpt>
      <trkpt lat="43.91915" lon="1.68032">
        <ele>165</ele>
        <time>2021-08-18T06:46:42Z</time>
      </trkpt>
      <trkpt lat="43.91885" lon="1.68018">
        <ele>161.64</ele>
        <time>2021-08-18T06:46:45Z</time>
      </trkpt>
      <trkpt lat="43.91832" lon="1.67994">
        <ele>158.75</ele>
        <time>2021-08-18T06:46:51Z</time>
      </trkpt>
      <trkpt lat="43.91811" lon="1.67985">
        <ele>158.27</ele>
        <time>2021-08-18T06:46:55Z</time>
      </trkpt>
      <trkpt lat="43.91807" lon="1.67988">
        <ele>158.27</ele>
        <time>2021-08-18T06:46:56Z</time>
      </trkpt>
      <trkpt lat="43.91805" lon="1.67993">
        <ele>158.27</ele>
        <time>2021-08-18T06:46:57Z</time>
      </trkpt>
      <trkpt lat="43.91804" lon="1.67998">
        <ele>158.27</ele>
        <time>2021-08-18T06:46:58Z</time>
      </trkpt>
      <trkpt lat="43.91803" lon="1.68003">
        <ele>158.27</ele>
        <time>2021-08-18T06:46:59Z</time>
      </trkpt>
      <trkpt lat="43.91802" lon="1.68056">
        <ele>158.75</ele>
        <time>2021-08-18T06:47:07Z</time>
      </trkpt>
      <trkpt lat="43.91811" lon="1.68131">
        <ele>160.2</ele>
        <time>2021-08-18T06:47:18Z</time>
      </trkpt>
      <trkpt lat="43.91812" lon="1.68191">
        <ele>160.68</ele>
        <time>2021-08-18T06:47:27Z</time>
      </trkpt>
      <trkpt lat="43.91812" lon="1.68266">
        <ele>160.68</ele>
        <time>2021-08-18T06:47:37Z</time>
      </trkpt>
      <trkpt lat="43.91812" lon="1.68335">
        <ele>159.72</ele>
        <time>2021-08-18T06:47:46Z</time>
      </trkpt>
      <trkpt lat="43.91808" lon="1.68392">
        <ele>159.72</ele>
        <time>2021-08-18T06:47:55Z</time>
      </trkpt>
      <trkpt lat="43.91803" lon="1.68433">
        <ele>160.68</ele>
        <time>2021-08-18T06:48:03Z</time>
      </trkpt>
      <trkpt lat="43.91802" lon="1.68484">
        <ele>160.68</ele>
        <time>2021-08-18T06:48:11Z</time>
      </trkpt>
      <trkpt lat="43.91804" lon="1.68514">
        <ele>159.24</ele>
        <time>2021-08-18T06:48:15Z</time>
      </trkpt>
      <trkpt lat="43.91804" lon="1.68522">
        <ele>159.24</ele>
        <time>2021-08-18T06:48:16Z</time>
      </trkpt>
      <trkpt lat="43.91805" lon="1.68549">
        <ele>159.24</ele>
        <time>2021-08-18T06:48:20Z</time>
      </trkpt>
      <trkpt lat="43.91805" lon="1.68556">
        <ele>159.24</ele>
        <time>2021-08-18T06:48:21Z</time>
      </trkpt>
      <trkpt lat="43.91807" lon="1.68638">
        <ele>159.24</ele>
        <time>2021-08-18T06:48:32Z</time>
      </trkpt>
      <trkpt lat="43.91804" lon="1.68732">
        <ele>159.24</ele>
        <time>2021-08-18T06:48:44Z</time>
      </trkpt>
      <trkpt lat="43.91796" lon="1.68802">
        <ele>159.24</ele>
        <time>2021-08-18T06:48:53Z</time>
      </trkpt>
      <trkpt lat="43.91781" lon="1.68873">
        <ele>159.24</ele>
        <time>2021-08-18T06:49:02Z</time>
      </trkpt>
      <trkpt lat="43.91776" lon="1.68938">
        <ele>159.24</ele>
        <time>2021-08-18T06:49:10Z</time>
      </trkpt>
      <trkpt lat="43.91774" lon="1.69012">
        <ele>159.24</ele>
        <time>2021-08-18T06:49:19Z</time>
      </trkpt>
      <trkpt lat="43.9177" lon="1.69043">
        <ele>160.68</ele>
        <time>2021-08-18T06:49:23Z</time>
      </trkpt>
      <trkpt lat="43.91772" lon="1.69115">
        <ele>161.16</ele>
        <time>2021-08-18T06:49:32Z</time>
      </trkpt>
      <trkpt lat="43.91782" lon="1.69234">
        <ele>161.16</ele>
        <time>2021-08-18T06:49:46Z</time>
      </trkpt>
      <trkpt lat="43.91782" lon="1.69266">
        <ele>161.16</ele>
        <time>2021-08-18T06:49:50Z</time>
      </trkpt>
      <trkpt lat="43.91768" lon="1.69343">
        <ele>161.16</ele>
        <time>2021-08-18T06:50:00Z</time>
      </trkpt>
      <trkpt lat="43.91766" lon="1.69356">
        <ele>161.64</ele>
        <time>2021-08-18T06:50:02Z</time>
      </trkpt>
      <trkpt lat="43.91763" lon="1.69369">
        <ele>161.64</ele>
        <time>2021-08-18T06:50:04Z</time>
      </trkpt>
      <trkpt lat="43.91761" lon="1.69379">
        <ele>162.12</ele>
        <time>2021-08-18T06:50:06Z</time>
      </trkpt>
      <trkpt lat="43.91759" lon="1.69382">
        <ele>162.12</ele>
        <time>2021-08-18T06:50:07Z</time>
      </trkpt>
      <trkpt lat="43.91755" lon="1.69383">
        <ele>162.12</ele>
        <time>2021-08-18T06:50:08Z</time>
      </trkpt>
      <trkpt lat="43.91752" lon="1.69381">
        <ele>162.12</ele>
        <time>2021-08-18T06:50:09Z</time>
      </trkpt>
      <trkpt lat="43.91749" lon="1.69379">
        <ele>162.12</ele>
        <time>2021-08-18T06:50:10Z</time>
      </trkpt>
      <trkpt lat="43.91746" lon="1.69376">
        <ele>162.12</ele>
        <time>2021-08-18T06:50:11Z</time>
      </trkpt>
      <trkpt lat="43.91742" lon="1.69372">
        <ele>162.12</ele>
        <time>2021-08-18T06:50:12Z</time>
      </trkpt>
      <trkpt lat="43.91719" lon="1.69339">
        <ele>162.12</ele>
        <time>2021-08-18T06:50:19Z</time>
      </trkpt>
      <trkpt lat="43.91715" lon="1.69335">
        <ele>162.12</ele>
        <time>2021-08-18T06:50:20Z</time>
      </trkpt>
      <trkpt lat="43.91711" lon="1.69332">
        <ele>162.12</ele>
        <time>2021-08-18T06:50:21Z</time>
      </trkpt>
      <trkpt lat="43.91706" lon="1.69329">
        <ele>162.12</ele>
        <time>2021-08-18T06:50:22Z</time>
      </trkpt>
      <trkpt lat="43.91702" lon="1.69326">
        <ele>162.12</ele>
        <time>2021-08-18T06:50:23Z</time>
      </trkpt>
      <trkpt lat="43.91683" lon="1.69319">
        <ele>162.12</ele>
        <time>2021-08-18T06:50:27Z</time>
      </trkpt>
      <trkpt lat="43.91673" lon="1.69315">
        <ele>162.12</ele>
        <time>2021-08-18T06:50:29Z</time>
      </trkpt>
      <trkpt lat="43.91662" lon="1.6931">
        <ele>162.12</ele>
        <time>2021-08-18T06:50:31Z</time>
      </trkpt>
      <trkpt lat="43.91647" lon="1.69298">
        <ele>161.16</ele>
        <time>2021-08-18T06:50:34Z</time>
      </trkpt>
      <trkpt lat="43.91601" lon="1.69265">
        <ele>160.68</ele>
        <time>2021-08-18T06:50:43Z</time>
      </trkpt>
      <trkpt lat="43.91596" lon="1.69263">
        <ele>160.68</ele>
        <time>2021-08-18T06:50:44Z</time>
      </trkpt>
      <trkpt lat="43.9159" lon="1.69262">
        <ele>161.64</ele>
        <time>2021-08-18T06:50:45Z</time>
      </trkpt>
      <trkpt lat="43.91551" lon="1.69257">
        <ele>162.12</ele>
        <time>2021-08-18T06:50:53Z</time>
      </trkpt>
      <trkpt lat="43.91516" lon="1.69255">
        <ele>163.08</ele>
        <time>2021-08-18T06:51:01Z</time>
      </trkpt>
      <trkpt lat="43.91486" lon="1.69252">
        <ele>164.52</ele>
        <time>2021-08-18T06:51:10Z</time>
      </trkpt>
      <trkpt lat="43.91462" lon="1.69251">
        <ele>165.96</ele>
        <time>2021-08-18T06:51:19Z</time>
      </trkpt>
      <trkpt lat="43.91445" lon="1.69248">
        <ele>167.41</ele>
        <time>2021-08-18T06:51:26Z</time>
      </trkpt>
      <trkpt lat="43.91428" lon="1.69246">
        <ele>167.89</ele>
        <time>2021-08-18T06:51:33Z</time>
      </trkpt>
      <trkpt lat="43.91404" lon="1.69246">
        <ele>167.89</ele>
        <time>2021-08-18T06:51:40Z</time>
      </trkpt>
      <trkpt lat="43.91373" lon="1.69242">
        <ele>168.37</ele>
        <time>2021-08-18T06:51:49Z</time>
      </trkpt>
      <trkpt lat="43.91351" lon="1.69236">
        <ele>169.81</ele>
        <time>2021-08-18T06:51:57Z</time>
      </trkpt>
      <trkpt lat="43.91328" lon="1.69232">
        <ele>171.25</ele>
        <time>2021-08-18T06:52:06Z</time>
      </trkpt>
      <trkpt lat="43.91304" lon="1.69226">
        <ele>172.69</ele>
        <time>2021-08-18T06:52:15Z</time>
      </trkpt>
      <trkpt lat="43.91277" lon="1.69221">
        <ele>174.14</ele>
        <time>2021-08-18T06:52:25Z</time>
      </trkpt>
      <trkpt lat="43.91258" lon="1.69216">
        <ele>175.58</ele>
        <time>2021-08-18T06:52:33Z</time>
      </trkpt>
      <trkpt lat="43.91238" lon="1.6921">
        <ele>176.54</ele>
        <time>2021-08-18T06:52:41Z</time>
      </trkpt>
      <trkpt lat="43.91214" lon="1.69195">
        <ele>177.98</ele>
        <time>2021-08-18T06:52:51Z</time>
      </trkpt>
      <trkpt lat="43.91195" lon="1.69178">
        <ele>178.94</ele>
        <time>2021-08-18T06:53:00Z</time>
      </trkpt>
      <trkpt lat="43.91172" lon="1.69155">
        <ele>179.9</ele>
        <time>2021-08-18T06:53:11Z</time>
      </trkpt>
      <trkpt lat="43.9115" lon="1.69136">
        <ele>181.35</ele>
        <time>2021-08-18T06:53:21Z</time>
      </trkpt>
      <trkpt lat="43.91125" lon="1.69111">
        <ele>183.75</ele>
        <time>2021-08-18T06:53:33Z</time>
      </trkpt>
      <trkpt lat="43.91107" lon="1.69098">
        <ele>185.19</ele>
        <time>2021-08-18T06:53:42Z</time>
      </trkpt>
      <trkpt lat="43.91094" lon="1.6909">
        <ele>186.15</ele>
        <time>2021-08-18T06:53:49Z</time>
      </trkpt>
      <trkpt lat="43.91074" lon="1.69082">
        <ele>187.59</ele>
        <time>2021-08-18T06:53:58Z</time>
      </trkpt>
      <trkpt lat="43.91051" lon="1.69074">
        <ele>189.04</ele>
        <time>2021-08-18T06:54:07Z</time>
      </trkpt>
      <trkpt lat="43.91029" lon="1.69068">
        <ele>190</ele>
        <time>2021-08-18T06:54:16Z</time>
      </trkpt>
      <trkpt lat="43.90999" lon="1.69059">
        <ele>192.4</ele>
        <time>2021-08-18T06:54:28Z</time>
      </trkpt>
      <trkpt lat="43.9097" lon="1.69049">
        <ele>193.84</ele>
        <time>2021-08-18T06:54:38Z</time>
      </trkpt>
      <trkpt lat="43.90941" lon="1.69038">
        <ele>195.28</ele>
        <time>2021-08-18T06:54:48Z</time>
      </trkpt>
      <trkpt lat="43.90911" lon="1.69029">
        <ele>195.77</ele>
        <time>2021-08-18T06:54:58Z</time>
      </trkpt>
      <trkpt lat="43.90878" lon="1.69022">
        <ele>196.73</ele>
        <time>2021-08-18T06:55:08Z</time>
      </trkpt>
      <trkpt lat="43.90849" lon="1.69019">
        <ele>197.69</ele>
        <time>2021-08-18T06:55:17Z</time>
      </trkpt>
      <trkpt lat="43.90823" lon="1.69016">
        <ele>198.17</ele>
        <time>2021-08-18T06:55:25Z</time>
      </trkpt>
      <trkpt lat="43.90789" lon="1.69008">
        <ele>199.61</ele>
        <time>2021-08-18T06:55:36Z</time>
      </trkpt>
      <trkpt lat="43.90765" lon="1.69002">
        <ele>200.57</ele>
        <time>2021-08-18T06:55:44Z</time>
      </trkpt>
      <trkpt lat="43.90745" lon="1.68992">
        <ele>201.53</ele>
        <time>2021-08-18T06:55:52Z</time>
      </trkpt>
      <trkpt lat="43.90728" lon="1.68972">
        <ele>203.94</ele>
        <time>2021-08-18T06:56:02Z</time>
      </trkpt>
      <trkpt lat="43.90722" lon="1.68951">
        <ele>206.34</ele>
        <time>2021-08-18T06:56:10Z</time>
      </trkpt>
      <trkpt lat="43.90719" lon="1.68933">
        <ele>207.3</ele>
        <time>2021-08-18T06:56:18Z</time>
      </trkpt>
      <trkpt lat="43.90716" lon="1.68916">
        <ele>208.26</ele>
        <time>2021-08-18T06:56:25Z</time>
      </trkpt>
      <trkpt lat="43.90713" lon="1.68899">
        <ele>209.7</ele>
        <time>2021-08-18T06:56:32Z</time>
      </trkpt>
      <trkpt lat="43.90701" lon="1.68873">
        <ele>211.63</ele>
        <time>2021-08-18T06:56:44Z</time>
      </trkpt>
      <trkpt lat="43.90686" lon="1.68859">
        <ele>213.55</ele>
        <time>2021-08-18T06:56:54Z</time>
      </trkpt>
      <trkpt lat="43.90668" lon="1.68853">
        <ele>215.47</ele>
        <time>2021-08-18T06:57:04Z</time>
      </trkpt>
      <trkpt lat="43.90651" lon="1.68851">
        <ele>217.4</ele>
        <time>2021-08-18T06:57:13Z</time>
      </trkpt>
      <trkpt lat="43.90633" lon="1.6885">
        <ele>218.84</ele>
        <time>2021-08-18T06:57:23Z</time>
      </trkpt>
      <trkpt lat="43.90617" lon="1.68844">
        <ele>220.76</ele>
        <time>2021-08-18T06:57:32Z</time>
      </trkpt>
      <trkpt lat="43.90602" lon="1.68836">
        <ele>222.68</ele>
        <time>2021-08-18T06:57:41Z</time>
      </trkpt>
      <trkpt lat="43.90585" lon="1.68824">
        <ele>224.12</ele>
        <time>2021-08-18T06:57:51Z</time>
      </trkpt>
      <trkpt lat="43.90573" lon="1.68814">
        <ele>225.57</ele>
        <time>2021-08-18T06:57:59Z</time>
      </trkpt>
      <trkpt lat="43.90559" lon="1.68803">
        <ele>227.01</ele>
        <time>2021-08-18T06:58:07Z</time>
      </trkpt>
      <trkpt lat="43.90546" lon="1.68788">
        <ele>227.97</ele>
        <time>2021-08-18T06:58:15Z</time>
      </trkpt>
      <trkpt lat="43.90537" lon="1.68772">
        <ele>227.97</ele>
        <time>2021-08-18T06:58:20Z</time>
      </trkpt>
      <trkpt lat="43.90537" lon="1.68768">
        <ele>227.97</ele>
        <time>2021-08-18T06:58:21Z</time>
      </trkpt>
      <trkpt lat="43.90537" lon="1.68765">
        <ele>227.97</ele>
        <time>2021-08-18T06:58:22Z</time>
      </trkpt>
      <trkpt lat="43.90541" lon="1.68746">
        <ele>228.93</ele>
        <time>2021-08-18T06:58:28Z</time>
      </trkpt>
      <trkpt lat="43.90544" lon="1.68746">
        <ele>229.41</ele>
        <time>2021-08-18T06:58:29Z</time>
      </trkpt>
      <trkpt lat="43.90545" lon="1.68746">
        <ele>229.41</ele>
        <time>2021-08-18T06:58:30Z</time>
      </trkpt>
      <trkpt lat="43.90547" lon="1.68747">
        <ele>229.41</ele>
        <time>2021-08-18T06:58:31Z</time>
      </trkpt>
      <trkpt lat="43.90548" lon="1.68749">
        <ele>229.41</ele>
        <time>2021-08-18T06:58:32Z</time>
      </trkpt>
      <trkpt lat="43.90549" lon="1.6875">
        <ele>229.41</ele>
        <time>2021-08-18T06:58:33Z</time>
      </trkpt>
      <trkpt lat="43.9055" lon="1.68753">
        <ele>229.89</ele>
        <time>2021-08-18T06:58:34Z</time>
      </trkpt>
      <trkpt lat="43.90551" lon="1.68757">
        <ele>229.89</ele>
        <time>2021-08-18T06:58:35Z</time>
      </trkpt>
      <trkpt lat="43.90551" lon="1.6876">
        <ele>229.89</ele>
        <time>2021-08-18T06:58:36Z</time>
      </trkpt>
      <trkpt lat="43.90551" lon="1.68764">
        <ele>229.89</ele>
        <time>2021-08-18T06:58:37Z</time>
      </trkpt>
      <trkpt lat="43.90551" lon="1.68768">
        <ele>229.89</ele>
        <time>2021-08-18T06:58:38Z</time>
      </trkpt>
      <trkpt lat="43.90552" lon="1.68771">
        <ele>229.89</ele>
        <time>2021-08-18T06:58:39Z</time>
      </trkpt>
      <trkpt lat="43.90554" lon="1.68774">
        <ele>229.89</ele>
        <time>2021-08-18T06:58:40Z</time>
      </trkpt>
      <trkpt lat="43.90556" lon="1.68775">
        <ele>229.89</ele>
        <time>2021-08-18T06:58:41Z</time>
      </trkpt>
      <trkpt lat="43.90557" lon="1.68777">
        <ele>229.89</ele>
        <time>2021-08-18T06:58:42Z</time>
      </trkpt>
      <trkpt lat="43.90559" lon="1.68779">
        <ele>229.89</ele>
        <time>2021-08-18T06:58:47Z</time>
      </trkpt>
      <trkpt lat="43.90564" lon="1.68782">
        <ele>230.37</ele>
        <time>2021-08-18T06:58:53Z</time>
      </trkpt>
      <trkpt lat="43.90567" lon="1.68782">
        <ele>230.37</ele>
        <time>2021-08-18T06:58:56Z</time>
      </trkpt>
      <trkpt lat="43.90568" lon="1.68781">
        <ele>230.37</ele>
        <time>2021-08-18T06:58:58Z</time>
      </trkpt>
      <trkpt lat="43.90571" lon="1.68779">
        <ele>230.37</ele>
        <time>2021-08-18T06:59:03Z</time>
      </trkpt>
      <trkpt lat="43.90573" lon="1.68782">
        <ele>230.37</ele>
        <time>2021-08-18T06:59:06Z</time>
      </trkpt>
      <trkpt lat="43.90578" lon="1.68791">
        <ele>230.85</ele>
        <time>2021-08-18T06:59:14Z</time>
      </trkpt>
      <trkpt lat="43.90582" lon="1.68793">
        <ele>230.85</ele>
        <time>2021-08-18T06:59:23Z</time>
      </trkpt>
      <trkpt lat="43.90583" lon="1.6879">
        <ele>230.85</ele>
        <time>2021-08-18T06:59:36Z</time>
      </trkpt>
      <trkpt lat="43.90582" lon="1.68785">
        <ele>230.85</ele>
        <time>2021-08-18T06:59:52Z</time>
      </trkpt>
      <trkpt lat="43.90585" lon="1.6878">
        <ele>230.85</ele>
        <time>2021-08-18T07:00:06Z</time>
      </trkpt>
      <trkpt lat="43.90585" lon="1.68777">
        <ele>230.85</ele>
        <time>2021-08-18T07:00:18Z</time>
      </trkpt>
      <trkpt lat="43.90579" lon="1.68776">
        <ele>230.85</ele>
        <time>2021-08-18T07:00:30Z</time>
      </trkpt>
      <trkpt lat="43.90579" lon="1.68773">
        <ele>231.33</ele>
        <time>2021-08-18T07:00:50Z</time>
      </trkpt>
      <trkpt lat="43.90572" lon="1.68768">
        <ele>231.33</ele>
        <time>2021-08-18T07:01:03Z</time>
      </trkpt>
      <trkpt lat="43.90577" lon="1.6877">
        <ele>231.33</ele>
        <time>2021-08-18T07:01:17Z</time>
      </trkpt>
      <trkpt lat="43.90574" lon="1.68765">
        <ele>231.81</ele>
        <time>2021-08-18T07:01:27Z</time>
      </trkpt>
      <trkpt lat="43.90575" lon="1.68765">
        <ele>231.81</ele>
        <time>2021-08-18T07:01:35Z</time>
      </trkpt>
      <trkpt lat="43.90576" lon="1.68767">
        <ele>231.81</ele>
        <time>2021-08-18T07:01:45Z</time>
      </trkpt>
      <trkpt lat="43.90576" lon="1.68772">
        <ele>231.81</ele>
        <time>2021-08-18T07:02:04Z</time>
      </trkpt>
      <trkpt lat="43.90576" lon="1.68771">
        <ele>231.81</ele>
        <time>2021-08-18T07:02:05Z</time>
      </trkpt>
      <trkpt lat="43.90576" lon="1.68769">
        <ele>231.81</ele>
        <time>2021-08-18T07:02:06Z</time>
      </trkpt>
      <trkpt lat="43.90577" lon="1.6877">
        <ele>231.81</ele>
        <time>2021-08-18T07:02:11Z</time>
      </trkpt>
      <trkpt lat="43.90577" lon="1.68773">
        <ele>231.81</ele>
        <time>2021-08-18T07:02:12Z</time>
      </trkpt>
      <trkpt lat="43.90581" lon="1.68775">
        <ele>232.3</ele>
        <time>2021-08-18T07:02:17Z</time>
      </trkpt>
      <trkpt lat="43.90584" lon="1.68775">
        <ele>232.3</ele>
        <time>2021-08-18T07:02:36Z</time>
      </trkpt>
      <trkpt lat="43.90585" lon="1.68777">
        <ele>232.3</ele>
        <time>2021-08-18T07:02:50Z</time>
      </trkpt>
      <trkpt lat="43.90583" lon="1.68778">
        <ele>232.3</ele>
        <time>2021-08-18T07:02:59Z</time>
      </trkpt>
      <trkpt lat="43.9058" lon="1.68775">
        <ele>232.78</ele>
        <time>2021-08-18T07:03:11Z</time>
      </trkpt>
      <trkpt lat="43.90584" lon="1.68775">
        <ele>232.78</ele>
        <time>2021-08-18T07:03:30Z</time>
      </trkpt>
      <trkpt lat="43.90583" lon="1.68781">
        <ele>232.78</ele>
        <time>2021-08-18T07:03:50Z</time>
      </trkpt>
      <trkpt lat="43.90583" lon="1.68781">
        <ele>233.26</ele>
        <time>2021-08-18T07:04:05Z</time>
      </trkpt>
      <trkpt lat="43.90582" lon="1.68778">
        <ele>233.26</ele>
        <time>2021-08-18T07:04:24Z</time>
      </trkpt>
      <trkpt lat="43.9058" lon="1.68777">
        <ele>233.26</ele>
        <time>2021-08-18T07:04:37Z</time>
      </trkpt>
      <trkpt lat="43.90581" lon="1.68774">
        <ele>233.26</ele>
        <time>2021-08-18T07:04:53Z</time>
      </trkpt>
      <trkpt lat="43.9058" lon="1.68772">
        <ele>233.74</ele>
        <time>2021-08-18T07:05:08Z</time>
      </trkpt>
      <trkpt lat="43.90578" lon="1.68771">
        <ele>233.74</ele>
        <time>2021-08-18T07:05:25Z</time>
      </trkpt>
      <trkpt lat="43.90578" lon="1.68772">
        <ele>233.74</ele>
        <time>2021-08-18T07:05:38Z</time>
      </trkpt>
      <trkpt lat="43.90578" lon="1.68774">
        <ele>234.22</ele>
        <time>2021-08-18T07:05:50Z</time>
      </trkpt>
      <trkpt lat="43.90579" lon="1.68769">
        <ele>234.22</ele>
        <time>2021-08-18T07:06:10Z</time>
      </trkpt>
      <trkpt lat="43.90586" lon="1.68773">
        <ele>234.7</ele>
        <time>2021-08-18T07:06:24Z</time>
      </trkpt>
      <trkpt lat="43.90586" lon="1.68776">
        <ele>234.7</ele>
        <time>2021-08-18T07:06:25Z</time>
      </trkpt>
      <trkpt lat="43.90588" lon="1.68779">
        <ele>234.7</ele>
        <time>2021-08-18T07:06:29Z</time>
      </trkpt>
      <trkpt lat="43.90588" lon="1.68781">
        <ele>234.7</ele>
        <time>2021-08-18T07:06:30Z</time>
      </trkpt>
      <trkpt lat="43.90587" lon="1.68785">
        <ele>234.7</ele>
        <time>2021-08-18T07:06:31Z</time>
      </trkpt>
      <trkpt lat="43.90588" lon="1.68785">
        <ele>234.7</ele>
        <time>2021-08-18T07:06:35Z</time>
      </trkpt>
      <trkpt lat="43.90585" lon="1.68778">
        <ele>234.7</ele>
        <time>2021-08-18T07:06:47Z</time>
      </trkpt>
      <trkpt lat="43.90581" lon="1.68775">
        <ele>235.18</ele>
        <time>2021-08-18T07:07:01Z</time>
      </trkpt>
      <trkpt lat="43.90579" lon="1.68774">
        <ele>235.18</ele>
        <time>2021-08-18T07:07:17Z</time>
      </trkpt>
      <trkpt lat="43.9058" lon="1.68774">
        <ele>235.66</ele>
        <time>2021-08-18T07:07:28Z</time>
      </trkpt>
      <trkpt lat="43.90585" lon="1.68779">
        <ele>235.66</ele>
        <time>2021-08-18T07:07:46Z</time>
      </trkpt>
      <trkpt lat="43.90588" lon="1.6878">
        <ele>236.14</ele>
        <time>2021-08-18T07:08:08Z</time>
      </trkpt>
      <trkpt lat="43.9059" lon="1.68781">
        <ele>236.14</ele>
        <time>2021-08-18T07:08:22Z</time>
      </trkpt>
      <trkpt lat="43.9059" lon="1.68781">
        <ele>236.62</ele>
        <time>2021-08-18T07:08:33Z</time>
      </trkpt>
      <trkpt lat="43.90592" lon="1.6878">
        <ele>236.62</ele>
        <time>2021-08-18T07:08:49Z</time>
      </trkpt>
      <trkpt lat="43.90591" lon="1.68781">
        <ele>237.1</ele>
        <time>2021-08-18T07:09:06Z</time>
      </trkpt>
      <trkpt lat="43.90583" lon="1.68783">
        <ele>237.1</ele>
        <time>2021-08-18T07:09:18Z</time>
      </trkpt>
      <trkpt lat="43.90583" lon="1.68782">
        <ele>237.58</ele>
        <time>2021-08-18T07:09:37Z</time>
      </trkpt>
      <trkpt lat="43.90581" lon="1.68782">
        <ele>237.58</ele>
        <time>2021-08-18T07:09:56Z</time>
      </trkpt>
      <trkpt lat="43.90573" lon="1.6877">
        <ele>238.06</ele>
        <time>2021-08-18T07:10:12Z</time>
      </trkpt>
      <trkpt lat="43.9057" lon="1.68763">
        <ele>238.06</ele>
        <time>2021-08-18T07:10:23Z</time>
      </trkpt>
      <trkpt lat="43.9057" lon="1.6876">
        <ele>238.06</ele>
        <time>2021-08-18T07:10:36Z</time>
      </trkpt>
      <trkpt lat="43.90571" lon="1.68759">
        <ele>237.1</ele>
        <time>2021-08-18T07:10:49Z</time>
      </trkpt>
      <trkpt lat="43.90576" lon="1.68762">
        <ele>237.58</ele>
        <time>2021-08-18T07:11:10Z</time>
      </trkpt>
      <trkpt lat="43.90573" lon="1.68761">
        <ele>237.58</ele>
        <time>2021-08-18T07:11:23Z</time>
      </trkpt>
      <trkpt lat="43.90586" lon="1.68766">
        <ele>238.06</ele>
        <time>2021-08-18T07:11:36Z</time>
      </trkpt>
      <trkpt lat="43.90585" lon="1.68764">
        <ele>238.06</ele>
        <time>2021-08-18T07:11:50Z</time>
      </trkpt>
      <trkpt lat="43.90581" lon="1.68764">
        <ele>238.54</ele>
        <time>2021-08-18T07:12:06Z</time>
      </trkpt>
      <trkpt lat="43.90581" lon="1.68764">
        <ele>238.54</ele>
        <time>2021-08-18T07:12:22Z</time>
      </trkpt>
      <trkpt lat="43.90582" lon="1.68764">
        <ele>239.02</ele>
        <time>2021-08-18T07:12:36Z</time>
      </trkpt>
      <trkpt lat="43.90581" lon="1.68764">
        <ele>239.51</ele>
        <time>2021-08-18T07:12:52Z</time>
      </trkpt>
      <trkpt lat="43.90583" lon="1.68769">
        <ele>239.51</ele>
        <time>2021-08-18T07:13:07Z</time>
      </trkpt>
      <trkpt lat="43.90588" lon="1.68775">
        <ele>239.99</ele>
        <time>2021-08-18T07:13:23Z</time>
      </trkpt>
      <trkpt lat="43.90588" lon="1.68776">
        <ele>239.99</ele>
        <time>2021-08-18T07:13:33Z</time>
      </trkpt>
      <trkpt lat="43.90589" lon="1.68778">
        <ele>239.99</ele>
        <time>2021-08-18T07:13:49Z</time>
      </trkpt>
      <trkpt lat="43.90582" lon="1.68778">
        <ele>240.47</ele>
        <time>2021-08-18T07:14:03Z</time>
      </trkpt>
      <trkpt lat="43.90577" lon="1.68776">
        <ele>240.47</ele>
        <time>2021-08-18T07:14:24Z</time>
      </trkpt>
      <trkpt lat="43.90573" lon="1.68768">
        <ele>240.47</ele>
        <time>2021-08-18T07:14:36Z</time>
      </trkpt>
      <trkpt lat="43.90565" lon="1.68756">
        <ele>240.95</ele>
        <time>2021-08-18T07:14:52Z</time>
      </trkpt>
      <trkpt lat="43.90566" lon="1.68757">
        <ele>240.95</ele>
        <time>2021-08-18T07:15:08Z</time>
      </trkpt>
      <trkpt lat="43.90572" lon="1.68765">
        <ele>240.95</ele>
        <time>2021-08-18T07:15:24Z</time>
      </trkpt>
      <trkpt lat="43.90577" lon="1.68771">
        <ele>240.95</ele>
        <time>2021-08-18T07:15:39Z</time>
      </trkpt>
      <trkpt lat="43.90577" lon="1.6877">
        <ele>241.43</ele>
        <time>2021-08-18T07:15:53Z</time>
      </trkpt>
      <trkpt lat="43.90579" lon="1.68773">
        <ele>241.43</ele>
        <time>2021-08-18T07:16:06Z</time>
      </trkpt>
      <trkpt lat="43.90583" lon="1.68777">
        <ele>241.43</ele>
        <time>2021-08-18T07:16:08Z</time>
      </trkpt>
      <trkpt lat="43.90588" lon="1.68787">
        <ele>241.43</ele>
        <time>2021-08-18T07:16:15Z</time>
      </trkpt>
      <trkpt lat="43.90588" lon="1.68787">
        <ele>241.43</ele>
        <time>2021-08-18T07:16:22Z</time>
      </trkpt>
      <trkpt lat="43.90587" lon="1.68788">
        <ele>241.43</ele>
        <time>2021-08-18T07:16:31Z</time>
      </trkpt>
      <trkpt lat="43.90589" lon="1.68789">
        <ele>240.95</ele>
        <time>2021-08-18T07:16:47Z</time>
      </trkpt>
      <trkpt lat="43.90588" lon="1.68791">
        <ele>240.95</ele>
        <time>2021-08-18T07:16:50Z</time>
      </trkpt>
      <trkpt lat="43.90579" lon="1.68785">
        <ele>240.95</ele>
        <time>2021-08-18T07:16:58Z</time>
      </trkpt>
      <trkpt lat="43.90574" lon="1.68784">
        <ele>240.95</ele>
        <time>2021-08-18T07:17:06Z</time>
      </trkpt>
      <trkpt lat="43.90573" lon="1.68783">
        <ele>240.95</ele>
        <time>2021-08-18T07:17:16Z</time>
      </trkpt>
      <trkpt lat="43.90573" lon="1.68784">
        <ele>240.95</ele>
        <time>2021-08-18T07:17:24Z</time>
      </trkpt>
      <trkpt lat="43.90571" lon="1.68783">
        <ele>240.95</ele>
        <time>2021-08-18T07:17:48Z</time>
      </trkpt>
      <trkpt lat="43.90572" lon="1.68783">
        <ele>240.95</ele>
        <time>2021-08-18T07:18:03Z</time>
      </trkpt>
      <trkpt lat="43.90572" lon="1.68784">
        <ele>240.95</ele>
        <time>2021-08-18T07:18:25Z</time>
      </trkpt>
      <trkpt lat="43.90573" lon="1.68782">
        <ele>240.95</ele>
        <time>2021-08-18T07:18:44Z</time>
      </trkpt>
      <trkpt lat="43.90572" lon="1.68783">
        <ele>240.95</ele>
        <time>2021-08-18T07:19:04Z</time>
      </trkpt>
      <trkpt lat="43.90572" lon="1.68785">
        <ele>240.95</ele>
        <time>2021-08-18T07:19:22Z</time>
      </trkpt>
      <trkpt lat="43.90573" lon="1.68786">
        <ele>240.47</ele>
        <time>2021-08-18T07:19:41Z</time>
      </trkpt>
      <trkpt lat="43.90571" lon="1.68786">
        <ele>240.47</ele>
        <time>2021-08-18T07:20:02Z</time>
      </trkpt>
      <trkpt lat="43.90572" lon="1.68782">
        <ele>240.47</ele>
        <time>2021-08-18T07:20:23Z</time>
      </trkpt>
      <trkpt lat="43.90574" lon="1.68783">
        <ele>239.99</ele>
        <time>2021-08-18T07:20:39Z</time>
      </trkpt>
      <trkpt lat="43.90574" lon="1.68785">
        <ele>239.99</ele>
        <time>2021-08-18T07:20:55Z</time>
      </trkpt>
      <trkpt lat="43.90574" lon="1.68787">
        <ele>239.99</ele>
        <time>2021-08-18T07:21:10Z</time>
      </trkpt>
      <trkpt lat="43.90573" lon="1.68781">
        <ele>239.99</ele>
        <time>2021-08-18T07:21:24Z</time>
      </trkpt>
      <trkpt lat="43.90571" lon="1.68781">
        <ele>239.99</ele>
        <time>2021-08-18T07:21:31Z</time>
      </trkpt>
      <trkpt lat="43.90566" lon="1.68778">
        <ele>239.99</ele>
        <time>2021-08-18T07:21:38Z</time>
      </trkpt>
      <trkpt lat="43.90555" lon="1.68773">
        <ele>239.99</ele>
        <time>2021-08-18T07:21:44Z</time>
      </trkpt>
      <trkpt lat="43.9055" lon="1.68763">
        <ele>239.99</ele>
        <time>2021-08-18T07:21:48Z</time>
      </trkpt>
      <trkpt lat="43.90547" lon="1.68752">
        <ele>239.99</ele>
        <time>2021-08-18T07:21:52Z</time>
      </trkpt>
      <trkpt lat="43.90546" lon="1.6875">
        <ele>239.99</ele>
        <time>2021-08-18T07:21:53Z</time>
      </trkpt>
      <trkpt lat="43.90544" lon="1.68748">
        <ele>239.99</ele>
        <time>2021-08-18T07:21:54Z</time>
      </trkpt>
      <trkpt lat="43.90543" lon="1.68727">
        <ele>239.51</ele>
        <time>2021-08-18T07:22:00Z</time>
      </trkpt>
      <trkpt lat="43.90546" lon="1.68711">
        <ele>239.51</ele>
        <time>2021-08-18T07:22:05Z</time>
      </trkpt>
      <trkpt lat="43.90547" lon="1.68708">
        <ele>240.47</ele>
        <time>2021-08-18T07:22:06Z</time>
      </trkpt>
      <trkpt lat="43.90554" lon="1.68687">
        <ele>240.47</ele>
        <time>2021-08-18T07:22:12Z</time>
      </trkpt>
      <trkpt lat="43.90557" lon="1.68684">
        <ele>240.47</ele>
        <time>2021-08-18T07:22:13Z</time>
      </trkpt>
      <trkpt lat="43.90572" lon="1.68665">
        <ele>239.02</ele>
        <time>2021-08-18T07:22:18Z</time>
      </trkpt>
      <trkpt lat="43.90597" lon="1.68629">
        <ele>237.1</ele>
        <time>2021-08-18T07:22:26Z</time>
      </trkpt>
      <trkpt lat="43.9061" lon="1.68614">
        <ele>236.62</ele>
        <time>2021-08-18T07:22:32Z</time>
      </trkpt>
      <trkpt lat="43.90626" lon="1.6859">
        <ele>235.18</ele>
        <time>2021-08-18T07:22:39Z</time>
      </trkpt>
      <trkpt lat="43.90644" lon="1.68564">
        <ele>233.74</ele>
        <time>2021-08-18T07:22:46Z</time>
      </trkpt>
      <trkpt lat="43.90645" lon="1.68558">
        <ele>233.74</ele>
        <time>2021-08-18T07:22:48Z</time>
      </trkpt>
      <trkpt lat="43.90644" lon="1.68557">
        <ele>233.26</ele>
        <time>2021-08-18T07:22:49Z</time>
      </trkpt>
      <trkpt lat="43.90642" lon="1.68559">
        <ele>233.26</ele>
        <time>2021-08-18T07:22:51Z</time>
      </trkpt>
      <trkpt lat="43.90641" lon="1.68561">
        <ele>233.26</ele>
        <time>2021-08-18T07:22:52Z</time>
      </trkpt>
      <trkpt lat="43.9064" lon="1.68563">
        <ele>233.26</ele>
        <time>2021-08-18T07:22:53Z</time>
      </trkpt>
      <trkpt lat="43.90639" lon="1.68566">
        <ele>233.26</ele>
        <time>2021-08-18T07:22:54Z</time>
      </trkpt>
      <trkpt lat="43.90637" lon="1.68569">
        <ele>233.26</ele>
        <time>2021-08-18T07:22:55Z</time>
      </trkpt>
      <trkpt lat="43.9062" lon="1.68599">
        <ele>235.18</ele>
        <time>2021-08-18T07:23:03Z</time>
      </trkpt>
      <trkpt lat="43.90601" lon="1.68627">
        <ele>237.1</ele>
        <time>2021-08-18T07:23:12Z</time>
      </trkpt>
      <trkpt lat="43.90589" lon="1.68637">
        <ele>237.58</ele>
        <time>2021-08-18T07:23:18Z</time>
      </trkpt>
      <trkpt lat="43.90588" lon="1.68637">
        <ele>237.58</ele>
        <time>2021-08-18T07:23:19Z</time>
      </trkpt>
      <trkpt lat="43.90588" lon="1.68636">
        <ele>237.58</ele>
        <time>2021-08-18T07:23:20Z</time>
      </trkpt>
      <trkpt lat="43.90588" lon="1.68634">
        <ele>237.58</ele>
        <time>2021-08-18T07:23:21Z</time>
      </trkpt>
      <trkpt lat="43.90589" lon="1.68633">
        <ele>237.58</ele>
        <time>2021-08-18T07:23:22Z</time>
      </trkpt>
      <trkpt lat="43.9059" lon="1.68632">
        <ele>237.58</ele>
        <time>2021-08-18T07:23:23Z</time>
      </trkpt>
      <trkpt lat="43.90597" lon="1.68623">
        <ele>235.66</ele>
        <time>2021-08-18T07:23:29Z</time>
      </trkpt>
      <trkpt lat="43.90598" lon="1.6862">
        <ele>235.66</ele>
        <time>2021-08-18T07:23:30Z</time>
      </trkpt>
      <trkpt lat="43.90607" lon="1.68607">
        <ele>232.78</ele>
        <time>2021-08-18T07:23:35Z</time>
      </trkpt>
      <trkpt lat="43.90613" lon="1.68595">
        <ele>231.33</ele>
        <time>2021-08-18T07:23:40Z</time>
      </trkpt>
      <trkpt lat="43.90613" lon="1.68591">
        <ele>230.85</ele>
        <time>2021-08-18T07:23:42Z</time>
      </trkpt>
      <trkpt lat="43.90611" lon="1.68589">
        <ele>230.85</ele>
        <time>2021-08-18T07:23:48Z</time>
      </trkpt>
      <trkpt lat="43.90611" lon="1.68589">
        <ele>230.85</ele>
        <time>2021-08-18T07:24:04Z</time>
      </trkpt>
      <trkpt lat="43.90612" lon="1.68588">
        <ele>230.85</ele>
        <time>2021-08-18T07:24:23Z</time>
      </trkpt>
      <trkpt lat="43.90608" lon="1.68583">
        <ele>228.93</ele>
        <time>2021-08-18T07:24:33Z</time>
      </trkpt>
      <trkpt lat="43.90602" lon="1.68579">
        <ele>226.05</ele>
        <time>2021-08-18T07:24:37Z</time>
      </trkpt>
      <trkpt lat="43.90593" lon="1.6857">
        <ele>221.72</ele>
        <time>2021-08-18T07:24:41Z</time>
      </trkpt>
      <trkpt lat="43.90586" lon="1.6856">
        <ele>218.36</ele>
        <time>2021-08-18T07:24:45Z</time>
      </trkpt>
      <trkpt lat="43.90577" lon="1.68547">
        <ele>214.99</ele>
        <time>2021-08-18T07:24:49Z</time>
      </trkpt>
      <trkpt lat="43.90569" lon="1.68531">
        <ele>212.11</ele>
        <time>2021-08-18T07:24:53Z</time>
      </trkpt>
      <trkpt lat="43.90559" lon="1.68514">
        <ele>208.26</ele>
        <time>2021-08-18T07:24:57Z</time>
      </trkpt>
      <trkpt lat="43.90547" lon="1.68495">
        <ele>205.38</ele>
        <time>2021-08-18T07:25:03Z</time>
      </trkpt>
      <trkpt lat="43.90536" lon="1.68484">
        <ele>203.46</ele>
        <time>2021-08-18T07:25:09Z</time>
      </trkpt>
      <trkpt lat="43.90525" lon="1.68473">
        <ele>200.57</ele>
        <time>2021-08-18T07:25:14Z</time>
      </trkpt>
      <trkpt lat="43.90512" lon="1.68461">
        <ele>196.73</ele>
        <time>2021-08-18T07:25:19Z</time>
      </trkpt>
      <trkpt lat="43.905" lon="1.68447">
        <ele>193.36</ele>
        <time>2021-08-18T07:25:23Z</time>
      </trkpt>
      <trkpt lat="43.90488" lon="1.68432">
        <ele>190.48</ele>
        <time>2021-08-18T07:25:27Z</time>
      </trkpt>
      <trkpt lat="43.90484" lon="1.68427">
        <ele>189.52</ele>
        <time>2021-08-18T07:25:28Z</time>
      </trkpt>
      <trkpt lat="43.90477" lon="1.68417">
        <ele>187.59</ele>
        <time>2021-08-18T07:25:30Z</time>
      </trkpt>
      <trkpt lat="43.90469" lon="1.68408">
        <ele>186.15</ele>
        <time>2021-08-18T07:25:32Z</time>
      </trkpt>
      <trkpt lat="43.9045" lon="1.68388">
        <ele>183.27</ele>
        <time>2021-08-18T07:25:37Z</time>
      </trkpt>
      <trkpt lat="43.9042" lon="1.68356">
        <ele>180.38</ele>
        <time>2021-08-18T07:25:44Z</time>
      </trkpt>
      <trkpt lat="43.90415" lon="1.68351">
        <ele>179.9</ele>
        <time>2021-08-18T07:25:45Z</time>
      </trkpt>
      <trkpt lat="43.90399" lon="1.68331">
        <ele>179.42</ele>
        <time>2021-08-18T07:25:49Z</time>
      </trkpt>
      <trkpt lat="43.90385" lon="1.68311">
        <ele>178.94</ele>
        <time>2021-08-18T07:25:55Z</time>
      </trkpt>
      <trkpt lat="43.90375" lon="1.68302">
        <ele>178.94</ele>
        <time>2021-08-18T07:25:59Z</time>
      </trkpt>
      <trkpt lat="43.90373" lon="1.68283">
        <ele>178.94</ele>
        <time>2021-08-18T07:26:06Z</time>
      </trkpt>
      <trkpt lat="43.90372" lon="1.68277">
        <ele>178.94</ele>
        <time>2021-08-18T07:26:10Z</time>
      </trkpt>
      <trkpt lat="43.90373" lon="1.68285">
        <ele>178.94</ele>
        <time>2021-08-18T07:26:16Z</time>
      </trkpt>
      <trkpt lat="43.90372" lon="1.68288">
        <ele>178.94</ele>
        <time>2021-08-18T07:26:17Z</time>
      </trkpt>
      <trkpt lat="43.9037" lon="1.68293">
        <ele>178.94</ele>
        <time>2021-08-18T07:26:19Z</time>
      </trkpt>
      <trkpt lat="43.90377" lon="1.68304">
        <ele>178.94</ele>
        <time>2021-08-18T07:26:24Z</time>
      </trkpt>
      <trkpt lat="43.90379" lon="1.68306">
        <ele>178.94</ele>
        <time>2021-08-18T07:26:25Z</time>
      </trkpt>
      <trkpt lat="43.90401" lon="1.68313">
        <ele>178.94</ele>
        <time>2021-08-18T07:26:33Z</time>
      </trkpt>
      <trkpt lat="43.90418" lon="1.68295">
        <ele>178.94</ele>
        <time>2021-08-18T07:26:39Z</time>
      </trkpt>
      <trkpt lat="43.90429" lon="1.68268">
        <ele>178.46</ele>
        <time>2021-08-18T07:26:45Z</time>
      </trkpt>
      <trkpt lat="43.90451" lon="1.68211">
        <ele>178.46</ele>
        <time>2021-08-18T07:26:55Z</time>
      </trkpt>
      <trkpt lat="43.90474" lon="1.68167">
        <ele>177.5</ele>
        <time>2021-08-18T07:27:04Z</time>
      </trkpt>
      <trkpt lat="43.90497" lon="1.68124">
        <ele>177.02</ele>
        <time>2021-08-18T07:27:12Z</time>
      </trkpt>
      <trkpt lat="43.90513" lon="1.68088">
        <ele>176.54</ele>
        <time>2021-08-18T07:27:19Z</time>
      </trkpt>
      <trkpt lat="43.90512" lon="1.68081">
        <ele>176.54</ele>
        <time>2021-08-18T07:27:21Z</time>
      </trkpt>
      <trkpt lat="43.9051" lon="1.68078">
        <ele>176.54</ele>
        <time>2021-08-18T07:27:22Z</time>
      </trkpt>
      <trkpt lat="43.90508" lon="1.68076">
        <ele>176.54</ele>
        <time>2021-08-18T07:27:23Z</time>
      </trkpt>
      <trkpt lat="43.90505" lon="1.68073">
        <ele>176.54</ele>
        <time>2021-08-18T07:27:24Z</time>
      </trkpt>
      <trkpt lat="43.90502" lon="1.68071">
        <ele>176.54</ele>
        <time>2021-08-18T07:27:25Z</time>
      </trkpt>
      <trkpt lat="43.905" lon="1.68068">
        <ele>176.54</ele>
        <time>2021-08-18T07:27:26Z</time>
      </trkpt>
      <trkpt lat="43.90497" lon="1.68065">
        <ele>176.54</ele>
        <time>2021-08-18T07:27:27Z</time>
      </trkpt>
      <trkpt lat="43.90488" lon="1.68045">
        <ele>177.98</ele>
        <time>2021-08-18T07:27:32Z</time>
      </trkpt>
      <trkpt lat="43.9049" lon="1.68025">
        <ele>179.9</ele>
        <time>2021-08-18T07:27:38Z</time>
      </trkpt>
      <trkpt lat="43.90504" lon="1.67998">
        <ele>179.9</ele>
        <time>2021-08-18T07:27:46Z</time>
      </trkpt>
      <trkpt lat="43.90523" lon="1.67965">
        <ele>179.42</ele>
        <time>2021-08-18T07:27:53Z</time>
      </trkpt>
      <trkpt lat="43.90544" lon="1.67912">
        <ele>178.46</ele>
        <time>2021-08-18T07:28:03Z</time>
      </trkpt>
      <trkpt lat="43.90561" lon="1.67856">
        <ele>177.98</ele>
        <time>2021-08-18T07:28:11Z</time>
      </trkpt>
      <trkpt lat="43.9058" lon="1.67788">
        <ele>177.98</ele>
        <time>2021-08-18T07:28:21Z</time>
      </trkpt>
      <trkpt lat="43.90583" lon="1.67774">
        <ele>177.98</ele>
        <time>2021-08-18T07:28:23Z</time>
      </trkpt>
      <trkpt lat="43.90583" lon="1.67766">
        <ele>177.5</ele>
        <time>2021-08-18T07:28:24Z</time>
      </trkpt>
      <trkpt lat="43.90583" lon="1.67759">
        <ele>177.98</ele>
        <time>2021-08-18T07:28:25Z</time>
      </trkpt>
      <trkpt lat="43.90583" lon="1.67752">
        <ele>177.5</ele>
        <time>2021-08-18T07:28:26Z</time>
      </trkpt>
      <trkpt lat="43.90582" lon="1.67745">
        <ele>177.5</ele>
        <time>2021-08-18T07:28:27Z</time>
      </trkpt>
      <trkpt lat="43.9058" lon="1.67739">
        <ele>177.5</ele>
        <time>2021-08-18T07:28:28Z</time>
      </trkpt>
      <trkpt lat="43.90579" lon="1.67733">
        <ele>177.5</ele>
        <time>2021-08-18T07:28:29Z</time>
      </trkpt>
      <trkpt lat="43.90566" lon="1.67701">
        <ele>179.9</ele>
        <time>2021-08-18T07:28:36Z</time>
      </trkpt>
      <trkpt lat="43.90547" lon="1.67676">
        <ele>181.35</ele>
        <time>2021-08-18T07:28:45Z</time>
      </trkpt>
      <trkpt lat="43.90538" lon="1.67659">
        <ele>182.31</ele>
        <time>2021-08-18T07:28:53Z</time>
      </trkpt>
      <trkpt lat="43.90528" lon="1.67642">
        <ele>183.75</ele>
        <time>2021-08-18T07:29:02Z</time>
      </trkpt>
      <trkpt lat="43.90519" lon="1.67624">
        <ele>185.19</ele>
        <time>2021-08-18T07:29:11Z</time>
      </trkpt>
      <trkpt lat="43.90511" lon="1.67609">
        <ele>186.63</ele>
        <time>2021-08-18T07:29:20Z</time>
      </trkpt>
      <trkpt lat="43.90508" lon="1.67604">
        <ele>187.11</ele>
        <time>2021-08-18T07:29:23Z</time>
      </trkpt>
      <trkpt lat="43.90507" lon="1.67602">
        <ele>187.11</ele>
        <time>2021-08-18T07:29:24Z</time>
      </trkpt>
      <trkpt lat="43.90506" lon="1.67601">
        <ele>187.59</ele>
        <time>2021-08-18T07:29:25Z</time>
      </trkpt>
      <trkpt lat="43.90506" lon="1.67599">
        <ele>187.59</ele>
        <time>2021-08-18T07:29:26Z</time>
      </trkpt>
      <trkpt lat="43.90505" lon="1.67597">
        <ele>187.59</ele>
        <time>2021-08-18T07:29:27Z</time>
      </trkpt>
      <trkpt lat="43.90505" lon="1.67595">
        <ele>188.08</ele>
        <time>2021-08-18T07:29:28Z</time>
      </trkpt>
      <trkpt lat="43.90504" lon="1.67593">
        <ele>188.08</ele>
        <time>2021-08-18T07:29:29Z</time>
      </trkpt>
      <trkpt lat="43.90504" lon="1.67592">
        <ele>188.56</ele>
        <time>2021-08-18T07:29:30Z</time>
      </trkpt>
      <trkpt lat="43.90503" lon="1.67591">
        <ele>188.56</ele>
        <time>2021-08-18T07:29:31Z</time>
      </trkpt>
      <trkpt lat="43.90502" lon="1.6759">
        <ele>188.56</ele>
        <time>2021-08-18T07:29:32Z</time>
      </trkpt>
      <trkpt lat="43.90501" lon="1.67588">
        <ele>189.04</ele>
        <time>2021-08-18T07:29:33Z</time>
      </trkpt>
      <trkpt lat="43.90501" lon="1.67587">
        <ele>189.04</ele>
        <time>2021-08-18T07:29:34Z</time>
      </trkpt>
      <trkpt lat="43.905" lon="1.67585">
        <ele>189.52</ele>
        <time>2021-08-18T07:29:35Z</time>
      </trkpt>
      <trkpt lat="43.90491" lon="1.67571">
        <ele>190.96</ele>
        <time>2021-08-18T07:29:44Z</time>
      </trkpt>
      <trkpt lat="43.90483" lon="1.67558">
        <ele>192.4</ele>
        <time>2021-08-18T07:29:52Z</time>
      </trkpt>
      <trkpt lat="43.90475" lon="1.67544">
        <ele>193.84</ele>
        <time>2021-08-18T07:30:01Z</time>
      </trkpt>
      <trkpt lat="43.90467" lon="1.67528">
        <ele>195.28</ele>
        <time>2021-08-18T07:30:10Z</time>
      </trkpt>
      <trkpt lat="43.90458" lon="1.67502">
        <ele>197.21</ele>
        <time>2021-08-18T07:30:22Z</time>
      </trkpt>
      <trkpt lat="43.90454" lon="1.67474">
        <ele>197.69</ele>
        <time>2021-08-18T07:30:32Z</time>
      </trkpt>
      <trkpt lat="43.90452" lon="1.6745">
        <ele>197.69</ele>
        <time>2021-08-18T07:30:38Z</time>
      </trkpt>
      <trkpt lat="43.90451" lon="1.67444">
        <ele>196.73</ele>
        <time>2021-08-18T07:30:39Z</time>
      </trkpt>
      <trkpt lat="43.90449" lon="1.67439">
        <ele>196.25</ele>
        <time>2021-08-18T07:30:40Z</time>
      </trkpt>
      <trkpt lat="43.90439" lon="1.67412">
        <ele>194.8</ele>
        <time>2021-08-18T07:30:44Z</time>
      </trkpt>
      <trkpt lat="43.90426" lon="1.6738">
        <ele>192.4</ele>
        <time>2021-08-18T07:30:48Z</time>
      </trkpt>
      <trkpt lat="43.9042" lon="1.67373">
        <ele>191.92</ele>
        <time>2021-08-18T07:30:49Z</time>
      </trkpt>
      <trkpt lat="43.90415" lon="1.67366">
        <ele>191.44</ele>
        <time>2021-08-18T07:30:50Z</time>
      </trkpt>
      <trkpt lat="43.90409" lon="1.67359">
        <ele>190.48</ele>
        <time>2021-08-18T07:30:51Z</time>
      </trkpt>
      <trkpt lat="43.90403" lon="1.67353">
        <ele>190</ele>
        <time>2021-08-18T07:30:52Z</time>
      </trkpt>
      <trkpt lat="43.90358" lon="1.67314">
        <ele>187.11</ele>
        <time>2021-08-18T07:30:59Z</time>
      </trkpt>
      <trkpt lat="43.90347" lon="1.67305">
        <ele>186.63</ele>
        <time>2021-08-18T07:31:01Z</time>
      </trkpt>
      <trkpt lat="43.90343" lon="1.67298">
        <ele>186.15</ele>
        <time>2021-08-18T07:31:02Z</time>
      </trkpt>
      <trkpt lat="43.9034" lon="1.6729">
        <ele>185.19</ele>
        <time>2021-08-18T07:31:03Z</time>
      </trkpt>
      <trkpt lat="43.90338" lon="1.6728">
        <ele>184.23</ele>
        <time>2021-08-18T07:31:04Z</time>
      </trkpt>
      <trkpt lat="43.90339" lon="1.67269">
        <ele>183.75</ele>
        <time>2021-08-18T07:31:05Z</time>
      </trkpt>
      <trkpt lat="43.9034" lon="1.67259">
        <ele>182.79</ele>
        <time>2021-08-18T07:31:06Z</time>
      </trkpt>
      <trkpt lat="43.90342" lon="1.67248">
        <ele>182.31</ele>
        <time>2021-08-18T07:31:07Z</time>
      </trkpt>
      <trkpt lat="43.90344" lon="1.67237">
        <ele>181.35</ele>
        <time>2021-08-18T07:31:08Z</time>
      </trkpt>
      <trkpt lat="43.90344" lon="1.67225">
        <ele>180.38</ele>
        <time>2021-08-18T07:31:09Z</time>
      </trkpt>
      <trkpt lat="43.90343" lon="1.67213">
        <ele>179.9</ele>
        <time>2021-08-18T07:31:10Z</time>
      </trkpt>
      <trkpt lat="43.9034" lon="1.67201">
        <ele>179.9</ele>
        <time>2021-08-18T07:31:11Z</time>
      </trkpt>
      <trkpt lat="43.90336" lon="1.6719">
        <ele>179.9</ele>
        <time>2021-08-18T07:31:12Z</time>
      </trkpt>
      <trkpt lat="43.90331" lon="1.67169">
        <ele>179.9</ele>
        <time>2021-08-18T07:31:14Z</time>
      </trkpt>
      <trkpt lat="43.9033" lon="1.6716">
        <ele>179.9</ele>
        <time>2021-08-18T07:31:15Z</time>
      </trkpt>
      <trkpt lat="43.9033" lon="1.67152">
        <ele>181.83</ele>
        <time>2021-08-18T07:31:16Z</time>
      </trkpt>
      <trkpt lat="43.9033" lon="1.67145">
        <ele>182.79</ele>
        <time>2021-08-18T07:31:17Z</time>
      </trkpt>
      <trkpt lat="43.90331" lon="1.67139">
        <ele>183.27</ele>
        <time>2021-08-18T07:31:18Z</time>
      </trkpt>
      <trkpt lat="43.90332" lon="1.67134">
        <ele>183.75</ele>
        <time>2021-08-18T07:31:19Z</time>
      </trkpt>
      <trkpt lat="43.90333" lon="1.6713">
        <ele>184.71</ele>
        <time>2021-08-18T07:31:20Z</time>
      </trkpt>
      <trkpt lat="43.90334" lon="1.67127">
        <ele>184.71</ele>
        <time>2021-08-18T07:31:21Z</time>
      </trkpt>
      <trkpt lat="43.90334" lon="1.67125">
        <ele>185.19</ele>
        <time>2021-08-18T07:31:22Z</time>
      </trkpt>
      <trkpt lat="43.90338" lon="1.67109">
        <ele>186.63</ele>
        <time>2021-08-18T07:31:30Z</time>
      </trkpt>
      <trkpt lat="43.90341" lon="1.671">
        <ele>187.11</ele>
        <time>2021-08-18T07:31:35Z</time>
      </trkpt>
      <trkpt lat="43.90348" lon="1.67086">
        <ele>188.56</ele>
        <time>2021-08-18T07:31:42Z</time>
      </trkpt>
      <trkpt lat="43.90359" lon="1.6707">
        <ele>189.52</ele>
        <time>2021-08-18T07:31:51Z</time>
      </trkpt>
      <trkpt lat="43.90368" lon="1.67051">
        <ele>190.96</ele>
        <time>2021-08-18T07:32:00Z</time>
      </trkpt>
      <trkpt lat="43.90368" lon="1.67037">
        <ele>192.4</ele>
        <time>2021-08-18T07:32:07Z</time>
      </trkpt>
      <trkpt lat="43.90362" lon="1.6702">
        <ele>193.84</ele>
        <time>2021-08-18T07:32:16Z</time>
      </trkpt>
      <trkpt lat="43.90355" lon="1.67004">
        <ele>195.28</ele>
        <time>2021-08-18T07:32:24Z</time>
      </trkpt>
      <trkpt lat="43.90351" lon="1.66985">
        <ele>196.73</ele>
        <time>2021-08-18T07:32:32Z</time>
      </trkpt>
      <trkpt lat="43.90352" lon="1.66961">
        <ele>197.69</ele>
        <time>2021-08-18T07:32:41Z</time>
      </trkpt>
      <trkpt lat="43.90356" lon="1.66944">
        <ele>199.13</ele>
        <time>2021-08-18T07:32:49Z</time>
      </trkpt>
      <trkpt lat="43.90359" lon="1.66927">
        <ele>200.57</ele>
        <time>2021-08-18T07:32:58Z</time>
      </trkpt>
      <trkpt lat="43.90361" lon="1.66911">
        <ele>201.53</ele>
        <time>2021-08-18T07:33:06Z</time>
      </trkpt>
      <trkpt lat="43.90363" lon="1.66889">
        <ele>202.98</ele>
        <time>2021-08-18T07:33:15Z</time>
      </trkpt>
      <trkpt lat="43.90369" lon="1.66871">
        <ele>203.94</ele>
        <time>2021-08-18T07:33:24Z</time>
      </trkpt>
      <trkpt lat="43.90374" lon="1.66857">
        <ele>205.38</ele>
        <time>2021-08-18T07:33:30Z</time>
      </trkpt>
      <trkpt lat="43.90384" lon="1.66833">
        <ele>206.82</ele>
        <time>2021-08-18T07:33:40Z</time>
      </trkpt>
      <trkpt lat="43.90393" lon="1.66815">
        <ele>208.26</ele>
        <time>2021-08-18T07:33:49Z</time>
      </trkpt>
      <trkpt lat="43.90407" lon="1.66795">
        <ele>209.22</ele>
        <time>2021-08-18T07:33:59Z</time>
      </trkpt>
      <trkpt lat="43.90418" lon="1.66777">
        <ele>210.19</ele>
        <time>2021-08-18T07:34:07Z</time>
      </trkpt>
      <trkpt lat="43.9042" lon="1.66757">
        <ele>211.63</ele>
        <time>2021-08-18T07:34:15Z</time>
      </trkpt>
      <trkpt lat="43.90415" lon="1.66745">
        <ele>213.07</ele>
        <time>2021-08-18T07:34:21Z</time>
      </trkpt>
      <trkpt lat="43.90414" lon="1.66744">
        <ele>213.07</ele>
        <time>2021-08-18T07:34:22Z</time>
      </trkpt>
      <trkpt lat="43.90412" lon="1.66744">
        <ele>213.07</ele>
        <time>2021-08-18T07:34:23Z</time>
      </trkpt>
      <trkpt lat="43.90411" lon="1.66745">
        <ele>214.03</ele>
        <time>2021-08-18T07:34:24Z</time>
      </trkpt>
      <trkpt lat="43.90409" lon="1.66745">
        <ele>214.03</ele>
        <time>2021-08-18T07:34:25Z</time>
      </trkpt>
      <trkpt lat="43.90407" lon="1.66746">
        <ele>214.03</ele>
        <time>2021-08-18T07:34:26Z</time>
      </trkpt>
      <trkpt lat="43.90406" lon="1.66746">
        <ele>214.03</ele>
        <time>2021-08-18T07:34:27Z</time>
      </trkpt>
      <trkpt lat="43.90404" lon="1.66747">
        <ele>214.03</ele>
        <time>2021-08-18T07:34:28Z</time>
      </trkpt>
      <trkpt lat="43.90387" lon="1.66756">
        <ele>215.95</ele>
        <time>2021-08-18T07:34:39Z</time>
      </trkpt>
      <trkpt lat="43.90375" lon="1.66758">
        <ele>217.4</ele>
        <time>2021-08-18T07:34:47Z</time>
      </trkpt>
      <trkpt lat="43.90361" lon="1.66758">
        <ele>219.32</ele>
        <time>2021-08-18T07:34:56Z</time>
      </trkpt>
      <trkpt lat="43.90347" lon="1.66758">
        <ele>221.72</ele>
        <time>2021-08-18T07:35:05Z</time>
      </trkpt>
      <trkpt lat="43.90329" lon="1.66757">
        <ele>224.12</ele>
        <time>2021-08-18T07:35:17Z</time>
      </trkpt>
      <trkpt lat="43.90315" lon="1.66754">
        <ele>226.05</ele>
        <time>2021-08-18T07:35:27Z</time>
      </trkpt>
      <trkpt lat="43.90301" lon="1.66749">
        <ele>227.97</ele>
        <time>2021-08-18T07:35:36Z</time>
      </trkpt>
      <trkpt lat="43.90288" lon="1.66744">
        <ele>229.89</ele>
        <time>2021-08-18T07:35:45Z</time>
      </trkpt>
      <trkpt lat="43.90283" lon="1.66738">
        <ele>230.37</ele>
        <time>2021-08-18T07:35:49Z</time>
      </trkpt>
      <trkpt lat="43.90282" lon="1.66736">
        <ele>230.37</ele>
        <time>2021-08-18T07:35:50Z</time>
      </trkpt>
      <trkpt lat="43.90282" lon="1.66734">
        <ele>230.37</ele>
        <time>2021-08-18T07:35:51Z</time>
      </trkpt>
      <trkpt lat="43.90283" lon="1.66732">
        <ele>230.37</ele>
        <time>2021-08-18T07:35:52Z</time>
      </trkpt>
      <trkpt lat="43.90284" lon="1.6673">
        <ele>230.85</ele>
        <time>2021-08-18T07:35:53Z</time>
      </trkpt>
      <trkpt lat="43.90285" lon="1.66728">
        <ele>230.85</ele>
        <time>2021-08-18T07:35:54Z</time>
      </trkpt>
      <trkpt lat="43.90302" lon="1.66708">
        <ele>232.3</ele>
        <time>2021-08-18T07:36:04Z</time>
      </trkpt>
      <trkpt lat="43.90323" lon="1.66693">
        <ele>232.3</ele>
        <time>2021-08-18T07:36:12Z</time>
      </trkpt>
      <trkpt lat="43.90339" lon="1.66682">
        <ele>230.85</ele>
        <time>2021-08-18T07:36:16Z</time>
      </trkpt>
      <trkpt lat="43.9036" lon="1.66663">
        <ele>227.49</ele>
        <time>2021-08-18T07:36:20Z</time>
      </trkpt>
      <trkpt lat="43.90399" lon="1.66624">
        <ele>226.05</ele>
        <time>2021-08-18T07:36:27Z</time>
      </trkpt>
      <trkpt lat="43.90404" lon="1.6662">
        <ele>226.05</ele>
        <time>2021-08-18T07:36:29Z</time>
      </trkpt>
      <trkpt lat="43.90406" lon="1.6662">
        <ele>226.05</ele>
        <time>2021-08-18T07:36:31Z</time>
      </trkpt>
      <trkpt lat="43.90403" lon="1.66618">
        <ele>226.05</ele>
        <time>2021-08-18T07:36:35Z</time>
      </trkpt>
      <trkpt lat="43.90389" lon="1.66631">
        <ele>226.05</ele>
        <time>2021-08-18T07:36:42Z</time>
      </trkpt>
      <trkpt lat="43.90378" lon="1.66642">
        <ele>227.49</ele>
        <time>2021-08-18T07:36:48Z</time>
      </trkpt>
      <trkpt lat="43.90363" lon="1.66652">
        <ele>227.97</ele>
        <time>2021-08-18T07:36:54Z</time>
      </trkpt>
      <trkpt lat="43.90346" lon="1.66672">
        <ele>228.93</ele>
        <time>2021-08-18T07:37:01Z</time>
      </trkpt>
      <trkpt lat="43.90322" lon="1.66691">
        <ele>231.81</ele>
        <time>2021-08-18T07:37:11Z</time>
      </trkpt>
      <trkpt lat="43.903" lon="1.66708">
        <ele>232.3</ele>
        <time>2021-08-18T07:37:19Z</time>
      </trkpt>
      <trkpt lat="43.90286" lon="1.66723">
        <ele>230.85</ele>
        <time>2021-08-18T07:37:23Z</time>
      </trkpt>
      <trkpt lat="43.90284" lon="1.66727">
        <ele>230.85</ele>
        <time>2021-08-18T07:37:24Z</time>
      </trkpt>
      <trkpt lat="43.90283" lon="1.66732">
        <ele>230.85</ele>
        <time>2021-08-18T07:37:25Z</time>
      </trkpt>
      <trkpt lat="43.90283" lon="1.66737">
        <ele>230.85</ele>
        <time>2021-08-18T07:37:26Z</time>
      </trkpt>
      <trkpt lat="43.90285" lon="1.66741">
        <ele>230.37</ele>
        <time>2021-08-18T07:37:27Z</time>
      </trkpt>
      <trkpt lat="43.90288" lon="1.66744">
        <ele>229.89</ele>
        <time>2021-08-18T07:37:28Z</time>
      </trkpt>
      <trkpt lat="43.90292" lon="1.66747">
        <ele>229.41</ele>
        <time>2021-08-18T07:37:29Z</time>
      </trkpt>
      <trkpt lat="43.90298" lon="1.66749">
        <ele>228.45</ele>
        <time>2021-08-18T07:37:30Z</time>
      </trkpt>
      <trkpt lat="43.90318" lon="1.66754">
        <ele>224.61</ele>
        <time>2021-08-18T07:37:33Z</time>
      </trkpt>
      <trkpt lat="43.90348" lon="1.66757">
        <ele>220.28</ele>
        <time>2021-08-18T07:37:37Z</time>
      </trkpt>
      <trkpt lat="43.90377" lon="1.66757">
        <ele>216.43</ele>
        <time>2021-08-18T07:37:41Z</time>
      </trkpt>
      <trkpt lat="43.904" lon="1.66751">
        <ele>214.03</ele>
        <time>2021-08-18T07:37:45Z</time>
      </trkpt>
      <trkpt lat="43.90404" lon="1.66748">
        <ele>214.03</ele>
        <time>2021-08-18T07:37:46Z</time>
      </trkpt>
      <trkpt lat="43.90408" lon="1.66746">
        <ele>213.55</ele>
        <time>2021-08-18T07:37:47Z</time>
      </trkpt>
      <trkpt lat="43.90411" lon="1.66744">
        <ele>213.55</ele>
        <time>2021-08-18T07:37:48Z</time>
      </trkpt>
      <trkpt lat="43.90415" lon="1.66745">
        <ele>212.59</ele>
        <time>2021-08-18T07:37:49Z</time>
      </trkpt>
      <trkpt lat="43.90418" lon="1.66749">
        <ele>212.11</ele>
        <time>2021-08-18T07:37:50Z</time>
      </trkpt>
      <trkpt lat="43.9042" lon="1.66754">
        <ele>211.63</ele>
        <time>2021-08-18T07:37:51Z</time>
      </trkpt>
      <trkpt lat="43.90421" lon="1.66761">
        <ele>210.67</ele>
        <time>2021-08-18T07:37:52Z</time>
      </trkpt>
      <trkpt lat="43.90421" lon="1.66768">
        <ele>210.19</ele>
        <time>2021-08-18T07:37:53Z</time>
      </trkpt>
      <trkpt lat="43.90419" lon="1.66777">
        <ele>209.22</ele>
        <time>2021-08-18T07:37:54Z</time>
      </trkpt>
      <trkpt lat="43.90415" lon="1.66784">
        <ele>208.74</ele>
        <time>2021-08-18T07:37:55Z</time>
      </trkpt>
      <trkpt lat="43.90409" lon="1.6679">
        <ele>208.74</ele>
        <time>2021-08-18T07:37:56Z</time>
      </trkpt>
      <trkpt lat="43.90404" lon="1.66796">
        <ele>208.26</ele>
        <time>2021-08-18T07:37:57Z</time>
      </trkpt>
      <trkpt lat="43.90399" lon="1.66803">
        <ele>207.78</ele>
        <time>2021-08-18T07:37:58Z</time>
      </trkpt>
      <trkpt lat="43.90394" lon="1.66811">
        <ele>206.82</ele>
        <time>2021-08-18T07:37:59Z</time>
      </trkpt>
      <trkpt lat="43.90373" lon="1.66856">
        <ele>203.46</ele>
        <time>2021-08-18T07:38:04Z</time>
      </trkpt>
      <trkpt lat="43.90368" lon="1.66865">
        <ele>202.49</ele>
        <time>2021-08-18T07:38:05Z</time>
      </trkpt>
      <trkpt lat="43.90365" lon="1.66875">
        <ele>202.01</ele>
        <time>2021-08-18T07:38:06Z</time>
      </trkpt>
      <trkpt lat="43.90362" lon="1.66886">
        <ele>201.05</ele>
        <time>2021-08-18T07:38:07Z</time>
      </trkpt>
      <trkpt lat="43.9036" lon="1.66898">
        <ele>200.57</ele>
        <time>2021-08-18T07:38:08Z</time>
      </trkpt>
      <trkpt lat="43.90359" lon="1.66909">
        <ele>199.61</ele>
        <time>2021-08-18T07:38:09Z</time>
      </trkpt>
      <trkpt lat="43.90355" lon="1.66931">
        <ele>198.17</ele>
        <time>2021-08-18T07:38:11Z</time>
      </trkpt>
      <trkpt lat="43.90353" lon="1.66941">
        <ele>197.21</ele>
        <time>2021-08-18T07:38:12Z</time>
      </trkpt>
      <trkpt lat="43.90348" lon="1.66962">
        <ele>195.77</ele>
        <time>2021-08-18T07:38:14Z</time>
      </trkpt>
      <trkpt lat="43.90347" lon="1.66973">
        <ele>195.28</ele>
        <time>2021-08-18T07:38:15Z</time>
      </trkpt>
      <trkpt lat="43.90349" lon="1.66984">
        <ele>194.32</ele>
        <time>2021-08-18T07:38:16Z</time>
      </trkpt>
      <trkpt lat="43.90352" lon="1.66994">
        <ele>193.84</ele>
        <time>2021-08-18T07:38:17Z</time>
      </trkpt>
      <trkpt lat="43.90357" lon="1.67003">
        <ele>192.88</ele>
        <time>2021-08-18T07:38:18Z</time>
      </trkpt>
      <trkpt lat="43.90363" lon="1.67011">
        <ele>192.4</ele>
        <time>2021-08-18T07:38:19Z</time>
      </trkpt>
      <trkpt lat="43.90367" lon="1.67019">
        <ele>191.44</ele>
        <time>2021-08-18T07:38:20Z</time>
      </trkpt>
      <trkpt lat="43.9037" lon="1.67029">
        <ele>190.48</ele>
        <time>2021-08-18T07:38:21Z</time>
      </trkpt>
      <trkpt lat="43.9037" lon="1.6704">
        <ele>189.52</ele>
        <time>2021-08-18T07:38:22Z</time>
      </trkpt>
      <trkpt lat="43.90368" lon="1.67052">
        <ele>189.04</ele>
        <time>2021-08-18T07:38:23Z</time>
      </trkpt>
      <trkpt lat="43.90364" lon="1.67062">
        <ele>188.08</ele>
        <time>2021-08-18T07:38:24Z</time>
      </trkpt>
      <trkpt lat="43.90358" lon="1.67072">
        <ele>187.11</ele>
        <time>2021-08-18T07:38:25Z</time>
      </trkpt>
      <trkpt lat="43.90352" lon="1.67082">
        <ele>186.63</ele>
        <time>2021-08-18T07:38:26Z</time>
      </trkpt>
      <trkpt lat="43.90341" lon="1.67101">
        <ele>184.23</ele>
        <time>2021-08-18T07:38:28Z</time>
      </trkpt>
      <trkpt lat="43.90337" lon="1.67113">
        <ele>183.27</ele>
        <time>2021-08-18T07:38:29Z</time>
      </trkpt>
      <trkpt lat="43.90333" lon="1.67126">
        <ele>182.79</ele>
        <time>2021-08-18T07:38:30Z</time>
      </trkpt>
      <trkpt lat="43.9033" lon="1.67138">
        <ele>181.35</ele>
        <time>2021-08-18T07:38:31Z</time>
      </trkpt>
      <trkpt lat="43.90329" lon="1.67151">
        <ele>180.87</ele>
        <time>2021-08-18T07:38:32Z</time>
      </trkpt>
      <trkpt lat="43.9033" lon="1.67165">
        <ele>179.42</ele>
        <time>2021-08-18T07:38:33Z</time>
      </trkpt>
      <trkpt lat="43.90334" lon="1.6718">
        <ele>178.46</ele>
        <time>2021-08-18T07:38:34Z</time>
      </trkpt>
      <trkpt lat="43.90338" lon="1.67194">
        <ele>177.98</ele>
        <time>2021-08-18T07:38:35Z</time>
      </trkpt>
      <trkpt lat="43.90341" lon="1.67208">
        <ele>177.98</ele>
        <time>2021-08-18T07:38:36Z</time>
      </trkpt>
      <trkpt lat="43.90343" lon="1.67222">
        <ele>177.98</ele>
        <time>2021-08-18T07:38:37Z</time>
      </trkpt>
      <trkpt lat="43.90343" lon="1.67235">
        <ele>177.98</ele>
        <time>2021-08-18T07:38:38Z</time>
      </trkpt>
      <trkpt lat="43.90341" lon="1.67246">
        <ele>179.42</ele>
        <time>2021-08-18T07:38:39Z</time>
      </trkpt>
      <trkpt lat="43.9034" lon="1.67255">
        <ele>180.38</ele>
        <time>2021-08-18T07:38:40Z</time>
      </trkpt>
      <trkpt lat="43.90335" lon="1.67282">
        <ele>182.79</ele>
        <time>2021-08-18T07:38:44Z</time>
      </trkpt>
      <trkpt lat="43.90337" lon="1.6729">
        <ele>183.75</ele>
        <time>2021-08-18T07:38:46Z</time>
      </trkpt>
      <trkpt lat="43.90348" lon="1.67308">
        <ele>185.19</ele>
        <time>2021-08-18T07:38:53Z</time>
      </trkpt>
      <trkpt lat="43.90362" lon="1.67319">
        <ele>186.63</ele>
        <time>2021-08-18T07:39:00Z</time>
      </trkpt>
      <trkpt lat="43.90377" lon="1.67332">
        <ele>188.08</ele>
        <time>2021-08-18T07:39:08Z</time>
      </trkpt>
      <trkpt lat="43.90398" lon="1.67349">
        <ele>189.52</ele>
        <time>2021-08-18T07:39:17Z</time>
      </trkpt>
      <trkpt lat="43.90423" lon="1.67381">
        <ele>190.96</ele>
        <time>2021-08-18T07:39:29Z</time>
      </trkpt>
      <trkpt lat="43.90437" lon="1.67407">
        <ele>192.4</ele>
        <time>2021-08-18T07:39:37Z</time>
      </trkpt>
      <trkpt lat="43.90446" lon="1.67436">
        <ele>194.32</ele>
        <time>2021-08-18T07:39:45Z</time>
      </trkpt>
      <trkpt lat="43.90454" lon="1.67466">
        <ele>195.28</ele>
        <time>2021-08-18T07:39:53Z</time>
      </trkpt>
      <trkpt lat="43.90458" lon="1.67502">
        <ele>195.77</ele>
        <time>2021-08-18T07:40:01Z</time>
      </trkpt>
      <trkpt lat="43.90463" lon="1.67522">
        <ele>193.84</ele>
        <time>2021-08-18T07:40:04Z</time>
      </trkpt>
      <trkpt lat="43.90466" lon="1.6753">
        <ele>193.36</ele>
        <time>2021-08-18T07:40:05Z</time>
      </trkpt>
      <trkpt lat="43.9047" lon="1.67537">
        <ele>192.4</ele>
        <time>2021-08-18T07:40:06Z</time>
      </trkpt>
      <trkpt lat="43.90484" lon="1.67562">
        <ele>189.04</ele>
        <time>2021-08-18T07:40:09Z</time>
      </trkpt>
      <trkpt lat="43.90502" lon="1.67594">
        <ele>184.71</ele>
        <time>2021-08-18T07:40:12Z</time>
      </trkpt>
      <trkpt lat="43.90522" lon="1.67632">
        <ele>180.38</ele>
        <time>2021-08-18T07:40:15Z</time>
      </trkpt>
      <trkpt lat="43.90536" lon="1.67659">
        <ele>177.02</ele>
        <time>2021-08-18T07:40:17Z</time>
      </trkpt>
      <trkpt lat="43.90569" lon="1.67708">
        <ele>174.14</ele>
        <time>2021-08-18T07:40:21Z</time>
      </trkpt>
      <trkpt lat="43.90576" lon="1.67723">
        <ele>173.17</ele>
        <time>2021-08-18T07:40:22Z</time>
      </trkpt>
      <trkpt lat="43.9058" lon="1.67736">
        <ele>173.17</ele>
        <time>2021-08-18T07:40:23Z</time>
      </trkpt>
      <trkpt lat="43.90584" lon="1.67752">
        <ele>173.66</ele>
        <time>2021-08-18T07:40:24Z</time>
      </trkpt>
      <trkpt lat="43.90585" lon="1.67765">
        <ele>172.69</ele>
        <time>2021-08-18T07:40:25Z</time>
      </trkpt>
      <trkpt lat="43.90583" lon="1.67779">
        <ele>172.21</ele>
        <time>2021-08-18T07:40:26Z</time>
      </trkpt>
      <trkpt lat="43.9058" lon="1.67792">
        <ele>173.17</ele>
        <time>2021-08-18T07:40:27Z</time>
      </trkpt>
      <trkpt lat="43.90577" lon="1.67804">
        <ele>173.17</ele>
        <time>2021-08-18T07:40:28Z</time>
      </trkpt>
      <trkpt lat="43.90554" lon="1.67876">
        <ele>173.17</ele>
        <time>2021-08-18T07:40:35Z</time>
      </trkpt>
      <trkpt lat="43.90541" lon="1.67918">
        <ele>174.62</ele>
        <time>2021-08-18T07:40:40Z</time>
      </trkpt>
      <trkpt lat="43.90519" lon="1.6797">
        <ele>175.58</ele>
        <time>2021-08-18T07:40:48Z</time>
      </trkpt>
      <trkpt lat="43.90509" lon="1.67988">
        <ele>176.06</ele>
        <time>2021-08-18T07:40:51Z</time>
      </trkpt>
      <trkpt lat="43.90491" lon="1.6802">
        <ele>175.58</ele>
        <time>2021-08-18T07:40:57Z</time>
      </trkpt>
      <trkpt lat="43.90489" lon="1.68027">
        <ele>175.58</ele>
        <time>2021-08-18T07:40:58Z</time>
      </trkpt>
      <trkpt lat="43.90488" lon="1.68034">
        <ele>175.58</ele>
        <time>2021-08-18T07:40:59Z</time>
      </trkpt>
      <trkpt lat="43.90488" lon="1.68041">
        <ele>175.58</ele>
        <time>2021-08-18T07:41:00Z</time>
      </trkpt>
      <trkpt lat="43.9049" lon="1.68048">
        <ele>174.62</ele>
        <time>2021-08-18T07:41:01Z</time>
      </trkpt>
      <trkpt lat="43.90492" lon="1.68054">
        <ele>173.66</ele>
        <time>2021-08-18T07:41:02Z</time>
      </trkpt>
      <trkpt lat="43.90496" lon="1.6806">
        <ele>173.66</ele>
        <time>2021-08-18T07:41:03Z</time>
      </trkpt>
      <trkpt lat="43.905" lon="1.68065">
        <ele>173.17</ele>
        <time>2021-08-18T07:41:04Z</time>
      </trkpt>
      <trkpt lat="43.90505" lon="1.6807">
        <ele>173.17</ele>
        <time>2021-08-18T07:41:05Z</time>
      </trkpt>
      <trkpt lat="43.9051" lon="1.68074">
        <ele>173.17</ele>
        <time>2021-08-18T07:41:06Z</time>
      </trkpt>
      <trkpt lat="43.90514" lon="1.68077">
        <ele>173.17</ele>
        <time>2021-08-18T07:41:07Z</time>
      </trkpt>
      <trkpt lat="43.90516" lon="1.68082">
        <ele>173.17</ele>
        <time>2021-08-18T07:41:08Z</time>
      </trkpt>
      <trkpt lat="43.90516" lon="1.68088">
        <ele>173.17</ele>
        <time>2021-08-18T07:41:09Z</time>
      </trkpt>
      <trkpt lat="43.90513" lon="1.68098">
        <ele>173.17</ele>
        <time>2021-08-18T07:41:11Z</time>
      </trkpt>
      <trkpt lat="43.90492" lon="1.68137">
        <ele>173.17</ele>
        <time>2021-08-18T07:41:20Z</time>
      </trkpt>
      <trkpt lat="43.90465" lon="1.68187">
        <ele>173.17</ele>
        <time>2021-08-18T07:41:31Z</time>
      </trkpt>
      <trkpt lat="43.9046" lon="1.68194">
        <ele>174.14</ele>
        <time>2021-08-18T07:41:33Z</time>
      </trkpt>
      <trkpt lat="43.90443" lon="1.68236">
        <ele>174.14</ele>
        <time>2021-08-18T07:41:41Z</time>
      </trkpt>
      <trkpt lat="43.90426" lon="1.68284">
        <ele>175.1</ele>
        <time>2021-08-18T07:41:50Z</time>
      </trkpt>
      <trkpt lat="43.90412" lon="1.68305">
        <ele>175.1</ele>
        <time>2021-08-18T07:41:55Z</time>
      </trkpt>
      <trkpt lat="43.90394" lon="1.68313">
        <ele>175.1</ele>
        <time>2021-08-18T07:42:00Z</time>
      </trkpt>
      <trkpt lat="43.90388" lon="1.68315">
        <ele>175.1</ele>
        <time>2021-08-18T07:42:03Z</time>
      </trkpt>
      <trkpt lat="43.90391" lon="1.68321">
        <ele>174.62</ele>
        <time>2021-08-18T07:42:06Z</time>
      </trkpt>
      <trkpt lat="43.90409" lon="1.68343">
        <ele>174.62</ele>
        <time>2021-08-18T07:42:14Z</time>
      </trkpt>
      <trkpt lat="43.90424" lon="1.6836">
        <ele>176.06</ele>
        <time>2021-08-18T07:42:22Z</time>
      </trkpt>
      <trkpt lat="43.90436" lon="1.68373">
        <ele>177.02</ele>
        <time>2021-08-18T07:42:29Z</time>
      </trkpt>
      <trkpt lat="43.90444" lon="1.68381">
        <ele>178.46</ele>
        <time>2021-08-18T07:42:35Z</time>
      </trkpt>
      <trkpt lat="43.90448" lon="1.68385">
        <ele>178.46</ele>
        <time>2021-08-18T07:42:42Z</time>
      </trkpt>
      <trkpt lat="43.90455" lon="1.68392">
        <ele>179.9</ele>
        <time>2021-08-18T07:42:49Z</time>
      </trkpt>
      <trkpt lat="43.90465" lon="1.68403">
        <ele>180.87</ele>
        <time>2021-08-18T07:42:58Z</time>
      </trkpt>
      <trkpt lat="43.90472" lon="1.68409">
        <ele>182.31</ele>
        <time>2021-08-18T07:43:06Z</time>
      </trkpt>
      <trkpt lat="43.90478" lon="1.68416">
        <ele>183.27</ele>
        <time>2021-08-18T07:43:15Z</time>
      </trkpt>
      <trkpt lat="43.90483" lon="1.68424">
        <ele>184.71</ele>
        <time>2021-08-18T07:43:24Z</time>
      </trkpt>
      <trkpt lat="43.9049" lon="1.68433">
        <ele>186.63</ele>
        <time>2021-08-18T07:43:34Z</time>
      </trkpt>
      <trkpt lat="43.90497" lon="1.68442">
        <ele>188.08</ele>
        <time>2021-08-18T07:43:44Z</time>
      </trkpt>
      <trkpt lat="43.90501" lon="1.68449">
        <ele>189.04</ele>
        <time>2021-08-18T07:43:52Z</time>
      </trkpt>
      <trkpt lat="43.90507" lon="1.68454">
        <ele>190</ele>
        <time>2021-08-18T07:44:01Z</time>
      </trkpt>
      <trkpt lat="43.90513" lon="1.68461">
        <ele>191.92</ele>
        <time>2021-08-18T07:44:10Z</time>
      </trkpt>
      <trkpt lat="43.90519" lon="1.68466">
        <ele>193.84</ele>
        <time>2021-08-18T07:44:21Z</time>
      </trkpt>
      <trkpt lat="43.90523" lon="1.6847">
        <ele>194.8</ele>
        <time>2021-08-18T07:44:30Z</time>
      </trkpt>
      <trkpt lat="43.90529" lon="1.68476">
        <ele>196.25</ele>
        <time>2021-08-18T07:44:40Z</time>
      </trkpt>
      <trkpt lat="43.90535" lon="1.68482">
        <ele>198.17</ele>
        <time>2021-08-18T07:44:51Z</time>
      </trkpt>
      <trkpt lat="43.90536" lon="1.68482">
        <ele>198.65</ele>
        <time>2021-08-18T07:44:59Z</time>
      </trkpt>
      <trkpt lat="43.90541" lon="1.68487">
        <ele>199.61</ele>
        <time>2021-08-18T07:45:07Z</time>
      </trkpt>
      <trkpt lat="43.90545" lon="1.6849">
        <ele>200.57</ele>
        <time>2021-08-18T07:45:13Z</time>
      </trkpt>
      <trkpt lat="43.90551" lon="1.68499">
        <ele>202.01</ele>
        <time>2021-08-18T07:45:23Z</time>
      </trkpt>
      <trkpt lat="43.90558" lon="1.68511">
        <ele>203.46</ele>
        <time>2021-08-18T07:45:35Z</time>
      </trkpt>
      <trkpt lat="43.90563" lon="1.6852">
        <ele>205.38</ele>
        <time>2021-08-18T07:45:47Z</time>
      </trkpt>
      <trkpt lat="43.90562" lon="1.6852">
        <ele>205.38</ele>
        <time>2021-08-18T07:45:59Z</time>
      </trkpt>
      <trkpt lat="43.90565" lon="1.68525">
        <ele>206.34</ele>
        <time>2021-08-18T07:46:07Z</time>
      </trkpt>
      <trkpt lat="43.9057" lon="1.68535">
        <ele>208.26</ele>
        <time>2021-08-18T07:46:17Z</time>
      </trkpt>
      <trkpt lat="43.90574" lon="1.68543">
        <ele>209.7</ele>
        <time>2021-08-18T07:46:27Z</time>
      </trkpt>
      <trkpt lat="43.90577" lon="1.68547">
        <ele>210.67</ele>
        <time>2021-08-18T07:46:34Z</time>
      </trkpt>
      <trkpt lat="43.90578" lon="1.68548">
        <ele>211.15</ele>
        <time>2021-08-18T07:46:36Z</time>
      </trkpt>
      <trkpt lat="43.90579" lon="1.68548">
        <ele>212.11</ele>
        <time>2021-08-18T07:46:39Z</time>
      </trkpt>
      <trkpt lat="43.90585" lon="1.68558">
        <ele>213.55</ele>
        <time>2021-08-18T07:46:49Z</time>
      </trkpt>
      <trkpt lat="43.9059" lon="1.68564">
        <ele>215.47</ele>
        <time>2021-08-18T07:46:59Z</time>
      </trkpt>
      <trkpt lat="43.90593" lon="1.68566">
        <ele>215.95</ele>
        <time>2021-08-18T07:47:08Z</time>
      </trkpt>
      <trkpt lat="43.90598" lon="1.6857">
        <ele>218.84</ele>
        <time>2021-08-18T07:47:18Z</time>
      </trkpt>
      <trkpt lat="43.90601" lon="1.68574">
        <ele>220.28</ele>
        <time>2021-08-18T07:47:27Z</time>
      </trkpt>
      <trkpt lat="43.90603" lon="1.68577">
        <ele>221.72</ele>
        <time>2021-08-18T07:47:35Z</time>
      </trkpt>
      <trkpt lat="43.90609" lon="1.6858">
        <ele>224.12</ele>
        <time>2021-08-18T07:47:46Z</time>
      </trkpt>
      <trkpt lat="43.90612" lon="1.68584">
        <ele>224.61</ele>
        <time>2021-08-18T07:47:52Z</time>
      </trkpt>
      <trkpt lat="43.90613" lon="1.68591">
        <ele>225.57</ele>
        <time>2021-08-18T07:47:59Z</time>
      </trkpt>
      <trkpt lat="43.90614" lon="1.6859">
        <ele>225.57</ele>
        <time>2021-08-18T07:48:15Z</time>
      </trkpt>
      <trkpt lat="43.90618" lon="1.68591">
        <ele>225.57</ele>
        <time>2021-08-18T07:48:29Z</time>
      </trkpt>
      <trkpt lat="43.90619" lon="1.68594">
        <ele>225.57</ele>
        <time>2021-08-18T07:48:45Z</time>
      </trkpt>
      <trkpt lat="43.90619" lon="1.68592">
        <ele>225.57</ele>
        <time>2021-08-18T07:48:53Z</time>
      </trkpt>
      <trkpt lat="43.90619" lon="1.6859">
        <ele>225.57</ele>
        <time>2021-08-18T07:49:01Z</time>
      </trkpt>
      <trkpt lat="43.90619" lon="1.68589">
        <ele>225.57</ele>
        <time>2021-08-18T07:49:02Z</time>
      </trkpt>
      <trkpt lat="43.90604" lon="1.68577">
        <ele>220.28</ele>
        <time>2021-08-18T07:49:08Z</time>
      </trkpt>
      <trkpt lat="43.90597" lon="1.68571">
        <ele>217.4</ele>
        <time>2021-08-18T07:49:10Z</time>
      </trkpt>
      <trkpt lat="43.90583" lon="1.68555">
        <ele>212.59</ele>
        <time>2021-08-18T07:49:14Z</time>
      </trkpt>
      <trkpt lat="43.90573" lon="1.6854">
        <ele>208.74</ele>
        <time>2021-08-18T07:49:18Z</time>
      </trkpt>
      <trkpt lat="43.90565" lon="1.68525">
        <ele>205.86</ele>
        <time>2021-08-18T07:49:21Z</time>
      </trkpt>
      <trkpt lat="43.90554" lon="1.68505">
        <ele>202.01</ele>
        <time>2021-08-18T07:49:25Z</time>
      </trkpt>
      <trkpt lat="43.90542" lon="1.68489">
        <ele>198.65</ele>
        <time>2021-08-18T07:49:30Z</time>
      </trkpt>
      <trkpt lat="43.90525" lon="1.68474">
        <ele>195.28</ele>
        <time>2021-08-18T07:49:36Z</time>
      </trkpt>
      <trkpt lat="43.90513" lon="1.68462">
        <ele>191.92</ele>
        <time>2021-08-18T07:49:40Z</time>
      </trkpt>
      <trkpt lat="43.90502" lon="1.68451">
        <ele>189.04</ele>
        <time>2021-08-18T07:49:43Z</time>
      </trkpt>
      <trkpt lat="43.90488" lon="1.68433">
        <ele>184.71</ele>
        <time>2021-08-18T07:49:47Z</time>
      </trkpt>
      <trkpt lat="43.90484" lon="1.68428">
        <ele>183.75</ele>
        <time>2021-08-18T07:49:48Z</time>
      </trkpt>
      <trkpt lat="43.90477" lon="1.68417">
        <ele>182.31</ele>
        <time>2021-08-18T07:49:50Z</time>
      </trkpt>
      <trkpt lat="43.90453" lon="1.68393">
        <ele>177.98</ele>
        <time>2021-08-18T07:49:55Z</time>
      </trkpt>
      <trkpt lat="43.90448" lon="1.68387">
        <ele>177.02</ele>
        <time>2021-08-18T07:49:56Z</time>
      </trkpt>
      <trkpt lat="43.90422" lon="1.6836">
        <ele>174.62</ele>
        <time>2021-08-18T07:50:01Z</time>
      </trkpt>
      <trkpt lat="43.90389" lon="1.68318">
        <ele>173.17</ele>
        <time>2021-08-18T07:50:09Z</time>
      </trkpt>
      <trkpt lat="43.90388" lon="1.68312">
        <ele>173.66</ele>
        <time>2021-08-18T07:50:15Z</time>
      </trkpt>
      <trkpt lat="43.90388" lon="1.68311">
        <ele>173.66</ele>
        <time>2021-08-18T07:50:28Z</time>
      </trkpt>
      <trkpt lat="43.9039" lon="1.6831">
        <ele>173.17</ele>
        <time>2021-08-18T07:50:44Z</time>
      </trkpt>
      <trkpt lat="43.90388" lon="1.6831">
        <ele>173.17</ele>
        <time>2021-08-18T07:51:06Z</time>
      </trkpt>
      <trkpt lat="43.90389" lon="1.68311">
        <ele>173.17</ele>
        <time>2021-08-18T07:51:28Z</time>
      </trkpt>
      <trkpt lat="43.90387" lon="1.68312">
        <ele>173.17</ele>
        <time>2021-08-18T07:51:38Z</time>
      </trkpt>
      <trkpt lat="43.90388" lon="1.68311">
        <ele>173.17</ele>
        <time>2021-08-18T07:51:40Z</time>
      </trkpt>
      <trkpt lat="43.90398" lon="1.68313">
        <ele>173.17</ele>
        <time>2021-08-18T07:51:49Z</time>
      </trkpt>
      <trkpt lat="43.90399" lon="1.68313">
        <ele>173.17</ele>
        <time>2021-08-18T07:51:50Z</time>
      </trkpt>
      <trkpt lat="43.90409" lon="1.68308">
        <ele>173.17</ele>
        <time>2021-08-18T07:51:55Z</time>
      </trkpt>
      <trkpt lat="43.90426" lon="1.6828">
        <ele>173.17</ele>
        <time>2021-08-18T07:52:03Z</time>
      </trkpt>
      <trkpt lat="43.9044" lon="1.6824">
        <ele>172.69</ele>
        <time>2021-08-18T07:52:11Z</time>
      </trkpt>
      <trkpt lat="43.90448" lon="1.68219">
        <ele>172.21</ele>
        <time>2021-08-18T07:52:15Z</time>
      </trkpt>
      <trkpt lat="43.9047" lon="1.68173">
        <ele>172.21</ele>
        <time>2021-08-18T07:52:24Z</time>
      </trkpt>
      <trkpt lat="43.90497" lon="1.68123">
        <ele>170.77</ele>
        <time>2021-08-18T07:52:33Z</time>
      </trkpt>
      <trkpt lat="43.90509" lon="1.68099">
        <ele>170.77</ele>
        <time>2021-08-18T07:52:37Z</time>
      </trkpt>
      <trkpt lat="43.90511" lon="1.68079">
        <ele>170.77</ele>
        <time>2021-08-18T07:52:41Z</time>
      </trkpt>
      <trkpt lat="43.90509" lon="1.68076">
        <ele>170.77</ele>
        <time>2021-08-18T07:52:42Z</time>
      </trkpt>
      <trkpt lat="43.90506" lon="1.68074">
        <ele>170.77</ele>
        <time>2021-08-18T07:52:43Z</time>
      </trkpt>
      <trkpt lat="43.90502" lon="1.68071">
        <ele>170.77</ele>
        <time>2021-08-18T07:52:44Z</time>
      </trkpt>
      <trkpt lat="43.90499" lon="1.68067">
        <ele>170.77</ele>
        <time>2021-08-18T07:52:45Z</time>
      </trkpt>
      <trkpt lat="43.90495" lon="1.68063">
        <ele>170.77</ele>
        <time>2021-08-18T07:52:46Z</time>
      </trkpt>
      <trkpt lat="43.90492" lon="1.68059">
        <ele>170.77</ele>
        <time>2021-08-18T07:52:47Z</time>
      </trkpt>
      <trkpt lat="43.90489" lon="1.68054">
        <ele>172.21</ele>
        <time>2021-08-18T07:52:48Z</time>
      </trkpt>
      <trkpt lat="43.90488" lon="1.6805">
        <ele>172.21</ele>
        <time>2021-08-18T07:52:49Z</time>
      </trkpt>
      <trkpt lat="43.90487" lon="1.68045">
        <ele>172.69</ele>
        <time>2021-08-18T07:52:50Z</time>
      </trkpt>
      <trkpt lat="43.90487" lon="1.6804">
        <ele>172.69</ele>
        <time>2021-08-18T07:52:51Z</time>
      </trkpt>
      <trkpt lat="43.90487" lon="1.68036">
        <ele>173.17</ele>
        <time>2021-08-18T07:52:52Z</time>
      </trkpt>
      <trkpt lat="43.90488" lon="1.68032">
        <ele>173.66</ele>
        <time>2021-08-18T07:52:53Z</time>
      </trkpt>
      <trkpt lat="43.90489" lon="1.68028">
        <ele>173.66</ele>
        <time>2021-08-18T07:52:54Z</time>
      </trkpt>
      <trkpt lat="43.9049" lon="1.68025">
        <ele>174.14</ele>
        <time>2021-08-18T07:52:55Z</time>
      </trkpt>
      <trkpt lat="43.90491" lon="1.68021">
        <ele>174.14</ele>
        <time>2021-08-18T07:52:56Z</time>
      </trkpt>
      <trkpt lat="43.90508" lon="1.6799">
        <ele>174.14</ele>
        <time>2021-08-18T07:53:04Z</time>
      </trkpt>
      <trkpt lat="43.90528" lon="1.6795">
        <ele>174.14</ele>
        <time>2021-08-18T07:53:12Z</time>
      </trkpt>
      <trkpt lat="43.90539" lon="1.67919">
        <ele>172.69</ele>
        <time>2021-08-18T07:53:17Z</time>
      </trkpt>
      <trkpt lat="43.90541" lon="1.67913">
        <ele>172.69</ele>
        <time>2021-08-18T07:53:18Z</time>
      </trkpt>
      <trkpt lat="43.90559" lon="1.67857">
        <ele>172.21</ele>
        <time>2021-08-18T07:53:26Z</time>
      </trkpt>
      <trkpt lat="43.90574" lon="1.67812">
        <ele>172.21</ele>
        <time>2021-08-18T07:53:33Z</time>
      </trkpt>
      <trkpt lat="43.90582" lon="1.67787">
        <ele>172.21</ele>
        <time>2021-08-18T07:53:37Z</time>
      </trkpt>
      <trkpt lat="43.90585" lon="1.67765">
        <ele>172.21</ele>
        <time>2021-08-18T07:53:40Z</time>
      </trkpt>
      <trkpt lat="43.90585" lon="1.67759">
        <ele>172.21</ele>
        <time>2021-08-18T07:53:41Z</time>
      </trkpt>
      <trkpt lat="43.90584" lon="1.67752">
        <ele>172.21</ele>
        <time>2021-08-18T07:53:42Z</time>
      </trkpt>
      <trkpt lat="43.90583" lon="1.67745">
        <ele>172.21</ele>
        <time>2021-08-18T07:53:43Z</time>
      </trkpt>
      <trkpt lat="43.90582" lon="1.6774">
        <ele>172.21</ele>
        <time>2021-08-18T07:53:44Z</time>
      </trkpt>
      <trkpt lat="43.9058" lon="1.67734">
        <ele>172.21</ele>
        <time>2021-08-18T07:53:45Z</time>
      </trkpt>
      <trkpt lat="43.90579" lon="1.67729">
        <ele>172.21</ele>
        <time>2021-08-18T07:53:46Z</time>
      </trkpt>
      <trkpt lat="43.90572" lon="1.67712">
        <ele>173.66</ele>
        <time>2021-08-18T07:53:50Z</time>
      </trkpt>
      <trkpt lat="43.90557" lon="1.67689">
        <ele>175.1</ele>
        <time>2021-08-18T07:53:58Z</time>
      </trkpt>
      <trkpt lat="43.90538" lon="1.67663">
        <ele>176.54</ele>
        <time>2021-08-18T07:54:09Z</time>
      </trkpt>
      <trkpt lat="43.90525" lon="1.67638">
        <ele>178.46</ele>
        <time>2021-08-18T07:54:20Z</time>
      </trkpt>
      <trkpt lat="43.90523" lon="1.67634">
        <ele>178.94</ele>
        <time>2021-08-18T07:54:22Z</time>
      </trkpt>
      <trkpt lat="43.90523" lon="1.67632">
        <ele>178.94</ele>
        <time>2021-08-18T07:54:23Z</time>
      </trkpt>
      <trkpt lat="43.90522" lon="1.6763">
        <ele>179.42</ele>
        <time>2021-08-18T07:54:24Z</time>
      </trkpt>
      <trkpt lat="43.90521" lon="1.67628">
        <ele>179.42</ele>
        <time>2021-08-18T07:54:25Z</time>
      </trkpt>
      <trkpt lat="43.9052" lon="1.67626">
        <ele>179.42</ele>
        <time>2021-08-18T07:54:26Z</time>
      </trkpt>
      <trkpt lat="43.9052" lon="1.67624">
        <ele>179.9</ele>
        <time>2021-08-18T07:54:27Z</time>
      </trkpt>
      <trkpt lat="43.90519" lon="1.67622">
        <ele>179.9</ele>
        <time>2021-08-18T07:54:28Z</time>
      </trkpt>
      <trkpt lat="43.90518" lon="1.6762">
        <ele>180.38</ele>
        <time>2021-08-18T07:54:29Z</time>
      </trkpt>
      <trkpt lat="43.90517" lon="1.67617">
        <ele>179.9</ele>
        <time>2021-08-18T07:54:30Z</time>
      </trkpt>
      <trkpt lat="43.90516" lon="1.67615">
        <ele>180.38</ele>
        <time>2021-08-18T07:54:31Z</time>
      </trkpt>
      <trkpt lat="43.90515" lon="1.67613">
        <ele>180.87</ele>
        <time>2021-08-18T07:54:32Z</time>
      </trkpt>
      <trkpt lat="43.90514" lon="1.67611">
        <ele>180.87</ele>
        <time>2021-08-18T07:54:33Z</time>
      </trkpt>
      <trkpt lat="43.90513" lon="1.6761">
        <ele>180.87</ele>
        <time>2021-08-18T07:54:34Z</time>
      </trkpt>
      <trkpt lat="43.90512" lon="1.67608">
        <ele>181.35</ele>
        <time>2021-08-18T07:54:35Z</time>
      </trkpt>
      <trkpt lat="43.90511" lon="1.67607">
        <ele>181.35</ele>
        <time>2021-08-18T07:54:36Z</time>
      </trkpt>
      <trkpt lat="43.90503" lon="1.67593">
        <ele>182.79</ele>
        <time>2021-08-18T07:54:45Z</time>
      </trkpt>
      <trkpt lat="43.90493" lon="1.67576">
        <ele>185.19</ele>
        <time>2021-08-18T07:54:55Z</time>
      </trkpt>
      <trkpt lat="43.90483" lon="1.67561">
        <ele>186.63</ele>
        <time>2021-08-18T07:55:05Z</time>
      </trkpt>
      <trkpt lat="43.90482" lon="1.67559">
        <ele>187.11</ele>
        <time>2021-08-18T07:55:06Z</time>
      </trkpt>
      <trkpt lat="43.90482" lon="1.67557">
        <ele>187.11</ele>
        <time>2021-08-18T07:55:07Z</time>
      </trkpt>
      <trkpt lat="43.90481" lon="1.67556">
        <ele>187.59</ele>
        <time>2021-08-18T07:55:08Z</time>
      </trkpt>
      <trkpt lat="43.90479" lon="1.67554">
        <ele>187.59</ele>
        <time>2021-08-18T07:55:09Z</time>
      </trkpt>
      <trkpt lat="43.90478" lon="1.67552">
        <ele>188.08</ele>
        <time>2021-08-18T07:55:10Z</time>
      </trkpt>
      <trkpt lat="43.90469" lon="1.67537">
        <ele>189.52</ele>
        <time>2021-08-18T07:55:17Z</time>
      </trkpt>
      <trkpt lat="43.90461" lon="1.67511">
        <ele>191.44</ele>
        <time>2021-08-18T07:55:27Z</time>
      </trkpt>
      <trkpt lat="43.90454" lon="1.67477">
        <ele>192.88</ele>
        <time>2021-08-18T07:55:38Z</time>
      </trkpt>
      <trkpt lat="43.90451" lon="1.67443">
        <ele>190.96</ele>
        <time>2021-08-18T07:55:45Z</time>
      </trkpt>
      <trkpt lat="43.90449" lon="1.67437">
        <ele>190.96</ele>
        <time>2021-08-18T07:55:46Z</time>
      </trkpt>
      <trkpt lat="43.90432" lon="1.67393">
        <ele>188.08</ele>
        <time>2021-08-18T07:55:52Z</time>
      </trkpt>
      <trkpt lat="43.90423" lon="1.67377">
        <ele>186.63</ele>
        <time>2021-08-18T07:55:54Z</time>
      </trkpt>
      <trkpt lat="43.90418" lon="1.67369">
        <ele>186.15</ele>
        <time>2021-08-18T07:55:55Z</time>
      </trkpt>
      <trkpt lat="43.90411" lon="1.67362">
        <ele>186.15</ele>
        <time>2021-08-18T07:55:56Z</time>
      </trkpt>
      <trkpt lat="43.90405" lon="1.67356">
        <ele>185.19</ele>
        <time>2021-08-18T07:55:57Z</time>
      </trkpt>
      <trkpt lat="43.90398" lon="1.6735">
        <ele>184.71</ele>
        <time>2021-08-18T07:55:58Z</time>
      </trkpt>
      <trkpt lat="43.90384" lon="1.67338">
        <ele>183.75</ele>
        <time>2021-08-18T07:56:00Z</time>
      </trkpt>
      <trkpt lat="43.90349" lon="1.67307">
        <ele>181.35</ele>
        <time>2021-08-18T07:56:06Z</time>
      </trkpt>
      <trkpt lat="43.90344" lon="1.67302">
        <ele>180.87</ele>
        <time>2021-08-18T07:56:07Z</time>
      </trkpt>
      <trkpt lat="43.90341" lon="1.67296">
        <ele>180.87</ele>
        <time>2021-08-18T07:56:08Z</time>
      </trkpt>
      <trkpt lat="43.90339" lon="1.67288">
        <ele>180.38</ele>
        <time>2021-08-18T07:56:09Z</time>
      </trkpt>
      <trkpt lat="43.90339" lon="1.67278">
        <ele>178.94</ele>
        <time>2021-08-18T07:56:10Z</time>
      </trkpt>
      <trkpt lat="43.9034" lon="1.67268">
        <ele>178.46</ele>
        <time>2021-08-18T07:56:11Z</time>
      </trkpt>
      <trkpt lat="43.90342" lon="1.67258">
        <ele>177.5</ele>
        <time>2021-08-18T07:56:12Z</time>
      </trkpt>
      <trkpt lat="43.90344" lon="1.67248">
        <ele>176.54</ele>
        <time>2021-08-18T07:56:13Z</time>
      </trkpt>
      <trkpt lat="43.90345" lon="1.67236">
        <ele>176.06</ele>
        <time>2021-08-18T07:56:14Z</time>
      </trkpt>
      <trkpt lat="43.90345" lon="1.67225">
        <ele>175.58</ele>
        <time>2021-08-18T07:56:15Z</time>
      </trkpt>
      <trkpt lat="43.90343" lon="1.67213">
        <ele>175.58</ele>
        <time>2021-08-18T07:56:16Z</time>
      </trkpt>
      <trkpt lat="43.9034" lon="1.67202">
        <ele>175.58</ele>
        <time>2021-08-18T07:56:17Z</time>
      </trkpt>
      <trkpt lat="43.90337" lon="1.67191">
        <ele>175.1</ele>
        <time>2021-08-18T07:56:18Z</time>
      </trkpt>
      <trkpt lat="43.90331" lon="1.67171">
        <ele>175.1</ele>
        <time>2021-08-18T07:56:20Z</time>
      </trkpt>
      <trkpt lat="43.9033" lon="1.67162">
        <ele>176.06</ele>
        <time>2021-08-18T07:56:21Z</time>
      </trkpt>
      <trkpt lat="43.9033" lon="1.67155">
        <ele>177.02</ele>
        <time>2021-08-18T07:56:22Z</time>
      </trkpt>
      <trkpt lat="43.90332" lon="1.67142">
        <ele>178.46</ele>
        <time>2021-08-18T07:56:25Z</time>
      </trkpt>
      <trkpt lat="43.90334" lon="1.6713">
        <ele>179.9</ele>
        <time>2021-08-18T07:56:30Z</time>
      </trkpt>
      <trkpt lat="43.90338" lon="1.67114">
        <ele>181.35</ele>
        <time>2021-08-18T07:56:38Z</time>
      </trkpt>
      <trkpt lat="43.90343" lon="1.671">
        <ele>182.79</ele>
        <time>2021-08-18T07:56:45Z</time>
      </trkpt>
      <trkpt lat="43.9035" lon="1.67085">
        <ele>183.75</ele>
        <time>2021-08-18T07:56:53Z</time>
      </trkpt>
      <trkpt lat="43.90358" lon="1.67069">
        <ele>185.19</ele>
        <time>2021-08-18T07:57:01Z</time>
      </trkpt>
      <trkpt lat="43.90366" lon="1.67047">
        <ele>186.63</ele>
        <time>2021-08-18T07:57:10Z</time>
      </trkpt>
      <trkpt lat="43.90365" lon="1.67026">
        <ele>188.08</ele>
        <time>2021-08-18T07:57:19Z</time>
      </trkpt>
      <trkpt lat="43.9036" lon="1.67017">
        <ele>189.04</ele>
        <time>2021-08-18T07:57:25Z</time>
      </trkpt>
      <trkpt lat="43.90353" lon="1.67">
        <ele>190.48</ele>
        <time>2021-08-18T07:57:34Z</time>
      </trkpt>
      <trkpt lat="43.9035" lon="1.66982">
        <ele>191.92</ele>
        <time>2021-08-18T07:57:42Z</time>
      </trkpt>
      <trkpt lat="43.90353" lon="1.66959">
        <ele>193.36</ele>
        <time>2021-08-18T07:57:51Z</time>
      </trkpt>
      <trkpt lat="43.90356" lon="1.66942">
        <ele>194.8</ele>
        <time>2021-08-18T07:57:59Z</time>
      </trkpt>
      <trkpt lat="43.90358" lon="1.66934">
        <ele>195.28</ele>
        <time>2021-08-18T07:58:03Z</time>
      </trkpt>
      <trkpt lat="43.90359" lon="1.66932">
        <ele>195.77</ele>
        <time>2021-08-18T07:58:04Z</time>
      </trkpt>
      <trkpt lat="43.90361" lon="1.6691">
        <ele>197.21</ele>
        <time>2021-08-18T07:58:14Z</time>
      </trkpt>
      <trkpt lat="43.90363" lon="1.66896">
        <ele>198.17</ele>
        <time>2021-08-18T07:58:21Z</time>
      </trkpt>
      <trkpt lat="43.90366" lon="1.66885">
        <ele>198.65</ele>
        <time>2021-08-18T07:58:25Z</time>
      </trkpt>
      <trkpt lat="43.90366" lon="1.66883">
        <ele>198.65</ele>
        <time>2021-08-18T07:58:26Z</time>
      </trkpt>
      <trkpt lat="43.90366" lon="1.66881">
        <ele>199.13</ele>
        <time>2021-08-18T07:58:27Z</time>
      </trkpt>
      <trkpt lat="43.90367" lon="1.66879">
        <ele>199.13</ele>
        <time>2021-08-18T07:58:28Z</time>
      </trkpt>
      <trkpt lat="43.90367" lon="1.66876">
        <ele>199.61</ele>
        <time>2021-08-18T07:58:29Z</time>
      </trkpt>
      <trkpt lat="43.90373" lon="1.66859">
        <ele>200.57</ele>
        <time>2021-08-18T07:58:37Z</time>
      </trkpt>
      <trkpt lat="43.90379" lon="1.66842">
        <ele>202.01</ele>
        <time>2021-08-18T07:58:45Z</time>
      </trkpt>
      <trkpt lat="43.9038" lon="1.66841">
        <ele>202.01</ele>
        <time>2021-08-18T07:58:46Z</time>
      </trkpt>
      <trkpt lat="43.90381" lon="1.6684">
        <ele>202.01</ele>
        <time>2021-08-18T07:58:47Z</time>
      </trkpt>
      <trkpt lat="43.90382" lon="1.66838">
        <ele>202.49</ele>
        <time>2021-08-18T07:58:48Z</time>
      </trkpt>
      <trkpt lat="43.90383" lon="1.66836">
        <ele>202.49</ele>
        <time>2021-08-18T07:58:49Z</time>
      </trkpt>
      <trkpt lat="43.90393" lon="1.66815">
        <ele>203.46</ele>
        <time>2021-08-18T07:58:57Z</time>
      </trkpt>
      <trkpt lat="43.90405" lon="1.66797">
        <ele>204.9</ele>
        <time>2021-08-18T07:59:05Z</time>
      </trkpt>
      <trkpt lat="43.90419" lon="1.66773">
        <ele>206.34</ele>
        <time>2021-08-18T07:59:16Z</time>
      </trkpt>
      <trkpt lat="43.90419" lon="1.66756">
        <ele>207.3</ele>
        <time>2021-08-18T07:59:23Z</time>
      </trkpt>
      <trkpt lat="43.90412" lon="1.66746">
        <ele>208.74</ele>
        <time>2021-08-18T07:59:30Z</time>
      </trkpt>
      <trkpt lat="43.90401" lon="1.6675">
        <ele>210.19</ele>
        <time>2021-08-18T07:59:37Z</time>
      </trkpt>
      <trkpt lat="43.90383" lon="1.66757">
        <ele>212.59</ele>
        <time>2021-08-18T07:59:48Z</time>
      </trkpt>
      <trkpt lat="43.90369" lon="1.66758">
        <ele>214.51</ele>
        <time>2021-08-18T07:59:58Z</time>
      </trkpt>
      <trkpt lat="43.90351" lon="1.66758">
        <ele>216.43</ele>
        <time>2021-08-18T08:00:10Z</time>
      </trkpt>
      <trkpt lat="43.90337" lon="1.66758">
        <ele>218.84</ele>
        <time>2021-08-18T08:00:19Z</time>
      </trkpt>
      <trkpt lat="43.90326" lon="1.66756">
        <ele>220.28</ele>
        <time>2021-08-18T08:00:27Z</time>
      </trkpt>
      <trkpt lat="43.90325" lon="1.66755">
        <ele>220.28</ele>
        <time>2021-08-18T08:00:28Z</time>
      </trkpt>
      <trkpt lat="43.90324" lon="1.66755">
        <ele>220.76</ele>
        <time>2021-08-18T08:00:29Z</time>
      </trkpt>
      <trkpt lat="43.90323" lon="1.66755">
        <ele>220.76</ele>
        <time>2021-08-18T08:00:30Z</time>
      </trkpt>
      <trkpt lat="43.90321" lon="1.66755">
        <ele>221.24</ele>
        <time>2021-08-18T08:00:31Z</time>
      </trkpt>
      <trkpt lat="43.9032" lon="1.66754">
        <ele>221.24</ele>
        <time>2021-08-18T08:00:32Z</time>
      </trkpt>
      <trkpt lat="43.90319" lon="1.66754">
        <ele>221.24</ele>
        <time>2021-08-18T08:00:33Z</time>
      </trkpt>
      <trkpt lat="43.90317" lon="1.66754">
        <ele>221.72</ele>
        <time>2021-08-18T08:00:34Z</time>
      </trkpt>
      <trkpt lat="43.90316" lon="1.66754">
        <ele>221.72</ele>
        <time>2021-08-18T08:00:35Z</time>
      </trkpt>
      <trkpt lat="43.90315" lon="1.66753">
        <ele>222.2</ele>
        <time>2021-08-18T08:00:36Z</time>
      </trkpt>
      <trkpt lat="43.90313" lon="1.66753">
        <ele>222.2</ele>
        <time>2021-08-18T08:00:37Z</time>
      </trkpt>
      <trkpt lat="43.90312" lon="1.66753">
        <ele>222.68</ele>
        <time>2021-08-18T08:00:38Z</time>
      </trkpt>
      <trkpt lat="43.90298" lon="1.66749">
        <ele>224.12</ele>
        <time>2021-08-18T08:00:48Z</time>
      </trkpt>
      <trkpt lat="43.90284" lon="1.66744">
        <ele>226.05</ele>
        <time>2021-08-18T08:00:56Z</time>
      </trkpt>
      <trkpt lat="43.90282" lon="1.66741">
        <ele>226.53</ele>
        <time>2021-08-18T08:00:58Z</time>
      </trkpt>
      <trkpt lat="43.9028" lon="1.6674">
        <ele>226.53</ele>
        <time>2021-08-18T08:00:59Z</time>
      </trkpt>
      <trkpt lat="43.90279" lon="1.66741">
        <ele>226.53</ele>
        <time>2021-08-18T08:01:00Z</time>
      </trkpt>
      <trkpt lat="43.90277" lon="1.66742">
        <ele>226.53</ele>
        <time>2021-08-18T08:01:01Z</time>
      </trkpt>
      <trkpt lat="43.90275" lon="1.66744">
        <ele>226.53</ele>
        <time>2021-08-18T08:01:02Z</time>
      </trkpt>
      <trkpt lat="43.90266" lon="1.6675">
        <ele>226.53</ele>
        <time>2021-08-18T08:01:06Z</time>
      </trkpt>
      <trkpt lat="43.90263" lon="1.66749">
        <ele>226.53</ele>
        <time>2021-08-18T08:01:07Z</time>
      </trkpt>
      <trkpt lat="43.90261" lon="1.66747">
        <ele>226.53</ele>
        <time>2021-08-18T08:01:08Z</time>
      </trkpt>
      <trkpt lat="43.90259" lon="1.66746">
        <ele>226.53</ele>
        <time>2021-08-18T08:01:09Z</time>
      </trkpt>
      <trkpt lat="43.90257" lon="1.66744">
        <ele>226.05</ele>
        <time>2021-08-18T08:01:10Z</time>
      </trkpt>
      <trkpt lat="43.90255" lon="1.66741">
        <ele>226.05</ele>
        <time>2021-08-18T08:01:11Z</time>
      </trkpt>
      <trkpt lat="43.9025" lon="1.66729">
        <ele>224.12</ele>
        <time>2021-08-18T08:01:14Z</time>
      </trkpt>
      <trkpt lat="43.90248" lon="1.66724">
        <ele>223.64</ele>
        <time>2021-08-18T08:01:15Z</time>
      </trkpt>
      <trkpt lat="43.90247" lon="1.66718">
        <ele>223.64</ele>
        <time>2021-08-18T08:01:16Z</time>
      </trkpt>
      <trkpt lat="43.90244" lon="1.66688">
        <ele>220.28</ele>
        <time>2021-08-18T08:01:20Z</time>
      </trkpt>
      <trkpt lat="43.90242" lon="1.66654">
        <ele>216.43</ele>
        <time>2021-08-18T08:01:24Z</time>
      </trkpt>
      <trkpt lat="43.90239" lon="1.66625">
        <ele>213.07</ele>
        <time>2021-08-18T08:01:27Z</time>
      </trkpt>
      <trkpt lat="43.90238" lon="1.66592">
        <ele>209.7</ele>
        <time>2021-08-18T08:01:30Z</time>
      </trkpt>
      <trkpt lat="43.90238" lon="1.66567">
        <ele>206.82</ele>
        <time>2021-08-18T08:01:32Z</time>
      </trkpt>
      <trkpt lat="43.9024" lon="1.66528">
        <ele>204.42</ele>
        <time>2021-08-18T08:01:35Z</time>
      </trkpt>
      <trkpt lat="43.9025" lon="1.6646">
        <ele>203.94</ele>
        <time>2021-08-18T08:01:41Z</time>
      </trkpt>
      <trkpt lat="43.90252" lon="1.66434">
        <ele>203.94</ele>
        <time>2021-08-18T08:01:44Z</time>
      </trkpt>
      <trkpt lat="43.90254" lon="1.66407">
        <ele>205.38</ele>
        <time>2021-08-18T08:01:48Z</time>
      </trkpt>
      <trkpt lat="43.90255" lon="1.66363">
        <ele>206.34</ele>
        <time>2021-08-18T08:01:56Z</time>
      </trkpt>
      <trkpt lat="43.90253" lon="1.66321">
        <ele>207.3</ele>
        <time>2021-08-18T08:02:04Z</time>
      </trkpt>
      <trkpt lat="43.90247" lon="1.66284">
        <ele>205.38</ele>
        <time>2021-08-18T08:02:10Z</time>
      </trkpt>
      <trkpt lat="43.9024" lon="1.66255">
        <ele>203.94</ele>
        <time>2021-08-18T08:02:14Z</time>
      </trkpt>
      <trkpt lat="43.90238" lon="1.66249">
        <ele>203.46</ele>
        <time>2021-08-18T08:02:15Z</time>
      </trkpt>
      <trkpt lat="43.90224" lon="1.66196">
        <ele>200.57</ele>
        <time>2021-08-18T08:02:21Z</time>
      </trkpt>
      <trkpt lat="43.90212" lon="1.66148">
        <ele>197.21</ele>
        <time>2021-08-18T08:02:26Z</time>
      </trkpt>
      <trkpt lat="43.90204" lon="1.66104">
        <ele>193.84</ele>
        <time>2021-08-18T08:02:30Z</time>
      </trkpt>
      <trkpt lat="43.90197" lon="1.66051">
        <ele>190.48</ele>
        <time>2021-08-18T08:02:35Z</time>
      </trkpt>
      <trkpt lat="43.90194" lon="1.66016">
        <ele>186.63</ele>
        <time>2021-08-18T08:02:38Z</time>
      </trkpt>
      <trkpt lat="43.9019" lon="1.65989">
        <ele>183.27</ele>
        <time>2021-08-18T08:02:40Z</time>
      </trkpt>
      <trkpt lat="43.90187" lon="1.65957">
        <ele>179.42</ele>
        <time>2021-08-18T08:02:42Z</time>
      </trkpt>
      <trkpt lat="43.90183" lon="1.65922">
        <ele>174.14</ele>
        <time>2021-08-18T08:02:44Z</time>
      </trkpt>
      <trkpt lat="43.9018" lon="1.6589">
        <ele>171.25</ele>
        <time>2021-08-18T08:02:46Z</time>
      </trkpt>
      <trkpt lat="43.90176" lon="1.65864">
        <ele>169.33</ele>
        <time>2021-08-18T08:02:48Z</time>
      </trkpt>
      <trkpt lat="43.90173" lon="1.65853">
        <ele>169.33</ele>
        <time>2021-08-18T08:02:49Z</time>
      </trkpt>
      <trkpt lat="43.90171" lon="1.65844">
        <ele>170.29</ele>
        <time>2021-08-18T08:02:50Z</time>
      </trkpt>
      <trkpt lat="43.90171" lon="1.65835">
        <ele>169.81</ele>
        <time>2021-08-18T08:02:51Z</time>
      </trkpt>
      <trkpt lat="43.90174" lon="1.65826">
        <ele>168.85</ele>
        <time>2021-08-18T08:02:52Z</time>
      </trkpt>
      <trkpt lat="43.90178" lon="1.65819">
        <ele>168.85</ele>
        <time>2021-08-18T08:02:53Z</time>
      </trkpt>
      <trkpt lat="43.90184" lon="1.65813">
        <ele>168.85</ele>
        <time>2021-08-18T08:02:54Z</time>
      </trkpt>
      <trkpt lat="43.9019" lon="1.65809">
        <ele>168.85</ele>
        <time>2021-08-18T08:02:55Z</time>
      </trkpt>
      <trkpt lat="43.90196" lon="1.65805">
        <ele>168.85</ele>
        <time>2021-08-18T08:02:56Z</time>
      </trkpt>
      <trkpt lat="43.90202" lon="1.65801">
        <ele>168.37</ele>
        <time>2021-08-18T08:02:57Z</time>
      </trkpt>
      <trkpt lat="43.90208" lon="1.65799">
        <ele>168.37</ele>
        <time>2021-08-18T08:02:58Z</time>
      </trkpt>
      <trkpt lat="43.90252" lon="1.65777">
        <ele>167.89</ele>
        <time>2021-08-18T08:03:05Z</time>
      </trkpt>
      <trkpt lat="43.90323" lon="1.65743">
        <ele>166.93</ele>
        <time>2021-08-18T08:03:16Z</time>
      </trkpt>
      <trkpt lat="43.90365" lon="1.65728">
        <ele>166.45</ele>
        <time>2021-08-18T08:03:23Z</time>
      </trkpt>
      <trkpt lat="43.90369" lon="1.65724">
        <ele>166.45</ele>
        <time>2021-08-18T08:03:24Z</time>
      </trkpt>
      <trkpt lat="43.90371" lon="1.65719">
        <ele>166.45</ele>
        <time>2021-08-18T08:03:25Z</time>
      </trkpt>
      <trkpt lat="43.90371" lon="1.65713">
        <ele>166.45</ele>
        <time>2021-08-18T08:03:26Z</time>
      </trkpt>
      <trkpt lat="43.90369" lon="1.65708">
        <ele>166.45</ele>
        <time>2021-08-18T08:03:27Z</time>
      </trkpt>
      <trkpt lat="43.90367" lon="1.65704">
        <ele>166.45</ele>
        <time>2021-08-18T08:03:28Z</time>
      </trkpt>
      <trkpt lat="43.90365" lon="1.65701">
        <ele>166.45</ele>
        <time>2021-08-18T08:03:29Z</time>
      </trkpt>
      <trkpt lat="43.90363" lon="1.65697">
        <ele>167.41</ele>
        <time>2021-08-18T08:03:30Z</time>
      </trkpt>
      <trkpt lat="43.90362" lon="1.65694">
        <ele>167.41</ele>
        <time>2021-08-18T08:03:31Z</time>
      </trkpt>
      <trkpt lat="43.90355" lon="1.65681">
        <ele>168.85</ele>
        <time>2021-08-18T08:03:38Z</time>
      </trkpt>
      <trkpt lat="43.90348" lon="1.65667">
        <ele>170.77</ele>
        <time>2021-08-18T08:03:47Z</time>
      </trkpt>
      <trkpt lat="43.90341" lon="1.65653">
        <ele>172.69</ele>
        <time>2021-08-18T08:03:56Z</time>
      </trkpt>
      <trkpt lat="43.90336" lon="1.65642">
        <ele>174.14</ele>
        <time>2021-08-18T08:04:03Z</time>
      </trkpt>
      <trkpt lat="43.9033" lon="1.65636">
        <ele>175.1</ele>
        <time>2021-08-18T08:04:09Z</time>
      </trkpt>
      <trkpt lat="43.90328" lon="1.65635">
        <ele>175.1</ele>
        <time>2021-08-18T08:04:10Z</time>
      </trkpt>
      <trkpt lat="43.90327" lon="1.65634">
        <ele>175.1</ele>
        <time>2021-08-18T08:04:11Z</time>
      </trkpt>
      <trkpt lat="43.90313" lon="1.65626">
        <ele>177.02</ele>
        <time>2021-08-18T08:04:21Z</time>
      </trkpt>
      <trkpt lat="43.903" lon="1.6562">
        <ele>177.98</ele>
        <time>2021-08-18T08:04:28Z</time>
      </trkpt>
      <trkpt lat="43.90287" lon="1.6561">
        <ele>179.42</ele>
        <time>2021-08-18T08:04:36Z</time>
      </trkpt>
      <trkpt lat="43.90275" lon="1.65598">
        <ele>180.87</ele>
        <time>2021-08-18T08:04:44Z</time>
      </trkpt>
      <trkpt lat="43.90268" lon="1.65583">
        <ele>182.31</ele>
        <time>2021-08-18T08:04:51Z</time>
      </trkpt>
      <trkpt lat="43.90264" lon="1.6557">
        <ele>183.27</ele>
        <time>2021-08-18T08:04:58Z</time>
      </trkpt>
      <trkpt lat="43.90261" lon="1.6555">
        <ele>184.71</ele>
        <time>2021-08-18T08:05:06Z</time>
      </trkpt>
      <trkpt lat="43.9026" lon="1.6553">
        <ele>186.15</ele>
        <time>2021-08-18T08:05:15Z</time>
      </trkpt>
      <trkpt lat="43.90258" lon="1.65511">
        <ele>187.59</ele>
        <time>2021-08-18T08:05:24Z</time>
      </trkpt>
      <trkpt lat="43.90259" lon="1.65489">
        <ele>189.52</ele>
        <time>2021-08-18T08:05:33Z</time>
      </trkpt>
      <trkpt lat="43.90259" lon="1.65465">
        <ele>190</ele>
        <time>2021-08-18T08:05:41Z</time>
      </trkpt>
      <trkpt lat="43.90257" lon="1.65426">
        <ele>191.44</ele>
        <time>2021-08-18T08:05:51Z</time>
      </trkpt>
      <trkpt lat="43.90249" lon="1.65396">
        <ele>192.4</ele>
        <time>2021-08-18T08:06:00Z</time>
      </trkpt>
      <trkpt lat="43.90232" lon="1.65378">
        <ele>193.84</ele>
        <time>2021-08-18T08:06:10Z</time>
      </trkpt>
      <trkpt lat="43.9022" lon="1.65367">
        <ele>195.28</ele>
        <time>2021-08-18T08:06:18Z</time>
      </trkpt>
      <trkpt lat="43.90217" lon="1.65364">
        <ele>195.77</ele>
        <time>2021-08-18T08:06:20Z</time>
      </trkpt>
      <trkpt lat="43.90215" lon="1.65363">
        <ele>195.77</ele>
        <time>2021-08-18T08:06:21Z</time>
      </trkpt>
      <trkpt lat="43.90213" lon="1.65362">
        <ele>195.77</ele>
        <time>2021-08-18T08:06:22Z</time>
      </trkpt>
      <trkpt lat="43.90209" lon="1.6536">
        <ele>196.73</ele>
        <time>2021-08-18T08:06:24Z</time>
      </trkpt>
      <trkpt lat="43.90207" lon="1.6536">
        <ele>196.73</ele>
        <time>2021-08-18T08:06:25Z</time>
      </trkpt>
      <trkpt lat="43.90206" lon="1.65359">
        <ele>196.73</ele>
        <time>2021-08-18T08:06:26Z</time>
      </trkpt>
      <trkpt lat="43.90204" lon="1.65357">
        <ele>196.25</ele>
        <time>2021-08-18T08:06:27Z</time>
      </trkpt>
      <trkpt lat="43.90202" lon="1.65355">
        <ele>197.21</ele>
        <time>2021-08-18T08:06:28Z</time>
      </trkpt>
      <trkpt lat="43.902" lon="1.65354">
        <ele>197.21</ele>
        <time>2021-08-18T08:06:29Z</time>
      </trkpt>
      <trkpt lat="43.90198" lon="1.65352">
        <ele>196.73</ele>
        <time>2021-08-18T08:06:30Z</time>
      </trkpt>
      <trkpt lat="43.90196" lon="1.65351">
        <ele>196.73</ele>
        <time>2021-08-18T08:06:31Z</time>
      </trkpt>
      <trkpt lat="43.90194" lon="1.6535">
        <ele>196.73</ele>
        <time>2021-08-18T08:06:32Z</time>
      </trkpt>
      <trkpt lat="43.90192" lon="1.65349">
        <ele>197.21</ele>
        <time>2021-08-18T08:06:33Z</time>
      </trkpt>
      <trkpt lat="43.9019" lon="1.65347">
        <ele>197.21</ele>
        <time>2021-08-18T08:06:34Z</time>
      </trkpt>
      <trkpt lat="43.90188" lon="1.65345">
        <ele>197.69</ele>
        <time>2021-08-18T08:06:35Z</time>
      </trkpt>
      <trkpt lat="43.90172" lon="1.65336">
        <ele>198.65</ele>
        <time>2021-08-18T08:06:44Z</time>
      </trkpt>
      <trkpt lat="43.90165" lon="1.65332">
        <ele>200.09</ele>
        <time>2021-08-18T08:06:51Z</time>
      </trkpt>
      <trkpt lat="43.90165" lon="1.65333">
        <ele>200.09</ele>
        <time>2021-08-18T08:07:05Z</time>
      </trkpt>
      <trkpt lat="43.90165" lon="1.65334">
        <ele>200.09</ele>
        <time>2021-08-18T08:07:16Z</time>
      </trkpt>
      <trkpt lat="43.90164" lon="1.65332">
        <ele>200.09</ele>
        <time>2021-08-18T08:07:30Z</time>
      </trkpt>
      <trkpt lat="43.90156" lon="1.65329">
        <ele>200.57</ele>
        <time>2021-08-18T08:07:36Z</time>
      </trkpt>
      <trkpt lat="43.90153" lon="1.65328">
        <ele>201.05</ele>
        <time>2021-08-18T08:07:38Z</time>
      </trkpt>
      <trkpt lat="43.90138" lon="1.65326">
        <ele>202.98</ele>
        <time>2021-08-18T08:07:48Z</time>
      </trkpt>
      <trkpt lat="43.90125" lon="1.65325">
        <ele>204.9</ele>
        <time>2021-08-18T08:07:56Z</time>
      </trkpt>
      <trkpt lat="43.90114" lon="1.65324">
        <ele>206.82</ele>
        <time>2021-08-18T08:08:04Z</time>
      </trkpt>
      <trkpt lat="43.90097" lon="1.65319">
        <ele>209.22</ele>
        <time>2021-08-18T08:08:15Z</time>
      </trkpt>
      <trkpt lat="43.90096" lon="1.65318">
        <ele>209.22</ele>
        <time>2021-08-18T08:08:16Z</time>
      </trkpt>
      <trkpt lat="43.90093" lon="1.65314">
        <ele>210.19</ele>
        <time>2021-08-18T08:08:20Z</time>
      </trkpt>
      <trkpt lat="43.90091" lon="1.65311">
        <ele>210.67</ele>
        <time>2021-08-18T08:08:22Z</time>
      </trkpt>
      <trkpt lat="43.90092" lon="1.65303">
        <ele>211.15</ele>
        <time>2021-08-18T08:08:26Z</time>
      </trkpt>
      <trkpt lat="43.90094" lon="1.65293">
        <ele>212.11</ele>
        <time>2021-08-18T08:08:34Z</time>
      </trkpt>
      <trkpt lat="43.90091" lon="1.65301">
        <ele>212.11</ele>
        <time>2021-08-18T08:08:38Z</time>
      </trkpt>
      <trkpt lat="43.90091" lon="1.65304">
        <ele>212.11</ele>
        <time>2021-08-18T08:08:39Z</time>
      </trkpt>
      <trkpt lat="43.9009" lon="1.65308">
        <ele>210.67</ele>
        <time>2021-08-18T08:08:40Z</time>
      </trkpt>
      <trkpt lat="43.90088" lon="1.65311">
        <ele>210.67</ele>
        <time>2021-08-18T08:08:41Z</time>
      </trkpt>
      <trkpt lat="43.90086" lon="1.65312">
        <ele>210.67</ele>
        <time>2021-08-18T08:08:42Z</time>
      </trkpt>
      <trkpt lat="43.90084" lon="1.65312">
        <ele>210.67</ele>
        <time>2021-08-18T08:08:43Z</time>
      </trkpt>
      <trkpt lat="43.90082" lon="1.65312">
        <ele>210.67</ele>
        <time>2021-08-18T08:08:44Z</time>
      </trkpt>
      <trkpt lat="43.90081" lon="1.65311">
        <ele>210.67</ele>
        <time>2021-08-18T08:08:45Z</time>
      </trkpt>
      <trkpt lat="43.90068" lon="1.65307">
        <ele>211.63</ele>
        <time>2021-08-18T08:08:53Z</time>
      </trkpt>
      <trkpt lat="43.90054" lon="1.65303">
        <ele>212.59</ele>
        <time>2021-08-18T08:09:01Z</time>
      </trkpt>
      <trkpt lat="43.90037" lon="1.65302">
        <ele>214.51</ele>
        <time>2021-08-18T08:09:11Z</time>
      </trkpt>
      <trkpt lat="43.9002" lon="1.65304">
        <ele>215.95</ele>
        <time>2021-08-18T08:09:22Z</time>
      </trkpt>
      <trkpt lat="43.90006" lon="1.65305">
        <ele>217.4</ele>
        <time>2021-08-18T08:09:32Z</time>
      </trkpt>
      <trkpt lat="43.89992" lon="1.65303">
        <ele>218.84</ele>
        <time>2021-08-18T08:09:40Z</time>
      </trkpt>
      <trkpt lat="43.8998" lon="1.65292">
        <ele>219.8</ele>
        <time>2021-08-18T08:09:47Z</time>
      </trkpt>
      <trkpt lat="43.89966" lon="1.65275">
        <ele>221.72</ele>
        <time>2021-08-18T08:09:56Z</time>
      </trkpt>
      <trkpt lat="43.89952" lon="1.6526">
        <ele>222.68</ele>
        <time>2021-08-18T08:10:04Z</time>
      </trkpt>
      <trkpt lat="43.89938" lon="1.65243">
        <ele>224.12</ele>
        <time>2021-08-18T08:10:13Z</time>
      </trkpt>
      <trkpt lat="43.89922" lon="1.65219">
        <ele>225.09</ele>
        <time>2021-08-18T08:10:23Z</time>
      </trkpt>
      <trkpt lat="43.89911" lon="1.65201">
        <ele>226.53</ele>
        <time>2021-08-18T08:10:30Z</time>
      </trkpt>
      <trkpt lat="43.89898" lon="1.65183">
        <ele>227.01</ele>
        <time>2021-08-18T08:10:37Z</time>
      </trkpt>
      <trkpt lat="43.89882" lon="1.65164">
        <ele>227.01</ele>
        <time>2021-08-18T08:10:42Z</time>
      </trkpt>
      <trkpt lat="43.89868" lon="1.65149">
        <ele>225.57</ele>
        <time>2021-08-18T08:10:46Z</time>
      </trkpt>
      <trkpt lat="43.89839" lon="1.65133">
        <ele>225.57</ele>
        <time>2021-08-18T08:10:54Z</time>
      </trkpt>
      <trkpt lat="43.89828" lon="1.6513">
        <ele>225.57</ele>
        <time>2021-08-18T08:10:59Z</time>
      </trkpt>
      <trkpt lat="43.89806" lon="1.65129">
        <ele>227.01</ele>
        <time>2021-08-18T08:11:06Z</time>
      </trkpt>
      <trkpt lat="43.89777" lon="1.65127">
        <ele>227.97</ele>
        <time>2021-08-18T08:11:14Z</time>
      </trkpt>
      <trkpt lat="43.89755" lon="1.65127">
        <ele>229.41</ele>
        <time>2021-08-18T08:11:21Z</time>
      </trkpt>
      <trkpt lat="43.8973" lon="1.65124">
        <ele>230.37</ele>
        <time>2021-08-18T08:11:27Z</time>
      </trkpt>
      <trkpt lat="43.89712" lon="1.65126">
        <ele>231.33</ele>
        <time>2021-08-18T08:11:32Z</time>
      </trkpt>
      <trkpt lat="43.89688" lon="1.65124">
        <ele>231.81</ele>
        <time>2021-08-18T08:11:39Z</time>
      </trkpt>
      <trkpt lat="43.89674" lon="1.65113">
        <ele>232.3</ele>
        <time>2021-08-18T08:11:44Z</time>
      </trkpt>
      <trkpt lat="43.89672" lon="1.65112">
        <ele>232.3</ele>
        <time>2021-08-18T08:11:45Z</time>
      </trkpt>
      <trkpt lat="43.89662" lon="1.65114">
        <ele>232.78</ele>
        <time>2021-08-18T08:11:51Z</time>
      </trkpt>
      <trkpt lat="43.8966" lon="1.65114">
        <ele>232.78</ele>
        <time>2021-08-18T08:11:52Z</time>
      </trkpt>
      <trkpt lat="43.89644" lon="1.6512">
        <ele>233.26</ele>
        <time>2021-08-18T08:11:58Z</time>
      </trkpt>
      <trkpt lat="43.89613" lon="1.65123">
        <ele>233.26</ele>
        <time>2021-08-18T08:12:06Z</time>
      </trkpt>
      <trkpt lat="43.89593" lon="1.65127">
        <ele>233.74</ele>
        <time>2021-08-18T08:12:11Z</time>
      </trkpt>
      <trkpt lat="43.89573" lon="1.65127">
        <ele>234.22</ele>
        <time>2021-08-18T08:12:16Z</time>
      </trkpt>
      <trkpt lat="43.89554" lon="1.65125">
        <ele>235.18</ele>
        <time>2021-08-18T08:12:22Z</time>
      </trkpt>
      <trkpt lat="43.8953" lon="1.65129">
        <ele>235.18</ele>
        <time>2021-08-18T08:12:28Z</time>
      </trkpt>
      <trkpt lat="43.89525" lon="1.6513">
        <ele>235.18</ele>
        <time>2021-08-18T08:12:29Z</time>
      </trkpt>
      <trkpt lat="43.8951" lon="1.65138">
        <ele>234.22</ele>
        <time>2021-08-18T08:12:32Z</time>
      </trkpt>
      <trkpt lat="43.89489" lon="1.65157">
        <ele>234.22</ele>
        <time>2021-08-18T08:12:37Z</time>
      </trkpt>
      <trkpt lat="43.89468" lon="1.65177">
        <ele>234.22</ele>
        <time>2021-08-18T08:12:43Z</time>
      </trkpt>
      <trkpt lat="43.89466" lon="1.65179">
        <ele>234.22</ele>
        <time>2021-08-18T08:12:44Z</time>
      </trkpt>
      <trkpt lat="43.89451" lon="1.65196">
        <ele>234.22</ele>
        <time>2021-08-18T08:12:50Z</time>
      </trkpt>
      <trkpt lat="43.89444" lon="1.652">
        <ele>234.22</ele>
        <time>2021-08-18T08:12:52Z</time>
      </trkpt>
      <trkpt lat="43.89423" lon="1.65206">
        <ele>234.22</ele>
        <time>2021-08-18T08:12:57Z</time>
      </trkpt>
      <trkpt lat="43.89409" lon="1.65218">
        <ele>234.22</ele>
        <time>2021-08-18T08:13:01Z</time>
      </trkpt>
      <trkpt lat="43.89392" lon="1.65229">
        <ele>234.22</ele>
        <time>2021-08-18T08:13:06Z</time>
      </trkpt>
      <trkpt lat="43.89389" lon="1.65232">
        <ele>234.22</ele>
        <time>2021-08-18T08:13:07Z</time>
      </trkpt>
      <trkpt lat="43.8935" lon="1.65266">
        <ele>234.22</ele>
        <time>2021-08-18T08:13:16Z</time>
      </trkpt>
      <trkpt lat="43.89346" lon="1.65269">
        <ele>234.22</ele>
        <time>2021-08-18T08:13:17Z</time>
      </trkpt>
      <trkpt lat="43.89331" lon="1.65281">
        <ele>234.22</ele>
        <time>2021-08-18T08:13:20Z</time>
      </trkpt>
      <trkpt lat="43.89317" lon="1.65288">
        <ele>235.18</ele>
        <time>2021-08-18T08:13:23Z</time>
      </trkpt>
      <trkpt lat="43.89294" lon="1.65297">
        <ele>235.66</ele>
        <time>2021-08-18T08:13:28Z</time>
      </trkpt>
      <trkpt lat="43.89284" lon="1.65302">
        <ele>235.66</ele>
        <time>2021-08-18T08:13:33Z</time>
      </trkpt>
      <trkpt lat="43.89279" lon="1.65306">
        <ele>235.66</ele>
        <time>2021-08-18T08:13:35Z</time>
      </trkpt>
      <trkpt lat="43.89252" lon="1.65326">
        <ele>235.66</ele>
        <time>2021-08-18T08:13:43Z</time>
      </trkpt>
      <trkpt lat="43.89236" lon="1.65336">
        <ele>236.14</ele>
        <time>2021-08-18T08:13:47Z</time>
      </trkpt>
      <trkpt lat="43.89205" lon="1.65363">
        <ele>236.62</ele>
        <time>2021-08-18T08:13:55Z</time>
      </trkpt>
      <trkpt lat="43.89182" lon="1.65379">
        <ele>237.1</ele>
        <time>2021-08-18T08:14:01Z</time>
      </trkpt>
      <trkpt lat="43.8917" lon="1.65384">
        <ele>238.06</ele>
        <time>2021-08-18T08:14:04Z</time>
      </trkpt>
      <trkpt lat="43.89154" lon="1.65365">
        <ele>238.54</ele>
        <time>2021-08-18T08:14:10Z</time>
      </trkpt>
      <trkpt lat="43.89122" lon="1.653">
        <ele>238.54</ele>
        <time>2021-08-18T08:14:22Z</time>
      </trkpt>
      <trkpt lat="43.89105" lon="1.65266">
        <ele>238.54</ele>
        <time>2021-08-18T08:14:29Z</time>
      </trkpt>
      <trkpt lat="43.89099" lon="1.65257">
        <ele>238.54</ele>
        <time>2021-08-18T08:14:31Z</time>
      </trkpt>
      <trkpt lat="43.8908" lon="1.65214">
        <ele>239.99</ele>
        <time>2021-08-18T08:14:40Z</time>
      </trkpt>
      <trkpt lat="43.89076" lon="1.65189">
        <ele>239.99</ele>
        <time>2021-08-18T08:14:45Z</time>
      </trkpt>
      <trkpt lat="43.89073" lon="1.65179">
        <ele>239.99</ele>
        <time>2021-08-18T08:14:47Z</time>
      </trkpt>
      <trkpt lat="43.89071" lon="1.65173">
        <ele>239.99</ele>
        <time>2021-08-18T08:14:48Z</time>
      </trkpt>
      <trkpt lat="43.89068" lon="1.65168">
        <ele>239.99</ele>
        <time>2021-08-18T08:14:49Z</time>
      </trkpt>
      <trkpt lat="43.89063" lon="1.65158">
        <ele>239.51</ele>
        <time>2021-08-18T08:14:51Z</time>
      </trkpt>
      <trkpt lat="43.89059" lon="1.65154">
        <ele>239.51</ele>
        <time>2021-08-18T08:14:52Z</time>
      </trkpt>
      <trkpt lat="43.89027" lon="1.65119">
        <ele>239.51</ele>
        <time>2021-08-18T08:15:00Z</time>
      </trkpt>
      <trkpt lat="43.88988" lon="1.65086">
        <ele>239.51</ele>
        <time>2021-08-18T08:15:08Z</time>
      </trkpt>
      <trkpt lat="43.88971" lon="1.65076">
        <ele>238.06</ele>
        <time>2021-08-18T08:15:11Z</time>
      </trkpt>
      <trkpt lat="43.8892" lon="1.65048">
        <ele>236.14</ele>
        <time>2021-08-18T08:15:19Z</time>
      </trkpt>
      <trkpt lat="43.88862" lon="1.65016">
        <ele>234.7</ele>
        <time>2021-08-18T08:15:28Z</time>
      </trkpt>
      <trkpt lat="43.88825" lon="1.64997">
        <ele>233.74</ele>
        <time>2021-08-18T08:15:34Z</time>
      </trkpt>
      <trkpt lat="43.88782" lon="1.64973">
        <ele>232.3</ele>
        <time>2021-08-18T08:15:41Z</time>
      </trkpt>
      <trkpt lat="43.88715" lon="1.64948">
        <ele>231.33</ele>
        <time>2021-08-18T08:15:49Z</time>
      </trkpt>
      <trkpt lat="43.8864" lon="1.64919">
        <ele>230.85</ele>
        <time>2021-08-18T08:15:59Z</time>
      </trkpt>
      <trkpt lat="43.88591" lon="1.64904">
        <ele>232.3</ele>
        <time>2021-08-18T08:16:07Z</time>
      </trkpt>
      <trkpt lat="43.88544" lon="1.64894">
        <ele>230.85</ele>
        <time>2021-08-18T08:16:14Z</time>
      </trkpt>
      <trkpt lat="43.88505" lon="1.64887">
        <ele>230.85</ele>
        <time>2021-08-18T08:16:20Z</time>
      </trkpt>
      <trkpt lat="43.88499" lon="1.64886">
        <ele>230.85</ele>
        <time>2021-08-18T08:16:21Z</time>
      </trkpt>
      <trkpt lat="43.88469" lon="1.64878">
        <ele>230.85</ele>
        <time>2021-08-18T08:16:26Z</time>
      </trkpt>
      <trkpt lat="43.88465" lon="1.64874">
        <ele>232.3</ele>
        <time>2021-08-18T08:16:27Z</time>
      </trkpt>
      <trkpt lat="43.88461" lon="1.64868">
        <ele>232.3</ele>
        <time>2021-08-18T08:16:28Z</time>
      </trkpt>
      <trkpt lat="43.88459" lon="1.64863">
        <ele>232.78</ele>
        <time>2021-08-18T08:16:29Z</time>
      </trkpt>
      <trkpt lat="43.88457" lon="1.64857">
        <ele>232.78</ele>
        <time>2021-08-18T08:16:30Z</time>
      </trkpt>
      <trkpt lat="43.88445" lon="1.64816">
        <ele>234.22</ele>
        <time>2021-08-18T08:16:38Z</time>
      </trkpt>
      <trkpt lat="43.88438" lon="1.64799">
        <ele>236.14</ele>
        <time>2021-08-18T08:16:45Z</time>
      </trkpt>
      <trkpt lat="43.88427" lon="1.64778">
        <ele>238.54</ele>
        <time>2021-08-18T08:16:55Z</time>
      </trkpt>
      <trkpt lat="43.88415" lon="1.64762">
        <ele>239.99</ele>
        <time>2021-08-18T08:17:03Z</time>
      </trkpt>
      <trkpt lat="43.88398" lon="1.64739">
        <ele>240.47</ele>
        <time>2021-08-18T08:17:10Z</time>
      </trkpt>
      <trkpt lat="43.88381" lon="1.6472">
        <ele>237.58</ele>
        <time>2021-08-18T08:17:14Z</time>
      </trkpt>
      <trkpt lat="43.88375" lon="1.64714">
        <ele>237.58</ele>
        <time>2021-08-18T08:17:15Z</time>
      </trkpt>
      <trkpt lat="43.88331" lon="1.64664">
        <ele>235.18</ele>
        <time>2021-08-18T08:17:23Z</time>
      </trkpt>
      <trkpt lat="43.88321" lon="1.64649">
        <ele>234.7</ele>
        <time>2021-08-18T08:17:25Z</time>
      </trkpt>
      <trkpt lat="43.88316" lon="1.6464">
        <ele>234.7</ele>
        <time>2021-08-18T08:17:26Z</time>
      </trkpt>
      <trkpt lat="43.88304" lon="1.64614">
        <ele>234.22</ele>
        <time>2021-08-18T08:17:29Z</time>
      </trkpt>
      <trkpt lat="43.883" lon="1.64605">
        <ele>234.22</ele>
        <time>2021-08-18T08:17:30Z</time>
      </trkpt>
      <trkpt lat="43.88298" lon="1.64596">
        <ele>234.22</ele>
        <time>2021-08-18T08:17:31Z</time>
      </trkpt>
      <trkpt lat="43.88296" lon="1.64586">
        <ele>234.22</ele>
        <time>2021-08-18T08:17:32Z</time>
      </trkpt>
      <trkpt lat="43.88296" lon="1.64576">
        <ele>234.22</ele>
        <time>2021-08-18T08:17:33Z</time>
      </trkpt>
      <trkpt lat="43.88297" lon="1.64568">
        <ele>234.22</ele>
        <time>2021-08-18T08:17:34Z</time>
      </trkpt>
      <trkpt lat="43.88298" lon="1.64558">
        <ele>234.22</ele>
        <time>2021-08-18T08:17:35Z</time>
      </trkpt>
      <trkpt lat="43.88299" lon="1.64549">
        <ele>234.22</ele>
        <time>2021-08-18T08:17:36Z</time>
      </trkpt>
      <trkpt lat="43.8831" lon="1.64476">
        <ele>235.66</ele>
        <time>2021-08-18T08:17:45Z</time>
      </trkpt>
      <trkpt lat="43.88316" lon="1.64414">
        <ele>236.14</ele>
        <time>2021-08-18T08:17:53Z</time>
      </trkpt>
      <trkpt lat="43.88316" lon="1.64399">
        <ele>236.62</ele>
        <time>2021-08-18T08:17:55Z</time>
      </trkpt>
      <trkpt lat="43.88315" lon="1.64392">
        <ele>236.62</ele>
        <time>2021-08-18T08:17:56Z</time>
      </trkpt>
      <trkpt lat="43.88313" lon="1.64385">
        <ele>237.1</ele>
        <time>2021-08-18T08:17:57Z</time>
      </trkpt>
      <trkpt lat="43.88294" lon="1.64333">
        <ele>237.58</ele>
        <time>2021-08-18T08:18:05Z</time>
      </trkpt>
      <trkpt lat="43.88286" lon="1.64308">
        <ele>234.7</ele>
        <time>2021-08-18T08:18:08Z</time>
      </trkpt>
      <trkpt lat="43.88277" lon="1.64275">
        <ele>231.33</ele>
        <time>2021-08-18T08:18:11Z</time>
      </trkpt>
      <trkpt lat="43.88267" lon="1.64237">
        <ele>227.97</ele>
        <time>2021-08-18T08:18:14Z</time>
      </trkpt>
      <trkpt lat="43.88236" lon="1.64162">
        <ele>226.53</ele>
        <time>2021-08-18T08:18:20Z</time>
      </trkpt>
      <trkpt lat="43.88179" lon="1.64067">
        <ele>223.64</ele>
        <time>2021-08-18T08:18:29Z</time>
      </trkpt>
      <trkpt lat="43.88143" lon="1.64031">
        <ele>223.64</ele>
        <time>2021-08-18T08:18:34Z</time>
      </trkpt>
      <trkpt lat="43.88116" lon="1.6401">
        <ele>226.53</ele>
        <time>2021-08-18T08:18:39Z</time>
      </trkpt>
      <trkpt lat="43.88112" lon="1.64006">
        <ele>227.49</ele>
        <time>2021-08-18T08:18:40Z</time>
      </trkpt>
      <trkpt lat="43.88108" lon="1.64003">
        <ele>227.49</ele>
        <time>2021-08-18T08:18:41Z</time>
      </trkpt>
      <trkpt lat="43.88105" lon="1.64">
        <ele>227.49</ele>
        <time>2021-08-18T08:18:42Z</time>
      </trkpt>
      <trkpt lat="43.88069" lon="1.63966">
        <ele>227.49</ele>
        <time>2021-08-18T08:18:51Z</time>
      </trkpt>
      <trkpt lat="43.88053" lon="1.63948">
        <ele>229.41</ele>
        <time>2021-08-18T08:18:57Z</time>
      </trkpt>
      <trkpt lat="43.88041" lon="1.63932">
        <ele>231.33</ele>
        <time>2021-08-18T08:19:05Z</time>
      </trkpt>
      <trkpt lat="43.88026" lon="1.63915">
        <ele>233.74</ele>
        <time>2021-08-18T08:19:13Z</time>
      </trkpt>
      <trkpt lat="43.88008" lon="1.63892">
        <ele>234.7</ele>
        <time>2021-08-18T08:19:21Z</time>
      </trkpt>
      <trkpt lat="43.88009" lon="1.63875">
        <ele>234.7</ele>
        <time>2021-08-18T08:19:25Z</time>
      </trkpt>
      <trkpt lat="43.88025" lon="1.63838">
        <ele>235.18</ele>
        <time>2021-08-18T08:19:33Z</time>
      </trkpt>
      <trkpt lat="43.88048" lon="1.63796">
        <ele>235.18</ele>
        <time>2021-08-18T08:19:41Z</time>
      </trkpt>
      <trkpt lat="43.88067" lon="1.63768">
        <ele>235.18</ele>
        <time>2021-08-18T08:19:47Z</time>
      </trkpt>
      <trkpt lat="43.8807" lon="1.63763">
        <ele>235.66</ele>
        <time>2021-08-18T08:19:48Z</time>
      </trkpt>
      <trkpt lat="43.88083" lon="1.63737">
        <ele>235.66</ele>
        <time>2021-08-18T08:19:53Z</time>
      </trkpt>
      <trkpt lat="43.88085" lon="1.63731">
        <ele>235.66</ele>
        <time>2021-08-18T08:19:54Z</time>
      </trkpt>
      <trkpt lat="43.88089" lon="1.63711">
        <ele>235.66</ele>
        <time>2021-08-18T08:19:57Z</time>
      </trkpt>
      <trkpt lat="43.88089" lon="1.63696">
        <ele>235.66</ele>
        <time>2021-08-18T08:19:59Z</time>
      </trkpt>
      <trkpt lat="43.88088" lon="1.63619">
        <ele>232.3</ele>
        <time>2021-08-18T08:20:08Z</time>
      </trkpt>
      <trkpt lat="43.88087" lon="1.63558">
        <ele>230.37</ele>
        <time>2021-08-18T08:20:14Z</time>
      </trkpt>
      <trkpt lat="43.88082" lon="1.63452">
        <ele>227.97</ele>
        <time>2021-08-18T08:20:23Z</time>
      </trkpt>
      <trkpt lat="43.88072" lon="1.63367">
        <ele>227.49</ele>
        <time>2021-08-18T08:20:31Z</time>
      </trkpt>
      <trkpt lat="43.88065" lon="1.63313">
        <ele>228.93</ele>
        <time>2021-08-18T08:20:37Z</time>
      </trkpt>
      <trkpt lat="43.88055" lon="1.6323">
        <ele>228.93</ele>
        <time>2021-08-18T08:20:47Z</time>
      </trkpt>
      <trkpt lat="43.88045" lon="1.63145">
        <ele>229.89</ele>
        <time>2021-08-18T08:20:58Z</time>
      </trkpt>
      <trkpt lat="43.88029" lon="1.63065">
        <ele>228.45</ele>
        <time>2021-08-18T08:21:08Z</time>
      </trkpt>
      <trkpt lat="43.88026" lon="1.63056">
        <ele>228.45</ele>
        <time>2021-08-18T08:21:09Z</time>
      </trkpt>
      <trkpt lat="43.88011" lon="1.63014">
        <ele>227.97</ele>
        <time>2021-08-18T08:21:14Z</time>
      </trkpt>
      <trkpt lat="43.88004" lon="1.63">
        <ele>227.97</ele>
        <time>2021-08-18T08:21:16Z</time>
      </trkpt>
      <trkpt lat="43.87981" lon="1.62973">
        <ele>227.97</ele>
        <time>2021-08-18T08:21:21Z</time>
      </trkpt>
      <trkpt lat="43.87976" lon="1.62968">
        <ele>227.97</ele>
        <time>2021-08-18T08:21:22Z</time>
      </trkpt>
      <trkpt lat="43.87936" lon="1.62916">
        <ele>225.09</ele>
        <time>2021-08-18T08:21:31Z</time>
      </trkpt>
      <trkpt lat="43.87914" lon="1.62887">
        <ele>221.72</ele>
        <time>2021-08-18T08:21:35Z</time>
      </trkpt>
      <trkpt lat="43.87908" lon="1.62879">
        <ele>221.72</ele>
        <time>2021-08-18T08:21:36Z</time>
      </trkpt>
      <trkpt lat="43.87879" lon="1.62838">
        <ele>220.28</ele>
        <time>2021-08-18T08:21:41Z</time>
      </trkpt>
      <trkpt lat="43.87875" lon="1.62829">
        <ele>219.32</ele>
        <time>2021-08-18T08:21:42Z</time>
      </trkpt>
      <trkpt lat="43.87872" lon="1.62819">
        <ele>219.32</ele>
        <time>2021-08-18T08:21:43Z</time>
      </trkpt>
      <trkpt lat="43.8787" lon="1.62808">
        <ele>219.32</ele>
        <time>2021-08-18T08:21:44Z</time>
      </trkpt>
      <trkpt lat="43.87869" lon="1.62797">
        <ele>218.36</ele>
        <time>2021-08-18T08:21:45Z</time>
      </trkpt>
      <trkpt lat="43.87868" lon="1.62786">
        <ele>217.88</ele>
        <time>2021-08-18T08:21:46Z</time>
      </trkpt>
      <trkpt lat="43.87867" lon="1.62775">
        <ele>217.88</ele>
        <time>2021-08-18T08:21:47Z</time>
      </trkpt>
      <trkpt lat="43.87865" lon="1.62729">
        <ele>215.47</ele>
        <time>2021-08-18T08:21:51Z</time>
      </trkpt>
      <trkpt lat="43.87864" lon="1.62707">
        <ele>214.99</ele>
        <time>2021-08-18T08:21:53Z</time>
      </trkpt>
      <trkpt lat="43.87864" lon="1.62696">
        <ele>214.03</ele>
        <time>2021-08-18T08:21:54Z</time>
      </trkpt>
      <trkpt lat="43.87865" lon="1.62685">
        <ele>213.55</ele>
        <time>2021-08-18T08:21:55Z</time>
      </trkpt>
      <trkpt lat="43.87867" lon="1.62675">
        <ele>213.55</ele>
        <time>2021-08-18T08:21:56Z</time>
      </trkpt>
      <trkpt lat="43.8787" lon="1.62665">
        <ele>212.59</ele>
        <time>2021-08-18T08:21:57Z</time>
      </trkpt>
      <trkpt lat="43.87873" lon="1.62655">
        <ele>212.59</ele>
        <time>2021-08-18T08:21:58Z</time>
      </trkpt>
      <trkpt lat="43.87886" lon="1.62612">
        <ele>209.22</ele>
        <time>2021-08-18T08:22:02Z</time>
      </trkpt>
      <trkpt lat="43.87896" lon="1.62577">
        <ele>207.3</ele>
        <time>2021-08-18T08:22:05Z</time>
      </trkpt>
      <trkpt lat="43.87911" lon="1.62528">
        <ele>204.42</ele>
        <time>2021-08-18T08:22:09Z</time>
      </trkpt>
      <trkpt lat="43.87916" lon="1.62517">
        <ele>203.94</ele>
        <time>2021-08-18T08:22:10Z</time>
      </trkpt>
      <trkpt lat="43.87935" lon="1.62485">
        <ele>200.57</ele>
        <time>2021-08-18T08:22:13Z</time>
      </trkpt>
      <trkpt lat="43.87969" lon="1.62429">
        <ele>197.21</ele>
        <time>2021-08-18T08:22:19Z</time>
      </trkpt>
      <trkpt lat="43.87997" lon="1.62383">
        <ele>193.84</ele>
        <time>2021-08-18T08:22:24Z</time>
      </trkpt>
      <trkpt lat="43.88011" lon="1.62357">
        <ele>192.4</ele>
        <time>2021-08-18T08:22:27Z</time>
      </trkpt>
      <trkpt lat="43.88014" lon="1.62349">
        <ele>191.92</ele>
        <time>2021-08-18T08:22:28Z</time>
      </trkpt>
      <trkpt lat="43.88016" lon="1.62342">
        <ele>191.92</ele>
        <time>2021-08-18T08:22:29Z</time>
      </trkpt>
      <trkpt lat="43.88016" lon="1.62334">
        <ele>191.44</ele>
        <time>2021-08-18T08:22:30Z</time>
      </trkpt>
      <trkpt lat="43.88014" lon="1.62327">
        <ele>190.96</ele>
        <time>2021-08-18T08:22:31Z</time>
      </trkpt>
      <trkpt lat="43.88011" lon="1.62321">
        <ele>190.48</ele>
        <time>2021-08-18T08:22:32Z</time>
      </trkpt>
      <trkpt lat="43.88006" lon="1.62316">
        <ele>190.48</ele>
        <time>2021-08-18T08:22:33Z</time>
      </trkpt>
      <trkpt lat="43.88001" lon="1.62312">
        <ele>189.52</ele>
        <time>2021-08-18T08:22:34Z</time>
      </trkpt>
      <trkpt lat="43.87995" lon="1.62308">
        <ele>189.04</ele>
        <time>2021-08-18T08:22:35Z</time>
      </trkpt>
      <trkpt lat="43.87989" lon="1.62305">
        <ele>188.08</ele>
        <time>2021-08-18T08:22:36Z</time>
      </trkpt>
      <trkpt lat="43.87983" lon="1.62303">
        <ele>187.59</ele>
        <time>2021-08-18T08:22:37Z</time>
      </trkpt>
      <trkpt lat="43.87977" lon="1.62301">
        <ele>187.11</ele>
        <time>2021-08-18T08:22:38Z</time>
      </trkpt>
      <trkpt lat="43.8797" lon="1.62301">
        <ele>186.15</ele>
        <time>2021-08-18T08:22:39Z</time>
      </trkpt>
      <trkpt lat="43.87963" lon="1.62301">
        <ele>185.19</ele>
        <time>2021-08-18T08:22:40Z</time>
      </trkpt>
      <trkpt lat="43.87956" lon="1.62301">
        <ele>184.71</ele>
        <time>2021-08-18T08:22:41Z</time>
      </trkpt>
      <trkpt lat="43.87948" lon="1.62303">
        <ele>183.75</ele>
        <time>2021-08-18T08:22:42Z</time>
      </trkpt>
      <trkpt lat="43.87941" lon="1.62306">
        <ele>183.27</ele>
        <time>2021-08-18T08:22:43Z</time>
      </trkpt>
      <trkpt lat="43.87934" lon="1.6231">
        <ele>182.79</ele>
        <time>2021-08-18T08:22:44Z</time>
      </trkpt>
      <trkpt lat="43.87927" lon="1.62315">
        <ele>181.83</ele>
        <time>2021-08-18T08:22:45Z</time>
      </trkpt>
      <trkpt lat="43.8792" lon="1.6232">
        <ele>181.35</ele>
        <time>2021-08-18T08:22:46Z</time>
      </trkpt>
      <trkpt lat="43.87892" lon="1.62342">
        <ele>178.46</ele>
        <time>2021-08-18T08:22:50Z</time>
      </trkpt>
      <trkpt lat="43.87868" lon="1.62357">
        <ele>175.58</ele>
        <time>2021-08-18T08:22:54Z</time>
      </trkpt>
      <trkpt lat="43.87863" lon="1.62359">
        <ele>175.58</ele>
        <time>2021-08-18T08:22:55Z</time>
      </trkpt>
      <trkpt lat="43.87857" lon="1.62359">
        <ele>174.62</ele>
        <time>2021-08-18T08:22:56Z</time>
      </trkpt>
      <trkpt lat="43.87851" lon="1.62358">
        <ele>173.17</ele>
        <time>2021-08-18T08:22:57Z</time>
      </trkpt>
      <trkpt lat="43.87844" lon="1.62356">
        <ele>172.69</ele>
        <time>2021-08-18T08:22:58Z</time>
      </trkpt>
      <trkpt lat="43.87815" lon="1.62346">
        <ele>169.81</ele>
        <time>2021-08-18T08:23:02Z</time>
      </trkpt>
      <trkpt lat="43.87808" lon="1.62345">
        <ele>169.33</ele>
        <time>2021-08-18T08:23:03Z</time>
      </trkpt>
      <trkpt lat="43.87801" lon="1.62345">
        <ele>167.89</ele>
        <time>2021-08-18T08:23:04Z</time>
      </trkpt>
      <trkpt lat="43.87768" lon="1.6235">
        <ele>164.52</ele>
        <time>2021-08-18T08:23:08Z</time>
      </trkpt>
      <trkpt lat="43.87738" lon="1.62355">
        <ele>161.16</ele>
        <time>2021-08-18T08:23:12Z</time>
      </trkpt>
      <trkpt lat="43.87732" lon="1.62354">
        <ele>160.2</ele>
        <time>2021-08-18T08:23:13Z</time>
      </trkpt>
      <trkpt lat="43.87726" lon="1.62351">
        <ele>159.24</ele>
        <time>2021-08-18T08:23:14Z</time>
      </trkpt>
      <trkpt lat="43.87722" lon="1.62344">
        <ele>158.75</ele>
        <time>2021-08-18T08:23:15Z</time>
      </trkpt>
      <trkpt lat="43.87719" lon="1.62335">
        <ele>157.79</ele>
        <time>2021-08-18T08:23:16Z</time>
      </trkpt>
      <trkpt lat="43.87717" lon="1.62326">
        <ele>156.83</ele>
        <time>2021-08-18T08:23:17Z</time>
      </trkpt>
      <trkpt lat="43.87707" lon="1.62287">
        <ele>154.91</ele>
        <time>2021-08-18T08:23:21Z</time>
      </trkpt>
      <trkpt lat="43.87682" lon="1.62192">
        <ele>152.03</ele>
        <time>2021-08-18T08:23:31Z</time>
      </trkpt>
      <trkpt lat="43.87672" lon="1.62165">
        <ele>151.54</ele>
        <time>2021-08-18T08:23:35Z</time>
      </trkpt>
      <trkpt lat="43.87669" lon="1.6216">
        <ele>151.54</ele>
        <time>2021-08-18T08:23:36Z</time>
      </trkpt>
      <trkpt lat="43.87665" lon="1.62157">
        <ele>151.54</ele>
        <time>2021-08-18T08:23:37Z</time>
      </trkpt>
      <trkpt lat="43.87662" lon="1.62155">
        <ele>151.06</ele>
        <time>2021-08-18T08:23:38Z</time>
      </trkpt>
      <trkpt lat="43.8766" lon="1.62152">
        <ele>151.06</ele>
        <time>2021-08-18T08:23:39Z</time>
      </trkpt>
      <trkpt lat="43.87658" lon="1.6215">
        <ele>151.54</ele>
        <time>2021-08-18T08:23:43Z</time>
      </trkpt>
      <trkpt lat="43.8766" lon="1.62151">
        <ele>151.06</ele>
        <time>2021-08-18T08:24:00Z</time>
      </trkpt>
      <trkpt lat="43.87662" lon="1.62151">
        <ele>151.06</ele>
        <time>2021-08-18T08:24:18Z</time>
      </trkpt>
      <trkpt lat="43.87662" lon="1.6215">
        <ele>151.06</ele>
        <time>2021-08-18T08:24:19Z</time>
      </trkpt>
      <trkpt lat="43.87663" lon="1.62149">
        <ele>151.06</ele>
        <time>2021-08-18T08:24:20Z</time>
      </trkpt>
      <trkpt lat="43.87665" lon="1.62148">
        <ele>151.06</ele>
        <time>2021-08-18T08:24:22Z</time>
      </trkpt>
      <trkpt lat="43.87675" lon="1.62149">
        <ele>151.06</ele>
        <time>2021-08-18T08:24:28Z</time>
      </trkpt>
      <trkpt lat="43.87685" lon="1.62137">
        <ele>150.58</ele>
        <time>2021-08-18T08:24:33Z</time>
      </trkpt>
      <trkpt lat="43.87692" lon="1.62131">
        <ele>152.03</ele>
        <time>2021-08-18T08:24:37Z</time>
      </trkpt>
      <trkpt lat="43.87711" lon="1.62121">
        <ele>152.51</ele>
        <time>2021-08-18T08:24:45Z</time>
      </trkpt>
      <trkpt lat="43.87728" lon="1.62114">
        <ele>153.95</ele>
        <time>2021-08-18T08:24:54Z</time>
      </trkpt>
      <trkpt lat="43.87739" lon="1.62109">
        <ele>154.91</ele>
        <time>2021-08-18T08:25:02Z</time>
      </trkpt>
      <trkpt lat="43.87755" lon="1.62098">
        <ele>156.35</ele>
        <time>2021-08-18T08:25:13Z</time>
      </trkpt>
      <trkpt lat="43.87761" lon="1.62087">
        <ele>157.79</ele>
        <time>2021-08-18T08:25:20Z</time>
      </trkpt>
      <trkpt lat="43.87769" lon="1.6207">
        <ele>158.75</ele>
        <time>2021-08-18T08:25:29Z</time>
      </trkpt>
      <trkpt lat="43.87776" lon="1.62053">
        <ele>160.2</ele>
        <time>2021-08-18T08:25:38Z</time>
      </trkpt>
      <trkpt lat="43.87781" lon="1.62033">
        <ele>161.64</ele>
        <time>2021-08-18T08:25:48Z</time>
      </trkpt>
      <trkpt lat="43.87782" lon="1.62017">
        <ele>163.08</ele>
        <time>2021-08-18T08:25:56Z</time>
      </trkpt>
      <trkpt lat="43.87783" lon="1.62004">
        <ele>164.04</ele>
        <time>2021-08-18T08:26:03Z</time>
      </trkpt>
      <trkpt lat="43.87781" lon="1.61987">
        <ele>165</ele>
        <time>2021-08-18T08:26:12Z</time>
      </trkpt>
      <trkpt lat="43.8778" lon="1.61975">
        <ele>165.96</ele>
        <time>2021-08-18T08:26:18Z</time>
      </trkpt>
      <trkpt lat="43.87776" lon="1.61962">
        <ele>166.93</ele>
        <time>2021-08-18T08:26:25Z</time>
      </trkpt>
      <trkpt lat="43.87775" lon="1.61958">
        <ele>167.41</ele>
        <time>2021-08-18T08:26:27Z</time>
      </trkpt>
      <trkpt lat="43.87772" lon="1.61933">
        <ele>168.37</ele>
        <time>2021-08-18T08:26:38Z</time>
      </trkpt>
      <trkpt lat="43.87773" lon="1.6191">
        <ele>169.81</ele>
        <time>2021-08-18T08:26:48Z</time>
      </trkpt>
      <trkpt lat="43.87772" lon="1.61902">
        <ele>170.29</ele>
        <time>2021-08-18T08:26:52Z</time>
      </trkpt>
      <trkpt lat="43.87772" lon="1.61897">
        <ele>170.77</ele>
        <time>2021-08-18T08:26:57Z</time>
      </trkpt>
      <trkpt lat="43.87776" lon="1.61914">
        <ele>170.29</ele>
        <time>2021-08-18T08:27:04Z</time>
      </trkpt>
      <trkpt lat="43.87787" lon="1.61913">
        <ele>167.41</ele>
        <time>2021-08-18T08:27:07Z</time>
      </trkpt>
      <trkpt lat="43.87809" lon="1.6191">
        <ele>162.12</ele>
        <time>2021-08-18T08:27:11Z</time>
      </trkpt>
      <trkpt lat="43.87819" lon="1.61911">
        <ele>160.2</ele>
        <time>2021-08-18T08:27:13Z</time>
      </trkpt>
      <trkpt lat="43.87838" lon="1.61917">
        <ele>156.83</ele>
        <time>2021-08-18T08:27:16Z</time>
      </trkpt>
      <trkpt lat="43.87855" lon="1.61924">
        <ele>156.35</ele>
        <time>2021-08-18T08:27:19Z</time>
      </trkpt>
      <trkpt lat="43.87865" lon="1.61934">
        <ele>157.79</ele>
        <time>2021-08-18T08:27:23Z</time>
      </trkpt>
      <trkpt lat="43.87867" lon="1.61939">
        <ele>158.27</ele>
        <time>2021-08-18T08:27:26Z</time>
      </trkpt>
      <trkpt lat="43.87872" lon="1.61953">
        <ele>160.2</ele>
        <time>2021-08-18T08:27:34Z</time>
      </trkpt>
      <trkpt lat="43.87876" lon="1.61969">
        <ele>161.16</ele>
        <time>2021-08-18T08:27:43Z</time>
      </trkpt>
      <trkpt lat="43.87877" lon="1.61972">
        <ele>161.64</ele>
        <time>2021-08-18T08:27:47Z</time>
      </trkpt>
      <trkpt lat="43.87882" lon="1.61979">
        <ele>162.6</ele>
        <time>2021-08-18T08:27:55Z</time>
      </trkpt>
      <trkpt lat="43.8789" lon="1.61975">
        <ele>164.52</ele>
        <time>2021-08-18T08:28:05Z</time>
      </trkpt>
      <trkpt lat="43.87892" lon="1.61964">
        <ele>165.96</ele>
        <time>2021-08-18T08:28:15Z</time>
      </trkpt>
      <trkpt lat="43.87893" lon="1.61957">
        <ele>167.41</ele>
        <time>2021-08-18T08:28:24Z</time>
      </trkpt>
      <trkpt lat="43.87895" lon="1.61947">
        <ele>168.85</ele>
        <time>2021-08-18T08:28:34Z</time>
      </trkpt>
      <trkpt lat="43.87898" lon="1.61938">
        <ele>170.77</ele>
        <time>2021-08-18T08:28:43Z</time>
      </trkpt>
      <trkpt lat="43.87901" lon="1.61929">
        <ele>171.73</ele>
        <time>2021-08-18T08:28:51Z</time>
      </trkpt>
      <trkpt lat="43.87906" lon="1.6192">
        <ele>173.17</ele>
        <time>2021-08-18T08:29:01Z</time>
      </trkpt>
      <trkpt lat="43.87907" lon="1.61917">
        <ele>174.14</ele>
        <time>2021-08-18T08:29:03Z</time>
      </trkpt>
      <trkpt lat="43.87914" lon="1.61907">
        <ele>175.1</ele>
        <time>2021-08-18T08:29:12Z</time>
      </trkpt>
      <trkpt lat="43.87923" lon="1.619">
        <ele>176.54</ele>
        <time>2021-08-18T08:29:23Z</time>
      </trkpt>
      <trkpt lat="43.87931" lon="1.61893">
        <ele>178.46</ele>
        <time>2021-08-18T08:29:33Z</time>
      </trkpt>
      <trkpt lat="43.87941" lon="1.6189">
        <ele>179.9</ele>
        <time>2021-08-18T08:29:42Z</time>
      </trkpt>
      <trkpt lat="43.87954" lon="1.61893">
        <ele>180.87</ele>
        <time>2021-08-18T08:29:52Z</time>
      </trkpt>
      <trkpt lat="43.87964" lon="1.61891">
        <ele>180.87</ele>
        <time>2021-08-18T08:30:00Z</time>
      </trkpt>
      <trkpt lat="43.87976" lon="1.61885">
        <ele>182.79</ele>
        <time>2021-08-18T08:30:11Z</time>
      </trkpt>
      <trkpt lat="43.87981" lon="1.61882">
        <ele>183.75</ele>
        <time>2021-08-18T08:30:18Z</time>
      </trkpt>
      <trkpt lat="43.87992" lon="1.61876">
        <ele>185.19</ele>
        <time>2021-08-18T08:30:29Z</time>
      </trkpt>
      <trkpt lat="43.88002" lon="1.61871">
        <ele>186.63</ele>
        <time>2021-08-18T08:30:41Z</time>
      </trkpt>
      <trkpt lat="43.8801" lon="1.61867">
        <ele>188.08</ele>
        <time>2021-08-18T08:30:51Z</time>
      </trkpt>
      <trkpt lat="43.88015" lon="1.61864">
        <ele>189.04</ele>
        <time>2021-08-18T08:30:59Z</time>
      </trkpt>
      <trkpt lat="43.88015" lon="1.61864">
        <ele>189.04</ele>
        <time>2021-08-18T08:31:09Z</time>
      </trkpt>
      <trkpt lat="43.88015" lon="1.61865">
        <ele>189.04</ele>
        <time>2021-08-18T08:31:16Z</time>
      </trkpt>
      <trkpt lat="43.88019" lon="1.61863">
        <ele>190</ele>
        <time>2021-08-18T08:31:22Z</time>
      </trkpt>
      <trkpt lat="43.88029" lon="1.61858">
        <ele>191.92</ele>
        <time>2021-08-18T08:31:33Z</time>
      </trkpt>
      <trkpt lat="43.88035" lon="1.61856">
        <ele>192.88</ele>
        <time>2021-08-18T08:31:39Z</time>
      </trkpt>
      <trkpt lat="43.88038" lon="1.61853">
        <ele>193.36</ele>
        <time>2021-08-18T08:31:47Z</time>
      </trkpt>
      <trkpt lat="43.88051" lon="1.61847">
        <ele>194.32</ele>
        <time>2021-08-18T08:31:56Z</time>
      </trkpt>
      <trkpt lat="43.88066" lon="1.61838">
        <ele>195.77</ele>
        <time>2021-08-18T08:32:05Z</time>
      </trkpt>
      <trkpt lat="43.88081" lon="1.61828">
        <ele>197.69</ele>
        <time>2021-08-18T08:32:15Z</time>
      </trkpt>
      <trkpt lat="43.88094" lon="1.6182">
        <ele>199.13</ele>
        <time>2021-08-18T08:32:24Z</time>
      </trkpt>
      <trkpt lat="43.88106" lon="1.61815">
        <ele>200.57</ele>
        <time>2021-08-18T08:32:34Z</time>
      </trkpt>
      <trkpt lat="43.8812" lon="1.61809">
        <ele>201.53</ele>
        <time>2021-08-18T08:32:43Z</time>
      </trkpt>
      <trkpt lat="43.88136" lon="1.61805">
        <ele>203.46</ele>
        <time>2021-08-18T08:32:53Z</time>
      </trkpt>
      <trkpt lat="43.8815" lon="1.61801">
        <ele>204.42</ele>
        <time>2021-08-18T08:33:01Z</time>
      </trkpt>
      <trkpt lat="43.88173" lon="1.61795">
        <ele>205.38</ele>
        <time>2021-08-18T08:33:12Z</time>
      </trkpt>
      <trkpt lat="43.88198" lon="1.61788">
        <ele>207.3</ele>
        <time>2021-08-18T08:33:23Z</time>
      </trkpt>
      <trkpt lat="43.88217" lon="1.61778">
        <ele>207.78</ele>
        <time>2021-08-18T08:33:32Z</time>
      </trkpt>
      <trkpt lat="43.88236" lon="1.61769">
        <ele>209.7</ele>
        <time>2021-08-18T08:33:41Z</time>
      </trkpt>
      <trkpt lat="43.88257" lon="1.61769">
        <ele>211.15</ele>
        <time>2021-08-18T08:33:51Z</time>
      </trkpt>
      <trkpt lat="43.88274" lon="1.61776">
        <ele>212.59</ele>
        <time>2021-08-18T08:34:01Z</time>
      </trkpt>
      <trkpt lat="43.8829" lon="1.61785">
        <ele>214.03</ele>
        <time>2021-08-18T08:34:11Z</time>
      </trkpt>
      <trkpt lat="43.88303" lon="1.61784">
        <ele>215.95</ele>
        <time>2021-08-18T08:34:19Z</time>
      </trkpt>
      <trkpt lat="43.88313" lon="1.61772">
        <ele>217.4</ele>
        <time>2021-08-18T08:34:27Z</time>
      </trkpt>
      <trkpt lat="43.88324" lon="1.61759">
        <ele>219.32</ele>
        <time>2021-08-18T08:34:35Z</time>
      </trkpt>
      <trkpt lat="43.88338" lon="1.61746">
        <ele>221.24</ele>
        <time>2021-08-18T08:34:44Z</time>
      </trkpt>
      <trkpt lat="43.88356" lon="1.61729">
        <ele>223.16</ele>
        <time>2021-08-18T08:34:54Z</time>
      </trkpt>
      <trkpt lat="43.88371" lon="1.61714">
        <ele>225.57</ele>
        <time>2021-08-18T08:35:03Z</time>
      </trkpt>
      <trkpt lat="43.88387" lon="1.61699">
        <ele>226.53</ele>
        <time>2021-08-18T08:35:11Z</time>
      </trkpt>
      <trkpt lat="43.88405" lon="1.61684">
        <ele>226.53</ele>
        <time>2021-08-18T08:35:18Z</time>
      </trkpt>
      <trkpt lat="43.88433" lon="1.61654">
        <ele>226.53</ele>
        <time>2021-08-18T08:35:28Z</time>
      </trkpt>
      <trkpt lat="43.88458" lon="1.61623">
        <ele>225.57</ele>
        <time>2021-08-18T08:35:36Z</time>
      </trkpt>
      <trkpt lat="43.88485" lon="1.61586">
        <ele>225.09</ele>
        <time>2021-08-18T08:35:44Z</time>
      </trkpt>
      <trkpt lat="43.88491" lon="1.61577">
        <ele>225.09</ele>
        <time>2021-08-18T08:35:46Z</time>
      </trkpt>
      <trkpt lat="43.88494" lon="1.61572">
        <ele>225.09</ele>
        <time>2021-08-18T08:35:47Z</time>
      </trkpt>
      <trkpt lat="43.88499" lon="1.61562">
        <ele>224.61</ele>
        <time>2021-08-18T08:35:49Z</time>
      </trkpt>
      <trkpt lat="43.88507" lon="1.61552">
        <ele>224.12</ele>
        <time>2021-08-18T08:35:51Z</time>
      </trkpt>
      <trkpt lat="43.88524" lon="1.61536">
        <ele>223.64</ele>
        <time>2021-08-18T08:35:55Z</time>
      </trkpt>
      <trkpt lat="43.88575" lon="1.61497">
        <ele>223.64</ele>
        <time>2021-08-18T08:36:06Z</time>
      </trkpt>
      <trkpt lat="43.88579" lon="1.61493">
        <ele>223.64</ele>
        <time>2021-08-18T08:36:07Z</time>
      </trkpt>
      <trkpt lat="43.88609" lon="1.61461">
        <ele>223.64</ele>
        <time>2021-08-18T08:36:14Z</time>
      </trkpt>
      <trkpt lat="43.88632" lon="1.61435">
        <ele>223.64</ele>
        <time>2021-08-18T08:36:20Z</time>
      </trkpt>
      <trkpt lat="43.88661" lon="1.61402">
        <ele>225.09</ele>
        <time>2021-08-18T08:36:28Z</time>
      </trkpt>
      <trkpt lat="43.88689" lon="1.61366">
        <ele>226.05</ele>
        <time>2021-08-18T08:36:37Z</time>
      </trkpt>
      <trkpt lat="43.88717" lon="1.61324">
        <ele>226.05</ele>
        <time>2021-08-18T08:36:46Z</time>
      </trkpt>
      <trkpt lat="43.88719" lon="1.61319">
        <ele>225.09</ele>
        <time>2021-08-18T08:36:47Z</time>
      </trkpt>
      <trkpt lat="43.88721" lon="1.61314">
        <ele>225.09</ele>
        <time>2021-08-18T08:36:48Z</time>
      </trkpt>
      <trkpt lat="43.88721" lon="1.61308">
        <ele>224.61</ele>
        <time>2021-08-18T08:36:49Z</time>
      </trkpt>
      <trkpt lat="43.8872" lon="1.61302">
        <ele>224.61</ele>
        <time>2021-08-18T08:36:50Z</time>
      </trkpt>
      <trkpt lat="43.88719" lon="1.61298">
        <ele>224.61</ele>
        <time>2021-08-18T08:36:51Z</time>
      </trkpt>
      <trkpt lat="43.88717" lon="1.61293">
        <ele>224.61</ele>
        <time>2021-08-18T08:36:52Z</time>
      </trkpt>
      <trkpt lat="43.88715" lon="1.61287">
        <ele>224.61</ele>
        <time>2021-08-18T08:36:53Z</time>
      </trkpt>
      <trkpt lat="43.88705" lon="1.61268">
        <ele>225.57</ele>
        <time>2021-08-18T08:36:57Z</time>
      </trkpt>
      <trkpt lat="43.88679" lon="1.61232">
        <ele>227.97</ele>
        <time>2021-08-18T08:37:06Z</time>
      </trkpt>
      <trkpt lat="43.88657" lon="1.61214">
        <ele>228.93</ele>
        <time>2021-08-18T08:37:13Z</time>
      </trkpt>
      <trkpt lat="43.88628" lon="1.61192">
        <ele>230.37</ele>
        <time>2021-08-18T08:37:22Z</time>
      </trkpt>
      <trkpt lat="43.88599" lon="1.61164">
        <ele>228.93</ele>
        <time>2021-08-18T08:37:29Z</time>
      </trkpt>
      <trkpt lat="43.88594" lon="1.6116">
        <ele>228.93</ele>
        <time>2021-08-18T08:37:30Z</time>
      </trkpt>
      <trkpt lat="43.88548" lon="1.61122">
        <ele>226.53</ele>
        <time>2021-08-18T08:37:38Z</time>
      </trkpt>
      <trkpt lat="43.88493" lon="1.61097">
        <ele>225.57</ele>
        <time>2021-08-18T08:37:46Z</time>
      </trkpt>
      <trkpt lat="43.88416" lon="1.61078">
        <ele>224.61</ele>
        <time>2021-08-18T08:37:57Z</time>
      </trkpt>
      <trkpt lat="43.88348" lon="1.6105">
        <ele>222.2</ele>
        <time>2021-08-18T08:38:06Z</time>
      </trkpt>
      <trkpt lat="43.88306" lon="1.61029">
        <ele>218.84</ele>
        <time>2021-08-18T08:38:11Z</time>
      </trkpt>
      <trkpt lat="43.8828" lon="1.61015">
        <ele>217.4</ele>
        <time>2021-08-18T08:38:14Z</time>
      </trkpt>
      <trkpt lat="43.88272" lon="1.61007">
        <ele>217.4</ele>
        <time>2021-08-18T08:38:15Z</time>
      </trkpt>
      <trkpt lat="43.88266" lon="1.60998">
        <ele>217.4</ele>
        <time>2021-08-18T08:38:16Z</time>
      </trkpt>
      <trkpt lat="43.8826" lon="1.60986">
        <ele>217.4</ele>
        <time>2021-08-18T08:38:17Z</time>
      </trkpt>
      <trkpt lat="43.88257" lon="1.60978">
        <ele>217.4</ele>
        <time>2021-08-18T08:38:18Z</time>
      </trkpt>
      <trkpt lat="43.88253" lon="1.60967">
        <ele>217.4</ele>
        <time>2021-08-18T08:38:19Z</time>
      </trkpt>
      <trkpt lat="43.88251" lon="1.60957">
        <ele>217.4</ele>
        <time>2021-08-18T08:38:20Z</time>
      </trkpt>
      <trkpt lat="43.88249" lon="1.60949">
        <ele>217.4</ele>
        <time>2021-08-18T08:38:21Z</time>
      </trkpt>
      <trkpt lat="43.88248" lon="1.6094">
        <ele>217.4</ele>
        <time>2021-08-18T08:38:22Z</time>
      </trkpt>
      <trkpt lat="43.88248" lon="1.60931">
        <ele>218.84</ele>
        <time>2021-08-18T08:38:23Z</time>
      </trkpt>
      <trkpt lat="43.88248" lon="1.60923">
        <ele>218.84</ele>
        <time>2021-08-18T08:38:24Z</time>
      </trkpt>
      <trkpt lat="43.88249" lon="1.60915">
        <ele>219.32</ele>
        <time>2021-08-18T08:38:25Z</time>
      </trkpt>
      <trkpt lat="43.88251" lon="1.60907">
        <ele>219.32</ele>
        <time>2021-08-18T08:38:26Z</time>
      </trkpt>
      <trkpt lat="43.88253" lon="1.60899">
        <ele>219.32</ele>
        <time>2021-08-18T08:38:27Z</time>
      </trkpt>
      <trkpt lat="43.88266" lon="1.60854">
        <ele>220.76</ele>
        <time>2021-08-18T08:38:33Z</time>
      </trkpt>
      <trkpt lat="43.88293" lon="1.60797">
        <ele>220.76</ele>
        <time>2021-08-18T08:38:41Z</time>
      </trkpt>
      <trkpt lat="43.88318" lon="1.60746">
        <ele>221.72</ele>
        <time>2021-08-18T08:38:48Z</time>
      </trkpt>
      <trkpt lat="43.88348" lon="1.60689">
        <ele>221.72</ele>
        <time>2021-08-18T08:38:57Z</time>
      </trkpt>
      <trkpt lat="43.88371" lon="1.60648">
        <ele>220.28</ele>
        <time>2021-08-18T08:39:03Z</time>
      </trkpt>
      <trkpt lat="43.88412" lon="1.60557">
        <ele>218.84</ele>
        <time>2021-08-18T08:39:14Z</time>
      </trkpt>
      <trkpt lat="43.8844" lon="1.60484">
        <ele>217.4</ele>
        <time>2021-08-18T08:39:22Z</time>
      </trkpt>
      <trkpt lat="43.88469" lon="1.60421">
        <ele>217.4</ele>
        <time>2021-08-18T08:39:30Z</time>
      </trkpt>
      <trkpt lat="43.88484" lon="1.60381">
        <ele>217.4</ele>
        <time>2021-08-18T08:39:35Z</time>
      </trkpt>
      <trkpt lat="43.88502" lon="1.60308">
        <ele>217.4</ele>
        <time>2021-08-18T08:39:44Z</time>
      </trkpt>
      <trkpt lat="43.88513" lon="1.60268">
        <ele>217.4</ele>
        <time>2021-08-18T08:39:49Z</time>
      </trkpt>
      <trkpt lat="43.88519" lon="1.6023">
        <ele>218.84</ele>
        <time>2021-08-18T08:39:54Z</time>
      </trkpt>
      <trkpt lat="43.8852" lon="1.60223">
        <ele>218.84</ele>
        <time>2021-08-18T08:39:55Z</time>
      </trkpt>
      <trkpt lat="43.8852" lon="1.60189">
        <ele>219.8</ele>
        <time>2021-08-18T08:40:00Z</time>
      </trkpt>
      <trkpt lat="43.88516" lon="1.60164">
        <ele>220.28</ele>
        <time>2021-08-18T08:40:04Z</time>
      </trkpt>
      <trkpt lat="43.885" lon="1.6012">
        <ele>222.2</ele>
        <time>2021-08-18T08:40:12Z</time>
      </trkpt>
      <trkpt lat="43.8848" lon="1.60072">
        <ele>222.68</ele>
        <time>2021-08-18T08:40:21Z</time>
      </trkpt>
      <trkpt lat="43.88467" lon="1.60023">
        <ele>223.16</ele>
        <time>2021-08-18T08:40:29Z</time>
      </trkpt>
      <trkpt lat="43.88458" lon="1.59974">
        <ele>224.12</ele>
        <time>2021-08-18T08:40:37Z</time>
      </trkpt>
      <trkpt lat="43.88448" lon="1.59908">
        <ele>222.2</ele>
        <time>2021-08-18T08:40:45Z</time>
      </trkpt>
      <trkpt lat="43.88434" lon="1.59813">
        <ele>219.32</ele>
        <time>2021-08-18T08:40:55Z</time>
      </trkpt>
      <trkpt lat="43.88419" lon="1.59718">
        <ele>216.43</ele>
        <time>2021-08-18T08:41:04Z</time>
      </trkpt>
      <trkpt lat="43.88407" lon="1.59664">
        <ele>214.99</ele>
        <time>2021-08-18T08:41:09Z</time>
      </trkpt>
      <trkpt lat="43.88405" lon="1.59654">
        <ele>214.99</ele>
        <time>2021-08-18T08:41:10Z</time>
      </trkpt>
      <trkpt lat="43.88391" lon="1.59597">
        <ele>213.55</ele>
        <time>2021-08-18T08:41:15Z</time>
      </trkpt>
      <trkpt lat="43.88388" lon="1.59586">
        <ele>213.07</ele>
        <time>2021-08-18T08:41:16Z</time>
      </trkpt>
      <trkpt lat="43.88368" lon="1.59528">
        <ele>213.07</ele>
        <time>2021-08-18T08:41:22Z</time>
      </trkpt>
      <trkpt lat="43.88355" lon="1.59497">
        <ele>213.07</ele>
        <time>2021-08-18T08:41:26Z</time>
      </trkpt>
      <trkpt lat="43.88348" lon="1.59475">
        <ele>213.07</ele>
        <time>2021-08-18T08:41:29Z</time>
      </trkpt>
      <trkpt lat="43.88345" lon="1.59469">
        <ele>213.07</ele>
        <time>2021-08-18T08:41:30Z</time>
      </trkpt>
      <trkpt lat="43.88342" lon="1.59463">
        <ele>214.03</ele>
        <time>2021-08-18T08:41:31Z</time>
      </trkpt>
      <trkpt lat="43.88338" lon="1.59458">
        <ele>214.03</ele>
        <time>2021-08-18T08:41:32Z</time>
      </trkpt>
      <trkpt lat="43.88334" lon="1.59453">
        <ele>214.51</ele>
        <time>2021-08-18T08:41:33Z</time>
      </trkpt>
      <trkpt lat="43.8833" lon="1.59448">
        <ele>214.51</ele>
        <time>2021-08-18T08:41:34Z</time>
      </trkpt>
      <trkpt lat="43.88327" lon="1.59443">
        <ele>214.51</ele>
        <time>2021-08-18T08:41:35Z</time>
      </trkpt>
      <trkpt lat="43.88299" lon="1.59392">
        <ele>214.99</ele>
        <time>2021-08-18T08:41:43Z</time>
      </trkpt>
      <trkpt lat="43.88291" lon="1.59371">
        <ele>214.99</ele>
        <time>2021-08-18T08:41:46Z</time>
      </trkpt>
      <trkpt lat="43.88272" lon="1.5931">
        <ele>214.99</ele>
        <time>2021-08-18T08:41:54Z</time>
      </trkpt>
      <trkpt lat="43.88243" lon="1.59231">
        <ele>214.99</ele>
        <time>2021-08-18T08:42:04Z</time>
      </trkpt>
      <trkpt lat="43.8824" lon="1.59223">
        <ele>214.03</ele>
        <time>2021-08-18T08:42:05Z</time>
      </trkpt>
      <trkpt lat="43.88236" lon="1.59216">
        <ele>214.03</ele>
        <time>2021-08-18T08:42:06Z</time>
      </trkpt>
      <trkpt lat="43.88231" lon="1.5921">
        <ele>214.03</ele>
        <time>2021-08-18T08:42:07Z</time>
      </trkpt>
      <trkpt lat="43.88225" lon="1.59206">
        <ele>214.03</ele>
        <time>2021-08-18T08:42:08Z</time>
      </trkpt>
      <trkpt lat="43.88219" lon="1.59203">
        <ele>213.55</ele>
        <time>2021-08-18T08:42:09Z</time>
      </trkpt>
      <trkpt lat="43.88211" lon="1.592">
        <ele>213.07</ele>
        <time>2021-08-18T08:42:10Z</time>
      </trkpt>
      <trkpt lat="43.88146" lon="1.5918">
        <ele>209.7</ele>
        <time>2021-08-18T08:42:19Z</time>
      </trkpt>
      <trkpt lat="43.88077" lon="1.59158">
        <ele>206.82</ele>
        <time>2021-08-18T08:42:27Z</time>
      </trkpt>
      <trkpt lat="43.88042" lon="1.59149">
        <ele>206.82</ele>
        <time>2021-08-18T08:42:31Z</time>
      </trkpt>
      <trkpt lat="43.88033" lon="1.59149">
        <ele>206.82</ele>
        <time>2021-08-18T08:42:32Z</time>
      </trkpt>
      <trkpt lat="43.88025" lon="1.59151">
        <ele>206.82</ele>
        <time>2021-08-18T08:42:33Z</time>
      </trkpt>
      <trkpt lat="43.88018" lon="1.59153">
        <ele>206.82</ele>
        <time>2021-08-18T08:42:34Z</time>
      </trkpt>
      <trkpt lat="43.8801" lon="1.59157">
        <ele>206.82</ele>
        <time>2021-08-18T08:42:35Z</time>
      </trkpt>
      <trkpt lat="43.87997" lon="1.59163">
        <ele>208.26</ele>
        <time>2021-08-18T08:42:37Z</time>
      </trkpt>
      <trkpt lat="43.87983" lon="1.59169">
        <ele>208.26</ele>
        <time>2021-08-18T08:42:39Z</time>
      </trkpt>
      <trkpt lat="43.87975" lon="1.59171">
        <ele>208.26</ele>
        <time>2021-08-18T08:42:40Z</time>
      </trkpt>
      <trkpt lat="43.87968" lon="1.59172">
        <ele>208.26</ele>
        <time>2021-08-18T08:42:41Z</time>
      </trkpt>
      <trkpt lat="43.87914" lon="1.59168">
        <ele>205.38</ele>
        <time>2021-08-18T08:42:48Z</time>
      </trkpt>
      <trkpt lat="43.87876" lon="1.59165">
        <ele>202.01</ele>
        <time>2021-08-18T08:42:52Z</time>
      </trkpt>
      <trkpt lat="43.87845" lon="1.5917">
        <ele>200.09</ele>
        <time>2021-08-18T08:42:55Z</time>
      </trkpt>
      <trkpt lat="43.87835" lon="1.59174">
        <ele>199.13</ele>
        <time>2021-08-18T08:42:56Z</time>
      </trkpt>
      <trkpt lat="43.87825" lon="1.59179">
        <ele>198.17</ele>
        <time>2021-08-18T08:42:57Z</time>
      </trkpt>
      <trkpt lat="43.87773" lon="1.59214">
        <ele>194.8</ele>
        <time>2021-08-18T08:43:02Z</time>
      </trkpt>
      <trkpt lat="43.87731" lon="1.59244">
        <ele>191.44</ele>
        <time>2021-08-18T08:43:06Z</time>
      </trkpt>
      <trkpt lat="43.87676" lon="1.59281">
        <ele>188.08</ele>
        <time>2021-08-18T08:43:11Z</time>
      </trkpt>
      <trkpt lat="43.87623" lon="1.59316">
        <ele>185.19</ele>
        <time>2021-08-18T08:43:16Z</time>
      </trkpt>
      <trkpt lat="43.87612" lon="1.59319">
        <ele>185.19</ele>
        <time>2021-08-18T08:43:17Z</time>
      </trkpt>
      <trkpt lat="43.87603" lon="1.59317">
        <ele>185.19</ele>
        <time>2021-08-18T08:43:18Z</time>
      </trkpt>
      <trkpt lat="43.87595" lon="1.59312">
        <ele>184.71</ele>
        <time>2021-08-18T08:43:19Z</time>
      </trkpt>
      <trkpt lat="43.87588" lon="1.59304">
        <ele>184.71</ele>
        <time>2021-08-18T08:43:20Z</time>
      </trkpt>
      <trkpt lat="43.87582" lon="1.59293">
        <ele>183.75</ele>
        <time>2021-08-18T08:43:21Z</time>
      </trkpt>
      <trkpt lat="43.87577" lon="1.59282">
        <ele>183.27</ele>
        <time>2021-08-18T08:43:22Z</time>
      </trkpt>
      <trkpt lat="43.87553" lon="1.5922">
        <ele>180.38</ele>
        <time>2021-08-18T08:43:27Z</time>
      </trkpt>
      <trkpt lat="43.87537" lon="1.59164">
        <ele>176.54</ele>
        <time>2021-08-18T08:43:31Z</time>
      </trkpt>
      <trkpt lat="43.87535" lon="1.59149">
        <ele>175.58</ele>
        <time>2021-08-18T08:43:32Z</time>
      </trkpt>
      <trkpt lat="43.87528" lon="1.59085">
        <ele>172.21</ele>
        <time>2021-08-18T08:43:36Z</time>
      </trkpt>
      <trkpt lat="43.87526" lon="1.59053">
        <ele>171.25</ele>
        <time>2021-08-18T08:43:38Z</time>
      </trkpt>
      <trkpt lat="43.87519" lon="1.59009">
        <ele>168.37</ele>
        <time>2021-08-18T08:43:41Z</time>
      </trkpt>
      <trkpt lat="43.87514" lon="1.58997">
        <ele>167.89</ele>
        <time>2021-08-18T08:43:42Z</time>
      </trkpt>
      <trkpt lat="43.87507" lon="1.58986">
        <ele>166.93</ele>
        <time>2021-08-18T08:43:43Z</time>
      </trkpt>
      <trkpt lat="43.87498" lon="1.58979">
        <ele>165.96</ele>
        <time>2021-08-18T08:43:44Z</time>
      </trkpt>
      <trkpt lat="43.87488" lon="1.58975">
        <ele>165.48</ele>
        <time>2021-08-18T08:43:45Z</time>
      </trkpt>
      <trkpt lat="43.87477" lon="1.58972">
        <ele>164.52</ele>
        <time>2021-08-18T08:43:46Z</time>
      </trkpt>
      <trkpt lat="43.87465" lon="1.58971">
        <ele>164.04</ele>
        <time>2021-08-18T08:43:47Z</time>
      </trkpt>
      <trkpt lat="43.87419" lon="1.58968">
        <ele>160.2</ele>
        <time>2021-08-18T08:43:51Z</time>
      </trkpt>
      <trkpt lat="43.87383" lon="1.58965">
        <ele>156.83</ele>
        <time>2021-08-18T08:43:54Z</time>
      </trkpt>
      <trkpt lat="43.87329" lon="1.58955">
        <ele>153.47</ele>
        <time>2021-08-18T08:43:59Z</time>
      </trkpt>
      <trkpt lat="43.8732" lon="1.58949">
        <ele>152.51</ele>
        <time>2021-08-18T08:44:00Z</time>
      </trkpt>
      <trkpt lat="43.87312" lon="1.5894">
        <ele>151.54</ele>
        <time>2021-08-18T08:44:01Z</time>
      </trkpt>
      <trkpt lat="43.87305" lon="1.58927">
        <ele>150.1</ele>
        <time>2021-08-18T08:44:02Z</time>
      </trkpt>
      <trkpt lat="43.87301" lon="1.58915">
        <ele>149.62</ele>
        <time>2021-08-18T08:44:03Z</time>
      </trkpt>
      <trkpt lat="43.87297" lon="1.58901">
        <ele>149.14</ele>
        <time>2021-08-18T08:44:04Z</time>
      </trkpt>
      <trkpt lat="43.87293" lon="1.58872">
        <ele>147.22</ele>
        <time>2021-08-18T08:44:06Z</time>
      </trkpt>
      <trkpt lat="43.87292" lon="1.58857">
        <ele>145.78</ele>
        <time>2021-08-18T08:44:07Z</time>
      </trkpt>
      <trkpt lat="43.87293" lon="1.58842">
        <ele>145.3</ele>
        <time>2021-08-18T08:44:08Z</time>
      </trkpt>
      <trkpt lat="43.873" lon="1.58796">
        <ele>142.89</ele>
        <time>2021-08-18T08:44:11Z</time>
      </trkpt>
      <trkpt lat="43.87301" lon="1.58781">
        <ele>141.93</ele>
        <time>2021-08-18T08:44:12Z</time>
      </trkpt>
      <trkpt lat="43.873" lon="1.58766">
        <ele>141.45</ele>
        <time>2021-08-18T08:44:13Z</time>
      </trkpt>
      <trkpt lat="43.87296" lon="1.58752">
        <ele>141.45</ele>
        <time>2021-08-18T08:44:14Z</time>
      </trkpt>
      <trkpt lat="43.8729" lon="1.58739">
        <ele>140.01</ele>
        <time>2021-08-18T08:44:15Z</time>
      </trkpt>
      <trkpt lat="43.87281" lon="1.58728">
        <ele>139.05</ele>
        <time>2021-08-18T08:44:16Z</time>
      </trkpt>
      <trkpt lat="43.87272" lon="1.58719">
        <ele>138.57</ele>
        <time>2021-08-18T08:44:17Z</time>
      </trkpt>
      <trkpt lat="43.87262" lon="1.58714">
        <ele>138.57</ele>
        <time>2021-08-18T08:44:18Z</time>
      </trkpt>
      <trkpt lat="43.87251" lon="1.58713">
        <ele>138.57</ele>
        <time>2021-08-18T08:44:19Z</time>
      </trkpt>
      <trkpt lat="43.87241" lon="1.58716">
        <ele>138.57</ele>
        <time>2021-08-18T08:44:20Z</time>
      </trkpt>
      <trkpt lat="43.87231" lon="1.58719">
        <ele>138.57</ele>
        <time>2021-08-18T08:44:21Z</time>
      </trkpt>
      <trkpt lat="43.87222" lon="1.58723">
        <ele>138.57</ele>
        <time>2021-08-18T08:44:22Z</time>
      </trkpt>
      <trkpt lat="43.87171" lon="1.58745">
        <ele>138.57</ele>
        <time>2021-08-18T08:44:28Z</time>
      </trkpt>
      <trkpt lat="43.87163" lon="1.58745">
        <ele>138.57</ele>
        <time>2021-08-18T08:44:29Z</time>
      </trkpt>
      <trkpt lat="43.87156" lon="1.58743">
        <ele>138.57</ele>
        <time>2021-08-18T08:44:30Z</time>
      </trkpt>
      <trkpt lat="43.87148" lon="1.58739">
        <ele>138.57</ele>
        <time>2021-08-18T08:44:31Z</time>
      </trkpt>
      <trkpt lat="43.87142" lon="1.58734">
        <ele>138.57</ele>
        <time>2021-08-18T08:44:32Z</time>
      </trkpt>
      <trkpt lat="43.87136" lon="1.58727">
        <ele>138.57</ele>
        <time>2021-08-18T08:44:33Z</time>
      </trkpt>
      <trkpt lat="43.87131" lon="1.5872">
        <ele>138.57</ele>
        <time>2021-08-18T08:44:34Z</time>
      </trkpt>
      <trkpt lat="43.87098" lon="1.58668">
        <ele>138.57</ele>
        <time>2021-08-18T08:44:41Z</time>
      </trkpt>
      <trkpt lat="43.8706" lon="1.58617">
        <ele>138.57</ele>
        <time>2021-08-18T08:44:49Z</time>
      </trkpt>
      <trkpt lat="43.87017" lon="1.58568">
        <ele>137.13</ele>
        <time>2021-08-18T08:44:58Z</time>
      </trkpt>
      <trkpt lat="43.86971" lon="1.58512">
        <ele>136.16</ele>
        <time>2021-08-18T08:45:07Z</time>
      </trkpt>
      <trkpt lat="43.86929" lon="1.58448">
        <ele>133.76</ele>
        <time>2021-08-18T08:45:15Z</time>
      </trkpt>
      <trkpt lat="43.86914" lon="1.58422">
        <ele>133.28</ele>
        <time>2021-08-18T08:45:18Z</time>
      </trkpt>
      <trkpt lat="43.86908" lon="1.58414">
        <ele>133.28</ele>
        <time>2021-08-18T08:45:19Z</time>
      </trkpt>
      <trkpt lat="43.86902" lon="1.58408">
        <ele>133.28</ele>
        <time>2021-08-18T08:45:20Z</time>
      </trkpt>
      <trkpt lat="43.86895" lon="1.58402">
        <ele>132.8</ele>
        <time>2021-08-18T08:45:21Z</time>
      </trkpt>
      <trkpt lat="43.86888" lon="1.58396">
        <ele>132.8</ele>
        <time>2021-08-18T08:45:22Z</time>
      </trkpt>
      <trkpt lat="43.8688" lon="1.58391">
        <ele>132.32</ele>
        <time>2021-08-18T08:45:23Z</time>
      </trkpt>
      <trkpt lat="43.86837" lon="1.58366">
        <ele>132.32</ele>
        <time>2021-08-18T08:45:29Z</time>
      </trkpt>
      <trkpt lat="43.86831" lon="1.58366">
        <ele>132.32</ele>
        <time>2021-08-18T08:45:30Z</time>
      </trkpt>
      <trkpt lat="43.86824" lon="1.58367">
        <ele>132.32</ele>
        <time>2021-08-18T08:45:31Z</time>
      </trkpt>
      <trkpt lat="43.86818" lon="1.58369">
        <ele>132.32</ele>
        <time>2021-08-18T08:45:32Z</time>
      </trkpt>
      <trkpt lat="43.86811" lon="1.58371">
        <ele>132.32</ele>
        <time>2021-08-18T08:45:33Z</time>
      </trkpt>
      <trkpt lat="43.86804" lon="1.58372">
        <ele>132.32</ele>
        <time>2021-08-18T08:45:34Z</time>
      </trkpt>
      <trkpt lat="43.86797" lon="1.58372">
        <ele>132.32</ele>
        <time>2021-08-18T08:45:35Z</time>
      </trkpt>
      <trkpt lat="43.8679" lon="1.58371">
        <ele>132.32</ele>
        <time>2021-08-18T08:45:36Z</time>
      </trkpt>
      <trkpt lat="43.86783" lon="1.58366">
        <ele>131.84</ele>
        <time>2021-08-18T08:45:37Z</time>
      </trkpt>
      <trkpt lat="43.86777" lon="1.58361">
        <ele>131.84</ele>
        <time>2021-08-18T08:45:38Z</time>
      </trkpt>
      <trkpt lat="43.86772" lon="1.58354">
        <ele>131.84</ele>
        <time>2021-08-18T08:45:39Z</time>
      </trkpt>
      <trkpt lat="43.86767" lon="1.58345">
        <ele>131.84</ele>
        <time>2021-08-18T08:45:40Z</time>
      </trkpt>
      <trkpt lat="43.86763" lon="1.58337">
        <ele>131.84</ele>
        <time>2021-08-18T08:45:41Z</time>
      </trkpt>
      <trkpt lat="43.86759" lon="1.58329">
        <ele>131.84</ele>
        <time>2021-08-18T08:45:42Z</time>
      </trkpt>
      <trkpt lat="43.86725" lon="1.58264">
        <ele>131.36</ele>
        <time>2021-08-18T08:45:50Z</time>
      </trkpt>
      <trkpt lat="43.86697" lon="1.58221">
        <ele>131.36</ele>
        <time>2021-08-18T08:45:56Z</time>
      </trkpt>
      <trkpt lat="43.86642" lon="1.58152">
        <ele>131.36</ele>
        <time>2021-08-18T08:46:07Z</time>
      </trkpt>
      <trkpt lat="43.86603" lon="1.58102">
        <ele>131.36</ele>
        <time>2021-08-18T08:46:15Z</time>
      </trkpt>
      <trkpt lat="43.8658" lon="1.58085">
        <ele>130.4</ele>
        <time>2021-08-18T08:46:19Z</time>
      </trkpt>
      <trkpt lat="43.8653" lon="1.58067">
        <ele>130.4</ele>
        <time>2021-08-18T08:46:27Z</time>
      </trkpt>
      <trkpt lat="43.86489" lon="1.58056">
        <ele>129.43</ele>
        <time>2021-08-18T08:46:34Z</time>
      </trkpt>
      <trkpt lat="43.86456" lon="1.58045">
        <ele>129.43</ele>
        <time>2021-08-18T08:46:40Z</time>
      </trkpt>
      <trkpt lat="43.86452" lon="1.58041">
        <ele>129.43</ele>
        <time>2021-08-18T08:46:41Z</time>
      </trkpt>
      <trkpt lat="43.86448" lon="1.58035">
        <ele>129.43</ele>
        <time>2021-08-18T08:46:42Z</time>
      </trkpt>
      <trkpt lat="43.86446" lon="1.5803">
        <ele>129.43</ele>
        <time>2021-08-18T08:46:43Z</time>
      </trkpt>
      <trkpt lat="43.86443" lon="1.58023">
        <ele>129.43</ele>
        <time>2021-08-18T08:46:44Z</time>
      </trkpt>
      <trkpt lat="43.86442" lon="1.58016">
        <ele>129.43</ele>
        <time>2021-08-18T08:46:45Z</time>
      </trkpt>
      <trkpt lat="43.8644" lon="1.58008">
        <ele>129.43</ele>
        <time>2021-08-18T08:46:46Z</time>
      </trkpt>
      <trkpt lat="43.8644" lon="1.58">
        <ele>129.43</ele>
        <time>2021-08-18T08:46:47Z</time>
      </trkpt>
      <trkpt lat="43.86438" lon="1.57973">
        <ele>130.4</ele>
        <time>2021-08-18T08:46:51Z</time>
      </trkpt>
      <trkpt lat="43.86434" lon="1.57922">
        <ele>132.32</ele>
        <time>2021-08-18T08:47:00Z</time>
      </trkpt>
      <trkpt lat="43.86424" lon="1.57874">
        <ele>134.24</ele>
        <time>2021-08-18T08:47:10Z</time>
      </trkpt>
      <trkpt lat="43.86413" lon="1.57844">
        <ele>134.24</ele>
        <time>2021-08-18T08:47:16Z</time>
      </trkpt>
      <trkpt lat="43.86394" lon="1.5779">
        <ele>131.84</ele>
        <time>2021-08-18T08:47:23Z</time>
      </trkpt>
      <trkpt lat="43.86371" lon="1.57724">
        <ele>129.43</ele>
        <time>2021-08-18T08:47:30Z</time>
      </trkpt>
      <trkpt lat="43.86337" lon="1.57627">
        <ele>128.95</ele>
        <time>2021-08-18T08:47:40Z</time>
      </trkpt>
      <trkpt lat="43.86324" lon="1.57568">
        <ele>130.88</ele>
        <time>2021-08-18T08:47:47Z</time>
      </trkpt>
      <trkpt lat="43.86311" lon="1.57499">
        <ele>131.84</ele>
        <time>2021-08-18T08:47:56Z</time>
      </trkpt>
      <trkpt lat="43.86295" lon="1.57428">
        <ele>129.92</ele>
        <time>2021-08-18T08:48:04Z</time>
      </trkpt>
      <trkpt lat="43.8628" lon="1.57365">
        <ele>129.92</ele>
        <time>2021-08-18T08:48:12Z</time>
      </trkpt>
      <trkpt lat="43.86269" lon="1.57314">
        <ele>129.92</ele>
        <time>2021-08-18T08:48:19Z</time>
      </trkpt>
      <trkpt lat="43.8625" lon="1.57246">
        <ele>129.92</ele>
        <time>2021-08-18T08:48:28Z</time>
      </trkpt>
      <trkpt lat="43.86226" lon="1.57171">
        <ele>129.92</ele>
        <time>2021-08-18T08:48:38Z</time>
      </trkpt>
      <trkpt lat="43.86199" lon="1.57111">
        <ele>128.95</ele>
        <time>2021-08-18T08:48:46Z</time>
      </trkpt>
      <trkpt lat="43.86163" lon="1.57057">
        <ele>128.47</ele>
        <time>2021-08-18T08:48:54Z</time>
      </trkpt>
      <trkpt lat="43.86122" lon="1.56996">
        <ele>128.47</ele>
        <time>2021-08-18T08:49:03Z</time>
      </trkpt>
      <trkpt lat="43.86086" lon="1.5693">
        <ele>127.99</ele>
        <time>2021-08-18T08:49:12Z</time>
      </trkpt>
      <trkpt lat="43.86059" lon="1.56883">
        <ele>127.99</ele>
        <time>2021-08-18T08:49:19Z</time>
      </trkpt>
      <trkpt lat="43.86053" lon="1.56871">
        <ele>127.99</ele>
        <time>2021-08-18T08:49:21Z</time>
      </trkpt>
      <trkpt lat="43.86023" lon="1.56816">
        <ele>128.95</ele>
        <time>2021-08-18T08:49:30Z</time>
      </trkpt>
      <trkpt lat="43.85997" lon="1.56766">
        <ele>127.51</ele>
        <time>2021-08-18T08:49:37Z</time>
      </trkpt>
      <trkpt lat="43.85984" lon="1.56742">
        <ele>126.55</ele>
        <time>2021-08-18T08:49:40Z</time>
      </trkpt>
      <trkpt lat="43.85954" lon="1.56695">
        <ele>124.15</ele>
        <time>2021-08-18T08:49:46Z</time>
      </trkpt>
      <trkpt lat="43.85912" lon="1.56633">
        <ele>122.71</ele>
        <time>2021-08-18T08:49:54Z</time>
      </trkpt>
      <trkpt lat="43.85878" lon="1.56567">
        <ele>122.22</ele>
        <time>2021-08-18T08:50:02Z</time>
      </trkpt>
      <trkpt lat="43.85863" lon="1.56517">
        <ele>122.71</ele>
        <time>2021-08-18T08:50:08Z</time>
      </trkpt>
      <trkpt lat="43.8584" lon="1.56433">
        <ele>122.22</ele>
        <time>2021-08-18T08:50:18Z</time>
      </trkpt>
      <trkpt lat="43.85816" lon="1.56385">
        <ele>122.22</ele>
        <time>2021-08-18T08:50:25Z</time>
      </trkpt>
      <trkpt lat="43.85788" lon="1.56339">
        <ele>123.19</ele>
        <time>2021-08-18T08:50:32Z</time>
      </trkpt>
      <trkpt lat="43.85781" lon="1.56328">
        <ele>123.19</ele>
        <time>2021-08-18T08:50:34Z</time>
      </trkpt>
      <trkpt lat="43.85778" lon="1.56322">
        <ele>123.19</ele>
        <time>2021-08-18T08:50:35Z</time>
      </trkpt>
      <trkpt lat="43.85751" lon="1.56256">
        <ele>123.67</ele>
        <time>2021-08-18T08:50:45Z</time>
      </trkpt>
      <trkpt lat="43.85733" lon="1.562">
        <ele>122.22</ele>
        <time>2021-08-18T08:50:52Z</time>
      </trkpt>
      <trkpt lat="43.85725" lon="1.56147">
        <ele>122.22</ele>
        <time>2021-08-18T08:50:58Z</time>
      </trkpt>
      <trkpt lat="43.85725" lon="1.56108">
        <ele>123.67</ele>
        <time>2021-08-18T08:51:03Z</time>
      </trkpt>
      <trkpt lat="43.85724" lon="1.56102">
        <ele>123.67</ele>
        <time>2021-08-18T08:51:04Z</time>
      </trkpt>
      <trkpt lat="43.85724" lon="1.56078">
        <ele>124.63</ele>
        <time>2021-08-18T08:51:07Z</time>
      </trkpt>
      <trkpt lat="43.85723" lon="1.56072">
        <ele>124.63</ele>
        <time>2021-08-18T08:51:08Z</time>
      </trkpt>
      <trkpt lat="43.85722" lon="1.56036">
        <ele>124.63</ele>
        <time>2021-08-18T08:51:13Z</time>
      </trkpt>
      <trkpt lat="43.85714" lon="1.5598">
        <ele>124.63</ele>
        <time>2021-08-18T08:51:20Z</time>
      </trkpt>
      <trkpt lat="43.85708" lon="1.55955">
        <ele>123.19</ele>
        <time>2021-08-18T08:51:23Z</time>
      </trkpt>
      <trkpt lat="43.85689" lon="1.55869">
        <ele>122.71</ele>
        <time>2021-08-18T08:51:33Z</time>
      </trkpt>
      <trkpt lat="43.85668" lon="1.55798">
        <ele>122.71</ele>
        <time>2021-08-18T08:51:42Z</time>
      </trkpt>
      <trkpt lat="43.85654" lon="1.55756">
        <ele>124.15</ele>
        <time>2021-08-18T08:51:48Z</time>
      </trkpt>
      <trkpt lat="43.85634" lon="1.55698">
        <ele>122.71</ele>
        <time>2021-08-18T08:51:56Z</time>
      </trkpt>
      <trkpt lat="43.85632" lon="1.5569">
        <ele>122.71</ele>
        <time>2021-08-18T08:51:57Z</time>
      </trkpt>
      <trkpt lat="43.85622" lon="1.55652">
        <ele>121.26</ele>
        <time>2021-08-18T08:52:01Z</time>
      </trkpt>
      <trkpt lat="43.85611" lon="1.55598">
        <ele>117.9</ele>
        <time>2021-08-18T08:52:06Z</time>
      </trkpt>
      <trkpt lat="43.85609" lon="1.55586">
        <ele>117.9</ele>
        <time>2021-08-18T08:52:07Z</time>
      </trkpt>
      <trkpt lat="43.85594" lon="1.55544">
        <ele>117.42</ele>
        <time>2021-08-18T08:52:11Z</time>
      </trkpt>
      <trkpt lat="43.85562" lon="1.55491">
        <ele>116.94</ele>
        <time>2021-08-18T08:52:17Z</time>
      </trkpt>
      <trkpt lat="43.85525" lon="1.55433">
        <ele>118.38</ele>
        <time>2021-08-18T08:52:25Z</time>
      </trkpt>
      <trkpt lat="43.85481" lon="1.55362">
        <ele>117.42</ele>
        <time>2021-08-18T08:52:35Z</time>
      </trkpt>
      <trkpt lat="43.85437" lon="1.55309">
        <ele>116.46</ele>
        <time>2021-08-18T08:52:43Z</time>
      </trkpt>
      <trkpt lat="43.85393" lon="1.55263">
        <ele>116.46</ele>
        <time>2021-08-18T08:52:51Z</time>
      </trkpt>
      <trkpt lat="43.85383" lon="1.55253">
        <ele>116.46</ele>
        <time>2021-08-18T08:52:53Z</time>
      </trkpt>
      <trkpt lat="43.85378" lon="1.55247">
        <ele>116.46</ele>
        <time>2021-08-18T08:52:54Z</time>
      </trkpt>
      <trkpt lat="43.85337" lon="1.55203">
        <ele>118.86</ele>
        <time>2021-08-18T08:53:03Z</time>
      </trkpt>
      <trkpt lat="43.85303" lon="1.55165">
        <ele>119.82</ele>
        <time>2021-08-18T08:53:12Z</time>
      </trkpt>
      <trkpt lat="43.8527" lon="1.55132">
        <ele>119.82</ele>
        <time>2021-08-18T08:53:20Z</time>
      </trkpt>
      <trkpt lat="43.85231" lon="1.55088">
        <ele>117.42</ele>
        <time>2021-08-18T08:53:28Z</time>
      </trkpt>
      <trkpt lat="43.85199" lon="1.5503">
        <ele>115.01</ele>
        <time>2021-08-18T08:53:35Z</time>
      </trkpt>
      <trkpt lat="43.85172" lon="1.5498">
        <ele>114.53</ele>
        <time>2021-08-18T08:53:41Z</time>
      </trkpt>
      <trkpt lat="43.85136" lon="1.54918">
        <ele>114.53</ele>
        <time>2021-08-18T08:53:49Z</time>
      </trkpt>
      <trkpt lat="43.85125" lon="1.54895">
        <ele>114.53</ele>
        <time>2021-08-18T08:53:52Z</time>
      </trkpt>
      <trkpt lat="43.85106" lon="1.54834">
        <ele>116.46</ele>
        <time>2021-08-18T08:54:00Z</time>
      </trkpt>
      <trkpt lat="43.851" lon="1.54813">
        <ele>117.42</ele>
        <time>2021-08-18T08:54:03Z</time>
      </trkpt>
      <trkpt lat="43.85083" lon="1.5477">
        <ele>117.42</ele>
        <time>2021-08-18T08:54:10Z</time>
      </trkpt>
      <trkpt lat="43.85052" lon="1.54733">
        <ele>117.9</ele>
        <time>2021-08-18T08:54:18Z</time>
      </trkpt>
      <trkpt lat="43.8502" lon="1.5471">
        <ele>116.94</ele>
        <time>2021-08-18T08:54:24Z</time>
      </trkpt>
      <trkpt lat="43.84973" lon="1.5468">
        <ele>114.05</ele>
        <time>2021-08-18T08:54:31Z</time>
      </trkpt>
      <trkpt lat="43.84965" lon="1.54676">
        <ele>114.05</ele>
        <time>2021-08-18T08:54:32Z</time>
      </trkpt>
      <trkpt lat="43.84914" lon="1.54657">
        <ele>112.13</ele>
        <time>2021-08-18T08:54:38Z</time>
      </trkpt>
      <trkpt lat="43.84843" lon="1.54635">
        <ele>111.65</ele>
        <time>2021-08-18T08:54:47Z</time>
      </trkpt>
      <trkpt lat="43.84795" lon="1.54614">
        <ele>111.65</ele>
        <time>2021-08-18T08:54:54Z</time>
      </trkpt>
      <trkpt lat="43.8474" lon="1.54588">
        <ele>109.73</ele>
        <time>2021-08-18T08:55:01Z</time>
      </trkpt>
      <trkpt lat="43.84678" lon="1.54561">
        <ele>109.25</ele>
        <time>2021-08-18T08:55:09Z</time>
      </trkpt>
      <trkpt lat="43.84636" lon="1.54547">
        <ele>109.25</ele>
        <time>2021-08-18T08:55:15Z</time>
      </trkpt>
      <trkpt lat="43.84577" lon="1.54527">
        <ele>109.25</ele>
        <time>2021-08-18T08:55:24Z</time>
      </trkpt>
      <trkpt lat="43.84526" lon="1.5451">
        <ele>108.77</ele>
        <time>2021-08-18T08:55:31Z</time>
      </trkpt>
      <trkpt lat="43.84465" lon="1.54492">
        <ele>107.32</ele>
        <time>2021-08-18T08:55:39Z</time>
      </trkpt>
      <trkpt lat="43.84457" lon="1.54486">
        <ele>107.32</ele>
        <time>2021-08-18T08:55:40Z</time>
      </trkpt>
      <trkpt lat="43.84451" lon="1.54481">
        <ele>107.32</ele>
        <time>2021-08-18T08:55:41Z</time>
      </trkpt>
      <trkpt lat="43.84444" lon="1.54474">
        <ele>106.84</ele>
        <time>2021-08-18T08:55:42Z</time>
      </trkpt>
      <trkpt lat="43.84439" lon="1.54468">
        <ele>106.84</ele>
        <time>2021-08-18T08:55:43Z</time>
      </trkpt>
      <trkpt lat="43.84383" lon="1.54408">
        <ele>105.88</ele>
        <time>2021-08-18T08:55:52Z</time>
      </trkpt>
      <trkpt lat="43.8437" lon="1.54397">
        <ele>104.92</ele>
        <time>2021-08-18T08:55:54Z</time>
      </trkpt>
      <trkpt lat="43.84325" lon="1.54372">
        <ele>104.92</ele>
        <time>2021-08-18T08:56:01Z</time>
      </trkpt>
      <trkpt lat="43.84313" lon="1.54365">
        <ele>104.92</ele>
        <time>2021-08-18T08:56:03Z</time>
      </trkpt>
      <trkpt lat="43.84307" lon="1.54362">
        <ele>104.92</ele>
        <time>2021-08-18T08:56:04Z</time>
      </trkpt>
      <trkpt lat="43.84285" lon="1.54346">
        <ele>104.92</ele>
        <time>2021-08-18T08:56:08Z</time>
      </trkpt>
      <trkpt lat="43.8428" lon="1.54343">
        <ele>104.92</ele>
        <time>2021-08-18T08:56:09Z</time>
      </trkpt>
      <trkpt lat="43.84274" lon="1.54339">
        <ele>104.92</ele>
        <time>2021-08-18T08:56:10Z</time>
      </trkpt>
      <trkpt lat="43.84264" lon="1.54333">
        <ele>104.92</ele>
        <time>2021-08-18T08:56:12Z</time>
      </trkpt>
      <trkpt lat="43.84259" lon="1.54329">
        <ele>106.36</ele>
        <time>2021-08-18T08:56:13Z</time>
      </trkpt>
      <trkpt lat="43.84254" lon="1.54325">
        <ele>106.36</ele>
        <time>2021-08-18T08:56:14Z</time>
      </trkpt>
      <trkpt lat="43.84249" lon="1.54321">
        <ele>106.36</ele>
        <time>2021-08-18T08:56:15Z</time>
      </trkpt>
      <trkpt lat="43.84243" lon="1.54318">
        <ele>106.36</ele>
        <time>2021-08-18T08:56:16Z</time>
      </trkpt>
      <trkpt lat="43.84203" lon="1.54282">
        <ele>107.32</ele>
        <time>2021-08-18T08:56:25Z</time>
      </trkpt>
      <trkpt lat="43.84176" lon="1.54256">
        <ele>107.32</ele>
        <time>2021-08-18T08:56:31Z</time>
      </trkpt>
      <trkpt lat="43.84152" lon="1.54227">
        <ele>107.81</ele>
        <time>2021-08-18T08:56:37Z</time>
      </trkpt>
      <trkpt lat="43.84149" lon="1.54221">
        <ele>107.81</ele>
        <time>2021-08-18T08:56:38Z</time>
      </trkpt>
      <trkpt lat="43.84146" lon="1.54215">
        <ele>107.81</ele>
        <time>2021-08-18T08:56:39Z</time>
      </trkpt>
      <trkpt lat="43.84144" lon="1.54208">
        <ele>107.81</ele>
        <time>2021-08-18T08:56:40Z</time>
      </trkpt>
      <trkpt lat="43.84142" lon="1.54201">
        <ele>107.81</ele>
        <time>2021-08-18T08:56:41Z</time>
      </trkpt>
      <trkpt lat="43.8414" lon="1.54193">
        <ele>107.81</ele>
        <time>2021-08-18T08:56:42Z</time>
      </trkpt>
      <trkpt lat="43.84139" lon="1.54186">
        <ele>107.81</ele>
        <time>2021-08-18T08:56:43Z</time>
      </trkpt>
      <trkpt lat="43.84139" lon="1.54178">
        <ele>107.81</ele>
        <time>2021-08-18T08:56:44Z</time>
      </trkpt>
      <trkpt lat="43.8413" lon="1.54108">
        <ele>107.81</ele>
        <time>2021-08-18T08:56:53Z</time>
      </trkpt>
      <trkpt lat="43.84126" lon="1.54093">
        <ele>107.81</ele>
        <time>2021-08-18T08:56:55Z</time>
      </trkpt>
      <trkpt lat="43.84123" lon="1.54086">
        <ele>107.81</ele>
        <time>2021-08-18T08:56:56Z</time>
      </trkpt>
      <trkpt lat="43.8412" lon="1.54081">
        <ele>107.81</ele>
        <time>2021-08-18T08:56:57Z</time>
      </trkpt>
      <trkpt lat="43.84116" lon="1.54075">
        <ele>107.81</ele>
        <time>2021-08-18T08:56:58Z</time>
      </trkpt>
      <trkpt lat="43.84112" lon="1.5407">
        <ele>107.81</ele>
        <time>2021-08-18T08:56:59Z</time>
      </trkpt>
      <trkpt lat="43.84078" lon="1.54028">
        <ele>108.29</ele>
        <time>2021-08-18T08:57:08Z</time>
      </trkpt>
      <trkpt lat="43.84056" lon="1.54001">
        <ele>108.77</ele>
        <time>2021-08-18T08:57:14Z</time>
      </trkpt>
      <trkpt lat="43.84053" lon="1.53996">
        <ele>108.77</ele>
        <time>2021-08-18T08:57:15Z</time>
      </trkpt>
      <trkpt lat="43.84028" lon="1.5396">
        <ele>108.77</ele>
        <time>2021-08-18T08:57:23Z</time>
      </trkpt>
      <trkpt lat="43.84022" lon="1.53951">
        <ele>108.77</ele>
        <time>2021-08-18T08:57:25Z</time>
      </trkpt>
      <trkpt lat="43.84019" lon="1.53948">
        <ele>108.77</ele>
        <time>2021-08-18T08:57:26Z</time>
      </trkpt>
      <trkpt lat="43.84004" lon="1.53919">
        <ele>108.77</ele>
        <time>2021-08-18T08:57:32Z</time>
      </trkpt>
      <trkpt lat="43.83982" lon="1.53872">
        <ele>107.32</ele>
        <time>2021-08-18T08:57:40Z</time>
      </trkpt>
      <trkpt lat="43.83955" lon="1.53814">
        <ele>106.84</ele>
        <time>2021-08-18T08:57:49Z</time>
      </trkpt>
      <trkpt lat="43.8395" lon="1.538">
        <ele>107.32</ele>
        <time>2021-08-18T08:57:51Z</time>
      </trkpt>
      <trkpt lat="43.83949" lon="1.53792">
        <ele>107.32</ele>
        <time>2021-08-18T08:57:52Z</time>
      </trkpt>
      <trkpt lat="43.83949" lon="1.53784">
        <ele>107.32</ele>
        <time>2021-08-18T08:57:53Z</time>
      </trkpt>
      <trkpt lat="43.8395" lon="1.53776">
        <ele>107.32</ele>
        <time>2021-08-18T08:57:54Z</time>
      </trkpt>
      <trkpt lat="43.83953" lon="1.5377">
        <ele>107.32</ele>
        <time>2021-08-18T08:57:55Z</time>
      </trkpt>
      <trkpt lat="43.83957" lon="1.53764">
        <ele>107.32</ele>
        <time>2021-08-18T08:57:56Z</time>
      </trkpt>
      <trkpt lat="43.8396" lon="1.53758">
        <ele>107.32</ele>
        <time>2021-08-18T08:57:57Z</time>
      </trkpt>
      <trkpt lat="43.83981" lon="1.53722">
        <ele>106.36</ele>
        <time>2021-08-18T08:58:03Z</time>
      </trkpt>
      <trkpt lat="43.83993" lon="1.53702">
        <ele>106.36</ele>
        <time>2021-08-18T08:58:07Z</time>
      </trkpt>
      <trkpt lat="43.83998" lon="1.53698">
        <ele>106.36</ele>
        <time>2021-08-18T08:58:08Z</time>
      </trkpt>
      <trkpt lat="43.84002" lon="1.53696">
        <ele>106.36</ele>
        <time>2021-08-18T08:58:09Z</time>
      </trkpt>
      <trkpt lat="43.84008" lon="1.53697">
        <ele>106.36</ele>
        <time>2021-08-18T08:58:10Z</time>
      </trkpt>
      <trkpt lat="43.84011" lon="1.53699">
        <ele>106.36</ele>
        <time>2021-08-18T08:58:11Z</time>
      </trkpt>
      <trkpt lat="43.84016" lon="1.53703">
        <ele>106.36</ele>
        <time>2021-08-18T08:58:12Z</time>
      </trkpt>
      <trkpt lat="43.84019" lon="1.53706">
        <ele>107.81</ele>
        <time>2021-08-18T08:58:13Z</time>
      </trkpt>
      <trkpt lat="43.8404" lon="1.53722">
        <ele>108.29</ele>
        <time>2021-08-18T08:58:19Z</time>
      </trkpt>
      <trkpt lat="43.84043" lon="1.53721">
        <ele>108.29</ele>
        <time>2021-08-18T08:58:20Z</time>
      </trkpt>
      <trkpt lat="43.84047" lon="1.53717">
        <ele>108.29</ele>
        <time>2021-08-18T08:58:21Z</time>
      </trkpt>
      <trkpt lat="43.84048" lon="1.53714">
        <ele>108.29</ele>
        <time>2021-08-18T08:58:22Z</time>
      </trkpt>
      <trkpt lat="43.84051" lon="1.5371">
        <ele>108.29</ele>
        <time>2021-08-18T08:58:23Z</time>
      </trkpt>
      <trkpt lat="43.84073" lon="1.53677">
        <ele>108.29</ele>
        <time>2021-08-18T08:58:30Z</time>
      </trkpt>
      <trkpt lat="43.84081" lon="1.53666">
        <ele>106.36</ele>
        <time>2021-08-18T08:58:32Z</time>
      </trkpt>
      <trkpt lat="43.84109" lon="1.53643">
        <ele>103.96</ele>
        <time>2021-08-18T08:58:37Z</time>
      </trkpt>
      <trkpt lat="43.84117" lon="1.53639">
        <ele>103.48</ele>
        <time>2021-08-18T08:58:38Z</time>
      </trkpt>
      <trkpt lat="43.84153" lon="1.53624">
        <ele>103</ele>
        <time>2021-08-18T08:58:43Z</time>
      </trkpt>
      <trkpt lat="43.84158" lon="1.53618">
        <ele>103</ele>
        <time>2021-08-18T08:58:44Z</time>
      </trkpt>
      <trkpt lat="43.84163" lon="1.53611">
        <ele>102.04</ele>
        <time>2021-08-18T08:58:45Z</time>
      </trkpt>
      <trkpt lat="43.84166" lon="1.53603">
        <ele>102.52</ele>
        <time>2021-08-18T08:58:46Z</time>
      </trkpt>
      <trkpt lat="43.84169" lon="1.53594">
        <ele>102.52</ele>
        <time>2021-08-18T08:58:47Z</time>
      </trkpt>
      <trkpt lat="43.84173" lon="1.53587">
        <ele>102.52</ele>
        <time>2021-08-18T08:58:48Z</time>
      </trkpt>
      <trkpt lat="43.84177" lon="1.53581">
        <ele>102.52</ele>
        <time>2021-08-18T08:58:49Z</time>
      </trkpt>
      <trkpt lat="43.84179" lon="1.53575">
        <ele>102.52</ele>
        <time>2021-08-18T08:58:50Z</time>
      </trkpt>
      <trkpt lat="43.84179" lon="1.53569">
        <ele>102.52</ele>
        <time>2021-08-18T08:58:51Z</time>
      </trkpt>
      <trkpt lat="43.8418" lon="1.53564">
        <ele>102.52</ele>
        <time>2021-08-18T08:58:52Z</time>
      </trkpt>
      <trkpt lat="43.8418" lon="1.53558">
        <ele>102.52</ele>
        <time>2021-08-18T08:58:53Z</time>
      </trkpt>
      <trkpt lat="43.84181" lon="1.53554">
        <ele>102.52</ele>
        <time>2021-08-18T08:58:54Z</time>
      </trkpt>
      <trkpt lat="43.84181" lon="1.5355">
        <ele>102.52</ele>
        <time>2021-08-18T08:58:55Z</time>
      </trkpt>
      <trkpt lat="43.84182" lon="1.53546">
        <ele>102.52</ele>
        <time>2021-08-18T08:58:56Z</time>
      </trkpt>
      <trkpt lat="43.84183" lon="1.53543">
        <ele>102.52</ele>
        <time>2021-08-18T08:58:57Z</time>
      </trkpt>
      <trkpt lat="43.84183" lon="1.53539">
        <ele>102.52</ele>
        <time>2021-08-18T08:58:58Z</time>
      </trkpt>
      <trkpt lat="43.84184" lon="1.53521">
        <ele>103.96</ele>
        <time>2021-08-18T08:59:03Z</time>
      </trkpt>
      <trkpt lat="43.84186" lon="1.53495">
        <ele>105.4</ele>
        <time>2021-08-18T08:59:12Z</time>
      </trkpt>
      <trkpt lat="43.84187" lon="1.53471">
        <ele>106.36</ele>
        <time>2021-08-18T08:59:21Z</time>
      </trkpt>
      <trkpt lat="43.84188" lon="1.53452">
        <ele>108.29</ele>
        <time>2021-08-18T08:59:29Z</time>
      </trkpt>
      <trkpt lat="43.8419" lon="1.53447">
        <ele>108.29</ele>
        <time>2021-08-18T08:59:31Z</time>
      </trkpt>
      <trkpt lat="43.84191" lon="1.53446">
        <ele>108.29</ele>
        <time>2021-08-18T08:59:32Z</time>
      </trkpt>
      <trkpt lat="43.84193" lon="1.53445">
        <ele>108.29</ele>
        <time>2021-08-18T08:59:33Z</time>
      </trkpt>
      <trkpt lat="43.84195" lon="1.53444">
        <ele>108.29</ele>
        <time>2021-08-18T08:59:34Z</time>
      </trkpt>
      <trkpt lat="43.84197" lon="1.53443">
        <ele>108.77</ele>
        <time>2021-08-18T08:59:38Z</time>
      </trkpt>
      <trkpt lat="43.84203" lon="1.5344">
        <ele>110.21</ele>
        <time>2021-08-18T08:59:49Z</time>
      </trkpt>
      <trkpt lat="43.8421" lon="1.5344">
        <ele>111.65</ele>
        <time>2021-08-18T08:59:58Z</time>
      </trkpt>
      <trkpt lat="43.84219" lon="1.53442">
        <ele>113.57</ele>
        <time>2021-08-18T09:00:08Z</time>
      </trkpt>
      <trkpt lat="43.84228" lon="1.53444">
        <ele>114.53</ele>
        <time>2021-08-18T09:00:17Z</time>
      </trkpt>
      <trkpt lat="43.84238" lon="1.53444">
        <ele>115.98</ele>
        <time>2021-08-18T09:00:28Z</time>
      </trkpt>
      <trkpt lat="43.84246" lon="1.53447">
        <ele>117.42</ele>
        <time>2021-08-18T09:00:38Z</time>
      </trkpt>
      <trkpt lat="43.84255" lon="1.53454">
        <ele>119.34</ele>
        <time>2021-08-18T09:00:50Z</time>
      </trkpt>
      <trkpt lat="43.84261" lon="1.53462">
        <ele>121.26</ele>
        <time>2021-08-18T09:01:01Z</time>
      </trkpt>
      <trkpt lat="43.84268" lon="1.5347">
        <ele>123.67</ele>
        <time>2021-08-18T09:01:13Z</time>
      </trkpt>
      <trkpt lat="43.84272" lon="1.53475">
        <ele>124.63</ele>
        <time>2021-08-18T09:01:21Z</time>
      </trkpt>
      <trkpt lat="43.84277" lon="1.53478">
        <ele>125.59</ele>
        <time>2021-08-18T09:01:26Z</time>
      </trkpt>
      <trkpt lat="43.84284" lon="1.53484">
        <ele>127.03</ele>
        <time>2021-08-18T09:01:34Z</time>
      </trkpt>
      <trkpt lat="43.84289" lon="1.53486">
        <ele>128.47</ele>
        <time>2021-08-18T09:01:40Z</time>
      </trkpt>
      <trkpt lat="43.84296" lon="1.5349">
        <ele>129.43</ele>
        <time>2021-08-18T09:01:49Z</time>
      </trkpt>
      <trkpt lat="43.84305" lon="1.53495">
        <ele>131.36</ele>
        <time>2021-08-18T09:02:00Z</time>
      </trkpt>
      <trkpt lat="43.84312" lon="1.53497">
        <ele>132.8</ele>
        <time>2021-08-18T09:02:09Z</time>
      </trkpt>
      <trkpt lat="43.84319" lon="1.53499">
        <ele>135.2</ele>
        <time>2021-08-18T09:02:20Z</time>
      </trkpt>
      <trkpt lat="43.84327" lon="1.535">
        <ele>137.13</ele>
        <time>2021-08-18T09:02:31Z</time>
      </trkpt>
      <trkpt lat="43.84332" lon="1.53502">
        <ele>138.57</ele>
        <time>2021-08-18T09:02:39Z</time>
      </trkpt>
      <trkpt lat="43.84337" lon="1.53501">
        <ele>140.49</ele>
        <time>2021-08-18T09:02:47Z</time>
      </trkpt>
      <trkpt lat="43.84343" lon="1.53499">
        <ele>141.93</ele>
        <time>2021-08-18T09:02:57Z</time>
      </trkpt>
      <trkpt lat="43.84349" lon="1.53493">
        <ele>144.34</ele>
        <time>2021-08-18T09:03:09Z</time>
      </trkpt>
      <trkpt lat="43.84349" lon="1.53483">
        <ele>146.26</ele>
        <time>2021-08-18T09:03:19Z</time>
      </trkpt>
      <trkpt lat="43.84349" lon="1.5348">
        <ele>146.74</ele>
        <time>2021-08-18T09:03:21Z</time>
      </trkpt>
      <trkpt lat="43.84344" lon="1.53468">
        <ele>147.7</ele>
        <time>2021-08-18T09:03:30Z</time>
      </trkpt>
      <trkpt lat="43.84343" lon="1.53457">
        <ele>148.66</ele>
        <time>2021-08-18T09:03:38Z</time>
      </trkpt>
      <trkpt lat="43.84343" lon="1.53456">
        <ele>149.14</ele>
        <time>2021-08-18T09:03:39Z</time>
      </trkpt>
      <trkpt lat="43.84348" lon="1.53439">
        <ele>150.1</ele>
        <time>2021-08-18T09:03:50Z</time>
      </trkpt>
      <trkpt lat="43.84352" lon="1.5343">
        <ele>151.06</ele>
        <time>2021-08-18T09:04:01Z</time>
      </trkpt>
      <trkpt lat="43.84353" lon="1.53431">
        <ele>151.06</ele>
        <time>2021-08-18T09:04:10Z</time>
      </trkpt>
      <trkpt lat="43.84354" lon="1.53429">
        <ele>151.06</ele>
        <time>2021-08-18T09:04:36Z</time>
      </trkpt>
      <trkpt lat="43.84353" lon="1.53434">
        <ele>151.06</ele>
        <time>2021-08-18T09:04:54Z</time>
      </trkpt>
      <trkpt lat="43.84353" lon="1.53436">
        <ele>151.06</ele>
        <time>2021-08-18T09:05:19Z</time>
      </trkpt>
      <trkpt lat="43.84353" lon="1.53432">
        <ele>151.06</ele>
        <time>2021-08-18T09:05:27Z</time>
      </trkpt>
      <trkpt lat="43.84356" lon="1.53418">
        <ele>152.03</ele>
        <time>2021-08-18T09:05:35Z</time>
      </trkpt>
      <trkpt lat="43.84358" lon="1.53406">
        <ele>153.95</ele>
        <time>2021-08-18T09:05:42Z</time>
      </trkpt>
      <trkpt lat="43.8436" lon="1.53391">
        <ele>155.39</ele>
        <time>2021-08-18T09:05:51Z</time>
      </trkpt>
      <trkpt lat="43.84361" lon="1.5338">
        <ele>157.31</ele>
        <time>2021-08-18T09:06:00Z</time>
      </trkpt>
      <trkpt lat="43.84363" lon="1.5337">
        <ele>158.75</ele>
        <time>2021-08-18T09:06:08Z</time>
      </trkpt>
      <trkpt lat="43.84364" lon="1.53359">
        <ele>160.68</ele>
        <time>2021-08-18T09:06:17Z</time>
      </trkpt>
      <trkpt lat="43.84366" lon="1.53344">
        <ele>162.12</ele>
        <time>2021-08-18T09:06:26Z</time>
      </trkpt>
      <trkpt lat="43.84367" lon="1.53332">
        <ele>163.08</ele>
        <time>2021-08-18T09:06:35Z</time>
      </trkpt>
      <trkpt lat="43.84368" lon="1.53327">
        <ele>164.04</ele>
        <time>2021-08-18T09:06:43Z</time>
      </trkpt>
      <trkpt lat="43.84369" lon="1.53316">
        <ele>164.52</ele>
        <time>2021-08-18T09:06:50Z</time>
      </trkpt>
      <trkpt lat="43.84373" lon="1.533">
        <ele>165.48</ele>
        <time>2021-08-18T09:06:56Z</time>
      </trkpt>
      <trkpt lat="43.84378" lon="1.5328">
        <ele>166.93</ele>
        <time>2021-08-18T09:07:05Z</time>
      </trkpt>
      <trkpt lat="43.84382" lon="1.53265">
        <ele>168.37</ele>
        <time>2021-08-18T09:07:13Z</time>
      </trkpt>
      <trkpt lat="43.84388" lon="1.53247">
        <ele>169.81</ele>
        <time>2021-08-18T09:07:23Z</time>
      </trkpt>
      <trkpt lat="43.84394" lon="1.53233">
        <ele>170.77</ele>
        <time>2021-08-18T09:07:31Z</time>
      </trkpt>
      <trkpt lat="43.84406" lon="1.53205">
        <ele>172.69</ele>
        <time>2021-08-18T09:07:43Z</time>
      </trkpt>
      <trkpt lat="43.84416" lon="1.53183">
        <ele>174.14</ele>
        <time>2021-08-18T09:07:52Z</time>
      </trkpt>
      <trkpt lat="43.84425" lon="1.53163">
        <ele>174.62</ele>
        <time>2021-08-18T09:07:59Z</time>
      </trkpt>
      <trkpt lat="43.84439" lon="1.53135">
        <ele>175.1</ele>
        <time>2021-08-18T09:08:07Z</time>
      </trkpt>
      <trkpt lat="43.84457" lon="1.53104">
        <ele>175.58</ele>
        <time>2021-08-18T09:08:16Z</time>
      </trkpt>
      <trkpt lat="43.84473" lon="1.53079">
        <ele>176.06</ele>
        <time>2021-08-18T09:08:23Z</time>
      </trkpt>
      <trkpt lat="43.84493" lon="1.53043">
        <ele>177.02</ele>
        <time>2021-08-18T09:08:32Z</time>
      </trkpt>
      <trkpt lat="43.84505" lon="1.53011">
        <ele>177.98</ele>
        <time>2021-08-18T09:08:39Z</time>
      </trkpt>
      <trkpt lat="43.84514" lon="1.52972">
        <ele>179.42</ele>
        <time>2021-08-18T09:08:49Z</time>
      </trkpt>
      <trkpt lat="43.84522" lon="1.52937">
        <ele>180.87</ele>
        <time>2021-08-18T09:08:58Z</time>
      </trkpt>
      <trkpt lat="43.84532" lon="1.52907">
        <ele>181.35</ele>
        <time>2021-08-18T09:09:05Z</time>
      </trkpt>
      <trkpt lat="43.84553" lon="1.52867">
        <ele>181.83</ele>
        <time>2021-08-18T09:09:13Z</time>
      </trkpt>
      <trkpt lat="43.8457" lon="1.52829">
        <ele>181.83</ele>
        <time>2021-08-18T09:09:20Z</time>
      </trkpt>
      <trkpt lat="43.84576" lon="1.52794">
        <ele>182.79</ele>
        <time>2021-08-18T09:09:28Z</time>
      </trkpt>
      <trkpt lat="43.8458" lon="1.52767">
        <ele>183.75</ele>
        <time>2021-08-18T09:09:37Z</time>
      </trkpt>
      <trkpt lat="43.84587" lon="1.5274">
        <ele>185.19</ele>
        <time>2021-08-18T09:09:47Z</time>
      </trkpt>
      <trkpt lat="43.84592" lon="1.52715">
        <ele>187.59</ele>
        <time>2021-08-18T09:09:58Z</time>
      </trkpt>
      <trkpt lat="43.84598" lon="1.52689">
        <ele>190</ele>
        <time>2021-08-18T09:10:08Z</time>
      </trkpt>
      <trkpt lat="43.84611" lon="1.52661">
        <ele>190.96</ele>
        <time>2021-08-18T09:10:18Z</time>
      </trkpt>
      <trkpt lat="43.84627" lon="1.52629">
        <ele>190.96</ele>
        <time>2021-08-18T09:10:26Z</time>
      </trkpt>
      <trkpt lat="43.84645" lon="1.52591">
        <ele>190.96</ele>
        <time>2021-08-18T09:10:34Z</time>
      </trkpt>
      <trkpt lat="43.84658" lon="1.52547">
        <ele>191.92</ele>
        <time>2021-08-18T09:10:43Z</time>
      </trkpt>
      <trkpt lat="43.84672" lon="1.52514">
        <ele>192.4</ele>
        <time>2021-08-18T09:10:49Z</time>
      </trkpt>
      <trkpt lat="43.84676" lon="1.52509">
        <ele>192.4</ele>
        <time>2021-08-18T09:10:50Z</time>
      </trkpt>
      <trkpt lat="43.84679" lon="1.52504">
        <ele>192.4</ele>
        <time>2021-08-18T09:10:51Z</time>
      </trkpt>
      <trkpt lat="43.84683" lon="1.52499">
        <ele>192.4</ele>
        <time>2021-08-18T09:10:52Z</time>
      </trkpt>
      <trkpt lat="43.84687" lon="1.52495">
        <ele>192.4</ele>
        <time>2021-08-18T09:10:53Z</time>
      </trkpt>
      <trkpt lat="43.84705" lon="1.52477">
        <ele>190.96</ele>
        <time>2021-08-18T09:10:57Z</time>
      </trkpt>
      <trkpt lat="43.84724" lon="1.52461">
        <ele>190.48</ele>
        <time>2021-08-18T09:11:01Z</time>
      </trkpt>
      <trkpt lat="43.84755" lon="1.52429">
        <ele>189.04</ele>
        <time>2021-08-18T09:11:08Z</time>
      </trkpt>
      <trkpt lat="43.84762" lon="1.52421">
        <ele>189.04</ele>
        <time>2021-08-18T09:11:10Z</time>
      </trkpt>
      <trkpt lat="43.84788" lon="1.52386">
        <ele>189.04</ele>
        <time>2021-08-18T09:11:17Z</time>
      </trkpt>
      <trkpt lat="43.84817" lon="1.52344">
        <ele>189.04</ele>
        <time>2021-08-18T09:11:26Z</time>
      </trkpt>
      <trkpt lat="43.84831" lon="1.52326">
        <ele>189.04</ele>
        <time>2021-08-18T09:11:30Z</time>
      </trkpt>
      <trkpt lat="43.84835" lon="1.52321">
        <ele>189.04</ele>
        <time>2021-08-18T09:11:31Z</time>
      </trkpt>
      <trkpt lat="43.84839" lon="1.52316">
        <ele>189.04</ele>
        <time>2021-08-18T09:11:32Z</time>
      </trkpt>
      <trkpt lat="43.84864" lon="1.52287">
        <ele>190.48</ele>
        <time>2021-08-18T09:11:39Z</time>
      </trkpt>
      <trkpt lat="43.84867" lon="1.52282">
        <ele>190.48</ele>
        <time>2021-08-18T09:11:40Z</time>
      </trkpt>
      <trkpt lat="43.84893" lon="1.52244">
        <ele>191.44</ele>
        <time>2021-08-18T09:11:49Z</time>
      </trkpt>
      <trkpt lat="43.84913" lon="1.52218">
        <ele>192.4</ele>
        <time>2021-08-18T09:11:56Z</time>
      </trkpt>
      <trkpt lat="43.84916" lon="1.52216">
        <ele>192.4</ele>
        <time>2021-08-18T09:11:57Z</time>
      </trkpt>
      <trkpt lat="43.84941" lon="1.52205">
        <ele>190.96</ele>
        <time>2021-08-18T09:12:02Z</time>
      </trkpt>
      <trkpt lat="43.84985" lon="1.5218">
        <ele>188.56</ele>
        <time>2021-08-18T09:12:10Z</time>
      </trkpt>
      <trkpt lat="43.85007" lon="1.52171">
        <ele>188.56</ele>
        <time>2021-08-18T09:12:14Z</time>
      </trkpt>
      <trkpt lat="43.85013" lon="1.5217">
        <ele>188.08</ele>
        <time>2021-08-18T09:12:15Z</time>
      </trkpt>
      <trkpt lat="43.85019" lon="1.52169">
        <ele>188.08</ele>
        <time>2021-08-18T09:12:16Z</time>
      </trkpt>
      <trkpt lat="43.85024" lon="1.5217">
        <ele>188.08</ele>
        <time>2021-08-18T09:12:17Z</time>
      </trkpt>
      <trkpt lat="43.8503" lon="1.52171">
        <ele>188.08</ele>
        <time>2021-08-18T09:12:18Z</time>
      </trkpt>
      <trkpt lat="43.85072" lon="1.5218">
        <ele>188.08</ele>
        <time>2021-08-18T09:12:26Z</time>
      </trkpt>
      <trkpt lat="43.8508" lon="1.52182">
        <ele>189.52</ele>
        <time>2021-08-18T09:12:28Z</time>
      </trkpt>
      <trkpt lat="43.85104" lon="1.52189">
        <ele>190.96</ele>
        <time>2021-08-18T09:12:36Z</time>
      </trkpt>
      <trkpt lat="43.85128" lon="1.52192">
        <ele>192.88</ele>
        <time>2021-08-18T09:12:46Z</time>
      </trkpt>
      <trkpt lat="43.85145" lon="1.52196">
        <ele>193.84</ele>
        <time>2021-08-18T09:12:52Z</time>
      </trkpt>
      <trkpt lat="43.8517" lon="1.52204">
        <ele>195.28</ele>
        <time>2021-08-18T09:13:02Z</time>
      </trkpt>
      <trkpt lat="43.85187" lon="1.5221">
        <ele>196.25</ele>
        <time>2021-08-18T09:13:09Z</time>
      </trkpt>
      <trkpt lat="43.85209" lon="1.52221">
        <ele>197.21</ele>
        <time>2021-08-18T09:13:17Z</time>
      </trkpt>
      <trkpt lat="43.85234" lon="1.52239">
        <ele>198.17</ele>
        <time>2021-08-18T09:13:26Z</time>
      </trkpt>
      <trkpt lat="43.85257" lon="1.52262">
        <ele>199.61</ele>
        <time>2021-08-18T09:13:35Z</time>
      </trkpt>
      <trkpt lat="43.85276" lon="1.52281">
        <ele>201.05</ele>
        <time>2021-08-18T09:13:44Z</time>
      </trkpt>
      <trkpt lat="43.85298" lon="1.52303">
        <ele>201.05</ele>
        <time>2021-08-18T09:13:53Z</time>
      </trkpt>
      <trkpt lat="43.85309" lon="1.52312">
        <ele>201.05</ele>
        <time>2021-08-18T09:13:57Z</time>
      </trkpt>
      <trkpt lat="43.85312" lon="1.52311">
        <ele>201.05</ele>
        <time>2021-08-18T09:13:58Z</time>
      </trkpt>
      <trkpt lat="43.85315" lon="1.52309">
        <ele>201.05</ele>
        <time>2021-08-18T09:13:59Z</time>
      </trkpt>
      <trkpt lat="43.85316" lon="1.52305">
        <ele>201.05</ele>
        <time>2021-08-18T09:14:00Z</time>
      </trkpt>
      <trkpt lat="43.85318" lon="1.52301">
        <ele>200.09</ele>
        <time>2021-08-18T09:14:01Z</time>
      </trkpt>
      <trkpt lat="43.85319" lon="1.52298">
        <ele>200.09</ele>
        <time>2021-08-18T09:14:02Z</time>
      </trkpt>
      <trkpt lat="43.85323" lon="1.52287">
        <ele>200.09</ele>
        <time>2021-08-18T09:14:07Z</time>
      </trkpt>
      <trkpt lat="43.85322" lon="1.52288">
        <ele>200.09</ele>
        <time>2021-08-18T09:14:21Z</time>
      </trkpt>
      <trkpt lat="43.85323" lon="1.52287">
        <ele>200.09</ele>
        <time>2021-08-18T09:14:47Z</time>
      </trkpt>
      <trkpt lat="43.85322" lon="1.52287">
        <ele>200.09</ele>
        <time>2021-08-18T09:15:04Z</time>
      </trkpt>
      <trkpt lat="43.85323" lon="1.52286">
        <ele>200.09</ele>
        <time>2021-08-18T09:15:27Z</time>
      </trkpt>
      <trkpt lat="43.85327" lon="1.52271">
        <ele>200.09</ele>
        <time>2021-08-18T09:15:33Z</time>
      </trkpt>
      <trkpt lat="43.85337" lon="1.52239">
        <ele>198.65</ele>
        <time>2021-08-18T09:15:39Z</time>
      </trkpt>
      <trkpt lat="43.85356" lon="1.52182">
        <ele>197.21</ele>
        <time>2021-08-18T09:15:47Z</time>
      </trkpt>
      <trkpt lat="43.85382" lon="1.52111">
        <ele>194.8</ele>
        <time>2021-08-18T09:15:56Z</time>
      </trkpt>
      <trkpt lat="43.85418" lon="1.52035">
        <ele>193.84</ele>
        <time>2021-08-18T09:16:06Z</time>
      </trkpt>
      <trkpt lat="43.85424" lon="1.5202">
        <ele>193.84</ele>
        <time>2021-08-18T09:16:08Z</time>
      </trkpt>
      <trkpt lat="43.85428" lon="1.52013">
        <ele>193.84</ele>
        <time>2021-08-18T09:16:09Z</time>
      </trkpt>
      <trkpt lat="43.85467" lon="1.51932">
        <ele>193.36</ele>
        <time>2021-08-18T09:16:21Z</time>
      </trkpt>
      <trkpt lat="43.85501" lon="1.51872">
        <ele>192.4</ele>
        <time>2021-08-18T09:16:30Z</time>
      </trkpt>
      <trkpt lat="43.85542" lon="1.5181">
        <ele>191.92</ele>
        <time>2021-08-18T09:16:40Z</time>
      </trkpt>
      <trkpt lat="43.85561" lon="1.51782">
        <ele>191.44</ele>
        <time>2021-08-18T09:16:44Z</time>
      </trkpt>
      <trkpt lat="43.85582" lon="1.51733">
        <ele>190.96</ele>
        <time>2021-08-18T09:16:50Z</time>
      </trkpt>
      <trkpt lat="43.85584" lon="1.51725">
        <ele>190.96</ele>
        <time>2021-08-18T09:16:51Z</time>
      </trkpt>
      <trkpt lat="43.85591" lon="1.51682">
        <ele>193.36</ele>
        <time>2021-08-18T09:16:57Z</time>
      </trkpt>
      <trkpt lat="43.85593" lon="1.51676">
        <ele>193.36</ele>
        <time>2021-08-18T09:16:58Z</time>
      </trkpt>
      <trkpt lat="43.85609" lon="1.51627">
        <ele>193.84</ele>
        <time>2021-08-18T09:17:06Z</time>
      </trkpt>
      <trkpt lat="43.85612" lon="1.5162">
        <ele>193.84</ele>
        <time>2021-08-18T09:17:07Z</time>
      </trkpt>
      <trkpt lat="43.85626" lon="1.51585">
        <ele>192.4</ele>
        <time>2021-08-18T09:17:12Z</time>
      </trkpt>
      <trkpt lat="43.85652" lon="1.51523">
        <ele>192.4</ele>
        <time>2021-08-18T09:17:21Z</time>
      </trkpt>
      <trkpt lat="43.85664" lon="1.51497">
        <ele>192.4</ele>
        <time>2021-08-18T09:17:25Z</time>
      </trkpt>
      <trkpt lat="43.85667" lon="1.51492">
        <ele>192.4</ele>
        <time>2021-08-18T09:17:26Z</time>
      </trkpt>
      <trkpt lat="43.85671" lon="1.51486">
        <ele>192.4</ele>
        <time>2021-08-18T09:17:27Z</time>
      </trkpt>
      <trkpt lat="43.85706" lon="1.51453">
        <ele>189.52</ele>
        <time>2021-08-18T09:17:34Z</time>
      </trkpt>
      <trkpt lat="43.85713" lon="1.5145">
        <ele>189.04</ele>
        <time>2021-08-18T09:17:35Z</time>
      </trkpt>
      <trkpt lat="43.85758" lon="1.51435">
        <ele>185.67</ele>
        <time>2021-08-18T09:17:41Z</time>
      </trkpt>
      <trkpt lat="43.85803" lon="1.51422">
        <ele>182.79</ele>
        <time>2021-08-18T09:17:46Z</time>
      </trkpt>
      <trkpt lat="43.85811" lon="1.51418">
        <ele>182.31</ele>
        <time>2021-08-18T09:17:47Z</time>
      </trkpt>
      <trkpt lat="43.85822" lon="1.5141">
        <ele>181.83</ele>
        <time>2021-08-18T09:17:48Z</time>
      </trkpt>
      <trkpt lat="43.85828" lon="1.51405">
        <ele>181.35</ele>
        <time>2021-08-18T09:17:49Z</time>
      </trkpt>
      <trkpt lat="43.85837" lon="1.51396">
        <ele>181.35</ele>
        <time>2021-08-18T09:17:50Z</time>
      </trkpt>
      <trkpt lat="43.85905" lon="1.51319">
        <ele>178.94</ele>
        <time>2021-08-18T09:18:00Z</time>
      </trkpt>
      <trkpt lat="43.85923" lon="1.51293">
        <ele>177.5</ele>
        <time>2021-08-18T09:18:03Z</time>
      </trkpt>
      <trkpt lat="43.85978" lon="1.51225">
        <ele>175.58</ele>
        <time>2021-08-18T09:18:12Z</time>
      </trkpt>
      <trkpt lat="43.86007" lon="1.51195">
        <ele>172.69</ele>
        <time>2021-08-18T09:18:16Z</time>
      </trkpt>
      <trkpt lat="43.8604" lon="1.51166">
        <ele>170.77</ele>
        <time>2021-08-18T09:18:20Z</time>
      </trkpt>
      <trkpt lat="43.8607" lon="1.51128">
        <ele>167.41</ele>
        <time>2021-08-18T09:18:24Z</time>
      </trkpt>
      <trkpt lat="43.86099" lon="1.51085">
        <ele>163.56</ele>
        <time>2021-08-18T09:18:28Z</time>
      </trkpt>
      <trkpt lat="43.86114" lon="1.51066">
        <ele>160.2</ele>
        <time>2021-08-18T09:18:30Z</time>
      </trkpt>
      <trkpt lat="43.8613" lon="1.5105">
        <ele>157.31</ele>
        <time>2021-08-18T09:18:32Z</time>
      </trkpt>
      <trkpt lat="43.86138" lon="1.51044">
        <ele>155.87</ele>
        <time>2021-08-18T09:18:33Z</time>
      </trkpt>
      <trkpt lat="43.86155" lon="1.51032">
        <ele>153.47</ele>
        <time>2021-08-18T09:18:35Z</time>
      </trkpt>
      <trkpt lat="43.86162" lon="1.51024">
        <ele>152.03</ele>
        <time>2021-08-18T09:18:36Z</time>
      </trkpt>
      <trkpt lat="43.86168" lon="1.51013">
        <ele>149.62</ele>
        <time>2021-08-18T09:18:37Z</time>
      </trkpt>
      <trkpt lat="43.86175" lon="1.50999">
        <ele>147.7</ele>
        <time>2021-08-18T09:18:38Z</time>
      </trkpt>
      <trkpt lat="43.86181" lon="1.50985">
        <ele>145.78</ele>
        <time>2021-08-18T09:18:39Z</time>
      </trkpt>
      <trkpt lat="43.86189" lon="1.50971">
        <ele>143.37</ele>
        <time>2021-08-18T09:18:40Z</time>
      </trkpt>
      <trkpt lat="43.86198" lon="1.5096">
        <ele>141.93</ele>
        <time>2021-08-18T09:18:41Z</time>
      </trkpt>
      <trkpt lat="43.86209" lon="1.50948">
        <ele>138.09</ele>
        <time>2021-08-18T09:18:42Z</time>
      </trkpt>
      <trkpt lat="43.8622" lon="1.50938">
        <ele>135.68</ele>
        <time>2021-08-18T09:18:43Z</time>
      </trkpt>
      <trkpt lat="43.86232" lon="1.50928">
        <ele>133.28</ele>
        <time>2021-08-18T09:18:44Z</time>
      </trkpt>
      <trkpt lat="43.86258" lon="1.50908">
        <ele>130.4</ele>
        <time>2021-08-18T09:18:46Z</time>
      </trkpt>
      <trkpt lat="43.86282" lon="1.50884">
        <ele>126.55</ele>
        <time>2021-08-18T09:18:48Z</time>
      </trkpt>
      <trkpt lat="43.86306" lon="1.5086">
        <ele>121.74</ele>
        <time>2021-08-18T09:18:50Z</time>
      </trkpt>
      <trkpt lat="43.86328" lon="1.50837">
        <ele>118.38</ele>
        <time>2021-08-18T09:18:52Z</time>
      </trkpt>
      <trkpt lat="43.86354" lon="1.50808">
        <ele>114.53</ele>
        <time>2021-08-18T09:18:55Z</time>
      </trkpt>
      <trkpt lat="43.86369" lon="1.50784">
        <ele>111.17</ele>
        <time>2021-08-18T09:18:58Z</time>
      </trkpt>
      <trkpt lat="43.86372" lon="1.50775">
        <ele>110.21</ele>
        <time>2021-08-18T09:18:59Z</time>
      </trkpt>
      <trkpt lat="43.86375" lon="1.50766">
        <ele>109.25</ele>
        <time>2021-08-18T09:19:00Z</time>
      </trkpt>
      <trkpt lat="43.86378" lon="1.50756">
        <ele>108.29</ele>
        <time>2021-08-18T09:19:01Z</time>
      </trkpt>
      <trkpt lat="43.86383" lon="1.50721">
        <ele>104.92</ele>
        <time>2021-08-18T09:19:05Z</time>
      </trkpt>
      <trkpt lat="43.86387" lon="1.50691">
        <ele>103.96</ele>
        <time>2021-08-18T09:19:10Z</time>
      </trkpt>
      <trkpt lat="43.86388" lon="1.50672">
        <ele>103.48</ele>
        <time>2021-08-18T09:19:16Z</time>
      </trkpt>
      <trkpt lat="43.86387" lon="1.50669">
        <ele>103.48</ele>
        <time>2021-08-18T09:19:18Z</time>
      </trkpt>
      <trkpt lat="43.86386" lon="1.50668">
        <ele>103.48</ele>
        <time>2021-08-18T09:19:19Z</time>
      </trkpt>
      <trkpt lat="43.86385" lon="1.50667">
        <ele>103.48</ele>
        <time>2021-08-18T09:19:20Z</time>
      </trkpt>
      <trkpt lat="43.86383" lon="1.50668">
        <ele>103.48</ele>
        <time>2021-08-18T09:19:21Z</time>
      </trkpt>
      <trkpt lat="43.86382" lon="1.5067">
        <ele>103.48</ele>
        <time>2021-08-18T09:19:22Z</time>
      </trkpt>
      <trkpt lat="43.86381" lon="1.50671">
        <ele>103</ele>
        <time>2021-08-18T09:19:23Z</time>
      </trkpt>
      <trkpt lat="43.86381" lon="1.50672">
        <ele>103</ele>
        <time>2021-08-18T09:19:27Z</time>
      </trkpt>
      <trkpt lat="43.86382" lon="1.5067">
        <ele>103</ele>
        <time>2021-08-18T09:19:28Z</time>
      </trkpt>
      <trkpt lat="43.86383" lon="1.50668">
        <ele>103</ele>
        <time>2021-08-18T09:19:29Z</time>
      </trkpt>
      <trkpt lat="43.86388" lon="1.50658">
        <ele>102.52</ele>
        <time>2021-08-18T09:19:32Z</time>
      </trkpt>
      <trkpt lat="43.86387" lon="1.50653">
        <ele>102.52</ele>
        <time>2021-08-18T09:19:33Z</time>
      </trkpt>
      <trkpt lat="43.86386" lon="1.50649">
        <ele>102.52</ele>
        <time>2021-08-18T09:19:34Z</time>
      </trkpt>
      <trkpt lat="43.86384" lon="1.50645">
        <ele>102.04</ele>
        <time>2021-08-18T09:19:35Z</time>
      </trkpt>
      <trkpt lat="43.86381" lon="1.5064">
        <ele>102.04</ele>
        <time>2021-08-18T09:19:36Z</time>
      </trkpt>
      <trkpt lat="43.86379" lon="1.50634">
        <ele>102.04</ele>
        <time>2021-08-18T09:19:37Z</time>
      </trkpt>
      <trkpt lat="43.86377" lon="1.50629">
        <ele>102.04</ele>
        <time>2021-08-18T09:19:38Z</time>
      </trkpt>
      <trkpt lat="43.86376" lon="1.50624">
        <ele>102.04</ele>
        <time>2021-08-18T09:19:39Z</time>
      </trkpt>
      <trkpt lat="43.86373" lon="1.50619">
        <ele>101.56</ele>
        <time>2021-08-18T09:19:40Z</time>
      </trkpt>
      <trkpt lat="43.86366" lon="1.50602">
        <ele>101.08</ele>
        <time>2021-08-18T09:19:43Z</time>
      </trkpt>
      <trkpt lat="43.86349" lon="1.50583">
        <ele>100.11</ele>
        <time>2021-08-18T09:19:48Z</time>
      </trkpt>
      <trkpt lat="43.86347" lon="1.50579">
        <ele>100.11</ele>
        <time>2021-08-18T09:19:49Z</time>
      </trkpt>
      <trkpt lat="43.86341" lon="1.50575">
        <ele>100.6</ele>
        <time>2021-08-18T09:19:51Z</time>
      </trkpt>
      <trkpt lat="43.86338" lon="1.50577">
        <ele>100.11</ele>
        <time>2021-08-18T09:19:52Z</time>
      </trkpt>
      <trkpt lat="43.86335" lon="1.50579">
        <ele>100.11</ele>
        <time>2021-08-18T09:19:53Z</time>
      </trkpt>
      <trkpt lat="43.86314" lon="1.50601">
        <ele>100.6</ele>
        <time>2021-08-18T09:20:00Z</time>
      </trkpt>
      <trkpt lat="43.86308" lon="1.50596">
        <ele>100.6</ele>
        <time>2021-08-18T09:20:03Z</time>
      </trkpt>
      <trkpt lat="43.86306" lon="1.50594">
        <ele>100.6</ele>
        <time>2021-08-18T09:20:04Z</time>
      </trkpt>
      <trkpt lat="43.86303" lon="1.50594">
        <ele>100.6</ele>
        <time>2021-08-18T09:20:05Z</time>
      </trkpt>
      <trkpt lat="43.86302" lon="1.50595">
        <ele>100.6</ele>
        <time>2021-08-18T09:20:06Z</time>
      </trkpt>
      <trkpt lat="43.863" lon="1.50597">
        <ele>100.6</ele>
        <time>2021-08-18T09:20:07Z</time>
      </trkpt>
      <trkpt lat="43.86299" lon="1.50599">
        <ele>100.6</ele>
        <time>2021-08-18T09:20:08Z</time>
      </trkpt>
      <trkpt lat="43.86296" lon="1.506">
        <ele>101.56</ele>
        <time>2021-08-18T09:20:32Z</time>
      </trkpt>
      <trkpt lat="43.86294" lon="1.50598">
        <ele>101.56</ele>
        <time>2021-08-18T09:20:56Z</time>
      </trkpt>
      <trkpt lat="43.86298" lon="1.506">
        <ele>101.56</ele>
        <time>2021-08-18T09:21:00Z</time>
      </trkpt>
      <trkpt lat="43.86297" lon="1.506">
        <ele>101.56</ele>
        <time>2021-08-18T09:21:04Z</time>
      </trkpt>
      <trkpt lat="43.86297" lon="1.50598">
        <ele>101.56</ele>
        <time>2021-08-18T09:21:07Z</time>
      </trkpt>
      <trkpt lat="43.86299" lon="1.50596">
        <ele>101.56</ele>
        <time>2021-08-18T09:21:08Z</time>
      </trkpt>
      <trkpt lat="43.863" lon="1.50594">
        <ele>101.56</ele>
        <time>2021-08-18T09:21:09Z</time>
      </trkpt>
      <trkpt lat="43.86302" lon="1.50592">
        <ele>101.56</ele>
        <time>2021-08-18T09:21:10Z</time>
      </trkpt>
      <trkpt lat="43.86304" lon="1.5059">
        <ele>101.56</ele>
        <time>2021-08-18T09:21:11Z</time>
      </trkpt>
      <trkpt lat="43.86317" lon="1.50578">
        <ele>100.6</ele>
        <time>2021-08-18T09:21:18Z</time>
      </trkpt>
      <trkpt lat="43.86319" lon="1.50578">
        <ele>100.6</ele>
        <time>2021-08-18T09:21:19Z</time>
      </trkpt>
      <trkpt lat="43.86321" lon="1.50578">
        <ele>100.6</ele>
        <time>2021-08-18T09:21:20Z</time>
      </trkpt>
      <trkpt lat="43.86324" lon="1.50578">
        <ele>100.6</ele>
        <time>2021-08-18T09:21:21Z</time>
      </trkpt>
      <trkpt lat="43.86327" lon="1.50577">
        <ele>100.6</ele>
        <time>2021-08-18T09:21:22Z</time>
      </trkpt>
      <trkpt lat="43.86329" lon="1.50575">
        <ele>100.6</ele>
        <time>2021-08-18T09:21:23Z</time>
      </trkpt>
      <trkpt lat="43.8633" lon="1.50571">
        <ele>100.6</ele>
        <time>2021-08-18T09:21:24Z</time>
      </trkpt>
      <trkpt lat="43.8633" lon="1.50568">
        <ele>100.6</ele>
        <time>2021-08-18T09:21:25Z</time>
      </trkpt>
      <trkpt lat="43.8633" lon="1.50564">
        <ele>100.6</ele>
        <time>2021-08-18T09:21:26Z</time>
      </trkpt>
      <trkpt lat="43.8633" lon="1.5056">
        <ele>100.6</ele>
        <time>2021-08-18T09:21:27Z</time>
      </trkpt>
      <trkpt lat="43.86331" lon="1.50556">
        <ele>100.6</ele>
        <time>2021-08-18T09:21:28Z</time>
      </trkpt>
      <trkpt lat="43.86333" lon="1.50552">
        <ele>100.11</ele>
        <time>2021-08-18T09:21:29Z</time>
      </trkpt>
      <trkpt lat="43.86335" lon="1.50549">
        <ele>100.11</ele>
        <time>2021-08-18T09:21:30Z</time>
      </trkpt>
      <trkpt lat="43.86338" lon="1.50545">
        <ele>100.11</ele>
        <time>2021-08-18T09:21:31Z</time>
      </trkpt>
      <trkpt lat="43.86341" lon="1.50542">
        <ele>100.11</ele>
        <time>2021-08-18T09:21:32Z</time>
      </trkpt>
      <trkpt lat="43.86351" lon="1.50535">
        <ele>100.11</ele>
        <time>2021-08-18T09:21:37Z</time>
      </trkpt>
      <trkpt lat="43.86351" lon="1.50533">
        <ele>100.11</ele>
        <time>2021-08-18T09:21:57Z</time>
      </trkpt>
      <trkpt lat="43.86351" lon="1.50533">
        <ele>100.11</ele>
        <time>2021-08-18T09:22:03Z</time>
      </trkpt>
      <trkpt lat="43.8635" lon="1.50534">
        <ele>100.11</ele>
        <time>2021-08-18T09:22:04Z</time>
      </trkpt>
      <trkpt lat="43.86348" lon="1.50535">
        <ele>100.11</ele>
        <time>2021-08-18T09:22:05Z</time>
      </trkpt>
      <trkpt lat="43.86338" lon="1.50548">
        <ele>100.11</ele>
        <time>2021-08-18T09:22:10Z</time>
      </trkpt>
      <trkpt lat="43.86331" lon="1.50557">
        <ele>100.11</ele>
        <time>2021-08-18T09:22:13Z</time>
      </trkpt>
      <trkpt lat="43.8633" lon="1.50562">
        <ele>100.11</ele>
        <time>2021-08-18T09:22:14Z</time>
      </trkpt>
      <trkpt lat="43.86331" lon="1.50567">
        <ele>100.11</ele>
        <time>2021-08-18T09:22:15Z</time>
      </trkpt>
      <trkpt lat="43.86331" lon="1.50572">
        <ele>100.11</ele>
        <time>2021-08-18T09:22:16Z</time>
      </trkpt>
      <trkpt lat="43.8633" lon="1.50577">
        <ele>100.11</ele>
        <time>2021-08-18T09:22:17Z</time>
      </trkpt>
      <trkpt lat="43.86327" lon="1.50582">
        <ele>100.11</ele>
        <time>2021-08-18T09:22:18Z</time>
      </trkpt>
      <trkpt lat="43.86325" lon="1.50585">
        <ele>100.11</ele>
        <time>2021-08-18T09:22:19Z</time>
      </trkpt>
      <trkpt lat="43.86322" lon="1.50589">
        <ele>100.11</ele>
        <time>2021-08-18T09:22:20Z</time>
      </trkpt>
      <trkpt lat="43.86303" lon="1.5061">
        <ele>101.08</ele>
        <time>2021-08-18T09:22:27Z</time>
      </trkpt>
      <trkpt lat="43.86291" lon="1.50613">
        <ele>101.08</ele>
        <time>2021-08-18T09:22:31Z</time>
      </trkpt>
      <trkpt lat="43.86287" lon="1.50611">
        <ele>101.56</ele>
        <time>2021-08-18T09:22:33Z</time>
      </trkpt>
      <trkpt lat="43.86286" lon="1.5061">
        <ele>101.56</ele>
        <time>2021-08-18T09:22:34Z</time>
      </trkpt>
      <trkpt lat="43.86285" lon="1.50608">
        <ele>101.56</ele>
        <time>2021-08-18T09:22:35Z</time>
      </trkpt>
      <trkpt lat="43.86284" lon="1.50607">
        <ele>101.56</ele>
        <time>2021-08-18T09:22:36Z</time>
      </trkpt>
      <trkpt lat="43.86282" lon="1.50605">
        <ele>101.56</ele>
        <time>2021-08-18T09:22:37Z</time>
      </trkpt>
      <trkpt lat="43.86281" lon="1.50602">
        <ele>101.56</ele>
        <time>2021-08-18T09:22:38Z</time>
      </trkpt>
      <trkpt lat="43.8628" lon="1.50599">
        <ele>101.56</ele>
        <time>2021-08-18T09:22:39Z</time>
      </trkpt>
      <trkpt lat="43.86279" lon="1.50595">
        <ele>102.04</ele>
        <time>2021-08-18T09:22:40Z</time>
      </trkpt>
      <trkpt lat="43.86277" lon="1.50592">
        <ele>102.04</ele>
        <time>2021-08-18T09:22:41Z</time>
      </trkpt>
      <trkpt lat="43.86276" lon="1.50588">
        <ele>102.04</ele>
        <time>2021-08-18T09:22:42Z</time>
      </trkpt>
      <trkpt lat="43.86274" lon="1.50584">
        <ele>102.04</ele>
        <time>2021-08-18T09:22:43Z</time>
      </trkpt>
      <trkpt lat="43.86271" lon="1.5058">
        <ele>102.04</ele>
        <time>2021-08-18T09:22:44Z</time>
      </trkpt>
      <trkpt lat="43.8625" lon="1.50543">
        <ele>102.04</ele>
        <time>2021-08-18T09:22:52Z</time>
      </trkpt>
      <trkpt lat="43.8622" lon="1.50489">
        <ele>102.04</ele>
        <time>2021-08-18T09:23:03Z</time>
      </trkpt>
      <trkpt lat="43.86204" lon="1.50459">
        <ele>102.04</ele>
        <time>2021-08-18T09:23:09Z</time>
      </trkpt>
      <trkpt lat="43.86201" lon="1.50455">
        <ele>102.04</ele>
        <time>2021-08-18T09:23:10Z</time>
      </trkpt>
      <trkpt lat="43.86189" lon="1.50434">
        <ele>102.52</ele>
        <time>2021-08-18T09:23:15Z</time>
      </trkpt>
      <trkpt lat="43.86188" lon="1.50431">
        <ele>102.52</ele>
        <time>2021-08-18T09:23:16Z</time>
      </trkpt>
      <trkpt lat="43.86186" lon="1.50428">
        <ele>102.52</ele>
        <time>2021-08-18T09:23:17Z</time>
      </trkpt>
      <trkpt lat="43.86185" lon="1.50426">
        <ele>102.52</ele>
        <time>2021-08-18T09:23:18Z</time>
      </trkpt>
      <trkpt lat="43.86183" lon="1.50426">
        <ele>102.52</ele>
        <time>2021-08-18T09:23:19Z</time>
      </trkpt>
      <trkpt lat="43.86181" lon="1.50426">
        <ele>102.52</ele>
        <time>2021-08-18T09:23:20Z</time>
      </trkpt>
      <trkpt lat="43.86179" lon="1.50425">
        <ele>102.52</ele>
        <time>2021-08-18T09:23:21Z</time>
      </trkpt>
      <trkpt lat="43.86176" lon="1.50424">
        <ele>102.52</ele>
        <time>2021-08-18T09:23:22Z</time>
      </trkpt>
      <trkpt lat="43.86174" lon="1.50423">
        <ele>102.52</ele>
        <time>2021-08-18T09:23:23Z</time>
      </trkpt>
      <trkpt lat="43.8617" lon="1.50421">
        <ele>102.52</ele>
        <time>2021-08-18T09:23:24Z</time>
      </trkpt>
      <trkpt lat="43.86165" lon="1.50419">
        <ele>101.08</ele>
        <time>2021-08-18T09:23:25Z</time>
      </trkpt>
      <trkpt lat="43.8616" lon="1.50417">
        <ele>101.08</ele>
        <time>2021-08-18T09:23:26Z</time>
      </trkpt>
      <trkpt lat="43.86156" lon="1.50414">
        <ele>101.08</ele>
        <time>2021-08-18T09:23:27Z</time>
      </trkpt>
      <trkpt lat="43.86152" lon="1.50412">
        <ele>101.08</ele>
        <time>2021-08-18T09:23:28Z</time>
      </trkpt>
      <trkpt lat="43.86143" lon="1.50408">
        <ele>101.08</ele>
        <time>2021-08-18T09:23:30Z</time>
      </trkpt>
      <trkpt lat="43.86139" lon="1.50407">
        <ele>101.08</ele>
        <time>2021-08-18T09:23:31Z</time>
      </trkpt>
      <trkpt lat="43.86135" lon="1.50407">
        <ele>101.08</ele>
        <time>2021-08-18T09:23:32Z</time>
      </trkpt>
      <trkpt lat="43.86131" lon="1.50408">
        <ele>101.08</ele>
        <time>2021-08-18T09:23:33Z</time>
      </trkpt>
      <trkpt lat="43.86127" lon="1.50409">
        <ele>101.08</ele>
        <time>2021-08-18T09:23:34Z</time>
      </trkpt>
      <trkpt lat="43.86114" lon="1.50412">
        <ele>100.6</ele>
        <time>2021-08-18T09:23:37Z</time>
      </trkpt>
      <trkpt lat="43.8611" lon="1.50413">
        <ele>100.6</ele>
        <time>2021-08-18T09:23:38Z</time>
      </trkpt>
      <trkpt lat="43.8609" lon="1.50419">
        <ele>100.6</ele>
        <time>2021-08-18T09:23:44Z</time>
      </trkpt>
      <trkpt lat="43.86073" lon="1.50423">
        <ele>100.6</ele>
        <time>2021-08-18T09:23:50Z</time>
      </trkpt>
      <trkpt lat="43.86058" lon="1.50422">
        <ele>100.6</ele>
        <time>2021-08-18T09:23:57Z</time>
      </trkpt>
      <trkpt lat="43.86052" lon="1.5042">
        <ele>100.6</ele>
        <time>2021-08-18T09:24:01Z</time>
      </trkpt>
      <trkpt lat="43.8605" lon="1.5042">
        <ele>100.6</ele>
        <time>2021-08-18T09:24:02Z</time>
      </trkpt>
      <trkpt lat="43.86048" lon="1.50421">
        <ele>100.6</ele>
        <time>2021-08-18T09:24:03Z</time>
      </trkpt>
      <trkpt lat="43.86034" lon="1.50428">
        <ele>100.6</ele>
        <time>2021-08-18T09:24:07Z</time>
      </trkpt>
      <trkpt lat="43.86001" lon="1.50458">
        <ele>100.6</ele>
        <time>2021-08-18T09:24:15Z</time>
      </trkpt>
      <trkpt lat="43.85967" lon="1.50487">
        <ele>100.6</ele>
        <time>2021-08-18T09:24:24Z</time>
      </trkpt>
      <trkpt lat="43.85934" lon="1.50514">
        <ele>100.6</ele>
        <time>2021-08-18T09:24:32Z</time>
      </trkpt>
      <trkpt lat="43.85905" lon="1.50536">
        <ele>100.6</ele>
        <time>2021-08-18T09:24:39Z</time>
      </trkpt>
      <trkpt lat="43.85884" lon="1.50552">
        <ele>100.6</ele>
        <time>2021-08-18T09:24:45Z</time>
      </trkpt>
      <trkpt lat="43.8588" lon="1.50555">
        <ele>100.6</ele>
        <time>2021-08-18T09:24:46Z</time>
      </trkpt>
      <trkpt lat="43.85874" lon="1.50562">
        <ele>100.6</ele>
        <time>2021-08-18T09:24:48Z</time>
      </trkpt>
      <trkpt lat="43.85872" lon="1.50567">
        <ele>100.6</ele>
        <time>2021-08-18T09:24:49Z</time>
      </trkpt>
      <trkpt lat="43.85871" lon="1.50573">
        <ele>100.6</ele>
        <time>2021-08-18T09:24:50Z</time>
      </trkpt>
      <trkpt lat="43.85874" lon="1.50583">
        <ele>100.6</ele>
        <time>2021-08-18T09:24:52Z</time>
      </trkpt>
      <trkpt lat="43.85882" lon="1.50599">
        <ele>100.6</ele>
        <time>2021-08-18T09:24:55Z</time>
      </trkpt>
      <trkpt lat="43.8589" lon="1.50611">
        <ele>100.6</ele>
        <time>2021-08-18T09:24:59Z</time>
      </trkpt>
      <trkpt lat="43.85892" lon="1.50613">
        <ele>100.6</ele>
        <time>2021-08-18T09:25:00Z</time>
      </trkpt>
      <trkpt lat="43.85899" lon="1.50622">
        <ele>100.6</ele>
        <time>2021-08-18T09:25:08Z</time>
      </trkpt>
      <trkpt lat="43.85899" lon="1.50619">
        <ele>100.6</ele>
        <time>2021-08-18T09:25:15Z</time>
      </trkpt>
      <trkpt lat="43.85901" lon="1.50617">
        <ele>100.6</ele>
        <time>2021-08-18T09:25:21Z</time>
      </trkpt>
      <trkpt lat="43.85905" lon="1.50615">
        <ele>100.6</ele>
        <time>2021-08-18T09:25:39Z</time>
      </trkpt>
      <trkpt lat="43.85903" lon="1.50618">
        <ele>100.6</ele>
        <time>2021-08-18T09:25:52Z</time>
      </trkpt>
      <trkpt lat="43.85904" lon="1.50621">
        <ele>100.6</ele>
        <time>2021-08-18T09:25:58Z</time>
      </trkpt>
      <trkpt lat="43.85906" lon="1.50621">
        <ele>100.6</ele>
        <time>2021-08-18T09:25:59Z</time>
      </trkpt>
      <trkpt lat="43.85907" lon="1.50623">
        <ele>100.6</ele>
        <time>2021-08-18T09:26:03Z</time>
      </trkpt>
      <trkpt lat="43.85906" lon="1.50624">
        <ele>100.6</ele>
        <time>2021-08-18T09:26:10Z</time>
      </trkpt>
      <trkpt lat="43.85906" lon="1.50627">
        <ele>100.11</ele>
        <time>2021-08-18T09:26:28Z</time>
      </trkpt>
      <trkpt lat="43.85907" lon="1.50629">
        <ele>100.11</ele>
        <time>2021-08-18T09:26:38Z</time>
      </trkpt>
      <trkpt lat="43.85909" lon="1.50633">
        <ele>100.11</ele>
        <time>2021-08-18T09:26:54Z</time>
      </trkpt>
      <trkpt lat="43.85909" lon="1.5063">
        <ele>100.11</ele>
        <time>2021-08-18T09:27:12Z</time>
      </trkpt>
      <trkpt lat="43.85909" lon="1.5063">
        <ele>100.11</ele>
        <time>2021-08-18T09:27:31Z</time>
      </trkpt>
      <trkpt lat="43.85909" lon="1.50634">
        <ele>100.11</ele>
        <time>2021-08-18T09:27:50Z</time>
      </trkpt>
      <trkpt lat="43.85909" lon="1.50631">
        <ele>100.11</ele>
        <time>2021-08-18T09:28:08Z</time>
      </trkpt>
      <trkpt lat="43.8591" lon="1.50632">
        <ele>100.11</ele>
        <time>2021-08-18T09:28:26Z</time>
      </trkpt>
      <trkpt lat="43.85907" lon="1.50629">
        <ele>99.63</ele>
        <time>2021-08-18T09:28:39Z</time>
      </trkpt>
      <trkpt lat="43.85904" lon="1.50628">
        <ele>99.63</ele>
        <time>2021-08-18T09:28:53Z</time>
      </trkpt>
      <trkpt lat="43.85905" lon="1.50627">
        <ele>99.63</ele>
        <time>2021-08-18T09:29:12Z</time>
      </trkpt>
      <trkpt lat="43.85906" lon="1.50629">
        <ele>99.63</ele>
        <time>2021-08-18T09:29:24Z</time>
      </trkpt>
      <trkpt lat="43.8591" lon="1.5063">
        <ele>99.63</ele>
        <time>2021-08-18T09:29:39Z</time>
      </trkpt>
      <trkpt lat="43.85909" lon="1.5063">
        <ele>99.63</ele>
        <time>2021-08-18T09:29:53Z</time>
      </trkpt>
      <trkpt lat="43.85907" lon="1.50635">
        <ele>99.15</ele>
        <time>2021-08-18T09:30:11Z</time>
      </trkpt>
      <trkpt lat="43.85905" lon="1.50634">
        <ele>99.15</ele>
        <time>2021-08-18T09:30:27Z</time>
      </trkpt>
      <trkpt lat="43.85905" lon="1.50633">
        <ele>99.15</ele>
        <time>2021-08-18T09:30:41Z</time>
      </trkpt>
      <trkpt lat="43.85906" lon="1.50629">
        <ele>98.67</ele>
        <time>2021-08-18T09:30:57Z</time>
      </trkpt>
      <trkpt lat="43.85908" lon="1.50628">
        <ele>100.11</ele>
        <time>2021-08-18T09:31:06Z</time>
      </trkpt>
      <trkpt lat="43.8591" lon="1.50626">
        <ele>99.63</ele>
        <time>2021-08-18T09:31:24Z</time>
      </trkpt>
      <trkpt lat="43.85908" lon="1.50626">
        <ele>99.63</ele>
        <time>2021-08-18T09:31:43Z</time>
      </trkpt>
      <trkpt lat="43.85907" lon="1.50625">
        <ele>99.63</ele>
        <time>2021-08-18T09:32:00Z</time>
      </trkpt>
      <trkpt lat="43.85905" lon="1.50628">
        <ele>99.15</ele>
        <time>2021-08-18T09:32:21Z</time>
      </trkpt>
      <trkpt lat="43.85902" lon="1.50629">
        <ele>99.15</ele>
        <time>2021-08-18T09:32:35Z</time>
      </trkpt>
      <trkpt lat="43.85901" lon="1.50632">
        <ele>99.15</ele>
        <time>2021-08-18T09:32:54Z</time>
      </trkpt>
      <trkpt lat="43.85901" lon="1.50634">
        <ele>99.15</ele>
        <time>2021-08-18T09:33:11Z</time>
      </trkpt>
      <trkpt lat="43.859" lon="1.50635">
        <ele>99.15</ele>
        <time>2021-08-18T09:33:32Z</time>
      </trkpt>
      <trkpt lat="43.859" lon="1.50635">
        <ele>99.15</ele>
        <time>2021-08-18T09:33:56Z</time>
      </trkpt>
      <trkpt lat="43.85901" lon="1.50634">
        <ele>99.15</ele>
        <time>2021-08-18T09:34:16Z</time>
      </trkpt>
      <trkpt lat="43.85905" lon="1.5064">
        <ele>99.15</ele>
        <time>2021-08-18T09:34:36Z</time>
      </trkpt>
      <trkpt lat="43.85904" lon="1.50641">
        <ele>99.15</ele>
        <time>2021-08-18T09:34:54Z</time>
      </trkpt>
      <trkpt lat="43.85906" lon="1.50637">
        <ele>98.67</ele>
        <time>2021-08-18T09:35:12Z</time>
      </trkpt>
      <trkpt lat="43.85905" lon="1.50631">
        <ele>98.67</ele>
        <time>2021-08-18T09:35:29Z</time>
      </trkpt>
      <trkpt lat="43.85903" lon="1.50626">
        <ele>98.67</ele>
        <time>2021-08-18T09:35:45Z</time>
      </trkpt>
      <trkpt lat="43.85903" lon="1.50625">
        <ele>98.67</ele>
        <time>2021-08-18T09:36:00Z</time>
      </trkpt>
      <trkpt lat="43.85905" lon="1.5063">
        <ele>98.67</ele>
        <time>2021-08-18T09:36:09Z</time>
      </trkpt>
      <trkpt lat="43.85908" lon="1.5063">
        <ele>98.67</ele>
        <time>2021-08-18T09:36:19Z</time>
      </trkpt>
      <trkpt lat="43.85912" lon="1.50632">
        <ele>98.19</ele>
        <time>2021-08-18T09:36:35Z</time>
      </trkpt>
      <trkpt lat="43.85915" lon="1.50636">
        <ele>98.19</ele>
        <time>2021-08-18T09:36:53Z</time>
      </trkpt>
      <trkpt lat="43.85906" lon="1.50628">
        <ele>98.19</ele>
        <time>2021-08-18T09:37:17Z</time>
      </trkpt>
      <trkpt lat="43.85905" lon="1.50626">
        <ele>98.19</ele>
        <time>2021-08-18T09:37:34Z</time>
      </trkpt>
      <trkpt lat="43.85902" lon="1.50623">
        <ele>98.19</ele>
        <time>2021-08-18T09:37:50Z</time>
      </trkpt>
      <trkpt lat="43.85902" lon="1.50625">
        <ele>98.19</ele>
        <time>2021-08-18T09:38:18Z</time>
      </trkpt>
      <trkpt lat="43.85901" lon="1.50625">
        <ele>98.19</ele>
        <time>2021-08-18T09:38:35Z</time>
      </trkpt>
      <trkpt lat="43.85898" lon="1.50627">
        <ele>98.19</ele>
        <time>2021-08-18T09:38:50Z</time>
      </trkpt>
      <trkpt lat="43.85892" lon="1.50629">
        <ele>98.19</ele>
        <time>2021-08-18T09:39:13Z</time>
      </trkpt>
      <trkpt lat="43.85887" lon="1.50631">
        <ele>98.19</ele>
        <time>2021-08-18T09:39:34Z</time>
      </trkpt>
      <trkpt lat="43.85886" lon="1.5063">
        <ele>98.19</ele>
        <time>2021-08-18T09:39:54Z</time>
      </trkpt>
      <trkpt lat="43.8589" lon="1.5063">
        <ele>98.67</ele>
        <time>2021-08-18T09:40:13Z</time>
      </trkpt>
      <trkpt lat="43.85893" lon="1.5063">
        <ele>98.67</ele>
        <time>2021-08-18T09:40:30Z</time>
      </trkpt>
      <trkpt lat="43.85894" lon="1.5063">
        <ele>98.67</ele>
        <time>2021-08-18T09:40:45Z</time>
      </trkpt>
      <trkpt lat="43.85894" lon="1.50631">
        <ele>99.15</ele>
        <time>2021-08-18T09:40:59Z</time>
      </trkpt>
      <trkpt lat="43.85895" lon="1.50633">
        <ele>99.15</ele>
        <time>2021-08-18T09:41:12Z</time>
      </trkpt>
      <trkpt lat="43.85896" lon="1.50637">
        <ele>99.15</ele>
        <time>2021-08-18T09:41:27Z</time>
      </trkpt>
      <trkpt lat="43.85898" lon="1.50645">
        <ele>99.15</ele>
        <time>2021-08-18T09:41:45Z</time>
      </trkpt>
      <trkpt lat="43.859" lon="1.50643">
        <ele>99.15</ele>
        <time>2021-08-18T09:42:01Z</time>
      </trkpt>
      <trkpt lat="43.85902" lon="1.50641">
        <ele>99.63</ele>
        <time>2021-08-18T09:42:17Z</time>
      </trkpt>
      <trkpt lat="43.85901" lon="1.50633">
        <ele>99.63</ele>
        <time>2021-08-18T09:42:40Z</time>
      </trkpt>
      <trkpt lat="43.85905" lon="1.50629">
        <ele>99.63</ele>
        <time>2021-08-18T09:42:57Z</time>
      </trkpt>
      <trkpt lat="43.85908" lon="1.50624">
        <ele>99.63</ele>
        <time>2021-08-18T09:43:16Z</time>
      </trkpt>
      <trkpt lat="43.85904" lon="1.50625">
        <ele>99.63</ele>
        <time>2021-08-18T09:43:34Z</time>
      </trkpt>
      <trkpt lat="43.859" lon="1.50631">
        <ele>99.63</ele>
        <time>2021-08-18T09:43:53Z</time>
      </trkpt>
      <trkpt lat="43.85899" lon="1.50636">
        <ele>99.63</ele>
        <time>2021-08-18T09:44:09Z</time>
      </trkpt>
      <trkpt lat="43.859" lon="1.50637">
        <ele>99.63</ele>
        <time>2021-08-18T09:44:32Z</time>
      </trkpt>
      <trkpt lat="43.85897" lon="1.50637">
        <ele>99.63</ele>
        <time>2021-08-18T09:44:50Z</time>
      </trkpt>
      <trkpt lat="43.85896" lon="1.50637">
        <ele>99.15</ele>
        <time>2021-08-18T09:45:11Z</time>
      </trkpt>
      <trkpt lat="43.85894" lon="1.50637">
        <ele>99.15</ele>
        <time>2021-08-18T09:45:36Z</time>
      </trkpt>
      <trkpt lat="43.85896" lon="1.50632">
        <ele>99.15</ele>
        <time>2021-08-18T09:45:57Z</time>
      </trkpt>
      <trkpt lat="43.85903" lon="1.50627">
        <ele>99.15</ele>
        <time>2021-08-18T09:46:21Z</time>
      </trkpt>
      <trkpt lat="43.85903" lon="1.50627">
        <ele>99.15</ele>
        <time>2021-08-18T09:46:49Z</time>
      </trkpt>
      <trkpt lat="43.85894" lon="1.50627">
        <ele>99.15</ele>
        <time>2021-08-18T09:47:06Z</time>
      </trkpt>
      <trkpt lat="43.85896" lon="1.50629">
        <ele>99.15</ele>
        <time>2021-08-18T09:47:24Z</time>
      </trkpt>
      <trkpt lat="43.85898" lon="1.50628">
        <ele>99.15</ele>
        <time>2021-08-18T09:47:42Z</time>
      </trkpt>
      <trkpt lat="43.85898" lon="1.5063">
        <ele>99.15</ele>
        <time>2021-08-18T09:47:56Z</time>
      </trkpt>
      <trkpt lat="43.85898" lon="1.5063">
        <ele>99.15</ele>
        <time>2021-08-18T09:48:15Z</time>
      </trkpt>
      <trkpt lat="43.859" lon="1.50626">
        <ele>99.15</ele>
        <time>2021-08-18T09:48:32Z</time>
      </trkpt>
      <trkpt lat="43.85903" lon="1.50624">
        <ele>99.15</ele>
        <time>2021-08-18T09:48:47Z</time>
      </trkpt>
      <trkpt lat="43.85904" lon="1.50623">
        <ele>98.67</ele>
        <time>2021-08-18T09:49:06Z</time>
      </trkpt>
      <trkpt lat="43.85905" lon="1.50623">
        <ele>98.67</ele>
        <time>2021-08-18T09:49:26Z</time>
      </trkpt>
      <trkpt lat="43.85902" lon="1.50629">
        <ele>98.67</ele>
        <time>2021-08-18T09:49:50Z</time>
      </trkpt>
      <trkpt lat="43.85905" lon="1.50631">
        <ele>98.67</ele>
        <time>2021-08-18T09:50:13Z</time>
      </trkpt>
      <trkpt lat="43.85901" lon="1.50629">
        <ele>98.19</ele>
        <time>2021-08-18T09:50:38Z</time>
      </trkpt>
      <trkpt lat="43.85903" lon="1.50629">
        <ele>98.19</ele>
        <time>2021-08-18T09:50:59Z</time>
      </trkpt>
      <trkpt lat="43.85897" lon="1.50632">
        <ele>98.19</ele>
        <time>2021-08-18T09:51:18Z</time>
      </trkpt>
      <trkpt lat="43.85895" lon="1.5064">
        <ele>98.19</ele>
        <time>2021-08-18T09:51:37Z</time>
      </trkpt>
      <trkpt lat="43.85898" lon="1.50638">
        <ele>98.19</ele>
        <time>2021-08-18T09:51:59Z</time>
      </trkpt>
      <trkpt lat="43.85902" lon="1.5063">
        <ele>98.19</ele>
        <time>2021-08-18T09:52:20Z</time>
      </trkpt>
      <trkpt lat="43.85903" lon="1.50628">
        <ele>97.71</ele>
        <time>2021-08-18T09:52:39Z</time>
      </trkpt>
      <trkpt lat="43.859" lon="1.50627">
        <ele>97.71</ele>
        <time>2021-08-18T09:53:01Z</time>
      </trkpt>
      <trkpt lat="43.85899" lon="1.50627">
        <ele>97.71</ele>
        <time>2021-08-18T09:53:21Z</time>
      </trkpt>
      <trkpt lat="43.85897" lon="1.50629">
        <ele>97.71</ele>
        <time>2021-08-18T09:53:40Z</time>
      </trkpt>
      <trkpt lat="43.85898" lon="1.50631">
        <ele>97.71</ele>
        <time>2021-08-18T09:53:59Z</time>
      </trkpt>
      <trkpt lat="43.85899" lon="1.5063">
        <ele>98.19</ele>
        <time>2021-08-18T09:54:20Z</time>
      </trkpt>
      <trkpt lat="43.85898" lon="1.50632">
        <ele>98.19</ele>
        <time>2021-08-18T09:54:37Z</time>
      </trkpt>
      <trkpt lat="43.85897" lon="1.50632">
        <ele>98.19</ele>
        <time>2021-08-18T09:54:56Z</time>
      </trkpt>
      <trkpt lat="43.85897" lon="1.50629">
        <ele>98.19</ele>
        <time>2021-08-18T09:55:09Z</time>
      </trkpt>
      <trkpt lat="43.85899" lon="1.50625">
        <ele>98.19</ele>
        <time>2021-08-18T09:55:35Z</time>
      </trkpt>
      <trkpt lat="43.85897" lon="1.50625">
        <ele>98.19</ele>
        <time>2021-08-18T09:55:52Z</time>
      </trkpt>
      <trkpt lat="43.85896" lon="1.50627">
        <ele>98.19</ele>
        <time>2021-08-18T09:56:09Z</time>
      </trkpt>
      <trkpt lat="43.85895" lon="1.50624">
        <ele>98.19</ele>
        <time>2021-08-18T09:56:35Z</time>
      </trkpt>
      <trkpt lat="43.85892" lon="1.50625">
        <ele>98.19</ele>
        <time>2021-08-18T09:56:59Z</time>
      </trkpt>
      <trkpt lat="43.85892" lon="1.5063">
        <ele>98.19</ele>
        <time>2021-08-18T09:57:26Z</time>
      </trkpt>
      <trkpt lat="43.85897" lon="1.50625">
        <ele>98.19</ele>
        <time>2021-08-18T09:57:51Z</time>
      </trkpt>
      <trkpt lat="43.85897" lon="1.50626">
        <ele>98.67</ele>
        <time>2021-08-18T09:58:16Z</time>
      </trkpt>
      <trkpt lat="43.85905" lon="1.50627">
        <ele>98.67</ele>
        <time>2021-08-18T09:58:40Z</time>
      </trkpt>
      <trkpt lat="43.85907" lon="1.50626">
        <ele>98.67</ele>
        <time>2021-08-18T09:59:05Z</time>
      </trkpt>
      <trkpt lat="43.85907" lon="1.50626">
        <ele>99.15</ele>
        <time>2021-08-18T09:59:26Z</time>
      </trkpt>
      <trkpt lat="43.85894" lon="1.50622">
        <ele>99.15</ele>
        <time>2021-08-18T09:59:44Z</time>
      </trkpt>
      <trkpt lat="43.85887" lon="1.50627">
        <ele>99.15</ele>
        <time>2021-08-18T10:00:09Z</time>
      </trkpt>
      <trkpt lat="43.85882" lon="1.50638">
        <ele>99.15</ele>
        <time>2021-08-18T10:00:37Z</time>
      </trkpt>
      <trkpt lat="43.85887" lon="1.50641">
        <ele>99.15</ele>
        <time>2021-08-18T10:01:03Z</time>
      </trkpt>
      <trkpt lat="43.8589" lon="1.50642">
        <ele>99.15</ele>
        <time>2021-08-18T10:01:33Z</time>
      </trkpt>
      <trkpt lat="43.85893" lon="1.50635">
        <ele>99.15</ele>
        <time>2021-08-18T10:02:02Z</time>
      </trkpt>
      <trkpt lat="43.85901" lon="1.50629">
        <ele>99.63</ele>
        <time>2021-08-18T10:02:30Z</time>
      </trkpt>
      <trkpt lat="43.85899" lon="1.50629">
        <ele>99.63</ele>
        <time>2021-08-18T10:03:00Z</time>
      </trkpt>
      <trkpt lat="43.859" lon="1.50626">
        <ele>99.63</ele>
        <time>2021-08-18T10:03:27Z</time>
      </trkpt>
      <trkpt lat="43.85902" lon="1.50628">
        <ele>99.63</ele>
        <time>2021-08-18T10:03:45Z</time>
      </trkpt>
      <trkpt lat="43.85905" lon="1.50628">
        <ele>99.63</ele>
        <time>2021-08-18T10:04:09Z</time>
      </trkpt>
      <trkpt lat="43.85903" lon="1.50625">
        <ele>99.63</ele>
        <time>2021-08-18T10:04:27Z</time>
      </trkpt>
      <trkpt lat="43.85909" lon="1.50625">
        <ele>99.63</ele>
        <time>2021-08-18T10:04:52Z</time>
      </trkpt>
      <trkpt lat="43.85905" lon="1.50624">
        <ele>99.63</ele>
        <time>2021-08-18T10:05:11Z</time>
      </trkpt>
      <trkpt lat="43.85901" lon="1.50626">
        <ele>99.15</ele>
        <time>2021-08-18T10:05:36Z</time>
      </trkpt>
      <trkpt lat="43.85899" lon="1.50633">
        <ele>99.15</ele>
        <time>2021-08-18T10:05:57Z</time>
      </trkpt>
      <trkpt lat="43.85899" lon="1.50631">
        <ele>99.15</ele>
        <time>2021-08-18T10:06:22Z</time>
      </trkpt>
      <trkpt lat="43.85896" lon="1.50631">
        <ele>99.15</ele>
        <time>2021-08-18T10:06:45Z</time>
      </trkpt>
      <trkpt lat="43.85895" lon="1.5063">
        <ele>99.15</ele>
        <time>2021-08-18T10:07:12Z</time>
      </trkpt>
      <trkpt lat="43.85893" lon="1.50631">
        <ele>99.15</ele>
        <time>2021-08-18T10:07:28Z</time>
      </trkpt>
      <trkpt lat="43.85896" lon="1.50631">
        <ele>99.15</ele>
        <time>2021-08-18T10:07:48Z</time>
      </trkpt>
      <trkpt lat="43.85894" lon="1.50632">
        <ele>99.15</ele>
        <time>2021-08-18T10:08:12Z</time>
      </trkpt>
      <trkpt lat="43.85892" lon="1.50633">
        <ele>99.15</ele>
        <time>2021-08-18T10:08:36Z</time>
      </trkpt>
      <trkpt lat="43.85898" lon="1.50627">
        <ele>99.15</ele>
        <time>2021-08-18T10:08:52Z</time>
      </trkpt>
      <trkpt lat="43.85898" lon="1.50628">
        <ele>99.15</ele>
        <time>2021-08-18T10:09:11Z</time>
      </trkpt>
      <trkpt lat="43.85897" lon="1.50631">
        <ele>99.15</ele>
        <time>2021-08-18T10:09:27Z</time>
      </trkpt>
      <trkpt lat="43.85897" lon="1.50633">
        <ele>99.15</ele>
        <time>2021-08-18T10:09:42Z</time>
      </trkpt>
      <trkpt lat="43.85899" lon="1.50642">
        <ele>99.15</ele>
        <time>2021-08-18T10:10:02Z</time>
      </trkpt>
      <trkpt lat="43.85896" lon="1.50638">
        <ele>99.63</ele>
        <time>2021-08-18T10:10:25Z</time>
      </trkpt>
      <trkpt lat="43.85898" lon="1.50632">
        <ele>99.63</ele>
        <time>2021-08-18T10:10:45Z</time>
      </trkpt>
      <trkpt lat="43.85899" lon="1.50629">
        <ele>99.63</ele>
        <time>2021-08-18T10:11:08Z</time>
      </trkpt>
      <trkpt lat="43.85897" lon="1.5063">
        <ele>99.63</ele>
        <time>2021-08-18T10:11:29Z</time>
      </trkpt>
      <trkpt lat="43.85897" lon="1.50631">
        <ele>99.63</ele>
        <time>2021-08-18T10:11:52Z</time>
      </trkpt>
      <trkpt lat="43.85897" lon="1.50635">
        <ele>99.63</ele>
        <time>2021-08-18T10:12:13Z</time>
      </trkpt>
      <trkpt lat="43.85898" lon="1.50635">
        <ele>99.63</ele>
        <time>2021-08-18T10:12:35Z</time>
      </trkpt>
      <trkpt lat="43.85896" lon="1.50632">
        <ele>99.63</ele>
        <time>2021-08-18T10:12:55Z</time>
      </trkpt>
      <trkpt lat="43.85896" lon="1.50629">
        <ele>99.15</ele>
        <time>2021-08-18T10:13:13Z</time>
      </trkpt>
      <trkpt lat="43.85897" lon="1.50627">
        <ele>99.63</ele>
        <time>2021-08-18T10:13:32Z</time>
      </trkpt>
      <trkpt lat="43.85895" lon="1.5063">
        <ele>99.63</ele>
        <time>2021-08-18T10:13:56Z</time>
      </trkpt>
      <trkpt lat="43.85888" lon="1.50633">
        <ele>99.63</ele>
        <time>2021-08-18T10:14:15Z</time>
      </trkpt>
      <trkpt lat="43.8589" lon="1.50633">
        <ele>99.63</ele>
        <time>2021-08-18T10:14:30Z</time>
      </trkpt>
      <trkpt lat="43.85898" lon="1.50629">
        <ele>99.63</ele>
        <time>2021-08-18T10:14:57Z</time>
      </trkpt>
      <trkpt lat="43.85897" lon="1.50628">
        <ele>99.63</ele>
        <time>2021-08-18T10:15:16Z</time>
      </trkpt>
      <trkpt lat="43.859" lon="1.50632">
        <ele>99.63</ele>
        <time>2021-08-18T10:15:35Z</time>
      </trkpt>
      <trkpt lat="43.85903" lon="1.50638">
        <ele>99.63</ele>
        <time>2021-08-18T10:15:53Z</time>
      </trkpt>
      <trkpt lat="43.85902" lon="1.50638">
        <ele>99.63</ele>
        <time>2021-08-18T10:16:14Z</time>
      </trkpt>
      <trkpt lat="43.85904" lon="1.50636">
        <ele>99.63</ele>
        <time>2021-08-18T10:16:33Z</time>
      </trkpt>
      <trkpt lat="43.85892" lon="1.50641">
        <ele>99.63</ele>
        <time>2021-08-18T10:16:57Z</time>
      </trkpt>
      <trkpt lat="43.85895" lon="1.50639">
        <ele>100.11</ele>
        <time>2021-08-18T10:17:16Z</time>
      </trkpt>
      <trkpt lat="43.85896" lon="1.50638">
        <ele>100.11</ele>
        <time>2021-08-18T10:17:37Z</time>
      </trkpt>
      <trkpt lat="43.85892" lon="1.50636">
        <ele>100.11</ele>
        <time>2021-08-18T10:17:59Z</time>
      </trkpt>
      <trkpt lat="43.8589" lon="1.50636">
        <ele>100.11</ele>
        <time>2021-08-18T10:18:23Z</time>
      </trkpt>
      <trkpt lat="43.85889" lon="1.50635">
        <ele>100.6</ele>
        <time>2021-08-18T10:18:44Z</time>
      </trkpt>
      <trkpt lat="43.8589" lon="1.50634">
        <ele>100.6</ele>
        <time>2021-08-18T10:18:57Z</time>
      </trkpt>
      <trkpt lat="43.85895" lon="1.50634">
        <ele>100.6</ele>
        <time>2021-08-18T10:19:21Z</time>
      </trkpt>
      <trkpt lat="43.85895" lon="1.5063">
        <ele>101.08</ele>
        <time>2021-08-18T10:19:42Z</time>
      </trkpt>
      <trkpt lat="43.85895" lon="1.50631">
        <ele>101.08</ele>
        <time>2021-08-18T10:19:55Z</time>
      </trkpt>
      <trkpt lat="43.85896" lon="1.50634">
        <ele>101.08</ele>
        <time>2021-08-18T10:20:22Z</time>
      </trkpt>
      <trkpt lat="43.85897" lon="1.50633">
        <ele>101.08</ele>
        <time>2021-08-18T10:20:43Z</time>
      </trkpt>
      <trkpt lat="43.85901" lon="1.50632">
        <ele>101.08</ele>
        <time>2021-08-18T10:21:04Z</time>
      </trkpt>
      <trkpt lat="43.859" lon="1.50628">
        <ele>101.08</ele>
        <time>2021-08-18T10:21:23Z</time>
      </trkpt>
      <trkpt lat="43.85899" lon="1.50628">
        <ele>101.08</ele>
        <time>2021-08-18T10:21:41Z</time>
      </trkpt>
      <trkpt lat="43.85898" lon="1.50627">
        <ele>101.08</ele>
        <time>2021-08-18T10:21:56Z</time>
      </trkpt>
      <trkpt lat="43.85898" lon="1.50628">
        <ele>101.08</ele>
        <time>2021-08-18T10:22:10Z</time>
      </trkpt>
      <trkpt lat="43.859" lon="1.5063">
        <ele>101.08</ele>
        <time>2021-08-18T10:22:32Z</time>
      </trkpt>
      <trkpt lat="43.85903" lon="1.50633">
        <ele>101.08</ele>
        <time>2021-08-18T10:22:51Z</time>
      </trkpt>
      <trkpt lat="43.85905" lon="1.50635">
        <ele>101.08</ele>
        <time>2021-08-18T10:23:06Z</time>
      </trkpt>
      <trkpt lat="43.85902" lon="1.50635">
        <ele>101.56</ele>
        <time>2021-08-18T10:23:23Z</time>
      </trkpt>
      <trkpt lat="43.85899" lon="1.50631">
        <ele>101.56</ele>
        <time>2021-08-18T10:23:41Z</time>
      </trkpt>
      <trkpt lat="43.85896" lon="1.5063">
        <ele>101.56</ele>
        <time>2021-08-18T10:24:01Z</time>
      </trkpt>
      <trkpt lat="43.85896" lon="1.50633">
        <ele>101.56</ele>
        <time>2021-08-18T10:24:19Z</time>
      </trkpt>
      <trkpt lat="43.85902" lon="1.50629">
        <ele>101.56</ele>
        <time>2021-08-18T10:24:32Z</time>
      </trkpt>
      <trkpt lat="43.859" lon="1.50629">
        <ele>101.08</ele>
        <time>2021-08-18T10:24:47Z</time>
      </trkpt>
      <trkpt lat="43.85898" lon="1.50627">
        <ele>101.08</ele>
        <time>2021-08-18T10:25:10Z</time>
      </trkpt>
      <trkpt lat="43.859" lon="1.50631">
        <ele>101.08</ele>
        <time>2021-08-18T10:25:31Z</time>
      </trkpt>
      <trkpt lat="43.85902" lon="1.50631">
        <ele>101.08</ele>
        <time>2021-08-18T10:25:39Z</time>
      </trkpt>
      <trkpt lat="43.85901" lon="1.50631">
        <ele>101.08</ele>
        <time>2021-08-18T10:25:46Z</time>
      </trkpt>
      <trkpt lat="43.85901" lon="1.50634">
        <ele>100.6</ele>
        <time>2021-08-18T10:26:07Z</time>
      </trkpt>
      <trkpt lat="43.859" lon="1.50631">
        <ele>100.6</ele>
        <time>2021-08-18T10:26:25Z</time>
      </trkpt>
      <trkpt lat="43.85901" lon="1.50628">
        <ele>100.6</ele>
        <time>2021-08-18T10:26:46Z</time>
      </trkpt>
      <trkpt lat="43.85903" lon="1.50625">
        <ele>100.6</ele>
        <time>2021-08-18T10:26:59Z</time>
      </trkpt>
      <trkpt lat="43.85899" lon="1.5063">
        <ele>100.6</ele>
        <time>2021-08-18T10:27:21Z</time>
      </trkpt>
      <trkpt lat="43.85897" lon="1.50633">
        <ele>100.11</ele>
        <time>2021-08-18T10:27:38Z</time>
      </trkpt>
      <trkpt lat="43.85897" lon="1.50633">
        <ele>100.11</ele>
        <time>2021-08-18T10:27:55Z</time>
      </trkpt>
      <trkpt lat="43.85897" lon="1.50628">
        <ele>100.11</ele>
        <time>2021-08-18T10:28:11Z</time>
      </trkpt>
      <trkpt lat="43.85896" lon="1.50629">
        <ele>99.63</ele>
        <time>2021-08-18T10:28:36Z</time>
      </trkpt>
      <trkpt lat="43.85892" lon="1.50632">
        <ele>99.15</ele>
        <time>2021-08-18T10:28:57Z</time>
      </trkpt>
      <trkpt lat="43.85886" lon="1.50638">
        <ele>99.15</ele>
        <time>2021-08-18T10:29:21Z</time>
      </trkpt>
      <trkpt lat="43.8588" lon="1.50644">
        <ele>98.67</ele>
        <time>2021-08-18T10:29:43Z</time>
      </trkpt>
      <trkpt lat="43.85879" lon="1.50641">
        <ele>98.67</ele>
        <time>2021-08-18T10:30:05Z</time>
      </trkpt>
      <trkpt lat="43.85889" lon="1.50639">
        <ele>98.19</ele>
        <time>2021-08-18T10:30:20Z</time>
      </trkpt>
      <trkpt lat="43.85889" lon="1.50645">
        <ele>98.67</ele>
        <time>2021-08-18T10:30:44Z</time>
      </trkpt>
      <trkpt lat="43.85884" lon="1.50646">
        <ele>98.67</ele>
        <time>2021-08-18T10:31:08Z</time>
      </trkpt>
      <trkpt lat="43.85889" lon="1.50642">
        <ele>98.19</ele>
        <time>2021-08-18T10:31:24Z</time>
      </trkpt>
      <trkpt lat="43.85895" lon="1.50638">
        <ele>98.19</ele>
        <time>2021-08-18T10:31:42Z</time>
      </trkpt>
      <trkpt lat="43.85897" lon="1.50635">
        <ele>98.19</ele>
        <time>2021-08-18T10:32:07Z</time>
      </trkpt>
      <trkpt lat="43.85897" lon="1.50639">
        <ele>98.19</ele>
        <time>2021-08-18T10:32:26Z</time>
      </trkpt>
      <trkpt lat="43.859" lon="1.50632">
        <ele>98.19</ele>
        <time>2021-08-18T10:32:42Z</time>
      </trkpt>
      <trkpt lat="43.859" lon="1.50627">
        <ele>98.19</ele>
        <time>2021-08-18T10:33:01Z</time>
      </trkpt>
      <trkpt lat="43.85899" lon="1.50628">
        <ele>98.19</ele>
        <time>2021-08-18T10:33:23Z</time>
      </trkpt>
      <trkpt lat="43.85901" lon="1.50625">
        <ele>98.19</ele>
        <time>2021-08-18T10:33:38Z</time>
      </trkpt>
      <trkpt lat="43.85906" lon="1.50624">
        <ele>98.19</ele>
        <time>2021-08-18T10:33:57Z</time>
      </trkpt>
      <trkpt lat="43.85906" lon="1.50627">
        <ele>98.19</ele>
        <time>2021-08-18T10:34:16Z</time>
      </trkpt>
      <trkpt lat="43.85905" lon="1.50632">
        <ele>98.19</ele>
        <time>2021-08-18T10:34:32Z</time>
      </trkpt>
      <trkpt lat="43.85902" lon="1.5063">
        <ele>98.19</ele>
        <time>2021-08-18T10:34:42Z</time>
      </trkpt>
      <trkpt lat="43.85901" lon="1.50627">
        <ele>98.19</ele>
        <time>2021-08-18T10:34:51Z</time>
      </trkpt>
      <trkpt lat="43.85902" lon="1.50625">
        <ele>98.19</ele>
        <time>2021-08-18T10:34:59Z</time>
      </trkpt>
      <trkpt lat="43.85902" lon="1.50628">
        <ele>98.19</ele>
        <time>2021-08-18T10:35:02Z</time>
      </trkpt>
      <trkpt lat="43.859" lon="1.50629">
        <ele>98.19</ele>
        <time>2021-08-18T10:35:03Z</time>
      </trkpt>
      <trkpt lat="43.859" lon="1.50629">
        <ele>98.19</ele>
        <time>2021-08-18T10:35:09Z</time>
      </trkpt>
      <trkpt lat="43.859" lon="1.50631">
        <ele>98.19</ele>
        <time>2021-08-18T10:35:34Z</time>
      </trkpt>
      <trkpt lat="43.85898" lon="1.50633">
        <ele>98.19</ele>
        <time>2021-08-18T10:35:48Z</time>
      </trkpt>
      <trkpt lat="43.85897" lon="1.50631">
        <ele>98.19</ele>
        <time>2021-08-18T10:35:52Z</time>
      </trkpt>
      <trkpt lat="43.85896" lon="1.50631">
        <ele>98.19</ele>
        <time>2021-08-18T10:36:10Z</time>
      </trkpt>
      <trkpt lat="43.85896" lon="1.50629">
        <ele>98.19</ele>
        <time>2021-08-18T10:36:24Z</time>
      </trkpt>
      <trkpt lat="43.85896" lon="1.50624">
        <ele>98.19</ele>
        <time>2021-08-18T10:36:28Z</time>
      </trkpt>
      <trkpt lat="43.85895" lon="1.50622">
        <ele>98.19</ele>
        <time>2021-08-18T10:36:29Z</time>
      </trkpt>
      <trkpt lat="43.85881" lon="1.50604">
        <ele>98.19</ele>
        <time>2021-08-18T10:36:35Z</time>
      </trkpt>
      <trkpt lat="43.85876" lon="1.50585">
        <ele>98.19</ele>
        <time>2021-08-18T10:36:40Z</time>
      </trkpt>
      <trkpt lat="43.85876" lon="1.50578">
        <ele>98.67</ele>
        <time>2021-08-18T10:36:45Z</time>
      </trkpt>
      <trkpt lat="43.85877" lon="1.50576">
        <ele>98.67</ele>
        <time>2021-08-18T10:36:54Z</time>
      </trkpt>
      <trkpt lat="43.85878" lon="1.50575">
        <ele>98.67</ele>
        <time>2021-08-18T10:36:55Z</time>
      </trkpt>
      <trkpt lat="43.85879" lon="1.50574">
        <ele>98.67</ele>
        <time>2021-08-18T10:36:56Z</time>
      </trkpt>
      <trkpt lat="43.85879" lon="1.50572">
        <ele>98.67</ele>
        <time>2021-08-18T10:36:57Z</time>
      </trkpt>
      <trkpt lat="43.8588" lon="1.50571">
        <ele>98.67</ele>
        <time>2021-08-18T10:36:58Z</time>
      </trkpt>
      <trkpt lat="43.85881" lon="1.5057">
        <ele>98.67</ele>
        <time>2021-08-18T10:36:59Z</time>
      </trkpt>
      <trkpt lat="43.85882" lon="1.5057">
        <ele>98.67</ele>
        <time>2021-08-18T10:37:00Z</time>
      </trkpt>
      <trkpt lat="43.85884" lon="1.5057">
        <ele>98.67</ele>
        <time>2021-08-18T10:37:01Z</time>
      </trkpt>
      <trkpt lat="43.85885" lon="1.50569">
        <ele>98.67</ele>
        <time>2021-08-18T10:37:02Z</time>
      </trkpt>
      <trkpt lat="43.85886" lon="1.50569">
        <ele>98.67</ele>
        <time>2021-08-18T10:37:03Z</time>
      </trkpt>
      <trkpt lat="43.85895" lon="1.50564">
        <ele>98.67</ele>
        <time>2021-08-18T10:37:13Z</time>
      </trkpt>
      <trkpt lat="43.85895" lon="1.50564">
        <ele>98.67</ele>
        <time>2021-08-18T10:37:23Z</time>
      </trkpt>
      <trkpt lat="43.85896" lon="1.50562">
        <ele>98.67</ele>
        <time>2021-08-18T10:37:47Z</time>
      </trkpt>
      <trkpt lat="43.85894" lon="1.50564">
        <ele>98.67</ele>
        <time>2021-08-18T10:38:09Z</time>
      </trkpt>
      <trkpt lat="43.85891" lon="1.50564">
        <ele>98.67</ele>
        <time>2021-08-18T10:38:25Z</time>
      </trkpt>
      <trkpt lat="43.85891" lon="1.50562">
        <ele>98.67</ele>
        <time>2021-08-18T10:38:45Z</time>
      </trkpt>
      <trkpt lat="43.8589" lon="1.50562">
        <ele>98.67</ele>
        <time>2021-08-18T10:39:02Z</time>
      </trkpt>
      <trkpt lat="43.85889" lon="1.50563">
        <ele>98.67</ele>
        <time>2021-08-18T10:39:22Z</time>
      </trkpt>
      <trkpt lat="43.8589" lon="1.50564">
        <ele>99.15</ele>
        <time>2021-08-18T10:39:42Z</time>
      </trkpt>
      <trkpt lat="43.8589" lon="1.50563">
        <ele>99.15</ele>
        <time>2021-08-18T10:39:56Z</time>
      </trkpt>
      <trkpt lat="43.8589" lon="1.50563">
        <ele>99.15</ele>
        <time>2021-08-18T10:40:04Z</time>
      </trkpt>
      <trkpt lat="43.85889" lon="1.50563">
        <ele>99.15</ele>
        <time>2021-08-18T10:40:17Z</time>
      </trkpt>
      <trkpt lat="43.8589" lon="1.50563">
        <ele>99.15</ele>
        <time>2021-08-18T10:40:31Z</time>
      </trkpt>
      <trkpt lat="43.85892" lon="1.50564">
        <ele>99.15</ele>
        <time>2021-08-18T10:40:44Z</time>
      </trkpt>
      <trkpt lat="43.85892" lon="1.50563">
        <ele>99.15</ele>
        <time>2021-08-18T10:41:01Z</time>
      </trkpt>
      <trkpt lat="43.85893" lon="1.50563">
        <ele>99.63</ele>
        <time>2021-08-18T10:41:17Z</time>
      </trkpt>
      <trkpt lat="43.85893" lon="1.50565">
        <ele>100.11</ele>
        <time>2021-08-18T10:41:32Z</time>
      </trkpt>
      <trkpt lat="43.85894" lon="1.50565">
        <ele>100.11</ele>
        <time>2021-08-18T10:41:45Z</time>
      </trkpt>
      <trkpt lat="43.85894" lon="1.50565">
        <ele>100.11</ele>
        <time>2021-08-18T10:42:00Z</time>
      </trkpt>
      <trkpt lat="43.85894" lon="1.50566">
        <ele>100.11</ele>
        <time>2021-08-18T10:42:17Z</time>
      </trkpt>
      <trkpt lat="43.85895" lon="1.50567">
        <ele>100.11</ele>
        <time>2021-08-18T10:42:32Z</time>
      </trkpt>
      <trkpt lat="43.85895" lon="1.50567">
        <ele>100.11</ele>
        <time>2021-08-18T10:42:44Z</time>
      </trkpt>
      <trkpt lat="43.85896" lon="1.50567">
        <ele>100.11</ele>
        <time>2021-08-18T10:42:56Z</time>
      </trkpt>
      <trkpt lat="43.85897" lon="1.50566">
        <ele>100.11</ele>
        <time>2021-08-18T10:43:06Z</time>
      </trkpt>
      <trkpt lat="43.85899" lon="1.50562">
        <ele>100.11</ele>
        <time>2021-08-18T10:43:17Z</time>
      </trkpt>
      <trkpt lat="43.85901" lon="1.50561">
        <ele>100.11</ele>
        <time>2021-08-18T10:43:18Z</time>
      </trkpt>
      <trkpt lat="43.85902" lon="1.5056">
        <ele>100.11</ele>
        <time>2021-08-18T10:43:19Z</time>
      </trkpt>
      <trkpt lat="43.85917" lon="1.50546">
        <ele>100.11</ele>
        <time>2021-08-18T10:43:25Z</time>
      </trkpt>
      <trkpt lat="43.85926" lon="1.50536">
        <ele>100.11</ele>
        <time>2021-08-18T10:43:28Z</time>
      </trkpt>
      <trkpt lat="43.8593" lon="1.50524">
        <ele>100.11</ele>
        <time>2021-08-18T10:43:31Z</time>
      </trkpt>
      <trkpt lat="43.85933" lon="1.50522">
        <ele>100.11</ele>
        <time>2021-08-18T10:43:32Z</time>
      </trkpt>
      <trkpt lat="43.85951" lon="1.50504">
        <ele>100.11</ele>
        <time>2021-08-18T10:43:38Z</time>
      </trkpt>
      <trkpt lat="43.85972" lon="1.50484">
        <ele>100.11</ele>
        <time>2021-08-18T10:43:45Z</time>
      </trkpt>
      <trkpt lat="43.85997" lon="1.50462">
        <ele>100.11</ele>
        <time>2021-08-18T10:43:52Z</time>
      </trkpt>
      <trkpt lat="43.86029" lon="1.50432">
        <ele>100.11</ele>
        <time>2021-08-18T10:44:00Z</time>
      </trkpt>
      <trkpt lat="43.86062" lon="1.50401">
        <ele>100.11</ele>
        <time>2021-08-18T10:44:08Z</time>
      </trkpt>
      <trkpt lat="43.86101" lon="1.50364">
        <ele>100.11</ele>
        <time>2021-08-18T10:44:18Z</time>
      </trkpt>
      <trkpt lat="43.8612" lon="1.50353">
        <ele>100.11</ele>
        <time>2021-08-18T10:44:24Z</time>
      </trkpt>
      <trkpt lat="43.86122" lon="1.50351">
        <ele>100.11</ele>
        <time>2021-08-18T10:44:25Z</time>
      </trkpt>
      <trkpt lat="43.86124" lon="1.50349">
        <ele>100.11</ele>
        <time>2021-08-18T10:44:26Z</time>
      </trkpt>
      <trkpt lat="43.86126" lon="1.50347">
        <ele>100.11</ele>
        <time>2021-08-18T10:44:27Z</time>
      </trkpt>
      <trkpt lat="43.86127" lon="1.50347">
        <ele>100.11</ele>
        <time>2021-08-18T10:44:28Z</time>
      </trkpt>
      <trkpt lat="43.8613" lon="1.50346">
        <ele>100.11</ele>
        <time>2021-08-18T10:44:29Z</time>
      </trkpt>
      <trkpt lat="43.86132" lon="1.50345">
        <ele>100.11</ele>
        <time>2021-08-18T10:44:30Z</time>
      </trkpt>
      <trkpt lat="43.86135" lon="1.50345">
        <ele>100.11</ele>
        <time>2021-08-18T10:44:31Z</time>
      </trkpt>
      <trkpt lat="43.86137" lon="1.50346">
        <ele>100.11</ele>
        <time>2021-08-18T10:44:32Z</time>
      </trkpt>
      <trkpt lat="43.86139" lon="1.50349">
        <ele>100.11</ele>
        <time>2021-08-18T10:44:33Z</time>
      </trkpt>
      <trkpt lat="43.86141" lon="1.50353">
        <ele>100.11</ele>
        <time>2021-08-18T10:44:34Z</time>
      </trkpt>
      <trkpt lat="43.86143" lon="1.50357">
        <ele>100.11</ele>
        <time>2021-08-18T10:44:35Z</time>
      </trkpt>
      <trkpt lat="43.86146" lon="1.50362">
        <ele>100.11</ele>
        <time>2021-08-18T10:44:36Z</time>
      </trkpt>
      <trkpt lat="43.86175" lon="1.50407">
        <ele>100.11</ele>
        <time>2021-08-18T10:44:46Z</time>
      </trkpt>
      <trkpt lat="43.8618" lon="1.50416">
        <ele>100.11</ele>
        <time>2021-08-18T10:44:48Z</time>
      </trkpt>
      <trkpt lat="43.86183" lon="1.5042">
        <ele>100.6</ele>
        <time>2021-08-18T10:44:49Z</time>
      </trkpt>
      <trkpt lat="43.86186" lon="1.50424">
        <ele>100.6</ele>
        <time>2021-08-18T10:44:50Z</time>
      </trkpt>
      <trkpt lat="43.86188" lon="1.50428">
        <ele>100.6</ele>
        <time>2021-08-18T10:44:51Z</time>
      </trkpt>
      <trkpt lat="43.86189" lon="1.50432">
        <ele>100.6</ele>
        <time>2021-08-18T10:44:52Z</time>
      </trkpt>
      <trkpt lat="43.86191" lon="1.50436">
        <ele>100.6</ele>
        <time>2021-08-18T10:44:53Z</time>
      </trkpt>
      <trkpt lat="43.86192" lon="1.50439">
        <ele>101.08</ele>
        <time>2021-08-18T10:44:54Z</time>
      </trkpt>
      <trkpt lat="43.86207" lon="1.50467">
        <ele>101.08</ele>
        <time>2021-08-18T10:45:00Z</time>
      </trkpt>
      <trkpt lat="43.86221" lon="1.50489">
        <ele>101.08</ele>
        <time>2021-08-18T10:45:05Z</time>
      </trkpt>
      <trkpt lat="43.86223" lon="1.50494">
        <ele>101.08</ele>
        <time>2021-08-18T10:45:06Z</time>
      </trkpt>
      <trkpt lat="43.86247" lon="1.50534">
        <ele>101.08</ele>
        <time>2021-08-18T10:45:14Z</time>
      </trkpt>
      <trkpt lat="43.86277" lon="1.50586">
        <ele>101.08</ele>
        <time>2021-08-18T10:45:25Z</time>
      </trkpt>
      <trkpt lat="43.86282" lon="1.50596">
        <ele>101.08</ele>
        <time>2021-08-18T10:45:28Z</time>
      </trkpt>
      <trkpt lat="43.86284" lon="1.50595">
        <ele>101.08</ele>
        <time>2021-08-18T10:45:29Z</time>
      </trkpt>
      <trkpt lat="43.86285" lon="1.50594">
        <ele>101.08</ele>
        <time>2021-08-18T10:45:30Z</time>
      </trkpt>
      <trkpt lat="43.86291" lon="1.50586">
        <ele>101.08</ele>
        <time>2021-08-18T10:45:34Z</time>
      </trkpt>
      <trkpt lat="43.86307" lon="1.50569">
        <ele>100.11</ele>
        <time>2021-08-18T10:45:39Z</time>
      </trkpt>
      <trkpt lat="43.86326" lon="1.50557">
        <ele>99.15</ele>
        <time>2021-08-18T10:45:44Z</time>
      </trkpt>
      <trkpt lat="43.8633" lon="1.50555">
        <ele>99.15</ele>
        <time>2021-08-18T10:45:45Z</time>
      </trkpt>
      <trkpt lat="43.86334" lon="1.50552">
        <ele>99.15</ele>
        <time>2021-08-18T10:45:46Z</time>
      </trkpt>
      <trkpt lat="43.86337" lon="1.50549">
        <ele>98.67</ele>
        <time>2021-08-18T10:45:47Z</time>
      </trkpt>
      <trkpt lat="43.8634" lon="1.50546">
        <ele>98.67</ele>
        <time>2021-08-18T10:45:48Z</time>
      </trkpt>
      <trkpt lat="43.86372" lon="1.50509">
        <ele>98.67</ele>
        <time>2021-08-18T10:45:57Z</time>
      </trkpt>
      <trkpt lat="43.86376" lon="1.50505">
        <ele>98.67</ele>
        <time>2021-08-18T10:45:58Z</time>
      </trkpt>
      <trkpt lat="43.86387" lon="1.50494">
        <ele>98.67</ele>
        <time>2021-08-18T10:46:01Z</time>
      </trkpt>
      <trkpt lat="43.86391" lon="1.50489">
        <ele>98.67</ele>
        <time>2021-08-18T10:46:02Z</time>
      </trkpt>
      <trkpt lat="43.86394" lon="1.50485">
        <ele>98.67</ele>
        <time>2021-08-18T10:46:03Z</time>
      </trkpt>
      <trkpt lat="43.86398" lon="1.50481">
        <ele>98.67</ele>
        <time>2021-08-18T10:46:04Z</time>
      </trkpt>
      <trkpt lat="43.86402" lon="1.50477">
        <ele>98.67</ele>
        <time>2021-08-18T10:46:05Z</time>
      </trkpt>
      <trkpt lat="43.86414" lon="1.50465">
        <ele>98.67</ele>
        <time>2021-08-18T10:46:08Z</time>
      </trkpt>
      <trkpt lat="43.86418" lon="1.5046">
        <ele>98.67</ele>
        <time>2021-08-18T10:46:09Z</time>
      </trkpt>
      <trkpt lat="43.86422" lon="1.50455">
        <ele>98.67</ele>
        <time>2021-08-18T10:46:10Z</time>
      </trkpt>
      <trkpt lat="43.86425" lon="1.50452">
        <ele>98.67</ele>
        <time>2021-08-18T10:46:11Z</time>
      </trkpt>
      <trkpt lat="43.86428" lon="1.50448">
        <ele>98.67</ele>
        <time>2021-08-18T10:46:12Z</time>
      </trkpt>
      <trkpt lat="43.86448" lon="1.50434">
        <ele>98.67</ele>
        <time>2021-08-18T10:46:17Z</time>
      </trkpt>
      <trkpt lat="43.86452" lon="1.50431">
        <ele>98.67</ele>
        <time>2021-08-18T10:46:18Z</time>
      </trkpt>
      <trkpt lat="43.86483" lon="1.50403">
        <ele>98.19</ele>
        <time>2021-08-18T10:46:25Z</time>
      </trkpt>
      <trkpt lat="43.86522" lon="1.50371">
        <ele>98.19</ele>
        <time>2021-08-18T10:46:34Z</time>
      </trkpt>
      <trkpt lat="43.86558" lon="1.50331">
        <ele>98.19</ele>
        <time>2021-08-18T10:46:44Z</time>
      </trkpt>
      <trkpt lat="43.86587" lon="1.50302">
        <ele>97.23</ele>
        <time>2021-08-18T10:46:51Z</time>
      </trkpt>
      <trkpt lat="43.86596" lon="1.50295">
        <ele>97.23</ele>
        <time>2021-08-18T10:46:53Z</time>
      </trkpt>
      <trkpt lat="43.866" lon="1.5029">
        <ele>97.23</ele>
        <time>2021-08-18T10:46:54Z</time>
      </trkpt>
      <trkpt lat="43.86607" lon="1.50281">
        <ele>97.23</ele>
        <time>2021-08-18T10:46:56Z</time>
      </trkpt>
      <trkpt lat="43.8661" lon="1.50277">
        <ele>97.23</ele>
        <time>2021-08-18T10:46:57Z</time>
      </trkpt>
      <trkpt lat="43.86626" lon="1.50263">
        <ele>97.23</ele>
        <time>2021-08-18T10:47:01Z</time>
      </trkpt>
      <trkpt lat="43.86654" lon="1.50236">
        <ele>96.75</ele>
        <time>2021-08-18T10:47:09Z</time>
      </trkpt>
      <trkpt lat="43.86666" lon="1.50226">
        <ele>96.75</ele>
        <time>2021-08-18T10:47:12Z</time>
      </trkpt>
      <trkpt lat="43.8667" lon="1.50222">
        <ele>96.75</ele>
        <time>2021-08-18T10:47:13Z</time>
      </trkpt>
      <trkpt lat="43.86677" lon="1.50214">
        <ele>96.75</ele>
        <time>2021-08-18T10:47:15Z</time>
      </trkpt>
      <trkpt lat="43.86681" lon="1.50211">
        <ele>96.75</ele>
        <time>2021-08-18T10:47:16Z</time>
      </trkpt>
      <trkpt lat="43.86693" lon="1.502">
        <ele>98.19</ele>
        <time>2021-08-18T10:47:19Z</time>
      </trkpt>
      <trkpt lat="43.86734" lon="1.50162">
        <ele>98.19</ele>
        <time>2021-08-18T10:47:29Z</time>
      </trkpt>
      <trkpt lat="43.86741" lon="1.50153">
        <ele>98.19</ele>
        <time>2021-08-18T10:47:31Z</time>
      </trkpt>
      <trkpt lat="43.86777" lon="1.5011">
        <ele>99.63</ele>
        <time>2021-08-18T10:47:41Z</time>
      </trkpt>
      <trkpt lat="43.86796" lon="1.50086">
        <ele>102.04</ele>
        <time>2021-08-18T10:47:49Z</time>
      </trkpt>
      <trkpt lat="43.86799" lon="1.50067">
        <ele>102.52</ele>
        <time>2021-08-18T10:47:54Z</time>
      </trkpt>
      <trkpt lat="43.86787" lon="1.50036">
        <ele>103.96</ele>
        <time>2021-08-18T10:48:01Z</time>
      </trkpt>
      <trkpt lat="43.86774" lon="1.50001">
        <ele>103.48</ele>
        <time>2021-08-18T10:48:08Z</time>
      </trkpt>
      <trkpt lat="43.86751" lon="1.49944">
        <ele>103.48</ele>
        <time>2021-08-18T10:48:19Z</time>
      </trkpt>
      <trkpt lat="43.86746" lon="1.49932">
        <ele>103.48</ele>
        <time>2021-08-18T10:48:21Z</time>
      </trkpt>
      <trkpt lat="43.86744" lon="1.49926">
        <ele>103.48</ele>
        <time>2021-08-18T10:48:22Z</time>
      </trkpt>
      <trkpt lat="43.86722" lon="1.49873">
        <ele>102.04</ele>
        <time>2021-08-18T10:48:30Z</time>
      </trkpt>
      <trkpt lat="43.86704" lon="1.4982">
        <ele>99.15</ele>
        <time>2021-08-18T10:48:36Z</time>
      </trkpt>
      <trkpt lat="43.86702" lon="1.4981">
        <ele>98.67</ele>
        <time>2021-08-18T10:48:37Z</time>
      </trkpt>
      <trkpt lat="43.86701" lon="1.498">
        <ele>98.67</ele>
        <time>2021-08-18T10:48:38Z</time>
      </trkpt>
      <trkpt lat="43.86701" lon="1.49788">
        <ele>98.19</ele>
        <time>2021-08-18T10:48:39Z</time>
      </trkpt>
      <trkpt lat="43.867" lon="1.49777">
        <ele>98.19</ele>
        <time>2021-08-18T10:48:40Z</time>
      </trkpt>
      <trkpt lat="43.86698" lon="1.4977">
        <ele>98.19</ele>
        <time>2021-08-18T10:48:41Z</time>
      </trkpt>
      <trkpt lat="43.86692" lon="1.49763">
        <ele>98.19</ele>
        <time>2021-08-18T10:48:42Z</time>
      </trkpt>
      <trkpt lat="43.86687" lon="1.49759">
        <ele>98.19</ele>
        <time>2021-08-18T10:48:43Z</time>
      </trkpt>
      <trkpt lat="43.86682" lon="1.49755">
        <ele>98.19</ele>
        <time>2021-08-18T10:48:44Z</time>
      </trkpt>
      <trkpt lat="43.86678" lon="1.49749">
        <ele>98.19</ele>
        <time>2021-08-18T10:48:45Z</time>
      </trkpt>
      <trkpt lat="43.86674" lon="1.49741">
        <ele>98.19</ele>
        <time>2021-08-18T10:48:46Z</time>
      </trkpt>
      <trkpt lat="43.86672" lon="1.49735">
        <ele>98.19</ele>
        <time>2021-08-18T10:48:47Z</time>
      </trkpt>
      <trkpt lat="43.8666" lon="1.497">
        <ele>100.11</ele>
        <time>2021-08-18T10:48:52Z</time>
      </trkpt>
      <trkpt lat="43.86655" lon="1.49687">
        <ele>100.11</ele>
        <time>2021-08-18T10:48:54Z</time>
      </trkpt>
      <trkpt lat="43.86629" lon="1.49633">
        <ele>100.11</ele>
        <time>2021-08-18T10:49:03Z</time>
      </trkpt>
      <trkpt lat="43.86595" lon="1.49572">
        <ele>100.11</ele>
        <time>2021-08-18T10:49:13Z</time>
      </trkpt>
      <trkpt lat="43.86565" lon="1.49516">
        <ele>100.11</ele>
        <time>2021-08-18T10:49:22Z</time>
      </trkpt>
      <trkpt lat="43.86531" lon="1.49456">
        <ele>100.11</ele>
        <time>2021-08-18T10:49:31Z</time>
      </trkpt>
      <trkpt lat="43.86499" lon="1.49392">
        <ele>100.11</ele>
        <time>2021-08-18T10:49:40Z</time>
      </trkpt>
      <trkpt lat="43.86468" lon="1.49335">
        <ele>100.11</ele>
        <time>2021-08-18T10:49:49Z</time>
      </trkpt>
      <trkpt lat="43.86447" lon="1.49295">
        <ele>100.11</ele>
        <time>2021-08-18T10:49:55Z</time>
      </trkpt>
      <trkpt lat="43.86441" lon="1.4928">
        <ele>100.11</ele>
        <time>2021-08-18T10:49:57Z</time>
      </trkpt>
      <trkpt lat="43.86411" lon="1.4923">
        <ele>100.11</ele>
        <time>2021-08-18T10:50:05Z</time>
      </trkpt>
      <trkpt lat="43.86367" lon="1.49149">
        <ele>99.63</ele>
        <time>2021-08-18T10:50:18Z</time>
      </trkpt>
      <trkpt lat="43.86336" lon="1.49088">
        <ele>99.63</ele>
        <time>2021-08-18T10:50:27Z</time>
      </trkpt>
      <trkpt lat="43.86288" lon="1.49001">
        <ele>99.63</ele>
        <time>2021-08-18T10:50:40Z</time>
      </trkpt>
      <trkpt lat="43.86264" lon="1.48956">
        <ele>100.11</ele>
        <time>2021-08-18T10:50:47Z</time>
      </trkpt>
      <trkpt lat="43.86241" lon="1.48913">
        <ele>100.6</ele>
        <time>2021-08-18T10:50:54Z</time>
      </trkpt>
      <trkpt lat="43.86219" lon="1.48874">
        <ele>100.11</ele>
        <time>2021-08-18T10:51:02Z</time>
      </trkpt>
      <trkpt lat="43.86193" lon="1.48826">
        <ele>100.11</ele>
        <time>2021-08-18T10:51:11Z</time>
      </trkpt>
      <trkpt lat="43.86166" lon="1.48774">
        <ele>100.6</ele>
        <time>2021-08-18T10:51:20Z</time>
      </trkpt>
      <trkpt lat="43.86129" lon="1.48706">
        <ele>100.6</ele>
        <time>2021-08-18T10:51:31Z</time>
      </trkpt>
      <trkpt lat="43.86096" lon="1.48645">
        <ele>101.08</ele>
        <time>2021-08-18T10:51:41Z</time>
      </trkpt>
      <trkpt lat="43.86072" lon="1.486">
        <ele>103</ele>
        <time>2021-08-18T10:51:50Z</time>
      </trkpt>
      <trkpt lat="43.86045" lon="1.48545">
        <ele>103</ele>
        <time>2021-08-18T10:52:00Z</time>
      </trkpt>
      <trkpt lat="43.86043" lon="1.48538">
        <ele>103</ele>
        <time>2021-08-18T10:52:01Z</time>
      </trkpt>
      <trkpt lat="43.86019" lon="1.48474">
        <ele>103</ele>
        <time>2021-08-18T10:52:11Z</time>
      </trkpt>
      <trkpt lat="43.85998" lon="1.48416">
        <ele>103.96</ele>
        <time>2021-08-18T10:52:21Z</time>
      </trkpt>
      <trkpt lat="43.85985" lon="1.48382">
        <ele>104.92</ele>
        <time>2021-08-18T10:52:29Z</time>
      </trkpt>
      <trkpt lat="43.85971" lon="1.48346">
        <ele>106.36</ele>
        <time>2021-08-18T10:52:39Z</time>
      </trkpt>
      <trkpt lat="43.85963" lon="1.48321">
        <ele>107.32</ele>
        <time>2021-08-18T10:52:46Z</time>
      </trkpt>
      <trkpt lat="43.8596" lon="1.48297">
        <ele>107.81</ele>
        <time>2021-08-18T10:52:52Z</time>
      </trkpt>
      <trkpt lat="43.85948" lon="1.48275">
        <ele>108.29</ele>
        <time>2021-08-18T10:52:58Z</time>
      </trkpt>
      <trkpt lat="43.85925" lon="1.48242">
        <ele>108.77</ele>
        <time>2021-08-18T10:53:07Z</time>
      </trkpt>
      <trkpt lat="43.85922" lon="1.48238">
        <ele>108.77</ele>
        <time>2021-08-18T10:53:08Z</time>
      </trkpt>
      <trkpt lat="43.85897" lon="1.48194">
        <ele>108.77</ele>
        <time>2021-08-18T10:53:17Z</time>
      </trkpt>
      <trkpt lat="43.85895" lon="1.48187">
        <ele>108.77</ele>
        <time>2021-08-18T10:53:19Z</time>
      </trkpt>
      <trkpt lat="43.85893" lon="1.48186">
        <ele>108.77</ele>
        <time>2021-08-18T10:53:24Z</time>
      </trkpt>
      <trkpt lat="43.85893" lon="1.48187">
        <ele>108.77</ele>
        <time>2021-08-18T10:53:41Z</time>
      </trkpt>
      <trkpt lat="43.8589" lon="1.48187">
        <ele>108.77</ele>
        <time>2021-08-18T10:54:02Z</time>
      </trkpt>
      <trkpt lat="43.85889" lon="1.48187">
        <ele>108.77</ele>
        <time>2021-08-18T10:54:03Z</time>
      </trkpt>
      <trkpt lat="43.8589" lon="1.48193">
        <ele>108.77</ele>
        <time>2021-08-18T10:54:06Z</time>
      </trkpt>
      <trkpt lat="43.85892" lon="1.48196">
        <ele>108.77</ele>
        <time>2021-08-18T10:54:07Z</time>
      </trkpt>
      <trkpt lat="43.85894" lon="1.48199">
        <ele>108.77</ele>
        <time>2021-08-18T10:54:08Z</time>
      </trkpt>
      <trkpt lat="43.85905" lon="1.48215">
        <ele>108.77</ele>
        <time>2021-08-18T10:54:12Z</time>
      </trkpt>
      <trkpt lat="43.85929" lon="1.48247">
        <ele>108.77</ele>
        <time>2021-08-18T10:54:20Z</time>
      </trkpt>
      <trkpt lat="43.85933" lon="1.48245">
        <ele>108.77</ele>
        <time>2021-08-18T10:54:21Z</time>
      </trkpt>
      <trkpt lat="43.85936" lon="1.48243">
        <ele>108.77</ele>
        <time>2021-08-18T10:54:22Z</time>
      </trkpt>
      <trkpt lat="43.85939" lon="1.4824">
        <ele>108.77</ele>
        <time>2021-08-18T10:54:23Z</time>
      </trkpt>
      <trkpt lat="43.85942" lon="1.48237">
        <ele>108.77</ele>
        <time>2021-08-18T10:54:24Z</time>
      </trkpt>
      <trkpt lat="43.85953" lon="1.48226">
        <ele>108.77</ele>
        <time>2021-08-18T10:54:28Z</time>
      </trkpt>
      <trkpt lat="43.85956" lon="1.48226">
        <ele>108.77</ele>
        <time>2021-08-18T10:54:29Z</time>
      </trkpt>
      <trkpt lat="43.85959" lon="1.48226">
        <ele>108.77</ele>
        <time>2021-08-18T10:54:30Z</time>
      </trkpt>
      <trkpt lat="43.85963" lon="1.48235">
        <ele>108.77</ele>
        <time>2021-08-18T10:54:35Z</time>
      </trkpt>
      <trkpt lat="43.85957" lon="1.48234">
        <ele>108.77</ele>
        <time>2021-08-18T10:54:40Z</time>
      </trkpt>
      <trkpt lat="43.8596" lon="1.48225">
        <ele>108.77</ele>
        <time>2021-08-18T10:54:44Z</time>
      </trkpt>
      <trkpt lat="43.8596" lon="1.48222">
        <ele>108.77</ele>
        <time>2021-08-18T10:54:45Z</time>
      </trkpt>
      <trkpt lat="43.85959" lon="1.48219">
        <ele>108.77</ele>
        <time>2021-08-18T10:54:46Z</time>
      </trkpt>
      <trkpt lat="43.85959" lon="1.48216">
        <ele>108.77</ele>
        <time>2021-08-18T10:54:47Z</time>
      </trkpt>
      <trkpt lat="43.85958" lon="1.48213">
        <ele>108.77</ele>
        <time>2021-08-18T10:54:48Z</time>
      </trkpt>
      <trkpt lat="43.85957" lon="1.48211">
        <ele>108.77</ele>
        <time>2021-08-18T10:54:49Z</time>
      </trkpt>
      <trkpt lat="43.85958" lon="1.48208">
        <ele>108.77</ele>
        <time>2021-08-18T10:54:50Z</time>
      </trkpt>
      <trkpt lat="43.85959" lon="1.48205">
        <ele>108.77</ele>
        <time>2021-08-18T10:54:51Z</time>
      </trkpt>
      <trkpt lat="43.8596" lon="1.48203">
        <ele>108.77</ele>
        <time>2021-08-18T10:54:52Z</time>
      </trkpt>
      <trkpt lat="43.85961" lon="1.48201">
        <ele>108.77</ele>
        <time>2021-08-18T10:54:53Z</time>
      </trkpt>
      <trkpt lat="43.85961" lon="1.48199">
        <ele>108.77</ele>
        <time>2021-08-18T10:54:54Z</time>
      </trkpt>
      <trkpt lat="43.8596" lon="1.48197">
        <ele>108.77</ele>
        <time>2021-08-18T10:54:55Z</time>
      </trkpt>
      <trkpt lat="43.85959" lon="1.48198">
        <ele>108.77</ele>
        <time>2021-08-18T10:54:59Z</time>
      </trkpt>
      <trkpt lat="43.8596" lon="1.48198">
        <ele>108.77</ele>
        <time>2021-08-18T10:55:00Z</time>
      </trkpt>
      <trkpt lat="43.85962" lon="1.48198">
        <ele>108.77</ele>
        <time>2021-08-18T10:55:01Z</time>
      </trkpt>
      <trkpt lat="43.85966" lon="1.48197">
        <ele>108.77</ele>
        <time>2021-08-18T10:55:05Z</time>
      </trkpt>
      <trkpt lat="43.85961" lon="1.48194">
        <ele>108.77</ele>
        <time>2021-08-18T10:55:09Z</time>
      </trkpt>
      <trkpt lat="43.85959" lon="1.48191">
        <ele>108.77</ele>
        <time>2021-08-18T10:55:10Z</time>
      </trkpt>
      <trkpt lat="43.85956" lon="1.48188">
        <ele>108.77</ele>
        <time>2021-08-18T10:55:11Z</time>
      </trkpt>
      <trkpt lat="43.85954" lon="1.48186">
        <ele>108.77</ele>
        <time>2021-08-18T10:55:12Z</time>
      </trkpt>
      <trkpt lat="43.85951" lon="1.48183">
        <ele>108.77</ele>
        <time>2021-08-18T10:55:13Z</time>
      </trkpt>
      <trkpt lat="43.85949" lon="1.4818">
        <ele>108.77</ele>
        <time>2021-08-18T10:55:14Z</time>
      </trkpt>
      <trkpt lat="43.85948" lon="1.48175">
        <ele>108.77</ele>
        <time>2021-08-18T10:55:15Z</time>
      </trkpt>
      <trkpt lat="43.85948" lon="1.4817">
        <ele>108.77</ele>
        <time>2021-08-18T10:55:16Z</time>
      </trkpt>
      <trkpt lat="43.85947" lon="1.48165">
        <ele>108.77</ele>
        <time>2021-08-18T10:55:17Z</time>
      </trkpt>
      <trkpt lat="43.85946" lon="1.48144">
        <ele>108.77</ele>
        <time>2021-08-18T10:55:21Z</time>
      </trkpt>
      <trkpt lat="43.85946" lon="1.48138">
        <ele>108.77</ele>
        <time>2021-08-18T10:55:22Z</time>
      </trkpt>
      <trkpt lat="43.8594" lon="1.48093">
        <ele>107.32</ele>
        <time>2021-08-18T10:55:29Z</time>
      </trkpt>
      <trkpt lat="43.85929" lon="1.48038">
        <ele>107.32</ele>
        <time>2021-08-18T10:55:37Z</time>
      </trkpt>
      <trkpt lat="43.85913" lon="1.47974">
        <ele>107.32</ele>
        <time>2021-08-18T10:55:46Z</time>
      </trkpt>
      <trkpt lat="43.85896" lon="1.47902">
        <ele>107.32</ele>
        <time>2021-08-18T10:55:56Z</time>
      </trkpt>
      <trkpt lat="43.85888" lon="1.4786">
        <ele>107.32</ele>
        <time>2021-08-18T10:56:02Z</time>
      </trkpt>
      <trkpt lat="43.85886" lon="1.47847">
        <ele>107.32</ele>
        <time>2021-08-18T10:56:04Z</time>
      </trkpt>
      <trkpt lat="43.85875" lon="1.47786">
        <ele>107.32</ele>
        <time>2021-08-18T10:56:12Z</time>
      </trkpt>
      <trkpt lat="43.85861" lon="1.47714">
        <ele>106.84</ele>
        <time>2021-08-18T10:56:21Z</time>
      </trkpt>
      <trkpt lat="43.85851" lon="1.47653">
        <ele>106.84</ele>
        <time>2021-08-18T10:56:29Z</time>
      </trkpt>
      <trkpt lat="43.85835" lon="1.47564">
        <ele>106.36</ele>
        <time>2021-08-18T10:56:41Z</time>
      </trkpt>
      <trkpt lat="43.85821" lon="1.47505">
        <ele>106.36</ele>
        <time>2021-08-18T10:56:49Z</time>
      </trkpt>
      <trkpt lat="43.858" lon="1.47443">
        <ele>106.36</ele>
        <time>2021-08-18T10:56:58Z</time>
      </trkpt>
      <trkpt lat="43.85782" lon="1.47399">
        <ele>106.36</ele>
        <time>2021-08-18T10:57:05Z</time>
      </trkpt>
      <trkpt lat="43.85779" lon="1.47392">
        <ele>106.36</ele>
        <time>2021-08-18T10:57:06Z</time>
      </trkpt>
      <trkpt lat="43.85745" lon="1.47335">
        <ele>106.36</ele>
        <time>2021-08-18T10:57:15Z</time>
      </trkpt>
      <trkpt lat="43.85716" lon="1.47287">
        <ele>106.36</ele>
        <time>2021-08-18T10:57:23Z</time>
      </trkpt>
      <trkpt lat="43.85681" lon="1.47223">
        <ele>106.36</ele>
        <time>2021-08-18T10:57:33Z</time>
      </trkpt>
      <trkpt lat="43.85657" lon="1.47176">
        <ele>106.36</ele>
        <time>2021-08-18T10:57:40Z</time>
      </trkpt>
      <trkpt lat="43.85648" lon="1.47156">
        <ele>107.81</ele>
        <time>2021-08-18T10:57:43Z</time>
      </trkpt>
      <trkpt lat="43.85628" lon="1.4711">
        <ele>107.81</ele>
        <time>2021-08-18T10:57:50Z</time>
      </trkpt>
      <trkpt lat="43.85599" lon="1.47026">
        <ele>107.81</ele>
        <time>2021-08-18T10:58:02Z</time>
      </trkpt>
      <trkpt lat="43.85572" lon="1.46925">
        <ele>107.81</ele>
        <time>2021-08-18T10:58:16Z</time>
      </trkpt>
      <trkpt lat="43.85562" lon="1.46899">
        <ele>107.81</ele>
        <time>2021-08-18T10:58:20Z</time>
      </trkpt>
      <trkpt lat="43.85559" lon="1.46893">
        <ele>107.81</ele>
        <time>2021-08-18T10:58:21Z</time>
      </trkpt>
      <trkpt lat="43.85547" lon="1.46873">
        <ele>107.81</ele>
        <time>2021-08-18T10:58:25Z</time>
      </trkpt>
      <trkpt lat="43.85524" lon="1.46837">
        <ele>107.81</ele>
        <time>2021-08-18T10:58:33Z</time>
      </trkpt>
      <trkpt lat="43.85489" lon="1.46785">
        <ele>107.81</ele>
        <time>2021-08-18T10:58:43Z</time>
      </trkpt>
      <trkpt lat="43.85472" lon="1.46759">
        <ele>107.81</ele>
        <time>2021-08-18T10:58:48Z</time>
      </trkpt>
      <trkpt lat="43.85466" lon="1.4675">
        <ele>107.81</ele>
        <time>2021-08-18T10:58:50Z</time>
      </trkpt>
      <trkpt lat="43.85459" lon="1.46742">
        <ele>107.81</ele>
        <time>2021-08-18T10:58:52Z</time>
      </trkpt>
      <trkpt lat="43.85433" lon="1.46701">
        <ele>107.81</ele>
        <time>2021-08-18T10:59:00Z</time>
      </trkpt>
      <trkpt lat="43.8539" lon="1.46643">
        <ele>107.81</ele>
        <time>2021-08-18T10:59:11Z</time>
      </trkpt>
      <trkpt lat="43.85348" lon="1.46603">
        <ele>106.84</ele>
        <time>2021-08-18T10:59:20Z</time>
      </trkpt>
      <trkpt lat="43.85318" lon="1.46573">
        <ele>106.84</ele>
        <time>2021-08-18T10:59:27Z</time>
      </trkpt>
      <trkpt lat="43.85311" lon="1.46563">
        <ele>106.84</ele>
        <time>2021-08-18T10:59:29Z</time>
      </trkpt>
      <trkpt lat="43.85307" lon="1.46559">
        <ele>106.84</ele>
        <time>2021-08-18T10:59:30Z</time>
      </trkpt>
      <trkpt lat="43.85272" lon="1.46499">
        <ele>106.84</ele>
        <time>2021-08-18T10:59:41Z</time>
      </trkpt>
      <trkpt lat="43.85244" lon="1.46446">
        <ele>106.84</ele>
        <time>2021-08-18T10:59:50Z</time>
      </trkpt>
      <trkpt lat="43.85224" lon="1.46411">
        <ele>106.84</ele>
        <time>2021-08-18T10:59:56Z</time>
      </trkpt>
      <trkpt lat="43.85198" lon="1.46358">
        <ele>106.36</ele>
        <time>2021-08-18T11:00:05Z</time>
      </trkpt>
      <trkpt lat="43.85174" lon="1.46315">
        <ele>107.81</ele>
        <time>2021-08-18T11:00:13Z</time>
      </trkpt>
      <trkpt lat="43.85149" lon="1.46271">
        <ele>107.81</ele>
        <time>2021-08-18T11:00:22Z</time>
      </trkpt>
      <trkpt lat="43.85134" lon="1.46247">
        <ele>108.29</ele>
        <time>2021-08-18T11:00:27Z</time>
      </trkpt>
      <trkpt lat="43.85132" lon="1.46243">
        <ele>108.29</ele>
        <time>2021-08-18T11:00:28Z</time>
      </trkpt>
      <trkpt lat="43.85103" lon="1.46204">
        <ele>108.77</ele>
        <time>2021-08-18T11:00:37Z</time>
      </trkpt>
      <trkpt lat="43.85081" lon="1.46174">
        <ele>109.25</ele>
        <time>2021-08-18T11:00:44Z</time>
      </trkpt>
      <trkpt lat="43.85074" lon="1.46166">
        <ele>109.25</ele>
        <time>2021-08-18T11:00:46Z</time>
      </trkpt>
      <trkpt lat="43.85053" lon="1.46135">
        <ele>110.21</ele>
        <time>2021-08-18T11:00:54Z</time>
      </trkpt>
      <trkpt lat="43.85035" lon="1.46109">
        <ele>111.17</ele>
        <time>2021-08-18T11:01:01Z</time>
      </trkpt>
      <trkpt lat="43.85021" lon="1.46092">
        <ele>112.13</ele>
        <time>2021-08-18T11:01:08Z</time>
      </trkpt>
      <trkpt lat="43.85014" lon="1.46081">
        <ele>112.61</ele>
        <time>2021-08-18T11:01:12Z</time>
      </trkpt>
      <trkpt lat="43.85014" lon="1.46077">
        <ele>113.09</ele>
        <time>2021-08-18T11:01:13Z</time>
      </trkpt>
      <trkpt lat="43.85017" lon="1.46075">
        <ele>113.09</ele>
        <time>2021-08-18T11:01:14Z</time>
      </trkpt>
      <trkpt lat="43.85037" lon="1.46069">
        <ele>113.57</ele>
        <time>2021-08-18T11:01:20Z</time>
      </trkpt>
      <trkpt lat="43.85041" lon="1.46067">
        <ele>113.57</ele>
        <time>2021-08-18T11:01:21Z</time>
      </trkpt>
      <trkpt lat="43.85045" lon="1.46065">
        <ele>113.57</ele>
        <time>2021-08-18T11:01:22Z</time>
      </trkpt>
      <trkpt lat="43.85058" lon="1.46059">
        <ele>113.57</ele>
        <time>2021-08-18T11:01:25Z</time>
      </trkpt>
      <trkpt lat="43.85061" lon="1.46055">
        <ele>113.57</ele>
        <time>2021-08-18T11:01:26Z</time>
      </trkpt>
      <trkpt lat="43.85063" lon="1.4605">
        <ele>113.57</ele>
        <time>2021-08-18T11:01:27Z</time>
      </trkpt>
      <trkpt lat="43.85064" lon="1.46044">
        <ele>113.57</ele>
        <time>2021-08-18T11:01:28Z</time>
      </trkpt>
      <trkpt lat="43.85063" lon="1.46038">
        <ele>113.57</ele>
        <time>2021-08-18T11:01:29Z</time>
      </trkpt>
      <trkpt lat="43.85061" lon="1.46032">
        <ele>113.57</ele>
        <time>2021-08-18T11:01:30Z</time>
      </trkpt>
      <trkpt lat="43.85059" lon="1.46028">
        <ele>113.57</ele>
        <time>2021-08-18T11:01:31Z</time>
      </trkpt>
      <trkpt lat="43.85056" lon="1.46023">
        <ele>113.57</ele>
        <time>2021-08-18T11:01:32Z</time>
      </trkpt>
      <trkpt lat="43.85035" lon="1.45988">
        <ele>113.57</ele>
        <time>2021-08-18T11:01:40Z</time>
      </trkpt>
      <trkpt lat="43.85019" lon="1.45962">
        <ele>113.57</ele>
        <time>2021-08-18T11:01:46Z</time>
      </trkpt>
      <trkpt lat="43.85013" lon="1.45954">
        <ele>113.57</ele>
        <time>2021-08-18T11:01:48Z</time>
      </trkpt>
      <trkpt lat="43.8501" lon="1.45949">
        <ele>114.05</ele>
        <time>2021-08-18T11:01:49Z</time>
      </trkpt>
      <trkpt lat="43.8498" lon="1.45905">
        <ele>114.05</ele>
        <time>2021-08-18T11:01:59Z</time>
      </trkpt>
      <trkpt lat="43.84954" lon="1.45863">
        <ele>114.05</ele>
        <time>2021-08-18T11:02:07Z</time>
      </trkpt>
      <trkpt lat="43.84946" lon="1.45852">
        <ele>114.05</ele>
        <time>2021-08-18T11:02:09Z</time>
      </trkpt>
      <trkpt lat="43.84943" lon="1.45847">
        <ele>114.05</ele>
        <time>2021-08-18T11:02:10Z</time>
      </trkpt>
      <trkpt lat="43.84928" lon="1.45826">
        <ele>114.05</ele>
        <time>2021-08-18T11:02:14Z</time>
      </trkpt>
      <trkpt lat="43.84908" lon="1.45797">
        <ele>114.05</ele>
        <time>2021-08-18T11:02:21Z</time>
      </trkpt>
      <trkpt lat="43.8488" lon="1.45757">
        <ele>114.05</ele>
        <time>2021-08-18T11:02:30Z</time>
      </trkpt>
      <trkpt lat="43.84852" lon="1.45718">
        <ele>114.05</ele>
        <time>2021-08-18T11:02:38Z</time>
      </trkpt>
      <trkpt lat="43.84824" lon="1.45673">
        <ele>114.05</ele>
        <time>2021-08-18T11:02:46Z</time>
      </trkpt>
      <trkpt lat="43.84818" lon="1.4566">
        <ele>112.61</ele>
        <time>2021-08-18T11:02:48Z</time>
      </trkpt>
      <trkpt lat="43.84789" lon="1.45601">
        <ele>112.61</ele>
        <time>2021-08-18T11:02:57Z</time>
      </trkpt>
      <trkpt lat="43.84759" lon="1.45543">
        <ele>112.61</ele>
        <time>2021-08-18T11:03:06Z</time>
      </trkpt>
      <trkpt lat="43.84728" lon="1.45485">
        <ele>112.61</ele>
        <time>2021-08-18T11:03:16Z</time>
      </trkpt>
      <trkpt lat="43.84703" lon="1.45439">
        <ele>114.05</ele>
        <time>2021-08-18T11:03:24Z</time>
      </trkpt>
      <trkpt lat="43.84682" lon="1.454">
        <ele>115.01</ele>
        <time>2021-08-18T11:03:31Z</time>
      </trkpt>
      <trkpt lat="43.84675" lon="1.4539">
        <ele>115.5</ele>
        <time>2021-08-18T11:03:33Z</time>
      </trkpt>
      <trkpt lat="43.84672" lon="1.45387">
        <ele>115.5</ele>
        <time>2021-08-18T11:03:34Z</time>
      </trkpt>
      <trkpt lat="43.84669" lon="1.45384">
        <ele>115.5</ele>
        <time>2021-08-18T11:03:35Z</time>
      </trkpt>
      <trkpt lat="43.84665" lon="1.45382">
        <ele>115.98</ele>
        <time>2021-08-18T11:03:36Z</time>
      </trkpt>
      <trkpt lat="43.84662" lon="1.45379">
        <ele>115.98</ele>
        <time>2021-08-18T11:03:37Z</time>
      </trkpt>
      <trkpt lat="43.84659" lon="1.45377">
        <ele>115.98</ele>
        <time>2021-08-18T11:03:38Z</time>
      </trkpt>
      <trkpt lat="43.84656" lon="1.45374">
        <ele>115.98</ele>
        <time>2021-08-18T11:03:39Z</time>
      </trkpt>
      <trkpt lat="43.84652" lon="1.45371">
        <ele>116.46</ele>
        <time>2021-08-18T11:03:40Z</time>
      </trkpt>
      <trkpt lat="43.84619" lon="1.45346">
        <ele>117.9</ele>
        <time>2021-08-18T11:03:49Z</time>
      </trkpt>
      <trkpt lat="43.84591" lon="1.45325">
        <ele>117.9</ele>
        <time>2021-08-18T11:03:56Z</time>
      </trkpt>
      <trkpt lat="43.84548" lon="1.45291">
        <ele>117.9</ele>
        <time>2021-08-18T11:04:05Z</time>
      </trkpt>
      <trkpt lat="43.845" lon="1.4525">
        <ele>116.46</ele>
        <time>2021-08-18T11:04:15Z</time>
      </trkpt>
      <trkpt lat="43.84473" lon="1.45219">
        <ele>116.46</ele>
        <time>2021-08-18T11:04:22Z</time>
      </trkpt>
      <trkpt lat="43.84461" lon="1.452">
        <ele>116.46</ele>
        <time>2021-08-18T11:04:26Z</time>
      </trkpt>
      <trkpt lat="43.84459" lon="1.45194">
        <ele>116.46</ele>
        <time>2021-08-18T11:04:27Z</time>
      </trkpt>
      <trkpt lat="43.84458" lon="1.45187">
        <ele>117.9</ele>
        <time>2021-08-18T11:04:28Z</time>
      </trkpt>
      <trkpt lat="43.84459" lon="1.45181">
        <ele>117.9</ele>
        <time>2021-08-18T11:04:29Z</time>
      </trkpt>
      <trkpt lat="43.8446" lon="1.45175">
        <ele>117.9</ele>
        <time>2021-08-18T11:04:30Z</time>
      </trkpt>
      <trkpt lat="43.84462" lon="1.45169">
        <ele>117.9</ele>
        <time>2021-08-18T11:04:31Z</time>
      </trkpt>
      <trkpt lat="43.84463" lon="1.45162">
        <ele>117.9</ele>
        <time>2021-08-18T11:04:32Z</time>
      </trkpt>
      <trkpt lat="43.84464" lon="1.45155">
        <ele>117.9</ele>
        <time>2021-08-18T11:04:33Z</time>
      </trkpt>
      <trkpt lat="43.84464" lon="1.45147">
        <ele>117.9</ele>
        <time>2021-08-18T11:04:34Z</time>
      </trkpt>
      <trkpt lat="43.84464" lon="1.4514">
        <ele>117.9</ele>
        <time>2021-08-18T11:04:35Z</time>
      </trkpt>
      <trkpt lat="43.84462" lon="1.45133">
        <ele>117.9</ele>
        <time>2021-08-18T11:04:36Z</time>
      </trkpt>
      <trkpt lat="43.8446" lon="1.45126">
        <ele>117.9</ele>
        <time>2021-08-18T11:04:37Z</time>
      </trkpt>
      <trkpt lat="43.84457" lon="1.4512">
        <ele>117.9</ele>
        <time>2021-08-18T11:04:38Z</time>
      </trkpt>
      <trkpt lat="43.84453" lon="1.45114">
        <ele>117.9</ele>
        <time>2021-08-18T11:04:39Z</time>
      </trkpt>
      <trkpt lat="43.84424" lon="1.45068">
        <ele>117.9</ele>
        <time>2021-08-18T11:04:47Z</time>
      </trkpt>
      <trkpt lat="43.84406" lon="1.4504">
        <ele>117.9</ele>
        <time>2021-08-18T11:04:52Z</time>
      </trkpt>
      <trkpt lat="43.84394" lon="1.4502">
        <ele>117.9</ele>
        <time>2021-08-18T11:04:56Z</time>
      </trkpt>
      <trkpt lat="43.84391" lon="1.45009">
        <ele>117.9</ele>
        <time>2021-08-18T11:04:58Z</time>
      </trkpt>
      <trkpt lat="43.84391" lon="1.45003">
        <ele>117.9</ele>
        <time>2021-08-18T11:04:59Z</time>
      </trkpt>
      <trkpt lat="43.84393" lon="1.44997">
        <ele>117.9</ele>
        <time>2021-08-18T11:05:00Z</time>
      </trkpt>
      <trkpt lat="43.84395" lon="1.44992">
        <ele>117.9</ele>
        <time>2021-08-18T11:05:01Z</time>
      </trkpt>
      <trkpt lat="43.84398" lon="1.44987">
        <ele>117.9</ele>
        <time>2021-08-18T11:05:02Z</time>
      </trkpt>
      <trkpt lat="43.84413" lon="1.44961">
        <ele>117.9</ele>
        <time>2021-08-18T11:05:07Z</time>
      </trkpt>
      <trkpt lat="43.84414" lon="1.44955">
        <ele>117.9</ele>
        <time>2021-08-18T11:05:08Z</time>
      </trkpt>
      <trkpt lat="43.84414" lon="1.4495">
        <ele>117.9</ele>
        <time>2021-08-18T11:05:09Z</time>
      </trkpt>
      <trkpt lat="43.84413" lon="1.44945">
        <ele>117.9</ele>
        <time>2021-08-18T11:05:10Z</time>
      </trkpt>
      <trkpt lat="43.84411" lon="1.4494">
        <ele>117.9</ele>
        <time>2021-08-18T11:05:11Z</time>
      </trkpt>
      <trkpt lat="43.84408" lon="1.44936">
        <ele>117.9</ele>
        <time>2021-08-18T11:05:12Z</time>
      </trkpt>
      <trkpt lat="43.84404" lon="1.44932">
        <ele>117.9</ele>
        <time>2021-08-18T11:05:13Z</time>
      </trkpt>
      <trkpt lat="43.84373" lon="1.44896">
        <ele>117.9</ele>
        <time>2021-08-18T11:05:21Z</time>
      </trkpt>
      <trkpt lat="43.84336" lon="1.44854">
        <ele>117.9</ele>
        <time>2021-08-18T11:05:30Z</time>
      </trkpt>
      <trkpt lat="43.84307" lon="1.44823">
        <ele>117.9</ele>
        <time>2021-08-18T11:05:37Z</time>
      </trkpt>
      <trkpt lat="43.84272" lon="1.44787">
        <ele>117.9</ele>
        <time>2021-08-18T11:05:45Z</time>
      </trkpt>
      <trkpt lat="43.84241" lon="1.44745">
        <ele>117.9</ele>
        <time>2021-08-18T11:05:54Z</time>
      </trkpt>
      <trkpt lat="43.84238" lon="1.4474">
        <ele>117.9</ele>
        <time>2021-08-18T11:05:55Z</time>
      </trkpt>
      <trkpt lat="43.84236" lon="1.44735">
        <ele>117.9</ele>
        <time>2021-08-18T11:05:56Z</time>
      </trkpt>
      <trkpt lat="43.84229" lon="1.44723">
        <ele>117.9</ele>
        <time>2021-08-18T11:05:58Z</time>
      </trkpt>
      <trkpt lat="43.84201" lon="1.44674">
        <ele>117.9</ele>
        <time>2021-08-18T11:06:07Z</time>
      </trkpt>
      <trkpt lat="43.84166" lon="1.44614">
        <ele>117.9</ele>
        <time>2021-08-18T11:06:18Z</time>
      </trkpt>
      <trkpt lat="43.84135" lon="1.44559">
        <ele>117.9</ele>
        <time>2021-08-18T11:06:28Z</time>
      </trkpt>
      <trkpt lat="43.8411" lon="1.44517">
        <ele>117.9</ele>
        <time>2021-08-18T11:06:36Z</time>
      </trkpt>
      <trkpt lat="43.84082" lon="1.44467">
        <ele>118.38</ele>
        <time>2021-08-18T11:06:45Z</time>
      </trkpt>
      <trkpt lat="43.8405" lon="1.44413">
        <ele>118.38</ele>
        <time>2021-08-18T11:06:55Z</time>
      </trkpt>
      <trkpt lat="43.84016" lon="1.44355">
        <ele>118.86</ele>
        <time>2021-08-18T11:07:06Z</time>
      </trkpt>
      <trkpt lat="43.83991" lon="1.44309">
        <ele>119.34</ele>
        <time>2021-08-18T11:07:15Z</time>
      </trkpt>
      <trkpt lat="43.83976" lon="1.44281">
        <ele>119.34</ele>
        <time>2021-08-18T11:07:20Z</time>
      </trkpt>
      <trkpt lat="43.83973" lon="1.44275">
        <ele>119.34</ele>
        <time>2021-08-18T11:07:21Z</time>
      </trkpt>
      <trkpt lat="43.83947" lon="1.44233">
        <ele>119.34</ele>
        <time>2021-08-18T11:07:29Z</time>
      </trkpt>
      <trkpt lat="43.83918" lon="1.44187">
        <ele>119.34</ele>
        <time>2021-08-18T11:07:38Z</time>
      </trkpt>
      <trkpt lat="43.83888" lon="1.44139">
        <ele>119.34</ele>
        <time>2021-08-18T11:07:47Z</time>
      </trkpt>
      <trkpt lat="43.83852" lon="1.44083">
        <ele>119.34</ele>
        <time>2021-08-18T11:07:58Z</time>
      </trkpt>
      <trkpt lat="43.83848" lon="1.44074">
        <ele>119.34</ele>
        <time>2021-08-18T11:08:00Z</time>
      </trkpt>
      <trkpt lat="43.83848" lon="1.44069">
        <ele>120.3</ele>
        <time>2021-08-18T11:08:01Z</time>
      </trkpt>
      <trkpt lat="43.8385" lon="1.44064">
        <ele>120.3</ele>
        <time>2021-08-18T11:08:02Z</time>
      </trkpt>
      <trkpt lat="43.83852" lon="1.4406">
        <ele>120.3</ele>
        <time>2021-08-18T11:08:03Z</time>
      </trkpt>
      <trkpt lat="43.83855" lon="1.44057">
        <ele>120.3</ele>
        <time>2021-08-18T11:08:04Z</time>
      </trkpt>
      <trkpt lat="43.83867" lon="1.44046">
        <ele>120.3</ele>
        <time>2021-08-18T11:08:07Z</time>
      </trkpt>
      <trkpt lat="43.83904" lon="1.44011">
        <ele>120.3</ele>
        <time>2021-08-18T11:08:16Z</time>
      </trkpt>
      <trkpt lat="43.83947" lon="1.43965">
        <ele>120.3</ele>
        <time>2021-08-18T11:08:26Z</time>
      </trkpt>
      <trkpt lat="43.83959" lon="1.43947">
        <ele>120.3</ele>
        <time>2021-08-18T11:08:29Z</time>
      </trkpt>
      <trkpt lat="43.83979" lon="1.43898">
        <ele>120.3</ele>
        <time>2021-08-18T11:08:36Z</time>
      </trkpt>
      <trkpt lat="43.83989" lon="1.43869">
        <ele>118.86</ele>
        <time>2021-08-18T11:08:40Z</time>
      </trkpt>
      <trkpt lat="43.83992" lon="1.43861">
        <ele>118.86</ele>
        <time>2021-08-18T11:08:41Z</time>
      </trkpt>
      <trkpt lat="43.83995" lon="1.43854">
        <ele>118.86</ele>
        <time>2021-08-18T11:08:42Z</time>
      </trkpt>
      <trkpt lat="43.84022" lon="1.43788">
        <ele>118.86</ele>
        <time>2021-08-18T11:08:51Z</time>
      </trkpt>
      <trkpt lat="43.84057" lon="1.43702">
        <ele>118.86</ele>
        <time>2021-08-18T11:09:03Z</time>
      </trkpt>
      <trkpt lat="43.84094" lon="1.43607">
        <ele>118.86</ele>
        <time>2021-08-18T11:09:16Z</time>
      </trkpt>
      <trkpt lat="43.84125" lon="1.43528">
        <ele>118.86</ele>
        <time>2021-08-18T11:09:27Z</time>
      </trkpt>
      <trkpt lat="43.84154" lon="1.43458">
        <ele>118.86</ele>
        <time>2021-08-18T11:09:37Z</time>
      </trkpt>
      <trkpt lat="43.8418" lon="1.43392">
        <ele>118.86</ele>
        <time>2021-08-18T11:09:47Z</time>
      </trkpt>
      <trkpt lat="43.84207" lon="1.43327">
        <ele>118.86</ele>
        <time>2021-08-18T11:09:57Z</time>
      </trkpt>
      <trkpt lat="43.8423" lon="1.43265">
        <ele>118.86</ele>
        <time>2021-08-18T11:10:07Z</time>
      </trkpt>
      <trkpt lat="43.84232" lon="1.43259">
        <ele>118.86</ele>
        <time>2021-08-18T11:10:08Z</time>
      </trkpt>
      <trkpt lat="43.84232" lon="1.43253">
        <ele>118.86</ele>
        <time>2021-08-18T11:10:09Z</time>
      </trkpt>
      <trkpt lat="43.84231" lon="1.43247">
        <ele>118.86</ele>
        <time>2021-08-18T11:10:10Z</time>
      </trkpt>
      <trkpt lat="43.84228" lon="1.43242">
        <ele>118.86</ele>
        <time>2021-08-18T11:10:11Z</time>
      </trkpt>
      <trkpt lat="43.84225" lon="1.43238">
        <ele>118.86</ele>
        <time>2021-08-18T11:10:12Z</time>
      </trkpt>
      <trkpt lat="43.84221" lon="1.43234">
        <ele>118.86</ele>
        <time>2021-08-18T11:10:13Z</time>
      </trkpt>
      <trkpt lat="43.84186" lon="1.43195">
        <ele>119.82</ele>
        <time>2021-08-18T11:10:22Z</time>
      </trkpt>
      <trkpt lat="43.84144" lon="1.4315">
        <ele>120.3</ele>
        <time>2021-08-18T11:10:32Z</time>
      </trkpt>
      <trkpt lat="43.84103" lon="1.43105">
        <ele>120.78</ele>
        <time>2021-08-18T11:10:42Z</time>
      </trkpt>
      <trkpt lat="43.84055" lon="1.43057">
        <ele>121.26</ele>
        <time>2021-08-18T11:10:53Z</time>
      </trkpt>
      <trkpt lat="43.84032" lon="1.43038">
        <ele>121.26</ele>
        <time>2021-08-18T11:10:58Z</time>
      </trkpt>
      <trkpt lat="43.84027" lon="1.43034">
        <ele>121.26</ele>
        <time>2021-08-18T11:10:59Z</time>
      </trkpt>
      <trkpt lat="43.83993" lon="1.43015">
        <ele>121.74</ele>
        <time>2021-08-18T11:11:06Z</time>
      </trkpt>
      <trkpt lat="43.83954" lon="1.42997">
        <ele>122.71</ele>
        <time>2021-08-18T11:11:14Z</time>
      </trkpt>
      <trkpt lat="43.83911" lon="1.42974">
        <ele>123.19</ele>
        <time>2021-08-18T11:11:23Z</time>
      </trkpt>
      <trkpt lat="43.83886" lon="1.42948">
        <ele>124.15</ele>
        <time>2021-08-18T11:11:30Z</time>
      </trkpt>
      <trkpt lat="43.83862" lon="1.42915">
        <ele>124.63</ele>
        <time>2021-08-18T11:11:38Z</time>
      </trkpt>
      <trkpt lat="43.83834" lon="1.42876">
        <ele>125.11</ele>
        <time>2021-08-18T11:11:47Z</time>
      </trkpt>
      <trkpt lat="43.83806" lon="1.42837">
        <ele>125.59</ele>
        <time>2021-08-18T11:11:56Z</time>
      </trkpt>
      <trkpt lat="43.83784" lon="1.42803">
        <ele>126.55</ele>
        <time>2021-08-18T11:12:04Z</time>
      </trkpt>
      <trkpt lat="43.83762" lon="1.42788">
        <ele>127.99</ele>
        <time>2021-08-18T11:12:11Z</time>
      </trkpt>
      <trkpt lat="43.83741" lon="1.42788">
        <ele>128.47</ele>
        <time>2021-08-18T11:12:17Z</time>
      </trkpt>
      <trkpt lat="43.83701" lon="1.42787">
        <ele>129.92</ele>
        <time>2021-08-18T11:12:27Z</time>
      </trkpt>
      <trkpt lat="43.83669" lon="1.42784">
        <ele>130.4</ele>
        <time>2021-08-18T11:12:35Z</time>
      </trkpt>
      <trkpt lat="43.83636" lon="1.42785">
        <ele>130.88</ele>
        <time>2021-08-18T11:12:43Z</time>
      </trkpt>
      <trkpt lat="43.83615" lon="1.42785">
        <ele>131.84</ele>
        <time>2021-08-18T11:12:48Z</time>
      </trkpt>
      <trkpt lat="43.83583" lon="1.42787">
        <ele>132.32</ele>
        <time>2021-08-18T11:12:56Z</time>
      </trkpt>
      <trkpt lat="43.83543" lon="1.4279">
        <ele>133.76</ele>
        <time>2021-08-18T11:13:06Z</time>
      </trkpt>
      <trkpt lat="43.8351" lon="1.42796">
        <ele>135.2</ele>
        <time>2021-08-18T11:13:15Z</time>
      </trkpt>
      <trkpt lat="43.83495" lon="1.42804">
        <ele>136.16</ele>
        <time>2021-08-18T11:13:21Z</time>
      </trkpt>
      <trkpt lat="43.83473" lon="1.42817">
        <ele>136.64</ele>
        <time>2021-08-18T11:13:28Z</time>
      </trkpt>
      <trkpt lat="43.83445" lon="1.42831">
        <ele>137.61</ele>
        <time>2021-08-18T11:13:36Z</time>
      </trkpt>
      <trkpt lat="43.83422" lon="1.42845">
        <ele>138.09</ele>
        <time>2021-08-18T11:13:43Z</time>
      </trkpt>
      <trkpt lat="43.83392" lon="1.42861">
        <ele>139.53</ele>
        <time>2021-08-18T11:13:52Z</time>
      </trkpt>
      <trkpt lat="43.83364" lon="1.42872">
        <ele>140.49</ele>
        <time>2021-08-18T11:14:00Z</time>
      </trkpt>
      <trkpt lat="43.83339" lon="1.42883">
        <ele>141.93</ele>
        <time>2021-08-18T11:14:09Z</time>
      </trkpt>
      <trkpt lat="43.83317" lon="1.42893">
        <ele>142.41</ele>
        <time>2021-08-18T11:14:16Z</time>
      </trkpt>
      <trkpt lat="43.83275" lon="1.42911">
        <ele>143.85</ele>
        <time>2021-08-18T11:14:27Z</time>
      </trkpt>
      <trkpt lat="43.83271" lon="1.42913">
        <ele>143.85</ele>
        <time>2021-08-18T11:14:28Z</time>
      </trkpt>
      <trkpt lat="43.83242" lon="1.42925">
        <ele>143.85</ele>
        <time>2021-08-18T11:14:35Z</time>
      </trkpt>
      <trkpt lat="43.83223" lon="1.42929">
        <ele>144.34</ele>
        <time>2021-08-18T11:14:40Z</time>
      </trkpt>
      <trkpt lat="43.8322" lon="1.42925">
        <ele>144.34</ele>
        <time>2021-08-18T11:14:41Z</time>
      </trkpt>
      <trkpt lat="43.83219" lon="1.4292">
        <ele>144.34</ele>
        <time>2021-08-18T11:14:42Z</time>
      </trkpt>
      <trkpt lat="43.83219" lon="1.42915">
        <ele>144.82</ele>
        <time>2021-08-18T11:14:43Z</time>
      </trkpt>
      <trkpt lat="43.83221" lon="1.4291">
        <ele>144.82</ele>
        <time>2021-08-18T11:14:44Z</time>
      </trkpt>
      <trkpt lat="43.83227" lon="1.42885">
        <ele>144.82</ele>
        <time>2021-08-18T11:14:49Z</time>
      </trkpt>
      <trkpt lat="43.83231" lon="1.42874">
        <ele>144.82</ele>
        <time>2021-08-18T11:14:51Z</time>
      </trkpt>
      <trkpt lat="43.83233" lon="1.42868">
        <ele>144.82</ele>
        <time>2021-08-18T11:14:52Z</time>
      </trkpt>
      <trkpt lat="43.83234" lon="1.42863">
        <ele>144.82</ele>
        <time>2021-08-18T11:14:53Z</time>
      </trkpt>
      <trkpt lat="43.83246" lon="1.42807">
        <ele>145.78</ele>
        <time>2021-08-18T11:15:03Z</time>
      </trkpt>
      <trkpt lat="43.83256" lon="1.42764">
        <ele>146.26</ele>
        <time>2021-08-18T11:15:11Z</time>
      </trkpt>
      <trkpt lat="43.83258" lon="1.42758">
        <ele>146.26</ele>
        <time>2021-08-18T11:15:12Z</time>
      </trkpt>
      <trkpt lat="43.83261" lon="1.42721">
        <ele>147.22</ele>
        <time>2021-08-18T11:15:19Z</time>
      </trkpt>
      <trkpt lat="43.8326" lon="1.42713">
        <ele>147.22</ele>
        <time>2021-08-18T11:15:21Z</time>
      </trkpt>
      <trkpt lat="43.83262" lon="1.4271">
        <ele>147.7</ele>
        <time>2021-08-18T11:15:22Z</time>
      </trkpt>
      <trkpt lat="43.83273" lon="1.42699">
        <ele>147.7</ele>
        <time>2021-08-18T11:15:26Z</time>
      </trkpt>
      <trkpt lat="43.83289" lon="1.42656">
        <ele>148.66</ele>
        <time>2021-08-18T11:15:35Z</time>
      </trkpt>
      <trkpt lat="43.83303" lon="1.42614">
        <ele>149.62</ele>
        <time>2021-08-18T11:15:44Z</time>
      </trkpt>
      <trkpt lat="43.83315" lon="1.42583">
        <ele>150.1</ele>
        <time>2021-08-18T11:15:51Z</time>
      </trkpt>
      <trkpt lat="43.83329" lon="1.4255">
        <ele>150.58</ele>
        <time>2021-08-18T11:15:59Z</time>
      </trkpt>
      <trkpt lat="43.83341" lon="1.42537">
        <ele>151.06</ele>
        <time>2021-08-18T11:16:04Z</time>
      </trkpt>
      <trkpt lat="43.83359" lon="1.42506">
        <ele>151.06</ele>
        <time>2021-08-18T11:16:11Z</time>
      </trkpt>
      <trkpt lat="43.83361" lon="1.425">
        <ele>151.06</ele>
        <time>2021-08-18T11:16:12Z</time>
      </trkpt>
      <trkpt lat="43.83363" lon="1.42494">
        <ele>151.06</ele>
        <time>2021-08-18T11:16:13Z</time>
      </trkpt>
      <trkpt lat="43.83375" lon="1.42466">
        <ele>148.66</ele>
        <time>2021-08-18T11:16:18Z</time>
      </trkpt>
      <trkpt lat="43.83379" lon="1.4246">
        <ele>148.66</ele>
        <time>2021-08-18T11:16:19Z</time>
      </trkpt>
      <trkpt lat="43.83382" lon="1.42455">
        <ele>148.66</ele>
        <time>2021-08-18T11:16:20Z</time>
      </trkpt>
      <trkpt lat="43.83386" lon="1.4245">
        <ele>148.66</ele>
        <time>2021-08-18T11:16:21Z</time>
      </trkpt>
      <trkpt lat="43.8339" lon="1.42446">
        <ele>147.7</ele>
        <time>2021-08-18T11:16:22Z</time>
      </trkpt>
      <trkpt lat="43.83401" lon="1.42434">
        <ele>147.7</ele>
        <time>2021-08-18T11:16:25Z</time>
      </trkpt>
      <trkpt lat="43.83404" lon="1.42429">
        <ele>147.7</ele>
        <time>2021-08-18T11:16:26Z</time>
      </trkpt>
      <trkpt lat="43.83406" lon="1.42423">
        <ele>147.7</ele>
        <time>2021-08-18T11:16:27Z</time>
      </trkpt>
      <trkpt lat="43.83421" lon="1.42384">
        <ele>148.18</ele>
        <time>2021-08-18T11:16:35Z</time>
      </trkpt>
      <trkpt lat="43.83423" lon="1.42374">
        <ele>149.62</ele>
        <time>2021-08-18T11:16:37Z</time>
      </trkpt>
      <trkpt lat="43.83434" lon="1.4233">
        <ele>150.1</ele>
        <time>2021-08-18T11:16:46Z</time>
      </trkpt>
      <trkpt lat="43.83444" lon="1.42301">
        <ele>150.1</ele>
        <time>2021-08-18T11:16:51Z</time>
      </trkpt>
      <trkpt lat="43.83449" lon="1.42289">
        <ele>150.1</ele>
        <time>2021-08-18T11:16:53Z</time>
      </trkpt>
      <trkpt lat="43.83451" lon="1.42283">
        <ele>150.1</ele>
        <time>2021-08-18T11:16:54Z</time>
      </trkpt>
      <trkpt lat="43.83461" lon="1.42266">
        <ele>148.66</ele>
        <time>2021-08-18T11:16:57Z</time>
      </trkpt>
      <trkpt lat="43.83477" lon="1.42228">
        <ele>148.18</ele>
        <time>2021-08-18T11:17:04Z</time>
      </trkpt>
      <trkpt lat="43.83488" lon="1.42203">
        <ele>148.18</ele>
        <time>2021-08-18T11:17:09Z</time>
      </trkpt>
      <trkpt lat="43.83491" lon="1.42198">
        <ele>148.18</ele>
        <time>2021-08-18T11:17:10Z</time>
      </trkpt>
      <trkpt lat="43.83505" lon="1.4218">
        <ele>148.18</ele>
        <time>2021-08-18T11:17:15Z</time>
      </trkpt>
      <trkpt lat="43.83529" lon="1.42151">
        <ele>148.18</ele>
        <time>2021-08-18T11:17:23Z</time>
      </trkpt>
      <trkpt lat="43.83535" lon="1.42143">
        <ele>148.18</ele>
        <time>2021-08-18T11:17:25Z</time>
      </trkpt>
      <trkpt lat="43.8356" lon="1.42121">
        <ele>148.18</ele>
        <time>2021-08-18T11:17:33Z</time>
      </trkpt>
      <trkpt lat="43.83567" lon="1.42118">
        <ele>148.18</ele>
        <time>2021-08-18T11:17:35Z</time>
      </trkpt>
      <trkpt lat="43.8357" lon="1.42114">
        <ele>148.18</ele>
        <time>2021-08-18T11:17:36Z</time>
      </trkpt>
      <trkpt lat="43.83583" lon="1.421">
        <ele>148.18</ele>
        <time>2021-08-18T11:17:41Z</time>
      </trkpt>
      <trkpt lat="43.836" lon="1.42094">
        <ele>148.18</ele>
        <time>2021-08-18T11:17:47Z</time>
      </trkpt>
      <trkpt lat="43.8361" lon="1.4209">
        <ele>148.18</ele>
        <time>2021-08-18T11:17:50Z</time>
      </trkpt>
      <trkpt lat="43.83614" lon="1.42091">
        <ele>148.18</ele>
        <time>2021-08-18T11:17:51Z</time>
      </trkpt>
      <trkpt lat="43.83624" lon="1.42092">
        <ele>147.7</ele>
        <time>2021-08-18T11:17:54Z</time>
      </trkpt>
      <trkpt lat="43.8363" lon="1.42097">
        <ele>146.26</ele>
        <time>2021-08-18T11:17:57Z</time>
      </trkpt>
      <trkpt lat="43.83633" lon="1.42097">
        <ele>145.78</ele>
        <time>2021-08-18T11:17:58Z</time>
      </trkpt>
      <trkpt lat="43.83637" lon="1.42096">
        <ele>144.82</ele>
        <time>2021-08-18T11:17:59Z</time>
      </trkpt>
      <trkpt lat="43.83647" lon="1.4209">
        <ele>143.37</ele>
        <time>2021-08-18T11:18:01Z</time>
      </trkpt>
      <trkpt lat="43.83657" lon="1.42082">
        <ele>142.41</ele>
        <time>2021-08-18T11:18:03Z</time>
      </trkpt>
      <trkpt lat="43.83667" lon="1.4207">
        <ele>141.45</ele>
        <time>2021-08-18T11:18:05Z</time>
      </trkpt>
      <trkpt lat="43.83679" lon="1.4205">
        <ele>141.45</ele>
        <time>2021-08-18T11:18:08Z</time>
      </trkpt>
      <trkpt lat="43.83685" lon="1.42035">
        <ele>140.97</ele>
        <time>2021-08-18T11:18:10Z</time>
      </trkpt>
      <trkpt lat="43.83686" lon="1.42027">
        <ele>140.97</ele>
        <time>2021-08-18T11:18:11Z</time>
      </trkpt>
      <trkpt lat="43.83689" lon="1.4199">
        <ele>141.45</ele>
        <time>2021-08-18T11:18:17Z</time>
      </trkpt>
      <trkpt lat="43.83692" lon="1.41967">
        <ele>141.45</ele>
        <time>2021-08-18T11:18:23Z</time>
      </trkpt>
      <trkpt lat="43.83699" lon="1.41946">
        <ele>142.41</ele>
        <time>2021-08-18T11:18:30Z</time>
      </trkpt>
      <trkpt lat="43.8371" lon="1.41921">
        <ele>143.37</ele>
        <time>2021-08-18T11:18:37Z</time>
      </trkpt>
      <trkpt lat="43.83719" lon="1.41907">
        <ele>144.34</ele>
        <time>2021-08-18T11:18:44Z</time>
      </trkpt>
      <trkpt lat="43.83724" lon="1.41899">
        <ele>144.82</ele>
        <time>2021-08-18T11:18:48Z</time>
      </trkpt>
      <trkpt lat="43.83726" lon="1.41896">
        <ele>145.3</ele>
        <time>2021-08-18T11:18:49Z</time>
      </trkpt>
      <trkpt lat="43.83727" lon="1.41894">
        <ele>145.3</ele>
        <time>2021-08-18T11:18:50Z</time>
      </trkpt>
      <trkpt lat="43.83729" lon="1.41892">
        <ele>145.3</ele>
        <time>2021-08-18T11:18:51Z</time>
      </trkpt>
      <trkpt lat="43.83731" lon="1.41889">
        <ele>145.3</ele>
        <time>2021-08-18T11:18:52Z</time>
      </trkpt>
      <trkpt lat="43.8374" lon="1.41878">
        <ele>146.26</ele>
        <time>2021-08-18T11:18:57Z</time>
      </trkpt>
      <trkpt lat="43.83757" lon="1.41859">
        <ele>147.22</ele>
        <time>2021-08-18T11:19:06Z</time>
      </trkpt>
      <trkpt lat="43.83768" lon="1.41849">
        <ele>147.7</ele>
        <time>2021-08-18T11:19:11Z</time>
      </trkpt>
      <trkpt lat="43.83787" lon="1.41829">
        <ele>148.66</ele>
        <time>2021-08-18T11:19:19Z</time>
      </trkpt>
      <trkpt lat="43.83802" lon="1.41813">
        <ele>148.66</ele>
        <time>2021-08-18T11:19:25Z</time>
      </trkpt>
      <trkpt lat="43.83823" lon="1.41785">
        <ele>149.14</ele>
        <time>2021-08-18T11:19:33Z</time>
      </trkpt>
      <trkpt lat="43.83845" lon="1.41755">
        <ele>149.14</ele>
        <time>2021-08-18T11:19:40Z</time>
      </trkpt>
      <trkpt lat="43.83862" lon="1.41731">
        <ele>149.62</ele>
        <time>2021-08-18T11:19:46Z</time>
      </trkpt>
      <trkpt lat="43.83874" lon="1.4171">
        <ele>149.62</ele>
        <time>2021-08-18T11:19:51Z</time>
      </trkpt>
      <trkpt lat="43.8388" lon="1.41687">
        <ele>150.1</ele>
        <time>2021-08-18T11:19:56Z</time>
      </trkpt>
      <trkpt lat="43.83887" lon="1.41651">
        <ele>150.1</ele>
        <time>2021-08-18T11:20:04Z</time>
      </trkpt>
      <trkpt lat="43.83894" lon="1.4164">
        <ele>150.1</ele>
        <time>2021-08-18T11:20:08Z</time>
      </trkpt>
      <trkpt lat="43.83898" lon="1.41636">
        <ele>150.1</ele>
        <time>2021-08-18T11:20:10Z</time>
      </trkpt>
      <trkpt lat="43.83899" lon="1.41632">
        <ele>150.1</ele>
        <time>2021-08-18T11:20:11Z</time>
      </trkpt>
      <trkpt lat="43.83899" lon="1.41627">
        <ele>150.1</ele>
        <time>2021-08-18T11:20:12Z</time>
      </trkpt>
      <trkpt lat="43.83947" lon="1.41562">
        <ele>151.06</ele>
        <time>2021-08-18T11:22:09Z</time>
      </trkpt>
      <trkpt lat="43.83947" lon="1.41562">
        <ele>151.06</ele>
        <time>2021-08-18T11:22:10Z</time>
      </trkpt>
      <trkpt lat="43.83946" lon="1.41561">
        <ele>151.06</ele>
        <time>2021-08-18T11:22:20Z</time>
      </trkpt>
      <trkpt lat="43.83952" lon="1.41555">
        <ele>151.06</ele>
        <time>2021-08-18T11:22:24Z</time>
      </trkpt>
      <trkpt lat="43.83953" lon="1.41552">
        <ele>151.06</ele>
        <time>2021-08-18T11:22:25Z</time>
      </trkpt>
      <trkpt lat="43.83956" lon="1.4155">
        <ele>151.06</ele>
        <time>2021-08-18T11:22:26Z</time>
      </trkpt>
      <trkpt lat="43.83974" lon="1.4153">
        <ele>151.06</ele>
        <time>2021-08-18T11:22:33Z</time>
      </trkpt>
      <trkpt lat="43.83976" lon="1.41525">
        <ele>151.06</ele>
        <time>2021-08-18T11:22:34Z</time>
      </trkpt>
      <trkpt lat="43.83976" lon="1.4152">
        <ele>151.06</ele>
        <time>2021-08-18T11:22:35Z</time>
      </trkpt>
      <trkpt lat="43.83976" lon="1.41516">
        <ele>151.06</ele>
        <time>2021-08-18T11:22:36Z</time>
      </trkpt>
      <trkpt lat="43.83974" lon="1.41513">
        <ele>151.06</ele>
        <time>2021-08-18T11:22:37Z</time>
      </trkpt>
      <trkpt lat="43.83972" lon="1.41509">
        <ele>151.06</ele>
        <time>2021-08-18T11:22:38Z</time>
      </trkpt>
      <trkpt lat="43.83957" lon="1.41485">
        <ele>151.06</ele>
        <time>2021-08-18T11:22:44Z</time>
      </trkpt>
      <trkpt lat="43.83954" lon="1.4148">
        <ele>151.06</ele>
        <time>2021-08-18T11:22:45Z</time>
      </trkpt>
      <trkpt lat="43.83932" lon="1.41446">
        <ele>151.06</ele>
        <time>2021-08-18T11:22:53Z</time>
      </trkpt>
      <trkpt lat="43.83932" lon="1.41442">
        <ele>151.06</ele>
        <time>2021-08-18T11:22:54Z</time>
      </trkpt>
      <trkpt lat="43.83933" lon="1.41438">
        <ele>151.06</ele>
        <time>2021-08-18T11:22:55Z</time>
      </trkpt>
      <trkpt lat="43.83936" lon="1.41435">
        <ele>151.06</ele>
        <time>2021-08-18T11:22:56Z</time>
      </trkpt>
      <trkpt lat="43.83939" lon="1.41432">
        <ele>151.06</ele>
        <time>2021-08-18T11:22:57Z</time>
      </trkpt>
      <trkpt lat="43.83954" lon="1.41409">
        <ele>151.54</ele>
        <time>2021-08-18T11:23:03Z</time>
      </trkpt>
      <trkpt lat="43.83971" lon="1.41382">
        <ele>151.54</ele>
        <time>2021-08-18T11:23:10Z</time>
      </trkpt>
      <trkpt lat="43.8398" lon="1.41365">
        <ele>151.54</ele>
        <time>2021-08-18T11:23:14Z</time>
      </trkpt>
      <trkpt lat="43.83998" lon="1.41331">
        <ele>151.54</ele>
        <time>2021-08-18T11:23:21Z</time>
      </trkpt>
      <trkpt lat="43.84007" lon="1.41308">
        <ele>150.1</ele>
        <time>2021-08-18T11:23:26Z</time>
      </trkpt>
      <trkpt lat="43.84005" lon="1.41304">
        <ele>150.1</ele>
        <time>2021-08-18T11:23:27Z</time>
      </trkpt>
      <trkpt lat="43.84003" lon="1.41301">
        <ele>150.1</ele>
        <time>2021-08-18T11:23:28Z</time>
      </trkpt>
      <trkpt lat="43.8398" lon="1.41268">
        <ele>149.14</ele>
        <time>2021-08-18T11:23:35Z</time>
      </trkpt>
      <trkpt lat="43.83942" lon="1.41224">
        <ele>147.7</ele>
        <time>2021-08-18T11:23:43Z</time>
      </trkpt>
      <trkpt lat="43.83886" lon="1.41177">
        <ele>147.7</ele>
        <time>2021-08-18T11:23:54Z</time>
      </trkpt>
      <trkpt lat="43.83838" lon="1.41139">
        <ele>149.62</ele>
        <time>2021-08-18T11:24:04Z</time>
      </trkpt>
      <trkpt lat="43.83795" lon="1.41103">
        <ele>150.1</ele>
        <time>2021-08-18T11:24:13Z</time>
      </trkpt>
      <trkpt lat="43.83766" lon="1.41075">
        <ele>150.58</ele>
        <time>2021-08-18T11:24:20Z</time>
      </trkpt>
      <trkpt lat="43.83741" lon="1.41037">
        <ele>150.58</ele>
        <time>2021-08-18T11:24:27Z</time>
      </trkpt>
      <trkpt lat="43.83704" lon="1.40976">
        <ele>150.58</ele>
        <time>2021-08-18T11:24:37Z</time>
      </trkpt>
      <trkpt lat="43.83664" lon="1.40907">
        <ele>150.58</ele>
        <time>2021-08-18T11:24:48Z</time>
      </trkpt>
      <trkpt lat="43.83631" lon="1.40843">
        <ele>150.58</ele>
        <time>2021-08-18T11:24:58Z</time>
      </trkpt>
      <trkpt lat="43.83603" lon="1.4079">
        <ele>151.06</ele>
        <time>2021-08-18T11:25:07Z</time>
      </trkpt>
      <trkpt lat="43.836" lon="1.40784">
        <ele>151.06</ele>
        <time>2021-08-18T11:25:08Z</time>
      </trkpt>
      <trkpt lat="43.83586" lon="1.40762">
        <ele>151.06</ele>
        <time>2021-08-18T11:25:12Z</time>
      </trkpt>
      <trkpt lat="43.83585" lon="1.40755">
        <ele>151.06</ele>
        <time>2021-08-18T11:25:13Z</time>
      </trkpt>
      <trkpt lat="43.83587" lon="1.40749">
        <ele>151.06</ele>
        <time>2021-08-18T11:25:14Z</time>
      </trkpt>
      <trkpt lat="43.8359" lon="1.40742">
        <ele>151.06</ele>
        <time>2021-08-18T11:25:15Z</time>
      </trkpt>
      <trkpt lat="43.83592" lon="1.40737">
        <ele>151.06</ele>
        <time>2021-08-18T11:25:16Z</time>
      </trkpt>
      <trkpt lat="43.83613" lon="1.40684">
        <ele>151.06</ele>
        <time>2021-08-18T11:25:25Z</time>
      </trkpt>
      <trkpt lat="43.83633" lon="1.40632">
        <ele>152.03</ele>
        <time>2021-08-18T11:25:34Z</time>
      </trkpt>
      <trkpt lat="43.83653" lon="1.40591">
        <ele>152.03</ele>
        <time>2021-08-18T11:25:41Z</time>
      </trkpt>
      <trkpt lat="43.83661" lon="1.40572">
        <ele>152.03</ele>
        <time>2021-08-18T11:25:44Z</time>
      </trkpt>
      <trkpt lat="43.8367" lon="1.40553">
        <ele>151.06</ele>
        <time>2021-08-18T11:25:47Z</time>
      </trkpt>
      <trkpt lat="43.83696" lon="1.40496">
        <ele>151.06</ele>
        <time>2021-08-18T11:25:56Z</time>
      </trkpt>
      <trkpt lat="43.83723" lon="1.40438">
        <ele>151.06</ele>
        <time>2021-08-18T11:26:05Z</time>
      </trkpt>
      <trkpt lat="43.83726" lon="1.40432">
        <ele>151.06</ele>
        <time>2021-08-18T11:26:06Z</time>
      </trkpt>
      <trkpt lat="43.83751" lon="1.40375">
        <ele>151.06</ele>
        <time>2021-08-18T11:26:15Z</time>
      </trkpt>
      <trkpt lat="43.83776" lon="1.40316">
        <ele>151.06</ele>
        <time>2021-08-18T11:26:24Z</time>
      </trkpt>
      <trkpt lat="43.83803" lon="1.40255">
        <ele>151.06</ele>
        <time>2021-08-18T11:26:33Z</time>
      </trkpt>
      <trkpt lat="43.83825" lon="1.40206">
        <ele>150.1</ele>
        <time>2021-08-18T11:26:40Z</time>
      </trkpt>
      <trkpt lat="43.83853" lon="1.40131">
        <ele>150.1</ele>
        <time>2021-08-18T11:26:50Z</time>
      </trkpt>
      <trkpt lat="43.83863" lon="1.40102">
        <ele>150.1</ele>
        <time>2021-08-18T11:26:54Z</time>
      </trkpt>
      <trkpt lat="43.83889" lon="1.40039">
        <ele>150.1</ele>
        <time>2021-08-18T11:27:03Z</time>
      </trkpt>
      <trkpt lat="43.8391" lon="1.39994">
        <ele>150.1</ele>
        <time>2021-08-18T11:27:10Z</time>
      </trkpt>
      <trkpt lat="43.83928" lon="1.39953">
        <ele>151.06</ele>
        <time>2021-08-18T11:27:17Z</time>
      </trkpt>
      <trkpt lat="43.83948" lon="1.39907">
        <ele>151.54</ele>
        <time>2021-08-18T11:27:25Z</time>
      </trkpt>
      <trkpt lat="43.83978" lon="1.39845">
        <ele>151.54</ele>
        <time>2021-08-18T11:27:35Z</time>
      </trkpt>
      <trkpt lat="43.84006" lon="1.398">
        <ele>151.54</ele>
        <time>2021-08-18T11:27:42Z</time>
      </trkpt>
      <trkpt lat="43.84018" lon="1.39782">
        <ele>151.54</ele>
        <time>2021-08-18T11:27:45Z</time>
      </trkpt>
      <trkpt lat="43.84054" lon="1.3973">
        <ele>151.54</ele>
        <time>2021-08-18T11:27:54Z</time>
      </trkpt>
      <trkpt lat="43.84092" lon="1.39679">
        <ele>151.54</ele>
        <time>2021-08-18T11:28:03Z</time>
      </trkpt>
      <trkpt lat="43.84131" lon="1.39626">
        <ele>150.1</ele>
        <time>2021-08-18T11:28:12Z</time>
      </trkpt>
      <trkpt lat="43.84169" lon="1.39573">
        <ele>148.66</ele>
        <time>2021-08-18T11:28:21Z</time>
      </trkpt>
      <trkpt lat="43.84171" lon="1.39566">
        <ele>148.66</ele>
        <time>2021-08-18T11:28:22Z</time>
      </trkpt>
      <trkpt lat="43.84171" lon="1.39559">
        <ele>148.66</ele>
        <time>2021-08-18T11:28:23Z</time>
      </trkpt>
      <trkpt lat="43.8417" lon="1.39552">
        <ele>148.66</ele>
        <time>2021-08-18T11:28:24Z</time>
      </trkpt>
      <trkpt lat="43.84167" lon="1.39546">
        <ele>148.66</ele>
        <time>2021-08-18T11:28:25Z</time>
      </trkpt>
      <trkpt lat="43.84163" lon="1.39541">
        <ele>148.66</ele>
        <time>2021-08-18T11:28:26Z</time>
      </trkpt>
      <trkpt lat="43.84159" lon="1.39536">
        <ele>148.66</ele>
        <time>2021-08-18T11:28:27Z</time>
      </trkpt>
      <trkpt lat="43.84132" lon="1.39495">
        <ele>145.3</ele>
        <time>2021-08-18T11:28:33Z</time>
      </trkpt>
      <trkpt lat="43.84111" lon="1.39471">
        <ele>142.41</ele>
        <time>2021-08-18T11:28:36Z</time>
      </trkpt>
      <trkpt lat="43.84086" lon="1.39443">
        <ele>138.09</ele>
        <time>2021-08-18T11:28:39Z</time>
      </trkpt>
      <trkpt lat="43.8406" lon="1.39411">
        <ele>135.68</ele>
        <time>2021-08-18T11:28:42Z</time>
      </trkpt>
      <trkpt lat="43.84022" lon="1.39362">
        <ele>136.16</ele>
        <time>2021-08-18T11:28:47Z</time>
      </trkpt>
      <trkpt lat="43.84002" lon="1.39338">
        <ele>139.53</ele>
        <time>2021-08-18T11:28:51Z</time>
      </trkpt>
      <trkpt lat="43.83998" lon="1.39336">
        <ele>140.49</ele>
        <time>2021-08-18T11:28:52Z</time>
      </trkpt>
      <trkpt lat="43.83995" lon="1.39336">
        <ele>140.49</ele>
        <time>2021-08-18T11:28:53Z</time>
      </trkpt>
      <trkpt lat="43.83992" lon="1.39335">
        <ele>141.45</ele>
        <time>2021-08-18T11:28:54Z</time>
      </trkpt>
      <trkpt lat="43.8399" lon="1.39333">
        <ele>141.45</ele>
        <time>2021-08-18T11:28:55Z</time>
      </trkpt>
      <trkpt lat="43.83988" lon="1.39332">
        <ele>141.45</ele>
        <time>2021-08-18T11:28:56Z</time>
      </trkpt>
      <trkpt lat="43.83986" lon="1.3933">
        <ele>141.93</ele>
        <time>2021-08-18T11:28:57Z</time>
      </trkpt>
      <trkpt lat="43.83984" lon="1.39329">
        <ele>142.89</ele>
        <time>2021-08-18T11:28:58Z</time>
      </trkpt>
      <trkpt lat="43.83983" lon="1.39327">
        <ele>142.41</ele>
        <time>2021-08-18T11:28:59Z</time>
      </trkpt>
      <trkpt lat="43.83972" lon="1.39316">
        <ele>143.85</ele>
        <time>2021-08-18T11:29:07Z</time>
      </trkpt>
      <trkpt lat="43.83959" lon="1.393">
        <ele>146.26</ele>
        <time>2021-08-18T11:29:17Z</time>
      </trkpt>
      <trkpt lat="43.83946" lon="1.39289">
        <ele>148.18</ele>
        <time>2021-08-18T11:29:26Z</time>
      </trkpt>
      <trkpt lat="43.83939" lon="1.3928">
        <ele>148.66</ele>
        <time>2021-08-18T11:29:31Z</time>
      </trkpt>
      <trkpt lat="43.83922" lon="1.39263">
        <ele>150.1</ele>
        <time>2021-08-18T11:29:40Z</time>
      </trkpt>
      <trkpt lat="43.83905" lon="1.39246">
        <ele>150.1</ele>
        <time>2021-08-18T11:29:48Z</time>
      </trkpt>
      <trkpt lat="43.8389" lon="1.3923">
        <ele>150.58</ele>
        <time>2021-08-18T11:29:55Z</time>
      </trkpt>
      <trkpt lat="43.83887" lon="1.39224">
        <ele>150.58</ele>
        <time>2021-08-18T11:29:58Z</time>
      </trkpt>
      <trkpt lat="43.83886" lon="1.39222">
        <ele>150.58</ele>
        <time>2021-08-18T11:29:59Z</time>
      </trkpt>
      <trkpt lat="43.83886" lon="1.39219">
        <ele>150.58</ele>
        <time>2021-08-18T11:30:00Z</time>
      </trkpt>
      <trkpt lat="43.83885" lon="1.39217">
        <ele>150.58</ele>
        <time>2021-08-18T11:30:01Z</time>
      </trkpt>
      <trkpt lat="43.83884" lon="1.39214">
        <ele>150.58</ele>
        <time>2021-08-18T11:30:02Z</time>
      </trkpt>
      <trkpt lat="43.83882" lon="1.39211">
        <ele>150.58</ele>
        <time>2021-08-18T11:30:03Z</time>
      </trkpt>
      <trkpt lat="43.83881" lon="1.39209">
        <ele>150.58</ele>
        <time>2021-08-18T11:30:04Z</time>
      </trkpt>
      <trkpt lat="43.8388" lon="1.39206">
        <ele>150.58</ele>
        <time>2021-08-18T11:30:05Z</time>
      </trkpt>
      <trkpt lat="43.83879" lon="1.39204">
        <ele>150.58</ele>
        <time>2021-08-18T11:30:06Z</time>
      </trkpt>
      <trkpt lat="43.83878" lon="1.39203">
        <ele>150.58</ele>
        <time>2021-08-18T11:30:07Z</time>
      </trkpt>
      <trkpt lat="43.83876" lon="1.39201">
        <ele>150.58</ele>
        <time>2021-08-18T11:30:08Z</time>
      </trkpt>
      <trkpt lat="43.83856" lon="1.39175">
        <ele>151.06</ele>
        <time>2021-08-18T11:30:16Z</time>
      </trkpt>
      <trkpt lat="43.83834" lon="1.39137">
        <ele>151.06</ele>
        <time>2021-08-18T11:30:24Z</time>
      </trkpt>
      <trkpt lat="43.83824" lon="1.39114">
        <ele>151.06</ele>
        <time>2021-08-18T11:30:28Z</time>
      </trkpt>
      <trkpt lat="43.83806" lon="1.39048">
        <ele>151.54</ele>
        <time>2021-08-18T11:30:39Z</time>
      </trkpt>
      <trkpt lat="43.83804" lon="1.39037">
        <ele>151.54</ele>
        <time>2021-08-18T11:30:41Z</time>
      </trkpt>
      <trkpt lat="43.83805" lon="1.39033">
        <ele>151.54</ele>
        <time>2021-08-18T11:30:42Z</time>
      </trkpt>
      <trkpt lat="43.83807" lon="1.3903">
        <ele>151.54</ele>
        <time>2021-08-18T11:30:43Z</time>
      </trkpt>
      <trkpt lat="43.8381" lon="1.39029">
        <ele>151.54</ele>
        <time>2021-08-18T11:30:44Z</time>
      </trkpt>
      <trkpt lat="43.83812" lon="1.39028">
        <ele>151.54</ele>
        <time>2021-08-18T11:30:45Z</time>
      </trkpt>
      <trkpt lat="43.8383" lon="1.3902">
        <ele>151.54</ele>
        <time>2021-08-18T11:30:53Z</time>
      </trkpt>
      <trkpt lat="43.83838" lon="1.39016">
        <ele>151.54</ele>
        <time>2021-08-18T11:30:57Z</time>
      </trkpt>
      <trkpt lat="43.83838" lon="1.39014">
        <ele>151.54</ele>
        <time>2021-08-18T11:30:58Z</time>
      </trkpt>
      <trkpt lat="43.83832" lon="1.38991">
        <ele>151.54</ele>
        <time>2021-08-18T11:31:05Z</time>
      </trkpt>
      <trkpt lat="43.83829" lon="1.38983">
        <ele>151.54</ele>
        <time>2021-08-18T11:31:08Z</time>
      </trkpt>
      <trkpt lat="43.83827" lon="1.38983">
        <ele>151.54</ele>
        <time>2021-08-18T11:31:09Z</time>
      </trkpt>
      <trkpt lat="43.83824" lon="1.38984">
        <ele>151.54</ele>
        <time>2021-08-18T11:31:10Z</time>
      </trkpt>
      <trkpt lat="43.83807" lon="1.38995">
        <ele>151.54</ele>
        <time>2021-08-18T11:31:18Z</time>
      </trkpt>
      <trkpt lat="43.83796" lon="1.38997">
        <ele>151.54</ele>
        <time>2021-08-18T11:31:22Z</time>
      </trkpt>
      <trkpt lat="43.83794" lon="1.38995">
        <ele>151.54</ele>
        <time>2021-08-18T11:31:23Z</time>
      </trkpt>
      <trkpt lat="43.83792" lon="1.38991">
        <ele>151.54</ele>
        <time>2021-08-18T11:31:24Z</time>
      </trkpt>
      <trkpt lat="43.83791" lon="1.38987">
        <ele>151.54</ele>
        <time>2021-08-18T11:31:25Z</time>
      </trkpt>
      <trkpt lat="43.83789" lon="1.38982">
        <ele>151.54</ele>
        <time>2021-08-18T11:31:26Z</time>
      </trkpt>
      <trkpt lat="43.83776" lon="1.38943">
        <ele>151.54</ele>
        <time>2021-08-18T11:31:34Z</time>
      </trkpt>
      <trkpt lat="43.83761" lon="1.38907">
        <ele>151.54</ele>
        <time>2021-08-18T11:31:42Z</time>
      </trkpt>
      <trkpt lat="43.83746" lon="1.38897">
        <ele>151.54</ele>
        <time>2021-08-18T11:31:46Z</time>
      </trkpt>
      <trkpt lat="43.83742" lon="1.38896">
        <ele>151.54</ele>
        <time>2021-08-18T11:31:47Z</time>
      </trkpt>
      <trkpt lat="43.8373" lon="1.38891">
        <ele>149.14</ele>
        <time>2021-08-18T11:31:49Z</time>
      </trkpt>
      <trkpt lat="43.83724" lon="1.38887">
        <ele>148.66</ele>
        <time>2021-08-18T11:31:50Z</time>
      </trkpt>
      <trkpt lat="43.83719" lon="1.3888">
        <ele>147.7</ele>
        <time>2021-08-18T11:31:51Z</time>
      </trkpt>
      <trkpt lat="43.83714" lon="1.38872">
        <ele>147.7</ele>
        <time>2021-08-18T11:31:52Z</time>
      </trkpt>
      <trkpt lat="43.8371" lon="1.38862">
        <ele>144.34</ele>
        <time>2021-08-18T11:31:53Z</time>
      </trkpt>
      <trkpt lat="43.83708" lon="1.38851">
        <ele>143.37</ele>
        <time>2021-08-18T11:31:54Z</time>
      </trkpt>
      <trkpt lat="43.83707" lon="1.38839">
        <ele>142.89</ele>
        <time>2021-08-18T11:31:55Z</time>
      </trkpt>
      <trkpt lat="43.83706" lon="1.38826">
        <ele>141.45</ele>
        <time>2021-08-18T11:31:56Z</time>
      </trkpt>
      <trkpt lat="43.83705" lon="1.38816">
        <ele>141.93</ele>
        <time>2021-08-18T11:31:57Z</time>
      </trkpt>
      <trkpt lat="43.83704" lon="1.38803">
        <ele>140.49</ele>
        <time>2021-08-18T11:31:58Z</time>
      </trkpt>
      <trkpt lat="43.83701" lon="1.38792">
        <ele>140.01</ele>
        <time>2021-08-18T11:31:59Z</time>
      </trkpt>
      <trkpt lat="43.83697" lon="1.38781">
        <ele>139.05</ele>
        <time>2021-08-18T11:32:00Z</time>
      </trkpt>
      <trkpt lat="43.83692" lon="1.38771">
        <ele>137.61</ele>
        <time>2021-08-18T11:32:01Z</time>
      </trkpt>
      <trkpt lat="43.83685" lon="1.3876">
        <ele>137.13</ele>
        <time>2021-08-18T11:32:02Z</time>
      </trkpt>
      <trkpt lat="43.83672" lon="1.38741">
        <ele>136.16</ele>
        <time>2021-08-18T11:32:04Z</time>
      </trkpt>
      <trkpt lat="43.83638" lon="1.38691">
        <ele>133.76</ele>
        <time>2021-08-18T11:32:09Z</time>
      </trkpt>
      <trkpt lat="43.83629" lon="1.38675">
        <ele>133.28</ele>
        <time>2021-08-18T11:32:11Z</time>
      </trkpt>
      <trkpt lat="43.83626" lon="1.38667">
        <ele>133.28</ele>
        <time>2021-08-18T11:32:12Z</time>
      </trkpt>
      <trkpt lat="43.83627" lon="1.38659">
        <ele>133.28</ele>
        <time>2021-08-18T11:32:13Z</time>
      </trkpt>
      <trkpt lat="43.8363" lon="1.38655">
        <ele>133.76</ele>
        <time>2021-08-18T11:32:14Z</time>
      </trkpt>
      <trkpt lat="43.83634" lon="1.38653">
        <ele>133.28</ele>
        <time>2021-08-18T11:32:15Z</time>
      </trkpt>
      <trkpt lat="43.83638" lon="1.38652">
        <ele>134.72</ele>
        <time>2021-08-18T11:32:16Z</time>
      </trkpt>
      <trkpt lat="43.83642" lon="1.38651">
        <ele>134.72</ele>
        <time>2021-08-18T11:32:17Z</time>
      </trkpt>
      <trkpt lat="43.83645" lon="1.38648">
        <ele>135.68</ele>
        <time>2021-08-18T11:32:18Z</time>
      </trkpt>
      <trkpt lat="43.83646" lon="1.38642">
        <ele>135.68</ele>
        <time>2021-08-18T11:32:19Z</time>
      </trkpt>
      <trkpt lat="43.83645" lon="1.38638">
        <ele>135.68</ele>
        <time>2021-08-18T11:32:20Z</time>
      </trkpt>
      <trkpt lat="43.83643" lon="1.38633">
        <ele>135.68</ele>
        <time>2021-08-18T11:32:21Z</time>
      </trkpt>
      <trkpt lat="43.8364" lon="1.38622">
        <ele>135.68</ele>
        <time>2021-08-18T11:32:23Z</time>
      </trkpt>
      <trkpt lat="43.83627" lon="1.38617">
        <ele>135.68</ele>
        <time>2021-08-18T11:32:27Z</time>
      </trkpt>
      <trkpt lat="43.83624" lon="1.38613">
        <ele>135.68</ele>
        <time>2021-08-18T11:32:28Z</time>
      </trkpt>
      <trkpt lat="43.83623" lon="1.38608">
        <ele>135.68</ele>
        <time>2021-08-18T11:32:29Z</time>
      </trkpt>
      <trkpt lat="43.83622" lon="1.38602">
        <ele>135.68</ele>
        <time>2021-08-18T11:32:30Z</time>
      </trkpt>
      <trkpt lat="43.83622" lon="1.38597">
        <ele>136.16</ele>
        <time>2021-08-18T11:32:31Z</time>
      </trkpt>
      <trkpt lat="43.83621" lon="1.38591">
        <ele>136.16</ele>
        <time>2021-08-18T11:32:32Z</time>
      </trkpt>
      <trkpt lat="43.83619" lon="1.38586">
        <ele>136.16</ele>
        <time>2021-08-18T11:32:33Z</time>
      </trkpt>
      <trkpt lat="43.83618" lon="1.38581">
        <ele>136.16</ele>
        <time>2021-08-18T11:32:34Z</time>
      </trkpt>
      <trkpt lat="43.83607" lon="1.38562">
        <ele>136.16</ele>
        <time>2021-08-18T11:32:39Z</time>
      </trkpt>
      <trkpt lat="43.83604" lon="1.38561">
        <ele>136.16</ele>
        <time>2021-08-18T11:32:40Z</time>
      </trkpt>
      <trkpt lat="43.83601" lon="1.38561">
        <ele>136.16</ele>
        <time>2021-08-18T11:32:41Z</time>
      </trkpt>
      <trkpt lat="43.83597" lon="1.38559">
        <ele>136.16</ele>
        <time>2021-08-18T11:32:42Z</time>
      </trkpt>
      <trkpt lat="43.83595" lon="1.38556">
        <ele>136.64</ele>
        <time>2021-08-18T11:32:43Z</time>
      </trkpt>
      <trkpt lat="43.83593" lon="1.38552">
        <ele>136.64</ele>
        <time>2021-08-18T11:32:44Z</time>
      </trkpt>
      <trkpt lat="43.83592" lon="1.38548">
        <ele>137.13</ele>
        <time>2021-08-18T11:32:45Z</time>
      </trkpt>
      <trkpt lat="43.83589" lon="1.38545">
        <ele>137.13</ele>
        <time>2021-08-18T11:32:46Z</time>
      </trkpt>
      <trkpt lat="43.83586" lon="1.38545">
        <ele>137.13</ele>
        <time>2021-08-18T11:32:47Z</time>
      </trkpt>
      <trkpt lat="43.83583" lon="1.38544">
        <ele>137.13</ele>
        <time>2021-08-18T11:32:48Z</time>
      </trkpt>
      <trkpt lat="43.8358" lon="1.38542">
        <ele>137.61</ele>
        <time>2021-08-18T11:32:49Z</time>
      </trkpt>
      <trkpt lat="43.83577" lon="1.38539">
        <ele>137.61</ele>
        <time>2021-08-18T11:32:50Z</time>
      </trkpt>
      <trkpt lat="43.83576" lon="1.38535">
        <ele>137.61</ele>
        <time>2021-08-18T11:32:51Z</time>
      </trkpt>
      <trkpt lat="43.83575" lon="1.38531">
        <ele>137.61</ele>
        <time>2021-08-18T11:32:52Z</time>
      </trkpt>
      <trkpt lat="43.83572" lon="1.38519">
        <ele>138.09</ele>
        <time>2021-08-18T11:32:55Z</time>
      </trkpt>
      <trkpt lat="43.83573" lon="1.38516">
        <ele>138.09</ele>
        <time>2021-08-18T11:32:56Z</time>
      </trkpt>
      <trkpt lat="43.83575" lon="1.38514">
        <ele>139.05</ele>
        <time>2021-08-18T11:32:57Z</time>
      </trkpt>
      <trkpt lat="43.83577" lon="1.38513">
        <ele>139.05</ele>
        <time>2021-08-18T11:32:58Z</time>
      </trkpt>
      <trkpt lat="43.83579" lon="1.38511">
        <ele>139.05</ele>
        <time>2021-08-18T11:32:59Z</time>
      </trkpt>
      <trkpt lat="43.83581" lon="1.3851">
        <ele>139.05</ele>
        <time>2021-08-18T11:33:00Z</time>
      </trkpt>
      <trkpt lat="43.83583" lon="1.38508">
        <ele>139.05</ele>
        <time>2021-08-18T11:33:04Z</time>
      </trkpt>
      <trkpt lat="43.83581" lon="1.3851">
        <ele>138.57</ele>
        <time>2021-08-18T11:33:23Z</time>
      </trkpt>
      <trkpt lat="43.83582" lon="1.38512">
        <ele>138.57</ele>
        <time>2021-08-18T11:33:41Z</time>
      </trkpt>
      <trkpt lat="43.83579" lon="1.38511">
        <ele>138.57</ele>
        <time>2021-08-18T11:33:57Z</time>
      </trkpt>
      <trkpt lat="43.83577" lon="1.38513">
        <ele>138.57</ele>
        <time>2021-08-18T11:34:16Z</time>
      </trkpt>
      <trkpt lat="43.83577" lon="1.38512">
        <ele>138.57</ele>
        <time>2021-08-18T11:34:37Z</time>
      </trkpt>
      <trkpt lat="43.83577" lon="1.38511">
        <ele>138.57</ele>
        <time>2021-08-18T11:34:52Z</time>
      </trkpt>
      <trkpt lat="43.83578" lon="1.38512">
        <ele>138.57</ele>
        <time>2021-08-18T11:35:08Z</time>
      </trkpt>
      <trkpt lat="43.83577" lon="1.38512">
        <ele>138.57</ele>
        <time>2021-08-18T11:35:24Z</time>
      </trkpt>
      <trkpt lat="43.83575" lon="1.3851">
        <ele>139.05</ele>
        <time>2021-08-18T11:35:40Z</time>
      </trkpt>
      <trkpt lat="43.83575" lon="1.38511">
        <ele>139.05</ele>
        <time>2021-08-18T11:35:53Z</time>
      </trkpt>
      <trkpt lat="43.83575" lon="1.38512">
        <ele>139.05</ele>
        <time>2021-08-18T11:36:06Z</time>
      </trkpt>
      <trkpt lat="43.83577" lon="1.38513">
        <ele>139.05</ele>
        <time>2021-08-18T11:36:19Z</time>
      </trkpt>
      <trkpt lat="43.83577" lon="1.38515">
        <ele>139.05</ele>
        <time>2021-08-18T11:36:26Z</time>
      </trkpt>
      <trkpt lat="43.83577" lon="1.38517">
        <ele>139.05</ele>
        <time>2021-08-18T11:36:28Z</time>
      </trkpt>
      <trkpt lat="43.83573" lon="1.38523">
        <ele>139.05</ele>
        <time>2021-08-18T11:36:33Z</time>
      </trkpt>
      <trkpt lat="43.83571" lon="1.38521">
        <ele>139.05</ele>
        <time>2021-08-18T11:36:34Z</time>
      </trkpt>
      <trkpt lat="43.8357" lon="1.38518">
        <ele>139.05</ele>
        <time>2021-08-18T11:36:35Z</time>
      </trkpt>
      <trkpt lat="43.8357" lon="1.38515">
        <ele>139.05</ele>
        <time>2021-08-18T11:36:36Z</time>
      </trkpt>
      <trkpt lat="43.83569" lon="1.38512">
        <ele>139.05</ele>
        <time>2021-08-18T11:36:37Z</time>
      </trkpt>
      <trkpt lat="43.83569" lon="1.38509">
        <ele>139.05</ele>
        <time>2021-08-18T11:36:42Z</time>
      </trkpt>
      <trkpt lat="43.83568" lon="1.38506">
        <ele>139.05</ele>
        <time>2021-08-18T11:36:44Z</time>
      </trkpt>
      <trkpt lat="43.83568" lon="1.38504">
        <ele>139.05</ele>
        <time>2021-08-18T11:36:45Z</time>
      </trkpt>
      <trkpt lat="43.83561" lon="1.38484">
        <ele>139.53</ele>
        <time>2021-08-18T11:36:52Z</time>
      </trkpt>
      <trkpt lat="43.83555" lon="1.38458">
        <ele>140.49</ele>
        <time>2021-08-18T11:37:00Z</time>
      </trkpt>
      <trkpt lat="43.8355" lon="1.38433">
        <ele>141.93</ele>
        <time>2021-08-18T11:37:08Z</time>
      </trkpt>
      <trkpt lat="43.83545" lon="1.38407">
        <ele>142.41</ele>
        <time>2021-08-18T11:37:16Z</time>
      </trkpt>
      <trkpt lat="43.8354" lon="1.3838">
        <ele>143.37</ele>
        <time>2021-08-18T11:37:24Z</time>
      </trkpt>
      <trkpt lat="43.83535" lon="1.38354">
        <ele>144.34</ele>
        <time>2021-08-18T11:37:32Z</time>
      </trkpt>
      <trkpt lat="43.83531" lon="1.38324">
        <ele>144.82</ele>
        <time>2021-08-18T11:37:40Z</time>
      </trkpt>
      <trkpt lat="43.83525" lon="1.38286">
        <ele>145.3</ele>
        <time>2021-08-18T11:37:50Z</time>
      </trkpt>
      <trkpt lat="43.83521" lon="1.38259">
        <ele>145.78</ele>
        <time>2021-08-18T11:37:57Z</time>
      </trkpt>
      <trkpt lat="43.83516" lon="1.38235">
        <ele>146.26</ele>
        <time>2021-08-18T11:38:04Z</time>
      </trkpt>
      <trkpt lat="43.83508" lon="1.38209">
        <ele>147.22</ele>
        <time>2021-08-18T11:38:12Z</time>
      </trkpt>
      <trkpt lat="43.83497" lon="1.38187">
        <ele>147.7</ele>
        <time>2021-08-18T11:38:19Z</time>
      </trkpt>
      <trkpt lat="43.83478" lon="1.38166">
        <ele>148.18</ele>
        <time>2021-08-18T11:38:27Z</time>
      </trkpt>
      <trkpt lat="43.83455" lon="1.38138">
        <ele>149.62</ele>
        <time>2021-08-18T11:38:37Z</time>
      </trkpt>
      <trkpt lat="43.83434" lon="1.38115">
        <ele>150.58</ele>
        <time>2021-08-18T11:38:46Z</time>
      </trkpt>
      <trkpt lat="43.83416" lon="1.38092">
        <ele>152.03</ele>
        <time>2021-08-18T11:38:54Z</time>
      </trkpt>
      <trkpt lat="43.83394" lon="1.38063">
        <ele>152.99</ele>
        <time>2021-08-18T11:39:04Z</time>
      </trkpt>
      <trkpt lat="43.83377" lon="1.38039">
        <ele>153.95</ele>
        <time>2021-08-18T11:39:12Z</time>
      </trkpt>
      <trkpt lat="43.83357" lon="1.38015">
        <ele>154.91</ele>
        <time>2021-08-18T11:39:21Z</time>
      </trkpt>
      <trkpt lat="43.83337" lon="1.37991">
        <ele>155.39</ele>
        <time>2021-08-18T11:39:29Z</time>
      </trkpt>
      <trkpt lat="43.83318" lon="1.37969">
        <ele>155.87</ele>
        <time>2021-08-18T11:39:36Z</time>
      </trkpt>
      <trkpt lat="43.83293" lon="1.37948">
        <ele>156.35</ele>
        <time>2021-08-18T11:39:44Z</time>
      </trkpt>
      <trkpt lat="43.83262" lon="1.37927">
        <ele>156.35</ele>
        <time>2021-08-18T11:39:52Z</time>
      </trkpt>
      <trkpt lat="43.83225" lon="1.37895">
        <ele>156.83</ele>
        <time>2021-08-18T11:40:01Z</time>
      </trkpt>
      <trkpt lat="43.83192" lon="1.37851">
        <ele>155.39</ele>
        <time>2021-08-18T11:40:09Z</time>
      </trkpt>
      <trkpt lat="43.83151" lon="1.37805">
        <ele>153.95</ele>
        <time>2021-08-18T11:40:17Z</time>
      </trkpt>
      <trkpt lat="43.83117" lon="1.37774">
        <ele>152.99</ele>
        <time>2021-08-18T11:40:23Z</time>
      </trkpt>
      <trkpt lat="43.83073" lon="1.37726">
        <ele>152.51</ele>
        <time>2021-08-18T11:40:31Z</time>
      </trkpt>
      <trkpt lat="43.83027" lon="1.37673">
        <ele>152.51</ele>
        <time>2021-08-18T11:40:40Z</time>
      </trkpt>
      <trkpt lat="43.82995" lon="1.37635">
        <ele>153.47</ele>
        <time>2021-08-18T11:40:47Z</time>
      </trkpt>
      <trkpt lat="43.82973" lon="1.37609">
        <ele>153.47</ele>
        <time>2021-08-18T11:40:52Z</time>
      </trkpt>
      <trkpt lat="43.82933" lon="1.37562">
        <ele>155.39</ele>
        <time>2021-08-18T11:41:02Z</time>
      </trkpt>
      <trkpt lat="43.82902" lon="1.37524">
        <ele>155.87</ele>
        <time>2021-08-18T11:41:11Z</time>
      </trkpt>
      <trkpt lat="43.82892" lon="1.3751">
        <ele>156.83</ele>
        <time>2021-08-18T11:41:14Z</time>
      </trkpt>
      <trkpt lat="43.82862" lon="1.37469">
        <ele>157.31</ele>
        <time>2021-08-18T11:41:24Z</time>
      </trkpt>
      <trkpt lat="43.8284" lon="1.37432">
        <ele>157.31</ele>
        <time>2021-08-18T11:41:32Z</time>
      </trkpt>
      <trkpt lat="43.82834" lon="1.37423">
        <ele>157.31</ele>
        <time>2021-08-18T11:41:34Z</time>
      </trkpt>
      <trkpt lat="43.8281" lon="1.37392">
        <ele>154.91</ele>
        <time>2021-08-18T11:41:41Z</time>
      </trkpt>
      <trkpt lat="43.82776" lon="1.37365">
        <ele>154.91</ele>
        <time>2021-08-18T11:41:49Z</time>
      </trkpt>
      <trkpt lat="43.82733" lon="1.37333">
        <ele>153.47</ele>
        <time>2021-08-18T11:41:58Z</time>
      </trkpt>
      <trkpt lat="43.82701" lon="1.37294">
        <ele>152.99</ele>
        <time>2021-08-18T11:42:05Z</time>
      </trkpt>
      <trkpt lat="43.82665" lon="1.37233">
        <ele>152.03</ele>
        <time>2021-08-18T11:42:14Z</time>
      </trkpt>
      <trkpt lat="43.82633" lon="1.37175">
        <ele>152.03</ele>
        <time>2021-08-18T11:42:23Z</time>
      </trkpt>
      <trkpt lat="43.82593" lon="1.37101">
        <ele>152.99</ele>
        <time>2021-08-18T11:42:35Z</time>
      </trkpt>
      <trkpt lat="43.8257" lon="1.37058">
        <ele>153.95</ele>
        <time>2021-08-18T11:42:43Z</time>
      </trkpt>
      <trkpt lat="43.82556" lon="1.37031">
        <ele>153.95</ele>
        <time>2021-08-18T11:42:48Z</time>
      </trkpt>
      <trkpt lat="43.82552" lon="1.37026">
        <ele>154.91</ele>
        <time>2021-08-18T11:42:49Z</time>
      </trkpt>
      <trkpt lat="43.82516" lon="1.3695">
        <ele>154.91</ele>
        <time>2021-08-18T11:43:02Z</time>
      </trkpt>
      <trkpt lat="43.82488" lon="1.36893">
        <ele>155.39</ele>
        <time>2021-08-18T11:43:11Z</time>
      </trkpt>
      <trkpt lat="43.82462" lon="1.36833">
        <ele>155.87</ele>
        <time>2021-08-18T11:43:20Z</time>
      </trkpt>
      <trkpt lat="43.82434" lon="1.36775">
        <ele>156.35</ele>
        <time>2021-08-18T11:43:29Z</time>
      </trkpt>
      <trkpt lat="43.82431" lon="1.36768">
        <ele>156.35</ele>
        <time>2021-08-18T11:43:30Z</time>
      </trkpt>
      <trkpt lat="43.82411" lon="1.36723">
        <ele>156.83</ele>
        <time>2021-08-18T11:43:37Z</time>
      </trkpt>
      <trkpt lat="43.82389" lon="1.36675">
        <ele>156.83</ele>
        <time>2021-08-18T11:43:45Z</time>
      </trkpt>
      <trkpt lat="43.82358" lon="1.36613">
        <ele>157.79</ele>
        <time>2021-08-18T11:43:55Z</time>
      </trkpt>
      <trkpt lat="43.82343" lon="1.36582">
        <ele>158.27</ele>
        <time>2021-08-18T11:44:00Z</time>
      </trkpt>
      <trkpt lat="43.8234" lon="1.36575">
        <ele>158.27</ele>
        <time>2021-08-18T11:44:01Z</time>
      </trkpt>
      <trkpt lat="43.82337" lon="1.36568">
        <ele>158.27</ele>
        <time>2021-08-18T11:44:02Z</time>
      </trkpt>
      <trkpt lat="43.82305" lon="1.36517">
        <ele>158.27</ele>
        <time>2021-08-18T11:44:11Z</time>
      </trkpt>
      <trkpt lat="43.82272" lon="1.3648">
        <ele>158.27</ele>
        <time>2021-08-18T11:44:19Z</time>
      </trkpt>
      <trkpt lat="43.82231" lon="1.36432">
        <ele>159.72</ele>
        <time>2021-08-18T11:44:29Z</time>
      </trkpt>
      <trkpt lat="43.82214" lon="1.36415">
        <ele>159.72</ele>
        <time>2021-08-18T11:44:33Z</time>
      </trkpt>
      <trkpt lat="43.82176" lon="1.36368">
        <ele>160.68</ele>
        <time>2021-08-18T11:44:43Z</time>
      </trkpt>
      <trkpt lat="43.8215" lon="1.36341">
        <ele>160.68</ele>
        <time>2021-08-18T11:44:49Z</time>
      </trkpt>
      <trkpt lat="43.82146" lon="1.36337">
        <ele>160.68</ele>
        <time>2021-08-18T11:44:50Z</time>
      </trkpt>
      <trkpt lat="43.82138" lon="1.36328">
        <ele>161.16</ele>
        <time>2021-08-18T11:44:52Z</time>
      </trkpt>
      <trkpt lat="43.82089" lon="1.36282">
        <ele>162.12</ele>
        <time>2021-08-18T11:45:03Z</time>
      </trkpt>
      <trkpt lat="43.82057" lon="1.36249">
        <ele>162.6</ele>
        <time>2021-08-18T11:45:11Z</time>
      </trkpt>
      <trkpt lat="43.8201" lon="1.36208">
        <ele>162.6</ele>
        <time>2021-08-18T11:45:22Z</time>
      </trkpt>
      <trkpt lat="43.8196" lon="1.36173">
        <ele>163.08</ele>
        <time>2021-08-18T11:45:32Z</time>
      </trkpt>
      <trkpt lat="43.81914" lon="1.36127">
        <ele>163.08</ele>
        <time>2021-08-18T11:45:42Z</time>
      </trkpt>
      <trkpt lat="43.81866" lon="1.36083">
        <ele>163.56</ele>
        <time>2021-08-18T11:45:52Z</time>
      </trkpt>
      <trkpt lat="43.81824" lon="1.36053">
        <ele>163.56</ele>
        <time>2021-08-18T11:46:00Z</time>
      </trkpt>
      <trkpt lat="43.8178" lon="1.36029">
        <ele>164.04</ele>
        <time>2021-08-18T11:46:09Z</time>
      </trkpt>
      <trkpt lat="43.81758" lon="1.36019">
        <ele>162.6</ele>
        <time>2021-08-18T11:46:13Z</time>
      </trkpt>
      <trkpt lat="43.81719" lon="1.35995">
        <ele>162.6</ele>
        <time>2021-08-18T11:46:20Z</time>
      </trkpt>
      <trkpt lat="43.81686" lon="1.35957">
        <ele>162.6</ele>
        <time>2021-08-18T11:46:27Z</time>
      </trkpt>
      <trkpt lat="43.81655" lon="1.3592">
        <ele>162.6</ele>
        <time>2021-08-18T11:46:34Z</time>
      </trkpt>
      <trkpt lat="43.81625" lon="1.35875">
        <ele>163.56</ele>
        <time>2021-08-18T11:46:42Z</time>
      </trkpt>
      <trkpt lat="43.81609" lon="1.35847">
        <ele>164.52</ele>
        <time>2021-08-18T11:46:47Z</time>
      </trkpt>
      <trkpt lat="43.81597" lon="1.35824">
        <ele>165</ele>
        <time>2021-08-18T11:46:51Z</time>
      </trkpt>
      <trkpt lat="43.81587" lon="1.35809">
        <ele>165.48</ele>
        <time>2021-08-18T11:46:54Z</time>
      </trkpt>
      <trkpt lat="43.81567" lon="1.35783">
        <ele>165.96</ele>
        <time>2021-08-18T11:47:00Z</time>
      </trkpt>
      <trkpt lat="43.81557" lon="1.35771">
        <ele>166.45</ele>
        <time>2021-08-18T11:47:03Z</time>
      </trkpt>
      <trkpt lat="43.81554" lon="1.35767">
        <ele>166.45</ele>
        <time>2021-08-18T11:47:04Z</time>
      </trkpt>
      <trkpt lat="43.81522" lon="1.35724">
        <ele>166.93</ele>
        <time>2021-08-18T11:47:14Z</time>
      </trkpt>
      <trkpt lat="43.81495" lon="1.35692">
        <ele>167.41</ele>
        <time>2021-08-18T11:47:22Z</time>
      </trkpt>
      <trkpt lat="43.81488" lon="1.35684">
        <ele>167.89</ele>
        <time>2021-08-18T11:47:24Z</time>
      </trkpt>
      <trkpt lat="43.81485" lon="1.35681">
        <ele>167.89</ele>
        <time>2021-08-18T11:47:25Z</time>
      </trkpt>
      <trkpt lat="43.81455" lon="1.35658">
        <ele>168.85</ele>
        <time>2021-08-18T11:47:33Z</time>
      </trkpt>
      <trkpt lat="43.81453" lon="1.35652">
        <ele>168.85</ele>
        <time>2021-08-18T11:47:34Z</time>
      </trkpt>
      <trkpt lat="43.81451" lon="1.35647">
        <ele>168.85</ele>
        <time>2021-08-18T11:47:35Z</time>
      </trkpt>
      <trkpt lat="43.8143" lon="1.35615">
        <ele>169.81</ele>
        <time>2021-08-18T11:47:43Z</time>
      </trkpt>
      <trkpt lat="43.8141" lon="1.35587">
        <ele>170.77</ele>
        <time>2021-08-18T11:47:51Z</time>
      </trkpt>
      <trkpt lat="43.8139" lon="1.35563">
        <ele>171.73</ele>
        <time>2021-08-18T11:47:59Z</time>
      </trkpt>
      <trkpt lat="43.8137" lon="1.35537">
        <ele>172.69</ele>
        <time>2021-08-18T11:48:08Z</time>
      </trkpt>
      <trkpt lat="43.81351" lon="1.35512">
        <ele>174.14</ele>
        <time>2021-08-18T11:48:17Z</time>
      </trkpt>
      <trkpt lat="43.81333" lon="1.35484">
        <ele>175.58</ele>
        <time>2021-08-18T11:48:26Z</time>
      </trkpt>
      <trkpt lat="43.81324" lon="1.3547">
        <ele>176.06</ele>
        <time>2021-08-18T11:48:32Z</time>
      </trkpt>
      <trkpt lat="43.81324" lon="1.35471">
        <ele>176.06</ele>
        <time>2021-08-18T11:48:41Z</time>
      </trkpt>
      <trkpt lat="43.81325" lon="1.35471">
        <ele>176.54</ele>
        <time>2021-08-18T11:49:04Z</time>
      </trkpt>
      <trkpt lat="43.81325" lon="1.35472">
        <ele>176.54</ele>
        <time>2021-08-18T11:49:18Z</time>
      </trkpt>
      <trkpt lat="43.81325" lon="1.3547">
        <ele>176.54</ele>
        <time>2021-08-18T11:49:32Z</time>
      </trkpt>
      <trkpt lat="43.81315" lon="1.35455">
        <ele>177.5</ele>
        <time>2021-08-18T11:49:40Z</time>
      </trkpt>
      <trkpt lat="43.81312" lon="1.35454">
        <ele>177.5</ele>
        <time>2021-08-18T11:49:41Z</time>
      </trkpt>
      <trkpt lat="43.8131" lon="1.35452">
        <ele>177.02</ele>
        <time>2021-08-18T11:49:42Z</time>
      </trkpt>
      <trkpt lat="43.81309" lon="1.3545">
        <ele>177.02</ele>
        <time>2021-08-18T11:49:43Z</time>
      </trkpt>
      <trkpt lat="43.81307" lon="1.35447">
        <ele>177.02</ele>
        <time>2021-08-18T11:49:44Z</time>
      </trkpt>
      <trkpt lat="43.81305" lon="1.35444">
        <ele>177.02</ele>
        <time>2021-08-18T11:49:45Z</time>
      </trkpt>
      <trkpt lat="43.81296" lon="1.35429">
        <ele>178.46</ele>
        <time>2021-08-18T11:49:49Z</time>
      </trkpt>
      <trkpt lat="43.81275" lon="1.35392">
        <ele>179.42</ele>
        <time>2021-08-18T11:50:01Z</time>
      </trkpt>
      <trkpt lat="43.81258" lon="1.35366">
        <ele>180.38</ele>
        <time>2021-08-18T11:50:10Z</time>
      </trkpt>
      <trkpt lat="43.81243" lon="1.35343">
        <ele>182.31</ele>
        <time>2021-08-18T11:50:18Z</time>
      </trkpt>
      <trkpt lat="43.8123" lon="1.35324">
        <ele>183.27</ele>
        <time>2021-08-18T11:50:26Z</time>
      </trkpt>
      <trkpt lat="43.81217" lon="1.35304">
        <ele>184.23</ele>
        <time>2021-08-18T11:50:35Z</time>
      </trkpt>
      <trkpt lat="43.81202" lon="1.35281">
        <ele>185.67</ele>
        <time>2021-08-18T11:50:45Z</time>
      </trkpt>
      <trkpt lat="43.81187" lon="1.35265">
        <ele>187.59</ele>
        <time>2021-08-18T11:50:54Z</time>
      </trkpt>
      <trkpt lat="43.81178" lon="1.35253">
        <ele>188.56</ele>
        <time>2021-08-18T11:51:02Z</time>
      </trkpt>
      <trkpt lat="43.81169" lon="1.35236">
        <ele>190</ele>
        <time>2021-08-18T11:51:12Z</time>
      </trkpt>
      <trkpt lat="43.8116" lon="1.35223">
        <ele>191.44</ele>
        <time>2021-08-18T11:51:20Z</time>
      </trkpt>
      <trkpt lat="43.81151" lon="1.35211">
        <ele>192.88</ele>
        <time>2021-08-18T11:51:28Z</time>
      </trkpt>
      <trkpt lat="43.81141" lon="1.35197">
        <ele>194.8</ele>
        <time>2021-08-18T11:51:37Z</time>
      </trkpt>
      <trkpt lat="43.81132" lon="1.35181">
        <ele>196.25</ele>
        <time>2021-08-18T11:51:45Z</time>
      </trkpt>
      <trkpt lat="43.8112" lon="1.35163">
        <ele>198.17</ele>
        <time>2021-08-18T11:51:55Z</time>
      </trkpt>
      <trkpt lat="43.81111" lon="1.35145">
        <ele>200.09</ele>
        <time>2021-08-18T11:52:04Z</time>
      </trkpt>
      <trkpt lat="43.81101" lon="1.35125">
        <ele>201.53</ele>
        <time>2021-08-18T11:52:13Z</time>
      </trkpt>
      <trkpt lat="43.81087" lon="1.35102">
        <ele>202.98</ele>
        <time>2021-08-18T11:52:23Z</time>
      </trkpt>
      <trkpt lat="43.81068" lon="1.35076">
        <ele>204.42</ele>
        <time>2021-08-18T11:52:33Z</time>
      </trkpt>
      <trkpt lat="43.81051" lon="1.35056">
        <ele>205.86</ele>
        <time>2021-08-18T11:52:41Z</time>
      </trkpt>
      <trkpt lat="43.81032" lon="1.35032">
        <ele>207.3</ele>
        <time>2021-08-18T11:52:50Z</time>
      </trkpt>
      <trkpt lat="43.81013" lon="1.35013">
        <ele>209.22</ele>
        <time>2021-08-18T11:52:59Z</time>
      </trkpt>
      <trkpt lat="43.80997" lon="1.34998">
        <ele>209.22</ele>
        <time>2021-08-18T11:53:06Z</time>
      </trkpt>
      <trkpt lat="43.80979" lon="1.34983">
        <ele>210.67</ele>
        <time>2021-08-18T11:53:13Z</time>
      </trkpt>
      <trkpt lat="43.80956" lon="1.34961">
        <ele>211.15</ele>
        <time>2021-08-18T11:53:21Z</time>
      </trkpt>
      <trkpt lat="43.80934" lon="1.34942">
        <ele>210.19</ele>
        <time>2021-08-18T11:53:28Z</time>
      </trkpt>
      <trkpt lat="43.80893" lon="1.34912">
        <ele>208.74</ele>
        <time>2021-08-18T11:53:37Z</time>
      </trkpt>
      <trkpt lat="43.80867" lon="1.3489">
        <ele>207.78</ele>
        <time>2021-08-18T11:53:42Z</time>
      </trkpt>
      <trkpt lat="43.80837" lon="1.3485">
        <ele>206.82</ele>
        <time>2021-08-18T11:53:49Z</time>
      </trkpt>
      <trkpt lat="43.80823" lon="1.34828">
        <ele>208.26</ele>
        <time>2021-08-18T11:53:54Z</time>
      </trkpt>
      <trkpt lat="43.80806" lon="1.348">
        <ele>209.22</ele>
        <time>2021-08-18T11:54:01Z</time>
      </trkpt>
      <trkpt lat="43.80787" lon="1.34773">
        <ele>211.63</ele>
        <time>2021-08-18T11:54:08Z</time>
      </trkpt>
      <trkpt lat="43.80765" lon="1.34742">
        <ele>213.07</ele>
        <time>2021-08-18T11:54:16Z</time>
      </trkpt>
      <trkpt lat="43.8074" lon="1.34698">
        <ele>214.51</ele>
        <time>2021-08-18T11:54:26Z</time>
      </trkpt>
      <trkpt lat="43.80716" lon="1.34659">
        <ele>214.99</ele>
        <time>2021-08-18T11:54:35Z</time>
      </trkpt>
      <trkpt lat="43.80706" lon="1.34643">
        <ele>213.55</ele>
        <time>2021-08-18T11:54:38Z</time>
      </trkpt>
      <trkpt lat="43.80703" lon="1.34638">
        <ele>213.55</ele>
        <time>2021-08-18T11:54:39Z</time>
      </trkpt>
      <trkpt lat="43.80674" lon="1.34602">
        <ele>209.22</ele>
        <time>2021-08-18T11:54:45Z</time>
      </trkpt>
      <trkpt lat="43.80653" lon="1.34577">
        <ele>205.38</ele>
        <time>2021-08-18T11:54:48Z</time>
      </trkpt>
      <trkpt lat="43.80626" lon="1.34547">
        <ele>201.05</ele>
        <time>2021-08-18T11:54:51Z</time>
      </trkpt>
      <trkpt lat="43.80596" lon="1.34513">
        <ele>197.69</ele>
        <time>2021-08-18T11:54:54Z</time>
      </trkpt>
      <trkpt lat="43.80561" lon="1.34463">
        <ele>195.77</ele>
        <time>2021-08-18T11:54:58Z</time>
      </trkpt>
      <trkpt lat="43.80542" lon="1.34421">
        <ele>193.36</ele>
        <time>2021-08-18T11:55:01Z</time>
      </trkpt>
      <trkpt lat="43.80509" lon="1.34351">
        <ele>197.21</ele>
        <time>2021-08-18T11:55:07Z</time>
      </trkpt>
      <trkpt lat="43.80485" lon="1.34303">
        <ele>199.13</ele>
        <time>2021-08-18T11:55:13Z</time>
      </trkpt>
      <trkpt lat="43.80476" lon="1.34287">
        <ele>200.57</ele>
        <time>2021-08-18T11:55:16Z</time>
      </trkpt>
      <trkpt lat="43.80461" lon="1.34261">
        <ele>202.01</ele>
        <time>2021-08-18T11:55:23Z</time>
      </trkpt>
      <trkpt lat="43.8045" lon="1.34246">
        <ele>203.46</ele>
        <time>2021-08-18T11:55:30Z</time>
      </trkpt>
      <trkpt lat="43.80434" lon="1.34228">
        <ele>205.38</ele>
        <time>2021-08-18T11:55:40Z</time>
      </trkpt>
      <trkpt lat="43.80415" lon="1.34208">
        <ele>208.26</ele>
        <time>2021-08-18T11:55:51Z</time>
      </trkpt>
      <trkpt lat="43.80401" lon="1.34196">
        <ele>210.19</ele>
        <time>2021-08-18T11:55:58Z</time>
      </trkpt>
      <trkpt lat="43.80379" lon="1.34176">
        <ele>212.11</ele>
        <time>2021-08-18T11:56:08Z</time>
      </trkpt>
      <trkpt lat="43.80359" lon="1.34157">
        <ele>212.59</ele>
        <time>2021-08-18T11:56:16Z</time>
      </trkpt>
      <trkpt lat="43.8033" lon="1.34128">
        <ele>213.07</ele>
        <time>2021-08-18T11:56:26Z</time>
      </trkpt>
      <trkpt lat="43.80307" lon="1.34086">
        <ele>213.55</ele>
        <time>2021-08-18T11:56:36Z</time>
      </trkpt>
      <trkpt lat="43.80301" lon="1.34069">
        <ele>212.11</ele>
        <time>2021-08-18T11:56:39Z</time>
      </trkpt>
      <trkpt lat="43.80299" lon="1.34063">
        <ele>212.11</ele>
        <time>2021-08-18T11:56:40Z</time>
      </trkpt>
      <trkpt lat="43.80292" lon="1.34037">
        <ele>208.74</ele>
        <time>2021-08-18T11:56:44Z</time>
      </trkpt>
      <trkpt lat="43.80291" lon="1.34031">
        <ele>208.74</ele>
        <time>2021-08-18T11:56:45Z</time>
      </trkpt>
      <trkpt lat="43.80287" lon="1.34021">
        <ele>206.82</ele>
        <time>2021-08-18T11:56:47Z</time>
      </trkpt>
      <trkpt lat="43.80278" lon="1.33995">
        <ele>202.98</ele>
        <time>2021-08-18T11:56:51Z</time>
      </trkpt>
      <trkpt lat="43.80267" lon="1.33974">
        <ele>199.61</ele>
        <time>2021-08-18T11:56:55Z</time>
      </trkpt>
      <trkpt lat="43.80259" lon="1.33948">
        <ele>195.77</ele>
        <time>2021-08-18T11:56:59Z</time>
      </trkpt>
      <trkpt lat="43.80254" lon="1.33922">
        <ele>192.4</ele>
        <time>2021-08-18T11:57:02Z</time>
      </trkpt>
      <trkpt lat="43.80248" lon="1.33879">
        <ele>189.04</ele>
        <time>2021-08-18T11:57:07Z</time>
      </trkpt>
      <trkpt lat="43.80241" lon="1.33851">
        <ele>185.67</ele>
        <time>2021-08-18T11:57:10Z</time>
      </trkpt>
      <trkpt lat="43.80235" lon="1.33831">
        <ele>181.83</ele>
        <time>2021-08-18T11:57:12Z</time>
      </trkpt>
      <trkpt lat="43.80229" lon="1.33812">
        <ele>178.46</ele>
        <time>2021-08-18T11:57:14Z</time>
      </trkpt>
      <trkpt lat="43.80227" lon="1.33803">
        <ele>177.02</ele>
        <time>2021-08-18T11:57:15Z</time>
      </trkpt>
      <trkpt lat="43.80221" lon="1.33774">
        <ele>173.66</ele>
        <time>2021-08-18T11:57:18Z</time>
      </trkpt>
      <trkpt lat="43.80217" lon="1.33752">
        <ele>170.29</ele>
        <time>2021-08-18T11:57:20Z</time>
      </trkpt>
      <trkpt lat="43.80212" lon="1.33715">
        <ele>166.45</ele>
        <time>2021-08-18T11:57:23Z</time>
      </trkpt>
      <trkpt lat="43.80208" lon="1.3368">
        <ele>163.08</ele>
        <time>2021-08-18T11:57:26Z</time>
      </trkpt>
      <trkpt lat="43.80207" lon="1.33668">
        <ele>163.08</ele>
        <time>2021-08-18T11:57:27Z</time>
      </trkpt>
      <trkpt lat="43.80207" lon="1.33644">
        <ele>161.64</ele>
        <time>2021-08-18T11:57:29Z</time>
      </trkpt>
      <trkpt lat="43.80207" lon="1.33599">
        <ele>158.27</ele>
        <time>2021-08-18T11:57:33Z</time>
      </trkpt>
      <trkpt lat="43.80206" lon="1.33588">
        <ele>158.27</ele>
        <time>2021-08-18T11:57:34Z</time>
      </trkpt>
      <trkpt lat="43.80208" lon="1.33529">
        <ele>155.39</ele>
        <time>2021-08-18T11:57:39Z</time>
      </trkpt>
      <trkpt lat="43.80209" lon="1.33519">
        <ele>155.39</ele>
        <time>2021-08-18T11:57:40Z</time>
      </trkpt>
      <trkpt lat="43.80208" lon="1.33489">
        <ele>153.47</ele>
        <time>2021-08-18T11:57:43Z</time>
      </trkpt>
      <trkpt lat="43.80207" lon="1.33479">
        <ele>152.99</ele>
        <time>2021-08-18T11:57:44Z</time>
      </trkpt>
      <trkpt lat="43.80205" lon="1.33469">
        <ele>152.51</ele>
        <time>2021-08-18T11:57:45Z</time>
      </trkpt>
      <trkpt lat="43.80194" lon="1.33421">
        <ele>149.14</ele>
        <time>2021-08-18T11:57:50Z</time>
      </trkpt>
      <trkpt lat="43.80186" lon="1.33391">
        <ele>147.22</ele>
        <time>2021-08-18T11:57:53Z</time>
      </trkpt>
      <trkpt lat="43.80175" lon="1.3335">
        <ele>144.34</ele>
        <time>2021-08-18T11:57:57Z</time>
      </trkpt>
      <trkpt lat="43.80173" lon="1.3334">
        <ele>144.34</ele>
        <time>2021-08-18T11:57:58Z</time>
      </trkpt>
      <trkpt lat="43.80171" lon="1.33287">
        <ele>140.97</ele>
        <time>2021-08-18T11:58:03Z</time>
      </trkpt>
      <trkpt lat="43.80171" lon="1.33276">
        <ele>140.97</ele>
        <time>2021-08-18T11:58:04Z</time>
      </trkpt>
      <trkpt lat="43.80175" lon="1.3323">
        <ele>138.57</ele>
        <time>2021-08-18T11:58:08Z</time>
      </trkpt>
      <trkpt lat="43.80177" lon="1.33219">
        <ele>138.57</ele>
        <time>2021-08-18T11:58:09Z</time>
      </trkpt>
      <trkpt lat="43.80179" lon="1.33208">
        <ele>138.57</ele>
        <time>2021-08-18T11:58:10Z</time>
      </trkpt>
      <trkpt lat="43.80182" lon="1.33198">
        <ele>138.09</ele>
        <time>2021-08-18T11:58:11Z</time>
      </trkpt>
      <trkpt lat="43.80186" lon="1.33189">
        <ele>137.61</ele>
        <time>2021-08-18T11:58:12Z</time>
      </trkpt>
      <trkpt lat="43.80191" lon="1.3318">
        <ele>137.13</ele>
        <time>2021-08-18T11:58:13Z</time>
      </trkpt>
      <trkpt lat="43.80196" lon="1.33172">
        <ele>136.64</ele>
        <time>2021-08-18T11:58:14Z</time>
      </trkpt>
      <trkpt lat="43.80202" lon="1.33164">
        <ele>135.68</ele>
        <time>2021-08-18T11:58:15Z</time>
      </trkpt>
      <trkpt lat="43.80208" lon="1.33158">
        <ele>135.68</ele>
        <time>2021-08-18T11:58:16Z</time>
      </trkpt>
      <trkpt lat="43.8024" lon="1.33126">
        <ele>135.2</ele>
        <time>2021-08-18T11:58:22Z</time>
      </trkpt>
      <trkpt lat="43.8025" lon="1.33115">
        <ele>135.2</ele>
        <time>2021-08-18T11:58:25Z</time>
      </trkpt>
      <trkpt lat="43.80249" lon="1.33111">
        <ele>135.2</ele>
        <time>2021-08-18T11:58:26Z</time>
      </trkpt>
      <trkpt lat="43.80247" lon="1.33107">
        <ele>135.2</ele>
        <time>2021-08-18T11:58:27Z</time>
      </trkpt>
      <trkpt lat="43.80244" lon="1.33105">
        <ele>135.2</ele>
        <time>2021-08-18T11:58:28Z</time>
      </trkpt>
      <trkpt lat="43.80241" lon="1.33105">
        <ele>135.2</ele>
        <time>2021-08-18T11:58:29Z</time>
      </trkpt>
      <trkpt lat="43.80237" lon="1.33105">
        <ele>134.72</ele>
        <time>2021-08-18T11:58:30Z</time>
      </trkpt>
      <trkpt lat="43.80217" lon="1.33103">
        <ele>133.28</ele>
        <time>2021-08-18T11:58:34Z</time>
      </trkpt>
      <trkpt lat="43.80183" lon="1.33096">
        <ele>130.4</ele>
        <time>2021-08-18T11:58:39Z</time>
      </trkpt>
      <trkpt lat="43.80175" lon="1.33096">
        <ele>129.43</ele>
        <time>2021-08-18T11:58:40Z</time>
      </trkpt>
      <trkpt lat="43.80167" lon="1.33097">
        <ele>129.43</ele>
        <time>2021-08-18T11:58:41Z</time>
      </trkpt>
      <trkpt lat="43.80159" lon="1.331">
        <ele>128.47</ele>
        <time>2021-08-18T11:58:42Z</time>
      </trkpt>
      <trkpt lat="43.80152" lon="1.33106">
        <ele>127.99</ele>
        <time>2021-08-18T11:58:43Z</time>
      </trkpt>
      <trkpt lat="43.80144" lon="1.33113">
        <ele>127.99</ele>
        <time>2021-08-18T11:58:44Z</time>
      </trkpt>
      <trkpt lat="43.80138" lon="1.33121">
        <ele>127.03</ele>
        <time>2021-08-18T11:58:45Z</time>
      </trkpt>
      <trkpt lat="43.80131" lon="1.33127">
        <ele>126.55</ele>
        <time>2021-08-18T11:58:46Z</time>
      </trkpt>
      <trkpt lat="43.80123" lon="1.33133">
        <ele>125.11</ele>
        <time>2021-08-18T11:58:47Z</time>
      </trkpt>
      <trkpt lat="43.80115" lon="1.33137">
        <ele>124.63</ele>
        <time>2021-08-18T11:58:48Z</time>
      </trkpt>
      <trkpt lat="43.80105" lon="1.33138">
        <ele>123.19</ele>
        <time>2021-08-18T11:58:49Z</time>
      </trkpt>
      <trkpt lat="43.80096" lon="1.33137">
        <ele>122.71</ele>
        <time>2021-08-18T11:58:50Z</time>
      </trkpt>
      <trkpt lat="43.80085" lon="1.33136">
        <ele>121.74</ele>
        <time>2021-08-18T11:58:51Z</time>
      </trkpt>
      <trkpt lat="43.80065" lon="1.3313">
        <ele>120.78</ele>
        <time>2021-08-18T11:58:53Z</time>
      </trkpt>
      <trkpt lat="43.80046" lon="1.33125">
        <ele>119.34</ele>
        <time>2021-08-18T11:58:55Z</time>
      </trkpt>
      <trkpt lat="43.80014" lon="1.33115">
        <ele>117.42</ele>
        <time>2021-08-18T11:58:59Z</time>
      </trkpt>
      <trkpt lat="43.80009" lon="1.33112">
        <ele>116.94</ele>
        <time>2021-08-18T11:59:00Z</time>
      </trkpt>
      <trkpt lat="43.79984" lon="1.33094">
        <ele>116.46</ele>
        <time>2021-08-18T11:59:06Z</time>
      </trkpt>
      <trkpt lat="43.79975" lon="1.33084">
        <ele>115.98</ele>
        <time>2021-08-18T11:59:08Z</time>
      </trkpt>
      <trkpt lat="43.79934" lon="1.33026">
        <ele>114.05</ele>
        <time>2021-08-18T11:59:17Z</time>
      </trkpt>
      <trkpt lat="43.79898" lon="1.3298">
        <ele>112.61</ele>
        <time>2021-08-18T11:59:24Z</time>
      </trkpt>
      <trkpt lat="43.79875" lon="1.32956">
        <ele>112.13</ele>
        <time>2021-08-18T11:59:28Z</time>
      </trkpt>
      <trkpt lat="43.79868" lon="1.32953">
        <ele>112.13</ele>
        <time>2021-08-18T11:59:29Z</time>
      </trkpt>
      <trkpt lat="43.79862" lon="1.32954">
        <ele>112.13</ele>
        <time>2021-08-18T11:59:30Z</time>
      </trkpt>
      <trkpt lat="43.79857" lon="1.32957">
        <ele>112.13</ele>
        <time>2021-08-18T11:59:31Z</time>
      </trkpt>
      <trkpt lat="43.79852" lon="1.32962">
        <ele>112.13</ele>
        <time>2021-08-18T11:59:32Z</time>
      </trkpt>
      <trkpt lat="43.79841" lon="1.32975">
        <ele>113.09</ele>
        <time>2021-08-18T11:59:35Z</time>
      </trkpt>
      <trkpt lat="43.79826" lon="1.32985">
        <ele>114.05</ele>
        <time>2021-08-18T11:59:39Z</time>
      </trkpt>
      <trkpt lat="43.79822" lon="1.32985">
        <ele>115.01</ele>
        <time>2021-08-18T11:59:40Z</time>
      </trkpt>
      <trkpt lat="43.79819" lon="1.32983">
        <ele>115.01</ele>
        <time>2021-08-18T11:59:41Z</time>
      </trkpt>
      <trkpt lat="43.79815" lon="1.32981">
        <ele>115.5</ele>
        <time>2021-08-18T11:59:42Z</time>
      </trkpt>
      <trkpt lat="43.79813" lon="1.32978">
        <ele>115.5</ele>
        <time>2021-08-18T11:59:43Z</time>
      </trkpt>
      <trkpt lat="43.7981" lon="1.32975">
        <ele>115.5</ele>
        <time>2021-08-18T11:59:44Z</time>
      </trkpt>
      <trkpt lat="43.79801" lon="1.32954">
        <ele>116.46</ele>
        <time>2021-08-18T11:59:50Z</time>
      </trkpt>
      <trkpt lat="43.79796" lon="1.32945">
        <ele>116.46</ele>
        <time>2021-08-18T11:59:52Z</time>
      </trkpt>
      <trkpt lat="43.79792" lon="1.3294">
        <ele>116.46</ele>
        <time>2021-08-18T11:59:53Z</time>
      </trkpt>
      <trkpt lat="43.7979" lon="1.32934">
        <ele>115.5</ele>
        <time>2021-08-18T11:59:54Z</time>
      </trkpt>
      <trkpt lat="43.79787" lon="1.32928">
        <ele>115.5</ele>
        <time>2021-08-18T11:59:55Z</time>
      </trkpt>
      <trkpt lat="43.79784" lon="1.32922">
        <ele>115.5</ele>
        <time>2021-08-18T11:59:56Z</time>
      </trkpt>
      <trkpt lat="43.79764" lon="1.32893">
        <ele>112.61</ele>
        <time>2021-08-18T12:00:01Z</time>
      </trkpt>
      <trkpt lat="43.79759" lon="1.32889">
        <ele>112.61</ele>
        <time>2021-08-18T12:00:02Z</time>
      </trkpt>
      <trkpt lat="43.79717" lon="1.32843">
        <ele>112.61</ele>
        <time>2021-08-18T12:00:11Z</time>
      </trkpt>
      <trkpt lat="43.79685" lon="1.32794">
        <ele>111.17</ele>
        <time>2021-08-18T12:00:19Z</time>
      </trkpt>
      <trkpt lat="43.79645" lon="1.32723">
        <ele>111.17</ele>
        <time>2021-08-18T12:00:30Z</time>
      </trkpt>
      <trkpt lat="43.79611" lon="1.32676">
        <ele>111.17</ele>
        <time>2021-08-18T12:00:38Z</time>
      </trkpt>
      <trkpt lat="43.79562" lon="1.32602">
        <ele>111.17</ele>
        <time>2021-08-18T12:00:50Z</time>
      </trkpt>
      <trkpt lat="43.79529" lon="1.32552">
        <ele>110.69</ele>
        <time>2021-08-18T12:00:58Z</time>
      </trkpt>
      <trkpt lat="43.79497" lon="1.32505">
        <ele>110.69</ele>
        <time>2021-08-18T12:01:06Z</time>
      </trkpt>
      <trkpt lat="43.79456" lon="1.32446">
        <ele>110.69</ele>
        <time>2021-08-18T12:01:16Z</time>
      </trkpt>
      <trkpt lat="43.79413" lon="1.32388">
        <ele>110.69</ele>
        <time>2021-08-18T12:01:26Z</time>
      </trkpt>
      <trkpt lat="43.79386" lon="1.32354">
        <ele>110.69</ele>
        <time>2021-08-18T12:01:32Z</time>
      </trkpt>
      <trkpt lat="43.79352" lon="1.32304">
        <ele>110.21</ele>
        <time>2021-08-18T12:01:40Z</time>
      </trkpt>
      <trkpt lat="43.79311" lon="1.32254">
        <ele>110.21</ele>
        <time>2021-08-18T12:01:49Z</time>
      </trkpt>
      <trkpt lat="43.79284" lon="1.32236">
        <ele>110.21</ele>
        <time>2021-08-18T12:01:54Z</time>
      </trkpt>
      <trkpt lat="43.79222" lon="1.32208">
        <ele>109.73</ele>
        <time>2021-08-18T12:02:05Z</time>
      </trkpt>
      <trkpt lat="43.79198" lon="1.322">
        <ele>109.73</ele>
        <time>2021-08-18T12:02:09Z</time>
      </trkpt>
      <trkpt lat="43.7918" lon="1.32195">
        <ele>109.73</ele>
        <time>2021-08-18T12:02:12Z</time>
      </trkpt>
      <trkpt lat="43.79162" lon="1.32187">
        <ele>109.73</ele>
        <time>2021-08-18T12:02:15Z</time>
      </trkpt>
      <trkpt lat="43.79112" lon="1.32174">
        <ele>109.73</ele>
        <time>2021-08-18T12:02:23Z</time>
      </trkpt>
      <trkpt lat="43.79068" lon="1.32173">
        <ele>109.73</ele>
        <time>2021-08-18T12:02:30Z</time>
      </trkpt>
      <trkpt lat="43.79025" lon="1.3219">
        <ele>109.73</ele>
        <time>2021-08-18T12:02:37Z</time>
      </trkpt>
      <trkpt lat="43.79019" lon="1.32192">
        <ele>109.73</ele>
        <time>2021-08-18T12:02:38Z</time>
      </trkpt>
      <trkpt lat="43.79014" lon="1.32192">
        <ele>109.73</ele>
        <time>2021-08-18T12:02:39Z</time>
      </trkpt>
      <trkpt lat="43.79008" lon="1.32189">
        <ele>109.73</ele>
        <time>2021-08-18T12:02:40Z</time>
      </trkpt>
      <trkpt lat="43.79004" lon="1.32184">
        <ele>109.73</ele>
        <time>2021-08-18T12:02:41Z</time>
      </trkpt>
      <trkpt lat="43.79001" lon="1.32178">
        <ele>109.73</ele>
        <time>2021-08-18T12:02:42Z</time>
      </trkpt>
      <trkpt lat="43.78999" lon="1.32172">
        <ele>109.73</ele>
        <time>2021-08-18T12:02:43Z</time>
      </trkpt>
      <trkpt lat="43.78997" lon="1.32166">
        <ele>109.73</ele>
        <time>2021-08-18T12:02:44Z</time>
      </trkpt>
      <trkpt lat="43.78993" lon="1.32154">
        <ele>109.73</ele>
        <time>2021-08-18T12:02:46Z</time>
      </trkpt>
      <trkpt lat="43.78976" lon="1.3211">
        <ele>109.73</ele>
        <time>2021-08-18T12:02:54Z</time>
      </trkpt>
      <trkpt lat="43.78949" lon="1.32049">
        <ele>109.73</ele>
        <time>2021-08-18T12:03:04Z</time>
      </trkpt>
      <trkpt lat="43.7892" lon="1.31985">
        <ele>109.73</ele>
        <time>2021-08-18T12:03:14Z</time>
      </trkpt>
      <trkpt lat="43.7891" lon="1.3196">
        <ele>109.73</ele>
        <time>2021-08-18T12:03:18Z</time>
      </trkpt>
      <trkpt lat="43.78895" lon="1.31928">
        <ele>109.73</ele>
        <time>2021-08-18T12:03:24Z</time>
      </trkpt>
      <trkpt lat="43.78877" lon="1.31884">
        <ele>109.73</ele>
        <time>2021-08-18T12:03:32Z</time>
      </trkpt>
      <trkpt lat="43.78852" lon="1.3183">
        <ele>109.73</ele>
        <time>2021-08-18T12:03:42Z</time>
      </trkpt>
      <trkpt lat="43.78847" lon="1.31821">
        <ele>109.73</ele>
        <time>2021-08-18T12:03:44Z</time>
      </trkpt>
      <trkpt lat="43.78838" lon="1.31806">
        <ele>111.17</ele>
        <time>2021-08-18T12:03:47Z</time>
      </trkpt>
      <trkpt lat="43.78804" lon="1.31754">
        <ele>109.73</ele>
        <time>2021-08-18T12:03:57Z</time>
      </trkpt>
      <trkpt lat="43.78766" lon="1.31692">
        <ele>109.73</ele>
        <time>2021-08-18T12:04:08Z</time>
      </trkpt>
      <trkpt lat="43.78729" lon="1.31636">
        <ele>109.73</ele>
        <time>2021-08-18T12:04:18Z</time>
      </trkpt>
      <trkpt lat="43.78696" lon="1.31585">
        <ele>109.25</ele>
        <time>2021-08-18T12:04:27Z</time>
      </trkpt>
      <trkpt lat="43.78662" lon="1.31545">
        <ele>109.25</ele>
        <time>2021-08-18T12:04:35Z</time>
      </trkpt>
      <trkpt lat="43.78658" lon="1.31541">
        <ele>109.25</ele>
        <time>2021-08-18T12:04:36Z</time>
      </trkpt>
      <trkpt lat="43.78654" lon="1.31537">
        <ele>109.25</ele>
        <time>2021-08-18T12:04:37Z</time>
      </trkpt>
      <trkpt lat="43.78631" lon="1.31515">
        <ele>109.25</ele>
        <time>2021-08-18T12:04:42Z</time>
      </trkpt>
      <trkpt lat="43.78626" lon="1.31511">
        <ele>109.25</ele>
        <time>2021-08-18T12:04:43Z</time>
      </trkpt>
      <trkpt lat="43.78593" lon="1.31467">
        <ele>110.69</ele>
        <time>2021-08-18T12:04:51Z</time>
      </trkpt>
      <trkpt lat="43.78569" lon="1.31432">
        <ele>110.69</ele>
        <time>2021-08-18T12:04:58Z</time>
      </trkpt>
      <trkpt lat="43.78528" lon="1.31371">
        <ele>110.69</ele>
        <time>2021-08-18T12:05:09Z</time>
      </trkpt>
      <trkpt lat="43.78491" lon="1.31314">
        <ele>110.69</ele>
        <time>2021-08-18T12:05:19Z</time>
      </trkpt>
      <trkpt lat="43.78454" lon="1.31256">
        <ele>110.69</ele>
        <time>2021-08-18T12:05:29Z</time>
      </trkpt>
      <trkpt lat="43.78446" lon="1.31244">
        <ele>110.69</ele>
        <time>2021-08-18T12:05:31Z</time>
      </trkpt>
      <trkpt lat="43.78411" lon="1.31194">
        <ele>110.69</ele>
        <time>2021-08-18T12:05:40Z</time>
      </trkpt>
      <trkpt lat="43.78375" lon="1.31136">
        <ele>110.69</ele>
        <time>2021-08-18T12:05:50Z</time>
      </trkpt>
      <trkpt lat="43.78339" lon="1.3107">
        <ele>110.69</ele>
        <time>2021-08-18T12:06:01Z</time>
      </trkpt>
      <trkpt lat="43.78304" lon="1.31004">
        <ele>111.17</ele>
        <time>2021-08-18T12:06:12Z</time>
      </trkpt>
      <trkpt lat="43.78291" lon="1.3098">
        <ele>110.21</ele>
        <time>2021-08-18T12:06:16Z</time>
      </trkpt>
      <trkpt lat="43.78268" lon="1.30929">
        <ele>110.21</ele>
        <time>2021-08-18T12:06:24Z</time>
      </trkpt>
      <trkpt lat="43.78245" lon="1.30878">
        <ele>110.21</ele>
        <time>2021-08-18T12:06:33Z</time>
      </trkpt>
      <trkpt lat="43.78243" lon="1.30874">
        <ele>110.21</ele>
        <time>2021-08-18T12:06:34Z</time>
      </trkpt>
      <trkpt lat="43.78241" lon="1.3087">
        <ele>110.21</ele>
        <time>2021-08-18T12:06:35Z</time>
      </trkpt>
      <trkpt lat="43.78234" lon="1.30856">
        <ele>111.17</ele>
        <time>2021-08-18T12:06:38Z</time>
      </trkpt>
      <trkpt lat="43.78232" lon="1.30851">
        <ele>111.17</ele>
        <time>2021-08-18T12:06:39Z</time>
      </trkpt>
      <trkpt lat="43.78219" lon="1.30824">
        <ele>111.17</ele>
        <time>2021-08-18T12:06:46Z</time>
      </trkpt>
      <trkpt lat="43.78216" lon="1.30825">
        <ele>111.17</ele>
        <time>2021-08-18T12:06:47Z</time>
      </trkpt>
      <trkpt lat="43.78195" lon="1.30833">
        <ele>111.17</ele>
        <time>2021-08-18T12:06:53Z</time>
      </trkpt>
      <trkpt lat="43.78185" lon="1.30837">
        <ele>111.17</ele>
        <time>2021-08-18T12:06:55Z</time>
      </trkpt>
      <trkpt lat="43.78181" lon="1.30839">
        <ele>111.17</ele>
        <time>2021-08-18T12:06:56Z</time>
      </trkpt>
      <trkpt lat="43.78134" lon="1.30854">
        <ele>111.17</ele>
        <time>2021-08-18T12:07:06Z</time>
      </trkpt>
      <trkpt lat="43.78099" lon="1.30865">
        <ele>111.17</ele>
        <time>2021-08-18T12:07:14Z</time>
      </trkpt>
      <trkpt lat="43.78095" lon="1.30866">
        <ele>111.17</ele>
        <time>2021-08-18T12:07:15Z</time>
      </trkpt>
      <trkpt lat="43.7809" lon="1.30867">
        <ele>111.17</ele>
        <time>2021-08-18T12:07:16Z</time>
      </trkpt>
      <trkpt lat="43.78066" lon="1.30866">
        <ele>111.17</ele>
        <time>2021-08-18T12:07:22Z</time>
      </trkpt>
      <trkpt lat="43.78062" lon="1.30862">
        <ele>111.17</ele>
        <time>2021-08-18T12:07:23Z</time>
      </trkpt>
      <trkpt lat="43.78061" lon="1.30857">
        <ele>111.17</ele>
        <time>2021-08-18T12:07:24Z</time>
      </trkpt>
      <trkpt lat="43.7806" lon="1.30852">
        <ele>111.17</ele>
        <time>2021-08-18T12:07:25Z</time>
      </trkpt>
      <trkpt lat="43.7806" lon="1.30846">
        <ele>111.17</ele>
        <time>2021-08-18T12:07:26Z</time>
      </trkpt>
      <trkpt lat="43.78059" lon="1.3084">
        <ele>111.17</ele>
        <time>2021-08-18T12:07:27Z</time>
      </trkpt>
      <trkpt lat="43.78057" lon="1.30834">
        <ele>109.73</ele>
        <time>2021-08-18T12:07:28Z</time>
      </trkpt>
      <trkpt lat="43.78055" lon="1.30829">
        <ele>109.73</ele>
        <time>2021-08-18T12:07:29Z</time>
      </trkpt>
      <trkpt lat="43.78051" lon="1.30824">
        <ele>109.73</ele>
        <time>2021-08-18T12:07:30Z</time>
      </trkpt>
      <trkpt lat="43.78048" lon="1.30819">
        <ele>109.25</ele>
        <time>2021-08-18T12:07:31Z</time>
      </trkpt>
      <trkpt lat="43.78026" lon="1.30793">
        <ele>109.25</ele>
        <time>2021-08-18T12:07:36Z</time>
      </trkpt>
      <trkpt lat="43.78022" lon="1.30788">
        <ele>109.25</ele>
        <time>2021-08-18T12:07:37Z</time>
      </trkpt>
      <trkpt lat="43.78019" lon="1.30782">
        <ele>109.25</ele>
        <time>2021-08-18T12:07:38Z</time>
      </trkpt>
      <trkpt lat="43.78017" lon="1.30775">
        <ele>109.25</ele>
        <time>2021-08-18T12:07:39Z</time>
      </trkpt>
      <trkpt lat="43.78015" lon="1.30769">
        <ele>109.25</ele>
        <time>2021-08-18T12:07:40Z</time>
      </trkpt>
      <trkpt lat="43.7801" lon="1.30757">
        <ele>109.25</ele>
        <time>2021-08-18T12:07:42Z</time>
      </trkpt>
      <trkpt lat="43.78007" lon="1.30753">
        <ele>109.25</ele>
        <time>2021-08-18T12:07:43Z</time>
      </trkpt>
      <trkpt lat="43.78004" lon="1.30749">
        <ele>110.69</ele>
        <time>2021-08-18T12:07:44Z</time>
      </trkpt>
      <trkpt lat="43.78" lon="1.30747">
        <ele>110.69</ele>
        <time>2021-08-18T12:07:45Z</time>
      </trkpt>
      <trkpt lat="43.77996" lon="1.30745">
        <ele>111.17</ele>
        <time>2021-08-18T12:07:46Z</time>
      </trkpt>
      <trkpt lat="43.77992" lon="1.30744">
        <ele>111.17</ele>
        <time>2021-08-18T12:07:47Z</time>
      </trkpt>
      <trkpt lat="43.77987" lon="1.30745">
        <ele>111.17</ele>
        <time>2021-08-18T12:07:48Z</time>
      </trkpt>
      <trkpt lat="43.77983" lon="1.30746">
        <ele>111.17</ele>
        <time>2021-08-18T12:07:49Z</time>
      </trkpt>
      <trkpt lat="43.77978" lon="1.30748">
        <ele>111.17</ele>
        <time>2021-08-18T12:07:50Z</time>
      </trkpt>
      <trkpt lat="43.7797" lon="1.30751">
        <ele>111.17</ele>
        <time>2021-08-18T12:07:52Z</time>
      </trkpt>
      <trkpt lat="43.77965" lon="1.30752">
        <ele>111.17</ele>
        <time>2021-08-18T12:07:53Z</time>
      </trkpt>
      <trkpt lat="43.7796" lon="1.30751">
        <ele>111.65</ele>
        <time>2021-08-18T12:07:54Z</time>
      </trkpt>
      <trkpt lat="43.77956" lon="1.3075">
        <ele>111.65</ele>
        <time>2021-08-18T12:07:55Z</time>
      </trkpt>
      <trkpt lat="43.77952" lon="1.30748">
        <ele>111.65</ele>
        <time>2021-08-18T12:07:56Z</time>
      </trkpt>
      <trkpt lat="43.77948" lon="1.30746">
        <ele>112.13</ele>
        <time>2021-08-18T12:07:57Z</time>
      </trkpt>
      <trkpt lat="43.77912" lon="1.30729">
        <ele>114.05</ele>
        <time>2021-08-18T12:08:07Z</time>
      </trkpt>
      <trkpt lat="43.77877" lon="1.30714">
        <ele>114.53</ele>
        <time>2021-08-18T12:08:15Z</time>
      </trkpt>
      <trkpt lat="43.77831" lon="1.30692">
        <ele>114.53</ele>
        <time>2021-08-18T12:08:25Z</time>
      </trkpt>
      <trkpt lat="43.77785" lon="1.3067">
        <ele>114.53</ele>
        <time>2021-08-18T12:08:34Z</time>
      </trkpt>
      <trkpt lat="43.77732" lon="1.30644">
        <ele>114.53</ele>
        <time>2021-08-18T12:08:44Z</time>
      </trkpt>
      <trkpt lat="43.77682" lon="1.3062">
        <ele>113.09</ele>
        <time>2021-08-18T12:08:53Z</time>
      </trkpt>
      <trkpt lat="43.77631" lon="1.30595">
        <ele>110.69</ele>
        <time>2021-08-18T12:09:01Z</time>
      </trkpt>
      <trkpt lat="43.77599" lon="1.3058">
        <ele>108.77</ele>
        <time>2021-08-18T12:09:05Z</time>
      </trkpt>
      <trkpt lat="43.77522" lon="1.30541">
        <ele>107.32</ele>
        <time>2021-08-18T12:09:15Z</time>
      </trkpt>
      <trkpt lat="43.77483" lon="1.30505">
        <ele>107.32</ele>
        <time>2021-08-18T12:09:22Z</time>
      </trkpt>
      <trkpt lat="43.77448" lon="1.30449">
        <ele>107.32</ele>
        <time>2021-08-18T12:09:30Z</time>
      </trkpt>
      <trkpt lat="43.7742" lon="1.30386">
        <ele>107.32</ele>
        <time>2021-08-18T12:09:38Z</time>
      </trkpt>
      <trkpt lat="43.77387" lon="1.30306">
        <ele>107.32</ele>
        <time>2021-08-18T12:09:48Z</time>
      </trkpt>
      <trkpt lat="43.77365" lon="1.30253">
        <ele>108.77</ele>
        <time>2021-08-18T12:09:55Z</time>
      </trkpt>
      <trkpt lat="43.77339" lon="1.30189">
        <ele>107.81</ele>
        <time>2021-08-18T12:10:03Z</time>
      </trkpt>
      <trkpt lat="43.77332" lon="1.30173">
        <ele>108.77</ele>
        <time>2021-08-18T12:10:05Z</time>
      </trkpt>
      <trkpt lat="43.77289" lon="1.30069">
        <ele>108.77</ele>
        <time>2021-08-18T12:10:18Z</time>
      </trkpt>
      <trkpt lat="43.7728" lon="1.30045">
        <ele>107.32</ele>
        <time>2021-08-18T12:10:21Z</time>
      </trkpt>
      <trkpt lat="43.77241" lon="1.29951">
        <ele>107.32</ele>
        <time>2021-08-18T12:10:33Z</time>
      </trkpt>
      <trkpt lat="43.772" lon="1.2985">
        <ele>107.32</ele>
        <time>2021-08-18T12:10:46Z</time>
      </trkpt>
      <trkpt lat="43.77197" lon="1.29842">
        <ele>107.32</ele>
        <time>2021-08-18T12:10:47Z</time>
      </trkpt>
      <trkpt lat="43.77191" lon="1.29827">
        <ele>107.32</ele>
        <time>2021-08-18T12:10:49Z</time>
      </trkpt>
      <trkpt lat="43.77189" lon="1.29819">
        <ele>107.32</ele>
        <time>2021-08-18T12:10:50Z</time>
      </trkpt>
      <trkpt lat="43.77189" lon="1.29811">
        <ele>107.32</ele>
        <time>2021-08-18T12:10:51Z</time>
      </trkpt>
      <trkpt lat="43.77189" lon="1.29803">
        <ele>107.32</ele>
        <time>2021-08-18T12:10:52Z</time>
      </trkpt>
      <trkpt lat="43.7719" lon="1.29796">
        <ele>107.32</ele>
        <time>2021-08-18T12:10:53Z</time>
      </trkpt>
      <trkpt lat="43.77192" lon="1.29789">
        <ele>107.32</ele>
        <time>2021-08-18T12:10:54Z</time>
      </trkpt>
      <trkpt lat="43.77194" lon="1.29783">
        <ele>107.32</ele>
        <time>2021-08-18T12:10:55Z</time>
      </trkpt>
      <trkpt lat="43.77196" lon="1.29778">
        <ele>107.32</ele>
        <time>2021-08-18T12:10:56Z</time>
      </trkpt>
      <trkpt lat="43.77198" lon="1.29772">
        <ele>107.32</ele>
        <time>2021-08-18T12:10:57Z</time>
      </trkpt>
      <trkpt lat="43.77194" lon="1.29747">
        <ele>108.77</ele>
        <time>2021-08-18T12:11:01Z</time>
      </trkpt>
      <trkpt lat="43.77189" lon="1.29737">
        <ele>109.25</ele>
        <time>2021-08-18T12:11:03Z</time>
      </trkpt>
      <trkpt lat="43.77171" lon="1.29719">
        <ele>110.69</ele>
        <time>2021-08-18T12:11:09Z</time>
      </trkpt>
      <trkpt lat="43.77159" lon="1.29719">
        <ele>111.17</ele>
        <time>2021-08-18T12:11:12Z</time>
      </trkpt>
      <trkpt lat="43.77154" lon="1.29717">
        <ele>111.17</ele>
        <time>2021-08-18T12:11:13Z</time>
      </trkpt>
      <trkpt lat="43.7715" lon="1.29716">
        <ele>111.17</ele>
        <time>2021-08-18T12:11:14Z</time>
      </trkpt>
      <trkpt lat="43.77146" lon="1.29712">
        <ele>111.17</ele>
        <time>2021-08-18T12:11:15Z</time>
      </trkpt>
      <trkpt lat="43.77144" lon="1.29709">
        <ele>111.17</ele>
        <time>2021-08-18T12:11:16Z</time>
      </trkpt>
      <trkpt lat="43.77141" lon="1.29704">
        <ele>111.17</ele>
        <time>2021-08-18T12:11:17Z</time>
      </trkpt>
      <trkpt lat="43.77139" lon="1.29701">
        <ele>111.65</ele>
        <time>2021-08-18T12:11:18Z</time>
      </trkpt>
      <trkpt lat="43.77128" lon="1.29668">
        <ele>113.09</ele>
        <time>2021-08-18T12:11:26Z</time>
      </trkpt>
      <trkpt lat="43.77118" lon="1.29639">
        <ele>114.05</ele>
        <time>2021-08-18T12:11:33Z</time>
      </trkpt>
      <trkpt lat="43.77107" lon="1.29611">
        <ele>115.01</ele>
        <time>2021-08-18T12:11:40Z</time>
      </trkpt>
      <trkpt lat="43.77088" lon="1.29574">
        <ele>115.98</ele>
        <time>2021-08-18T12:11:49Z</time>
      </trkpt>
      <trkpt lat="43.77073" lon="1.29538">
        <ele>116.46</ele>
        <time>2021-08-18T12:11:57Z</time>
      </trkpt>
      <trkpt lat="43.7707" lon="1.29529">
        <ele>116.46</ele>
        <time>2021-08-18T12:11:59Z</time>
      </trkpt>
      <trkpt lat="43.77071" lon="1.29524">
        <ele>116.46</ele>
        <time>2021-08-18T12:12:00Z</time>
      </trkpt>
      <trkpt lat="43.77073" lon="1.2952">
        <ele>116.46</ele>
        <time>2021-08-18T12:12:01Z</time>
      </trkpt>
      <trkpt lat="43.77075" lon="1.29518">
        <ele>116.46</ele>
        <time>2021-08-18T12:12:02Z</time>
      </trkpt>
      <trkpt lat="43.77079" lon="1.29515">
        <ele>116.46</ele>
        <time>2021-08-18T12:12:03Z</time>
      </trkpt>
      <trkpt lat="43.77082" lon="1.29512">
        <ele>116.46</ele>
        <time>2021-08-18T12:12:04Z</time>
      </trkpt>
      <trkpt lat="43.77114" lon="1.29483">
        <ele>116.46</ele>
        <time>2021-08-18T12:12:13Z</time>
      </trkpt>
      <trkpt lat="43.77149" lon="1.29452">
        <ele>116.46</ele>
        <time>2021-08-18T12:12:22Z</time>
      </trkpt>
      <trkpt lat="43.77156" lon="1.29447">
        <ele>116.46</ele>
        <time>2021-08-18T12:12:24Z</time>
      </trkpt>
      <trkpt lat="43.77158" lon="1.29443">
        <ele>116.46</ele>
        <time>2021-08-18T12:12:25Z</time>
      </trkpt>
      <trkpt lat="43.77161" lon="1.2944">
        <ele>116.46</ele>
        <time>2021-08-18T12:12:26Z</time>
      </trkpt>
      <trkpt lat="43.77164" lon="1.29436">
        <ele>116.46</ele>
        <time>2021-08-18T12:12:27Z</time>
      </trkpt>
      <trkpt lat="43.77168" lon="1.29433">
        <ele>116.46</ele>
        <time>2021-08-18T12:12:28Z</time>
      </trkpt>
      <trkpt lat="43.77179" lon="1.29423">
        <ele>116.46</ele>
        <time>2021-08-18T12:12:31Z</time>
      </trkpt>
      <trkpt lat="43.77183" lon="1.2942">
        <ele>116.46</ele>
        <time>2021-08-18T12:12:32Z</time>
      </trkpt>
      <trkpt lat="43.77209" lon="1.29397">
        <ele>116.46</ele>
        <time>2021-08-18T12:12:39Z</time>
      </trkpt>
      <trkpt lat="43.77239" lon="1.29377">
        <ele>116.46</ele>
        <time>2021-08-18T12:12:46Z</time>
      </trkpt>
      <trkpt lat="43.77243" lon="1.29373">
        <ele>116.46</ele>
        <time>2021-08-18T12:12:47Z</time>
      </trkpt>
      <trkpt lat="43.77247" lon="1.2937">
        <ele>116.46</ele>
        <time>2021-08-18T12:12:48Z</time>
      </trkpt>
      <trkpt lat="43.77275" lon="1.29347">
        <ele>116.46</ele>
        <time>2021-08-18T12:12:55Z</time>
      </trkpt>
      <trkpt lat="43.77279" lon="1.29343">
        <ele>116.46</ele>
        <time>2021-08-18T12:12:56Z</time>
      </trkpt>
      <trkpt lat="43.77283" lon="1.29339">
        <ele>116.46</ele>
        <time>2021-08-18T12:12:57Z</time>
      </trkpt>
      <trkpt lat="43.77307" lon="1.29318">
        <ele>116.46</ele>
        <time>2021-08-18T12:13:03Z</time>
      </trkpt>
      <trkpt lat="43.77334" lon="1.29294">
        <ele>116.46</ele>
        <time>2021-08-18T12:13:10Z</time>
      </trkpt>
      <trkpt lat="43.77338" lon="1.29291">
        <ele>116.46</ele>
        <time>2021-08-18T12:13:11Z</time>
      </trkpt>
      <trkpt lat="43.77341" lon="1.29287">
        <ele>116.46</ele>
        <time>2021-08-18T12:13:12Z</time>
      </trkpt>
      <trkpt lat="43.77343" lon="1.29284">
        <ele>116.46</ele>
        <time>2021-08-18T12:13:13Z</time>
      </trkpt>
      <trkpt lat="43.77343" lon="1.29279">
        <ele>116.46</ele>
        <time>2021-08-18T12:13:14Z</time>
      </trkpt>
      <trkpt lat="43.77342" lon="1.29274">
        <ele>116.46</ele>
        <time>2021-08-18T12:13:15Z</time>
      </trkpt>
      <trkpt lat="43.7734" lon="1.2927">
        <ele>116.46</ele>
        <time>2021-08-18T12:13:16Z</time>
      </trkpt>
      <trkpt lat="43.77338" lon="1.29266">
        <ele>116.46</ele>
        <time>2021-08-18T12:13:17Z</time>
      </trkpt>
      <trkpt lat="43.77331" lon="1.29252">
        <ele>115.5</ele>
        <time>2021-08-18T12:13:20Z</time>
      </trkpt>
      <trkpt lat="43.77317" lon="1.29221">
        <ele>115.01</ele>
        <time>2021-08-18T12:13:27Z</time>
      </trkpt>
      <trkpt lat="43.77305" lon="1.29196">
        <ele>115.01</ele>
        <time>2021-08-18T12:13:32Z</time>
      </trkpt>
      <trkpt lat="43.77286" lon="1.29157">
        <ele>114.53</ele>
        <time>2021-08-18T12:13:40Z</time>
      </trkpt>
      <trkpt lat="43.77283" lon="1.29156">
        <ele>114.53</ele>
        <time>2021-08-18T12:13:41Z</time>
      </trkpt>
      <trkpt lat="43.7728" lon="1.29157">
        <ele>114.53</ele>
        <time>2021-08-18T12:13:42Z</time>
      </trkpt>
      <trkpt lat="43.77277" lon="1.29159">
        <ele>114.53</ele>
        <time>2021-08-18T12:13:43Z</time>
      </trkpt>
      <trkpt lat="43.77274" lon="1.29163">
        <ele>114.53</ele>
        <time>2021-08-18T12:13:44Z</time>
      </trkpt>
      <trkpt lat="43.77271" lon="1.29166">
        <ele>114.53</ele>
        <time>2021-08-18T12:13:45Z</time>
      </trkpt>
      <trkpt lat="43.77268" lon="1.2917">
        <ele>114.53</ele>
        <time>2021-08-18T12:13:46Z</time>
      </trkpt>
      <trkpt lat="43.77264" lon="1.29173">
        <ele>114.53</ele>
        <time>2021-08-18T12:13:47Z</time>
      </trkpt>
      <trkpt lat="43.77234" lon="1.29197">
        <ele>114.53</ele>
        <time>2021-08-18T12:13:55Z</time>
      </trkpt>
      <trkpt lat="43.77213" lon="1.29218">
        <ele>116.46</ele>
        <time>2021-08-18T12:14:02Z</time>
      </trkpt>
      <trkpt lat="43.77184" lon="1.29243">
        <ele>116.94</ele>
        <time>2021-08-18T12:14:10Z</time>
      </trkpt>
      <trkpt lat="43.77165" lon="1.29257">
        <ele>117.42</ele>
        <time>2021-08-18T12:14:17Z</time>
      </trkpt>
      <trkpt lat="43.77148" lon="1.29273">
        <ele>117.9</ele>
        <time>2021-08-18T12:14:23Z</time>
      </trkpt>
      <trkpt lat="43.77123" lon="1.29298">
        <ele>118.38</ele>
        <time>2021-08-18T12:14:31Z</time>
      </trkpt>
      <trkpt lat="43.77104" lon="1.29313">
        <ele>117.9</ele>
        <time>2021-08-18T12:14:37Z</time>
      </trkpt>
      <trkpt lat="43.77084" lon="1.29326">
        <ele>117.9</ele>
        <time>2021-08-18T12:14:43Z</time>
      </trkpt>
      <trkpt lat="43.77046" lon="1.29354">
        <ele>117.9</ele>
        <time>2021-08-18T12:14:52Z</time>
      </trkpt>
      <trkpt lat="43.77017" lon="1.29376">
        <ele>118.38</ele>
        <time>2021-08-18T12:15:00Z</time>
      </trkpt>
      <trkpt lat="43.77005" lon="1.29384">
        <ele>118.38</ele>
        <time>2021-08-18T12:15:04Z</time>
      </trkpt>
      <trkpt lat="43.77002" lon="1.29382">
        <ele>116.94</ele>
        <time>2021-08-18T12:15:05Z</time>
      </trkpt>
      <trkpt lat="43.77" lon="1.29378">
        <ele>116.94</ele>
        <time>2021-08-18T12:15:06Z</time>
      </trkpt>
      <trkpt lat="43.76998" lon="1.29375">
        <ele>116.94</ele>
        <time>2021-08-18T12:15:07Z</time>
      </trkpt>
      <trkpt lat="43.76996" lon="1.2937">
        <ele>116.94</ele>
        <time>2021-08-18T12:15:08Z</time>
      </trkpt>
      <trkpt lat="43.76979" lon="1.29329">
        <ele>116.46</ele>
        <time>2021-08-18T12:15:16Z</time>
      </trkpt>
      <trkpt lat="43.76975" lon="1.29318">
        <ele>115.98</ele>
        <time>2021-08-18T12:15:18Z</time>
      </trkpt>
      <trkpt lat="43.76972" lon="1.29313">
        <ele>115.98</ele>
        <time>2021-08-18T12:15:19Z</time>
      </trkpt>
      <trkpt lat="43.7697" lon="1.29307">
        <ele>115.98</ele>
        <time>2021-08-18T12:15:20Z</time>
      </trkpt>
      <trkpt lat="43.76948" lon="1.2925">
        <ele>115.01</ele>
        <time>2021-08-18T12:15:29Z</time>
      </trkpt>
      <trkpt lat="43.76946" lon="1.29244">
        <ele>115.01</ele>
        <time>2021-08-18T12:15:30Z</time>
      </trkpt>
      <trkpt lat="43.76945" lon="1.29238">
        <ele>115.01</ele>
        <time>2021-08-18T12:15:31Z</time>
      </trkpt>
      <trkpt lat="43.76946" lon="1.29231">
        <ele>115.01</ele>
        <time>2021-08-18T12:15:32Z</time>
      </trkpt>
      <trkpt lat="43.76948" lon="1.29225">
        <ele>115.01</ele>
        <time>2021-08-18T12:15:33Z</time>
      </trkpt>
      <trkpt lat="43.76951" lon="1.29219">
        <ele>114.53</ele>
        <time>2021-08-18T12:15:34Z</time>
      </trkpt>
      <trkpt lat="43.76953" lon="1.29213">
        <ele>114.53</ele>
        <time>2021-08-18T12:15:35Z</time>
      </trkpt>
      <trkpt lat="43.76956" lon="1.29208">
        <ele>114.53</ele>
        <time>2021-08-18T12:15:36Z</time>
      </trkpt>
      <trkpt lat="43.76959" lon="1.29204">
        <ele>114.53</ele>
        <time>2021-08-18T12:15:37Z</time>
      </trkpt>
      <trkpt lat="43.76968" lon="1.29188">
        <ele>114.53</ele>
        <time>2021-08-18T12:15:41Z</time>
      </trkpt>
      <trkpt lat="43.76979" lon="1.29175">
        <ele>114.53</ele>
        <time>2021-08-18T12:15:47Z</time>
      </trkpt>
      <trkpt lat="43.76985" lon="1.2916">
        <ele>114.53</ele>
        <time>2021-08-18T12:15:53Z</time>
      </trkpt>
      <trkpt lat="43.76985" lon="1.29157">
        <ele>114.53</ele>
        <time>2021-08-18T12:15:54Z</time>
      </trkpt>
      <trkpt lat="43.76982" lon="1.29157">
        <ele>114.53</ele>
        <time>2021-08-18T12:15:56Z</time>
      </trkpt>
      <trkpt lat="43.7698" lon="1.2916">
        <ele>114.05</ele>
        <time>2021-08-18T12:15:57Z</time>
      </trkpt>
      <trkpt lat="43.76979" lon="1.29164">
        <ele>114.05</ele>
        <time>2021-08-18T12:15:58Z</time>
      </trkpt>
      <trkpt lat="43.76963" lon="1.29189">
        <ele>114.05</ele>
        <time>2021-08-18T12:16:05Z</time>
      </trkpt>
      <trkpt lat="43.76947" lon="1.29211">
        <ele>115.5</ele>
        <time>2021-08-18T12:16:11Z</time>
      </trkpt>
      <trkpt lat="43.76935" lon="1.29213">
        <ele>115.5</ele>
        <time>2021-08-18T12:16:16Z</time>
      </trkpt>
      <trkpt lat="43.76933" lon="1.29208">
        <ele>115.5</ele>
        <time>2021-08-18T12:16:17Z</time>
      </trkpt>
      <trkpt lat="43.76931" lon="1.29204">
        <ele>115.98</ele>
        <time>2021-08-18T12:16:18Z</time>
      </trkpt>
      <trkpt lat="43.7693" lon="1.292">
        <ele>115.98</ele>
        <time>2021-08-18T12:16:19Z</time>
      </trkpt>
      <trkpt lat="43.76929" lon="1.29194">
        <ele>115.98</ele>
        <time>2021-08-18T12:16:20Z</time>
      </trkpt>
      <trkpt lat="43.76926" lon="1.29183">
        <ele>115.98</ele>
        <time>2021-08-18T12:16:22Z</time>
      </trkpt>
      <trkpt lat="43.76925" lon="1.29178">
        <ele>115.98</ele>
        <time>2021-08-18T12:16:23Z</time>
      </trkpt>
      <trkpt lat="43.76921" lon="1.29168">
        <ele>115.98</ele>
        <time>2021-08-18T12:16:25Z</time>
      </trkpt>
      <trkpt lat="43.76918" lon="1.29163">
        <ele>115.98</ele>
        <time>2021-08-18T12:16:26Z</time>
      </trkpt>
      <trkpt lat="43.76915" lon="1.29159">
        <ele>115.98</ele>
        <time>2021-08-18T12:16:27Z</time>
      </trkpt>
      <trkpt lat="43.76912" lon="1.29157">
        <ele>115.98</ele>
        <time>2021-08-18T12:16:28Z</time>
      </trkpt>
      <trkpt lat="43.76907" lon="1.29155">
        <ele>115.98</ele>
        <time>2021-08-18T12:16:29Z</time>
      </trkpt>
      <trkpt lat="43.76902" lon="1.29154">
        <ele>115.98</ele>
        <time>2021-08-18T12:16:30Z</time>
      </trkpt>
      <trkpt lat="43.76898" lon="1.29153">
        <ele>115.98</ele>
        <time>2021-08-18T12:16:31Z</time>
      </trkpt>
      <trkpt lat="43.76893" lon="1.29152">
        <ele>115.98</ele>
        <time>2021-08-18T12:16:32Z</time>
      </trkpt>
      <trkpt lat="43.76864" lon="1.29139">
        <ele>115.98</ele>
        <time>2021-08-18T12:16:38Z</time>
      </trkpt>
      <trkpt lat="43.76859" lon="1.29136">
        <ele>115.98</ele>
        <time>2021-08-18T12:16:39Z</time>
      </trkpt>
      <trkpt lat="43.76833" lon="1.29123">
        <ele>116.46</ele>
        <time>2021-08-18T12:16:44Z</time>
      </trkpt>
      <trkpt lat="43.76828" lon="1.29122">
        <ele>116.46</ele>
        <time>2021-08-18T12:16:45Z</time>
      </trkpt>
      <trkpt lat="43.76823" lon="1.29121">
        <ele>116.46</ele>
        <time>2021-08-18T12:16:46Z</time>
      </trkpt>
      <trkpt lat="43.76817" lon="1.2912">
        <ele>116.46</ele>
        <time>2021-08-18T12:16:47Z</time>
      </trkpt>
      <trkpt lat="43.76812" lon="1.2912">
        <ele>116.46</ele>
        <time>2021-08-18T12:16:48Z</time>
      </trkpt>
      <trkpt lat="43.76776" lon="1.29121">
        <ele>117.9</ele>
        <time>2021-08-18T12:16:56Z</time>
      </trkpt>
      <trkpt lat="43.76758" lon="1.29122">
        <ele>119.82</ele>
        <time>2021-08-18T12:17:02Z</time>
      </trkpt>
      <trkpt lat="43.76732" lon="1.29115">
        <ele>121.74</ele>
        <time>2021-08-18T12:17:11Z</time>
      </trkpt>
      <trkpt lat="43.76703" lon="1.29102">
        <ele>123.67</ele>
        <time>2021-08-18T12:17:20Z</time>
      </trkpt>
      <trkpt lat="43.76686" lon="1.29088">
        <ele>124.15</ele>
        <time>2021-08-18T12:17:25Z</time>
      </trkpt>
      <trkpt lat="43.76679" lon="1.29082">
        <ele>123.67</ele>
        <time>2021-08-18T12:17:27Z</time>
      </trkpt>
      <trkpt lat="43.76647" lon="1.29042">
        <ele>124.63</ele>
        <time>2021-08-18T12:17:36Z</time>
      </trkpt>
      <trkpt lat="43.76618" lon="1.28999">
        <ele>124.63</ele>
        <time>2021-08-18T12:17:44Z</time>
      </trkpt>
      <trkpt lat="43.76589" lon="1.28976">
        <ele>124.63</ele>
        <time>2021-08-18T12:17:50Z</time>
      </trkpt>
      <trkpt lat="43.7656" lon="1.28964">
        <ele>123.19</ele>
        <time>2021-08-18T12:17:55Z</time>
      </trkpt>
      <trkpt lat="43.76506" lon="1.28948">
        <ele>123.19</ele>
        <time>2021-08-18T12:18:04Z</time>
      </trkpt>
      <trkpt lat="43.76477" lon="1.2895">
        <ele>123.19</ele>
        <time>2021-08-18T12:18:09Z</time>
      </trkpt>
      <trkpt lat="43.76471" lon="1.2895">
        <ele>123.19</ele>
        <time>2021-08-18T12:18:10Z</time>
      </trkpt>
      <trkpt lat="43.76414" lon="1.2894">
        <ele>123.19</ele>
        <time>2021-08-18T12:18:19Z</time>
      </trkpt>
      <trkpt lat="43.76407" lon="1.28939">
        <ele>123.19</ele>
        <time>2021-08-18T12:18:20Z</time>
      </trkpt>
      <trkpt lat="43.76396" lon="1.28938">
        <ele>123.19</ele>
        <time>2021-08-18T12:18:22Z</time>
      </trkpt>
      <trkpt lat="43.76389" lon="1.28937">
        <ele>123.19</ele>
        <time>2021-08-18T12:18:23Z</time>
      </trkpt>
      <trkpt lat="43.76383" lon="1.28936">
        <ele>123.19</ele>
        <time>2021-08-18T12:18:24Z</time>
      </trkpt>
      <trkpt lat="43.76378" lon="1.28936">
        <ele>123.19</ele>
        <time>2021-08-18T12:18:25Z</time>
      </trkpt>
      <trkpt lat="43.76373" lon="1.28935">
        <ele>124.63</ele>
        <time>2021-08-18T12:18:26Z</time>
      </trkpt>
      <trkpt lat="43.76326" lon="1.28928">
        <ele>126.07</ele>
        <time>2021-08-18T12:18:35Z</time>
      </trkpt>
      <trkpt lat="43.76286" lon="1.28921">
        <ele>125.59</ele>
        <time>2021-08-18T12:18:42Z</time>
      </trkpt>
      <trkpt lat="43.76239" lon="1.28912">
        <ele>125.59</ele>
        <time>2021-08-18T12:18:51Z</time>
      </trkpt>
      <trkpt lat="43.76206" lon="1.28905">
        <ele>125.59</ele>
        <time>2021-08-18T12:18:57Z</time>
      </trkpt>
      <trkpt lat="43.76189" lon="1.28902">
        <ele>124.63</ele>
        <time>2021-08-18T12:19:00Z</time>
      </trkpt>
      <trkpt lat="43.76142" lon="1.28891">
        <ele>124.63</ele>
        <time>2021-08-18T12:19:08Z</time>
      </trkpt>
      <trkpt lat="43.76082" lon="1.28874">
        <ele>124.63</ele>
        <time>2021-08-18T12:19:18Z</time>
      </trkpt>
      <trkpt lat="43.76028" lon="1.28858">
        <ele>124.63</ele>
        <time>2021-08-18T12:19:27Z</time>
      </trkpt>
      <trkpt lat="43.76016" lon="1.28854">
        <ele>124.63</ele>
        <time>2021-08-18T12:19:29Z</time>
      </trkpt>
      <trkpt lat="43.76004" lon="1.2885">
        <ele>125.59</ele>
        <time>2021-08-18T12:19:31Z</time>
      </trkpt>
      <trkpt lat="43.75981" lon="1.28844">
        <ele>126.07</ele>
        <time>2021-08-18T12:19:35Z</time>
      </trkpt>
      <trkpt lat="43.75976" lon="1.28842">
        <ele>126.07</ele>
        <time>2021-08-18T12:19:36Z</time>
      </trkpt>
      <trkpt lat="43.75961" lon="1.28838">
        <ele>126.07</ele>
        <time>2021-08-18T12:19:39Z</time>
      </trkpt>
      <trkpt lat="43.75937" lon="1.28832">
        <ele>126.07</ele>
        <time>2021-08-18T12:19:45Z</time>
      </trkpt>
      <trkpt lat="43.75933" lon="1.2883">
        <ele>126.07</ele>
        <time>2021-08-18T12:19:46Z</time>
      </trkpt>
      <trkpt lat="43.75929" lon="1.2883">
        <ele>126.07</ele>
        <time>2021-08-18T12:19:47Z</time>
      </trkpt>
      <trkpt lat="43.75925" lon="1.2883">
        <ele>126.07</ele>
        <time>2021-08-18T12:19:48Z</time>
      </trkpt>
      <trkpt lat="43.75917" lon="1.28829">
        <ele>126.07</ele>
        <time>2021-08-18T12:19:50Z</time>
      </trkpt>
      <trkpt lat="43.75907" lon="1.28827">
        <ele>126.07</ele>
        <time>2021-08-18T12:19:52Z</time>
      </trkpt>
      <trkpt lat="43.75901" lon="1.28827">
        <ele>126.07</ele>
        <time>2021-08-18T12:19:53Z</time>
      </trkpt>
      <trkpt lat="43.75879" lon="1.28829">
        <ele>126.07</ele>
        <time>2021-08-18T12:19:57Z</time>
      </trkpt>
      <trkpt lat="43.75873" lon="1.28829">
        <ele>126.07</ele>
        <time>2021-08-18T12:19:58Z</time>
      </trkpt>
      <trkpt lat="43.75848" lon="1.28822">
        <ele>126.07</ele>
        <time>2021-08-18T12:20:03Z</time>
      </trkpt>
      <trkpt lat="43.75843" lon="1.28819">
        <ele>126.07</ele>
        <time>2021-08-18T12:20:04Z</time>
      </trkpt>
      <trkpt lat="43.75839" lon="1.28817">
        <ele>126.07</ele>
        <time>2021-08-18T12:20:05Z</time>
      </trkpt>
      <trkpt lat="43.75833" lon="1.28816">
        <ele>126.07</ele>
        <time>2021-08-18T12:20:06Z</time>
      </trkpt>
      <trkpt lat="43.75828" lon="1.28816">
        <ele>124.63</ele>
        <time>2021-08-18T12:20:07Z</time>
      </trkpt>
      <trkpt lat="43.75823" lon="1.28817">
        <ele>124.63</ele>
        <time>2021-08-18T12:20:08Z</time>
      </trkpt>
      <trkpt lat="43.75818" lon="1.28819">
        <ele>124.63</ele>
        <time>2021-08-18T12:20:09Z</time>
      </trkpt>
      <trkpt lat="43.75813" lon="1.28822">
        <ele>124.63</ele>
        <time>2021-08-18T12:20:10Z</time>
      </trkpt>
      <trkpt lat="43.75809" lon="1.28824">
        <ele>124.63</ele>
        <time>2021-08-18T12:20:11Z</time>
      </trkpt>
      <trkpt lat="43.758" lon="1.28829">
        <ele>124.63</ele>
        <time>2021-08-18T12:20:13Z</time>
      </trkpt>
      <trkpt lat="43.7578" lon="1.28845">
        <ele>124.63</ele>
        <time>2021-08-18T12:20:18Z</time>
      </trkpt>
      <trkpt lat="43.75776" lon="1.28848">
        <ele>124.63</ele>
        <time>2021-08-18T12:20:19Z</time>
      </trkpt>
      <trkpt lat="43.75771" lon="1.2885">
        <ele>124.63</ele>
        <time>2021-08-18T12:20:20Z</time>
      </trkpt>
      <trkpt lat="43.75767" lon="1.28852">
        <ele>124.63</ele>
        <time>2021-08-18T12:20:21Z</time>
      </trkpt>
      <trkpt lat="43.75762" lon="1.28855">
        <ele>124.63</ele>
        <time>2021-08-18T12:20:22Z</time>
      </trkpt>
      <trkpt lat="43.75741" lon="1.28863">
        <ele>124.63</ele>
        <time>2021-08-18T12:20:26Z</time>
      </trkpt>
      <trkpt lat="43.75737" lon="1.28865">
        <ele>124.63</ele>
        <time>2021-08-18T12:20:27Z</time>
      </trkpt>
      <trkpt lat="43.75713" lon="1.28875">
        <ele>124.63</ele>
        <time>2021-08-18T12:20:32Z</time>
      </trkpt>
      <trkpt lat="43.75708" lon="1.28877">
        <ele>124.63</ele>
        <time>2021-08-18T12:20:33Z</time>
      </trkpt>
      <trkpt lat="43.75704" lon="1.28878">
        <ele>124.63</ele>
        <time>2021-08-18T12:20:34Z</time>
      </trkpt>
      <trkpt lat="43.75695" lon="1.2888">
        <ele>126.07</ele>
        <time>2021-08-18T12:20:36Z</time>
      </trkpt>
      <trkpt lat="43.7569" lon="1.28883">
        <ele>126.07</ele>
        <time>2021-08-18T12:20:37Z</time>
      </trkpt>
      <trkpt lat="43.75686" lon="1.28885">
        <ele>126.07</ele>
        <time>2021-08-18T12:20:38Z</time>
      </trkpt>
      <trkpt lat="43.75682" lon="1.28886">
        <ele>126.07</ele>
        <time>2021-08-18T12:20:39Z</time>
      </trkpt>
      <trkpt lat="43.75677" lon="1.28888">
        <ele>126.07</ele>
        <time>2021-08-18T12:20:40Z</time>
      </trkpt>
      <trkpt lat="43.75657" lon="1.28891">
        <ele>126.55</ele>
        <time>2021-08-18T12:20:44Z</time>
      </trkpt>
      <trkpt lat="43.75652" lon="1.28889">
        <ele>126.55</ele>
        <time>2021-08-18T12:20:45Z</time>
      </trkpt>
      <trkpt lat="43.75647" lon="1.28887">
        <ele>126.55</ele>
        <time>2021-08-18T12:20:46Z</time>
      </trkpt>
      <trkpt lat="43.75642" lon="1.28882">
        <ele>126.55</ele>
        <time>2021-08-18T12:20:47Z</time>
      </trkpt>
      <trkpt lat="43.75638" lon="1.28877">
        <ele>126.55</ele>
        <time>2021-08-18T12:20:48Z</time>
      </trkpt>
      <trkpt lat="43.75634" lon="1.28871">
        <ele>126.55</ele>
        <time>2021-08-18T12:20:49Z</time>
      </trkpt>
      <trkpt lat="43.7563" lon="1.28865">
        <ele>126.55</ele>
        <time>2021-08-18T12:20:50Z</time>
      </trkpt>
      <trkpt lat="43.75617" lon="1.2884">
        <ele>126.55</ele>
        <time>2021-08-18T12:20:54Z</time>
      </trkpt>
      <trkpt lat="43.75614" lon="1.28835">
        <ele>126.55</ele>
        <time>2021-08-18T12:20:55Z</time>
      </trkpt>
      <trkpt lat="43.75608" lon="1.28824">
        <ele>126.55</ele>
        <time>2021-08-18T12:20:57Z</time>
      </trkpt>
      <trkpt lat="43.75578" lon="1.2877">
        <ele>126.55</ele>
        <time>2021-08-18T12:21:06Z</time>
      </trkpt>
      <trkpt lat="43.75569" lon="1.28756">
        <ele>126.55</ele>
        <time>2021-08-18T12:21:09Z</time>
      </trkpt>
      <trkpt lat="43.75546" lon="1.28718">
        <ele>127.03</ele>
        <time>2021-08-18T12:21:16Z</time>
      </trkpt>
      <trkpt lat="43.7554" lon="1.28708">
        <ele>127.03</ele>
        <time>2021-08-18T12:21:18Z</time>
      </trkpt>
      <trkpt lat="43.75509" lon="1.28666">
        <ele>127.51</ele>
        <time>2021-08-18T12:21:26Z</time>
      </trkpt>
      <trkpt lat="43.75474" lon="1.28619">
        <ele>128.95</ele>
        <time>2021-08-18T12:21:35Z</time>
      </trkpt>
      <trkpt lat="43.75445" lon="1.28577">
        <ele>129.43</ele>
        <time>2021-08-18T12:21:44Z</time>
      </trkpt>
      <trkpt lat="43.75442" lon="1.28573">
        <ele>129.43</ele>
        <time>2021-08-18T12:21:45Z</time>
      </trkpt>
      <trkpt lat="43.7544" lon="1.28568">
        <ele>129.43</ele>
        <time>2021-08-18T12:21:46Z</time>
      </trkpt>
      <trkpt lat="43.75433" lon="1.28557">
        <ele>129.92</ele>
        <time>2021-08-18T12:21:49Z</time>
      </trkpt>
      <trkpt lat="43.7543" lon="1.28555">
        <ele>129.92</ele>
        <time>2021-08-18T12:21:50Z</time>
      </trkpt>
      <trkpt lat="43.75426" lon="1.28554">
        <ele>129.92</ele>
        <time>2021-08-18T12:21:51Z</time>
      </trkpt>
      <trkpt lat="43.75421" lon="1.28555">
        <ele>129.92</ele>
        <time>2021-08-18T12:21:52Z</time>
      </trkpt>
      <trkpt lat="43.75417" lon="1.28555">
        <ele>129.92</ele>
        <time>2021-08-18T12:21:53Z</time>
      </trkpt>
      <trkpt lat="43.75413" lon="1.28556">
        <ele>130.4</ele>
        <time>2021-08-18T12:21:54Z</time>
      </trkpt>
      <trkpt lat="43.75408" lon="1.28557">
        <ele>130.4</ele>
        <time>2021-08-18T12:21:55Z</time>
      </trkpt>
      <trkpt lat="43.75365" lon="1.28561">
        <ele>130.4</ele>
        <time>2021-08-18T12:22:03Z</time>
      </trkpt>
      <trkpt lat="43.75323" lon="1.28564">
        <ele>130.4</ele>
        <time>2021-08-18T12:22:10Z</time>
      </trkpt>
      <trkpt lat="43.75272" lon="1.28567">
        <ele>130.4</ele>
        <time>2021-08-18T12:22:18Z</time>
      </trkpt>
      <trkpt lat="43.75194" lon="1.28572">
        <ele>130.4</ele>
        <time>2021-08-18T12:22:30Z</time>
      </trkpt>
      <trkpt lat="43.75115" lon="1.28577">
        <ele>130.4</ele>
        <time>2021-08-18T12:22:42Z</time>
      </trkpt>
      <trkpt lat="43.75042" lon="1.28582">
        <ele>130.4</ele>
        <time>2021-08-18T12:22:53Z</time>
      </trkpt>
      <trkpt lat="43.74978" lon="1.28573">
        <ele>130.4</ele>
        <time>2021-08-18T12:23:03Z</time>
      </trkpt>
      <trkpt lat="43.74909" lon="1.28555">
        <ele>130.4</ele>
        <time>2021-08-18T12:23:14Z</time>
      </trkpt>
      <trkpt lat="43.74832" lon="1.28536">
        <ele>130.88</ele>
        <time>2021-08-18T12:23:26Z</time>
      </trkpt>
      <trkpt lat="43.74762" lon="1.2852">
        <ele>130.88</ele>
        <time>2021-08-18T12:23:37Z</time>
      </trkpt>
      <trkpt lat="43.74706" lon="1.28507">
        <ele>130.88</ele>
        <time>2021-08-18T12:23:46Z</time>
      </trkpt>
      <trkpt lat="43.74649" lon="1.28492">
        <ele>130.88</ele>
        <time>2021-08-18T12:23:55Z</time>
      </trkpt>
      <trkpt lat="43.74587" lon="1.28473">
        <ele>130.88</ele>
        <time>2021-08-18T12:24:05Z</time>
      </trkpt>
      <trkpt lat="43.74532" lon="1.28467">
        <ele>131.36</ele>
        <time>2021-08-18T12:24:14Z</time>
      </trkpt>
      <trkpt lat="43.74477" lon="1.2847">
        <ele>131.84</ele>
        <time>2021-08-18T12:24:23Z</time>
      </trkpt>
      <trkpt lat="43.74404" lon="1.28479">
        <ele>131.84</ele>
        <time>2021-08-18T12:24:34Z</time>
      </trkpt>
      <trkpt lat="43.74353" lon="1.285">
        <ele>131.84</ele>
        <time>2021-08-18T12:24:42Z</time>
      </trkpt>
      <trkpt lat="43.74286" lon="1.28543">
        <ele>131.36</ele>
        <time>2021-08-18T12:24:53Z</time>
      </trkpt>
      <trkpt lat="43.74247" lon="1.28583">
        <ele>131.84</ele>
        <time>2021-08-18T12:25:00Z</time>
      </trkpt>
      <trkpt lat="43.74207" lon="1.28627">
        <ele>131.84</ele>
        <time>2021-08-18T12:25:07Z</time>
      </trkpt>
      <trkpt lat="43.74164" lon="1.28676">
        <ele>132.8</ele>
        <time>2021-08-18T12:25:15Z</time>
      </trkpt>
      <trkpt lat="43.74159" lon="1.28682">
        <ele>132.8</ele>
        <time>2021-08-18T12:25:16Z</time>
      </trkpt>
      <trkpt lat="43.74109" lon="1.28735">
        <ele>132.32</ele>
        <time>2021-08-18T12:25:25Z</time>
      </trkpt>
      <trkpt lat="43.74053" lon="1.28779">
        <ele>132.32</ele>
        <time>2021-08-18T12:25:34Z</time>
      </trkpt>
      <trkpt lat="43.73978" lon="1.28834">
        <ele>132.8</ele>
        <time>2021-08-18T12:25:46Z</time>
      </trkpt>
      <trkpt lat="43.73913" lon="1.28886">
        <ele>132.8</ele>
        <time>2021-08-18T12:25:57Z</time>
      </trkpt>
      <trkpt lat="43.73875" lon="1.28922">
        <ele>133.28</ele>
        <time>2021-08-18T12:26:04Z</time>
      </trkpt>
      <trkpt lat="43.73817" lon="1.28969">
        <ele>133.76</ele>
        <time>2021-08-18T12:26:14Z</time>
      </trkpt>
      <trkpt lat="43.73763" lon="1.28999">
        <ele>133.76</ele>
        <time>2021-08-18T12:26:23Z</time>
      </trkpt>
      <trkpt lat="43.73705" lon="1.29012">
        <ele>134.24</ele>
        <time>2021-08-18T12:26:32Z</time>
      </trkpt>
      <trkpt lat="43.73648" lon="1.29009">
        <ele>135.2</ele>
        <time>2021-08-18T12:26:41Z</time>
      </trkpt>
      <trkpt lat="43.73586" lon="1.29003">
        <ele>135.2</ele>
        <time>2021-08-18T12:26:51Z</time>
      </trkpt>
      <trkpt lat="43.73517" lon="1.28998">
        <ele>136.16</ele>
        <time>2021-08-18T12:27:02Z</time>
      </trkpt>
      <trkpt lat="43.73462" lon="1.28992">
        <ele>136.64</ele>
        <time>2021-08-18T12:27:11Z</time>
      </trkpt>
      <trkpt lat="43.73416" lon="1.28994">
        <ele>138.09</ele>
        <time>2021-08-18T12:27:19Z</time>
      </trkpt>
      <trkpt lat="43.734" lon="1.28997">
        <ele>138.57</ele>
        <time>2021-08-18T12:27:22Z</time>
      </trkpt>
      <trkpt lat="43.73395" lon="1.28999">
        <ele>138.57</ele>
        <time>2021-08-18T12:27:23Z</time>
      </trkpt>
      <trkpt lat="43.73349" lon="1.29026">
        <ele>139.05</ele>
        <time>2021-08-18T12:27:32Z</time>
      </trkpt>
      <trkpt lat="43.73297" lon="1.29064">
        <ele>139.53</ele>
        <time>2021-08-18T12:27:42Z</time>
      </trkpt>
      <trkpt lat="43.73256" lon="1.29091">
        <ele>140.01</ele>
        <time>2021-08-18T12:27:50Z</time>
      </trkpt>
      <trkpt lat="43.7325" lon="1.29095">
        <ele>140.01</ele>
        <time>2021-08-18T12:27:51Z</time>
      </trkpt>
      <trkpt lat="43.73201" lon="1.2912">
        <ele>140.49</ele>
        <time>2021-08-18T12:28:00Z</time>
      </trkpt>
      <trkpt lat="43.73157" lon="1.29148">
        <ele>141.45</ele>
        <time>2021-08-18T12:28:09Z</time>
      </trkpt>
      <trkpt lat="43.73127" lon="1.29174">
        <ele>141.45</ele>
        <time>2021-08-18T12:28:16Z</time>
      </trkpt>
      <trkpt lat="43.7309" lon="1.29219">
        <ele>141.93</ele>
        <time>2021-08-18T12:28:25Z</time>
      </trkpt>
      <trkpt lat="43.73074" lon="1.29238">
        <ele>140.49</ele>
        <time>2021-08-18T12:28:29Z</time>
      </trkpt>
      <trkpt lat="43.73038" lon="1.29286">
        <ele>140.49</ele>
        <time>2021-08-18T12:28:37Z</time>
      </trkpt>
      <trkpt lat="43.72996" lon="1.2934">
        <ele>139.53</ele>
        <time>2021-08-18T12:28:46Z</time>
      </trkpt>
      <trkpt lat="43.72956" lon="1.29399">
        <ele>139.53</ele>
        <time>2021-08-18T12:28:55Z</time>
      </trkpt>
      <trkpt lat="43.72924" lon="1.29442">
        <ele>139.05</ele>
        <time>2021-08-18T12:29:02Z</time>
      </trkpt>
      <trkpt lat="43.72887" lon="1.29489">
        <ele>139.05</ele>
        <time>2021-08-18T12:29:10Z</time>
      </trkpt>
      <trkpt lat="43.7287" lon="1.29509">
        <ele>139.05</ele>
        <time>2021-08-18T12:29:14Z</time>
      </trkpt>
      <trkpt lat="43.72866" lon="1.29514">
        <ele>139.05</ele>
        <time>2021-08-18T12:29:15Z</time>
      </trkpt>
      <trkpt lat="43.72837" lon="1.2955">
        <ele>140.49</ele>
        <time>2021-08-18T12:29:22Z</time>
      </trkpt>
      <trkpt lat="43.72833" lon="1.29556">
        <ele>140.49</ele>
        <time>2021-08-18T12:29:23Z</time>
      </trkpt>
      <trkpt lat="43.72812" lon="1.29583">
        <ele>140.97</ele>
        <time>2021-08-18T12:29:28Z</time>
      </trkpt>
      <trkpt lat="43.72808" lon="1.2959">
        <ele>140.97</ele>
        <time>2021-08-18T12:29:29Z</time>
      </trkpt>
      <trkpt lat="43.72804" lon="1.29596">
        <ele>140.97</ele>
        <time>2021-08-18T12:29:30Z</time>
      </trkpt>
      <trkpt lat="43.72799" lon="1.29601">
        <ele>140.97</ele>
        <time>2021-08-18T12:29:31Z</time>
      </trkpt>
      <trkpt lat="43.72794" lon="1.29606">
        <ele>140.97</ele>
        <time>2021-08-18T12:29:32Z</time>
      </trkpt>
      <trkpt lat="43.72758" lon="1.29653">
        <ele>142.41</ele>
        <time>2021-08-18T12:29:41Z</time>
      </trkpt>
      <trkpt lat="43.72726" lon="1.29705">
        <ele>143.37</ele>
        <time>2021-08-18T12:29:50Z</time>
      </trkpt>
      <trkpt lat="43.72681" lon="1.29771">
        <ele>145.3</ele>
        <time>2021-08-18T12:30:02Z</time>
      </trkpt>
      <trkpt lat="43.72677" lon="1.29775">
        <ele>145.3</ele>
        <time>2021-08-18T12:30:03Z</time>
      </trkpt>
      <trkpt lat="43.72668" lon="1.29782">
        <ele>145.78</ele>
        <time>2021-08-18T12:30:05Z</time>
      </trkpt>
      <trkpt lat="43.72656" lon="1.29789">
        <ele>146.26</ele>
        <time>2021-08-18T12:30:08Z</time>
      </trkpt>
      <trkpt lat="43.72639" lon="1.29793">
        <ele>146.74</ele>
        <time>2021-08-18T12:30:12Z</time>
      </trkpt>
      <trkpt lat="43.72613" lon="1.29786">
        <ele>148.66</ele>
        <time>2021-08-18T12:30:19Z</time>
      </trkpt>
      <trkpt lat="43.72597" lon="1.2978">
        <ele>149.62</ele>
        <time>2021-08-18T12:30:26Z</time>
      </trkpt>
      <trkpt lat="43.72599" lon="1.29781">
        <ele>150.1</ele>
        <time>2021-08-18T12:30:35Z</time>
      </trkpt>
      <trkpt lat="43.72601" lon="1.2978">
        <ele>150.1</ele>
        <time>2021-08-18T12:30:51Z</time>
      </trkpt>
      <trkpt lat="43.72601" lon="1.2978">
        <ele>150.1</ele>
        <time>2021-08-18T12:31:01Z</time>
      </trkpt>
      <trkpt lat="43.72595" lon="1.29778">
        <ele>150.1</ele>
        <time>2021-08-18T12:31:08Z</time>
      </trkpt>
      <trkpt lat="43.72578" lon="1.29768">
        <ele>151.06</ele>
        <time>2021-08-18T12:31:14Z</time>
      </trkpt>
      <trkpt lat="43.72561" lon="1.2976">
        <ele>152.03</ele>
        <time>2021-08-18T12:31:20Z</time>
      </trkpt>
      <trkpt lat="43.72545" lon="1.29755">
        <ele>152.99</ele>
        <time>2021-08-18T12:31:27Z</time>
      </trkpt>
      <trkpt lat="43.72527" lon="1.29751">
        <ele>154.43</ele>
        <time>2021-08-18T12:31:34Z</time>
      </trkpt>
      <trkpt lat="43.72503" lon="1.29749">
        <ele>155.87</ele>
        <time>2021-08-18T12:31:42Z</time>
      </trkpt>
      <trkpt lat="43.7248" lon="1.29755">
        <ele>156.35</ele>
        <time>2021-08-18T12:31:49Z</time>
      </trkpt>
      <trkpt lat="43.7246" lon="1.29765">
        <ele>157.79</ele>
        <time>2021-08-18T12:31:56Z</time>
      </trkpt>
      <trkpt lat="43.7244" lon="1.29776">
        <ele>159.24</ele>
        <time>2021-08-18T12:32:03Z</time>
      </trkpt>
      <trkpt lat="43.72416" lon="1.29793">
        <ele>160.68</ele>
        <time>2021-08-18T12:32:11Z</time>
      </trkpt>
      <trkpt lat="43.7241" lon="1.29798">
        <ele>160.68</ele>
        <time>2021-08-18T12:32:13Z</time>
      </trkpt>
      <trkpt lat="43.72405" lon="1.29801">
        <ele>160.68</ele>
        <time>2021-08-18T12:32:14Z</time>
      </trkpt>
      <trkpt lat="43.72377" lon="1.29821">
        <ele>160.68</ele>
        <time>2021-08-18T12:32:21Z</time>
      </trkpt>
      <trkpt lat="43.72368" lon="1.29826">
        <ele>160.68</ele>
        <time>2021-08-18T12:32:23Z</time>
      </trkpt>
      <trkpt lat="43.72363" lon="1.29829">
        <ele>160.68</ele>
        <time>2021-08-18T12:32:24Z</time>
      </trkpt>
      <trkpt lat="43.72358" lon="1.29831">
        <ele>160.68</ele>
        <time>2021-08-18T12:32:25Z</time>
      </trkpt>
      <trkpt lat="43.72353" lon="1.29833">
        <ele>160.68</ele>
        <time>2021-08-18T12:32:26Z</time>
      </trkpt>
      <trkpt lat="43.72348" lon="1.29833">
        <ele>160.68</ele>
        <time>2021-08-18T12:32:27Z</time>
      </trkpt>
      <trkpt lat="43.72334" lon="1.29836">
        <ele>161.16</ele>
        <time>2021-08-18T12:32:30Z</time>
      </trkpt>
      <trkpt lat="43.7233" lon="1.29835">
        <ele>161.16</ele>
        <time>2021-08-18T12:32:31Z</time>
      </trkpt>
      <trkpt lat="43.72326" lon="1.29834">
        <ele>161.16</ele>
        <time>2021-08-18T12:32:32Z</time>
      </trkpt>
      <trkpt lat="43.72323" lon="1.29833">
        <ele>161.64</ele>
        <time>2021-08-18T12:32:33Z</time>
      </trkpt>
      <trkpt lat="43.72319" lon="1.29833">
        <ele>161.64</ele>
        <time>2021-08-18T12:32:34Z</time>
      </trkpt>
      <trkpt lat="43.7231" lon="1.29831">
        <ele>161.64</ele>
        <time>2021-08-18T12:32:36Z</time>
      </trkpt>
      <trkpt lat="43.72302" lon="1.29828">
        <ele>161.64</ele>
        <time>2021-08-18T12:32:38Z</time>
      </trkpt>
      <trkpt lat="43.72293" lon="1.29825">
        <ele>161.64</ele>
        <time>2021-08-18T12:32:40Z</time>
      </trkpt>
      <trkpt lat="43.72289" lon="1.29822">
        <ele>161.64</ele>
        <time>2021-08-18T12:32:41Z</time>
      </trkpt>
      <trkpt lat="43.72276" lon="1.29813">
        <ele>161.16</ele>
        <time>2021-08-18T12:32:44Z</time>
      </trkpt>
      <trkpt lat="43.72272" lon="1.29809">
        <ele>161.64</ele>
        <time>2021-08-18T12:32:45Z</time>
      </trkpt>
      <trkpt lat="43.72268" lon="1.29803">
        <ele>161.64</ele>
        <time>2021-08-18T12:32:46Z</time>
      </trkpt>
      <trkpt lat="43.72238" lon="1.29756">
        <ele>161.64</ele>
        <time>2021-08-18T12:32:55Z</time>
      </trkpt>
      <trkpt lat="43.72235" lon="1.29751">
        <ele>161.64</ele>
        <time>2021-08-18T12:32:56Z</time>
      </trkpt>
      <trkpt lat="43.72231" lon="1.29747">
        <ele>161.64</ele>
        <time>2021-08-18T12:32:57Z</time>
      </trkpt>
      <trkpt lat="43.72228" lon="1.29742">
        <ele>161.64</ele>
        <time>2021-08-18T12:32:58Z</time>
      </trkpt>
      <trkpt lat="43.72198" lon="1.29698">
        <ele>160.68</ele>
        <time>2021-08-18T12:33:07Z</time>
      </trkpt>
      <trkpt lat="43.72189" lon="1.29686">
        <ele>160.68</ele>
        <time>2021-08-18T12:33:11Z</time>
      </trkpt>
      <trkpt lat="43.72186" lon="1.29687">
        <ele>160.68</ele>
        <time>2021-08-18T12:33:12Z</time>
      </trkpt>
      <trkpt lat="43.72183" lon="1.2969">
        <ele>160.68</ele>
        <time>2021-08-18T12:33:13Z</time>
      </trkpt>
      <trkpt lat="43.7218" lon="1.29693">
        <ele>160.68</ele>
        <time>2021-08-18T12:33:14Z</time>
      </trkpt>
      <trkpt lat="43.72177" lon="1.29697">
        <ele>160.68</ele>
        <time>2021-08-18T12:33:15Z</time>
      </trkpt>
      <trkpt lat="43.72148" lon="1.29735">
        <ele>160.68</ele>
        <time>2021-08-18T12:33:23Z</time>
      </trkpt>
      <trkpt lat="43.72124" lon="1.29764">
        <ele>160.2</ele>
        <time>2021-08-18T12:33:29Z</time>
      </trkpt>
      <trkpt lat="43.72119" lon="1.29766">
        <ele>160.2</ele>
        <time>2021-08-18T12:33:30Z</time>
      </trkpt>
      <trkpt lat="43.72115" lon="1.29764">
        <ele>160.2</ele>
        <time>2021-08-18T12:33:31Z</time>
      </trkpt>
      <trkpt lat="43.72112" lon="1.29759">
        <ele>159.24</ele>
        <time>2021-08-18T12:33:32Z</time>
      </trkpt>
      <trkpt lat="43.7211" lon="1.29753">
        <ele>159.24</ele>
        <time>2021-08-18T12:33:33Z</time>
      </trkpt>
      <trkpt lat="43.72109" lon="1.29745">
        <ele>159.24</ele>
        <time>2021-08-18T12:33:34Z</time>
      </trkpt>
      <trkpt lat="43.72098" lon="1.29686">
        <ele>158.75</ele>
        <time>2021-08-18T12:33:41Z</time>
      </trkpt>
      <trkpt lat="43.72089" lon="1.29603">
        <ele>157.79</ele>
        <time>2021-08-18T12:33:50Z</time>
      </trkpt>
      <trkpt lat="43.72081" lon="1.29538">
        <ele>158.75</ele>
        <time>2021-08-18T12:33:58Z</time>
      </trkpt>
      <trkpt lat="43.7207" lon="1.2948">
        <ele>159.72</ele>
        <time>2021-08-18T12:34:06Z</time>
      </trkpt>
      <trkpt lat="43.72069" lon="1.29468">
        <ele>159.72</ele>
        <time>2021-08-18T12:34:08Z</time>
      </trkpt>
      <trkpt lat="43.72067" lon="1.29463">
        <ele>160.68</ele>
        <time>2021-08-18T12:34:09Z</time>
      </trkpt>
      <trkpt lat="43.72065" lon="1.29458">
        <ele>160.68</ele>
        <time>2021-08-18T12:34:10Z</time>
      </trkpt>
      <trkpt lat="43.72063" lon="1.29454">
        <ele>160.68</ele>
        <time>2021-08-18T12:34:11Z</time>
      </trkpt>
      <trkpt lat="43.72061" lon="1.29448">
        <ele>160.68</ele>
        <time>2021-08-18T12:34:12Z</time>
      </trkpt>
      <trkpt lat="43.72059" lon="1.29443">
        <ele>160.68</ele>
        <time>2021-08-18T12:34:13Z</time>
      </trkpt>
      <trkpt lat="43.72057" lon="1.29437">
        <ele>159.24</ele>
        <time>2021-08-18T12:34:14Z</time>
      </trkpt>
      <trkpt lat="43.72053" lon="1.29434">
        <ele>159.24</ele>
        <time>2021-08-18T12:34:15Z</time>
      </trkpt>
      <trkpt lat="43.72048" lon="1.29431">
        <ele>159.24</ele>
        <time>2021-08-18T12:34:16Z</time>
      </trkpt>
      <trkpt lat="43.72044" lon="1.29431">
        <ele>159.24</ele>
        <time>2021-08-18T12:34:17Z</time>
      </trkpt>
      <trkpt lat="43.7204" lon="1.2943">
        <ele>159.24</ele>
        <time>2021-08-18T12:34:18Z</time>
      </trkpt>
      <trkpt lat="43.72005" lon="1.29423">
        <ele>161.16</ele>
        <time>2021-08-18T12:34:25Z</time>
      </trkpt>
      <trkpt lat="43.71994" lon="1.29419">
        <ele>160.68</ele>
        <time>2021-08-18T12:34:27Z</time>
      </trkpt>
      <trkpt lat="43.71953" lon="1.29399">
        <ele>161.16</ele>
        <time>2021-08-18T12:34:35Z</time>
      </trkpt>
      <trkpt lat="43.71902" lon="1.2937">
        <ele>162.6</ele>
        <time>2021-08-18T12:34:45Z</time>
      </trkpt>
      <trkpt lat="43.71887" lon="1.29363">
        <ele>162.6</ele>
        <time>2021-08-18T12:34:48Z</time>
      </trkpt>
      <trkpt lat="43.71882" lon="1.29359">
        <ele>162.6</ele>
        <time>2021-08-18T12:34:49Z</time>
      </trkpt>
      <trkpt lat="43.71868" lon="1.29346">
        <ele>162.6</ele>
        <time>2021-08-18T12:34:52Z</time>
      </trkpt>
      <trkpt lat="43.71864" lon="1.29341">
        <ele>162.6</ele>
        <time>2021-08-18T12:34:53Z</time>
      </trkpt>
      <trkpt lat="43.7186" lon="1.29336">
        <ele>162.6</ele>
        <time>2021-08-18T12:34:54Z</time>
      </trkpt>
      <trkpt lat="43.71838" lon="1.2931">
        <ele>163.08</ele>
        <time>2021-08-18T12:34:59Z</time>
      </trkpt>
      <trkpt lat="43.71834" lon="1.29306">
        <ele>163.08</ele>
        <time>2021-08-18T12:35:00Z</time>
      </trkpt>
      <trkpt lat="43.71829" lon="1.29303">
        <ele>163.08</ele>
        <time>2021-08-18T12:35:01Z</time>
      </trkpt>
      <trkpt lat="43.71814" lon="1.29291">
        <ele>163.08</ele>
        <time>2021-08-18T12:35:04Z</time>
      </trkpt>
      <trkpt lat="43.7181" lon="1.29286">
        <ele>163.08</ele>
        <time>2021-08-18T12:35:05Z</time>
      </trkpt>
      <trkpt lat="43.71807" lon="1.2928">
        <ele>163.08</ele>
        <time>2021-08-18T12:35:06Z</time>
      </trkpt>
      <trkpt lat="43.71804" lon="1.29273">
        <ele>163.08</ele>
        <time>2021-08-18T12:35:07Z</time>
      </trkpt>
      <trkpt lat="43.71802" lon="1.29266">
        <ele>163.08</ele>
        <time>2021-08-18T12:35:08Z</time>
      </trkpt>
      <trkpt lat="43.718" lon="1.29259">
        <ele>163.08</ele>
        <time>2021-08-18T12:35:09Z</time>
      </trkpt>
      <trkpt lat="43.71799" lon="1.29251">
        <ele>163.08</ele>
        <time>2021-08-18T12:35:10Z</time>
      </trkpt>
      <trkpt lat="43.71798" lon="1.29244">
        <ele>163.08</ele>
        <time>2021-08-18T12:35:11Z</time>
      </trkpt>
      <trkpt lat="43.71797" lon="1.29236">
        <ele>163.56</ele>
        <time>2021-08-18T12:35:12Z</time>
      </trkpt>
      <trkpt lat="43.71794" lon="1.29223">
        <ele>163.56</ele>
        <time>2021-08-18T12:35:14Z</time>
      </trkpt>
      <trkpt lat="43.71791" lon="1.29217">
        <ele>163.56</ele>
        <time>2021-08-18T12:35:15Z</time>
      </trkpt>
      <trkpt lat="43.71788" lon="1.29213">
        <ele>163.56</ele>
        <time>2021-08-18T12:35:16Z</time>
      </trkpt>
      <trkpt lat="43.71785" lon="1.29209">
        <ele>163.56</ele>
        <time>2021-08-18T12:35:17Z</time>
      </trkpt>
      <trkpt lat="43.71782" lon="1.29206">
        <ele>163.56</ele>
        <time>2021-08-18T12:35:18Z</time>
      </trkpt>
      <trkpt lat="43.7178" lon="1.29201">
        <ele>163.56</ele>
        <time>2021-08-18T12:35:19Z</time>
      </trkpt>
      <trkpt lat="43.7178" lon="1.29195">
        <ele>163.56</ele>
        <time>2021-08-18T12:35:20Z</time>
      </trkpt>
      <trkpt lat="43.71779" lon="1.2919">
        <ele>163.56</ele>
        <time>2021-08-18T12:35:21Z</time>
      </trkpt>
      <trkpt lat="43.71778" lon="1.29185">
        <ele>163.56</ele>
        <time>2021-08-18T12:35:22Z</time>
      </trkpt>
      <trkpt lat="43.71776" lon="1.2918">
        <ele>163.56</ele>
        <time>2021-08-18T12:35:23Z</time>
      </trkpt>
      <trkpt lat="43.71773" lon="1.29175">
        <ele>163.56</ele>
        <time>2021-08-18T12:35:24Z</time>
      </trkpt>
      <trkpt lat="43.7177" lon="1.29172">
        <ele>163.56</ele>
        <time>2021-08-18T12:35:25Z</time>
      </trkpt>
      <trkpt lat="43.71767" lon="1.29168">
        <ele>163.56</ele>
        <time>2021-08-18T12:35:26Z</time>
      </trkpt>
      <trkpt lat="43.71763" lon="1.29165">
        <ele>163.56</ele>
        <time>2021-08-18T12:35:27Z</time>
      </trkpt>
      <trkpt lat="43.71759" lon="1.29162">
        <ele>163.56</ele>
        <time>2021-08-18T12:35:28Z</time>
      </trkpt>
      <trkpt lat="43.71755" lon="1.29159">
        <ele>163.56</ele>
        <time>2021-08-18T12:35:29Z</time>
      </trkpt>
      <trkpt lat="43.71751" lon="1.29157">
        <ele>163.56</ele>
        <time>2021-08-18T12:35:30Z</time>
      </trkpt>
      <trkpt lat="43.71746" lon="1.29156">
        <ele>163.56</ele>
        <time>2021-08-18T12:35:31Z</time>
      </trkpt>
      <trkpt lat="43.71741" lon="1.29155">
        <ele>163.56</ele>
        <time>2021-08-18T12:35:32Z</time>
      </trkpt>
      <trkpt lat="43.71736" lon="1.29154">
        <ele>163.56</ele>
        <time>2021-08-18T12:35:33Z</time>
      </trkpt>
      <trkpt lat="43.71731" lon="1.29153">
        <ele>163.56</ele>
        <time>2021-08-18T12:35:34Z</time>
      </trkpt>
      <trkpt lat="43.71727" lon="1.29151">
        <ele>163.56</ele>
        <time>2021-08-18T12:35:35Z</time>
      </trkpt>
      <trkpt lat="43.71722" lon="1.29149">
        <ele>163.56</ele>
        <time>2021-08-18T12:35:36Z</time>
      </trkpt>
      <trkpt lat="43.71717" lon="1.29145">
        <ele>163.08</ele>
        <time>2021-08-18T12:35:37Z</time>
      </trkpt>
      <trkpt lat="43.71715" lon="1.29139">
        <ele>163.56</ele>
        <time>2021-08-18T12:35:38Z</time>
      </trkpt>
      <trkpt lat="43.71715" lon="1.29132">
        <ele>163.56</ele>
        <time>2021-08-18T12:35:39Z</time>
      </trkpt>
      <trkpt lat="43.71715" lon="1.29127">
        <ele>163.56</ele>
        <time>2021-08-18T12:35:40Z</time>
      </trkpt>
      <trkpt lat="43.71714" lon="1.2912">
        <ele>163.56</ele>
        <time>2021-08-18T12:35:41Z</time>
      </trkpt>
      <trkpt lat="43.71713" lon="1.29114">
        <ele>163.56</ele>
        <time>2021-08-18T12:35:42Z</time>
      </trkpt>
      <trkpt lat="43.71712" lon="1.29107">
        <ele>163.56</ele>
        <time>2021-08-18T12:35:43Z</time>
      </trkpt>
      <trkpt lat="43.71709" lon="1.29101">
        <ele>163.56</ele>
        <time>2021-08-18T12:35:44Z</time>
      </trkpt>
      <trkpt lat="43.71707" lon="1.29095">
        <ele>163.56</ele>
        <time>2021-08-18T12:35:45Z</time>
      </trkpt>
      <trkpt lat="43.71704" lon="1.29089">
        <ele>163.56</ele>
        <time>2021-08-18T12:35:46Z</time>
      </trkpt>
      <trkpt lat="43.71697" lon="1.29078">
        <ele>163.56</ele>
        <time>2021-08-18T12:35:48Z</time>
      </trkpt>
      <trkpt lat="43.71658" lon="1.29033">
        <ele>163.56</ele>
        <time>2021-08-18T12:35:57Z</time>
      </trkpt>
      <trkpt lat="43.71618" lon="1.28991">
        <ele>164.04</ele>
        <time>2021-08-18T12:36:06Z</time>
      </trkpt>
      <trkpt lat="43.71584" lon="1.28949">
        <ele>165.96</ele>
        <time>2021-08-18T12:36:15Z</time>
      </trkpt>
      <trkpt lat="43.71547" lon="1.289">
        <ele>167.41</ele>
        <time>2021-08-18T12:36:25Z</time>
      </trkpt>
      <trkpt lat="43.71514" lon="1.28853">
        <ele>168.85</ele>
        <time>2021-08-18T12:36:35Z</time>
      </trkpt>
      <trkpt lat="43.71511" lon="1.28849">
        <ele>168.85</ele>
        <time>2021-08-18T12:36:36Z</time>
      </trkpt>
      <trkpt lat="43.71505" lon="1.2884">
        <ele>168.85</ele>
        <time>2021-08-18T12:36:38Z</time>
      </trkpt>
      <trkpt lat="43.71501" lon="1.28836">
        <ele>169.33</ele>
        <time>2021-08-18T12:36:39Z</time>
      </trkpt>
      <trkpt lat="43.71498" lon="1.28831">
        <ele>169.33</ele>
        <time>2021-08-18T12:36:40Z</time>
      </trkpt>
      <trkpt lat="43.71472" lon="1.28795">
        <ele>170.29</ele>
        <time>2021-08-18T12:36:48Z</time>
      </trkpt>
      <trkpt lat="43.7145" lon="1.28762">
        <ele>170.77</ele>
        <time>2021-08-18T12:36:55Z</time>
      </trkpt>
      <trkpt lat="43.71439" lon="1.28743">
        <ele>171.73</ele>
        <time>2021-08-18T12:36:59Z</time>
      </trkpt>
      <trkpt lat="43.71417" lon="1.287">
        <ele>173.17</ele>
        <time>2021-08-18T12:37:08Z</time>
      </trkpt>
      <trkpt lat="43.71392" lon="1.28649">
        <ele>172.69</ele>
        <time>2021-08-18T12:37:17Z</time>
      </trkpt>
      <trkpt lat="43.71358" lon="1.28574">
        <ele>172.69</ele>
        <time>2021-08-18T12:37:29Z</time>
      </trkpt>
      <trkpt lat="43.71344" lon="1.28552">
        <ele>173.17</ele>
        <time>2021-08-18T12:37:33Z</time>
      </trkpt>
      <trkpt lat="43.713" lon="1.285">
        <ele>174.62</ele>
        <time>2021-08-18T12:37:43Z</time>
      </trkpt>
      <trkpt lat="43.7126" lon="1.28449">
        <ele>175.1</ele>
        <time>2021-08-18T12:37:52Z</time>
      </trkpt>
      <trkpt lat="43.71214" lon="1.28386">
        <ele>175.1</ele>
        <time>2021-08-18T12:38:03Z</time>
      </trkpt>
      <trkpt lat="43.71163" lon="1.28326">
        <ele>175.58</ele>
        <time>2021-08-18T12:38:14Z</time>
      </trkpt>
      <trkpt lat="43.71116" lon="1.28269">
        <ele>175.58</ele>
        <time>2021-08-18T12:38:24Z</time>
      </trkpt>
      <trkpt lat="43.71067" lon="1.28213">
        <ele>175.58</ele>
        <time>2021-08-18T12:38:34Z</time>
      </trkpt>
      <trkpt lat="43.7103" lon="1.28176">
        <ele>175.58</ele>
        <time>2021-08-18T12:38:41Z</time>
      </trkpt>
      <trkpt lat="43.70988" lon="1.28134">
        <ele>175.58</ele>
        <time>2021-08-18T12:38:50Z</time>
      </trkpt>
      <trkpt lat="43.70962" lon="1.28115">
        <ele>175.58</ele>
        <time>2021-08-18T12:38:55Z</time>
      </trkpt>
      <trkpt lat="43.70901" lon="1.28072">
        <ele>176.06</ele>
        <time>2021-08-18T12:39:06Z</time>
      </trkpt>
      <trkpt lat="43.7089" lon="1.28067">
        <ele>176.06</ele>
        <time>2021-08-18T12:39:08Z</time>
      </trkpt>
      <trkpt lat="43.70836" lon="1.28057">
        <ele>176.06</ele>
        <time>2021-08-18T12:39:17Z</time>
      </trkpt>
      <trkpt lat="43.70782" lon="1.28053">
        <ele>176.54</ele>
        <time>2021-08-18T12:39:26Z</time>
      </trkpt>
      <trkpt lat="43.70775" lon="1.28052">
        <ele>176.54</ele>
        <time>2021-08-18T12:39:27Z</time>
      </trkpt>
      <trkpt lat="43.70739" lon="1.2805">
        <ele>176.54</ele>
        <time>2021-08-18T12:39:33Z</time>
      </trkpt>
      <trkpt lat="43.70681" lon="1.28039">
        <ele>176.54</ele>
        <time>2021-08-18T12:39:42Z</time>
      </trkpt>
      <trkpt lat="43.70624" lon="1.2802">
        <ele>176.54</ele>
        <time>2021-08-18T12:39:51Z</time>
      </trkpt>
      <trkpt lat="43.70562" lon="1.27992">
        <ele>177.5</ele>
        <time>2021-08-18T12:40:01Z</time>
      </trkpt>
      <trkpt lat="43.70507" lon="1.2796">
        <ele>177.5</ele>
        <time>2021-08-18T12:40:10Z</time>
      </trkpt>
      <trkpt lat="43.70459" lon="1.27924">
        <ele>177.5</ele>
        <time>2021-08-18T12:40:18Z</time>
      </trkpt>
      <trkpt lat="43.70412" lon="1.27882">
        <ele>177.5</ele>
        <time>2021-08-18T12:40:26Z</time>
      </trkpt>
      <trkpt lat="43.70351" lon="1.27831">
        <ele>177.5</ele>
        <time>2021-08-18T12:40:36Z</time>
      </trkpt>
      <trkpt lat="43.703" lon="1.27788">
        <ele>177.5</ele>
        <time>2021-08-18T12:40:45Z</time>
      </trkpt>
      <trkpt lat="43.70244" lon="1.27741">
        <ele>176.54</ele>
        <time>2021-08-18T12:40:54Z</time>
      </trkpt>
      <trkpt lat="43.70183" lon="1.27685">
        <ele>175.58</ele>
        <time>2021-08-18T12:41:04Z</time>
      </trkpt>
      <trkpt lat="43.70172" lon="1.27673">
        <ele>177.02</ele>
        <time>2021-08-18T12:41:06Z</time>
      </trkpt>
      <trkpt lat="43.70132" lon="1.27627">
        <ele>176.06</ele>
        <time>2021-08-18T12:41:14Z</time>
      </trkpt>
      <trkpt lat="43.70094" lon="1.27581">
        <ele>176.06</ele>
        <time>2021-08-18T12:41:23Z</time>
      </trkpt>
      <trkpt lat="43.70065" lon="1.27552">
        <ele>175.58</ele>
        <time>2021-08-18T12:41:30Z</time>
      </trkpt>
      <trkpt lat="43.70056" lon="1.27544">
        <ele>177.02</ele>
        <time>2021-08-18T12:41:32Z</time>
      </trkpt>
      <trkpt lat="43.70034" lon="1.27527">
        <ele>177.02</ele>
        <time>2021-08-18T12:41:37Z</time>
      </trkpt>
      <trkpt lat="43.70024" lon="1.27522">
        <ele>177.98</ele>
        <time>2021-08-18T12:41:39Z</time>
      </trkpt>
      <trkpt lat="43.7002" lon="1.27518">
        <ele>177.98</ele>
        <time>2021-08-18T12:41:40Z</time>
      </trkpt>
      <trkpt lat="43.70015" lon="1.27515">
        <ele>177.98</ele>
        <time>2021-08-18T12:41:41Z</time>
      </trkpt>
      <trkpt lat="43.69975" lon="1.27483">
        <ele>177.98</ele>
        <time>2021-08-18T12:41:49Z</time>
      </trkpt>
      <trkpt lat="43.69919" lon="1.2743">
        <ele>177.98</ele>
        <time>2021-08-18T12:42:00Z</time>
      </trkpt>
      <trkpt lat="43.69873" lon="1.27384">
        <ele>177.98</ele>
        <time>2021-08-18T12:42:09Z</time>
      </trkpt>
      <trkpt lat="43.69819" lon="1.27332">
        <ele>177.98</ele>
        <time>2021-08-18T12:42:19Z</time>
      </trkpt>
      <trkpt lat="43.69773" lon="1.27288">
        <ele>177.98</ele>
        <time>2021-08-18T12:42:28Z</time>
      </trkpt>
      <trkpt lat="43.69754" lon="1.27268">
        <ele>177.98</ele>
        <time>2021-08-18T12:42:32Z</time>
      </trkpt>
      <trkpt lat="43.69711" lon="1.27215">
        <ele>177.98</ele>
        <time>2021-08-18T12:42:42Z</time>
      </trkpt>
      <trkpt lat="43.69675" lon="1.27168">
        <ele>178.94</ele>
        <time>2021-08-18T12:42:50Z</time>
      </trkpt>
      <trkpt lat="43.69645" lon="1.27114">
        <ele>178.94</ele>
        <time>2021-08-18T12:42:58Z</time>
      </trkpt>
      <trkpt lat="43.69618" lon="1.27058">
        <ele>178.94</ele>
        <time>2021-08-18T12:43:06Z</time>
      </trkpt>
      <trkpt lat="43.69587" lon="1.26998">
        <ele>178.94</ele>
        <time>2021-08-18T12:43:15Z</time>
      </trkpt>
      <trkpt lat="43.6958" lon="1.26986">
        <ele>178.94</ele>
        <time>2021-08-18T12:43:17Z</time>
      </trkpt>
      <trkpt lat="43.69577" lon="1.26979">
        <ele>178.94</ele>
        <time>2021-08-18T12:43:18Z</time>
      </trkpt>
      <trkpt lat="43.69548" lon="1.26928">
        <ele>179.42</ele>
        <time>2021-08-18T12:43:26Z</time>
      </trkpt>
      <trkpt lat="43.69538" lon="1.26908">
        <ele>179.42</ele>
        <time>2021-08-18T12:43:29Z</time>
      </trkpt>
      <trkpt lat="43.69535" lon="1.26902">
        <ele>179.42</ele>
        <time>2021-08-18T12:43:30Z</time>
      </trkpt>
      <trkpt lat="43.69524" lon="1.26876">
        <ele>180.38</ele>
        <time>2021-08-18T12:43:34Z</time>
      </trkpt>
      <trkpt lat="43.69521" lon="1.2687">
        <ele>180.38</ele>
        <time>2021-08-18T12:43:35Z</time>
      </trkpt>
      <trkpt lat="43.69519" lon="1.26864">
        <ele>180.38</ele>
        <time>2021-08-18T12:43:36Z</time>
      </trkpt>
      <trkpt lat="43.69516" lon="1.26858">
        <ele>180.38</ele>
        <time>2021-08-18T12:43:37Z</time>
      </trkpt>
      <trkpt lat="43.69515" lon="1.26852">
        <ele>180.38</ele>
        <time>2021-08-18T12:43:38Z</time>
      </trkpt>
      <trkpt lat="43.69513" lon="1.26845">
        <ele>180.38</ele>
        <time>2021-08-18T12:43:39Z</time>
      </trkpt>
      <trkpt lat="43.6951" lon="1.26834">
        <ele>180.38</ele>
        <time>2021-08-18T12:43:41Z</time>
      </trkpt>
      <trkpt lat="43.69507" lon="1.26829">
        <ele>180.38</ele>
        <time>2021-08-18T12:43:42Z</time>
      </trkpt>
      <trkpt lat="43.69504" lon="1.26824">
        <ele>180.38</ele>
        <time>2021-08-18T12:43:43Z</time>
      </trkpt>
      <trkpt lat="43.695" lon="1.26821">
        <ele>180.38</ele>
        <time>2021-08-18T12:43:44Z</time>
      </trkpt>
      <trkpt lat="43.69496" lon="1.26819">
        <ele>180.38</ele>
        <time>2021-08-18T12:43:45Z</time>
      </trkpt>
      <trkpt lat="43.69491" lon="1.26816">
        <ele>178.94</ele>
        <time>2021-08-18T12:43:46Z</time>
      </trkpt>
      <trkpt lat="43.69486" lon="1.26813">
        <ele>178.94</ele>
        <time>2021-08-18T12:43:47Z</time>
      </trkpt>
      <trkpt lat="43.69482" lon="1.26809">
        <ele>177.5</ele>
        <time>2021-08-18T12:43:48Z</time>
      </trkpt>
      <trkpt lat="43.69476" lon="1.26805">
        <ele>177.5</ele>
        <time>2021-08-18T12:43:49Z</time>
      </trkpt>
      <trkpt lat="43.69464" lon="1.26798">
        <ele>176.54</ele>
        <time>2021-08-18T12:43:51Z</time>
      </trkpt>
      <trkpt lat="43.69457" lon="1.26796">
        <ele>176.54</ele>
        <time>2021-08-18T12:43:52Z</time>
      </trkpt>
      <trkpt lat="43.6945" lon="1.26796">
        <ele>176.06</ele>
        <time>2021-08-18T12:43:53Z</time>
      </trkpt>
      <trkpt lat="43.69443" lon="1.26798">
        <ele>176.06</ele>
        <time>2021-08-18T12:43:54Z</time>
      </trkpt>
      <trkpt lat="43.69435" lon="1.268">
        <ele>175.1</ele>
        <time>2021-08-18T12:43:55Z</time>
      </trkpt>
      <trkpt lat="43.69397" lon="1.26812">
        <ele>173.66</ele>
        <time>2021-08-18T12:44:00Z</time>
      </trkpt>
      <trkpt lat="43.69369" lon="1.26824">
        <ele>176.06</ele>
        <time>2021-08-18T12:44:05Z</time>
      </trkpt>
      <trkpt lat="43.69355" lon="1.2683">
        <ele>177.98</ele>
        <time>2021-08-18T12:44:09Z</time>
      </trkpt>
      <trkpt lat="43.6934" lon="1.26837">
        <ele>179.42</ele>
        <time>2021-08-18T12:44:14Z</time>
      </trkpt>
      <trkpt lat="43.69319" lon="1.26844">
        <ele>179.9</ele>
        <time>2021-08-18T12:44:20Z</time>
      </trkpt>
      <trkpt lat="43.69314" lon="1.26844">
        <ele>179.9</ele>
        <time>2021-08-18T12:44:21Z</time>
      </trkpt>
      <trkpt lat="43.69286" lon="1.26843">
        <ele>179.9</ele>
        <time>2021-08-18T12:44:27Z</time>
      </trkpt>
      <trkpt lat="43.69261" lon="1.26846">
        <ele>179.9</ele>
        <time>2021-08-18T12:44:33Z</time>
      </trkpt>
      <trkpt lat="43.69253" lon="1.2685">
        <ele>179.9</ele>
        <time>2021-08-18T12:44:35Z</time>
      </trkpt>
      <trkpt lat="43.69214" lon="1.26872">
        <ele>179.9</ele>
        <time>2021-08-18T12:44:43Z</time>
      </trkpt>
      <trkpt lat="43.69169" lon="1.26903">
        <ele>179.9</ele>
        <time>2021-08-18T12:44:52Z</time>
      </trkpt>
      <trkpt lat="43.6912" lon="1.26949">
        <ele>179.9</ele>
        <time>2021-08-18T12:45:02Z</time>
      </trkpt>
      <trkpt lat="43.69085" lon="1.26979">
        <ele>179.9</ele>
        <time>2021-08-18T12:45:09Z</time>
      </trkpt>
      <trkpt lat="43.69044" lon="1.27014">
        <ele>179.9</ele>
        <time>2021-08-18T12:45:17Z</time>
      </trkpt>
      <trkpt lat="43.69025" lon="1.27032">
        <ele>179.9</ele>
        <time>2021-08-18T12:45:21Z</time>
      </trkpt>
      <trkpt lat="43.6902" lon="1.27038">
        <ele>179.9</ele>
        <time>2021-08-18T12:45:22Z</time>
      </trkpt>
      <trkpt lat="43.6899" lon="1.27081">
        <ele>179.9</ele>
        <time>2021-08-18T12:45:29Z</time>
      </trkpt>
      <trkpt lat="43.68963" lon="1.27127">
        <ele>180.38</ele>
        <time>2021-08-18T12:45:36Z</time>
      </trkpt>
      <trkpt lat="43.68933" lon="1.27172">
        <ele>180.38</ele>
        <time>2021-08-18T12:45:43Z</time>
      </trkpt>
      <trkpt lat="43.68911" lon="1.27202">
        <ele>180.38</ele>
        <time>2021-08-18T12:45:48Z</time>
      </trkpt>
      <trkpt lat="43.68867" lon="1.2725">
        <ele>180.38</ele>
        <time>2021-08-18T12:45:57Z</time>
      </trkpt>
      <trkpt lat="43.68844" lon="1.27269">
        <ele>179.42</ele>
        <time>2021-08-18T12:46:01Z</time>
      </trkpt>
      <trkpt lat="43.68838" lon="1.27272">
        <ele>178.46</ele>
        <time>2021-08-18T12:46:02Z</time>
      </trkpt>
      <trkpt lat="43.68831" lon="1.27273">
        <ele>178.46</ele>
        <time>2021-08-18T12:46:03Z</time>
      </trkpt>
      <trkpt lat="43.68825" lon="1.27274">
        <ele>178.46</ele>
        <time>2021-08-18T12:46:04Z</time>
      </trkpt>
      <trkpt lat="43.68819" lon="1.27274">
        <ele>178.46</ele>
        <time>2021-08-18T12:46:05Z</time>
      </trkpt>
      <trkpt lat="43.68812" lon="1.27274">
        <ele>177.98</ele>
        <time>2021-08-18T12:46:06Z</time>
      </trkpt>
      <trkpt lat="43.68805" lon="1.27273">
        <ele>177.98</ele>
        <time>2021-08-18T12:46:07Z</time>
      </trkpt>
      <trkpt lat="43.68798" lon="1.2727">
        <ele>177.98</ele>
        <time>2021-08-18T12:46:08Z</time>
      </trkpt>
      <trkpt lat="43.68758" lon="1.27246">
        <ele>174.62</ele>
        <time>2021-08-18T12:46:14Z</time>
      </trkpt>
      <trkpt lat="43.68702" lon="1.27201">
        <ele>173.66</ele>
        <time>2021-08-18T12:46:22Z</time>
      </trkpt>
      <trkpt lat="43.68653" lon="1.27151">
        <ele>172.69</ele>
        <time>2021-08-18T12:46:30Z</time>
      </trkpt>
      <trkpt lat="43.68627" lon="1.27126">
        <ele>174.14</ele>
        <time>2021-08-18T12:46:35Z</time>
      </trkpt>
      <trkpt lat="43.68617" lon="1.27117">
        <ele>174.14</ele>
        <time>2021-08-18T12:46:37Z</time>
      </trkpt>
      <trkpt lat="43.68603" lon="1.271">
        <ele>174.62</ele>
        <time>2021-08-18T12:46:40Z</time>
      </trkpt>
      <trkpt lat="43.68599" lon="1.27093">
        <ele>174.62</ele>
        <time>2021-08-18T12:46:41Z</time>
      </trkpt>
      <trkpt lat="43.68596" lon="1.27085">
        <ele>174.62</ele>
        <time>2021-08-18T12:46:42Z</time>
      </trkpt>
      <trkpt lat="43.68593" lon="1.27076">
        <ele>174.62</ele>
        <time>2021-08-18T12:46:43Z</time>
      </trkpt>
      <trkpt lat="43.68591" lon="1.2707">
        <ele>174.62</ele>
        <time>2021-08-18T12:46:44Z</time>
      </trkpt>
      <trkpt lat="43.68563" lon="1.26983">
        <ele>175.1</ele>
        <time>2021-08-18T12:46:55Z</time>
      </trkpt>
      <trkpt lat="43.68534" lon="1.26934">
        <ele>177.02</ele>
        <time>2021-08-18T12:47:03Z</time>
      </trkpt>
      <trkpt lat="43.68516" lon="1.26916">
        <ele>178.94</ele>
        <time>2021-08-18T12:47:09Z</time>
      </trkpt>
      <trkpt lat="43.68488" lon="1.26903">
        <ele>180.38</ele>
        <time>2021-08-18T12:47:17Z</time>
      </trkpt>
      <trkpt lat="43.68476" lon="1.26897">
        <ele>180.38</ele>
        <time>2021-08-18T12:47:20Z</time>
      </trkpt>
      <trkpt lat="43.68436" lon="1.26883">
        <ele>180.38</ele>
        <time>2021-08-18T12:47:29Z</time>
      </trkpt>
      <trkpt lat="43.68432" lon="1.26881">
        <ele>180.87</ele>
        <time>2021-08-18T12:47:30Z</time>
      </trkpt>
      <trkpt lat="43.68428" lon="1.2688">
        <ele>180.87</ele>
        <time>2021-08-18T12:47:31Z</time>
      </trkpt>
      <trkpt lat="43.68424" lon="1.26879">
        <ele>180.87</ele>
        <time>2021-08-18T12:47:32Z</time>
      </trkpt>
      <trkpt lat="43.68383" lon="1.26865">
        <ele>181.35</ele>
        <time>2021-08-18T12:47:41Z</time>
      </trkpt>
      <trkpt lat="43.68341" lon="1.26848">
        <ele>181.35</ele>
        <time>2021-08-18T12:47:49Z</time>
      </trkpt>
      <trkpt lat="43.68292" lon="1.2683">
        <ele>180.87</ele>
        <time>2021-08-18T12:47:58Z</time>
      </trkpt>
      <trkpt lat="43.68246" lon="1.26814">
        <ele>179.9</ele>
        <time>2021-08-18T12:48:06Z</time>
      </trkpt>
      <trkpt lat="43.68193" lon="1.26799">
        <ele>178.94</ele>
        <time>2021-08-18T12:48:14Z</time>
      </trkpt>
      <trkpt lat="43.68138" lon="1.26797">
        <ele>178.94</ele>
        <time>2021-08-18T12:48:23Z</time>
      </trkpt>
      <trkpt lat="43.68099" lon="1.268">
        <ele>178.94</ele>
        <time>2021-08-18T12:48:29Z</time>
      </trkpt>
      <trkpt lat="43.68043" lon="1.26826">
        <ele>178.94</ele>
        <time>2021-08-18T12:48:38Z</time>
      </trkpt>
      <trkpt lat="43.6803" lon="1.26832">
        <ele>178.94</ele>
        <time>2021-08-18T12:48:40Z</time>
      </trkpt>
      <trkpt lat="43.67989" lon="1.26848">
        <ele>178.94</ele>
        <time>2021-08-18T12:48:47Z</time>
      </trkpt>
      <trkpt lat="43.67983" lon="1.26849">
        <ele>178.94</ele>
        <time>2021-08-18T12:48:48Z</time>
      </trkpt>
      <trkpt lat="43.67957" lon="1.26847">
        <ele>180.38</ele>
        <time>2021-08-18T12:48:52Z</time>
      </trkpt>
      <trkpt lat="43.679" lon="1.26836">
        <ele>180.87</ele>
        <time>2021-08-18T12:49:01Z</time>
      </trkpt>
      <trkpt lat="43.67857" lon="1.26819">
        <ele>180.87</ele>
        <time>2021-08-18T12:49:08Z</time>
      </trkpt>
      <trkpt lat="43.67834" lon="1.26804">
        <ele>181.35</ele>
        <time>2021-08-18T12:49:13Z</time>
      </trkpt>
      <trkpt lat="43.67832" lon="1.26804">
        <ele>181.35</ele>
        <time>2021-08-18T12:49:14Z</time>
      </trkpt>
      <trkpt lat="43.67832" lon="1.26806">
        <ele>181.35</ele>
        <time>2021-08-18T12:49:15Z</time>
      </trkpt>
      <trkpt lat="43.67834" lon="1.26808">
        <ele>181.35</ele>
        <time>2021-08-18T12:49:17Z</time>
      </trkpt>
      <trkpt lat="43.67836" lon="1.26808">
        <ele>181.35</ele>
        <time>2021-08-18T12:49:18Z</time>
      </trkpt>
      <trkpt lat="43.67839" lon="1.26809">
        <ele>181.35</ele>
        <time>2021-08-18T12:49:19Z</time>
      </trkpt>
      <trkpt lat="43.67842" lon="1.2681">
        <ele>181.35</ele>
        <time>2021-08-18T12:49:20Z</time>
      </trkpt>
      <trkpt lat="43.67845" lon="1.26812">
        <ele>181.35</ele>
        <time>2021-08-18T12:49:21Z</time>
      </trkpt>
      <trkpt lat="43.6788" lon="1.26829">
        <ele>181.35</ele>
        <time>2021-08-18T12:49:29Z</time>
      </trkpt>
      <trkpt lat="43.67895" lon="1.26832">
        <ele>181.35</ele>
        <time>2021-08-18T12:49:33Z</time>
      </trkpt>
      <trkpt lat="43.67898" lon="1.26829">
        <ele>181.35</ele>
        <time>2021-08-18T12:49:34Z</time>
      </trkpt>
      <trkpt lat="43.679" lon="1.26824">
        <ele>181.35</ele>
        <time>2021-08-18T12:49:35Z</time>
      </trkpt>
      <trkpt lat="43.679" lon="1.26818">
        <ele>181.35</ele>
        <time>2021-08-18T12:49:36Z</time>
      </trkpt>
      <trkpt lat="43.67899" lon="1.26812">
        <ele>181.35</ele>
        <time>2021-08-18T12:49:37Z</time>
      </trkpt>
      <trkpt lat="43.67898" lon="1.26806">
        <ele>181.35</ele>
        <time>2021-08-18T12:49:38Z</time>
      </trkpt>
      <trkpt lat="43.67898" lon="1.268">
        <ele>181.35</ele>
        <time>2021-08-18T12:49:39Z</time>
      </trkpt>
      <trkpt lat="43.67896" lon="1.26764">
        <ele>181.35</ele>
        <time>2021-08-18T12:49:45Z</time>
      </trkpt>
      <trkpt lat="43.67896" lon="1.26759">
        <ele>181.35</ele>
        <time>2021-08-18T12:49:46Z</time>
      </trkpt>
      <trkpt lat="43.67894" lon="1.26724">
        <ele>181.35</ele>
        <time>2021-08-18T12:49:52Z</time>
      </trkpt>
      <trkpt lat="43.67892" lon="1.26713">
        <ele>181.35</ele>
        <time>2021-08-18T12:49:54Z</time>
      </trkpt>
      <trkpt lat="43.6789" lon="1.26707">
        <ele>181.35</ele>
        <time>2021-08-18T12:49:55Z</time>
      </trkpt>
      <trkpt lat="43.67887" lon="1.26702">
        <ele>181.35</ele>
        <time>2021-08-18T12:49:56Z</time>
      </trkpt>
      <trkpt lat="43.67884" lon="1.26698">
        <ele>181.35</ele>
        <time>2021-08-18T12:49:57Z</time>
      </trkpt>
      <trkpt lat="43.6788" lon="1.26693">
        <ele>181.35</ele>
        <time>2021-08-18T12:49:58Z</time>
      </trkpt>
      <trkpt lat="43.67877" lon="1.26689">
        <ele>181.35</ele>
        <time>2021-08-18T12:49:59Z</time>
      </trkpt>
      <trkpt lat="43.67832" lon="1.26646">
        <ele>183.27</ele>
        <time>2021-08-18T12:50:11Z</time>
      </trkpt>
      <trkpt lat="43.67806" lon="1.26634">
        <ele>183.75</ele>
        <time>2021-08-18T12:50:17Z</time>
      </trkpt>
      <trkpt lat="43.67802" lon="1.26631">
        <ele>183.75</ele>
        <time>2021-08-18T12:50:18Z</time>
      </trkpt>
      <trkpt lat="43.67757" lon="1.26605">
        <ele>183.75</ele>
        <time>2021-08-18T12:50:27Z</time>
      </trkpt>
      <trkpt lat="43.67752" lon="1.26602">
        <ele>183.75</ele>
        <time>2021-08-18T12:50:28Z</time>
      </trkpt>
      <trkpt lat="43.67747" lon="1.26599">
        <ele>183.75</ele>
        <time>2021-08-18T12:50:29Z</time>
      </trkpt>
      <trkpt lat="43.67706" lon="1.26577">
        <ele>182.31</ele>
        <time>2021-08-18T12:50:37Z</time>
      </trkpt>
      <trkpt lat="43.67659" lon="1.26551">
        <ele>182.31</ele>
        <time>2021-08-18T12:50:46Z</time>
      </trkpt>
      <trkpt lat="43.67618" lon="1.26522">
        <ele>182.31</ele>
        <time>2021-08-18T12:50:54Z</time>
      </trkpt>
      <trkpt lat="43.67599" lon="1.26505">
        <ele>183.75</ele>
        <time>2021-08-18T12:50:58Z</time>
      </trkpt>
      <trkpt lat="43.67562" lon="1.26468">
        <ele>182.31</ele>
        <time>2021-08-18T12:51:06Z</time>
      </trkpt>
      <trkpt lat="43.67558" lon="1.26463">
        <ele>182.31</ele>
        <time>2021-08-18T12:51:07Z</time>
      </trkpt>
      <trkpt lat="43.67531" lon="1.26419">
        <ele>182.31</ele>
        <time>2021-08-18T12:51:14Z</time>
      </trkpt>
      <trkpt lat="43.67514" lon="1.26385">
        <ele>182.31</ele>
        <time>2021-08-18T12:51:19Z</time>
      </trkpt>
      <trkpt lat="43.67488" lon="1.26327">
        <ele>182.31</ele>
        <time>2021-08-18T12:51:27Z</time>
      </trkpt>
      <trkpt lat="43.67458" lon="1.26267">
        <ele>182.31</ele>
        <time>2021-08-18T12:51:36Z</time>
      </trkpt>
      <trkpt lat="43.67454" lon="1.26261">
        <ele>182.31</ele>
        <time>2021-08-18T12:51:37Z</time>
      </trkpt>
      <trkpt lat="43.67435" lon="1.26243">
        <ele>183.75</ele>
        <time>2021-08-18T12:51:41Z</time>
      </trkpt>
      <trkpt lat="43.67384" lon="1.26203">
        <ele>183.75</ele>
        <time>2021-08-18T12:51:51Z</time>
      </trkpt>
      <trkpt lat="43.67343" lon="1.26168">
        <ele>183.75</ele>
        <time>2021-08-18T12:52:00Z</time>
      </trkpt>
      <trkpt lat="43.67296" lon="1.26122">
        <ele>183.75</ele>
        <time>2021-08-18T12:52:10Z</time>
      </trkpt>
      <trkpt lat="43.6726" lon="1.2607">
        <ele>183.27</ele>
        <time>2021-08-18T12:52:19Z</time>
      </trkpt>
      <trkpt lat="43.67245" lon="1.26049">
        <ele>183.27</ele>
        <time>2021-08-18T12:52:23Z</time>
      </trkpt>
      <trkpt lat="43.67225" lon="1.26018">
        <ele>183.27</ele>
        <time>2021-08-18T12:52:29Z</time>
      </trkpt>
      <trkpt lat="43.67217" lon="1.26">
        <ele>183.27</ele>
        <time>2021-08-18T12:52:32Z</time>
      </trkpt>
      <trkpt lat="43.67209" lon="1.25971">
        <ele>183.27</ele>
        <time>2021-08-18T12:52:36Z</time>
      </trkpt>
      <trkpt lat="43.67199" lon="1.25923">
        <ele>183.27</ele>
        <time>2021-08-18T12:52:43Z</time>
      </trkpt>
      <trkpt lat="43.67194" lon="1.25899">
        <ele>183.27</ele>
        <time>2021-08-18T12:52:46Z</time>
      </trkpt>
      <trkpt lat="43.67191" lon="1.25893">
        <ele>183.27</ele>
        <time>2021-08-18T12:52:47Z</time>
      </trkpt>
      <trkpt lat="43.67187" lon="1.25888">
        <ele>183.27</ele>
        <time>2021-08-18T12:52:48Z</time>
      </trkpt>
      <trkpt lat="43.67182" lon="1.25885">
        <ele>183.27</ele>
        <time>2021-08-18T12:52:49Z</time>
      </trkpt>
      <trkpt lat="43.67177" lon="1.25884">
        <ele>183.27</ele>
        <time>2021-08-18T12:52:50Z</time>
      </trkpt>
      <trkpt lat="43.67171" lon="1.25884">
        <ele>183.27</ele>
        <time>2021-08-18T12:52:51Z</time>
      </trkpt>
      <trkpt lat="43.67101" lon="1.2588">
        <ele>183.27</ele>
        <time>2021-08-18T12:53:03Z</time>
      </trkpt>
      <trkpt lat="43.67055" lon="1.25877">
        <ele>182.79</ele>
        <time>2021-08-18T12:53:11Z</time>
      </trkpt>
      <trkpt lat="43.67036" lon="1.25877">
        <ele>182.79</ele>
        <time>2021-08-18T12:53:15Z</time>
      </trkpt>
      <trkpt lat="43.67032" lon="1.25876">
        <ele>182.79</ele>
        <time>2021-08-18T12:53:16Z</time>
      </trkpt>
      <trkpt lat="43.67028" lon="1.25872">
        <ele>184.23</ele>
        <time>2021-08-18T12:53:17Z</time>
      </trkpt>
      <trkpt lat="43.67026" lon="1.25867">
        <ele>184.23</ele>
        <time>2021-08-18T12:53:18Z</time>
      </trkpt>
      <trkpt lat="43.67024" lon="1.25861">
        <ele>184.23</ele>
        <time>2021-08-18T12:53:19Z</time>
      </trkpt>
      <trkpt lat="43.67022" lon="1.25855">
        <ele>184.23</ele>
        <time>2021-08-18T12:53:20Z</time>
      </trkpt>
      <trkpt lat="43.67021" lon="1.25848">
        <ele>184.23</ele>
        <time>2021-08-18T12:53:21Z</time>
      </trkpt>
      <trkpt lat="43.6701" lon="1.25797">
        <ele>184.23</ele>
        <time>2021-08-18T12:53:28Z</time>
      </trkpt>
      <trkpt lat="43.67008" lon="1.25782">
        <ele>184.23</ele>
        <time>2021-08-18T12:53:30Z</time>
      </trkpt>
      <trkpt lat="43.67001" lon="1.2571">
        <ele>184.23</ele>
        <time>2021-08-18T12:53:39Z</time>
      </trkpt>
      <trkpt lat="43.66998" lon="1.25672">
        <ele>184.23</ele>
        <time>2021-08-18T12:53:44Z</time>
      </trkpt>
      <trkpt lat="43.66997" lon="1.25653">
        <ele>184.71</ele>
        <time>2021-08-18T12:53:46Z</time>
      </trkpt>
      <trkpt lat="43.66994" lon="1.25631">
        <ele>184.71</ele>
        <time>2021-08-18T12:53:49Z</time>
      </trkpt>
      <trkpt lat="43.66989" lon="1.25563">
        <ele>184.71</ele>
        <time>2021-08-18T12:53:58Z</time>
      </trkpt>
      <trkpt lat="43.66983" lon="1.25491">
        <ele>185.19</ele>
        <time>2021-08-18T12:54:07Z</time>
      </trkpt>
      <trkpt lat="43.66983" lon="1.25438">
        <ele>187.11</ele>
        <time>2021-08-18T12:54:15Z</time>
      </trkpt>
      <trkpt lat="43.66984" lon="1.25409">
        <ele>187.59</ele>
        <time>2021-08-18T12:54:19Z</time>
      </trkpt>
      <trkpt lat="43.66985" lon="1.25403">
        <ele>187.11</ele>
        <time>2021-08-18T12:54:20Z</time>
      </trkpt>
      <trkpt lat="43.66985" lon="1.25396">
        <ele>187.11</ele>
        <time>2021-08-18T12:54:21Z</time>
      </trkpt>
      <trkpt lat="43.66986" lon="1.25376">
        <ele>187.11</ele>
        <time>2021-08-18T12:54:24Z</time>
      </trkpt>
      <trkpt lat="43.66986" lon="1.25355">
        <ele>187.59</ele>
        <time>2021-08-18T12:54:27Z</time>
      </trkpt>
      <trkpt lat="43.66987" lon="1.25348">
        <ele>188.08</ele>
        <time>2021-08-18T12:54:28Z</time>
      </trkpt>
      <trkpt lat="43.66987" lon="1.25341">
        <ele>188.08</ele>
        <time>2021-08-18T12:54:29Z</time>
      </trkpt>
      <trkpt lat="43.66987" lon="1.25334">
        <ele>188.08</ele>
        <time>2021-08-18T12:54:30Z</time>
      </trkpt>
      <trkpt lat="43.66987" lon="1.25327">
        <ele>188.56</ele>
        <time>2021-08-18T12:54:31Z</time>
      </trkpt>
      <trkpt lat="43.66986" lon="1.25321">
        <ele>188.56</ele>
        <time>2021-08-18T12:54:32Z</time>
      </trkpt>
      <trkpt lat="43.66984" lon="1.25304">
        <ele>189.52</ele>
        <time>2021-08-18T12:54:35Z</time>
      </trkpt>
      <trkpt lat="43.66983" lon="1.25298">
        <ele>189.52</ele>
        <time>2021-08-18T12:54:36Z</time>
      </trkpt>
      <trkpt lat="43.66974" lon="1.25271">
        <ele>189.52</ele>
        <time>2021-08-18T12:54:41Z</time>
      </trkpt>
      <trkpt lat="43.66971" lon="1.25266">
        <ele>190</ele>
        <time>2021-08-18T12:54:42Z</time>
      </trkpt>
      <trkpt lat="43.66959" lon="1.25243">
        <ele>190.48</ele>
        <time>2021-08-18T12:54:48Z</time>
      </trkpt>
      <trkpt lat="43.66957" lon="1.25237">
        <ele>190.48</ele>
        <time>2021-08-18T12:54:49Z</time>
      </trkpt>
      <trkpt lat="43.66946" lon="1.25212">
        <ele>190.48</ele>
        <time>2021-08-18T12:54:54Z</time>
      </trkpt>
      <trkpt lat="43.66925" lon="1.25168">
        <ele>190.48</ele>
        <time>2021-08-18T12:55:02Z</time>
      </trkpt>
      <trkpt lat="43.6691" lon="1.25138">
        <ele>190.48</ele>
        <time>2021-08-18T12:55:07Z</time>
      </trkpt>
      <trkpt lat="43.66883" lon="1.2508">
        <ele>190.48</ele>
        <time>2021-08-18T12:55:16Z</time>
      </trkpt>
      <trkpt lat="43.66854" lon="1.25019">
        <ele>190.48</ele>
        <time>2021-08-18T12:55:25Z</time>
      </trkpt>
      <trkpt lat="43.66851" lon="1.25013">
        <ele>190.48</ele>
        <time>2021-08-18T12:55:26Z</time>
      </trkpt>
      <trkpt lat="43.66818" lon="1.24944">
        <ele>190.48</ele>
        <time>2021-08-18T12:55:36Z</time>
      </trkpt>
      <trkpt lat="43.66781" lon="1.24884">
        <ele>190.48</ele>
        <time>2021-08-18T12:55:45Z</time>
      </trkpt>
      <trkpt lat="43.66742" lon="1.24825">
        <ele>190.48</ele>
        <time>2021-08-18T12:55:54Z</time>
      </trkpt>
      <trkpt lat="43.66706" lon="1.24772">
        <ele>190.48</ele>
        <time>2021-08-18T12:56:02Z</time>
      </trkpt>
      <trkpt lat="43.66665" lon="1.24715">
        <ele>190.48</ele>
        <time>2021-08-18T12:56:11Z</time>
      </trkpt>
      <trkpt lat="43.66639" lon="1.2465">
        <ele>190.48</ele>
        <time>2021-08-18T12:56:19Z</time>
      </trkpt>
      <trkpt lat="43.6661" lon="1.24559">
        <ele>190.48</ele>
        <time>2021-08-18T12:56:30Z</time>
      </trkpt>
      <trkpt lat="43.66602" lon="1.24523">
        <ele>189.04</ele>
        <time>2021-08-18T12:56:34Z</time>
      </trkpt>
      <trkpt lat="43.66582" lon="1.2445">
        <ele>188.56</ele>
        <time>2021-08-18T12:56:43Z</time>
      </trkpt>
      <trkpt lat="43.66555" lon="1.24372">
        <ele>188.56</ele>
        <time>2021-08-18T12:56:53Z</time>
      </trkpt>
      <trkpt lat="43.66546" lon="1.24349">
        <ele>190</ele>
        <time>2021-08-18T12:56:56Z</time>
      </trkpt>
      <trkpt lat="43.6652" lon="1.24271">
        <ele>190.48</ele>
        <time>2021-08-18T12:57:06Z</time>
      </trkpt>
      <trkpt lat="43.66503" lon="1.2422">
        <ele>190.48</ele>
        <time>2021-08-18T12:57:14Z</time>
      </trkpt>
      <trkpt lat="43.66482" lon="1.24164">
        <ele>190.48</ele>
        <time>2021-08-18T12:57:23Z</time>
      </trkpt>
      <trkpt lat="43.66479" lon="1.24158">
        <ele>190.48</ele>
        <time>2021-08-18T12:57:24Z</time>
      </trkpt>
      <trkpt lat="43.66457" lon="1.24122">
        <ele>190.48</ele>
        <time>2021-08-18T12:57:30Z</time>
      </trkpt>
      <trkpt lat="43.66419" lon="1.24084">
        <ele>190.48</ele>
        <time>2021-08-18T12:57:38Z</time>
      </trkpt>
      <trkpt lat="43.66377" lon="1.24035">
        <ele>190.96</ele>
        <time>2021-08-18T12:57:47Z</time>
      </trkpt>
      <trkpt lat="43.66337" lon="1.23983">
        <ele>190.96</ele>
        <time>2021-08-18T12:57:56Z</time>
      </trkpt>
      <trkpt lat="43.663" lon="1.23933">
        <ele>190.96</ele>
        <time>2021-08-18T12:58:05Z</time>
      </trkpt>
      <trkpt lat="43.66296" lon="1.23928">
        <ele>190.96</ele>
        <time>2021-08-18T12:58:06Z</time>
      </trkpt>
      <trkpt lat="43.66292" lon="1.23922">
        <ele>190.96</ele>
        <time>2021-08-18T12:58:07Z</time>
      </trkpt>
      <trkpt lat="43.66267" lon="1.23891">
        <ele>190.96</ele>
        <time>2021-08-18T12:58:13Z</time>
      </trkpt>
      <trkpt lat="43.66264" lon="1.23886">
        <ele>190.96</ele>
        <time>2021-08-18T12:58:14Z</time>
      </trkpt>
      <trkpt lat="43.66255" lon="1.2387">
        <ele>190.96</ele>
        <time>2021-08-18T12:58:17Z</time>
      </trkpt>
      <trkpt lat="43.66252" lon="1.23866">
        <ele>190.96</ele>
        <time>2021-08-18T12:58:18Z</time>
      </trkpt>
      <trkpt lat="43.6625" lon="1.23863">
        <ele>190.96</ele>
        <time>2021-08-18T12:58:19Z</time>
      </trkpt>
      <trkpt lat="43.66248" lon="1.23862">
        <ele>190.96</ele>
        <time>2021-08-18T12:58:20Z</time>
      </trkpt>
      <trkpt lat="43.66246" lon="1.23862">
        <ele>190.96</ele>
        <time>2021-08-18T12:58:21Z</time>
      </trkpt>
      <trkpt lat="43.66244" lon="1.23862">
        <ele>191.44</ele>
        <time>2021-08-18T12:58:22Z</time>
      </trkpt>
      <trkpt lat="43.66242" lon="1.23861">
        <ele>191.44</ele>
        <time>2021-08-18T12:58:23Z</time>
      </trkpt>
      <trkpt lat="43.6624" lon="1.23858">
        <ele>190.96</ele>
        <time>2021-08-18T12:58:24Z</time>
      </trkpt>
      <trkpt lat="43.66237" lon="1.23854">
        <ele>191.44</ele>
        <time>2021-08-18T12:58:25Z</time>
      </trkpt>
      <trkpt lat="43.66235" lon="1.2385">
        <ele>190.96</ele>
        <time>2021-08-18T12:58:26Z</time>
      </trkpt>
      <trkpt lat="43.66222" lon="1.23831">
        <ele>190.96</ele>
        <time>2021-08-18T12:58:30Z</time>
      </trkpt>
      <trkpt lat="43.66208" lon="1.23811">
        <ele>189.52</ele>
        <time>2021-08-18T12:58:34Z</time>
      </trkpt>
      <trkpt lat="43.66204" lon="1.23806">
        <ele>189.52</ele>
        <time>2021-08-18T12:58:35Z</time>
      </trkpt>
      <trkpt lat="43.66182" lon="1.2376">
        <ele>189.52</ele>
        <time>2021-08-18T12:58:43Z</time>
      </trkpt>
      <trkpt lat="43.66178" lon="1.23739">
        <ele>189.52</ele>
        <time>2021-08-18T12:58:46Z</time>
      </trkpt>
      <trkpt lat="43.66178" lon="1.23724">
        <ele>189.52</ele>
        <time>2021-08-18T12:58:48Z</time>
      </trkpt>
      <trkpt lat="43.66177" lon="1.23719">
        <ele>189.52</ele>
        <time>2021-08-18T12:58:49Z</time>
      </trkpt>
      <trkpt lat="43.66176" lon="1.23717">
        <ele>189.52</ele>
        <time>2021-08-18T12:58:50Z</time>
      </trkpt>
      <trkpt lat="43.66172" lon="1.23726">
        <ele>189.52</ele>
        <time>2021-08-18T12:58:53Z</time>
      </trkpt>
      <trkpt lat="43.66173" lon="1.23731">
        <ele>189.52</ele>
        <time>2021-08-18T12:58:54Z</time>
      </trkpt>
      <trkpt lat="43.66173" lon="1.23736">
        <ele>189.52</ele>
        <time>2021-08-18T12:58:55Z</time>
      </trkpt>
      <trkpt lat="43.66174" lon="1.2374">
        <ele>189.52</ele>
        <time>2021-08-18T12:58:56Z</time>
      </trkpt>
      <trkpt lat="43.66174" lon="1.23751">
        <ele>189.52</ele>
        <time>2021-08-18T12:58:58Z</time>
      </trkpt>
      <trkpt lat="43.66172" lon="1.23755">
        <ele>189.52</ele>
        <time>2021-08-18T12:58:59Z</time>
      </trkpt>
      <trkpt lat="43.66169" lon="1.23757">
        <ele>189.52</ele>
        <time>2021-08-18T12:59:00Z</time>
      </trkpt>
      <trkpt lat="43.66167" lon="1.23757">
        <ele>189.52</ele>
        <time>2021-08-18T12:59:01Z</time>
      </trkpt>
      <trkpt lat="43.66164" lon="1.23756">
        <ele>189.52</ele>
        <time>2021-08-18T12:59:02Z</time>
      </trkpt>
      <trkpt lat="43.66162" lon="1.23755">
        <ele>189.52</ele>
        <time>2021-08-18T12:59:03Z</time>
      </trkpt>
      <trkpt lat="43.66159" lon="1.23754">
        <ele>189.52</ele>
        <time>2021-08-18T12:59:04Z</time>
      </trkpt>
      <trkpt lat="43.66156" lon="1.23755">
        <ele>189.52</ele>
        <time>2021-08-18T12:59:05Z</time>
      </trkpt>
      <trkpt lat="43.66154" lon="1.23757">
        <ele>190.96</ele>
        <time>2021-08-18T12:59:06Z</time>
      </trkpt>
      <trkpt lat="43.66152" lon="1.23758">
        <ele>190.96</ele>
        <time>2021-08-18T12:59:07Z</time>
      </trkpt>
      <trkpt lat="43.66149" lon="1.23759">
        <ele>190.96</ele>
        <time>2021-08-18T12:59:08Z</time>
      </trkpt>
      <trkpt lat="43.66147" lon="1.23761">
        <ele>190.96</ele>
        <time>2021-08-18T12:59:09Z</time>
      </trkpt>
      <trkpt lat="43.66146" lon="1.23763">
        <ele>190.96</ele>
        <time>2021-08-18T12:59:10Z</time>
      </trkpt>
      <trkpt lat="43.66145" lon="1.23765">
        <ele>190.96</ele>
        <time>2021-08-18T12:59:11Z</time>
      </trkpt>
      <trkpt lat="43.66143" lon="1.23768">
        <ele>190.96</ele>
        <time>2021-08-18T12:59:12Z</time>
      </trkpt>
      <trkpt lat="43.66135" lon="1.23776">
        <ele>190.96</ele>
        <time>2021-08-18T12:59:15Z</time>
      </trkpt>
      <trkpt lat="43.66131" lon="1.23777">
        <ele>190.96</ele>
        <time>2021-08-18T12:59:16Z</time>
      </trkpt>
      <trkpt lat="43.66107" lon="1.23782">
        <ele>190.96</ele>
        <time>2021-08-18T12:59:23Z</time>
      </trkpt>
      <trkpt lat="43.66087" lon="1.2378">
        <ele>190.96</ele>
        <time>2021-08-18T12:59:29Z</time>
      </trkpt>
      <trkpt lat="43.66066" lon="1.23766">
        <ele>190.96</ele>
        <time>2021-08-18T12:59:36Z</time>
      </trkpt>
      <trkpt lat="43.66049" lon="1.23753">
        <ele>189.52</ele>
        <time>2021-08-18T12:59:41Z</time>
      </trkpt>
      <trkpt lat="43.66029" lon="1.23741">
        <ele>189.52</ele>
        <time>2021-08-18T12:59:46Z</time>
      </trkpt>
      <trkpt lat="43.6601" lon="1.23721">
        <ele>189.04</ele>
        <time>2021-08-18T12:59:52Z</time>
      </trkpt>
      <trkpt lat="43.65998" lon="1.23707">
        <ele>190.48</ele>
        <time>2021-08-18T12:59:57Z</time>
      </trkpt>
      <trkpt lat="43.65979" lon="1.23684">
        <ele>190.48</ele>
        <time>2021-08-18T13:00:03Z</time>
      </trkpt>
      <trkpt lat="43.65955" lon="1.23659">
        <ele>190.48</ele>
        <time>2021-08-18T13:00:10Z</time>
      </trkpt>
      <trkpt lat="43.65943" lon="1.23644">
        <ele>191.44</ele>
        <time>2021-08-18T13:00:16Z</time>
      </trkpt>
      <trkpt lat="43.65923" lon="1.23634">
        <ele>191.44</ele>
        <time>2021-08-18T13:00:23Z</time>
      </trkpt>
      <trkpt lat="43.65901" lon="1.23614">
        <ele>191.44</ele>
        <time>2021-08-18T13:00:30Z</time>
      </trkpt>
      <trkpt lat="43.65888" lon="1.23599">
        <ele>192.4</ele>
        <time>2021-08-18T13:00:37Z</time>
      </trkpt>
      <trkpt lat="43.65887" lon="1.23596">
        <ele>192.4</ele>
        <time>2021-08-18T13:00:42Z</time>
      </trkpt>
      <trkpt lat="43.65888" lon="1.23593">
        <ele>192.4</ele>
        <time>2021-08-18T13:01:02Z</time>
      </trkpt>
      <trkpt lat="43.6589" lon="1.23593">
        <ele>192.4</ele>
        <time>2021-08-18T13:01:23Z</time>
      </trkpt>
      <trkpt lat="43.65892" lon="1.23598">
        <ele>191.44</ele>
        <time>2021-08-18T13:01:44Z</time>
      </trkpt>
      <trkpt lat="43.6589" lon="1.23597">
        <ele>191.92</ele>
        <time>2021-08-18T13:02:03Z</time>
      </trkpt>
      <trkpt lat="43.65887" lon="1.23595">
        <ele>191.92</ele>
        <time>2021-08-18T13:02:20Z</time>
      </trkpt>
      <trkpt lat="43.65885" lon="1.23596">
        <ele>191.92</ele>
        <time>2021-08-18T13:02:46Z</time>
      </trkpt>
      <trkpt lat="43.65882" lon="1.2359">
        <ele>191.92</ele>
        <time>2021-08-18T13:03:10Z</time>
      </trkpt>
      <trkpt lat="43.65881" lon="1.23584">
        <ele>191.92</ele>
        <time>2021-08-18T13:03:34Z</time>
      </trkpt>
      <trkpt lat="43.6588" lon="1.23585">
        <ele>191.92</ele>
        <time>2021-08-18T13:03:57Z</time>
      </trkpt>
      <trkpt lat="43.65881" lon="1.23585">
        <ele>191.92</ele>
        <time>2021-08-18T13:04:12Z</time>
      </trkpt>
      <trkpt lat="43.65882" lon="1.23584">
        <ele>191.92</ele>
        <time>2021-08-18T13:04:14Z</time>
      </trkpt>
      <trkpt lat="43.65882" lon="1.23583">
        <ele>191.92</ele>
        <time>2021-08-18T13:04:20Z</time>
      </trkpt>
      <trkpt lat="43.65885" lon="1.23586">
        <ele>191.92</ele>
        <time>2021-08-18T13:04:42Z</time>
      </trkpt>
      <trkpt lat="43.65884" lon="1.23593">
        <ele>191.92</ele>
        <time>2021-08-18T13:05:05Z</time>
      </trkpt>
      <trkpt lat="43.65883" lon="1.2359">
        <ele>191.92</ele>
        <time>2021-08-18T13:05:22Z</time>
      </trkpt>
      <trkpt lat="43.65882" lon="1.23588">
        <ele>191.92</ele>
        <time>2021-08-18T13:05:45Z</time>
      </trkpt>
      <trkpt lat="43.6588" lon="1.23589">
        <ele>191.92</ele>
        <time>2021-08-18T13:05:59Z</time>
      </trkpt>
      <trkpt lat="43.65882" lon="1.23588">
        <ele>191.92</ele>
        <time>2021-08-18T13:06:15Z</time>
      </trkpt>
      <trkpt lat="43.65878" lon="1.23586">
        <ele>191.92</ele>
        <time>2021-08-18T13:06:38Z</time>
      </trkpt>
      <trkpt lat="43.65876" lon="1.23592">
        <ele>191.92</ele>
        <time>2021-08-18T13:07:02Z</time>
      </trkpt>
      <trkpt lat="43.65873" lon="1.23589">
        <ele>191.92</ele>
        <time>2021-08-18T13:07:18Z</time>
      </trkpt>
      <trkpt lat="43.65876" lon="1.23589">
        <ele>192.88</ele>
        <time>2021-08-18T13:07:39Z</time>
      </trkpt>
      <trkpt lat="43.65885" lon="1.23595">
        <ele>192.88</ele>
        <time>2021-08-18T13:08:03Z</time>
      </trkpt>
      <trkpt lat="43.65886" lon="1.23591">
        <ele>192.88</ele>
        <time>2021-08-18T13:08:25Z</time>
      </trkpt>
      <trkpt lat="43.65889" lon="1.23594">
        <ele>192.88</ele>
        <time>2021-08-18T13:08:45Z</time>
      </trkpt>
      <trkpt lat="43.65887" lon="1.23591">
        <ele>192.88</ele>
        <time>2021-08-18T13:09:06Z</time>
      </trkpt>
      <trkpt lat="43.65884" lon="1.23589">
        <ele>192.88</ele>
        <time>2021-08-18T13:09:13Z</time>
      </trkpt>
      <trkpt lat="43.65881" lon="1.23585">
        <ele>192.88</ele>
        <time>2021-08-18T13:09:25Z</time>
      </trkpt>
      <trkpt lat="43.65881" lon="1.23586">
        <ele>193.36</ele>
        <time>2021-08-18T13:09:46Z</time>
      </trkpt>
      <trkpt lat="43.6588" lon="1.23588">
        <ele>193.36</ele>
        <time>2021-08-18T13:09:57Z</time>
      </trkpt>
      <trkpt lat="43.65881" lon="1.23589">
        <ele>193.36</ele>
        <time>2021-08-18T13:10:11Z</time>
      </trkpt>
      <trkpt lat="43.65881" lon="1.23586">
        <ele>193.36</ele>
        <time>2021-08-18T13:10:25Z</time>
      </trkpt>
      <trkpt lat="43.65879" lon="1.23582">
        <ele>193.36</ele>
        <time>2021-08-18T13:10:43Z</time>
      </trkpt>
      <trkpt lat="43.65879" lon="1.2358">
        <ele>193.84</ele>
        <time>2021-08-18T13:11:05Z</time>
      </trkpt>
      <trkpt lat="43.65883" lon="1.23582">
        <ele>194.32</ele>
        <time>2021-08-18T13:11:31Z</time>
      </trkpt>
      <trkpt lat="43.65883" lon="1.23584">
        <ele>194.32</ele>
        <time>2021-08-18T13:11:48Z</time>
      </trkpt>
      <trkpt lat="43.65881" lon="1.23587">
        <ele>194.32</ele>
        <time>2021-08-18T13:12:07Z</time>
      </trkpt>
      <trkpt lat="43.65884" lon="1.23589">
        <ele>194.8</ele>
        <time>2021-08-18T13:12:33Z</time>
      </trkpt>
      <trkpt lat="43.65887" lon="1.23592">
        <ele>195.28</ele>
        <time>2021-08-18T13:12:52Z</time>
      </trkpt>
      <trkpt lat="43.65888" lon="1.23595">
        <ele>195.28</ele>
        <time>2021-08-18T13:13:15Z</time>
      </trkpt>
      <trkpt lat="43.65891" lon="1.23596">
        <ele>195.28</ele>
        <time>2021-08-18T13:13:37Z</time>
      </trkpt>
      <trkpt lat="43.65886" lon="1.23592">
        <ele>195.28</ele>
        <time>2021-08-18T13:13:51Z</time>
      </trkpt>
      <trkpt lat="43.65882" lon="1.23588">
        <ele>194.32</ele>
        <time>2021-08-18T13:14:08Z</time>
      </trkpt>
      <trkpt lat="43.65881" lon="1.23587">
        <ele>194.32</ele>
        <time>2021-08-18T13:14:18Z</time>
      </trkpt>
      <trkpt lat="43.65882" lon="1.23589">
        <ele>194.8</ele>
        <time>2021-08-18T13:14:33Z</time>
      </trkpt>
      <trkpt lat="43.65882" lon="1.23591">
        <ele>194.8</ele>
        <time>2021-08-18T13:14:50Z</time>
      </trkpt>
      <trkpt lat="43.65881" lon="1.23594">
        <ele>194.8</ele>
        <time>2021-08-18T13:15:05Z</time>
      </trkpt>
      <trkpt lat="43.65883" lon="1.23595">
        <ele>194.8</ele>
        <time>2021-08-18T13:15:23Z</time>
      </trkpt>
      <trkpt lat="43.65884" lon="1.23595">
        <ele>194.8</ele>
        <time>2021-08-18T13:15:42Z</time>
      </trkpt>
      <trkpt lat="43.65882" lon="1.23594">
        <ele>196.25</ele>
        <time>2021-08-18T13:15:57Z</time>
      </trkpt>
      <trkpt lat="43.6588" lon="1.23597">
        <ele>196.25</ele>
        <time>2021-08-18T13:16:11Z</time>
      </trkpt>
      <trkpt lat="43.65882" lon="1.23593">
        <ele>196.25</ele>
        <time>2021-08-18T13:16:23Z</time>
      </trkpt>
      <trkpt lat="43.65882" lon="1.23593">
        <ele>196.25</ele>
        <time>2021-08-18T13:16:29Z</time>
      </trkpt>
      <trkpt lat="43.65872" lon="1.23588">
        <ele>196.25</ele>
        <time>2021-08-18T13:16:35Z</time>
      </trkpt>
      <trkpt lat="43.65858" lon="1.23571">
        <ele>196.25</ele>
        <time>2021-08-18T13:16:41Z</time>
      </trkpt>
      <trkpt lat="43.65841" lon="1.2355">
        <ele>195.28</ele>
        <time>2021-08-18T13:16:48Z</time>
      </trkpt>
      <trkpt lat="43.6582" lon="1.23525">
        <ele>195.28</ele>
        <time>2021-08-18T13:16:58Z</time>
      </trkpt>
      <trkpt lat="43.65819" lon="1.23522">
        <ele>195.28</ele>
        <time>2021-08-18T13:16:59Z</time>
      </trkpt>
      <trkpt lat="43.65818" lon="1.2352">
        <ele>195.28</ele>
        <time>2021-08-18T13:17:00Z</time>
      </trkpt>
      <trkpt lat="43.65817" lon="1.23519">
        <ele>195.28</ele>
        <time>2021-08-18T13:17:01Z</time>
      </trkpt>
      <trkpt lat="43.65815" lon="1.23517">
        <ele>195.28</ele>
        <time>2021-08-18T13:17:02Z</time>
      </trkpt>
      <trkpt lat="43.65814" lon="1.23514">
        <ele>195.28</ele>
        <time>2021-08-18T13:17:03Z</time>
      </trkpt>
      <trkpt lat="43.65812" lon="1.23512">
        <ele>195.28</ele>
        <time>2021-08-18T13:17:04Z</time>
      </trkpt>
      <trkpt lat="43.65811" lon="1.23509">
        <ele>195.28</ele>
        <time>2021-08-18T13:17:05Z</time>
      </trkpt>
      <trkpt lat="43.65809" lon="1.23507">
        <ele>195.28</ele>
        <time>2021-08-18T13:17:06Z</time>
      </trkpt>
      <trkpt lat="43.65807" lon="1.23505">
        <ele>195.28</ele>
        <time>2021-08-18T13:17:07Z</time>
      </trkpt>
      <trkpt lat="43.65806" lon="1.23503">
        <ele>195.28</ele>
        <time>2021-08-18T13:17:08Z</time>
      </trkpt>
      <trkpt lat="43.65804" lon="1.235">
        <ele>195.28</ele>
        <time>2021-08-18T13:17:09Z</time>
      </trkpt>
      <trkpt lat="43.65798" lon="1.2349">
        <ele>194.8</ele>
        <time>2021-08-18T13:17:12Z</time>
      </trkpt>
      <trkpt lat="43.65797" lon="1.23486">
        <ele>194.8</ele>
        <time>2021-08-18T13:17:13Z</time>
      </trkpt>
      <trkpt lat="43.65796" lon="1.23482">
        <ele>194.8</ele>
        <time>2021-08-18T13:17:14Z</time>
      </trkpt>
      <trkpt lat="43.65794" lon="1.23479">
        <ele>194.8</ele>
        <time>2021-08-18T13:17:15Z</time>
      </trkpt>
      <trkpt lat="43.65792" lon="1.23477">
        <ele>194.8</ele>
        <time>2021-08-18T13:17:16Z</time>
      </trkpt>
      <trkpt lat="43.65791" lon="1.23474">
        <ele>194.8</ele>
        <time>2021-08-18T13:17:17Z</time>
      </trkpt>
      <trkpt lat="43.65789" lon="1.23471">
        <ele>194.8</ele>
        <time>2021-08-18T13:17:18Z</time>
      </trkpt>
      <trkpt lat="43.65787" lon="1.23468">
        <ele>194.8</ele>
        <time>2021-08-18T13:17:19Z</time>
      </trkpt>
      <trkpt lat="43.65774" lon="1.23451">
        <ele>194.8</ele>
        <time>2021-08-18T13:17:24Z</time>
      </trkpt>
      <trkpt lat="43.6576" lon="1.2343">
        <ele>194.8</ele>
        <time>2021-08-18T13:17:30Z</time>
      </trkpt>
      <trkpt lat="43.65743" lon="1.23409">
        <ele>194.8</ele>
        <time>2021-08-18T13:17:36Z</time>
      </trkpt>
      <trkpt lat="43.65733" lon="1.23396">
        <ele>196.25</ele>
        <time>2021-08-18T13:17:39Z</time>
      </trkpt>
      <trkpt lat="43.65717" lon="1.23376">
        <ele>196.25</ele>
        <time>2021-08-18T13:17:44Z</time>
      </trkpt>
      <trkpt lat="43.65698" lon="1.23351">
        <ele>196.25</ele>
        <time>2021-08-18T13:17:51Z</time>
      </trkpt>
      <trkpt lat="43.65694" lon="1.23344">
        <ele>196.25</ele>
        <time>2021-08-18T13:17:53Z</time>
      </trkpt>
      <trkpt lat="43.65692" lon="1.2334">
        <ele>196.25</ele>
        <time>2021-08-18T13:17:54Z</time>
      </trkpt>
      <trkpt lat="43.6569" lon="1.23337">
        <ele>196.25</ele>
        <time>2021-08-18T13:17:55Z</time>
      </trkpt>
      <trkpt lat="43.65687" lon="1.23333">
        <ele>196.25</ele>
        <time>2021-08-18T13:17:56Z</time>
      </trkpt>
      <trkpt lat="43.65685" lon="1.2333">
        <ele>196.25</ele>
        <time>2021-08-18T13:17:57Z</time>
      </trkpt>
      <trkpt lat="43.65683" lon="1.23326">
        <ele>196.25</ele>
        <time>2021-08-18T13:17:58Z</time>
      </trkpt>
      <trkpt lat="43.6568" lon="1.23322">
        <ele>196.73</ele>
        <time>2021-08-18T13:17:59Z</time>
      </trkpt>
      <trkpt lat="43.6567" lon="1.23303">
        <ele>197.21</ele>
        <time>2021-08-18T13:18:03Z</time>
      </trkpt>
      <trkpt lat="43.65668" lon="1.23297">
        <ele>197.21</ele>
        <time>2021-08-18T13:18:04Z</time>
      </trkpt>
      <trkpt lat="43.65658" lon="1.23268">
        <ele>197.21</ele>
        <time>2021-08-18T13:18:10Z</time>
      </trkpt>
      <trkpt lat="43.65644" lon="1.23238">
        <ele>197.21</ele>
        <time>2021-08-18T13:18:16Z</time>
      </trkpt>
      <trkpt lat="43.65641" lon="1.23233">
        <ele>197.21</ele>
        <time>2021-08-18T13:18:17Z</time>
      </trkpt>
      <trkpt lat="43.65638" lon="1.23227">
        <ele>197.21</ele>
        <time>2021-08-18T13:18:18Z</time>
      </trkpt>
      <trkpt lat="43.65636" lon="1.23222">
        <ele>197.21</ele>
        <time>2021-08-18T13:18:19Z</time>
      </trkpt>
      <trkpt lat="43.65626" lon="1.23206">
        <ele>197.21</ele>
        <time>2021-08-18T13:18:22Z</time>
      </trkpt>
      <trkpt lat="43.65604" lon="1.23153">
        <ele>196.25</ele>
        <time>2021-08-18T13:18:31Z</time>
      </trkpt>
      <trkpt lat="43.65591" lon="1.23125">
        <ele>196.25</ele>
        <time>2021-08-18T13:18:36Z</time>
      </trkpt>
      <trkpt lat="43.65588" lon="1.2312">
        <ele>196.25</ele>
        <time>2021-08-18T13:18:37Z</time>
      </trkpt>
      <trkpt lat="43.65584" lon="1.23116">
        <ele>196.25</ele>
        <time>2021-08-18T13:18:38Z</time>
      </trkpt>
      <trkpt lat="43.65581" lon="1.23113">
        <ele>196.25</ele>
        <time>2021-08-18T13:18:39Z</time>
      </trkpt>
      <trkpt lat="43.65577" lon="1.23109">
        <ele>196.25</ele>
        <time>2021-08-18T13:18:40Z</time>
      </trkpt>
      <trkpt lat="43.65573" lon="1.23106">
        <ele>196.25</ele>
        <time>2021-08-18T13:18:41Z</time>
      </trkpt>
      <trkpt lat="43.65569" lon="1.23104">
        <ele>196.25</ele>
        <time>2021-08-18T13:18:42Z</time>
      </trkpt>
      <trkpt lat="43.65565" lon="1.23103">
        <ele>196.25</ele>
        <time>2021-08-18T13:18:43Z</time>
      </trkpt>
      <trkpt lat="43.65543" lon="1.23091">
        <ele>196.25</ele>
        <time>2021-08-18T13:18:49Z</time>
      </trkpt>
      <trkpt lat="43.65532" lon="1.23085">
        <ele>197.69</ele>
        <time>2021-08-18T13:18:52Z</time>
      </trkpt>
      <trkpt lat="43.6552" lon="1.23063">
        <ele>197.69</ele>
        <time>2021-08-18T13:18:57Z</time>
      </trkpt>
      <trkpt lat="43.65518" lon="1.23057">
        <ele>197.69</ele>
        <time>2021-08-18T13:18:58Z</time>
      </trkpt>
      <trkpt lat="43.65515" lon="1.23053">
        <ele>197.69</ele>
        <time>2021-08-18T13:18:59Z</time>
      </trkpt>
      <trkpt lat="43.65511" lon="1.23049">
        <ele>197.69</ele>
        <time>2021-08-18T13:19:00Z</time>
      </trkpt>
      <trkpt lat="43.65504" lon="1.2304">
        <ele>197.69</ele>
        <time>2021-08-18T13:19:02Z</time>
      </trkpt>
      <trkpt lat="43.65501" lon="1.23035">
        <ele>197.69</ele>
        <time>2021-08-18T13:19:03Z</time>
      </trkpt>
      <trkpt lat="43.65499" lon="1.2303">
        <ele>197.69</ele>
        <time>2021-08-18T13:19:04Z</time>
      </trkpt>
      <trkpt lat="43.65496" lon="1.23026">
        <ele>197.69</ele>
        <time>2021-08-18T13:19:05Z</time>
      </trkpt>
      <trkpt lat="43.65492" lon="1.23021">
        <ele>197.69</ele>
        <time>2021-08-18T13:19:06Z</time>
      </trkpt>
      <trkpt lat="43.65488" lon="1.23018">
        <ele>197.69</ele>
        <time>2021-08-18T13:19:07Z</time>
      </trkpt>
      <trkpt lat="43.65484" lon="1.23014">
        <ele>196.25</ele>
        <time>2021-08-18T13:19:08Z</time>
      </trkpt>
      <trkpt lat="43.65477" lon="1.23006">
        <ele>196.25</ele>
        <time>2021-08-18T13:19:10Z</time>
      </trkpt>
      <trkpt lat="43.65473" lon="1.23003">
        <ele>196.25</ele>
        <time>2021-08-18T13:19:11Z</time>
      </trkpt>
      <trkpt lat="43.6547" lon="1.23001">
        <ele>196.25</ele>
        <time>2021-08-18T13:19:12Z</time>
      </trkpt>
      <trkpt lat="43.65467" lon="1.22997">
        <ele>196.25</ele>
        <time>2021-08-18T13:19:13Z</time>
      </trkpt>
      <trkpt lat="43.65464" lon="1.22992">
        <ele>196.25</ele>
        <time>2021-08-18T13:19:14Z</time>
      </trkpt>
      <trkpt lat="43.65462" lon="1.22986">
        <ele>196.25</ele>
        <time>2021-08-18T13:19:15Z</time>
      </trkpt>
      <trkpt lat="43.65445" lon="1.22956">
        <ele>196.25</ele>
        <time>2021-08-18T13:19:21Z</time>
      </trkpt>
      <trkpt lat="43.65442" lon="1.22953">
        <ele>196.25</ele>
        <time>2021-08-18T13:19:22Z</time>
      </trkpt>
      <trkpt lat="43.65437" lon="1.22951">
        <ele>196.25</ele>
        <time>2021-08-18T13:19:23Z</time>
      </trkpt>
      <trkpt lat="43.65433" lon="1.22949">
        <ele>196.25</ele>
        <time>2021-08-18T13:19:24Z</time>
      </trkpt>
      <trkpt lat="43.65429" lon="1.22946">
        <ele>196.25</ele>
        <time>2021-08-18T13:19:25Z</time>
      </trkpt>
      <trkpt lat="43.65426" lon="1.22941">
        <ele>196.25</ele>
        <time>2021-08-18T13:19:26Z</time>
      </trkpt>
      <trkpt lat="43.65423" lon="1.22936">
        <ele>196.25</ele>
        <time>2021-08-18T13:19:27Z</time>
      </trkpt>
      <trkpt lat="43.65421" lon="1.22931">
        <ele>196.25</ele>
        <time>2021-08-18T13:19:28Z</time>
      </trkpt>
      <trkpt lat="43.65406" lon="1.22899">
        <ele>196.25</ele>
        <time>2021-08-18T13:19:34Z</time>
      </trkpt>
      <trkpt lat="43.65404" lon="1.22894">
        <ele>196.25</ele>
        <time>2021-08-18T13:19:35Z</time>
      </trkpt>
      <trkpt lat="43.65398" lon="1.2288">
        <ele>196.25</ele>
        <time>2021-08-18T13:19:38Z</time>
      </trkpt>
      <trkpt lat="43.65394" lon="1.22878">
        <ele>196.25</ele>
        <time>2021-08-18T13:19:39Z</time>
      </trkpt>
      <trkpt lat="43.6539" lon="1.22875">
        <ele>196.25</ele>
        <time>2021-08-18T13:19:40Z</time>
      </trkpt>
      <trkpt lat="43.65386" lon="1.22873">
        <ele>197.69</ele>
        <time>2021-08-18T13:19:41Z</time>
      </trkpt>
      <trkpt lat="43.65382" lon="1.2287">
        <ele>197.69</ele>
        <time>2021-08-18T13:19:42Z</time>
      </trkpt>
      <trkpt lat="43.65379" lon="1.22866">
        <ele>197.69</ele>
        <time>2021-08-18T13:19:43Z</time>
      </trkpt>
      <trkpt lat="43.65378" lon="1.22863">
        <ele>197.69</ele>
        <time>2021-08-18T13:19:44Z</time>
      </trkpt>
      <trkpt lat="43.65367" lon="1.22836">
        <ele>198.17</ele>
        <time>2021-08-18T13:19:49Z</time>
      </trkpt>
      <trkpt lat="43.65357" lon="1.2282">
        <ele>199.13</ele>
        <time>2021-08-18T13:19:54Z</time>
      </trkpt>
      <trkpt lat="43.65344" lon="1.22803">
        <ele>200.09</ele>
        <time>2021-08-18T13:20:00Z</time>
      </trkpt>
      <trkpt lat="43.65326" lon="1.2278">
        <ele>200.57</ele>
        <time>2021-08-18T13:20:07Z</time>
      </trkpt>
      <trkpt lat="43.65308" lon="1.22762">
        <ele>200.57</ele>
        <time>2021-08-18T13:20:13Z</time>
      </trkpt>
      <trkpt lat="43.65285" lon="1.22748">
        <ele>200.57</ele>
        <time>2021-08-18T13:20:19Z</time>
      </trkpt>
      <trkpt lat="43.65273" lon="1.22728">
        <ele>200.57</ele>
        <time>2021-08-18T13:20:24Z</time>
      </trkpt>
      <trkpt lat="43.65266" lon="1.22719">
        <ele>200.57</ele>
        <time>2021-08-18T13:20:26Z</time>
      </trkpt>
      <trkpt lat="43.65261" lon="1.22716">
        <ele>200.57</ele>
        <time>2021-08-18T13:20:27Z</time>
      </trkpt>
      <trkpt lat="43.65256" lon="1.22714">
        <ele>200.57</ele>
        <time>2021-08-18T13:20:28Z</time>
      </trkpt>
      <trkpt lat="43.65234" lon="1.22706">
        <ele>200.57</ele>
        <time>2021-08-18T13:20:33Z</time>
      </trkpt>
      <trkpt lat="43.6523" lon="1.22706">
        <ele>199.61</ele>
        <time>2021-08-18T13:20:34Z</time>
      </trkpt>
      <trkpt lat="43.65227" lon="1.22708">
        <ele>199.61</ele>
        <time>2021-08-18T13:20:35Z</time>
      </trkpt>
      <trkpt lat="43.65224" lon="1.22711">
        <ele>199.61</ele>
        <time>2021-08-18T13:20:36Z</time>
      </trkpt>
      <trkpt lat="43.65206" lon="1.22732">
        <ele>199.13</ele>
        <time>2021-08-18T13:20:42Z</time>
      </trkpt>
      <trkpt lat="43.65177" lon="1.22759">
        <ele>198.17</ele>
        <time>2021-08-18T13:20:48Z</time>
      </trkpt>
      <trkpt lat="43.65168" lon="1.22769">
        <ele>198.17</ele>
        <time>2021-08-18T13:20:50Z</time>
      </trkpt>
      <trkpt lat="43.65136" lon="1.228">
        <ele>197.69</ele>
        <time>2021-08-18T13:20:57Z</time>
      </trkpt>
      <trkpt lat="43.6511" lon="1.22826">
        <ele>197.21</ele>
        <time>2021-08-18T13:21:03Z</time>
      </trkpt>
      <trkpt lat="43.65101" lon="1.22833">
        <ele>197.21</ele>
        <time>2021-08-18T13:21:05Z</time>
      </trkpt>
      <trkpt lat="43.65079" lon="1.22858">
        <ele>197.21</ele>
        <time>2021-08-18T13:21:11Z</time>
      </trkpt>
      <trkpt lat="43.65071" lon="1.22865">
        <ele>198.65</ele>
        <time>2021-08-18T13:21:13Z</time>
      </trkpt>
      <trkpt lat="43.65049" lon="1.22886">
        <ele>198.65</ele>
        <time>2021-08-18T13:21:18Z</time>
      </trkpt>
      <trkpt lat="43.65045" lon="1.22889">
        <ele>198.65</ele>
        <time>2021-08-18T13:21:19Z</time>
      </trkpt>
      <trkpt lat="43.6504" lon="1.22892">
        <ele>198.65</ele>
        <time>2021-08-18T13:21:20Z</time>
      </trkpt>
      <trkpt lat="43.65036" lon="1.22896">
        <ele>198.65</ele>
        <time>2021-08-18T13:21:21Z</time>
      </trkpt>
      <trkpt lat="43.65032" lon="1.229">
        <ele>199.13</ele>
        <time>2021-08-18T13:21:22Z</time>
      </trkpt>
      <trkpt lat="43.65008" lon="1.22927">
        <ele>199.13</ele>
        <time>2021-08-18T13:21:29Z</time>
      </trkpt>
      <trkpt lat="43.64988" lon="1.22947">
        <ele>199.61</ele>
        <time>2021-08-18T13:21:35Z</time>
      </trkpt>
      <trkpt lat="43.64968" lon="1.22972">
        <ele>200.09</ele>
        <time>2021-08-18T13:21:42Z</time>
      </trkpt>
      <trkpt lat="43.64948" lon="1.22997">
        <ele>201.05</ele>
        <time>2021-08-18T13:21:49Z</time>
      </trkpt>
      <trkpt lat="43.64929" lon="1.23021">
        <ele>202.01</ele>
        <time>2021-08-18T13:21:57Z</time>
      </trkpt>
      <trkpt lat="43.64912" lon="1.23041">
        <ele>202.98</ele>
        <time>2021-08-18T13:22:03Z</time>
      </trkpt>
      <trkpt lat="43.64884" lon="1.23067">
        <ele>203.94</ele>
        <time>2021-08-18T13:22:11Z</time>
      </trkpt>
      <trkpt lat="43.64865" lon="1.23086">
        <ele>203.94</ele>
        <time>2021-08-18T13:22:17Z</time>
      </trkpt>
      <trkpt lat="43.64842" lon="1.2311">
        <ele>204.9</ele>
        <time>2021-08-18T13:22:25Z</time>
      </trkpt>
      <trkpt lat="43.64819" lon="1.23136">
        <ele>205.38</ele>
        <time>2021-08-18T13:22:32Z</time>
      </trkpt>
      <trkpt lat="43.64796" lon="1.2316">
        <ele>206.34</ele>
        <time>2021-08-18T13:22:40Z</time>
      </trkpt>
      <trkpt lat="43.64772" lon="1.23176">
        <ele>206.82</ele>
        <time>2021-08-18T13:22:46Z</time>
      </trkpt>
      <trkpt lat="43.64765" lon="1.23175">
        <ele>207.3</ele>
        <time>2021-08-18T13:22:48Z</time>
      </trkpt>
      <trkpt lat="43.64762" lon="1.23173">
        <ele>207.3</ele>
        <time>2021-08-18T13:22:49Z</time>
      </trkpt>
      <trkpt lat="43.64747" lon="1.23149">
        <ele>208.26</ele>
        <time>2021-08-18T13:22:56Z</time>
      </trkpt>
      <trkpt lat="43.6473" lon="1.23124">
        <ele>208.74</ele>
        <time>2021-08-18T13:23:03Z</time>
      </trkpt>
      <trkpt lat="43.64702" lon="1.23079">
        <ele>209.22</ele>
        <time>2021-08-18T13:23:13Z</time>
      </trkpt>
      <trkpt lat="43.64677" lon="1.23038">
        <ele>209.22</ele>
        <time>2021-08-18T13:23:21Z</time>
      </trkpt>
      <trkpt lat="43.64644" lon="1.22982">
        <ele>209.22</ele>
        <time>2021-08-18T13:23:31Z</time>
      </trkpt>
      <trkpt lat="43.64611" lon="1.22926">
        <ele>209.22</ele>
        <time>2021-08-18T13:23:41Z</time>
      </trkpt>
      <trkpt lat="43.6458" lon="1.22872">
        <ele>209.7</ele>
        <time>2021-08-18T13:23:51Z</time>
      </trkpt>
      <trkpt lat="43.64543" lon="1.2281">
        <ele>210.19</ele>
        <time>2021-08-18T13:24:03Z</time>
      </trkpt>
      <trkpt lat="43.64515" lon="1.22763">
        <ele>210.67</ele>
        <time>2021-08-18T13:24:12Z</time>
      </trkpt>
      <trkpt lat="43.64494" lon="1.22725">
        <ele>210.67</ele>
        <time>2021-08-18T13:24:19Z</time>
      </trkpt>
      <trkpt lat="43.64463" lon="1.22675">
        <ele>211.63</ele>
        <time>2021-08-18T13:24:29Z</time>
      </trkpt>
      <trkpt lat="43.6445" lon="1.22655">
        <ele>211.63</ele>
        <time>2021-08-18T13:24:33Z</time>
      </trkpt>
      <trkpt lat="43.64422" lon="1.22609">
        <ele>213.07</ele>
        <time>2021-08-18T13:24:42Z</time>
      </trkpt>
      <trkpt lat="43.64397" lon="1.22573">
        <ele>213.07</ele>
        <time>2021-08-18T13:24:50Z</time>
      </trkpt>
      <trkpt lat="43.64394" lon="1.22569">
        <ele>213.07</ele>
        <time>2021-08-18T13:24:51Z</time>
      </trkpt>
      <trkpt lat="43.64392" lon="1.22564">
        <ele>213.07</ele>
        <time>2021-08-18T13:24:52Z</time>
      </trkpt>
      <trkpt lat="43.64379" lon="1.22543">
        <ele>213.07</ele>
        <time>2021-08-18T13:24:57Z</time>
      </trkpt>
      <trkpt lat="43.64376" lon="1.22539">
        <ele>213.07</ele>
        <time>2021-08-18T13:24:58Z</time>
      </trkpt>
      <trkpt lat="43.64364" lon="1.22517">
        <ele>213.07</ele>
        <time>2021-08-18T13:25:03Z</time>
      </trkpt>
      <trkpt lat="43.64361" lon="1.22513">
        <ele>214.03</ele>
        <time>2021-08-18T13:25:04Z</time>
      </trkpt>
      <trkpt lat="43.64343" lon="1.22482">
        <ele>214.51</ele>
        <time>2021-08-18T13:25:11Z</time>
      </trkpt>
      <trkpt lat="43.64327" lon="1.22454">
        <ele>214.51</ele>
        <time>2021-08-18T13:25:17Z</time>
      </trkpt>
      <trkpt lat="43.6431" lon="1.22426">
        <ele>214.51</ele>
        <time>2021-08-18T13:25:23Z</time>
      </trkpt>
      <trkpt lat="43.6429" lon="1.22396">
        <ele>214.99</ele>
        <time>2021-08-18T13:25:30Z</time>
      </trkpt>
      <trkpt lat="43.64264" lon="1.22355">
        <ele>214.99</ele>
        <time>2021-08-18T13:25:38Z</time>
      </trkpt>
      <trkpt lat="43.64254" lon="1.22338">
        <ele>214.99</ele>
        <time>2021-08-18T13:25:41Z</time>
      </trkpt>
      <trkpt lat="43.64228" lon="1.22295">
        <ele>214.99</ele>
        <time>2021-08-18T13:25:49Z</time>
      </trkpt>
      <trkpt lat="43.64222" lon="1.22286">
        <ele>215.47</ele>
        <time>2021-08-18T13:25:51Z</time>
      </trkpt>
      <trkpt lat="43.64219" lon="1.22281">
        <ele>215.47</ele>
        <time>2021-08-18T13:25:52Z</time>
      </trkpt>
      <trkpt lat="43.64198" lon="1.22246">
        <ele>215.47</ele>
        <time>2021-08-18T13:25:59Z</time>
      </trkpt>
      <trkpt lat="43.64176" lon="1.22212">
        <ele>216.43</ele>
        <time>2021-08-18T13:26:07Z</time>
      </trkpt>
      <trkpt lat="43.64167" lon="1.222">
        <ele>216.91</ele>
        <time>2021-08-18T13:26:12Z</time>
      </trkpt>
      <trkpt lat="43.64145" lon="1.22181">
        <ele>216.91</ele>
        <time>2021-08-18T13:26:19Z</time>
      </trkpt>
      <trkpt lat="43.64134" lon="1.2217">
        <ele>216.91</ele>
        <time>2021-08-18T13:26:22Z</time>
      </trkpt>
      <trkpt lat="43.64105" lon="1.22145">
        <ele>216.91</ele>
        <time>2021-08-18T13:26:30Z</time>
      </trkpt>
      <trkpt lat="43.64085" lon="1.22128">
        <ele>217.4</ele>
        <time>2021-08-18T13:26:35Z</time>
      </trkpt>
      <trkpt lat="43.6408" lon="1.22125">
        <ele>217.4</ele>
        <time>2021-08-18T13:26:36Z</time>
      </trkpt>
      <trkpt lat="43.64053" lon="1.22102">
        <ele>217.4</ele>
        <time>2021-08-18T13:26:43Z</time>
      </trkpt>
      <trkpt lat="43.64025" lon="1.22078">
        <ele>217.88</ele>
        <time>2021-08-18T13:26:51Z</time>
      </trkpt>
      <trkpt lat="43.63996" lon="1.22053">
        <ele>220.28</ele>
        <time>2021-08-18T13:27:01Z</time>
      </trkpt>
      <trkpt lat="43.63971" lon="1.22033">
        <ele>221.24</ele>
        <time>2021-08-18T13:27:10Z</time>
      </trkpt>
      <trkpt lat="43.63946" lon="1.22014">
        <ele>223.16</ele>
        <time>2021-08-18T13:27:19Z</time>
      </trkpt>
      <trkpt lat="43.63929" lon="1.21998">
        <ele>224.12</ele>
        <time>2021-08-18T13:27:26Z</time>
      </trkpt>
      <trkpt lat="43.63905" lon="1.21978">
        <ele>226.05</ele>
        <time>2021-08-18T13:27:35Z</time>
      </trkpt>
      <trkpt lat="43.63884" lon="1.2196">
        <ele>227.49</ele>
        <time>2021-08-18T13:27:43Z</time>
      </trkpt>
      <trkpt lat="43.63861" lon="1.2194">
        <ele>228.93</ele>
        <time>2021-08-18T13:27:52Z</time>
      </trkpt>
      <trkpt lat="43.63839" lon="1.21922">
        <ele>230.37</ele>
        <time>2021-08-18T13:28:01Z</time>
      </trkpt>
      <trkpt lat="43.63818" lon="1.21905">
        <ele>231.33</ele>
        <time>2021-08-18T13:28:10Z</time>
      </trkpt>
      <trkpt lat="43.63796" lon="1.21886">
        <ele>232.78</ele>
        <time>2021-08-18T13:28:19Z</time>
      </trkpt>
      <trkpt lat="43.63774" lon="1.21866">
        <ele>232.78</ele>
        <time>2021-08-18T13:28:26Z</time>
      </trkpt>
      <trkpt lat="43.63747" lon="1.21843">
        <ele>232.78</ele>
        <time>2021-08-18T13:28:33Z</time>
      </trkpt>
      <trkpt lat="43.6371" lon="1.21813">
        <ele>232.3</ele>
        <time>2021-08-18T13:28:41Z</time>
      </trkpt>
      <trkpt lat="43.63675" lon="1.21782">
        <ele>232.78</ele>
        <time>2021-08-18T13:28:49Z</time>
      </trkpt>
      <trkpt lat="43.6364" lon="1.21754">
        <ele>232.78</ele>
        <time>2021-08-18T13:28:57Z</time>
      </trkpt>
      <trkpt lat="43.63616" lon="1.21733">
        <ele>233.26</ele>
        <time>2021-08-18T13:29:03Z</time>
      </trkpt>
      <trkpt lat="43.636" lon="1.21719">
        <ele>233.26</ele>
        <time>2021-08-18T13:29:07Z</time>
      </trkpt>
      <trkpt lat="43.63596" lon="1.21716">
        <ele>233.26</ele>
        <time>2021-08-18T13:29:08Z</time>
      </trkpt>
      <trkpt lat="43.63592" lon="1.21713">
        <ele>233.26</ele>
        <time>2021-08-18T13:29:09Z</time>
      </trkpt>
      <trkpt lat="43.63588" lon="1.21709">
        <ele>233.26</ele>
        <time>2021-08-18T13:29:10Z</time>
      </trkpt>
      <trkpt lat="43.63584" lon="1.21706">
        <ele>233.26</ele>
        <time>2021-08-18T13:29:11Z</time>
      </trkpt>
      <trkpt lat="43.63552" lon="1.21678">
        <ele>233.74</ele>
        <time>2021-08-18T13:29:18Z</time>
      </trkpt>
      <trkpt lat="43.63515" lon="1.21645">
        <ele>233.74</ele>
        <time>2021-08-18T13:29:26Z</time>
      </trkpt>
      <trkpt lat="43.63477" lon="1.21613">
        <ele>233.74</ele>
        <time>2021-08-18T13:29:34Z</time>
      </trkpt>
      <trkpt lat="43.6344" lon="1.21582">
        <ele>233.74</ele>
        <time>2021-08-18T13:29:42Z</time>
      </trkpt>
      <trkpt lat="43.63392" lon="1.21544">
        <ele>233.74</ele>
        <time>2021-08-18T13:29:51Z</time>
      </trkpt>
      <trkpt lat="43.63361" lon="1.21519">
        <ele>232.78</ele>
        <time>2021-08-18T13:29:58Z</time>
      </trkpt>
      <trkpt lat="43.63357" lon="1.21516">
        <ele>232.78</ele>
        <time>2021-08-18T13:29:59Z</time>
      </trkpt>
      <trkpt lat="43.63337" lon="1.21498">
        <ele>232.78</ele>
        <time>2021-08-18T13:30:04Z</time>
      </trkpt>
      <trkpt lat="43.63333" lon="1.21494">
        <ele>232.78</ele>
        <time>2021-08-18T13:30:05Z</time>
      </trkpt>
      <trkpt lat="43.63317" lon="1.2148">
        <ele>232.78</ele>
        <time>2021-08-18T13:30:09Z</time>
      </trkpt>
      <trkpt lat="43.63312" lon="1.21476">
        <ele>232.78</ele>
        <time>2021-08-18T13:30:10Z</time>
      </trkpt>
      <trkpt lat="43.63308" lon="1.21472">
        <ele>232.78</ele>
        <time>2021-08-18T13:30:11Z</time>
      </trkpt>
      <trkpt lat="43.63303" lon="1.21468">
        <ele>232.78</ele>
        <time>2021-08-18T13:30:12Z</time>
      </trkpt>
      <trkpt lat="43.63299" lon="1.21464">
        <ele>232.78</ele>
        <time>2021-08-18T13:30:13Z</time>
      </trkpt>
      <trkpt lat="43.63258" lon="1.21429">
        <ele>232.78</ele>
        <time>2021-08-18T13:30:22Z</time>
      </trkpt>
      <trkpt lat="43.6324" lon="1.21415">
        <ele>233.74</ele>
        <time>2021-08-18T13:30:26Z</time>
      </trkpt>
      <trkpt lat="43.63208" lon="1.21388">
        <ele>234.7</ele>
        <time>2021-08-18T13:30:34Z</time>
      </trkpt>
      <trkpt lat="43.63203" lon="1.21385">
        <ele>234.7</ele>
        <time>2021-08-18T13:30:35Z</time>
      </trkpt>
      <trkpt lat="43.63168" lon="1.21357">
        <ele>235.18</ele>
        <time>2021-08-18T13:30:43Z</time>
      </trkpt>
      <trkpt lat="43.63164" lon="1.21354">
        <ele>235.18</ele>
        <time>2021-08-18T13:30:44Z</time>
      </trkpt>
      <trkpt lat="43.63128" lon="1.21324">
        <ele>236.14</ele>
        <time>2021-08-18T13:30:53Z</time>
      </trkpt>
      <trkpt lat="43.63085" lon="1.21289">
        <ele>237.1</ele>
        <time>2021-08-18T13:31:04Z</time>
      </trkpt>
      <trkpt lat="43.63056" lon="1.21265">
        <ele>238.54</ele>
        <time>2021-08-18T13:31:12Z</time>
      </trkpt>
      <trkpt lat="43.63027" lon="1.21241">
        <ele>239.51</ele>
        <time>2021-08-18T13:31:20Z</time>
      </trkpt>
      <trkpt lat="43.62987" lon="1.21207">
        <ele>239.99</ele>
        <time>2021-08-18T13:31:30Z</time>
      </trkpt>
      <trkpt lat="43.62958" lon="1.21184">
        <ele>240.47</ele>
        <time>2021-08-18T13:31:37Z</time>
      </trkpt>
      <trkpt lat="43.6293" lon="1.2116">
        <ele>240.47</ele>
        <time>2021-08-18T13:31:44Z</time>
      </trkpt>
      <trkpt lat="43.62895" lon="1.2113">
        <ele>240.95</ele>
        <time>2021-08-18T13:31:52Z</time>
      </trkpt>
      <trkpt lat="43.62859" lon="1.211">
        <ele>240.95</ele>
        <time>2021-08-18T13:32:00Z</time>
      </trkpt>
      <trkpt lat="43.62824" lon="1.21071">
        <ele>240.47</ele>
        <time>2021-08-18T13:32:08Z</time>
      </trkpt>
      <trkpt lat="43.62797" lon="1.21049">
        <ele>241.43</ele>
        <time>2021-08-18T13:32:14Z</time>
      </trkpt>
      <trkpt lat="43.62764" lon="1.2102">
        <ele>241.43</ele>
        <time>2021-08-18T13:32:22Z</time>
      </trkpt>
      <trkpt lat="43.62742" lon="1.21">
        <ele>241.91</ele>
        <time>2021-08-18T13:32:27Z</time>
      </trkpt>
      <trkpt lat="43.62716" lon="1.20979">
        <ele>241.91</ele>
        <time>2021-08-18T13:32:33Z</time>
      </trkpt>
      <trkpt lat="43.62695" lon="1.20961">
        <ele>241.91</ele>
        <time>2021-08-18T13:32:38Z</time>
      </trkpt>
      <trkpt lat="43.6269" lon="1.20957">
        <ele>241.91</ele>
        <time>2021-08-18T13:32:39Z</time>
      </trkpt>
      <trkpt lat="43.62672" lon="1.20942">
        <ele>241.91</ele>
        <time>2021-08-18T13:32:43Z</time>
      </trkpt>
      <trkpt lat="43.62653" lon="1.20925">
        <ele>241.91</ele>
        <time>2021-08-18T13:32:47Z</time>
      </trkpt>
      <trkpt lat="43.62649" lon="1.20922">
        <ele>241.91</ele>
        <time>2021-08-18T13:32:48Z</time>
      </trkpt>
      <trkpt lat="43.62628" lon="1.20905">
        <ele>241.91</ele>
        <time>2021-08-18T13:32:53Z</time>
      </trkpt>
      <trkpt lat="43.62624" lon="1.20901">
        <ele>241.91</ele>
        <time>2021-08-18T13:32:54Z</time>
      </trkpt>
      <trkpt lat="43.62602" lon="1.20884">
        <ele>241.91</ele>
        <time>2021-08-18T13:32:59Z</time>
      </trkpt>
      <trkpt lat="43.62599" lon="1.20881">
        <ele>241.91</ele>
        <time>2021-08-18T13:33:00Z</time>
      </trkpt>
      <trkpt lat="43.62595" lon="1.20877">
        <ele>243.35</ele>
        <time>2021-08-18T13:33:01Z</time>
      </trkpt>
      <trkpt lat="43.62591" lon="1.20874">
        <ele>241.43</ele>
        <time>2021-08-18T13:33:02Z</time>
      </trkpt>
      <trkpt lat="43.6258" lon="1.20865">
        <ele>241.43</ele>
        <time>2021-08-18T13:33:05Z</time>
      </trkpt>
      <trkpt lat="43.62576" lon="1.20862">
        <ele>241.43</ele>
        <time>2021-08-18T13:33:06Z</time>
      </trkpt>
      <trkpt lat="43.62539" lon="1.20832">
        <ele>241.43</ele>
        <time>2021-08-18T13:33:15Z</time>
      </trkpt>
      <trkpt lat="43.62523" lon="1.2082">
        <ele>241.43</ele>
        <time>2021-08-18T13:33:19Z</time>
      </trkpt>
      <trkpt lat="43.62516" lon="1.20813">
        <ele>241.43</ele>
        <time>2021-08-18T13:33:21Z</time>
      </trkpt>
      <trkpt lat="43.62507" lon="1.20806">
        <ele>241.43</ele>
        <time>2021-08-18T13:33:23Z</time>
      </trkpt>
      <trkpt lat="43.62475" lon="1.20777">
        <ele>241.43</ele>
        <time>2021-08-18T13:33:31Z</time>
      </trkpt>
      <trkpt lat="43.62467" lon="1.20771">
        <ele>241.43</ele>
        <time>2021-08-18T13:33:33Z</time>
      </trkpt>
      <trkpt lat="43.62463" lon="1.20767">
        <ele>241.43</ele>
        <time>2021-08-18T13:33:34Z</time>
      </trkpt>
      <trkpt lat="43.62455" lon="1.2076">
        <ele>241.43</ele>
        <time>2021-08-18T13:33:36Z</time>
      </trkpt>
      <trkpt lat="43.6245" lon="1.20757">
        <ele>241.43</ele>
        <time>2021-08-18T13:33:37Z</time>
      </trkpt>
      <trkpt lat="43.62444" lon="1.20753">
        <ele>241.43</ele>
        <time>2021-08-18T13:33:38Z</time>
      </trkpt>
      <trkpt lat="43.62439" lon="1.20749">
        <ele>241.43</ele>
        <time>2021-08-18T13:33:39Z</time>
      </trkpt>
      <trkpt lat="43.62427" lon="1.20738">
        <ele>241.43</ele>
        <time>2021-08-18T13:33:42Z</time>
      </trkpt>
      <trkpt lat="43.62397" lon="1.20715">
        <ele>241.43</ele>
        <time>2021-08-18T13:33:49Z</time>
      </trkpt>
      <trkpt lat="43.62367" lon="1.20689">
        <ele>241.43</ele>
        <time>2021-08-18T13:33:56Z</time>
      </trkpt>
      <trkpt lat="43.62336" lon="1.20663">
        <ele>242.87</ele>
        <time>2021-08-18T13:34:04Z</time>
      </trkpt>
      <trkpt lat="43.62305" lon="1.20634">
        <ele>239.99</ele>
        <time>2021-08-18T13:34:11Z</time>
      </trkpt>
      <trkpt lat="43.62291" lon="1.20622">
        <ele>239.02</ele>
        <time>2021-08-18T13:34:13Z</time>
      </trkpt>
      <trkpt lat="43.62251" lon="1.20587">
        <ele>235.18</ele>
        <time>2021-08-18T13:34:19Z</time>
      </trkpt>
      <trkpt lat="43.62209" lon="1.20554">
        <ele>232.78</ele>
        <time>2021-08-18T13:34:24Z</time>
      </trkpt>
      <trkpt lat="43.62174" lon="1.20525">
        <ele>230.37</ele>
        <time>2021-08-18T13:34:28Z</time>
      </trkpt>
      <trkpt lat="43.62141" lon="1.20498">
        <ele>232.3</ele>
        <time>2021-08-18T13:34:33Z</time>
      </trkpt>
      <trkpt lat="43.62123" lon="1.20483">
        <ele>233.74</ele>
        <time>2021-08-18T13:34:37Z</time>
      </trkpt>
      <trkpt lat="43.62088" lon="1.20456">
        <ele>235.66</ele>
        <time>2021-08-18T13:34:46Z</time>
      </trkpt>
      <trkpt lat="43.62057" lon="1.2043">
        <ele>235.66</ele>
        <time>2021-08-18T13:34:52Z</time>
      </trkpt>
      <trkpt lat="43.62046" lon="1.2042">
        <ele>234.22</ele>
        <time>2021-08-18T13:34:54Z</time>
      </trkpt>
      <trkpt lat="43.6202" lon="1.20399">
        <ele>233.74</ele>
        <time>2021-08-18T13:34:59Z</time>
      </trkpt>
      <trkpt lat="43.62015" lon="1.20395">
        <ele>233.74</ele>
        <time>2021-08-18T13:35:00Z</time>
      </trkpt>
      <trkpt lat="43.61993" lon="1.20377">
        <ele>235.66</ele>
        <time>2021-08-18T13:35:06Z</time>
      </trkpt>
      <trkpt lat="43.61975" lon="1.20363">
        <ele>237.58</ele>
        <time>2021-08-18T13:35:13Z</time>
      </trkpt>
      <trkpt lat="43.61956" lon="1.20346">
        <ele>239.02</ele>
        <time>2021-08-18T13:35:20Z</time>
      </trkpt>
      <trkpt lat="43.61931" lon="1.20325">
        <ele>239.99</ele>
        <time>2021-08-18T13:35:29Z</time>
      </trkpt>
      <trkpt lat="43.61905" lon="1.20302">
        <ele>241.91</ele>
        <time>2021-08-18T13:35:38Z</time>
      </trkpt>
      <trkpt lat="43.61877" lon="1.20278">
        <ele>243.35</ele>
        <time>2021-08-18T13:35:47Z</time>
      </trkpt>
      <trkpt lat="43.61854" lon="1.20258">
        <ele>243.83</ele>
        <time>2021-08-18T13:35:54Z</time>
      </trkpt>
      <trkpt lat="43.6185" lon="1.20256">
        <ele>243.83</ele>
        <time>2021-08-18T13:35:55Z</time>
      </trkpt>
      <trkpt lat="43.61821" lon="1.2023">
        <ele>244.31</ele>
        <time>2021-08-18T13:36:03Z</time>
      </trkpt>
      <trkpt lat="43.61814" lon="1.20224">
        <ele>244.31</ele>
        <time>2021-08-18T13:36:05Z</time>
      </trkpt>
      <trkpt lat="43.61782" lon="1.20199">
        <ele>244.31</ele>
        <time>2021-08-18T13:36:13Z</time>
      </trkpt>
      <trkpt lat="43.61752" lon="1.20173">
        <ele>244.31</ele>
        <time>2021-08-18T13:36:21Z</time>
      </trkpt>
      <trkpt lat="43.61722" lon="1.20149">
        <ele>241.43</ele>
        <time>2021-08-18T13:36:28Z</time>
      </trkpt>
      <trkpt lat="43.61699" lon="1.2013">
        <ele>238.54</ele>
        <time>2021-08-18T13:36:32Z</time>
      </trkpt>
      <trkpt lat="43.61686" lon="1.20118">
        <ele>237.58</ele>
        <time>2021-08-18T13:36:34Z</time>
      </trkpt>
      <trkpt lat="43.61665" lon="1.20101">
        <ele>235.66</ele>
        <time>2021-08-18T13:36:37Z</time>
      </trkpt>
      <trkpt lat="43.61632" lon="1.20074">
        <ele>231.81</ele>
        <time>2021-08-18T13:36:41Z</time>
      </trkpt>
      <trkpt lat="43.61606" lon="1.20052">
        <ele>228.93</ele>
        <time>2021-08-18T13:36:44Z</time>
      </trkpt>
      <trkpt lat="43.61571" lon="1.20023">
        <ele>225.57</ele>
        <time>2021-08-18T13:36:48Z</time>
      </trkpt>
      <trkpt lat="43.61557" lon="1.20011">
        <ele>224.61</ele>
        <time>2021-08-18T13:36:50Z</time>
      </trkpt>
      <trkpt lat="43.61541" lon="1.19998">
        <ele>223.64</ele>
        <time>2021-08-18T13:36:53Z</time>
      </trkpt>
      <trkpt lat="43.6153" lon="1.19988">
        <ele>222.68</ele>
        <time>2021-08-18T13:36:56Z</time>
      </trkpt>
      <trkpt lat="43.61499" lon="1.19962">
        <ele>221.72</ele>
        <time>2021-08-18T13:37:03Z</time>
      </trkpt>
      <trkpt lat="43.6146" lon="1.19931">
        <ele>221.72</ele>
        <time>2021-08-18T13:37:11Z</time>
      </trkpt>
      <trkpt lat="43.61427" lon="1.19902">
        <ele>223.16</ele>
        <time>2021-08-18T13:37:18Z</time>
      </trkpt>
      <trkpt lat="43.61409" lon="1.19888">
        <ele>224.12</ele>
        <time>2021-08-18T13:37:22Z</time>
      </trkpt>
      <trkpt lat="43.61405" lon="1.19884">
        <ele>224.12</ele>
        <time>2021-08-18T13:37:23Z</time>
      </trkpt>
      <trkpt lat="43.61375" lon="1.19859">
        <ele>225.09</ele>
        <time>2021-08-18T13:37:31Z</time>
      </trkpt>
      <trkpt lat="43.61353" lon="1.19841">
        <ele>226.53</ele>
        <time>2021-08-18T13:37:39Z</time>
      </trkpt>
      <trkpt lat="43.61333" lon="1.19824">
        <ele>227.49</ele>
        <time>2021-08-18T13:37:48Z</time>
      </trkpt>
      <trkpt lat="43.61312" lon="1.19806">
        <ele>228.45</ele>
        <time>2021-08-18T13:37:57Z</time>
      </trkpt>
      <trkpt lat="43.61294" lon="1.1979">
        <ele>229.89</ele>
        <time>2021-08-18T13:38:06Z</time>
      </trkpt>
      <trkpt lat="43.61277" lon="1.19778">
        <ele>231.33</ele>
        <time>2021-08-18T13:38:15Z</time>
      </trkpt>
      <trkpt lat="43.6126" lon="1.19762">
        <ele>232.78</ele>
        <time>2021-08-18T13:38:25Z</time>
      </trkpt>
      <trkpt lat="43.61243" lon="1.19749">
        <ele>233.74</ele>
        <time>2021-08-18T13:38:34Z</time>
      </trkpt>
      <trkpt lat="43.61223" lon="1.19733">
        <ele>235.18</ele>
        <time>2021-08-18T13:38:45Z</time>
      </trkpt>
      <trkpt lat="43.6121" lon="1.19722">
        <ele>236.62</ele>
        <time>2021-08-18T13:38:53Z</time>
      </trkpt>
      <trkpt lat="43.61195" lon="1.19709">
        <ele>237.58</ele>
        <time>2021-08-18T13:39:01Z</time>
      </trkpt>
      <trkpt lat="43.61178" lon="1.19696">
        <ele>239.02</ele>
        <time>2021-08-18T13:39:08Z</time>
      </trkpt>
      <trkpt lat="43.61159" lon="1.1968">
        <ele>240.47</ele>
        <time>2021-08-18T13:39:16Z</time>
      </trkpt>
      <trkpt lat="43.61133" lon="1.19658">
        <ele>241.91</ele>
        <time>2021-08-18T13:39:25Z</time>
      </trkpt>
      <trkpt lat="43.61106" lon="1.19637">
        <ele>243.35</ele>
        <time>2021-08-18T13:39:33Z</time>
      </trkpt>
      <trkpt lat="43.61095" lon="1.19628">
        <ele>242.87</ele>
        <time>2021-08-18T13:39:36Z</time>
      </trkpt>
      <trkpt lat="43.61066" lon="1.19605">
        <ele>243.83</ele>
        <time>2021-08-18T13:39:44Z</time>
      </trkpt>
      <trkpt lat="43.61032" lon="1.19577">
        <ele>244.79</ele>
        <time>2021-08-18T13:39:53Z</time>
      </trkpt>
      <trkpt lat="43.61" lon="1.19552">
        <ele>245.27</ele>
        <time>2021-08-18T13:40:01Z</time>
      </trkpt>
      <trkpt lat="43.60963" lon="1.19522">
        <ele>245.27</ele>
        <time>2021-08-18T13:40:09Z</time>
      </trkpt>
      <trkpt lat="43.60921" lon="1.19488">
        <ele>244.31</ele>
        <time>2021-08-18T13:40:17Z</time>
      </trkpt>
      <trkpt lat="43.60873" lon="1.19449">
        <ele>244.31</ele>
        <time>2021-08-18T13:40:26Z</time>
      </trkpt>
      <trkpt lat="43.60832" lon="1.19415">
        <ele>245.27</ele>
        <time>2021-08-18T13:40:34Z</time>
      </trkpt>
      <trkpt lat="43.60827" lon="1.19411">
        <ele>245.27</ele>
        <time>2021-08-18T13:40:35Z</time>
      </trkpt>
      <trkpt lat="43.60808" lon="1.19396">
        <ele>245.75</ele>
        <time>2021-08-18T13:40:39Z</time>
      </trkpt>
      <trkpt lat="43.60769" lon="1.19364">
        <ele>245.75</ele>
        <time>2021-08-18T13:40:47Z</time>
      </trkpt>
      <trkpt lat="43.60724" lon="1.19327">
        <ele>246.72</ele>
        <time>2021-08-18T13:40:56Z</time>
      </trkpt>
      <trkpt lat="43.60675" lon="1.19286">
        <ele>247.2</ele>
        <time>2021-08-18T13:41:06Z</time>
      </trkpt>
      <trkpt lat="43.60634" lon="1.19253">
        <ele>246.72</ele>
        <time>2021-08-18T13:41:14Z</time>
      </trkpt>
      <trkpt lat="43.60591" lon="1.19217">
        <ele>245.27</ele>
        <time>2021-08-18T13:41:22Z</time>
      </trkpt>
      <trkpt lat="43.60557" lon="1.1919">
        <ele>241.91</ele>
        <time>2021-08-18T13:41:27Z</time>
      </trkpt>
      <trkpt lat="43.6051" lon="1.19152">
        <ele>238.54</ele>
        <time>2021-08-18T13:41:33Z</time>
      </trkpt>
      <trkpt lat="43.60468" lon="1.19118">
        <ele>235.66</ele>
        <time>2021-08-18T13:41:38Z</time>
      </trkpt>
      <trkpt lat="43.60433" lon="1.19089">
        <ele>238.54</ele>
        <time>2021-08-18T13:41:43Z</time>
      </trkpt>
      <trkpt lat="43.60427" lon="1.19085">
        <ele>238.54</ele>
        <time>2021-08-18T13:41:44Z</time>
      </trkpt>
      <trkpt lat="43.604" lon="1.19063">
        <ele>240.95</ele>
        <time>2021-08-18T13:41:50Z</time>
      </trkpt>
      <trkpt lat="43.60368" lon="1.19037">
        <ele>242.87</ele>
        <time>2021-08-18T13:41:59Z</time>
      </trkpt>
      <trkpt lat="43.60335" lon="1.19011">
        <ele>240.47</ele>
        <time>2021-08-18T13:42:06Z</time>
      </trkpt>
      <trkpt lat="43.60292" lon="1.18974">
        <ele>237.58</ele>
        <time>2021-08-18T13:42:13Z</time>
      </trkpt>
      <trkpt lat="43.60235" lon="1.18928">
        <ele>234.22</ele>
        <time>2021-08-18T13:42:21Z</time>
      </trkpt>
      <trkpt lat="43.60185" lon="1.18888">
        <ele>233.26</ele>
        <time>2021-08-18T13:42:28Z</time>
      </trkpt>
      <trkpt lat="43.60167" lon="1.18874">
        <ele>236.62</ele>
        <time>2021-08-18T13:42:31Z</time>
      </trkpt>
      <trkpt lat="43.60157" lon="1.18866">
        <ele>237.1</ele>
        <time>2021-08-18T13:42:33Z</time>
      </trkpt>
      <trkpt lat="43.6014" lon="1.18853">
        <ele>239.51</ele>
        <time>2021-08-18T13:42:38Z</time>
      </trkpt>
      <trkpt lat="43.60124" lon="1.18839">
        <ele>240.95</ele>
        <time>2021-08-18T13:42:46Z</time>
      </trkpt>
      <trkpt lat="43.601" lon="1.18823">
        <ele>242.87</ele>
        <time>2021-08-18T13:42:57Z</time>
      </trkpt>
      <trkpt lat="43.60084" lon="1.18809">
        <ele>245.27</ele>
        <time>2021-08-18T13:43:05Z</time>
      </trkpt>
      <trkpt lat="43.60062" lon="1.18791">
        <ele>246.72</ele>
        <time>2021-08-18T13:43:16Z</time>
      </trkpt>
      <trkpt lat="43.60044" lon="1.18778">
        <ele>248.16</ele>
        <time>2021-08-18T13:43:25Z</time>
      </trkpt>
      <trkpt lat="43.60028" lon="1.18764">
        <ele>250.08</ele>
        <time>2021-08-18T13:43:33Z</time>
      </trkpt>
      <trkpt lat="43.60003" lon="1.18744">
        <ele>250.08</ele>
        <time>2021-08-18T13:43:41Z</time>
      </trkpt>
      <trkpt lat="43.59969" lon="1.18717">
        <ele>249.6</ele>
        <time>2021-08-18T13:43:49Z</time>
      </trkpt>
      <trkpt lat="43.59953" lon="1.18704">
        <ele>248.16</ele>
        <time>2021-08-18T13:43:52Z</time>
      </trkpt>
      <trkpt lat="43.59909" lon="1.18668">
        <ele>247.68</ele>
        <time>2021-08-18T13:44:00Z</time>
      </trkpt>
      <trkpt lat="43.59886" lon="1.1865">
        <ele>249.12</ele>
        <time>2021-08-18T13:44:04Z</time>
      </trkpt>
      <trkpt lat="43.5987" lon="1.18635">
        <ele>249.12</ele>
        <time>2021-08-18T13:44:07Z</time>
      </trkpt>
      <trkpt lat="43.59864" lon="1.1863">
        <ele>249.12</ele>
        <time>2021-08-18T13:44:08Z</time>
      </trkpt>
      <trkpt lat="43.59835" lon="1.18605">
        <ele>247.68</ele>
        <time>2021-08-18T13:44:13Z</time>
      </trkpt>
      <trkpt lat="43.59776" lon="1.18558">
        <ele>247.68</ele>
        <time>2021-08-18T13:44:23Z</time>
      </trkpt>
      <trkpt lat="43.59751" lon="1.18537">
        <ele>247.68</ele>
        <time>2021-08-18T13:44:28Z</time>
      </trkpt>
      <trkpt lat="43.59736" lon="1.18526">
        <ele>249.12</ele>
        <time>2021-08-18T13:44:31Z</time>
      </trkpt>
      <trkpt lat="43.59732" lon="1.18522">
        <ele>249.12</ele>
        <time>2021-08-18T13:44:32Z</time>
      </trkpt>
      <trkpt lat="43.59715" lon="1.18508">
        <ele>249.12</ele>
        <time>2021-08-18T13:44:36Z</time>
      </trkpt>
      <trkpt lat="43.59711" lon="1.18504">
        <ele>249.12</ele>
        <time>2021-08-18T13:44:37Z</time>
      </trkpt>
      <trkpt lat="43.59707" lon="1.18499">
        <ele>249.12</ele>
        <time>2021-08-18T13:44:38Z</time>
      </trkpt>
      <trkpt lat="43.59704" lon="1.18492">
        <ele>249.12</ele>
        <time>2021-08-18T13:44:39Z</time>
      </trkpt>
      <trkpt lat="43.59703" lon="1.18485">
        <ele>249.12</ele>
        <time>2021-08-18T13:44:40Z</time>
      </trkpt>
      <trkpt lat="43.59703" lon="1.18476">
        <ele>249.12</ele>
        <time>2021-08-18T13:44:41Z</time>
      </trkpt>
      <trkpt lat="43.59704" lon="1.1847">
        <ele>249.12</ele>
        <time>2021-08-18T13:44:42Z</time>
      </trkpt>
      <trkpt lat="43.59705" lon="1.18451">
        <ele>249.12</ele>
        <time>2021-08-18T13:44:45Z</time>
      </trkpt>
      <trkpt lat="43.59706" lon="1.18439">
        <ele>249.12</ele>
        <time>2021-08-18T13:44:47Z</time>
      </trkpt>
      <trkpt lat="43.59707" lon="1.18432">
        <ele>249.12</ele>
        <time>2021-08-18T13:44:48Z</time>
      </trkpt>
      <trkpt lat="43.59709" lon="1.18426">
        <ele>248.16</ele>
        <time>2021-08-18T13:44:49Z</time>
      </trkpt>
      <trkpt lat="43.59711" lon="1.1842">
        <ele>248.16</ele>
        <time>2021-08-18T13:44:50Z</time>
      </trkpt>
      <trkpt lat="43.59713" lon="1.18416">
        <ele>248.16</ele>
        <time>2021-08-18T13:44:51Z</time>
      </trkpt>
      <trkpt lat="43.59716" lon="1.18408">
        <ele>249.6</ele>
        <time>2021-08-18T13:44:53Z</time>
      </trkpt>
      <trkpt lat="43.59729" lon="1.18377">
        <ele>251.52</ele>
        <time>2021-08-18T13:45:01Z</time>
      </trkpt>
      <trkpt lat="43.59737" lon="1.18343">
        <ele>252.48</ele>
        <time>2021-08-18T13:45:08Z</time>
      </trkpt>
      <trkpt lat="43.5974" lon="1.18312">
        <ele>253.93</ele>
        <time>2021-08-18T13:45:16Z</time>
      </trkpt>
      <trkpt lat="43.59742" lon="1.18291">
        <ele>254.89</ele>
        <time>2021-08-18T13:45:23Z</time>
      </trkpt>
      <trkpt lat="43.59744" lon="1.1827">
        <ele>255.85</ele>
        <time>2021-08-18T13:45:31Z</time>
      </trkpt>
      <trkpt lat="43.59746" lon="1.18252">
        <ele>257.29</ele>
        <time>2021-08-18T13:45:39Z</time>
      </trkpt>
      <trkpt lat="43.59749" lon="1.18233">
        <ele>258.25</ele>
        <time>2021-08-18T13:45:48Z</time>
      </trkpt>
      <trkpt lat="43.59749" lon="1.18231">
        <ele>258.25</ele>
        <time>2021-08-18T13:45:49Z</time>
      </trkpt>
      <trkpt lat="43.59749" lon="1.18229">
        <ele>258.25</ele>
        <time>2021-08-18T13:45:50Z</time>
      </trkpt>
      <trkpt lat="43.59749" lon="1.18227">
        <ele>258.73</ele>
        <time>2021-08-18T13:45:51Z</time>
      </trkpt>
      <trkpt lat="43.5975" lon="1.18225">
        <ele>258.73</ele>
        <time>2021-08-18T13:45:52Z</time>
      </trkpt>
      <trkpt lat="43.5975" lon="1.18223">
        <ele>258.73</ele>
        <time>2021-08-18T13:45:53Z</time>
      </trkpt>
      <trkpt lat="43.5975" lon="1.1822">
        <ele>258.73</ele>
        <time>2021-08-18T13:45:54Z</time>
      </trkpt>
      <trkpt lat="43.59751" lon="1.18218">
        <ele>259.69</ele>
        <time>2021-08-18T13:45:55Z</time>
      </trkpt>
      <trkpt lat="43.59751" lon="1.18215">
        <ele>259.69</ele>
        <time>2021-08-18T13:45:56Z</time>
      </trkpt>
      <trkpt lat="43.59751" lon="1.18213">
        <ele>259.69</ele>
        <time>2021-08-18T13:45:57Z</time>
      </trkpt>
      <trkpt lat="43.59752" lon="1.18211">
        <ele>259.69</ele>
        <time>2021-08-18T13:45:58Z</time>
      </trkpt>
      <trkpt lat="43.59752" lon="1.18209">
        <ele>259.69</ele>
        <time>2021-08-18T13:45:59Z</time>
      </trkpt>
      <trkpt lat="43.59753" lon="1.18207">
        <ele>259.69</ele>
        <time>2021-08-18T13:46:00Z</time>
      </trkpt>
      <trkpt lat="43.59757" lon="1.18189">
        <ele>262.1</ele>
        <time>2021-08-18T13:46:09Z</time>
      </trkpt>
      <trkpt lat="43.59758" lon="1.18184">
        <ele>262.58</ele>
        <time>2021-08-18T13:46:12Z</time>
      </trkpt>
      <trkpt lat="43.59758" lon="1.18182">
        <ele>263.06</ele>
        <time>2021-08-18T13:46:13Z</time>
      </trkpt>
      <trkpt lat="43.59757" lon="1.1818">
        <ele>263.06</ele>
        <time>2021-08-18T13:46:14Z</time>
      </trkpt>
      <trkpt lat="43.59753" lon="1.18161">
        <ele>264.5</ele>
        <time>2021-08-18T13:46:22Z</time>
      </trkpt>
      <trkpt lat="43.5975" lon="1.18137">
        <ele>265.46</ele>
        <time>2021-08-18T13:46:29Z</time>
      </trkpt>
      <trkpt lat="43.59749" lon="1.18114">
        <ele>265.94</ele>
        <time>2021-08-18T13:46:36Z</time>
      </trkpt>
      <trkpt lat="43.59745" lon="1.18091">
        <ele>266.42</ele>
        <time>2021-08-18T13:46:43Z</time>
      </trkpt>
      <trkpt lat="43.59739" lon="1.18067">
        <ele>266.42</ele>
        <time>2021-08-18T13:46:49Z</time>
      </trkpt>
      <trkpt lat="43.59739" lon="1.1804">
        <ele>266.9</ele>
        <time>2021-08-18T13:46:54Z</time>
      </trkpt>
      <trkpt lat="43.5974" lon="1.18021">
        <ele>268.35</ele>
        <time>2021-08-18T13:46:59Z</time>
      </trkpt>
      <trkpt lat="43.59739" lon="1.17991">
        <ele>268.83</ele>
        <time>2021-08-18T13:47:06Z</time>
      </trkpt>
      <trkpt lat="43.5974" lon="1.17957">
        <ele>269.79</ele>
        <time>2021-08-18T13:47:13Z</time>
      </trkpt>
      <trkpt lat="43.59739" lon="1.17929">
        <ele>271.23</ele>
        <time>2021-08-18T13:47:20Z</time>
      </trkpt>
      <trkpt lat="43.59739" lon="1.17919">
        <ele>271.71</ele>
        <time>2021-08-18T13:47:23Z</time>
      </trkpt>
      <trkpt lat="43.59735" lon="1.17898">
        <ele>273.15</ele>
        <time>2021-08-18T13:47:30Z</time>
      </trkpt>
      <trkpt lat="43.59736" lon="1.17896">
        <ele>273.15</ele>
        <time>2021-08-18T13:47:31Z</time>
      </trkpt>
      <trkpt lat="43.59731" lon="1.17863">
        <ele>274.11</ele>
        <time>2021-08-18T13:47:39Z</time>
      </trkpt>
      <trkpt lat="43.59731" lon="1.17842">
        <ele>275.56</ele>
        <time>2021-08-18T13:47:46Z</time>
      </trkpt>
      <trkpt lat="43.5973" lon="1.17839">
        <ele>275.56</ele>
        <time>2021-08-18T13:47:47Z</time>
      </trkpt>
      <trkpt lat="43.59731" lon="1.17836">
        <ele>275.56</ele>
        <time>2021-08-18T13:47:48Z</time>
      </trkpt>
      <trkpt lat="43.59732" lon="1.17833">
        <ele>275.56</ele>
        <time>2021-08-18T13:47:49Z</time>
      </trkpt>
      <trkpt lat="43.59732" lon="1.1783">
        <ele>276.04</ele>
        <time>2021-08-18T13:47:50Z</time>
      </trkpt>
      <trkpt lat="43.59733" lon="1.17802">
        <ele>277</ele>
        <time>2021-08-18T13:47:58Z</time>
      </trkpt>
      <trkpt lat="43.5973" lon="1.17767">
        <ele>278.44</ele>
        <time>2021-08-18T13:48:07Z</time>
      </trkpt>
      <trkpt lat="43.5973" lon="1.17738">
        <ele>279.4</ele>
        <time>2021-08-18T13:48:13Z</time>
      </trkpt>
      <trkpt lat="43.59731" lon="1.177">
        <ele>279.88</ele>
        <time>2021-08-18T13:48:21Z</time>
      </trkpt>
      <trkpt lat="43.59741" lon="1.17665">
        <ele>279.88</ele>
        <time>2021-08-18T13:48:28Z</time>
      </trkpt>
      <trkpt lat="43.59757" lon="1.17624">
        <ele>280.36</ele>
        <time>2021-08-18T13:48:36Z</time>
      </trkpt>
      <trkpt lat="43.59763" lon="1.176">
        <ele>280.84</ele>
        <time>2021-08-18T13:48:40Z</time>
      </trkpt>
      <trkpt lat="43.59773" lon="1.17551">
        <ele>280.84</ele>
        <time>2021-08-18T13:48:48Z</time>
      </trkpt>
      <trkpt lat="43.59775" lon="1.17545">
        <ele>280.84</ele>
        <time>2021-08-18T13:48:49Z</time>
      </trkpt>
      <trkpt lat="43.59781" lon="1.17529">
        <ele>280.84</ele>
        <time>2021-08-18T13:48:52Z</time>
      </trkpt>
      <trkpt lat="43.59788" lon="1.17513">
        <ele>281.32</ele>
        <time>2021-08-18T13:48:55Z</time>
      </trkpt>
      <trkpt lat="43.59792" lon="1.1748">
        <ele>282.28</ele>
        <time>2021-08-18T13:49:02Z</time>
      </trkpt>
      <trkpt lat="43.59797" lon="1.17448">
        <ele>283.25</ele>
        <time>2021-08-18T13:49:09Z</time>
      </trkpt>
      <trkpt lat="43.5981" lon="1.17419">
        <ele>283.73</ele>
        <time>2021-08-18T13:49:16Z</time>
      </trkpt>
      <trkpt lat="43.59832" lon="1.17398">
        <ele>284.21</ele>
        <time>2021-08-18T13:49:23Z</time>
      </trkpt>
      <trkpt lat="43.59854" lon="1.17378">
        <ele>282.77</ele>
        <time>2021-08-18T13:49:30Z</time>
      </trkpt>
      <trkpt lat="43.59857" lon="1.17374">
        <ele>282.77</ele>
        <time>2021-08-18T13:49:31Z</time>
      </trkpt>
      <trkpt lat="43.59871" lon="1.17351">
        <ele>281.8</ele>
        <time>2021-08-18T13:49:36Z</time>
      </trkpt>
      <trkpt lat="43.59882" lon="1.17327">
        <ele>281.8</ele>
        <time>2021-08-18T13:49:40Z</time>
      </trkpt>
      <trkpt lat="43.59888" lon="1.17309">
        <ele>281.8</ele>
        <time>2021-08-18T13:49:43Z</time>
      </trkpt>
      <trkpt lat="43.59891" lon="1.17303">
        <ele>281.8</ele>
        <time>2021-08-18T13:49:44Z</time>
      </trkpt>
      <trkpt lat="43.59911" lon="1.17266">
        <ele>281.8</ele>
        <time>2021-08-18T13:49:52Z</time>
      </trkpt>
      <trkpt lat="43.59933" lon="1.1724">
        <ele>280.84</ele>
        <time>2021-08-18T13:49:59Z</time>
      </trkpt>
      <trkpt lat="43.59936" lon="1.17235">
        <ele>280.84</ele>
        <time>2021-08-18T13:50:00Z</time>
      </trkpt>
      <trkpt lat="43.59942" lon="1.17225">
        <ele>280.84</ele>
        <time>2021-08-18T13:50:02Z</time>
      </trkpt>
      <trkpt lat="43.59944" lon="1.17219">
        <ele>280.84</ele>
        <time>2021-08-18T13:50:03Z</time>
      </trkpt>
      <trkpt lat="43.59957" lon="1.17179">
        <ele>280.84</ele>
        <time>2021-08-18T13:50:09Z</time>
      </trkpt>
      <trkpt lat="43.59961" lon="1.17166">
        <ele>280.84</ele>
        <time>2021-08-18T13:50:11Z</time>
      </trkpt>
      <trkpt lat="43.59968" lon="1.17149">
        <ele>280.84</ele>
        <time>2021-08-18T13:50:14Z</time>
      </trkpt>
      <trkpt lat="43.59984" lon="1.17119">
        <ele>280.36</ele>
        <time>2021-08-18T13:50:19Z</time>
      </trkpt>
      <trkpt lat="43.6" lon="1.17099">
        <ele>280.36</ele>
        <time>2021-08-18T13:50:23Z</time>
      </trkpt>
      <trkpt lat="43.60021" lon="1.17072">
        <ele>280.36</ele>
        <time>2021-08-18T13:50:29Z</time>
      </trkpt>
      <trkpt lat="43.60026" lon="1.17064">
        <ele>280.36</ele>
        <time>2021-08-18T13:50:33Z</time>
      </trkpt>
      <trkpt lat="43.60027" lon="1.17063">
        <ele>281.8</ele>
        <time>2021-08-18T13:50:43Z</time>
      </trkpt>
      <trkpt lat="43.60033" lon="1.17063">
        <ele>281.8</ele>
        <time>2021-08-18T13:51:05Z</time>
      </trkpt>
      <trkpt lat="43.60035" lon="1.17061">
        <ele>281.8</ele>
        <time>2021-08-18T13:51:25Z</time>
      </trkpt>
      <trkpt lat="43.60036" lon="1.17057">
        <ele>281.8</ele>
        <time>2021-08-18T13:51:29Z</time>
      </trkpt>
      <trkpt lat="43.6004" lon="1.17049">
        <ele>281.8</ele>
        <time>2021-08-18T13:51:34Z</time>
      </trkpt>
      <trkpt lat="43.60052" lon="1.17039">
        <ele>281.8</ele>
        <time>2021-08-18T13:51:40Z</time>
      </trkpt>
      <trkpt lat="43.60064" lon="1.17019">
        <ele>281.8</ele>
        <time>2021-08-18T13:51:46Z</time>
      </trkpt>
      <trkpt lat="43.60076" lon="1.1699">
        <ele>281.8</ele>
        <time>2021-08-18T13:51:53Z</time>
      </trkpt>
      <trkpt lat="43.60086" lon="1.1696">
        <ele>282.28</ele>
        <time>2021-08-18T13:51:59Z</time>
      </trkpt>
      <trkpt lat="43.60097" lon="1.16928">
        <ele>283.25</ele>
        <time>2021-08-18T13:52:06Z</time>
      </trkpt>
      <trkpt lat="43.60108" lon="1.16895">
        <ele>284.69</ele>
        <time>2021-08-18T13:52:14Z</time>
      </trkpt>
      <trkpt lat="43.60113" lon="1.1687">
        <ele>285.17</ele>
        <time>2021-08-18T13:52:21Z</time>
      </trkpt>
      <trkpt lat="43.60118" lon="1.16837">
        <ele>286.61</ele>
        <time>2021-08-18T13:52:29Z</time>
      </trkpt>
      <trkpt lat="43.6012" lon="1.16808">
        <ele>287.57</ele>
        <time>2021-08-18T13:52:37Z</time>
      </trkpt>
      <trkpt lat="43.6012" lon="1.16779">
        <ele>289.49</ele>
        <time>2021-08-18T13:52:46Z</time>
      </trkpt>
      <trkpt lat="43.60117" lon="1.16755">
        <ele>290.94</ele>
        <time>2021-08-18T13:52:54Z</time>
      </trkpt>
      <trkpt lat="43.60113" lon="1.16725">
        <ele>291.42</ele>
        <time>2021-08-18T13:53:03Z</time>
      </trkpt>
      <trkpt lat="43.60113" lon="1.16695">
        <ele>291.9</ele>
        <time>2021-08-18T13:53:09Z</time>
      </trkpt>
      <trkpt lat="43.60112" lon="1.16665">
        <ele>291.9</ele>
        <time>2021-08-18T13:53:15Z</time>
      </trkpt>
      <trkpt lat="43.60114" lon="1.16633">
        <ele>291.9</ele>
        <time>2021-08-18T13:53:21Z</time>
      </trkpt>
      <trkpt lat="43.60119" lon="1.166">
        <ele>291.9</ele>
        <time>2021-08-18T13:53:27Z</time>
      </trkpt>
      <trkpt lat="43.60115" lon="1.16565">
        <ele>292.38</ele>
        <time>2021-08-18T13:53:33Z</time>
      </trkpt>
      <trkpt lat="43.60113" lon="1.16552">
        <ele>292.38</ele>
        <time>2021-08-18T13:53:35Z</time>
      </trkpt>
      <trkpt lat="43.60112" lon="1.16504">
        <ele>292.86</ele>
        <time>2021-08-18T13:53:42Z</time>
      </trkpt>
      <trkpt lat="43.60112" lon="1.16497">
        <ele>292.86</ele>
        <time>2021-08-18T13:53:43Z</time>
      </trkpt>
      <trkpt lat="43.60111" lon="1.16491">
        <ele>292.86</ele>
        <time>2021-08-18T13:53:44Z</time>
      </trkpt>
      <trkpt lat="43.6011" lon="1.16484">
        <ele>292.86</ele>
        <time>2021-08-18T13:53:45Z</time>
      </trkpt>
      <trkpt lat="43.60109" lon="1.16478">
        <ele>292.86</ele>
        <time>2021-08-18T13:53:46Z</time>
      </trkpt>
      <trkpt lat="43.60099" lon="1.16442">
        <ele>293.82</ele>
        <time>2021-08-18T13:53:53Z</time>
      </trkpt>
      <trkpt lat="43.60095" lon="1.16413">
        <ele>293.82</ele>
        <time>2021-08-18T13:53:58Z</time>
      </trkpt>
      <trkpt lat="43.60099" lon="1.16382">
        <ele>294.3</ele>
        <time>2021-08-18T13:54:04Z</time>
      </trkpt>
      <trkpt lat="43.60107" lon="1.16342">
        <ele>295.26</ele>
        <time>2021-08-18T13:54:12Z</time>
      </trkpt>
      <trkpt lat="43.60113" lon="1.16297">
        <ele>296.7</ele>
        <time>2021-08-18T13:54:20Z</time>
      </trkpt>
      <trkpt lat="43.60113" lon="1.1629">
        <ele>296.7</ele>
        <time>2021-08-18T13:54:21Z</time>
      </trkpt>
      <trkpt lat="43.60114" lon="1.16249">
        <ele>296.7</ele>
        <time>2021-08-18T13:54:28Z</time>
      </trkpt>
      <trkpt lat="43.60113" lon="1.16217">
        <ele>295.26</ele>
        <time>2021-08-18T13:54:34Z</time>
      </trkpt>
      <trkpt lat="43.60114" lon="1.162">
        <ele>295.26</ele>
        <time>2021-08-18T13:54:37Z</time>
      </trkpt>
      <trkpt lat="43.60115" lon="1.16193">
        <ele>295.26</ele>
        <time>2021-08-18T13:54:38Z</time>
      </trkpt>
      <trkpt lat="43.60118" lon="1.16181">
        <ele>295.26</ele>
        <time>2021-08-18T13:54:40Z</time>
      </trkpt>
      <trkpt lat="43.6012" lon="1.16175">
        <ele>295.26</ele>
        <time>2021-08-18T13:54:41Z</time>
      </trkpt>
      <trkpt lat="43.60121" lon="1.16169">
        <ele>295.26</ele>
        <time>2021-08-18T13:54:42Z</time>
      </trkpt>
      <trkpt lat="43.60123" lon="1.16164">
        <ele>295.26</ele>
        <time>2021-08-18T13:54:43Z</time>
      </trkpt>
      <trkpt lat="43.60125" lon="1.16158">
        <ele>295.26</ele>
        <time>2021-08-18T13:54:44Z</time>
      </trkpt>
      <trkpt lat="43.60126" lon="1.16152">
        <ele>295.26</ele>
        <time>2021-08-18T13:54:45Z</time>
      </trkpt>
      <trkpt lat="43.60128" lon="1.16146">
        <ele>295.26</ele>
        <time>2021-08-18T13:54:46Z</time>
      </trkpt>
      <trkpt lat="43.60138" lon="1.16102">
        <ele>295.26</ele>
        <time>2021-08-18T13:54:53Z</time>
      </trkpt>
      <trkpt lat="43.60146" lon="1.16074">
        <ele>295.26</ele>
        <time>2021-08-18T13:54:59Z</time>
      </trkpt>
      <trkpt lat="43.60163" lon="1.16026">
        <ele>293.82</ele>
        <time>2021-08-18T13:55:07Z</time>
      </trkpt>
      <trkpt lat="43.6018" lon="1.15987">
        <ele>293.82</ele>
        <time>2021-08-18T13:55:14Z</time>
      </trkpt>
      <trkpt lat="43.60182" lon="1.15981">
        <ele>293.82</ele>
        <time>2021-08-18T13:55:15Z</time>
      </trkpt>
      <trkpt lat="43.60192" lon="1.15958">
        <ele>293.82</ele>
        <time>2021-08-18T13:55:19Z</time>
      </trkpt>
      <trkpt lat="43.60194" lon="1.15954">
        <ele>293.82</ele>
        <time>2021-08-18T13:55:20Z</time>
      </trkpt>
      <trkpt lat="43.60194" lon="1.15952">
        <ele>293.82</ele>
        <time>2021-08-18T13:55:21Z</time>
      </trkpt>
      <trkpt lat="43.60193" lon="1.15951">
        <ele>293.82</ele>
        <time>2021-08-18T13:55:22Z</time>
      </trkpt>
      <trkpt lat="43.60193" lon="1.15951">
        <ele>293.82</ele>
        <time>2021-08-18T13:55:23Z</time>
      </trkpt>
      <trkpt lat="43.60192" lon="1.15953">
        <ele>293.82</ele>
        <time>2021-08-18T13:55:24Z</time>
      </trkpt>
      <trkpt lat="43.60192" lon="1.15955">
        <ele>293.82</ele>
        <time>2021-08-18T13:55:25Z</time>
      </trkpt>
      <trkpt lat="43.60191" lon="1.15957">
        <ele>293.82</ele>
        <time>2021-08-18T13:55:26Z</time>
      </trkpt>
      <trkpt lat="43.60191" lon="1.15959">
        <ele>293.82</ele>
        <time>2021-08-18T13:55:27Z</time>
      </trkpt>
      <trkpt lat="43.60189" lon="1.1596">
        <ele>293.82</ele>
        <time>2021-08-18T13:55:28Z</time>
      </trkpt>
      <trkpt lat="43.60185" lon="1.15955">
        <ele>294.3</ele>
        <time>2021-08-18T13:55:31Z</time>
      </trkpt>
      <trkpt lat="43.60178" lon="1.15932">
        <ele>292.86</ele>
        <time>2021-08-18T13:55:37Z</time>
      </trkpt>
      <trkpt lat="43.60175" lon="1.159">
        <ele>292.38</ele>
        <time>2021-08-18T13:55:43Z</time>
      </trkpt>
      <trkpt lat="43.60175" lon="1.15893">
        <ele>291.9</ele>
        <time>2021-08-18T13:55:44Z</time>
      </trkpt>
      <trkpt lat="43.60175" lon="1.15887">
        <ele>291.9</ele>
        <time>2021-08-18T13:55:45Z</time>
      </trkpt>
      <trkpt lat="43.60176" lon="1.1588">
        <ele>291.9</ele>
        <time>2021-08-18T13:55:46Z</time>
      </trkpt>
      <trkpt lat="43.60176" lon="1.15874">
        <ele>291.9</ele>
        <time>2021-08-18T13:55:47Z</time>
      </trkpt>
      <trkpt lat="43.60177" lon="1.15867">
        <ele>291.9</ele>
        <time>2021-08-18T13:55:48Z</time>
      </trkpt>
      <trkpt lat="43.60177" lon="1.15861">
        <ele>291.9</ele>
        <time>2021-08-18T13:55:49Z</time>
      </trkpt>
      <trkpt lat="43.60177" lon="1.15855">
        <ele>291.9</ele>
        <time>2021-08-18T13:55:50Z</time>
      </trkpt>
      <trkpt lat="43.60175" lon="1.1585">
        <ele>291.9</ele>
        <time>2021-08-18T13:55:51Z</time>
      </trkpt>
      <trkpt lat="43.60174" lon="1.15845">
        <ele>291.42</ele>
        <time>2021-08-18T13:55:52Z</time>
      </trkpt>
      <trkpt lat="43.60172" lon="1.1584">
        <ele>290.94</ele>
        <time>2021-08-18T13:55:53Z</time>
      </trkpt>
      <trkpt lat="43.60169" lon="1.15834">
        <ele>289.97</ele>
        <time>2021-08-18T13:55:54Z</time>
      </trkpt>
      <trkpt lat="43.60168" lon="1.15826">
        <ele>289.49</ele>
        <time>2021-08-18T13:55:55Z</time>
      </trkpt>
      <trkpt lat="43.60168" lon="1.15819">
        <ele>289.49</ele>
        <time>2021-08-18T13:55:56Z</time>
      </trkpt>
      <trkpt lat="43.60168" lon="1.15811">
        <ele>289.01</ele>
        <time>2021-08-18T13:55:57Z</time>
      </trkpt>
      <trkpt lat="43.6017" lon="1.15804">
        <ele>289.01</ele>
        <time>2021-08-18T13:55:58Z</time>
      </trkpt>
      <trkpt lat="43.6017" lon="1.15799">
        <ele>289.01</ele>
        <time>2021-08-18T13:55:59Z</time>
      </trkpt>
      <trkpt lat="43.60169" lon="1.15794">
        <ele>289.01</ele>
        <time>2021-08-18T13:56:00Z</time>
      </trkpt>
      <trkpt lat="43.60167" lon="1.15789">
        <ele>289.01</ele>
        <time>2021-08-18T13:56:01Z</time>
      </trkpt>
      <trkpt lat="43.60164" lon="1.15784">
        <ele>289.01</ele>
        <time>2021-08-18T13:56:02Z</time>
      </trkpt>
      <trkpt lat="43.60159" lon="1.15778">
        <ele>287.57</ele>
        <time>2021-08-18T13:56:03Z</time>
      </trkpt>
      <trkpt lat="43.60153" lon="1.15772">
        <ele>287.09</ele>
        <time>2021-08-18T13:56:04Z</time>
      </trkpt>
      <trkpt lat="43.60149" lon="1.15765">
        <ele>286.13</ele>
        <time>2021-08-18T13:56:05Z</time>
      </trkpt>
      <trkpt lat="43.60144" lon="1.15758">
        <ele>286.13</ele>
        <time>2021-08-18T13:56:06Z</time>
      </trkpt>
      <trkpt lat="43.60141" lon="1.15752">
        <ele>286.13</ele>
        <time>2021-08-18T13:56:07Z</time>
      </trkpt>
      <trkpt lat="43.60137" lon="1.15745">
        <ele>286.13</ele>
        <time>2021-08-18T13:56:08Z</time>
      </trkpt>
      <trkpt lat="43.6012" lon="1.15725">
        <ele>288.05</ele>
        <time>2021-08-18T13:56:13Z</time>
      </trkpt>
      <trkpt lat="43.60112" lon="1.15712">
        <ele>289.97</ele>
        <time>2021-08-18T13:56:18Z</time>
      </trkpt>
      <trkpt lat="43.60099" lon="1.15697">
        <ele>290.94</ele>
        <time>2021-08-18T13:56:25Z</time>
      </trkpt>
      <trkpt lat="43.60086" lon="1.1568">
        <ele>291.9</ele>
        <time>2021-08-18T13:56:32Z</time>
      </trkpt>
      <trkpt lat="43.60078" lon="1.1566">
        <ele>292.86</ele>
        <time>2021-08-18T13:56:38Z</time>
      </trkpt>
      <trkpt lat="43.60068" lon="1.15641">
        <ele>292.86</ele>
        <time>2021-08-18T13:56:43Z</time>
      </trkpt>
      <trkpt lat="43.60066" lon="1.15617">
        <ele>291.42</ele>
        <time>2021-08-18T13:56:48Z</time>
      </trkpt>
      <trkpt lat="43.60066" lon="1.15589">
        <ele>291.42</ele>
        <time>2021-08-18T13:56:55Z</time>
      </trkpt>
      <trkpt lat="43.60065" lon="1.15579">
        <ele>291.42</ele>
        <time>2021-08-18T13:56:57Z</time>
      </trkpt>
      <trkpt lat="43.60063" lon="1.15576">
        <ele>291.42</ele>
        <time>2021-08-18T13:56:58Z</time>
      </trkpt>
      <trkpt lat="43.60059" lon="1.15573">
        <ele>291.42</ele>
        <time>2021-08-18T13:56:59Z</time>
      </trkpt>
      <trkpt lat="43.60055" lon="1.1557">
        <ele>290.94</ele>
        <time>2021-08-18T13:57:00Z</time>
      </trkpt>
      <trkpt lat="43.6005" lon="1.15566">
        <ele>289.97</ele>
        <time>2021-08-18T13:57:01Z</time>
      </trkpt>
      <trkpt lat="43.60046" lon="1.15561">
        <ele>289.49</ele>
        <time>2021-08-18T13:57:02Z</time>
      </trkpt>
      <trkpt lat="43.60042" lon="1.15556">
        <ele>289.01</ele>
        <time>2021-08-18T13:57:03Z</time>
      </trkpt>
      <trkpt lat="43.60037" lon="1.15554">
        <ele>289.01</ele>
        <time>2021-08-18T13:57:04Z</time>
      </trkpt>
      <trkpt lat="43.60033" lon="1.15553">
        <ele>288.53</ele>
        <time>2021-08-18T13:57:05Z</time>
      </trkpt>
      <trkpt lat="43.60028" lon="1.15552">
        <ele>288.05</ele>
        <time>2021-08-18T13:57:06Z</time>
      </trkpt>
      <trkpt lat="43.60023" lon="1.1555">
        <ele>287.09</ele>
        <time>2021-08-18T13:57:07Z</time>
      </trkpt>
      <trkpt lat="43.60018" lon="1.15548">
        <ele>286.61</ele>
        <time>2021-08-18T13:57:08Z</time>
      </trkpt>
      <trkpt lat="43.60015" lon="1.15543">
        <ele>286.13</ele>
        <time>2021-08-18T13:57:09Z</time>
      </trkpt>
      <trkpt lat="43.60013" lon="1.15538">
        <ele>286.13</ele>
        <time>2021-08-18T13:57:10Z</time>
      </trkpt>
      <trkpt lat="43.6001" lon="1.15533">
        <ele>285.17</ele>
        <time>2021-08-18T13:57:11Z</time>
      </trkpt>
      <trkpt lat="43.60006" lon="1.15529">
        <ele>284.21</ele>
        <time>2021-08-18T13:57:12Z</time>
      </trkpt>
      <trkpt lat="43.6" lon="1.15527">
        <ele>282.77</ele>
        <time>2021-08-18T13:57:13Z</time>
      </trkpt>
      <trkpt lat="43.59994" lon="1.15528">
        <ele>281.8</ele>
        <time>2021-08-18T13:57:14Z</time>
      </trkpt>
      <trkpt lat="43.59987" lon="1.15529">
        <ele>280.84</ele>
        <time>2021-08-18T13:57:15Z</time>
      </trkpt>
      <trkpt lat="43.59981" lon="1.15529">
        <ele>279.88</ele>
        <time>2021-08-18T13:57:16Z</time>
      </trkpt>
      <trkpt lat="43.59974" lon="1.15528">
        <ele>278.92</ele>
        <time>2021-08-18T13:57:17Z</time>
      </trkpt>
      <trkpt lat="43.59967" lon="1.15526">
        <ele>277.96</ele>
        <time>2021-08-18T13:57:18Z</time>
      </trkpt>
      <trkpt lat="43.5996" lon="1.15525">
        <ele>277.48</ele>
        <time>2021-08-18T13:57:19Z</time>
      </trkpt>
      <trkpt lat="43.59953" lon="1.15523">
        <ele>276.52</ele>
        <time>2021-08-18T13:57:20Z</time>
      </trkpt>
      <trkpt lat="43.59939" lon="1.15519">
        <ele>275.56</ele>
        <time>2021-08-18T13:57:22Z</time>
      </trkpt>
      <trkpt lat="43.59933" lon="1.15517">
        <ele>275.56</ele>
        <time>2021-08-18T13:57:23Z</time>
      </trkpt>
      <trkpt lat="43.5992" lon="1.15515">
        <ele>275.56</ele>
        <time>2021-08-18T13:57:25Z</time>
      </trkpt>
      <trkpt lat="43.59916" lon="1.15512">
        <ele>275.56</ele>
        <time>2021-08-18T13:57:26Z</time>
      </trkpt>
      <trkpt lat="43.59911" lon="1.15507">
        <ele>275.56</ele>
        <time>2021-08-18T13:57:27Z</time>
      </trkpt>
      <trkpt lat="43.59907" lon="1.15502">
        <ele>275.56</ele>
        <time>2021-08-18T13:57:28Z</time>
      </trkpt>
      <trkpt lat="43.59903" lon="1.15498">
        <ele>275.07</ele>
        <time>2021-08-18T13:57:29Z</time>
      </trkpt>
      <trkpt lat="43.599" lon="1.15494">
        <ele>275.07</ele>
        <time>2021-08-18T13:57:30Z</time>
      </trkpt>
      <trkpt lat="43.59897" lon="1.1549">
        <ele>275.07</ele>
        <time>2021-08-18T13:57:31Z</time>
      </trkpt>
      <trkpt lat="43.59895" lon="1.15488">
        <ele>276.52</ele>
        <time>2021-08-18T13:57:32Z</time>
      </trkpt>
      <trkpt lat="43.59889" lon="1.15481">
        <ele>278.44</ele>
        <time>2021-08-18T13:57:38Z</time>
      </trkpt>
      <trkpt lat="43.59885" lon="1.15477">
        <ele>278.44</ele>
        <time>2021-08-18T13:57:41Z</time>
      </trkpt>
      <trkpt lat="43.59884" lon="1.15475">
        <ele>278.92</ele>
        <time>2021-08-18T13:57:42Z</time>
      </trkpt>
      <trkpt lat="43.59883" lon="1.15474">
        <ele>278.92</ele>
        <time>2021-08-18T13:57:43Z</time>
      </trkpt>
      <trkpt lat="43.59881" lon="1.15472">
        <ele>278.92</ele>
        <time>2021-08-18T13:57:44Z</time>
      </trkpt>
      <trkpt lat="43.59881" lon="1.15469">
        <ele>279.4</ele>
        <time>2021-08-18T13:57:45Z</time>
      </trkpt>
      <trkpt lat="43.59875" lon="1.15456">
        <ele>279.88</ele>
        <time>2021-08-18T13:57:50Z</time>
      </trkpt>
      <trkpt lat="43.59874" lon="1.15453">
        <ele>279.88</ele>
        <time>2021-08-18T13:57:51Z</time>
      </trkpt>
      <trkpt lat="43.59873" lon="1.15451">
        <ele>280.36</ele>
        <time>2021-08-18T13:57:52Z</time>
      </trkpt>
      <trkpt lat="43.59871" lon="1.1545">
        <ele>280.36</ele>
        <time>2021-08-18T13:57:53Z</time>
      </trkpt>
      <trkpt lat="43.5987" lon="1.15448">
        <ele>280.84</ele>
        <time>2021-08-18T13:57:54Z</time>
      </trkpt>
      <trkpt lat="43.59862" lon="1.15434">
        <ele>281.32</ele>
        <time>2021-08-18T13:58:00Z</time>
      </trkpt>
      <trkpt lat="43.59858" lon="1.15428">
        <ele>281.8</ele>
        <time>2021-08-18T13:58:03Z</time>
      </trkpt>
      <trkpt lat="43.59848" lon="1.15416">
        <ele>283.25</ele>
        <time>2021-08-18T13:58:10Z</time>
      </trkpt>
      <trkpt lat="43.59847" lon="1.15414">
        <ele>283.73</ele>
        <time>2021-08-18T13:58:11Z</time>
      </trkpt>
      <trkpt lat="43.59845" lon="1.15412">
        <ele>283.73</ele>
        <time>2021-08-18T13:58:12Z</time>
      </trkpt>
      <trkpt lat="43.59844" lon="1.15411">
        <ele>283.73</ele>
        <time>2021-08-18T13:58:13Z</time>
      </trkpt>
      <trkpt lat="43.59842" lon="1.15409">
        <ele>283.73</ele>
        <time>2021-08-18T13:58:14Z</time>
      </trkpt>
      <trkpt lat="43.59841" lon="1.15407">
        <ele>284.69</ele>
        <time>2021-08-18T13:58:15Z</time>
      </trkpt>
      <trkpt lat="43.59839" lon="1.15405">
        <ele>284.69</ele>
        <time>2021-08-18T13:58:16Z</time>
      </trkpt>
      <trkpt lat="43.59838" lon="1.15403">
        <ele>284.69</ele>
        <time>2021-08-18T13:58:17Z</time>
      </trkpt>
      <trkpt lat="43.59837" lon="1.15401">
        <ele>284.69</ele>
        <time>2021-08-18T13:58:18Z</time>
      </trkpt>
      <trkpt lat="43.59834" lon="1.15395">
        <ele>285.65</ele>
        <time>2021-08-18T13:58:21Z</time>
      </trkpt>
      <trkpt lat="43.59832" lon="1.15378">
        <ele>286.13</ele>
        <time>2021-08-18T13:58:28Z</time>
      </trkpt>
      <trkpt lat="43.59832" lon="1.15375">
        <ele>286.13</ele>
        <time>2021-08-18T13:58:29Z</time>
      </trkpt>
      <trkpt lat="43.59831" lon="1.15372">
        <ele>286.13</ele>
        <time>2021-08-18T13:58:30Z</time>
      </trkpt>
      <trkpt lat="43.5983" lon="1.15369">
        <ele>286.13</ele>
        <time>2021-08-18T13:58:31Z</time>
      </trkpt>
      <trkpt lat="43.59829" lon="1.15366">
        <ele>286.13</ele>
        <time>2021-08-18T13:58:32Z</time>
      </trkpt>
      <trkpt lat="43.59828" lon="1.15362">
        <ele>287.09</ele>
        <time>2021-08-18T13:58:33Z</time>
      </trkpt>
      <trkpt lat="43.59823" lon="1.15353">
        <ele>288.05</ele>
        <time>2021-08-18T13:58:39Z</time>
      </trkpt>
      <trkpt lat="43.59816" lon="1.15343">
        <ele>289.49</ele>
        <time>2021-08-18T13:58:47Z</time>
      </trkpt>
      <trkpt lat="43.59812" lon="1.1534">
        <ele>289.97</ele>
        <time>2021-08-18T13:58:52Z</time>
      </trkpt>
      <trkpt lat="43.59806" lon="1.15334">
        <ele>292.38</ele>
        <time>2021-08-18T13:59:00Z</time>
      </trkpt>
      <trkpt lat="43.59799" lon="1.15324">
        <ele>293.82</ele>
        <time>2021-08-18T13:59:09Z</time>
      </trkpt>
      <trkpt lat="43.59792" lon="1.15311">
        <ele>294.78</ele>
        <time>2021-08-18T13:59:19Z</time>
      </trkpt>
      <trkpt lat="43.5979" lon="1.15306">
        <ele>295.74</ele>
        <time>2021-08-18T13:59:22Z</time>
      </trkpt>
      <trkpt lat="43.59789" lon="1.15301">
        <ele>296.22</ele>
        <time>2021-08-18T13:59:25Z</time>
      </trkpt>
      <trkpt lat="43.59789" lon="1.15298">
        <ele>296.22</ele>
        <time>2021-08-18T13:59:26Z</time>
      </trkpt>
      <trkpt lat="43.59786" lon="1.15291">
        <ele>296.7</ele>
        <time>2021-08-18T13:59:33Z</time>
      </trkpt>
      <trkpt lat="43.59786" lon="1.15287">
        <ele>296.7</ele>
        <time>2021-08-18T13:59:36Z</time>
      </trkpt>
      <trkpt lat="43.59786" lon="1.15284">
        <ele>296.7</ele>
        <time>2021-08-18T13:59:38Z</time>
      </trkpt>
      <trkpt lat="43.59785" lon="1.15282">
        <ele>296.7</ele>
        <time>2021-08-18T13:59:39Z</time>
      </trkpt>
      <trkpt lat="43.59785" lon="1.1528">
        <ele>296.7</ele>
        <time>2021-08-18T13:59:40Z</time>
      </trkpt>
      <trkpt lat="43.59785" lon="1.15278">
        <ele>296.7</ele>
        <time>2021-08-18T13:59:41Z</time>
      </trkpt>
      <trkpt lat="43.59785" lon="1.15258">
        <ele>297.18</ele>
        <time>2021-08-18T13:59:48Z</time>
      </trkpt>
      <trkpt lat="43.59791" lon="1.15225">
        <ele>298.63</ele>
        <time>2021-08-18T13:59:57Z</time>
      </trkpt>
      <trkpt lat="43.59795" lon="1.15208">
        <ele>299.59</ele>
        <time>2021-08-18T14:00:02Z</time>
      </trkpt>
      <trkpt lat="43.59794" lon="1.15205">
        <ele>299.59</ele>
        <time>2021-08-18T14:00:03Z</time>
      </trkpt>
      <trkpt lat="43.59792" lon="1.15203">
        <ele>300.07</ele>
        <time>2021-08-18T14:00:04Z</time>
      </trkpt>
      <trkpt lat="43.5979" lon="1.15202">
        <ele>300.07</ele>
        <time>2021-08-18T14:00:05Z</time>
      </trkpt>
      <trkpt lat="43.59788" lon="1.152">
        <ele>300.07</ele>
        <time>2021-08-18T14:00:06Z</time>
      </trkpt>
      <trkpt lat="43.59786" lon="1.15199">
        <ele>300.07</ele>
        <time>2021-08-18T14:00:07Z</time>
      </trkpt>
      <trkpt lat="43.59785" lon="1.15198">
        <ele>300.55</ele>
        <time>2021-08-18T14:00:08Z</time>
      </trkpt>
      <trkpt lat="43.59769" lon="1.1519">
        <ele>302.95</ele>
        <time>2021-08-18T14:00:17Z</time>
      </trkpt>
      <trkpt lat="43.5975" lon="1.15182">
        <ele>303.91</ele>
        <time>2021-08-18T14:00:26Z</time>
      </trkpt>
      <trkpt lat="43.59728" lon="1.15174">
        <ele>304.39</ele>
        <time>2021-08-18T14:00:34Z</time>
      </trkpt>
      <trkpt lat="43.59702" lon="1.15164">
        <ele>304.88</ele>
        <time>2021-08-18T14:00:41Z</time>
      </trkpt>
      <trkpt lat="43.59678" lon="1.15156">
        <ele>304.88</ele>
        <time>2021-08-18T14:00:48Z</time>
      </trkpt>
      <trkpt lat="43.5967" lon="1.15153">
        <ele>304.88</ele>
        <time>2021-08-18T14:00:50Z</time>
      </trkpt>
      <trkpt lat="43.59666" lon="1.15151">
        <ele>304.88</ele>
        <time>2021-08-18T14:00:51Z</time>
      </trkpt>
      <trkpt lat="43.59662" lon="1.1515">
        <ele>303.43</ele>
        <time>2021-08-18T14:00:52Z</time>
      </trkpt>
      <trkpt lat="43.59657" lon="1.15149">
        <ele>302.95</ele>
        <time>2021-08-18T14:00:53Z</time>
      </trkpt>
      <trkpt lat="43.59652" lon="1.15147">
        <ele>302.95</ele>
        <time>2021-08-18T14:00:54Z</time>
      </trkpt>
      <trkpt lat="43.59646" lon="1.15145">
        <ele>302.47</ele>
        <time>2021-08-18T14:00:55Z</time>
      </trkpt>
      <trkpt lat="43.59642" lon="1.15143">
        <ele>302.47</ele>
        <time>2021-08-18T14:00:56Z</time>
      </trkpt>
      <trkpt lat="43.59603" lon="1.15126">
        <ele>300.07</ele>
        <time>2021-08-18T14:01:03Z</time>
      </trkpt>
      <trkpt lat="43.59587" lon="1.15119">
        <ele>300.07</ele>
        <time>2021-08-18T14:01:06Z</time>
      </trkpt>
      <trkpt lat="43.59582" lon="1.15119">
        <ele>300.07</ele>
        <time>2021-08-18T14:01:07Z</time>
      </trkpt>
      <trkpt lat="43.59573" lon="1.15118">
        <ele>300.55</ele>
        <time>2021-08-18T14:01:09Z</time>
      </trkpt>
      <trkpt lat="43.59569" lon="1.15117">
        <ele>300.55</ele>
        <time>2021-08-18T14:01:10Z</time>
      </trkpt>
      <trkpt lat="43.59552" lon="1.15108">
        <ele>301.51</ele>
        <time>2021-08-18T14:01:16Z</time>
      </trkpt>
      <trkpt lat="43.59532" lon="1.15098">
        <ele>302.47</ele>
        <time>2021-08-18T14:01:23Z</time>
      </trkpt>
      <trkpt lat="43.59508" lon="1.15088">
        <ele>303.91</ele>
        <time>2021-08-18T14:01:32Z</time>
      </trkpt>
      <trkpt lat="43.59489" lon="1.1508">
        <ele>305.36</ele>
        <time>2021-08-18T14:01:40Z</time>
      </trkpt>
      <trkpt lat="43.59467" lon="1.15071">
        <ele>306.32</ele>
        <time>2021-08-18T14:01:50Z</time>
      </trkpt>
      <trkpt lat="43.59444" lon="1.15064">
        <ele>306.8</ele>
        <time>2021-08-18T14:01:57Z</time>
      </trkpt>
      <trkpt lat="43.59431" lon="1.15048">
        <ele>306.8</ele>
        <time>2021-08-18T14:02:03Z</time>
      </trkpt>
      <trkpt lat="43.5943" lon="1.15044">
        <ele>306.8</ele>
        <time>2021-08-18T14:02:04Z</time>
      </trkpt>
      <trkpt lat="43.59428" lon="1.15041">
        <ele>306.8</ele>
        <time>2021-08-18T14:02:05Z</time>
      </trkpt>
      <trkpt lat="43.59425" lon="1.15039">
        <ele>306.8</ele>
        <time>2021-08-18T14:02:06Z</time>
      </trkpt>
      <trkpt lat="43.59423" lon="1.15039">
        <ele>306.8</ele>
        <time>2021-08-18T14:02:07Z</time>
      </trkpt>
      <trkpt lat="43.59421" lon="1.15041">
        <ele>306.8</ele>
        <time>2021-08-18T14:02:08Z</time>
      </trkpt>
      <trkpt lat="43.59419" lon="1.15045">
        <ele>306.8</ele>
        <time>2021-08-18T14:02:09Z</time>
      </trkpt>
      <trkpt lat="43.59419" lon="1.15048">
        <ele>306.8</ele>
        <time>2021-08-18T14:02:10Z</time>
      </trkpt>
      <trkpt lat="43.59419" lon="1.15052">
        <ele>306.8</ele>
        <time>2021-08-18T14:02:11Z</time>
      </trkpt>
      <trkpt lat="43.59419" lon="1.15057">
        <ele>306.8</ele>
        <time>2021-08-18T14:02:12Z</time>
      </trkpt>
      <trkpt lat="43.59418" lon="1.15102">
        <ele>306.8</ele>
        <time>2021-08-18T14:02:20Z</time>
      </trkpt>
      <trkpt lat="43.59417" lon="1.15157">
        <ele>304.39</ele>
        <time>2021-08-18T14:02:28Z</time>
      </trkpt>
      <trkpt lat="43.59419" lon="1.15209">
        <ele>303.91</ele>
        <time>2021-08-18T14:02:35Z</time>
      </trkpt>
      <trkpt lat="43.59417" lon="1.15215">
        <ele>303.91</ele>
        <time>2021-08-18T14:02:36Z</time>
      </trkpt>
      <trkpt lat="43.59413" lon="1.15219">
        <ele>303.43</ele>
        <time>2021-08-18T14:02:37Z</time>
      </trkpt>
      <trkpt lat="43.59409" lon="1.1522">
        <ele>302.95</ele>
        <time>2021-08-18T14:02:38Z</time>
      </trkpt>
      <trkpt lat="43.59404" lon="1.15219">
        <ele>302.47</ele>
        <time>2021-08-18T14:02:39Z</time>
      </trkpt>
      <trkpt lat="43.59398" lon="1.15217">
        <ele>301.51</ele>
        <time>2021-08-18T14:02:40Z</time>
      </trkpt>
      <trkpt lat="43.59392" lon="1.15215">
        <ele>300.55</ele>
        <time>2021-08-18T14:02:41Z</time>
      </trkpt>
      <trkpt lat="43.59357" lon="1.15204">
        <ele>298.15</ele>
        <time>2021-08-18T14:02:46Z</time>
      </trkpt>
      <trkpt lat="43.59284" lon="1.1518">
        <ele>297.18</ele>
        <time>2021-08-18T14:02:56Z</time>
      </trkpt>
      <trkpt lat="43.59252" lon="1.15171">
        <ele>298.15</ele>
        <time>2021-08-18T14:03:02Z</time>
      </trkpt>
      <trkpt lat="43.59248" lon="1.1517">
        <ele>298.15</ele>
        <time>2021-08-18T14:03:03Z</time>
      </trkpt>
      <trkpt lat="43.59216" lon="1.15156">
        <ele>299.59</ele>
        <time>2021-08-18T14:03:11Z</time>
      </trkpt>
      <trkpt lat="43.59192" lon="1.15145">
        <ele>303.43</ele>
        <time>2021-08-18T14:03:17Z</time>
      </trkpt>
      <trkpt lat="43.59189" lon="1.15144">
        <ele>302.95</ele>
        <time>2021-08-18T14:03:18Z</time>
      </trkpt>
      <trkpt lat="43.59161" lon="1.15134">
        <ele>304.39</ele>
        <time>2021-08-18T14:03:27Z</time>
      </trkpt>
      <trkpt lat="43.59133" lon="1.1512">
        <ele>304.88</ele>
        <time>2021-08-18T14:03:35Z</time>
      </trkpt>
      <trkpt lat="43.59117" lon="1.15114">
        <ele>303.43</ele>
        <time>2021-08-18T14:03:39Z</time>
      </trkpt>
      <trkpt lat="43.59102" lon="1.15104">
        <ele>303.43</ele>
        <time>2021-08-18T14:03:44Z</time>
      </trkpt>
      <trkpt lat="43.591" lon="1.15105">
        <ele>303.43</ele>
        <time>2021-08-18T14:03:45Z</time>
      </trkpt>
      <trkpt lat="43.59097" lon="1.15105">
        <ele>303.43</ele>
        <time>2021-08-18T14:03:46Z</time>
      </trkpt>
      <trkpt lat="43.59093" lon="1.15106">
        <ele>303.43</ele>
        <time>2021-08-18T14:03:47Z</time>
      </trkpt>
      <trkpt lat="43.5909" lon="1.15106">
        <ele>303.43</ele>
        <time>2021-08-18T14:03:48Z</time>
      </trkpt>
      <trkpt lat="43.59086" lon="1.15105">
        <ele>303.43</ele>
        <time>2021-08-18T14:03:49Z</time>
      </trkpt>
      <trkpt lat="43.59083" lon="1.15103">
        <ele>303.43</ele>
        <time>2021-08-18T14:03:50Z</time>
      </trkpt>
      <trkpt lat="43.59079" lon="1.15101">
        <ele>303.43</ele>
        <time>2021-08-18T14:03:51Z</time>
      </trkpt>
      <trkpt lat="43.59062" lon="1.15094">
        <ele>304.39</ele>
        <time>2021-08-18T14:03:56Z</time>
      </trkpt>
      <trkpt lat="43.59048" lon="1.1508">
        <ele>306.32</ele>
        <time>2021-08-18T14:04:03Z</time>
      </trkpt>
      <trkpt lat="43.59049" lon="1.15076">
        <ele>306.32</ele>
        <time>2021-08-18T14:04:04Z</time>
      </trkpt>
      <trkpt lat="43.5905" lon="1.15073">
        <ele>306.8</ele>
        <time>2021-08-18T14:04:05Z</time>
      </trkpt>
      <trkpt lat="43.59062" lon="1.15028">
        <ele>307.28</ele>
        <time>2021-08-18T14:04:14Z</time>
      </trkpt>
      <trkpt lat="43.59078" lon="1.1497">
        <ele>307.28</ele>
        <time>2021-08-18T14:04:25Z</time>
      </trkpt>
      <trkpt lat="43.59093" lon="1.14914">
        <ele>308.72</ele>
        <time>2021-08-18T14:04:36Z</time>
      </trkpt>
      <trkpt lat="43.59107" lon="1.14871">
        <ele>307.28</ele>
        <time>2021-08-18T14:04:44Z</time>
      </trkpt>
      <trkpt lat="43.59109" lon="1.14865">
        <ele>307.28</ele>
        <time>2021-08-18T14:04:45Z</time>
      </trkpt>
      <trkpt lat="43.59131" lon="1.14806">
        <ele>304.39</ele>
        <time>2021-08-18T14:04:53Z</time>
      </trkpt>
      <trkpt lat="43.59146" lon="1.1476">
        <ele>301.03</ele>
        <time>2021-08-18T14:04:58Z</time>
      </trkpt>
      <trkpt lat="43.59149" lon="1.14748">
        <ele>300.07</ele>
        <time>2021-08-18T14:04:59Z</time>
      </trkpt>
      <trkpt lat="43.59155" lon="1.14724">
        <ele>297.18</ele>
        <time>2021-08-18T14:05:01Z</time>
      </trkpt>
      <trkpt lat="43.59158" lon="1.14681">
        <ele>292.86</ele>
        <time>2021-08-18T14:05:04Z</time>
      </trkpt>
      <trkpt lat="43.59155" lon="1.14665">
        <ele>291.9</ele>
        <time>2021-08-18T14:05:05Z</time>
      </trkpt>
      <trkpt lat="43.59151" lon="1.14649">
        <ele>290.46</ele>
        <time>2021-08-18T14:05:06Z</time>
      </trkpt>
      <trkpt lat="43.59146" lon="1.14634">
        <ele>288.53</ele>
        <time>2021-08-18T14:05:07Z</time>
      </trkpt>
      <trkpt lat="43.5914" lon="1.14618">
        <ele>287.57</ele>
        <time>2021-08-18T14:05:08Z</time>
      </trkpt>
      <trkpt lat="43.59128" lon="1.14583">
        <ele>284.21</ele>
        <time>2021-08-18T14:05:10Z</time>
      </trkpt>
      <trkpt lat="43.5912" lon="1.14553">
        <ele>282.28</ele>
        <time>2021-08-18T14:05:12Z</time>
      </trkpt>
      <trkpt lat="43.59118" lon="1.14538">
        <ele>281.8</ele>
        <time>2021-08-18T14:05:13Z</time>
      </trkpt>
      <trkpt lat="43.59117" lon="1.14522">
        <ele>280.84</ele>
        <time>2021-08-18T14:05:14Z</time>
      </trkpt>
      <trkpt lat="43.59119" lon="1.14509">
        <ele>279.88</ele>
        <time>2021-08-18T14:05:15Z</time>
      </trkpt>
      <trkpt lat="43.59122" lon="1.14498">
        <ele>278.92</ele>
        <time>2021-08-18T14:05:16Z</time>
      </trkpt>
      <trkpt lat="43.59128" lon="1.14489">
        <ele>278.44</ele>
        <time>2021-08-18T14:05:17Z</time>
      </trkpt>
      <trkpt lat="43.59135" lon="1.14483">
        <ele>277</ele>
        <time>2021-08-18T14:05:18Z</time>
      </trkpt>
      <trkpt lat="43.59144" lon="1.1448">
        <ele>276.04</ele>
        <time>2021-08-18T14:05:19Z</time>
      </trkpt>
      <trkpt lat="43.59152" lon="1.14481">
        <ele>275.56</ele>
        <time>2021-08-18T14:05:20Z</time>
      </trkpt>
      <trkpt lat="43.59161" lon="1.14484">
        <ele>275.56</ele>
        <time>2021-08-18T14:05:21Z</time>
      </trkpt>
      <trkpt lat="43.5917" lon="1.14488">
        <ele>274.59</ele>
        <time>2021-08-18T14:05:22Z</time>
      </trkpt>
      <trkpt lat="43.59178" lon="1.14493">
        <ele>274.11</ele>
        <time>2021-08-18T14:05:23Z</time>
      </trkpt>
      <trkpt lat="43.59195" lon="1.145">
        <ele>273.63</ele>
        <time>2021-08-18T14:05:25Z</time>
      </trkpt>
      <trkpt lat="43.59205" lon="1.145">
        <ele>272.19</ele>
        <time>2021-08-18T14:05:26Z</time>
      </trkpt>
      <trkpt lat="43.59214" lon="1.14498">
        <ele>272.19</ele>
        <time>2021-08-18T14:05:27Z</time>
      </trkpt>
      <trkpt lat="43.59222" lon="1.14493">
        <ele>271.23</ele>
        <time>2021-08-18T14:05:28Z</time>
      </trkpt>
      <trkpt lat="43.5923" lon="1.14487">
        <ele>269.79</ele>
        <time>2021-08-18T14:05:29Z</time>
      </trkpt>
      <trkpt lat="43.59238" lon="1.1448">
        <ele>270.27</ele>
        <time>2021-08-18T14:05:30Z</time>
      </trkpt>
      <trkpt lat="43.59247" lon="1.14471">
        <ele>268.35</ele>
        <time>2021-08-18T14:05:31Z</time>
      </trkpt>
      <trkpt lat="43.59271" lon="1.14447">
        <ele>264.98</ele>
        <time>2021-08-18T14:05:34Z</time>
      </trkpt>
      <trkpt lat="43.59305" lon="1.14406">
        <ele>260.65</ele>
        <time>2021-08-18T14:05:38Z</time>
      </trkpt>
      <trkpt lat="43.5933" lon="1.14371">
        <ele>256.33</ele>
        <time>2021-08-18T14:05:41Z</time>
      </trkpt>
      <trkpt lat="43.59357" lon="1.14333">
        <ele>252</ele>
        <time>2021-08-18T14:05:44Z</time>
      </trkpt>
      <trkpt lat="43.59377" lon="1.14305">
        <ele>248.64</ele>
        <time>2021-08-18T14:05:46Z</time>
      </trkpt>
      <trkpt lat="43.59407" lon="1.14263">
        <ele>244.31</ele>
        <time>2021-08-18T14:05:49Z</time>
      </trkpt>
      <trkpt lat="43.59428" lon="1.14233">
        <ele>240.95</ele>
        <time>2021-08-18T14:05:51Z</time>
      </trkpt>
      <trkpt lat="43.59457" lon="1.14189">
        <ele>237.58</ele>
        <time>2021-08-18T14:05:54Z</time>
      </trkpt>
      <trkpt lat="43.59477" lon="1.14157">
        <ele>233.74</ele>
        <time>2021-08-18T14:05:56Z</time>
      </trkpt>
      <trkpt lat="43.59502" lon="1.14111">
        <ele>229.41</ele>
        <time>2021-08-18T14:05:59Z</time>
      </trkpt>
      <trkpt lat="43.59526" lon="1.14061">
        <ele>226.53</ele>
        <time>2021-08-18T14:06:02Z</time>
      </trkpt>
      <trkpt lat="43.59551" lon="1.1402">
        <ele>225.57</ele>
        <time>2021-08-18T14:06:05Z</time>
      </trkpt>
      <trkpt lat="43.5956" lon="1.1401">
        <ele>225.09</ele>
        <time>2021-08-18T14:06:06Z</time>
      </trkpt>
      <trkpt lat="43.59569" lon="1.14002">
        <ele>224.61</ele>
        <time>2021-08-18T14:06:07Z</time>
      </trkpt>
      <trkpt lat="43.59595" lon="1.13981">
        <ele>223.64</ele>
        <time>2021-08-18T14:06:11Z</time>
      </trkpt>
      <trkpt lat="43.59598" lon="1.13974">
        <ele>224.12</ele>
        <time>2021-08-18T14:06:12Z</time>
      </trkpt>
      <trkpt lat="43.59599" lon="1.13967">
        <ele>223.16</ele>
        <time>2021-08-18T14:06:13Z</time>
      </trkpt>
      <trkpt lat="43.59597" lon="1.13962">
        <ele>222.68</ele>
        <time>2021-08-18T14:06:14Z</time>
      </trkpt>
      <trkpt lat="43.59592" lon="1.13957">
        <ele>222.2</ele>
        <time>2021-08-18T14:06:15Z</time>
      </trkpt>
      <trkpt lat="43.59587" lon="1.13955">
        <ele>221.24</ele>
        <time>2021-08-18T14:06:16Z</time>
      </trkpt>
      <trkpt lat="43.5958" lon="1.13952">
        <ele>220.76</ele>
        <time>2021-08-18T14:06:17Z</time>
      </trkpt>
      <trkpt lat="43.59574" lon="1.13948">
        <ele>219.8</ele>
        <time>2021-08-18T14:06:18Z</time>
      </trkpt>
      <trkpt lat="43.5957" lon="1.13941">
        <ele>220.28</ele>
        <time>2021-08-18T14:06:19Z</time>
      </trkpt>
      <trkpt lat="43.59567" lon="1.13932">
        <ele>219.32</ele>
        <time>2021-08-18T14:06:20Z</time>
      </trkpt>
      <trkpt lat="43.59567" lon="1.13923">
        <ele>219.32</ele>
        <time>2021-08-18T14:06:21Z</time>
      </trkpt>
      <trkpt lat="43.5957" lon="1.13916">
        <ele>218.84</ele>
        <time>2021-08-18T14:06:22Z</time>
      </trkpt>
      <trkpt lat="43.59575" lon="1.1391">
        <ele>218.84</ele>
        <time>2021-08-18T14:06:23Z</time>
      </trkpt>
      <trkpt lat="43.59581" lon="1.13907">
        <ele>218.84</ele>
        <time>2021-08-18T14:06:24Z</time>
      </trkpt>
      <trkpt lat="43.59586" lon="1.13904">
        <ele>218.84</ele>
        <time>2021-08-18T14:06:25Z</time>
      </trkpt>
      <trkpt lat="43.5959" lon="1.13903">
        <ele>218.84</ele>
        <time>2021-08-18T14:06:26Z</time>
      </trkpt>
      <trkpt lat="43.59594" lon="1.13902">
        <ele>218.84</ele>
        <time>2021-08-18T14:06:27Z</time>
      </trkpt>
      <trkpt lat="43.59621" lon="1.13895">
        <ele>218.84</ele>
        <time>2021-08-18T14:06:33Z</time>
      </trkpt>
      <trkpt lat="43.59641" lon="1.13895">
        <ele>220.76</ele>
        <time>2021-08-18T14:06:40Z</time>
      </trkpt>
      <trkpt lat="43.59661" lon="1.139">
        <ele>221.72</ele>
        <time>2021-08-18T14:06:46Z</time>
      </trkpt>
      <trkpt lat="43.59683" lon="1.13907">
        <ele>223.64</ele>
        <time>2021-08-18T14:06:53Z</time>
      </trkpt>
      <trkpt lat="43.59703" lon="1.13912">
        <ele>223.64</ele>
        <time>2021-08-18T14:07:00Z</time>
      </trkpt>
      <trkpt lat="43.59735" lon="1.1392">
        <ele>224.12</ele>
        <time>2021-08-18T14:07:10Z</time>
      </trkpt>
      <trkpt lat="43.59772" lon="1.13923">
        <ele>225.57</ele>
        <time>2021-08-18T14:07:21Z</time>
      </trkpt>
      <trkpt lat="43.59803" lon="1.13919">
        <ele>226.05</ele>
        <time>2021-08-18T14:07:30Z</time>
      </trkpt>
      <trkpt lat="43.59827" lon="1.13915">
        <ele>226.53</ele>
        <time>2021-08-18T14:07:38Z</time>
      </trkpt>
      <trkpt lat="43.59848" lon="1.1391">
        <ele>227.97</ele>
        <time>2021-08-18T14:07:47Z</time>
      </trkpt>
      <trkpt lat="43.59869" lon="1.13906">
        <ele>229.89</ele>
        <time>2021-08-18T14:07:57Z</time>
      </trkpt>
      <trkpt lat="43.5989" lon="1.139">
        <ele>231.81</ele>
        <time>2021-08-18T14:08:07Z</time>
      </trkpt>
      <trkpt lat="43.59903" lon="1.13892">
        <ele>232.78</ele>
        <time>2021-08-18T14:08:14Z</time>
      </trkpt>
      <trkpt lat="43.59913" lon="1.13876">
        <ele>235.18</ele>
        <time>2021-08-18T14:08:22Z</time>
      </trkpt>
      <trkpt lat="43.59918" lon="1.13852">
        <ele>237.58</ele>
        <time>2021-08-18T14:08:31Z</time>
      </trkpt>
      <trkpt lat="43.59918" lon="1.13829">
        <ele>239.02</ele>
        <time>2021-08-18T14:08:40Z</time>
      </trkpt>
      <trkpt lat="43.59918" lon="1.13818">
        <ele>240.47</ele>
        <time>2021-08-18T14:08:45Z</time>
      </trkpt>
      <trkpt lat="43.59918" lon="1.13816">
        <ele>240.47</ele>
        <time>2021-08-18T14:08:46Z</time>
      </trkpt>
      <trkpt lat="43.59916" lon="1.13803">
        <ele>241.43</ele>
        <time>2021-08-18T14:08:51Z</time>
      </trkpt>
      <trkpt lat="43.59915" lon="1.13801">
        <ele>241.43</ele>
        <time>2021-08-18T14:08:52Z</time>
      </trkpt>
      <trkpt lat="43.59915" lon="1.13798">
        <ele>241.91</ele>
        <time>2021-08-18T14:08:53Z</time>
      </trkpt>
      <trkpt lat="43.59915" lon="1.13796">
        <ele>241.91</ele>
        <time>2021-08-18T14:08:54Z</time>
      </trkpt>
      <trkpt lat="43.59915" lon="1.13793">
        <ele>241.91</ele>
        <time>2021-08-18T14:08:55Z</time>
      </trkpt>
      <trkpt lat="43.59913" lon="1.13777">
        <ele>243.35</ele>
        <time>2021-08-18T14:09:02Z</time>
      </trkpt>
      <trkpt lat="43.59912" lon="1.13753">
        <ele>244.79</ele>
        <time>2021-08-18T14:09:12Z</time>
      </trkpt>
      <trkpt lat="43.59909" lon="1.13728">
        <ele>246.72</ele>
        <time>2021-08-18T14:09:22Z</time>
      </trkpt>
      <trkpt lat="43.59908" lon="1.13705">
        <ele>247.68</ele>
        <time>2021-08-18T14:09:30Z</time>
      </trkpt>
      <trkpt lat="43.59905" lon="1.13678">
        <ele>250.08</ele>
        <time>2021-08-18T14:09:39Z</time>
      </trkpt>
      <trkpt lat="43.59904" lon="1.13641">
        <ele>251.52</ele>
        <time>2021-08-18T14:09:50Z</time>
      </trkpt>
      <trkpt lat="43.59905" lon="1.13606">
        <ele>252</ele>
        <time>2021-08-18T14:09:58Z</time>
      </trkpt>
      <trkpt lat="43.5991" lon="1.13574">
        <ele>251.52</ele>
        <time>2021-08-18T14:10:05Z</time>
      </trkpt>
      <trkpt lat="43.5991" lon="1.13569">
        <ele>251.52</ele>
        <time>2021-08-18T14:10:06Z</time>
      </trkpt>
      <trkpt lat="43.59911" lon="1.13563">
        <ele>251.52</ele>
        <time>2021-08-18T14:10:07Z</time>
      </trkpt>
      <trkpt lat="43.5992" lon="1.13523">
        <ele>248.16</ele>
        <time>2021-08-18T14:10:12Z</time>
      </trkpt>
      <trkpt lat="43.59926" lon="1.13498">
        <ele>246.72</ele>
        <time>2021-08-18T14:10:15Z</time>
      </trkpt>
      <trkpt lat="43.59936" lon="1.13456">
        <ele>243.35</ele>
        <time>2021-08-18T14:10:19Z</time>
      </trkpt>
      <trkpt lat="43.59941" lon="1.13432">
        <ele>241.91</ele>
        <time>2021-08-18T14:10:21Z</time>
      </trkpt>
      <trkpt lat="43.59952" lon="1.13393">
        <ele>238.06</ele>
        <time>2021-08-18T14:10:24Z</time>
      </trkpt>
      <trkpt lat="43.59969" lon="1.13324">
        <ele>234.7</ele>
        <time>2021-08-18T14:10:29Z</time>
      </trkpt>
      <trkpt lat="43.59987" lon="1.1325">
        <ele>231.33</ele>
        <time>2021-08-18T14:10:34Z</time>
      </trkpt>
      <trkpt lat="43.59994" lon="1.13222">
        <ele>230.85</ele>
        <time>2021-08-18T14:10:36Z</time>
      </trkpt>
      <trkpt lat="43.60017" lon="1.13164">
        <ele>233.26</ele>
        <time>2021-08-18T14:10:41Z</time>
      </trkpt>
      <trkpt lat="43.60034" lon="1.13138">
        <ele>236.14</ele>
        <time>2021-08-18T14:10:45Z</time>
      </trkpt>
      <trkpt lat="43.60047" lon="1.13119">
        <ele>238.54</ele>
        <time>2021-08-18T14:10:50Z</time>
      </trkpt>
      <trkpt lat="43.60057" lon="1.13104">
        <ele>239.51</ele>
        <time>2021-08-18T14:10:56Z</time>
      </trkpt>
      <trkpt lat="43.60069" lon="1.13086">
        <ele>241.43</ele>
        <time>2021-08-18T14:11:05Z</time>
      </trkpt>
      <trkpt lat="43.60081" lon="1.13067">
        <ele>243.35</ele>
        <time>2021-08-18T14:11:16Z</time>
      </trkpt>
      <trkpt lat="43.60093" lon="1.13051">
        <ele>244.79</ele>
        <time>2021-08-18T14:11:26Z</time>
      </trkpt>
      <trkpt lat="43.60104" lon="1.13032">
        <ele>247.2</ele>
        <time>2021-08-18T14:11:36Z</time>
      </trkpt>
      <trkpt lat="43.60114" lon="1.13018">
        <ele>248.64</ele>
        <time>2021-08-18T14:11:44Z</time>
      </trkpt>
      <trkpt lat="43.6013" lon="1.12996">
        <ele>250.08</ele>
        <time>2021-08-18T14:11:56Z</time>
      </trkpt>
      <trkpt lat="43.60146" lon="1.12971">
        <ele>252.48</ele>
        <time>2021-08-18T14:12:07Z</time>
      </trkpt>
      <trkpt lat="43.6016" lon="1.12947">
        <ele>253.93</ele>
        <time>2021-08-18T14:12:16Z</time>
      </trkpt>
      <trkpt lat="43.60176" lon="1.12912">
        <ele>253.93</ele>
        <time>2021-08-18T14:12:25Z</time>
      </trkpt>
      <trkpt lat="43.60186" lon="1.12883">
        <ele>250.56</ele>
        <time>2021-08-18T14:12:29Z</time>
      </trkpt>
      <trkpt lat="43.60198" lon="1.12843">
        <ele>246.72</ele>
        <time>2021-08-18T14:12:33Z</time>
      </trkpt>
      <trkpt lat="43.60209" lon="1.12809">
        <ele>242.87</ele>
        <time>2021-08-18T14:12:36Z</time>
      </trkpt>
      <trkpt lat="43.60222" lon="1.12769">
        <ele>239.99</ele>
        <time>2021-08-18T14:12:39Z</time>
      </trkpt>
      <trkpt lat="43.6024" lon="1.12712">
        <ele>235.66</ele>
        <time>2021-08-18T14:12:43Z</time>
      </trkpt>
      <trkpt lat="43.60259" lon="1.12652">
        <ele>231.81</ele>
        <time>2021-08-18T14:12:47Z</time>
      </trkpt>
      <trkpt lat="43.60273" lon="1.12607">
        <ele>228.93</ele>
        <time>2021-08-18T14:12:50Z</time>
      </trkpt>
      <trkpt lat="43.60313" lon="1.1248">
        <ele>227.97</ele>
        <time>2021-08-18T14:12:59Z</time>
      </trkpt>
      <trkpt lat="43.60334" lon="1.12413">
        <ele>229.41</ele>
        <time>2021-08-18T14:13:05Z</time>
      </trkpt>
      <trkpt lat="43.60337" lon="1.12403">
        <ele>229.89</ele>
        <time>2021-08-18T14:13:06Z</time>
      </trkpt>
      <trkpt lat="43.60356" lon="1.12343">
        <ele>229.89</ele>
        <time>2021-08-18T14:13:13Z</time>
      </trkpt>
      <trkpt lat="43.6037" lon="1.12295">
        <ele>230.37</ele>
        <time>2021-08-18T14:13:20Z</time>
      </trkpt>
      <trkpt lat="43.6038" lon="1.12264">
        <ele>230.85</ele>
        <time>2021-08-18T14:13:26Z</time>
      </trkpt>
      <trkpt lat="43.60389" lon="1.12236">
        <ele>232.3</ele>
        <time>2021-08-18T14:13:33Z</time>
      </trkpt>
      <trkpt lat="43.60399" lon="1.12207">
        <ele>233.26</ele>
        <time>2021-08-18T14:13:40Z</time>
      </trkpt>
      <trkpt lat="43.60407" lon="1.12181">
        <ele>234.7</ele>
        <time>2021-08-18T14:13:46Z</time>
      </trkpt>
      <trkpt lat="43.60417" lon="1.12148">
        <ele>235.18</ele>
        <time>2021-08-18T14:13:54Z</time>
      </trkpt>
      <trkpt lat="43.60427" lon="1.12113">
        <ele>235.66</ele>
        <time>2021-08-18T14:14:02Z</time>
      </trkpt>
      <trkpt lat="43.60443" lon="1.12062">
        <ele>236.62</ele>
        <time>2021-08-18T14:14:12Z</time>
      </trkpt>
      <trkpt lat="43.60459" lon="1.12011">
        <ele>234.7</ele>
        <time>2021-08-18T14:14:20Z</time>
      </trkpt>
      <trkpt lat="43.60473" lon="1.11966">
        <ele>233.26</ele>
        <time>2021-08-18T14:14:26Z</time>
      </trkpt>
      <trkpt lat="43.60495" lon="1.11895">
        <ele>231.81</ele>
        <time>2021-08-18T14:14:34Z</time>
      </trkpt>
      <trkpt lat="43.60518" lon="1.1182">
        <ele>230.37</ele>
        <time>2021-08-18T14:14:42Z</time>
      </trkpt>
      <trkpt lat="43.60545" lon="1.11735">
        <ele>228.93</ele>
        <time>2021-08-18T14:14:51Z</time>
      </trkpt>
      <trkpt lat="43.60567" lon="1.11662">
        <ele>228.45</ele>
        <time>2021-08-18T14:14:59Z</time>
      </trkpt>
      <trkpt lat="43.60593" lon="1.11577">
        <ele>226.53</ele>
        <time>2021-08-18T14:15:08Z</time>
      </trkpt>
      <trkpt lat="43.60618" lon="1.11493">
        <ele>224.61</ele>
        <time>2021-08-18T14:15:16Z</time>
      </trkpt>
      <trkpt lat="43.60639" lon="1.11421">
        <ele>223.64</ele>
        <time>2021-08-18T14:15:23Z</time>
      </trkpt>
      <trkpt lat="43.60662" lon="1.11353">
        <ele>223.16</ele>
        <time>2021-08-18T14:15:31Z</time>
      </trkpt>
      <trkpt lat="43.60688" lon="1.11273">
        <ele>220.76</ele>
        <time>2021-08-18T14:15:40Z</time>
      </trkpt>
      <trkpt lat="43.60707" lon="1.11207">
        <ele>216.91</ele>
        <time>2021-08-18T14:15:46Z</time>
      </trkpt>
      <trkpt lat="43.60727" lon="1.11147">
        <ele>214.51</ele>
        <time>2021-08-18T14:15:51Z</time>
      </trkpt>
      <trkpt lat="43.60755" lon="1.11058">
        <ele>210.19</ele>
        <time>2021-08-18T14:15:58Z</time>
      </trkpt>
      <trkpt lat="43.60776" lon="1.10991">
        <ele>206.34</ele>
        <time>2021-08-18T14:16:03Z</time>
      </trkpt>
      <trkpt lat="43.6079" lon="1.10946">
        <ele>202.01</ele>
        <time>2021-08-18T14:16:06Z</time>
      </trkpt>
      <trkpt lat="43.60799" lon="1.10915">
        <ele>199.13</ele>
        <time>2021-08-18T14:16:08Z</time>
      </trkpt>
      <trkpt lat="43.60809" lon="1.10883">
        <ele>195.77</ele>
        <time>2021-08-18T14:16:10Z</time>
      </trkpt>
      <trkpt lat="43.6082" lon="1.10849">
        <ele>192.4</ele>
        <time>2021-08-18T14:16:12Z</time>
      </trkpt>
      <trkpt lat="43.60831" lon="1.10813">
        <ele>189.04</ele>
        <time>2021-08-18T14:16:14Z</time>
      </trkpt>
      <trkpt lat="43.60842" lon="1.10779">
        <ele>186.15</ele>
        <time>2021-08-18T14:16:16Z</time>
      </trkpt>
      <trkpt lat="43.60853" lon="1.10743">
        <ele>182.79</ele>
        <time>2021-08-18T14:16:18Z</time>
      </trkpt>
      <trkpt lat="43.60871" lon="1.10687">
        <ele>179.42</ele>
        <time>2021-08-18T14:16:21Z</time>
      </trkpt>
      <trkpt lat="43.60887" lon="1.10633">
        <ele>175.1</ele>
        <time>2021-08-18T14:16:24Z</time>
      </trkpt>
      <trkpt lat="43.60911" lon="1.1056">
        <ele>170.77</ele>
        <time>2021-08-18T14:16:28Z</time>
      </trkpt>
      <trkpt lat="43.60916" lon="1.10542">
        <ele>170.77</ele>
        <time>2021-08-18T14:16:29Z</time>
      </trkpt>
      <trkpt lat="43.60931" lon="1.10492">
        <ele>169.33</ele>
        <time>2021-08-18T14:16:32Z</time>
      </trkpt>
      <trkpt lat="43.60945" lon="1.10449">
        <ele>171.25</ele>
        <time>2021-08-18T14:16:35Z</time>
      </trkpt>
      <trkpt lat="43.60962" lon="1.10392">
        <ele>173.66</ele>
        <time>2021-08-18T14:16:40Z</time>
      </trkpt>
      <trkpt lat="43.60965" lon="1.10384">
        <ele>173.66</ele>
        <time>2021-08-18T14:16:41Z</time>
      </trkpt>
      <trkpt lat="43.60975" lon="1.10347">
        <ele>175.58</ele>
        <time>2021-08-18T14:16:46Z</time>
      </trkpt>
      <trkpt lat="43.60989" lon="1.10306">
        <ele>177.02</ele>
        <time>2021-08-18T14:16:55Z</time>
      </trkpt>
      <trkpt lat="43.60999" lon="1.10273">
        <ele>177.98</ele>
        <time>2021-08-18T14:17:03Z</time>
      </trkpt>
      <trkpt lat="43.61013" lon="1.1023">
        <ele>178.94</ele>
        <time>2021-08-18T14:17:14Z</time>
      </trkpt>
      <trkpt lat="43.61025" lon="1.10193">
        <ele>179.9</ele>
        <time>2021-08-18T14:17:23Z</time>
      </trkpt>
      <trkpt lat="43.61035" lon="1.10158">
        <ele>181.83</ele>
        <time>2021-08-18T14:17:31Z</time>
      </trkpt>
      <trkpt lat="43.6105" lon="1.10114">
        <ele>182.79</ele>
        <time>2021-08-18T14:17:41Z</time>
      </trkpt>
      <trkpt lat="43.61064" lon="1.10071">
        <ele>184.71</ele>
        <time>2021-08-18T14:17:52Z</time>
      </trkpt>
      <trkpt lat="43.61078" lon="1.10024">
        <ele>185.67</ele>
        <time>2021-08-18T14:18:04Z</time>
      </trkpt>
      <trkpt lat="43.61093" lon="1.09976">
        <ele>187.59</ele>
        <time>2021-08-18T14:18:16Z</time>
      </trkpt>
      <trkpt lat="43.61106" lon="1.09935">
        <ele>188.08</ele>
        <time>2021-08-18T14:18:25Z</time>
      </trkpt>
      <trkpt lat="43.61109" lon="1.09917">
        <ele>188.08</ele>
        <time>2021-08-18T14:18:31Z</time>
      </trkpt>
      <trkpt lat="43.6111" lon="1.09916">
        <ele>189.04</ele>
        <time>2021-08-18T14:18:33Z</time>
      </trkpt>
      <trkpt lat="43.61118" lon="1.099">
        <ele>189.04</ele>
        <time>2021-08-18T14:18:38Z</time>
      </trkpt>
      <trkpt lat="43.61119" lon="1.09894">
        <ele>189.04</ele>
        <time>2021-08-18T14:18:39Z</time>
      </trkpt>
      <trkpt lat="43.6112" lon="1.09889">
        <ele>189.04</ele>
        <time>2021-08-18T14:18:40Z</time>
      </trkpt>
      <trkpt lat="43.6112" lon="1.09883">
        <ele>187.59</ele>
        <time>2021-08-18T14:18:41Z</time>
      </trkpt>
      <trkpt lat="43.61121" lon="1.09876">
        <ele>187.59</ele>
        <time>2021-08-18T14:18:42Z</time>
      </trkpt>
      <trkpt lat="43.61121" lon="1.09869">
        <ele>186.63</ele>
        <time>2021-08-18T14:18:43Z</time>
      </trkpt>
      <trkpt lat="43.61123" lon="1.09862">
        <ele>186.63</ele>
        <time>2021-08-18T14:18:44Z</time>
      </trkpt>
      <trkpt lat="43.61126" lon="1.09855">
        <ele>186.63</ele>
        <time>2021-08-18T14:18:45Z</time>
      </trkpt>
      <trkpt lat="43.61129" lon="1.09848">
        <ele>186.15</ele>
        <time>2021-08-18T14:18:46Z</time>
      </trkpt>
      <trkpt lat="43.61135" lon="1.09833">
        <ele>186.15</ele>
        <time>2021-08-18T14:18:48Z</time>
      </trkpt>
      <trkpt lat="43.6116" lon="1.09762">
        <ele>184.23</ele>
        <time>2021-08-18T14:18:57Z</time>
      </trkpt>
      <trkpt lat="43.61174" lon="1.0969">
        <ele>181.83</ele>
        <time>2021-08-18T14:19:05Z</time>
      </trkpt>
      <trkpt lat="43.61186" lon="1.09608">
        <ele>180.87</ele>
        <time>2021-08-18T14:19:14Z</time>
      </trkpt>
      <trkpt lat="43.61203" lon="1.09498">
        <ele>179.42</ele>
        <time>2021-08-18T14:19:26Z</time>
      </trkpt>
      <trkpt lat="43.61216" lon="1.09405">
        <ele>178.46</ele>
        <time>2021-08-18T14:19:36Z</time>
      </trkpt>
      <trkpt lat="43.6123" lon="1.09316">
        <ele>176.06</ele>
        <time>2021-08-18T14:19:45Z</time>
      </trkpt>
      <trkpt lat="43.61243" lon="1.0923">
        <ele>172.69</ele>
        <time>2021-08-18T14:19:53Z</time>
      </trkpt>
      <trkpt lat="43.61247" lon="1.09206">
        <ele>172.21</ele>
        <time>2021-08-18T14:19:55Z</time>
      </trkpt>
      <trkpt lat="43.61254" lon="1.09157">
        <ele>169.33</ele>
        <time>2021-08-18T14:19:59Z</time>
      </trkpt>
      <trkpt lat="43.61266" lon="1.09066">
        <ele>165.96</ele>
        <time>2021-08-18T14:20:06Z</time>
      </trkpt>
      <trkpt lat="43.61283" lon="1.08955">
        <ele>164.04</ele>
        <time>2021-08-18T14:20:15Z</time>
      </trkpt>
      <trkpt lat="43.6129" lon="1.08894">
        <ele>163.56</ele>
        <time>2021-08-18T14:20:21Z</time>
      </trkpt>
      <trkpt lat="43.6129" lon="1.08883">
        <ele>163.56</ele>
        <time>2021-08-18T14:20:22Z</time>
      </trkpt>
      <trkpt lat="43.61293" lon="1.08873">
        <ele>162.6</ele>
        <time>2021-08-18T14:20:23Z</time>
      </trkpt>
      <trkpt lat="43.61295" lon="1.08865">
        <ele>162.6</ele>
        <time>2021-08-18T14:20:24Z</time>
      </trkpt>
      <trkpt lat="43.61296" lon="1.08855">
        <ele>162.6</ele>
        <time>2021-08-18T14:20:25Z</time>
      </trkpt>
      <trkpt lat="43.61297" lon="1.08844">
        <ele>162.6</ele>
        <time>2021-08-18T14:20:26Z</time>
      </trkpt>
      <trkpt lat="43.61299" lon="1.08835">
        <ele>162.6</ele>
        <time>2021-08-18T14:20:27Z</time>
      </trkpt>
      <trkpt lat="43.61309" lon="1.08773">
        <ele>161.64</ele>
        <time>2021-08-18T14:20:34Z</time>
      </trkpt>
      <trkpt lat="43.61317" lon="1.08718">
        <ele>161.16</ele>
        <time>2021-08-18T14:20:41Z</time>
      </trkpt>
      <trkpt lat="43.61327" lon="1.08651">
        <ele>160.2</ele>
        <time>2021-08-18T14:20:49Z</time>
      </trkpt>
      <trkpt lat="43.61341" lon="1.08557">
        <ele>159.24</ele>
        <time>2021-08-18T14:21:00Z</time>
      </trkpt>
      <trkpt lat="43.61351" lon="1.08492">
        <ele>158.27</ele>
        <time>2021-08-18T14:21:08Z</time>
      </trkpt>
      <trkpt lat="43.61363" lon="1.08421">
        <ele>158.27</ele>
        <time>2021-08-18T14:21:17Z</time>
      </trkpt>
      <trkpt lat="43.61372" lon="1.08356">
        <ele>157.79</ele>
        <time>2021-08-18T14:21:25Z</time>
      </trkpt>
      <trkpt lat="43.61381" lon="1.08292">
        <ele>157.31</ele>
        <time>2021-08-18T14:21:33Z</time>
      </trkpt>
      <trkpt lat="43.61383" lon="1.0828">
        <ele>157.31</ele>
        <time>2021-08-18T14:21:35Z</time>
      </trkpt>
      <trkpt lat="43.61387" lon="1.08268">
        <ele>158.75</ele>
        <time>2021-08-18T14:21:37Z</time>
      </trkpt>
      <trkpt lat="43.61397" lon="1.08219">
        <ele>158.75</ele>
        <time>2021-08-18T14:21:45Z</time>
      </trkpt>
      <trkpt lat="43.614" lon="1.08207">
        <ele>158.75</ele>
        <time>2021-08-18T14:21:47Z</time>
      </trkpt>
      <trkpt lat="43.61402" lon="1.08175">
        <ele>158.75</ele>
        <time>2021-08-18T14:21:53Z</time>
      </trkpt>
      <trkpt lat="43.614" lon="1.08153">
        <ele>158.75</ele>
        <time>2021-08-18T14:21:57Z</time>
      </trkpt>
      <trkpt lat="43.61397" lon="1.08102">
        <ele>156.83</ele>
        <time>2021-08-18T14:22:04Z</time>
      </trkpt>
      <trkpt lat="43.61391" lon="1.08035">
        <ele>155.87</ele>
        <time>2021-08-18T14:22:12Z</time>
      </trkpt>
      <trkpt lat="43.61384" lon="1.07954">
        <ele>154.43</ele>
        <time>2021-08-18T14:22:22Z</time>
      </trkpt>
      <trkpt lat="43.61382" lon="1.07931">
        <ele>154.43</ele>
        <time>2021-08-18T14:22:27Z</time>
      </trkpt>
      <trkpt lat="43.61382" lon="1.07895">
        <ele>153.47</ele>
        <time>2021-08-18T14:22:33Z</time>
      </trkpt>
      <trkpt lat="43.61388" lon="1.07841">
        <ele>152.99</ele>
        <time>2021-08-18T14:22:40Z</time>
      </trkpt>
      <trkpt lat="43.61397" lon="1.07782">
        <ele>152.51</ele>
        <time>2021-08-18T14:22:48Z</time>
      </trkpt>
      <trkpt lat="43.61406" lon="1.07712">
        <ele>152.51</ele>
        <time>2021-08-18T14:22:57Z</time>
      </trkpt>
      <trkpt lat="43.61418" lon="1.07627">
        <ele>152.51</ele>
        <time>2021-08-18T14:23:08Z</time>
      </trkpt>
      <trkpt lat="43.61428" lon="1.07552">
        <ele>152.51</ele>
        <time>2021-08-18T14:23:18Z</time>
      </trkpt>
      <trkpt lat="43.61438" lon="1.07476">
        <ele>152.51</ele>
        <time>2021-08-18T14:23:28Z</time>
      </trkpt>
      <trkpt lat="43.61449" lon="1.07408">
        <ele>151.54</ele>
        <time>2021-08-18T14:23:37Z</time>
      </trkpt>
      <trkpt lat="43.61453" lon="1.07376">
        <ele>151.54</ele>
        <time>2021-08-18T14:23:41Z</time>
      </trkpt>
      <trkpt lat="43.61453" lon="1.07368">
        <ele>151.54</ele>
        <time>2021-08-18T14:23:42Z</time>
      </trkpt>
      <trkpt lat="43.61455" lon="1.0736">
        <ele>150.58</ele>
        <time>2021-08-18T14:23:43Z</time>
      </trkpt>
      <trkpt lat="43.61465" lon="1.07293">
        <ele>150.1</ele>
        <time>2021-08-18T14:23:51Z</time>
      </trkpt>
      <trkpt lat="43.61475" lon="1.07217">
        <ele>150.1</ele>
        <time>2021-08-18T14:24:00Z</time>
      </trkpt>
      <trkpt lat="43.61485" lon="1.07151">
        <ele>150.1</ele>
        <time>2021-08-18T14:24:08Z</time>
      </trkpt>
      <trkpt lat="43.61488" lon="1.07126">
        <ele>150.1</ele>
        <time>2021-08-18T14:24:11Z</time>
      </trkpt>
      <trkpt lat="43.61488" lon="1.07112">
        <ele>149.62</ele>
        <time>2021-08-18T14:24:13Z</time>
      </trkpt>
      <trkpt lat="43.61497" lon="1.07056">
        <ele>149.62</ele>
        <time>2021-08-18T14:24:20Z</time>
      </trkpt>
      <trkpt lat="43.61507" lon="1.06988">
        <ele>149.62</ele>
        <time>2021-08-18T14:24:28Z</time>
      </trkpt>
      <trkpt lat="43.61509" lon="1.06977">
        <ele>151.54</ele>
        <time>2021-08-18T14:24:30Z</time>
      </trkpt>
      <trkpt lat="43.61515" lon="1.06944">
        <ele>150.1</ele>
        <time>2021-08-18T14:24:35Z</time>
      </trkpt>
      <trkpt lat="43.61521" lon="1.06922">
        <ele>150.1</ele>
        <time>2021-08-18T14:24:40Z</time>
      </trkpt>
      <trkpt lat="43.61521" lon="1.06921">
        <ele>150.1</ele>
        <time>2021-08-18T14:24:44Z</time>
      </trkpt>
      <trkpt lat="43.61521" lon="1.06921">
        <ele>150.1</ele>
        <time>2021-08-18T14:24:56Z</time>
      </trkpt>
      <trkpt lat="43.61521" lon="1.06918">
        <ele>150.1</ele>
        <time>2021-08-18T14:25:17Z</time>
      </trkpt>
      <trkpt lat="43.61524" lon="1.06922">
        <ele>149.62</ele>
        <time>2021-08-18T14:25:38Z</time>
      </trkpt>
      <trkpt lat="43.61523" lon="1.06923">
        <ele>149.62</ele>
        <time>2021-08-18T14:26:05Z</time>
      </trkpt>
      <trkpt lat="43.61522" lon="1.06923">
        <ele>149.62</ele>
        <time>2021-08-18T14:26:23Z</time>
      </trkpt>
      <trkpt lat="43.6152" lon="1.06925">
        <ele>149.62</ele>
        <time>2021-08-18T14:26:48Z</time>
      </trkpt>
      <trkpt lat="43.61521" lon="1.06922">
        <ele>149.62</ele>
        <time>2021-08-18T14:27:13Z</time>
      </trkpt>
      <trkpt lat="43.61522" lon="1.0692">
        <ele>149.62</ele>
        <time>2021-08-18T14:27:35Z</time>
      </trkpt>
      <trkpt lat="43.6152" lon="1.0692">
        <ele>149.62</ele>
        <time>2021-08-18T14:27:44Z</time>
      </trkpt>
      <trkpt lat="43.61518" lon="1.06916">
        <ele>149.62</ele>
        <time>2021-08-18T14:27:47Z</time>
      </trkpt>
      <trkpt lat="43.61514" lon="1.06916">
        <ele>149.62</ele>
        <time>2021-08-18T14:27:49Z</time>
      </trkpt>
      <trkpt lat="43.61513" lon="1.06919">
        <ele>149.62</ele>
        <time>2021-08-18T14:27:50Z</time>
      </trkpt>
      <trkpt lat="43.61513" lon="1.06922">
        <ele>149.62</ele>
        <time>2021-08-18T14:27:51Z</time>
      </trkpt>
      <trkpt lat="43.61512" lon="1.06927">
        <ele>149.62</ele>
        <time>2021-08-18T14:27:52Z</time>
      </trkpt>
      <trkpt lat="43.61507" lon="1.06968">
        <ele>149.14</ele>
        <time>2021-08-18T14:28:00Z</time>
      </trkpt>
      <trkpt lat="43.61502" lon="1.07006">
        <ele>149.14</ele>
        <time>2021-08-18T14:28:08Z</time>
      </trkpt>
      <trkpt lat="43.615" lon="1.07016">
        <ele>149.14</ele>
        <time>2021-08-18T14:28:10Z</time>
      </trkpt>
      <trkpt lat="43.61492" lon="1.07081">
        <ele>149.14</ele>
        <time>2021-08-18T14:28:20Z</time>
      </trkpt>
      <trkpt lat="43.61484" lon="1.07134">
        <ele>149.14</ele>
        <time>2021-08-18T14:28:29Z</time>
      </trkpt>
      <trkpt lat="43.61482" lon="1.07138">
        <ele>149.14</ele>
        <time>2021-08-18T14:28:30Z</time>
      </trkpt>
      <trkpt lat="43.61478" lon="1.0714">
        <ele>149.14</ele>
        <time>2021-08-18T14:28:31Z</time>
      </trkpt>
      <trkpt lat="43.61475" lon="1.07139">
        <ele>149.14</ele>
        <time>2021-08-18T14:28:32Z</time>
      </trkpt>
      <trkpt lat="43.61471" lon="1.07137">
        <ele>149.14</ele>
        <time>2021-08-18T14:28:33Z</time>
      </trkpt>
      <trkpt lat="43.61468" lon="1.07134">
        <ele>149.14</ele>
        <time>2021-08-18T14:28:34Z</time>
      </trkpt>
      <trkpt lat="43.61465" lon="1.07131">
        <ele>148.66</ele>
        <time>2021-08-18T14:28:35Z</time>
      </trkpt>
      <trkpt lat="43.61461" lon="1.07126">
        <ele>148.18</ele>
        <time>2021-08-18T14:28:36Z</time>
      </trkpt>
      <trkpt lat="43.61456" lon="1.07122">
        <ele>147.7</ele>
        <time>2021-08-18T14:28:37Z</time>
      </trkpt>
      <trkpt lat="43.61451" lon="1.07119">
        <ele>147.7</ele>
        <time>2021-08-18T14:28:38Z</time>
      </trkpt>
      <trkpt lat="43.61446" lon="1.07117">
        <ele>147.7</ele>
        <time>2021-08-18T14:28:39Z</time>
      </trkpt>
      <trkpt lat="43.61433" lon="1.07112">
        <ele>147.7</ele>
        <time>2021-08-18T14:28:42Z</time>
      </trkpt>
      <trkpt lat="43.61429" lon="1.07109">
        <ele>147.7</ele>
        <time>2021-08-18T14:28:43Z</time>
      </trkpt>
      <trkpt lat="43.61426" lon="1.07105">
        <ele>147.7</ele>
        <time>2021-08-18T14:28:44Z</time>
      </trkpt>
      <trkpt lat="43.61423" lon="1.07101">
        <ele>147.7</ele>
        <time>2021-08-18T14:28:45Z</time>
      </trkpt>
      <trkpt lat="43.6142" lon="1.07095">
        <ele>147.7</ele>
        <time>2021-08-18T14:28:46Z</time>
      </trkpt>
      <trkpt lat="43.61417" lon="1.0709">
        <ele>147.7</ele>
        <time>2021-08-18T14:28:47Z</time>
      </trkpt>
      <trkpt lat="43.61414" lon="1.07085">
        <ele>147.7</ele>
        <time>2021-08-18T14:28:48Z</time>
      </trkpt>
      <trkpt lat="43.6141" lon="1.0708">
        <ele>147.7</ele>
        <time>2021-08-18T14:28:49Z</time>
      </trkpt>
      <trkpt lat="43.61406" lon="1.07075">
        <ele>147.7</ele>
        <time>2021-08-18T14:28:50Z</time>
      </trkpt>
      <trkpt lat="43.61402" lon="1.07071">
        <ele>147.7</ele>
        <time>2021-08-18T14:28:51Z</time>
      </trkpt>
      <trkpt lat="43.61398" lon="1.07067">
        <ele>147.7</ele>
        <time>2021-08-18T14:28:52Z</time>
      </trkpt>
      <trkpt lat="43.61365" lon="1.07046">
        <ele>148.66</ele>
        <time>2021-08-18T14:28:59Z</time>
      </trkpt>
      <trkpt lat="43.6136" lon="1.07042">
        <ele>148.66</ele>
        <time>2021-08-18T14:29:00Z</time>
      </trkpt>
      <trkpt lat="43.61356" lon="1.07038">
        <ele>148.66</ele>
        <time>2021-08-18T14:29:01Z</time>
      </trkpt>
      <trkpt lat="43.6134" lon="1.07024">
        <ele>148.66</ele>
        <time>2021-08-18T14:29:05Z</time>
      </trkpt>
      <trkpt lat="43.61336" lon="1.07022">
        <ele>148.66</ele>
        <time>2021-08-18T14:29:06Z</time>
      </trkpt>
      <trkpt lat="43.61322" lon="1.07017">
        <ele>148.66</ele>
        <time>2021-08-18T14:29:09Z</time>
      </trkpt>
      <trkpt lat="43.61318" lon="1.07016">
        <ele>148.66</ele>
        <time>2021-08-18T14:29:10Z</time>
      </trkpt>
      <trkpt lat="43.61308" lon="1.07014">
        <ele>148.66</ele>
        <time>2021-08-18T14:29:12Z</time>
      </trkpt>
      <trkpt lat="43.61303" lon="1.07014">
        <ele>148.66</ele>
        <time>2021-08-18T14:29:13Z</time>
      </trkpt>
      <trkpt lat="43.61298" lon="1.07015">
        <ele>148.66</ele>
        <time>2021-08-18T14:29:14Z</time>
      </trkpt>
      <trkpt lat="43.61293" lon="1.07016">
        <ele>148.66</ele>
        <time>2021-08-18T14:29:15Z</time>
      </trkpt>
      <trkpt lat="43.61289" lon="1.07018">
        <ele>148.66</ele>
        <time>2021-08-18T14:29:16Z</time>
      </trkpt>
      <trkpt lat="43.61264" lon="1.07034">
        <ele>148.66</ele>
        <time>2021-08-18T14:29:23Z</time>
      </trkpt>
      <trkpt lat="43.61259" lon="1.07051">
        <ele>149.62</ele>
        <time>2021-08-18T14:29:27Z</time>
      </trkpt>
      <trkpt lat="43.61252" lon="1.07074">
        <ele>149.62</ele>
        <time>2021-08-18T14:29:33Z</time>
      </trkpt>
      <trkpt lat="43.61251" lon="1.07078">
        <ele>150.1</ele>
        <time>2021-08-18T14:29:34Z</time>
      </trkpt>
      <trkpt lat="43.61251" lon="1.07082">
        <ele>150.1</ele>
        <time>2021-08-18T14:29:35Z</time>
      </trkpt>
      <trkpt lat="43.61249" lon="1.07123">
        <ele>150.1</ele>
        <time>2021-08-18T14:29:42Z</time>
      </trkpt>
      <trkpt lat="43.61248" lon="1.07161">
        <ele>150.1</ele>
        <time>2021-08-18T14:29:49Z</time>
      </trkpt>
      <trkpt lat="43.61241" lon="1.07196">
        <ele>150.1</ele>
        <time>2021-08-18T14:29:56Z</time>
      </trkpt>
      <trkpt lat="43.61226" lon="1.07218">
        <ele>150.1</ele>
        <time>2021-08-18T14:30:02Z</time>
      </trkpt>
      <trkpt lat="43.61212" lon="1.07226">
        <ele>150.1</ele>
        <time>2021-08-18T14:30:06Z</time>
      </trkpt>
      <trkpt lat="43.61207" lon="1.07228">
        <ele>150.1</ele>
        <time>2021-08-18T14:30:07Z</time>
      </trkpt>
      <trkpt lat="43.61186" lon="1.07231">
        <ele>150.1</ele>
        <time>2021-08-18T14:30:14Z</time>
      </trkpt>
      <trkpt lat="43.61185" lon="1.07231">
        <ele>150.1</ele>
        <time>2021-08-18T14:30:19Z</time>
      </trkpt>
      <trkpt lat="43.61186" lon="1.07231">
        <ele>150.58</ele>
        <time>2021-08-18T14:30:34Z</time>
      </trkpt>
      <trkpt lat="43.61189" lon="1.07231">
        <ele>150.58</ele>
        <time>2021-08-18T14:30:42Z</time>
      </trkpt>
      <trkpt lat="43.61189" lon="1.07232">
        <ele>150.58</ele>
        <time>2021-08-18T14:30:51Z</time>
      </trkpt>
      <trkpt lat="43.61189" lon="1.07232">
        <ele>150.58</ele>
        <time>2021-08-18T14:31:03Z</time>
      </trkpt>
      <trkpt lat="43.61188" lon="1.07233">
        <ele>150.58</ele>
        <time>2021-08-18T14:31:09Z</time>
      </trkpt>
      <trkpt lat="43.61188" lon="1.07232">
        <ele>150.58</ele>
        <time>2021-08-18T14:31:18Z</time>
      </trkpt>
      <trkpt lat="43.61186" lon="1.07233">
        <ele>150.58</ele>
        <time>2021-08-18T14:31:32Z</time>
      </trkpt>
      <trkpt lat="43.61185" lon="1.07233">
        <ele>150.58</ele>
        <time>2021-08-18T14:31:33Z</time>
      </trkpt>
      <trkpt lat="43.61184" lon="1.07233">
        <ele>150.58</ele>
        <time>2021-08-18T14:31:34Z</time>
      </trkpt>
      <trkpt lat="43.61182" lon="1.07233">
        <ele>150.58</ele>
        <time>2021-08-18T14:31:35Z</time>
      </trkpt>
      <trkpt lat="43.6118" lon="1.07232">
        <ele>150.58</ele>
        <time>2021-08-18T14:31:36Z</time>
      </trkpt>
      <trkpt lat="43.61176" lon="1.07232">
        <ele>150.58</ele>
        <time>2021-08-18T14:31:37Z</time>
      </trkpt>
      <trkpt lat="43.61172" lon="1.07231">
        <ele>150.58</ele>
        <time>2021-08-18T14:31:38Z</time>
      </trkpt>
      <trkpt lat="43.61153" lon="1.07224">
        <ele>150.58</ele>
        <time>2021-08-18T14:31:44Z</time>
      </trkpt>
      <trkpt lat="43.6113" lon="1.07207">
        <ele>150.58</ele>
        <time>2021-08-18T14:31:51Z</time>
      </trkpt>
      <trkpt lat="43.61115" lon="1.07181">
        <ele>150.58</ele>
        <time>2021-08-18T14:31:58Z</time>
      </trkpt>
      <trkpt lat="43.61108" lon="1.07153">
        <ele>150.58</ele>
        <time>2021-08-18T14:32:04Z</time>
      </trkpt>
      <trkpt lat="43.61101" lon="1.07114">
        <ele>150.58</ele>
        <time>2021-08-18T14:32:11Z</time>
      </trkpt>
      <trkpt lat="43.61088" lon="1.07078">
        <ele>150.58</ele>
        <time>2021-08-18T14:32:18Z</time>
      </trkpt>
      <trkpt lat="43.61064" lon="1.07039">
        <ele>150.58</ele>
        <time>2021-08-18T14:32:27Z</time>
      </trkpt>
      <trkpt lat="43.61043" lon="1.07023">
        <ele>150.58</ele>
        <time>2021-08-18T14:32:34Z</time>
      </trkpt>
      <trkpt lat="43.61022" lon="1.07025">
        <ele>150.58</ele>
        <time>2021-08-18T14:32:41Z</time>
      </trkpt>
      <trkpt lat="43.61004" lon="1.07045">
        <ele>151.06</ele>
        <time>2021-08-18T14:32:48Z</time>
      </trkpt>
      <trkpt lat="43.60985" lon="1.07071">
        <ele>150.58</ele>
        <time>2021-08-18T14:32:55Z</time>
      </trkpt>
      <trkpt lat="43.60964" lon="1.07071">
        <ele>150.58</ele>
        <time>2021-08-18T14:33:01Z</time>
      </trkpt>
      <trkpt lat="43.60958" lon="1.07065">
        <ele>150.58</ele>
        <time>2021-08-18T14:33:03Z</time>
      </trkpt>
      <trkpt lat="43.60955" lon="1.07061">
        <ele>150.58</ele>
        <time>2021-08-18T14:33:04Z</time>
      </trkpt>
      <trkpt lat="43.60952" lon="1.07057">
        <ele>150.58</ele>
        <time>2021-08-18T14:33:05Z</time>
      </trkpt>
      <trkpt lat="43.60942" lon="1.07041">
        <ele>150.58</ele>
        <time>2021-08-18T14:33:09Z</time>
      </trkpt>
      <trkpt lat="43.60917" lon="1.07015">
        <ele>150.58</ele>
        <time>2021-08-18T14:33:16Z</time>
      </trkpt>
      <trkpt lat="43.60887" lon="1.06996">
        <ele>150.58</ele>
        <time>2021-08-18T14:33:24Z</time>
      </trkpt>
      <trkpt lat="43.60855" lon="1.06978">
        <ele>150.58</ele>
        <time>2021-08-18T14:33:32Z</time>
      </trkpt>
      <trkpt lat="43.60831" lon="1.06957">
        <ele>149.14</ele>
        <time>2021-08-18T14:33:39Z</time>
      </trkpt>
      <trkpt lat="43.60828" lon="1.06952">
        <ele>149.14</ele>
        <time>2021-08-18T14:33:40Z</time>
      </trkpt>
      <trkpt lat="43.60823" lon="1.06944">
        <ele>149.14</ele>
        <time>2021-08-18T14:33:42Z</time>
      </trkpt>
      <trkpt lat="43.60824" lon="1.06939">
        <ele>149.14</ele>
        <time>2021-08-18T14:33:43Z</time>
      </trkpt>
      <trkpt lat="43.60836" lon="1.06903">
        <ele>149.14</ele>
        <time>2021-08-18T14:33:51Z</time>
      </trkpt>
      <trkpt lat="43.60843" lon="1.0688">
        <ele>148.66</ele>
        <time>2021-08-18T14:33:55Z</time>
      </trkpt>
      <trkpt lat="43.60845" lon="1.06874">
        <ele>148.66</ele>
        <time>2021-08-18T14:33:56Z</time>
      </trkpt>
      <trkpt lat="43.60846" lon="1.06868">
        <ele>148.66</ele>
        <time>2021-08-18T14:33:57Z</time>
      </trkpt>
      <trkpt lat="43.6086" lon="1.06828">
        <ele>148.66</ele>
        <time>2021-08-18T14:34:04Z</time>
      </trkpt>
      <trkpt lat="43.60874" lon="1.06786">
        <ele>148.66</ele>
        <time>2021-08-18T14:34:12Z</time>
      </trkpt>
      <trkpt lat="43.60887" lon="1.06751">
        <ele>148.66</ele>
        <time>2021-08-18T14:34:19Z</time>
      </trkpt>
      <trkpt lat="43.60892" lon="1.06737">
        <ele>148.66</ele>
        <time>2021-08-18T14:34:23Z</time>
      </trkpt>
      <trkpt lat="43.60892" lon="1.06734">
        <ele>148.66</ele>
        <time>2021-08-18T14:34:26Z</time>
      </trkpt>
      <trkpt lat="43.60891" lon="1.06735">
        <ele>148.66</ele>
        <time>2021-08-18T14:34:27Z</time>
      </trkpt>
      <trkpt lat="43.60891" lon="1.06737">
        <ele>148.66</ele>
        <time>2021-08-18T14:34:28Z</time>
      </trkpt>
      <trkpt lat="43.60891" lon="1.06739">
        <ele>148.66</ele>
        <time>2021-08-18T14:34:29Z</time>
      </trkpt>
      <trkpt lat="43.60891" lon="1.06742">
        <ele>148.66</ele>
        <time>2021-08-18T14:34:30Z</time>
      </trkpt>
      <trkpt lat="43.60891" lon="1.06745">
        <ele>148.66</ele>
        <time>2021-08-18T14:34:31Z</time>
      </trkpt>
      <trkpt lat="43.6089" lon="1.06749">
        <ele>148.66</ele>
        <time>2021-08-18T14:34:32Z</time>
      </trkpt>
      <trkpt lat="43.60888" lon="1.06753">
        <ele>148.66</ele>
        <time>2021-08-18T14:34:33Z</time>
      </trkpt>
      <trkpt lat="43.60887" lon="1.06757">
        <ele>148.66</ele>
        <time>2021-08-18T14:34:34Z</time>
      </trkpt>
      <trkpt lat="43.60878" lon="1.0679">
        <ele>148.18</ele>
        <time>2021-08-18T14:34:41Z</time>
      </trkpt>
      <trkpt lat="43.60867" lon="1.06813">
        <ele>148.18</ele>
        <time>2021-08-18T14:34:47Z</time>
      </trkpt>
      <trkpt lat="43.60861" lon="1.06822">
        <ele>148.18</ele>
        <time>2021-08-18T14:34:50Z</time>
      </trkpt>
      <trkpt lat="43.60858" lon="1.06822">
        <ele>148.18</ele>
        <time>2021-08-18T14:34:51Z</time>
      </trkpt>
      <trkpt lat="43.60856" lon="1.06821">
        <ele>148.18</ele>
        <time>2021-08-18T14:34:52Z</time>
      </trkpt>
      <trkpt lat="43.60854" lon="1.06819">
        <ele>148.18</ele>
        <time>2021-08-18T14:34:53Z</time>
      </trkpt>
      <trkpt lat="43.60852" lon="1.06815">
        <ele>149.62</ele>
        <time>2021-08-18T14:34:54Z</time>
      </trkpt>
      <trkpt lat="43.60851" lon="1.06811">
        <ele>149.62</ele>
        <time>2021-08-18T14:34:55Z</time>
      </trkpt>
      <trkpt lat="43.6084" lon="1.06783">
        <ele>149.62</ele>
        <time>2021-08-18T14:35:01Z</time>
      </trkpt>
      <trkpt lat="43.60816" lon="1.06751">
        <ele>149.62</ele>
        <time>2021-08-18T14:35:09Z</time>
      </trkpt>
      <trkpt lat="43.60774" lon="1.06712">
        <ele>149.62</ele>
        <time>2021-08-18T14:35:20Z</time>
      </trkpt>
      <trkpt lat="43.60741" lon="1.0668">
        <ele>149.62</ele>
        <time>2021-08-18T14:35:29Z</time>
      </trkpt>
      <trkpt lat="43.6072" lon="1.0665">
        <ele>149.62</ele>
        <time>2021-08-18T14:35:37Z</time>
      </trkpt>
      <trkpt lat="43.60718" lon="1.06645">
        <ele>149.62</ele>
        <time>2021-08-18T14:35:38Z</time>
      </trkpt>
      <trkpt lat="43.60717" lon="1.0664">
        <ele>149.62</ele>
        <time>2021-08-18T14:35:39Z</time>
      </trkpt>
      <trkpt lat="43.60707" lon="1.0659">
        <ele>149.62</ele>
        <time>2021-08-18T14:35:48Z</time>
      </trkpt>
      <trkpt lat="43.60698" lon="1.06561">
        <ele>149.62</ele>
        <time>2021-08-18T14:35:54Z</time>
      </trkpt>
      <trkpt lat="43.60687" lon="1.06534">
        <ele>149.62</ele>
        <time>2021-08-18T14:36:00Z</time>
      </trkpt>
      <trkpt lat="43.60679" lon="1.06507">
        <ele>149.62</ele>
        <time>2021-08-18T14:36:06Z</time>
      </trkpt>
      <trkpt lat="43.60682" lon="1.0648">
        <ele>149.62</ele>
        <time>2021-08-18T14:36:13Z</time>
      </trkpt>
      <trkpt lat="43.60685" lon="1.06449">
        <ele>149.62</ele>
        <time>2021-08-18T14:36:20Z</time>
      </trkpt>
      <trkpt lat="43.60688" lon="1.06417">
        <ele>149.62</ele>
        <time>2021-08-18T14:36:26Z</time>
      </trkpt>
      <trkpt lat="43.60689" lon="1.06395">
        <ele>149.62</ele>
        <time>2021-08-18T14:36:32Z</time>
      </trkpt>
      <trkpt lat="43.60688" lon="1.06365">
        <ele>149.62</ele>
        <time>2021-08-18T14:36:38Z</time>
      </trkpt>
      <trkpt lat="43.60689" lon="1.06359">
        <ele>149.62</ele>
        <time>2021-08-18T14:36:39Z</time>
      </trkpt>
      <trkpt lat="43.60688" lon="1.06315">
        <ele>149.62</ele>
        <time>2021-08-18T14:36:47Z</time>
      </trkpt>
      <trkpt lat="43.60683" lon="1.0628">
        <ele>149.62</ele>
        <time>2021-08-18T14:36:54Z</time>
      </trkpt>
      <trkpt lat="43.60676" lon="1.0624">
        <ele>149.62</ele>
        <time>2021-08-18T14:37:02Z</time>
      </trkpt>
      <trkpt lat="43.60669" lon="1.06205">
        <ele>149.62</ele>
        <time>2021-08-18T14:37:09Z</time>
      </trkpt>
      <trkpt lat="43.60666" lon="1.06187">
        <ele>148.18</ele>
        <time>2021-08-18T14:37:13Z</time>
      </trkpt>
      <trkpt lat="43.60661" lon="1.06171">
        <ele>148.18</ele>
        <time>2021-08-18T14:37:16Z</time>
      </trkpt>
      <trkpt lat="43.60659" lon="1.06167">
        <ele>148.18</ele>
        <time>2021-08-18T14:37:17Z</time>
      </trkpt>
      <trkpt lat="43.60658" lon="1.06162">
        <ele>148.18</ele>
        <time>2021-08-18T14:37:18Z</time>
      </trkpt>
      <trkpt lat="43.60648" lon="1.06126">
        <ele>148.18</ele>
        <time>2021-08-18T14:37:26Z</time>
      </trkpt>
      <trkpt lat="43.60637" lon="1.06097">
        <ele>148.18</ele>
        <time>2021-08-18T14:37:33Z</time>
      </trkpt>
      <trkpt lat="43.6063" lon="1.06078">
        <ele>148.18</ele>
        <time>2021-08-18T14:37:37Z</time>
      </trkpt>
      <trkpt lat="43.60617" lon="1.06044">
        <ele>148.18</ele>
        <time>2021-08-18T14:37:44Z</time>
      </trkpt>
      <trkpt lat="43.60606" lon="1.0601">
        <ele>148.18</ele>
        <time>2021-08-18T14:37:52Z</time>
      </trkpt>
      <trkpt lat="43.60594" lon="1.05978">
        <ele>148.18</ele>
        <time>2021-08-18T14:37:59Z</time>
      </trkpt>
      <trkpt lat="43.60582" lon="1.05943">
        <ele>147.7</ele>
        <time>2021-08-18T14:38:06Z</time>
      </trkpt>
      <trkpt lat="43.60575" lon="1.05924">
        <ele>147.7</ele>
        <time>2021-08-18T14:38:10Z</time>
      </trkpt>
      <trkpt lat="43.60572" lon="1.0592">
        <ele>147.7</ele>
        <time>2021-08-18T14:38:11Z</time>
      </trkpt>
      <trkpt lat="43.6057" lon="1.05915">
        <ele>147.7</ele>
        <time>2021-08-18T14:38:12Z</time>
      </trkpt>
      <trkpt lat="43.60568" lon="1.0591">
        <ele>147.7</ele>
        <time>2021-08-18T14:38:13Z</time>
      </trkpt>
      <trkpt lat="43.60567" lon="1.05904">
        <ele>147.7</ele>
        <time>2021-08-18T14:38:14Z</time>
      </trkpt>
      <trkpt lat="43.60548" lon="1.05849">
        <ele>147.7</ele>
        <time>2021-08-18T14:38:24Z</time>
      </trkpt>
      <trkpt lat="43.60538" lon="1.05817">
        <ele>147.7</ele>
        <time>2021-08-18T14:38:31Z</time>
      </trkpt>
      <trkpt lat="43.6053" lon="1.05796">
        <ele>149.14</ele>
        <time>2021-08-18T14:38:36Z</time>
      </trkpt>
      <trkpt lat="43.60526" lon="1.05779">
        <ele>149.14</ele>
        <time>2021-08-18T14:38:40Z</time>
      </trkpt>
      <trkpt lat="43.60512" lon="1.05743">
        <ele>149.14</ele>
        <time>2021-08-18T14:38:47Z</time>
      </trkpt>
      <trkpt lat="43.605" lon="1.0571">
        <ele>149.14</ele>
        <time>2021-08-18T14:38:55Z</time>
      </trkpt>
      <trkpt lat="43.60488" lon="1.05673">
        <ele>149.14</ele>
        <time>2021-08-18T14:39:03Z</time>
      </trkpt>
      <trkpt lat="43.60476" lon="1.05641">
        <ele>149.14</ele>
        <time>2021-08-18T14:39:10Z</time>
      </trkpt>
      <trkpt lat="43.60461" lon="1.05601">
        <ele>149.14</ele>
        <time>2021-08-18T14:39:19Z</time>
      </trkpt>
      <trkpt lat="43.60453" lon="1.05565">
        <ele>148.66</ele>
        <time>2021-08-18T14:39:27Z</time>
      </trkpt>
      <trkpt lat="43.60463" lon="1.05546">
        <ele>148.66</ele>
        <time>2021-08-18T14:39:32Z</time>
      </trkpt>
      <trkpt lat="43.60483" lon="1.05523">
        <ele>149.14</ele>
        <time>2021-08-18T14:39:39Z</time>
      </trkpt>
      <trkpt lat="43.605" lon="1.05496">
        <ele>149.62</ele>
        <time>2021-08-18T14:39:46Z</time>
      </trkpt>
      <trkpt lat="43.60511" lon="1.05464">
        <ele>149.62</ele>
        <time>2021-08-18T14:39:53Z</time>
      </trkpt>
      <trkpt lat="43.6053" lon="1.05425">
        <ele>150.58</ele>
        <time>2021-08-18T14:40:02Z</time>
      </trkpt>
      <trkpt lat="43.60548" lon="1.05386">
        <ele>151.06</ele>
        <time>2021-08-18T14:40:11Z</time>
      </trkpt>
      <trkpt lat="43.60555" lon="1.05364">
        <ele>152.51</ele>
        <time>2021-08-18T14:40:18Z</time>
      </trkpt>
      <trkpt lat="43.60555" lon="1.05348">
        <ele>153.95</ele>
        <time>2021-08-18T14:40:24Z</time>
      </trkpt>
      <trkpt lat="43.60553" lon="1.05345">
        <ele>153.95</ele>
        <time>2021-08-18T14:40:25Z</time>
      </trkpt>
      <trkpt lat="43.60551" lon="1.05343">
        <ele>153.95</ele>
        <time>2021-08-18T14:40:26Z</time>
      </trkpt>
      <trkpt lat="43.60548" lon="1.05341">
        <ele>153.95</ele>
        <time>2021-08-18T14:40:27Z</time>
      </trkpt>
      <trkpt lat="43.60546" lon="1.05339">
        <ele>153.95</ele>
        <time>2021-08-18T14:40:28Z</time>
      </trkpt>
      <trkpt lat="43.60543" lon="1.05336">
        <ele>153.95</ele>
        <time>2021-08-18T14:40:29Z</time>
      </trkpt>
      <trkpt lat="43.6054" lon="1.05334">
        <ele>153.95</ele>
        <time>2021-08-18T14:40:30Z</time>
      </trkpt>
      <trkpt lat="43.60514" lon="1.05309">
        <ele>152.51</ele>
        <time>2021-08-18T14:40:37Z</time>
      </trkpt>
      <trkpt lat="43.60509" lon="1.05305">
        <ele>152.51</ele>
        <time>2021-08-18T14:40:38Z</time>
      </trkpt>
      <trkpt lat="43.60464" lon="1.05259">
        <ele>151.06</ele>
        <time>2021-08-18T14:40:47Z</time>
      </trkpt>
      <trkpt lat="43.60449" lon="1.05241">
        <ele>150.1</ele>
        <time>2021-08-18T14:40:50Z</time>
      </trkpt>
      <trkpt lat="43.604" lon="1.05155">
        <ele>149.62</ele>
        <time>2021-08-18T14:41:02Z</time>
      </trkpt>
      <trkpt lat="43.60374" lon="1.05095">
        <ele>149.62</ele>
        <time>2021-08-18T14:41:10Z</time>
      </trkpt>
      <trkpt lat="43.60372" lon="1.05087">
        <ele>149.62</ele>
        <time>2021-08-18T14:41:11Z</time>
      </trkpt>
      <trkpt lat="43.60371" lon="1.0508">
        <ele>149.62</ele>
        <time>2021-08-18T14:41:12Z</time>
      </trkpt>
      <trkpt lat="43.60372" lon="1.05072">
        <ele>149.62</ele>
        <time>2021-08-18T14:41:13Z</time>
      </trkpt>
      <trkpt lat="43.60374" lon="1.05065">
        <ele>149.62</ele>
        <time>2021-08-18T14:41:14Z</time>
      </trkpt>
      <trkpt lat="43.60376" lon="1.05059">
        <ele>149.62</ele>
        <time>2021-08-18T14:41:15Z</time>
      </trkpt>
      <trkpt lat="43.60377" lon="1.05051">
        <ele>149.62</ele>
        <time>2021-08-18T14:41:16Z</time>
      </trkpt>
      <trkpt lat="43.60377" lon="1.05043">
        <ele>149.62</ele>
        <time>2021-08-18T14:41:17Z</time>
      </trkpt>
      <trkpt lat="43.60376" lon="1.05036">
        <ele>149.62</ele>
        <time>2021-08-18T14:41:18Z</time>
      </trkpt>
      <trkpt lat="43.60374" lon="1.05028">
        <ele>149.62</ele>
        <time>2021-08-18T14:41:19Z</time>
      </trkpt>
      <trkpt lat="43.60366" lon="1.04981">
        <ele>149.62</ele>
        <time>2021-08-18T14:41:25Z</time>
      </trkpt>
      <trkpt lat="43.60366" lon="1.04973">
        <ele>149.62</ele>
        <time>2021-08-18T14:41:26Z</time>
      </trkpt>
      <trkpt lat="43.60367" lon="1.04965">
        <ele>149.62</ele>
        <time>2021-08-18T14:41:27Z</time>
      </trkpt>
      <trkpt lat="43.60368" lon="1.04957">
        <ele>149.62</ele>
        <time>2021-08-18T14:41:28Z</time>
      </trkpt>
      <trkpt lat="43.60371" lon="1.0495">
        <ele>149.62</ele>
        <time>2021-08-18T14:41:29Z</time>
      </trkpt>
      <trkpt lat="43.60373" lon="1.04943">
        <ele>149.62</ele>
        <time>2021-08-18T14:41:30Z</time>
      </trkpt>
      <trkpt lat="43.60393" lon="1.04889">
        <ele>149.62</ele>
        <time>2021-08-18T14:41:38Z</time>
      </trkpt>
      <trkpt lat="43.60396" lon="1.04878">
        <ele>151.06</ele>
        <time>2021-08-18T14:41:40Z</time>
      </trkpt>
      <trkpt lat="43.60405" lon="1.04856">
        <ele>152.51</ele>
        <time>2021-08-18T14:41:46Z</time>
      </trkpt>
      <trkpt lat="43.60415" lon="1.04832">
        <ele>154.43</ele>
        <time>2021-08-18T14:41:55Z</time>
      </trkpt>
      <trkpt lat="43.60429" lon="1.04814">
        <ele>154.43</ele>
        <time>2021-08-18T14:42:01Z</time>
      </trkpt>
      <trkpt lat="43.60435" lon="1.04807">
        <ele>152.51</ele>
        <time>2021-08-18T14:42:03Z</time>
      </trkpt>
      <trkpt lat="43.6044" lon="1.04803">
        <ele>152.51</ele>
        <time>2021-08-18T14:42:04Z</time>
      </trkpt>
      <trkpt lat="43.60448" lon="1.04791">
        <ele>151.06</ele>
        <time>2021-08-18T14:42:06Z</time>
      </trkpt>
      <trkpt lat="43.60452" lon="1.04784">
        <ele>150.58</ele>
        <time>2021-08-18T14:42:07Z</time>
      </trkpt>
      <trkpt lat="43.60455" lon="1.04777">
        <ele>150.58</ele>
        <time>2021-08-18T14:42:08Z</time>
      </trkpt>
      <trkpt lat="43.60473" lon="1.04738">
        <ele>150.1</ele>
        <time>2021-08-18T14:42:15Z</time>
      </trkpt>
      <trkpt lat="43.60496" lon="1.04692">
        <ele>150.1</ele>
        <time>2021-08-18T14:42:24Z</time>
      </trkpt>
      <trkpt lat="43.60522" lon="1.04644">
        <ele>150.1</ele>
        <time>2021-08-18T14:42:33Z</time>
      </trkpt>
      <trkpt lat="43.60544" lon="1.04601">
        <ele>151.54</ele>
        <time>2021-08-18T14:42:41Z</time>
      </trkpt>
      <trkpt lat="43.60573" lon="1.04545">
        <ele>152.51</ele>
        <time>2021-08-18T14:42:52Z</time>
      </trkpt>
      <trkpt lat="43.60597" lon="1.04497">
        <ele>152.51</ele>
        <time>2021-08-18T14:43:01Z</time>
      </trkpt>
      <trkpt lat="43.60629" lon="1.04434">
        <ele>152.51</ele>
        <time>2021-08-18T14:43:12Z</time>
      </trkpt>
      <trkpt lat="43.60654" lon="1.04384">
        <ele>152.51</ele>
        <time>2021-08-18T14:43:21Z</time>
      </trkpt>
      <trkpt lat="43.6067" lon="1.04352">
        <ele>153.47</ele>
        <time>2021-08-18T14:43:27Z</time>
      </trkpt>
      <trkpt lat="43.60673" lon="1.04347">
        <ele>153.47</ele>
        <time>2021-08-18T14:43:28Z</time>
      </trkpt>
      <trkpt lat="43.60675" lon="1.04341">
        <ele>153.47</ele>
        <time>2021-08-18T14:43:29Z</time>
      </trkpt>
      <trkpt lat="43.60677" lon="1.04336">
        <ele>153.47</ele>
        <time>2021-08-18T14:43:30Z</time>
      </trkpt>
      <trkpt lat="43.60679" lon="1.04331">
        <ele>153.47</ele>
        <time>2021-08-18T14:43:31Z</time>
      </trkpt>
      <trkpt lat="43.60682" lon="1.04326">
        <ele>153.47</ele>
        <time>2021-08-18T14:43:32Z</time>
      </trkpt>
      <trkpt lat="43.60685" lon="1.04321">
        <ele>153.47</ele>
        <time>2021-08-18T14:43:33Z</time>
      </trkpt>
      <trkpt lat="43.60705" lon="1.04282">
        <ele>153.47</ele>
        <time>2021-08-18T14:43:41Z</time>
      </trkpt>
      <trkpt lat="43.60723" lon="1.04246">
        <ele>153.47</ele>
        <time>2021-08-18T14:43:48Z</time>
      </trkpt>
      <trkpt lat="43.60733" lon="1.04229">
        <ele>153.47</ele>
        <time>2021-08-18T14:43:52Z</time>
      </trkpt>
      <trkpt lat="43.60735" lon="1.04224">
        <ele>153.47</ele>
        <time>2021-08-18T14:43:53Z</time>
      </trkpt>
      <trkpt lat="43.60737" lon="1.04218">
        <ele>153.47</ele>
        <time>2021-08-18T14:43:54Z</time>
      </trkpt>
      <trkpt lat="43.6074" lon="1.04213">
        <ele>153.47</ele>
        <time>2021-08-18T14:43:55Z</time>
      </trkpt>
      <trkpt lat="43.60742" lon="1.04207">
        <ele>153.47</ele>
        <time>2021-08-18T14:43:56Z</time>
      </trkpt>
      <trkpt lat="43.60743" lon="1.04202">
        <ele>153.47</ele>
        <time>2021-08-18T14:43:57Z</time>
      </trkpt>
      <trkpt lat="43.60759" lon="1.04157">
        <ele>153.47</ele>
        <time>2021-08-18T14:44:05Z</time>
      </trkpt>
      <trkpt lat="43.60766" lon="1.04142">
        <ele>152.99</ele>
        <time>2021-08-18T14:44:08Z</time>
      </trkpt>
      <trkpt lat="43.60781" lon="1.041">
        <ele>152.99</ele>
        <time>2021-08-18T14:44:16Z</time>
      </trkpt>
      <trkpt lat="43.60781" lon="1.04093">
        <ele>152.99</ele>
        <time>2021-08-18T14:44:17Z</time>
      </trkpt>
      <trkpt lat="43.60782" lon="1.04086">
        <ele>152.99</ele>
        <time>2021-08-18T14:44:18Z</time>
      </trkpt>
      <trkpt lat="43.60783" lon="1.0408">
        <ele>152.99</ele>
        <time>2021-08-18T14:44:19Z</time>
      </trkpt>
      <trkpt lat="43.60784" lon="1.04074">
        <ele>152.99</ele>
        <time>2021-08-18T14:44:20Z</time>
      </trkpt>
      <trkpt lat="43.60786" lon="1.04069">
        <ele>152.99</ele>
        <time>2021-08-18T14:44:21Z</time>
      </trkpt>
      <trkpt lat="43.60792" lon="1.04047">
        <ele>153.47</ele>
        <time>2021-08-18T14:44:25Z</time>
      </trkpt>
      <trkpt lat="43.60803" lon="1.03993">
        <ele>153.95</ele>
        <time>2021-08-18T14:44:34Z</time>
      </trkpt>
      <trkpt lat="43.60815" lon="1.03929">
        <ele>155.87</ele>
        <time>2021-08-18T14:44:45Z</time>
      </trkpt>
      <trkpt lat="43.60816" lon="1.03923">
        <ele>153.95</ele>
        <time>2021-08-18T14:44:46Z</time>
      </trkpt>
      <trkpt lat="43.60817" lon="1.03917">
        <ele>153.95</ele>
        <time>2021-08-18T14:44:47Z</time>
      </trkpt>
      <trkpt lat="43.60824" lon="1.03882">
        <ele>153.95</ele>
        <time>2021-08-18T14:44:53Z</time>
      </trkpt>
      <trkpt lat="43.60834" lon="1.03839">
        <ele>153.95</ele>
        <time>2021-08-18T14:45:01Z</time>
      </trkpt>
      <trkpt lat="43.60838" lon="1.03824">
        <ele>155.39</ele>
        <time>2021-08-18T14:45:04Z</time>
      </trkpt>
      <trkpt lat="43.60852" lon="1.03782">
        <ele>155.39</ele>
        <time>2021-08-18T14:45:13Z</time>
      </trkpt>
      <trkpt lat="43.60861" lon="1.03756">
        <ele>155.39</ele>
        <time>2021-08-18T14:45:19Z</time>
      </trkpt>
      <trkpt lat="43.60876" lon="1.03716">
        <ele>155.39</ele>
        <time>2021-08-18T14:45:28Z</time>
      </trkpt>
      <trkpt lat="43.60893" lon="1.03669">
        <ele>155.87</ele>
        <time>2021-08-18T14:45:39Z</time>
      </trkpt>
      <trkpt lat="43.60893" lon="1.03647">
        <ele>156.35</ele>
        <time>2021-08-18T14:45:45Z</time>
      </trkpt>
      <trkpt lat="43.60881" lon="1.03613">
        <ele>156.35</ele>
        <time>2021-08-18T14:45:53Z</time>
      </trkpt>
      <trkpt lat="43.60868" lon="1.03573">
        <ele>156.83</ele>
        <time>2021-08-18T14:46:02Z</time>
      </trkpt>
      <trkpt lat="43.60854" lon="1.03532">
        <ele>158.27</ele>
        <time>2021-08-18T14:46:12Z</time>
      </trkpt>
      <trkpt lat="43.60845" lon="1.03504">
        <ele>159.24</ele>
        <time>2021-08-18T14:46:20Z</time>
      </trkpt>
      <trkpt lat="43.60836" lon="1.03481">
        <ele>160.68</ele>
        <time>2021-08-18T14:46:27Z</time>
      </trkpt>
      <trkpt lat="43.60827" lon="1.03455">
        <ele>161.64</ele>
        <time>2021-08-18T14:46:34Z</time>
      </trkpt>
      <trkpt lat="43.60816" lon="1.03424">
        <ele>162.6</ele>
        <time>2021-08-18T14:46:43Z</time>
      </trkpt>
      <trkpt lat="43.60803" lon="1.03391">
        <ele>164.04</ele>
        <time>2021-08-18T14:46:52Z</time>
      </trkpt>
      <trkpt lat="43.6079" lon="1.03354">
        <ele>164.04</ele>
        <time>2021-08-18T14:47:00Z</time>
      </trkpt>
      <trkpt lat="43.60774" lon="1.03307">
        <ele>165.48</ele>
        <time>2021-08-18T14:47:10Z</time>
      </trkpt>
      <trkpt lat="43.60761" lon="1.03269">
        <ele>166.45</ele>
        <time>2021-08-18T14:47:19Z</time>
      </trkpt>
      <trkpt lat="43.60749" lon="1.03236">
        <ele>167.41</ele>
        <time>2021-08-18T14:47:27Z</time>
      </trkpt>
      <trkpt lat="43.60735" lon="1.03199">
        <ele>168.85</ele>
        <time>2021-08-18T14:47:36Z</time>
      </trkpt>
      <trkpt lat="43.6072" lon="1.03157">
        <ele>170.77</ele>
        <time>2021-08-18T14:47:46Z</time>
      </trkpt>
      <trkpt lat="43.60701" lon="1.0311">
        <ele>171.73</ele>
        <time>2021-08-18T14:47:57Z</time>
      </trkpt>
      <trkpt lat="43.60694" lon="1.03083">
        <ele>172.21</ele>
        <time>2021-08-18T14:48:03Z</time>
      </trkpt>
      <trkpt lat="43.60683" lon="1.03051">
        <ele>173.17</ele>
        <time>2021-08-18T14:48:11Z</time>
      </trkpt>
      <trkpt lat="43.6067" lon="1.03008">
        <ele>174.14</ele>
        <time>2021-08-18T14:48:21Z</time>
      </trkpt>
      <trkpt lat="43.60659" lon="1.02979">
        <ele>175.1</ele>
        <time>2021-08-18T14:48:28Z</time>
      </trkpt>
      <trkpt lat="43.60647" lon="1.02947">
        <ele>176.54</ele>
        <time>2021-08-18T14:48:36Z</time>
      </trkpt>
      <trkpt lat="43.60638" lon="1.02922">
        <ele>178.94</ele>
        <time>2021-08-18T14:48:43Z</time>
      </trkpt>
      <trkpt lat="43.60636" lon="1.02919">
        <ele>178.94</ele>
        <time>2021-08-18T14:48:44Z</time>
      </trkpt>
      <trkpt lat="43.60627" lon="1.0289">
        <ele>178.94</ele>
        <time>2021-08-18T14:48:51Z</time>
      </trkpt>
      <trkpt lat="43.60615" lon="1.02856">
        <ele>179.42</ele>
        <time>2021-08-18T14:48:59Z</time>
      </trkpt>
      <trkpt lat="43.60603" lon="1.02823">
        <ele>179.9</ele>
        <time>2021-08-18T14:49:07Z</time>
      </trkpt>
      <trkpt lat="43.60595" lon="1.02798">
        <ele>180.38</ele>
        <time>2021-08-18T14:49:13Z</time>
      </trkpt>
      <trkpt lat="43.60579" lon="1.02751">
        <ele>181.35</ele>
        <time>2021-08-18T14:49:23Z</time>
      </trkpt>
      <trkpt lat="43.6056" lon="1.02699">
        <ele>182.31</ele>
        <time>2021-08-18T14:49:34Z</time>
      </trkpt>
      <trkpt lat="43.60544" lon="1.02654">
        <ele>181.83</ele>
        <time>2021-08-18T14:49:42Z</time>
      </trkpt>
      <trkpt lat="43.60523" lon="1.02594">
        <ele>181.83</ele>
        <time>2021-08-18T14:49:51Z</time>
      </trkpt>
      <trkpt lat="43.60506" lon="1.02544">
        <ele>182.79</ele>
        <time>2021-08-18T14:49:59Z</time>
      </trkpt>
      <trkpt lat="43.6049" lon="1.02501">
        <ele>184.23</ele>
        <time>2021-08-18T14:50:07Z</time>
      </trkpt>
      <trkpt lat="43.60478" lon="1.02465">
        <ele>185.67</ele>
        <time>2021-08-18T14:50:16Z</time>
      </trkpt>
      <trkpt lat="43.60465" lon="1.02428">
        <ele>187.59</ele>
        <time>2021-08-18T14:50:26Z</time>
      </trkpt>
      <trkpt lat="43.60454" lon="1.02396">
        <ele>188.56</ele>
        <time>2021-08-18T14:50:35Z</time>
      </trkpt>
      <trkpt lat="43.60447" lon="1.02376">
        <ele>190</ele>
        <time>2021-08-18T14:50:43Z</time>
      </trkpt>
      <trkpt lat="43.6044" lon="1.02354">
        <ele>191.92</ele>
        <time>2021-08-18T14:50:52Z</time>
      </trkpt>
      <trkpt lat="43.60432" lon="1.02331">
        <ele>193.84</ele>
        <time>2021-08-18T14:51:01Z</time>
      </trkpt>
      <trkpt lat="43.60422" lon="1.02299">
        <ele>195.28</ele>
        <time>2021-08-18T14:51:12Z</time>
      </trkpt>
      <trkpt lat="43.60414" lon="1.02276">
        <ele>196.73</ele>
        <time>2021-08-18T14:51:20Z</time>
      </trkpt>
      <trkpt lat="43.60406" lon="1.02252">
        <ele>199.13</ele>
        <time>2021-08-18T14:51:30Z</time>
      </trkpt>
      <trkpt lat="43.60397" lon="1.02232">
        <ele>200.57</ele>
        <time>2021-08-18T14:51:39Z</time>
      </trkpt>
      <trkpt lat="43.60388" lon="1.02203">
        <ele>202.49</ele>
        <time>2021-08-18T14:51:49Z</time>
      </trkpt>
      <trkpt lat="43.60381" lon="1.02174">
        <ele>203.46</ele>
        <time>2021-08-18T14:51:58Z</time>
      </trkpt>
      <trkpt lat="43.60375" lon="1.02136">
        <ele>203.46</ele>
        <time>2021-08-18T14:52:06Z</time>
      </trkpt>
      <trkpt lat="43.60365" lon="1.02081">
        <ele>203.94</ele>
        <time>2021-08-18T14:52:15Z</time>
      </trkpt>
      <trkpt lat="43.60355" lon="1.02024">
        <ele>204.42</ele>
        <time>2021-08-18T14:52:24Z</time>
      </trkpt>
      <trkpt lat="43.60343" lon="1.01959">
        <ele>205.86</ele>
        <time>2021-08-18T14:52:35Z</time>
      </trkpt>
      <trkpt lat="43.60343" lon="1.01953">
        <ele>206.34</ele>
        <time>2021-08-18T14:52:36Z</time>
      </trkpt>
      <trkpt lat="43.60342" lon="1.01947">
        <ele>206.34</ele>
        <time>2021-08-18T14:52:37Z</time>
      </trkpt>
      <trkpt lat="43.6033" lon="1.01888">
        <ele>206.82</ele>
        <time>2021-08-18T14:52:47Z</time>
      </trkpt>
      <trkpt lat="43.6032" lon="1.01833">
        <ele>208.74</ele>
        <time>2021-08-18T14:52:56Z</time>
      </trkpt>
      <trkpt lat="43.60308" lon="1.01771">
        <ele>209.22</ele>
        <time>2021-08-18T14:53:06Z</time>
      </trkpt>
      <trkpt lat="43.60304" lon="1.0175">
        <ele>208.26</ele>
        <time>2021-08-18T14:53:09Z</time>
      </trkpt>
      <trkpt lat="43.60296" lon="1.01722">
        <ele>207.3</ele>
        <time>2021-08-18T14:53:13Z</time>
      </trkpt>
      <trkpt lat="43.60295" lon="1.01715">
        <ele>207.3</ele>
        <time>2021-08-18T14:53:14Z</time>
      </trkpt>
      <trkpt lat="43.60289" lon="1.01685">
        <ele>205.86</ele>
        <time>2021-08-18T14:53:18Z</time>
      </trkpt>
      <trkpt lat="43.60278" lon="1.01629">
        <ele>204.9</ele>
        <time>2021-08-18T14:53:26Z</time>
      </trkpt>
      <trkpt lat="43.60274" lon="1.01585">
        <ele>204.9</ele>
        <time>2021-08-18T14:53:33Z</time>
      </trkpt>
      <trkpt lat="43.60269" lon="1.01554">
        <ele>204.9</ele>
        <time>2021-08-18T14:53:39Z</time>
      </trkpt>
      <trkpt lat="43.60266" lon="1.0155">
        <ele>204.9</ele>
        <time>2021-08-18T14:53:40Z</time>
      </trkpt>
      <trkpt lat="43.60263" lon="1.01546">
        <ele>206.34</ele>
        <time>2021-08-18T14:53:41Z</time>
      </trkpt>
      <trkpt lat="43.60261" lon="1.01541">
        <ele>206.34</ele>
        <time>2021-08-18T14:53:42Z</time>
      </trkpt>
      <trkpt lat="43.6026" lon="1.01536">
        <ele>206.34</ele>
        <time>2021-08-18T14:53:43Z</time>
      </trkpt>
      <trkpt lat="43.60259" lon="1.01531">
        <ele>206.82</ele>
        <time>2021-08-18T14:53:44Z</time>
      </trkpt>
      <trkpt lat="43.60259" lon="1.01526">
        <ele>206.82</ele>
        <time>2021-08-18T14:53:45Z</time>
      </trkpt>
      <trkpt lat="43.60259" lon="1.01499">
        <ele>207.78</ele>
        <time>2021-08-18T14:53:51Z</time>
      </trkpt>
      <trkpt lat="43.60259" lon="1.01467">
        <ele>208.26</ele>
        <time>2021-08-18T14:53:59Z</time>
      </trkpt>
      <trkpt lat="43.60259" lon="1.01429">
        <ele>209.22</ele>
        <time>2021-08-18T14:54:08Z</time>
      </trkpt>
      <trkpt lat="43.60259" lon="1.01395">
        <ele>209.7</ele>
        <time>2021-08-18T14:54:16Z</time>
      </trkpt>
      <trkpt lat="43.60259" lon="1.01342">
        <ele>211.63</ele>
        <time>2021-08-18T14:54:28Z</time>
      </trkpt>
      <trkpt lat="43.60257" lon="1.01298">
        <ele>212.59</ele>
        <time>2021-08-18T14:54:38Z</time>
      </trkpt>
      <trkpt lat="43.60256" lon="1.01261">
        <ele>213.07</ele>
        <time>2021-08-18T14:54:47Z</time>
      </trkpt>
      <trkpt lat="43.60253" lon="1.01204">
        <ele>214.51</ele>
        <time>2021-08-18T14:55:01Z</time>
      </trkpt>
      <trkpt lat="43.60251" lon="1.01158">
        <ele>216.43</ele>
        <time>2021-08-18T14:55:12Z</time>
      </trkpt>
      <trkpt lat="43.60249" lon="1.01123">
        <ele>217.4</ele>
        <time>2021-08-18T14:55:21Z</time>
      </trkpt>
      <trkpt lat="43.6025" lon="1.01099">
        <ele>217.88</ele>
        <time>2021-08-18T14:55:28Z</time>
      </trkpt>
      <trkpt lat="43.60251" lon="1.01062">
        <ele>218.36</ele>
        <time>2021-08-18T14:55:37Z</time>
      </trkpt>
      <trkpt lat="43.60251" lon="1.01029">
        <ele>219.32</ele>
        <time>2021-08-18T14:55:45Z</time>
      </trkpt>
      <trkpt lat="43.60252" lon="1.00991">
        <ele>219.8</ele>
        <time>2021-08-18T14:55:54Z</time>
      </trkpt>
      <trkpt lat="43.60257" lon="1.00956">
        <ele>220.76</ele>
        <time>2021-08-18T14:56:03Z</time>
      </trkpt>
      <trkpt lat="43.60263" lon="1.00931">
        <ele>221.24</ele>
        <time>2021-08-18T14:56:10Z</time>
      </trkpt>
      <trkpt lat="43.60271" lon="1.00891">
        <ele>221.72</ele>
        <time>2021-08-18T14:56:19Z</time>
      </trkpt>
      <trkpt lat="43.6028" lon="1.0085">
        <ele>222.2</ele>
        <time>2021-08-18T14:56:29Z</time>
      </trkpt>
      <trkpt lat="43.60281" lon="1.00839">
        <ele>222.2</ele>
        <time>2021-08-18T14:56:32Z</time>
      </trkpt>
      <trkpt lat="43.6028" lon="1.00836">
        <ele>222.2</ele>
        <time>2021-08-18T14:56:33Z</time>
      </trkpt>
      <trkpt lat="43.60279" lon="1.00833">
        <ele>220.76</ele>
        <time>2021-08-18T14:56:34Z</time>
      </trkpt>
      <trkpt lat="43.60278" lon="1.00831">
        <ele>220.76</ele>
        <time>2021-08-18T14:56:35Z</time>
      </trkpt>
      <trkpt lat="43.60276" lon="1.00828">
        <ele>220.76</ele>
        <time>2021-08-18T14:56:36Z</time>
      </trkpt>
      <trkpt lat="43.60274" lon="1.00826">
        <ele>220.76</ele>
        <time>2021-08-18T14:56:37Z</time>
      </trkpt>
      <trkpt lat="43.60272" lon="1.00824">
        <ele>220.76</ele>
        <time>2021-08-18T14:56:38Z</time>
      </trkpt>
      <trkpt lat="43.60261" lon="1.00816">
        <ele>218.84</ele>
        <time>2021-08-18T14:56:42Z</time>
      </trkpt>
      <trkpt lat="43.60259" lon="1.0081">
        <ele>218.84</ele>
        <time>2021-08-18T14:56:43Z</time>
      </trkpt>
      <trkpt lat="43.60258" lon="1.00805">
        <ele>218.36</ele>
        <time>2021-08-18T14:56:44Z</time>
      </trkpt>
      <trkpt lat="43.60255" lon="1.0077">
        <ele>215.95</ele>
        <time>2021-08-18T14:56:49Z</time>
      </trkpt>
      <trkpt lat="43.60252" lon="1.00738">
        <ele>213.07</ele>
        <time>2021-08-18T14:56:52Z</time>
      </trkpt>
      <trkpt lat="43.60247" lon="1.00685">
        <ele>209.22</ele>
        <time>2021-08-18T14:56:56Z</time>
      </trkpt>
      <trkpt lat="43.6024" lon="1.00635">
        <ele>208.26</ele>
        <time>2021-08-18T14:57:00Z</time>
      </trkpt>
      <trkpt lat="43.60226" lon="1.00584">
        <ele>204.9</ele>
        <time>2021-08-18T14:57:04Z</time>
      </trkpt>
      <trkpt lat="43.60221" lon="1.00557">
        <ele>204.42</ele>
        <time>2021-08-18T14:57:06Z</time>
      </trkpt>
      <trkpt lat="43.602" lon="1.00485">
        <ele>202.98</ele>
        <time>2021-08-18T14:57:12Z</time>
      </trkpt>
      <trkpt lat="43.60184" lon="1.00443">
        <ele>201.53</ele>
        <time>2021-08-18T14:57:16Z</time>
      </trkpt>
      <trkpt lat="43.60168" lon="1.00399">
        <ele>199.61</ele>
        <time>2021-08-18T14:57:20Z</time>
      </trkpt>
      <trkpt lat="43.60163" lon="1.00392">
        <ele>199.61</ele>
        <time>2021-08-18T14:57:21Z</time>
      </trkpt>
      <trkpt lat="43.60157" lon="1.00386">
        <ele>199.61</ele>
        <time>2021-08-18T14:57:22Z</time>
      </trkpt>
      <trkpt lat="43.60151" lon="1.00381">
        <ele>199.61</ele>
        <time>2021-08-18T14:57:23Z</time>
      </trkpt>
      <trkpt lat="43.60144" lon="1.00376">
        <ele>199.61</ele>
        <time>2021-08-18T14:57:24Z</time>
      </trkpt>
      <trkpt lat="43.60123" lon="1.00362">
        <ele>201.05</ele>
        <time>2021-08-18T14:57:28Z</time>
      </trkpt>
      <trkpt lat="43.60106" lon="1.00348">
        <ele>203.46</ele>
        <time>2021-08-18T14:57:34Z</time>
      </trkpt>
      <trkpt lat="43.60096" lon="1.00336">
        <ele>204.42</ele>
        <time>2021-08-18T14:57:41Z</time>
      </trkpt>
      <trkpt lat="43.60086" lon="1.00318">
        <ele>205.38</ele>
        <time>2021-08-18T14:57:49Z</time>
      </trkpt>
      <trkpt lat="43.60077" lon="1.00301">
        <ele>205.38</ele>
        <time>2021-08-18T14:57:56Z</time>
      </trkpt>
      <trkpt lat="43.60066" lon="1.00277">
        <ele>207.78</ele>
        <time>2021-08-18T14:58:05Z</time>
      </trkpt>
      <trkpt lat="43.60059" lon="1.00259">
        <ele>208.74</ele>
        <time>2021-08-18T14:58:12Z</time>
      </trkpt>
      <trkpt lat="43.60052" lon="1.00239">
        <ele>209.7</ele>
        <time>2021-08-18T14:58:19Z</time>
      </trkpt>
      <trkpt lat="43.60041" lon="1.0022">
        <ele>210.19</ele>
        <time>2021-08-18T14:58:26Z</time>
      </trkpt>
      <trkpt lat="43.60026" lon="1.00197">
        <ele>211.63</ele>
        <time>2021-08-18T14:58:35Z</time>
      </trkpt>
      <trkpt lat="43.60018" lon="1.00179">
        <ele>212.59</ele>
        <time>2021-08-18T14:58:42Z</time>
      </trkpt>
      <trkpt lat="43.60005" lon="1.00154">
        <ele>214.51</ele>
        <time>2021-08-18T14:58:52Z</time>
      </trkpt>
      <trkpt lat="43.59994" lon="1.00129">
        <ele>215.95</ele>
        <time>2021-08-18T14:59:02Z</time>
      </trkpt>
      <trkpt lat="43.59983" lon="1.00109">
        <ele>214.03</ele>
        <time>2021-08-18T14:59:07Z</time>
      </trkpt>
      <trkpt lat="43.59972" lon="1.00089">
        <ele>212.11</ele>
        <time>2021-08-18T14:59:10Z</time>
      </trkpt>
      <trkpt lat="43.59964" lon="1.00072">
        <ele>210.67</ele>
        <time>2021-08-18T14:59:12Z</time>
      </trkpt>
      <trkpt lat="43.59956" lon="1.00053">
        <ele>209.22</ele>
        <time>2021-08-18T14:59:14Z</time>
      </trkpt>
      <trkpt lat="43.59942" lon="1.00009">
        <ele>208.74</ele>
        <time>2021-08-18T14:59:19Z</time>
      </trkpt>
      <trkpt lat="43.59935" lon="0.99986">
        <ele>208.74</ele>
        <time>2021-08-18T14:59:22Z</time>
      </trkpt>
      <trkpt lat="43.59917" lon="0.99921">
        <ele>205.38</ele>
        <time>2021-08-18T14:59:30Z</time>
      </trkpt>
      <trkpt lat="43.59911" lon="0.99902">
        <ele>202.49</ele>
        <time>2021-08-18T14:59:32Z</time>
      </trkpt>
      <trkpt lat="43.59907" lon="0.99893">
        <ele>201.53</ele>
        <time>2021-08-18T14:59:33Z</time>
      </trkpt>
      <trkpt lat="43.59902" lon="0.99884">
        <ele>200.09</ele>
        <time>2021-08-18T14:59:34Z</time>
      </trkpt>
      <trkpt lat="43.59896" lon="0.99875">
        <ele>199.61</ele>
        <time>2021-08-18T14:59:35Z</time>
      </trkpt>
      <trkpt lat="43.5989" lon="0.99867">
        <ele>198.17</ele>
        <time>2021-08-18T14:59:36Z</time>
      </trkpt>
      <trkpt lat="43.59871" lon="0.99841">
        <ele>194.8</ele>
        <time>2021-08-18T14:59:39Z</time>
      </trkpt>
      <trkpt lat="43.5986" lon="0.99825">
        <ele>193.36</ele>
        <time>2021-08-18T14:59:41Z</time>
      </trkpt>
      <trkpt lat="43.59855" lon="0.99816">
        <ele>191.92</ele>
        <time>2021-08-18T14:59:42Z</time>
      </trkpt>
      <trkpt lat="43.59851" lon="0.99807">
        <ele>191.44</ele>
        <time>2021-08-18T14:59:43Z</time>
      </trkpt>
      <trkpt lat="43.59841" lon="0.99774">
        <ele>189.52</ele>
        <time>2021-08-18T14:59:46Z</time>
      </trkpt>
      <trkpt lat="43.59834" lon="0.99739">
        <ele>186.15</ele>
        <time>2021-08-18T14:59:49Z</time>
      </trkpt>
      <trkpt lat="43.59833" lon="0.99727">
        <ele>185.19</ele>
        <time>2021-08-18T14:59:50Z</time>
      </trkpt>
      <trkpt lat="43.59831" lon="0.99646">
        <ele>182.31</ele>
        <time>2021-08-18T14:59:57Z</time>
      </trkpt>
      <trkpt lat="43.59823" lon="0.99583">
        <ele>181.83</ele>
        <time>2021-08-18T15:00:04Z</time>
      </trkpt>
      <trkpt lat="43.59815" lon="0.99533">
        <ele>181.83</ele>
        <time>2021-08-18T15:00:12Z</time>
      </trkpt>
      <trkpt lat="43.59811" lon="0.99497">
        <ele>181.83</ele>
        <time>2021-08-18T15:00:20Z</time>
      </trkpt>
      <trkpt lat="43.59803" lon="0.99466">
        <ele>181.83</ele>
        <time>2021-08-18T15:00:27Z</time>
      </trkpt>
      <trkpt lat="43.59797" lon="0.9944">
        <ele>181.83</ele>
        <time>2021-08-18T15:00:33Z</time>
      </trkpt>
      <trkpt lat="43.59794" lon="0.99407">
        <ele>181.83</ele>
        <time>2021-08-18T15:00:40Z</time>
      </trkpt>
      <trkpt lat="43.59795" lon="0.99388">
        <ele>183.27</ele>
        <time>2021-08-18T15:00:44Z</time>
      </trkpt>
      <trkpt lat="43.59795" lon="0.99359">
        <ele>184.71</ele>
        <time>2021-08-18T15:00:51Z</time>
      </trkpt>
      <trkpt lat="43.59795" lon="0.99338">
        <ele>185.19</ele>
        <time>2021-08-18T15:00:57Z</time>
      </trkpt>
      <trkpt lat="43.59793" lon="0.99309">
        <ele>186.15</ele>
        <time>2021-08-18T15:01:05Z</time>
      </trkpt>
      <trkpt lat="43.59792" lon="0.99277">
        <ele>187.11</ele>
        <time>2021-08-18T15:01:14Z</time>
      </trkpt>
      <trkpt lat="43.5979" lon="0.99254">
        <ele>188.56</ele>
        <time>2021-08-18T15:01:22Z</time>
      </trkpt>
      <trkpt lat="43.5979" lon="0.99234">
        <ele>190</ele>
        <time>2021-08-18T15:01:30Z</time>
      </trkpt>
      <trkpt lat="43.59791" lon="0.99213">
        <ele>190.96</ele>
        <time>2021-08-18T15:01:38Z</time>
      </trkpt>
      <trkpt lat="43.5979" lon="0.99193">
        <ele>191.44</ele>
        <time>2021-08-18T15:01:45Z</time>
      </trkpt>
      <trkpt lat="43.59787" lon="0.99164">
        <ele>192.88</ele>
        <time>2021-08-18T15:01:55Z</time>
      </trkpt>
      <trkpt lat="43.59784" lon="0.99133">
        <ele>193.84</ele>
        <time>2021-08-18T15:02:05Z</time>
      </trkpt>
      <trkpt lat="43.59782" lon="0.99105">
        <ele>195.28</ele>
        <time>2021-08-18T15:02:14Z</time>
      </trkpt>
      <trkpt lat="43.5978" lon="0.99079">
        <ele>196.25</ele>
        <time>2021-08-18T15:02:22Z</time>
      </trkpt>
      <trkpt lat="43.59778" lon="0.99059">
        <ele>196.73</ele>
        <time>2021-08-18T15:02:30Z</time>
      </trkpt>
      <trkpt lat="43.59777" lon="0.99033">
        <ele>197.69</ele>
        <time>2021-08-18T15:02:38Z</time>
      </trkpt>
      <trkpt lat="43.59774" lon="0.99004">
        <ele>198.17</ele>
        <time>2021-08-18T15:02:46Z</time>
      </trkpt>
      <trkpt lat="43.59772" lon="0.98973">
        <ele>199.61</ele>
        <time>2021-08-18T15:02:55Z</time>
      </trkpt>
      <trkpt lat="43.5977" lon="0.98941">
        <ele>200.57</ele>
        <time>2021-08-18T15:03:05Z</time>
      </trkpt>
      <trkpt lat="43.59768" lon="0.9891">
        <ele>202.01</ele>
        <time>2021-08-18T15:03:14Z</time>
      </trkpt>
      <trkpt lat="43.59766" lon="0.98882">
        <ele>202.98</ele>
        <time>2021-08-18T15:03:22Z</time>
      </trkpt>
      <trkpt lat="43.59763" lon="0.98861">
        <ele>203.94</ele>
        <time>2021-08-18T15:03:29Z</time>
      </trkpt>
      <trkpt lat="43.59761" lon="0.98855">
        <ele>203.94</ele>
        <time>2021-08-18T15:03:31Z</time>
      </trkpt>
      <trkpt lat="43.59761" lon="0.98852">
        <ele>204.42</ele>
        <time>2021-08-18T15:03:32Z</time>
      </trkpt>
      <trkpt lat="43.59761" lon="0.98849">
        <ele>203.94</ele>
        <time>2021-08-18T15:03:33Z</time>
      </trkpt>
      <trkpt lat="43.59761" lon="0.98845">
        <ele>204.9</ele>
        <time>2021-08-18T15:03:34Z</time>
      </trkpt>
      <trkpt lat="43.59761" lon="0.98842">
        <ele>204.9</ele>
        <time>2021-08-18T15:03:35Z</time>
      </trkpt>
      <trkpt lat="43.5976" lon="0.98839">
        <ele>204.9</ele>
        <time>2021-08-18T15:03:36Z</time>
      </trkpt>
      <trkpt lat="43.59756" lon="0.98811">
        <ele>205.38</ele>
        <time>2021-08-18T15:03:44Z</time>
      </trkpt>
      <trkpt lat="43.59752" lon="0.98788">
        <ele>206.82</ele>
        <time>2021-08-18T15:03:52Z</time>
      </trkpt>
      <trkpt lat="43.59748" lon="0.98767">
        <ele>208.26</ele>
        <time>2021-08-18T15:04:00Z</time>
      </trkpt>
      <trkpt lat="43.59742" lon="0.98747">
        <ele>208.74</ele>
        <time>2021-08-18T15:04:09Z</time>
      </trkpt>
      <trkpt lat="43.59733" lon="0.9873">
        <ele>210.67</ele>
        <time>2021-08-18T15:04:19Z</time>
      </trkpt>
      <trkpt lat="43.59724" lon="0.98716">
        <ele>211.63</ele>
        <time>2021-08-18T15:04:28Z</time>
      </trkpt>
      <trkpt lat="43.59713" lon="0.98705">
        <ele>213.07</ele>
        <time>2021-08-18T15:04:36Z</time>
      </trkpt>
      <trkpt lat="43.59702" lon="0.98692">
        <ele>214.51</ele>
        <time>2021-08-18T15:04:45Z</time>
      </trkpt>
      <trkpt lat="43.59701" lon="0.98691">
        <ele>214.51</ele>
        <time>2021-08-18T15:04:46Z</time>
      </trkpt>
      <trkpt lat="43.597" lon="0.98689">
        <ele>214.51</ele>
        <time>2021-08-18T15:04:47Z</time>
      </trkpt>
      <trkpt lat="43.59698" lon="0.98671">
        <ele>215.95</ele>
        <time>2021-08-18T15:04:56Z</time>
      </trkpt>
      <trkpt lat="43.59696" lon="0.98645">
        <ele>217.4</ele>
        <time>2021-08-18T15:05:06Z</time>
      </trkpt>
      <trkpt lat="43.59695" lon="0.98624">
        <ele>218.84</ele>
        <time>2021-08-18T15:05:14Z</time>
      </trkpt>
      <trkpt lat="43.59695" lon="0.98603">
        <ele>219.8</ele>
        <time>2021-08-18T15:05:22Z</time>
      </trkpt>
      <trkpt lat="43.59696" lon="0.98578">
        <ele>221.24</ele>
        <time>2021-08-18T15:05:30Z</time>
      </trkpt>
      <trkpt lat="43.59697" lon="0.98548">
        <ele>222.2</ele>
        <time>2021-08-18T15:05:39Z</time>
      </trkpt>
      <trkpt lat="43.59703" lon="0.98521">
        <ele>223.16</ele>
        <time>2021-08-18T15:05:46Z</time>
      </trkpt>
      <trkpt lat="43.59718" lon="0.98485">
        <ele>224.12</ele>
        <time>2021-08-18T15:05:54Z</time>
      </trkpt>
      <trkpt lat="43.59728" lon="0.98459">
        <ele>223.64</ele>
        <time>2021-08-18T15:05:59Z</time>
      </trkpt>
      <trkpt lat="43.5975" lon="0.98409">
        <ele>223.64</ele>
        <time>2021-08-18T15:06:08Z</time>
      </trkpt>
      <trkpt lat="43.59755" lon="0.98389">
        <ele>222.68</ele>
        <time>2021-08-18T15:06:11Z</time>
      </trkpt>
      <trkpt lat="43.59766" lon="0.98333">
        <ele>223.16</ele>
        <time>2021-08-18T15:06:19Z</time>
      </trkpt>
      <trkpt lat="43.59779" lon="0.98271">
        <ele>220.76</ele>
        <time>2021-08-18T15:06:27Z</time>
      </trkpt>
      <trkpt lat="43.5979" lon="0.9821">
        <ele>218.84</ele>
        <time>2021-08-18T15:06:35Z</time>
      </trkpt>
      <trkpt lat="43.59798" lon="0.98154">
        <ele>217.88</ele>
        <time>2021-08-18T15:06:43Z</time>
      </trkpt>
      <trkpt lat="43.59799" lon="0.98148">
        <ele>217.88</ele>
        <time>2021-08-18T15:06:44Z</time>
      </trkpt>
      <trkpt lat="43.59801" lon="0.98134">
        <ele>216.91</ele>
        <time>2021-08-18T15:06:48Z</time>
      </trkpt>
      <trkpt lat="43.59799" lon="0.98131">
        <ele>216.91</ele>
        <time>2021-08-18T15:06:49Z</time>
      </trkpt>
      <trkpt lat="43.59796" lon="0.98129">
        <ele>216.43</ele>
        <time>2021-08-18T15:06:50Z</time>
      </trkpt>
      <trkpt lat="43.5979" lon="0.98125">
        <ele>216.43</ele>
        <time>2021-08-18T15:06:52Z</time>
      </trkpt>
      <trkpt lat="43.59789" lon="0.98121">
        <ele>216.43</ele>
        <time>2021-08-18T15:06:53Z</time>
      </trkpt>
      <trkpt lat="43.5979" lon="0.98119">
        <ele>216.43</ele>
        <time>2021-08-18T15:06:54Z</time>
      </trkpt>
      <trkpt lat="43.59791" lon="0.98116">
        <ele>216.43</ele>
        <time>2021-08-18T15:06:55Z</time>
      </trkpt>
      <trkpt lat="43.59793" lon="0.98115">
        <ele>216.43</ele>
        <time>2021-08-18T15:06:56Z</time>
      </trkpt>
      <trkpt lat="43.59794" lon="0.98113">
        <ele>216.43</ele>
        <time>2021-08-18T15:06:57Z</time>
      </trkpt>
      <trkpt lat="43.59795" lon="0.9811">
        <ele>216.43</ele>
        <time>2021-08-18T15:06:58Z</time>
      </trkpt>
      <trkpt lat="43.59796" lon="0.98107">
        <ele>216.43</ele>
        <time>2021-08-18T15:06:59Z</time>
      </trkpt>
      <trkpt lat="43.59801" lon="0.98078">
        <ele>216.43</ele>
        <time>2021-08-18T15:07:06Z</time>
      </trkpt>
      <trkpt lat="43.59802" lon="0.98055">
        <ele>215.47</ele>
        <time>2021-08-18T15:07:11Z</time>
      </trkpt>
      <trkpt lat="43.59803" lon="0.98043">
        <ele>215.47</ele>
        <time>2021-08-18T15:07:15Z</time>
      </trkpt>
      <trkpt lat="43.59802" lon="0.98044">
        <ele>214.99</ele>
        <time>2021-08-18T15:07:16Z</time>
      </trkpt>
      <trkpt lat="43.59801" lon="0.98046">
        <ele>214.99</ele>
        <time>2021-08-18T15:07:17Z</time>
      </trkpt>
      <trkpt lat="43.59801" lon="0.98049">
        <ele>214.99</ele>
        <time>2021-08-18T15:07:18Z</time>
      </trkpt>
      <trkpt lat="43.59801" lon="0.98053">
        <ele>214.99</ele>
        <time>2021-08-18T15:07:19Z</time>
      </trkpt>
      <trkpt lat="43.59801" lon="0.98056">
        <ele>214.99</ele>
        <time>2021-08-18T15:07:20Z</time>
      </trkpt>
      <trkpt lat="43.59801" lon="0.98061">
        <ele>214.99</ele>
        <time>2021-08-18T15:07:21Z</time>
      </trkpt>
      <trkpt lat="43.59801" lon="0.98065">
        <ele>214.99</ele>
        <time>2021-08-18T15:07:22Z</time>
      </trkpt>
      <trkpt lat="43.598" lon="0.9807">
        <ele>214.99</ele>
        <time>2021-08-18T15:07:23Z</time>
      </trkpt>
      <trkpt lat="43.598" lon="0.98075">
        <ele>216.43</ele>
        <time>2021-08-18T15:07:24Z</time>
      </trkpt>
      <trkpt lat="43.59799" lon="0.98079">
        <ele>216.43</ele>
        <time>2021-08-18T15:07:25Z</time>
      </trkpt>
      <trkpt lat="43.59797" lon="0.981">
        <ele>217.4</ele>
        <time>2021-08-18T15:07:30Z</time>
      </trkpt>
      <trkpt lat="43.59796" lon="0.98102">
        <ele>217.4</ele>
        <time>2021-08-18T15:07:31Z</time>
      </trkpt>
      <trkpt lat="43.59795" lon="0.98105">
        <ele>217.4</ele>
        <time>2021-08-18T15:07:32Z</time>
      </trkpt>
      <trkpt lat="43.59794" lon="0.98112">
        <ele>217.4</ele>
        <time>2021-08-18T15:07:34Z</time>
      </trkpt>
      <trkpt lat="43.5979" lon="0.98115">
        <ele>217.4</ele>
        <time>2021-08-18T15:07:35Z</time>
      </trkpt>
      <trkpt lat="43.59785" lon="0.98116">
        <ele>216.43</ele>
        <time>2021-08-18T15:07:36Z</time>
      </trkpt>
      <trkpt lat="43.5978" lon="0.98116">
        <ele>215.95</ele>
        <time>2021-08-18T15:07:37Z</time>
      </trkpt>
      <trkpt lat="43.59776" lon="0.98115">
        <ele>215.47</ele>
        <time>2021-08-18T15:07:38Z</time>
      </trkpt>
      <trkpt lat="43.59771" lon="0.98113">
        <ele>215.47</ele>
        <time>2021-08-18T15:07:39Z</time>
      </trkpt>
      <trkpt lat="43.59767" lon="0.98111">
        <ele>214.99</ele>
        <time>2021-08-18T15:07:40Z</time>
      </trkpt>
      <trkpt lat="43.59754" lon="0.98098">
        <ele>214.03</ele>
        <time>2021-08-18T15:07:46Z</time>
      </trkpt>
      <trkpt lat="43.59754" lon="0.98091">
        <ele>213.55</ele>
        <time>2021-08-18T15:07:48Z</time>
      </trkpt>
      <trkpt lat="43.59753" lon="0.98073">
        <ele>211.63</ele>
        <time>2021-08-18T15:07:54Z</time>
      </trkpt>
      <trkpt lat="43.59743" lon="0.98069">
        <ele>210.19</ele>
        <time>2021-08-18T15:07:59Z</time>
      </trkpt>
      <trkpt lat="43.5974" lon="0.98072">
        <ele>210.19</ele>
        <time>2021-08-18T15:08:01Z</time>
      </trkpt>
      <trkpt lat="43.59739" lon="0.98076">
        <ele>210.19</ele>
        <time>2021-08-18T15:08:06Z</time>
      </trkpt>
      <trkpt lat="43.5974" lon="0.98074">
        <ele>210.19</ele>
        <time>2021-08-18T15:08:17Z</time>
      </trkpt>
      <trkpt lat="43.59743" lon="0.98072">
        <ele>210.19</ele>
        <time>2021-08-18T15:08:30Z</time>
      </trkpt>
      <trkpt lat="43.59745" lon="0.98073">
        <ele>210.19</ele>
        <time>2021-08-18T15:08:41Z</time>
      </trkpt>
      <trkpt lat="43.5975" lon="0.9808">
        <ele>210.19</ele>
        <time>2021-08-18T15:09:02Z</time>
      </trkpt>
      <trkpt lat="43.59749" lon="0.98079">
        <ele>210.19</ele>
        <time>2021-08-18T15:09:11Z</time>
      </trkpt>
      <trkpt lat="43.59751" lon="0.98075">
        <ele>210.19</ele>
        <time>2021-08-18T15:09:18Z</time>
      </trkpt>
      <trkpt lat="43.59752" lon="0.98074">
        <ele>210.19</ele>
        <time>2021-08-18T15:09:19Z</time>
      </trkpt>
      <trkpt lat="43.59752" lon="0.98071">
        <ele>210.19</ele>
        <time>2021-08-18T15:09:21Z</time>
      </trkpt>
      <trkpt lat="43.59754" lon="0.98071">
        <ele>210.19</ele>
        <time>2021-08-18T15:09:23Z</time>
      </trkpt>
      <trkpt lat="43.59756" lon="0.98067">
        <ele>211.63</ele>
        <time>2021-08-18T15:09:26Z</time>
      </trkpt>
      <trkpt lat="43.59762" lon="0.9804">
        <ele>209.22</ele>
        <time>2021-08-18T15:09:32Z</time>
      </trkpt>
      <trkpt lat="43.5977" lon="0.98001">
        <ele>207.3</ele>
        <time>2021-08-18T15:09:39Z</time>
      </trkpt>
      <trkpt lat="43.59771" lon="0.97992">
        <ele>207.3</ele>
        <time>2021-08-18T15:09:41Z</time>
      </trkpt>
      <trkpt lat="43.59769" lon="0.97989">
        <ele>206.82</ele>
        <time>2021-08-18T15:09:42Z</time>
      </trkpt>
      <trkpt lat="43.59766" lon="0.97987">
        <ele>206.34</ele>
        <time>2021-08-18T15:09:43Z</time>
      </trkpt>
      <trkpt lat="43.59762" lon="0.97989">
        <ele>205.38</ele>
        <time>2021-08-18T15:09:44Z</time>
      </trkpt>
      <trkpt lat="43.59759" lon="0.97991">
        <ele>204.42</ele>
        <time>2021-08-18T15:09:45Z</time>
      </trkpt>
      <trkpt lat="43.59754" lon="0.97994">
        <ele>203.46</ele>
        <time>2021-08-18T15:09:46Z</time>
      </trkpt>
      <trkpt lat="43.59749" lon="0.97994">
        <ele>202.49</ele>
        <time>2021-08-18T15:09:47Z</time>
      </trkpt>
      <trkpt lat="43.59742" lon="0.97992">
        <ele>201.05</ele>
        <time>2021-08-18T15:09:48Z</time>
      </trkpt>
      <trkpt lat="43.59735" lon="0.97989">
        <ele>200.09</ele>
        <time>2021-08-18T15:09:49Z</time>
      </trkpt>
      <trkpt lat="43.59727" lon="0.97983">
        <ele>198.17</ele>
        <time>2021-08-18T15:09:50Z</time>
      </trkpt>
      <trkpt lat="43.59717" lon="0.97977">
        <ele>193.84</ele>
        <time>2021-08-18T15:09:51Z</time>
      </trkpt>
      <trkpt lat="43.59697" lon="0.9796">
        <ele>189.04</ele>
        <time>2021-08-18T15:09:53Z</time>
      </trkpt>
      <trkpt lat="43.59675" lon="0.97939">
        <ele>184.71</ele>
        <time>2021-08-18T15:09:55Z</time>
      </trkpt>
      <trkpt lat="43.59643" lon="0.97904">
        <ele>182.31</ele>
        <time>2021-08-18T15:09:58Z</time>
      </trkpt>
      <trkpt lat="43.59635" lon="0.97891">
        <ele>180.87</ele>
        <time>2021-08-18T15:09:59Z</time>
      </trkpt>
      <trkpt lat="43.59629" lon="0.97877">
        <ele>180.87</ele>
        <time>2021-08-18T15:10:00Z</time>
      </trkpt>
      <trkpt lat="43.59615" lon="0.97844">
        <ele>180.87</ele>
        <time>2021-08-18T15:10:03Z</time>
      </trkpt>
      <trkpt lat="43.59612" lon="0.97838">
        <ele>181.83</ele>
        <time>2021-08-18T15:10:04Z</time>
      </trkpt>
      <trkpt lat="43.59608" lon="0.97835">
        <ele>182.31</ele>
        <time>2021-08-18T15:10:05Z</time>
      </trkpt>
      <trkpt lat="43.59604" lon="0.97835">
        <ele>182.31</ele>
        <time>2021-08-18T15:10:06Z</time>
      </trkpt>
      <trkpt lat="43.59601" lon="0.97836">
        <ele>182.79</ele>
        <time>2021-08-18T15:10:07Z</time>
      </trkpt>
      <trkpt lat="43.59597" lon="0.97839">
        <ele>182.79</ele>
        <time>2021-08-18T15:10:08Z</time>
      </trkpt>
      <trkpt lat="43.59594" lon="0.97842">
        <ele>182.79</ele>
        <time>2021-08-18T15:10:09Z</time>
      </trkpt>
      <trkpt lat="43.59591" lon="0.97845">
        <ele>182.79</ele>
        <time>2021-08-18T15:10:10Z</time>
      </trkpt>
      <trkpt lat="43.59587" lon="0.97848">
        <ele>182.79</ele>
        <time>2021-08-18T15:10:11Z</time>
      </trkpt>
      <trkpt lat="43.59583" lon="0.9785">
        <ele>182.79</ele>
        <time>2021-08-18T15:10:12Z</time>
      </trkpt>
      <trkpt lat="43.59565" lon="0.97858">
        <ele>182.79</ele>
        <time>2021-08-18T15:10:16Z</time>
      </trkpt>
      <trkpt lat="43.59524" lon="0.97864">
        <ele>183.27</ele>
        <time>2021-08-18T15:10:24Z</time>
      </trkpt>
      <trkpt lat="43.59513" lon="0.97865">
        <ele>181.83</ele>
        <time>2021-08-18T15:10:26Z</time>
      </trkpt>
      <trkpt lat="43.59485" lon="0.9786">
        <ele>181.83</ele>
        <time>2021-08-18T15:10:32Z</time>
      </trkpt>
      <trkpt lat="43.59481" lon="0.97852">
        <ele>183.27</ele>
        <time>2021-08-18T15:10:35Z</time>
      </trkpt>
      <trkpt lat="43.59477" lon="0.9783">
        <ele>185.67</ele>
        <time>2021-08-18T15:10:43Z</time>
      </trkpt>
      <trkpt lat="43.59476" lon="0.97811">
        <ele>187.11</ele>
        <time>2021-08-18T15:10:50Z</time>
      </trkpt>
      <trkpt lat="43.5947" lon="0.9779">
        <ele>188.08</ele>
        <time>2021-08-18T15:10:59Z</time>
      </trkpt>
      <trkpt lat="43.59459" lon="0.97774">
        <ele>189.52</ele>
        <time>2021-08-18T15:11:08Z</time>
      </trkpt>
      <trkpt lat="43.59449" lon="0.97759">
        <ele>190</ele>
        <time>2021-08-18T15:11:16Z</time>
      </trkpt>
      <trkpt lat="43.59447" lon="0.97757">
        <ele>190.48</ele>
        <time>2021-08-18T15:11:18Z</time>
      </trkpt>
      <trkpt lat="43.59446" lon="0.97755">
        <ele>190.48</ele>
        <time>2021-08-18T15:11:19Z</time>
      </trkpt>
      <trkpt lat="43.59445" lon="0.97753">
        <ele>190.48</ele>
        <time>2021-08-18T15:11:20Z</time>
      </trkpt>
      <trkpt lat="43.59435" lon="0.97735">
        <ele>191.44</ele>
        <time>2021-08-18T15:11:30Z</time>
      </trkpt>
      <trkpt lat="43.59426" lon="0.97719">
        <ele>192.4</ele>
        <time>2021-08-18T15:11:39Z</time>
      </trkpt>
      <trkpt lat="43.59416" lon="0.97704">
        <ele>192.88</ele>
        <time>2021-08-18T15:11:48Z</time>
      </trkpt>
      <trkpt lat="43.59404" lon="0.97687">
        <ele>194.32</ele>
        <time>2021-08-18T15:11:58Z</time>
      </trkpt>
      <trkpt lat="43.59387" lon="0.97675">
        <ele>195.28</ele>
        <time>2021-08-18T15:12:08Z</time>
      </trkpt>
      <trkpt lat="43.59368" lon="0.97662">
        <ele>196.73</ele>
        <time>2021-08-18T15:12:19Z</time>
      </trkpt>
      <trkpt lat="43.59355" lon="0.97645">
        <ele>198.17</ele>
        <time>2021-08-18T15:12:28Z</time>
      </trkpt>
      <trkpt lat="43.59347" lon="0.97631">
        <ele>198.65</ele>
        <time>2021-08-18T15:12:34Z</time>
      </trkpt>
      <trkpt lat="43.59329" lon="0.97605">
        <ele>199.61</ele>
        <time>2021-08-18T15:12:45Z</time>
      </trkpt>
      <trkpt lat="43.59314" lon="0.97589">
        <ele>195.28</ele>
        <time>2021-08-18T15:12:50Z</time>
      </trkpt>
      <trkpt lat="43.5931" lon="0.97585">
        <ele>194.8</ele>
        <time>2021-08-18T15:12:51Z</time>
      </trkpt>
      <trkpt lat="43.59297" lon="0.97573">
        <ele>191.44</ele>
        <time>2021-08-18T15:12:54Z</time>
      </trkpt>
      <trkpt lat="43.59292" lon="0.97569">
        <ele>190.48</ele>
        <time>2021-08-18T15:12:55Z</time>
      </trkpt>
      <trkpt lat="43.59283" lon="0.9756">
        <ele>188.08</ele>
        <time>2021-08-18T15:12:57Z</time>
      </trkpt>
      <trkpt lat="43.59278" lon="0.97555">
        <ele>186.63</ele>
        <time>2021-08-18T15:12:58Z</time>
      </trkpt>
      <trkpt lat="43.59264" lon="0.9754">
        <ele>183.27</ele>
        <time>2021-08-18T15:13:01Z</time>
      </trkpt>
      <trkpt lat="43.59249" lon="0.97525">
        <ele>179.9</ele>
        <time>2021-08-18T15:13:04Z</time>
      </trkpt>
      <trkpt lat="43.59245" lon="0.9752">
        <ele>179.9</ele>
        <time>2021-08-18T15:13:05Z</time>
      </trkpt>
      <trkpt lat="43.59226" lon="0.97501">
        <ele>177.5</ele>
        <time>2021-08-18T15:13:09Z</time>
      </trkpt>
      <trkpt lat="43.59222" lon="0.97495">
        <ele>177.02</ele>
        <time>2021-08-18T15:13:10Z</time>
      </trkpt>
      <trkpt lat="43.5922" lon="0.97489">
        <ele>177.02</ele>
        <time>2021-08-18T15:13:11Z</time>
      </trkpt>
      <trkpt lat="43.59219" lon="0.97484">
        <ele>176.06</ele>
        <time>2021-08-18T15:13:12Z</time>
      </trkpt>
      <trkpt lat="43.59221" lon="0.9748">
        <ele>176.06</ele>
        <time>2021-08-18T15:13:13Z</time>
      </trkpt>
      <trkpt lat="43.59223" lon="0.97476">
        <ele>176.06</ele>
        <time>2021-08-18T15:13:14Z</time>
      </trkpt>
      <trkpt lat="43.59225" lon="0.97472">
        <ele>176.06</ele>
        <time>2021-08-18T15:13:15Z</time>
      </trkpt>
      <trkpt lat="43.59228" lon="0.97468">
        <ele>176.54</ele>
        <time>2021-08-18T15:13:16Z</time>
      </trkpt>
      <trkpt lat="43.59241" lon="0.97448">
        <ele>176.54</ele>
        <time>2021-08-18T15:13:23Z</time>
      </trkpt>
      <trkpt lat="43.59247" lon="0.97439">
        <ele>176.54</ele>
        <time>2021-08-18T15:13:29Z</time>
      </trkpt>
      <trkpt lat="43.59248" lon="0.97436">
        <ele>176.54</ele>
        <time>2021-08-18T15:13:35Z</time>
      </trkpt>
      <trkpt lat="43.59249" lon="0.97433">
        <ele>177.5</ele>
        <time>2021-08-18T15:13:40Z</time>
      </trkpt>
      <trkpt lat="43.59255" lon="0.97425">
        <ele>177.5</ele>
        <time>2021-08-18T15:13:47Z</time>
      </trkpt>
      <trkpt lat="43.59269" lon="0.9741">
        <ele>177.98</ele>
        <time>2021-08-18T15:13:54Z</time>
      </trkpt>
      <trkpt lat="43.59289" lon="0.97391">
        <ele>177.98</ele>
        <time>2021-08-18T15:14:01Z</time>
      </trkpt>
      <trkpt lat="43.59316" lon="0.97365">
        <ele>178.46</ele>
        <time>2021-08-18T15:14:09Z</time>
      </trkpt>
      <trkpt lat="43.59344" lon="0.9733">
        <ele>178.94</ele>
        <time>2021-08-18T15:14:18Z</time>
      </trkpt>
      <trkpt lat="43.59359" lon="0.97297">
        <ele>178.94</ele>
        <time>2021-08-18T15:14:25Z</time>
      </trkpt>
      <trkpt lat="43.59367" lon="0.97278">
        <ele>179.42</ele>
        <time>2021-08-18T15:14:29Z</time>
      </trkpt>
      <trkpt lat="43.5937" lon="0.97273">
        <ele>179.42</ele>
        <time>2021-08-18T15:14:30Z</time>
      </trkpt>
      <trkpt lat="43.59378" lon="0.97246">
        <ele>180.38</ele>
        <time>2021-08-18T15:14:36Z</time>
      </trkpt>
      <trkpt lat="43.59381" lon="0.97219">
        <ele>179.9</ele>
        <time>2021-08-18T15:14:41Z</time>
      </trkpt>
      <trkpt lat="43.59389" lon="0.97163">
        <ele>179.9</ele>
        <time>2021-08-18T15:14:50Z</time>
      </trkpt>
      <trkpt lat="43.59392" lon="0.9714">
        <ele>180.87</ele>
        <time>2021-08-18T15:14:54Z</time>
      </trkpt>
      <trkpt lat="43.59398" lon="0.97085">
        <ele>181.35</ele>
        <time>2021-08-18T15:15:04Z</time>
      </trkpt>
      <trkpt lat="43.59403" lon="0.97037">
        <ele>182.31</ele>
        <time>2021-08-18T15:15:13Z</time>
      </trkpt>
      <trkpt lat="43.59412" lon="0.96994">
        <ele>183.27</ele>
        <time>2021-08-18T15:15:22Z</time>
      </trkpt>
      <trkpt lat="43.59426" lon="0.96943">
        <ele>183.75</ele>
        <time>2021-08-18T15:15:33Z</time>
      </trkpt>
      <trkpt lat="43.59444" lon="0.96893">
        <ele>184.23</ele>
        <time>2021-08-18T15:15:44Z</time>
      </trkpt>
      <trkpt lat="43.59461" lon="0.96852">
        <ele>184.23</ele>
        <time>2021-08-18T15:15:52Z</time>
      </trkpt>
      <trkpt lat="43.59473" lon="0.96817">
        <ele>184.23</ele>
        <time>2021-08-18T15:16:00Z</time>
      </trkpt>
      <trkpt lat="43.59489" lon="0.96778">
        <ele>183.27</ele>
        <time>2021-08-18T15:16:08Z</time>
      </trkpt>
      <trkpt lat="43.59504" lon="0.96749">
        <ele>183.27</ele>
        <time>2021-08-18T15:16:15Z</time>
      </trkpt>
      <trkpt lat="43.59511" lon="0.96736">
        <ele>182.79</ele>
        <time>2021-08-18T15:16:18Z</time>
      </trkpt>
      <trkpt lat="43.59514" lon="0.96732">
        <ele>182.79</ele>
        <time>2021-08-18T15:16:19Z</time>
      </trkpt>
      <trkpt lat="43.59516" lon="0.96727">
        <ele>183.27</ele>
        <time>2021-08-18T15:16:20Z</time>
      </trkpt>
      <trkpt lat="43.59519" lon="0.96723">
        <ele>183.27</ele>
        <time>2021-08-18T15:16:21Z</time>
      </trkpt>
      <trkpt lat="43.59521" lon="0.96719">
        <ele>183.27</ele>
        <time>2021-08-18T15:16:22Z</time>
      </trkpt>
      <trkpt lat="43.59538" lon="0.9669">
        <ele>183.27</ele>
        <time>2021-08-18T15:16:29Z</time>
      </trkpt>
      <trkpt lat="43.5955" lon="0.96663">
        <ele>182.79</ele>
        <time>2021-08-18T15:16:35Z</time>
      </trkpt>
      <trkpt lat="43.59541" lon="0.96629">
        <ele>182.31</ele>
        <time>2021-08-18T15:16:42Z</time>
      </trkpt>
      <trkpt lat="43.5954" lon="0.96623">
        <ele>182.31</ele>
        <time>2021-08-18T15:16:43Z</time>
      </trkpt>
      <trkpt lat="43.5954" lon="0.96617">
        <ele>182.31</ele>
        <time>2021-08-18T15:16:44Z</time>
      </trkpt>
      <trkpt lat="43.5954" lon="0.96611">
        <ele>182.31</ele>
        <time>2021-08-18T15:16:45Z</time>
      </trkpt>
      <trkpt lat="43.59541" lon="0.96605">
        <ele>182.31</ele>
        <time>2021-08-18T15:16:46Z</time>
      </trkpt>
      <trkpt lat="43.59542" lon="0.96599">
        <ele>182.31</ele>
        <time>2021-08-18T15:16:47Z</time>
      </trkpt>
      <trkpt lat="43.59543" lon="0.96594">
        <ele>182.31</ele>
        <time>2021-08-18T15:16:48Z</time>
      </trkpt>
      <trkpt lat="43.59545" lon="0.96589">
        <ele>182.31</ele>
        <time>2021-08-18T15:16:49Z</time>
      </trkpt>
      <trkpt lat="43.59546" lon="0.96584">
        <ele>182.31</ele>
        <time>2021-08-18T15:16:50Z</time>
      </trkpt>
      <trkpt lat="43.59547" lon="0.96578">
        <ele>182.31</ele>
        <time>2021-08-18T15:16:51Z</time>
      </trkpt>
      <trkpt lat="43.59551" lon="0.96551">
        <ele>182.31</ele>
        <time>2021-08-18T15:16:58Z</time>
      </trkpt>
      <trkpt lat="43.59553" lon="0.9653">
        <ele>183.27</ele>
        <time>2021-08-18T15:17:06Z</time>
      </trkpt>
      <trkpt lat="43.59555" lon="0.96505">
        <ele>183.75</ele>
        <time>2021-08-18T15:17:14Z</time>
      </trkpt>
      <trkpt lat="43.59559" lon="0.96481">
        <ele>185.19</ele>
        <time>2021-08-18T15:17:21Z</time>
      </trkpt>
      <trkpt lat="43.59561" lon="0.96457">
        <ele>185.67</ele>
        <time>2021-08-18T15:17:29Z</time>
      </trkpt>
      <trkpt lat="43.59564" lon="0.9643">
        <ele>187.11</ele>
        <time>2021-08-18T15:17:38Z</time>
      </trkpt>
      <trkpt lat="43.59568" lon="0.96407">
        <ele>188.08</ele>
        <time>2021-08-18T15:17:46Z</time>
      </trkpt>
      <trkpt lat="43.5957" lon="0.96388">
        <ele>189.52</ele>
        <time>2021-08-18T15:17:54Z</time>
      </trkpt>
      <trkpt lat="43.59572" lon="0.96371">
        <ele>191.92</ele>
        <time>2021-08-18T15:18:02Z</time>
      </trkpt>
      <trkpt lat="43.59574" lon="0.96353">
        <ele>192.88</ele>
        <time>2021-08-18T15:18:11Z</time>
      </trkpt>
      <trkpt lat="43.59577" lon="0.96335">
        <ele>193.84</ele>
        <time>2021-08-18T15:18:20Z</time>
      </trkpt>
      <trkpt lat="43.5958" lon="0.96321">
        <ele>195.28</ele>
        <time>2021-08-18T15:18:27Z</time>
      </trkpt>
      <trkpt lat="43.59581" lon="0.96316">
        <ele>195.77</ele>
        <time>2021-08-18T15:18:31Z</time>
      </trkpt>
      <trkpt lat="43.59582" lon="0.96298">
        <ele>196.25</ele>
        <time>2021-08-18T15:18:39Z</time>
      </trkpt>
      <trkpt lat="43.59585" lon="0.96274">
        <ele>198.17</ele>
        <time>2021-08-18T15:18:50Z</time>
      </trkpt>
      <trkpt lat="43.59588" lon="0.96255">
        <ele>198.17</ele>
        <time>2021-08-18T15:18:58Z</time>
      </trkpt>
      <trkpt lat="43.59592" lon="0.96233">
        <ele>199.61</ele>
        <time>2021-08-18T15:19:07Z</time>
      </trkpt>
      <trkpt lat="43.59596" lon="0.96208">
        <ele>200.09</ele>
        <time>2021-08-18T15:19:16Z</time>
      </trkpt>
      <trkpt lat="43.59597" lon="0.9619">
        <ele>201.53</ele>
        <time>2021-08-18T15:19:23Z</time>
      </trkpt>
      <trkpt lat="43.59595" lon="0.96161">
        <ele>202.98</ele>
        <time>2021-08-18T15:19:32Z</time>
      </trkpt>
      <trkpt lat="43.59595" lon="0.96134">
        <ele>204.42</ele>
        <time>2021-08-18T15:19:41Z</time>
      </trkpt>
      <trkpt lat="43.59596" lon="0.96114">
        <ele>205.86</ele>
        <time>2021-08-18T15:19:49Z</time>
      </trkpt>
      <trkpt lat="43.596" lon="0.96091">
        <ele>207.3</ele>
        <time>2021-08-18T15:19:58Z</time>
      </trkpt>
      <trkpt lat="43.59602" lon="0.96065">
        <ele>208.26</ele>
        <time>2021-08-18T15:20:08Z</time>
      </trkpt>
      <trkpt lat="43.59606" lon="0.96031">
        <ele>210.19</ele>
        <time>2021-08-18T15:20:21Z</time>
      </trkpt>
      <trkpt lat="43.59609" lon="0.96009">
        <ele>210.67</ele>
        <time>2021-08-18T15:20:29Z</time>
      </trkpt>
      <trkpt lat="43.59614" lon="0.95989">
        <ele>212.11</ele>
        <time>2021-08-18T15:20:37Z</time>
      </trkpt>
      <trkpt lat="43.59618" lon="0.95968">
        <ele>213.55</ele>
        <time>2021-08-18T15:20:45Z</time>
      </trkpt>
      <trkpt lat="43.59622" lon="0.95942">
        <ele>214.03</ele>
        <time>2021-08-18T15:20:55Z</time>
      </trkpt>
      <trkpt lat="43.59627" lon="0.95922">
        <ele>215.47</ele>
        <time>2021-08-18T15:21:02Z</time>
      </trkpt>
      <trkpt lat="43.59631" lon="0.95903">
        <ele>215.95</ele>
        <time>2021-08-18T15:21:08Z</time>
      </trkpt>
      <trkpt lat="43.59642" lon="0.95861">
        <ele>216.91</ele>
        <time>2021-08-18T15:21:20Z</time>
      </trkpt>
      <trkpt lat="43.59651" lon="0.95826">
        <ele>218.36</ele>
        <time>2021-08-18T15:21:30Z</time>
      </trkpt>
      <trkpt lat="43.59659" lon="0.95793">
        <ele>219.8</ele>
        <time>2021-08-18T15:21:38Z</time>
      </trkpt>
      <trkpt lat="43.59671" lon="0.95747">
        <ele>220.28</ele>
        <time>2021-08-18T15:21:49Z</time>
      </trkpt>
      <trkpt lat="43.59681" lon="0.95708">
        <ele>221.24</ele>
        <time>2021-08-18T15:21:59Z</time>
      </trkpt>
      <trkpt lat="43.59689" lon="0.95676">
        <ele>222.68</ele>
        <time>2021-08-18T15:22:08Z</time>
      </trkpt>
      <trkpt lat="43.59695" lon="0.95648">
        <ele>223.16</ele>
        <time>2021-08-18T15:22:16Z</time>
      </trkpt>
      <trkpt lat="43.59701" lon="0.95615">
        <ele>224.61</ele>
        <time>2021-08-18T15:22:26Z</time>
      </trkpt>
      <trkpt lat="43.59706" lon="0.95587">
        <ele>225.09</ele>
        <time>2021-08-18T15:22:34Z</time>
      </trkpt>
      <trkpt lat="43.59715" lon="0.95541">
        <ele>225.09</ele>
        <time>2021-08-18T15:22:43Z</time>
      </trkpt>
      <trkpt lat="43.59716" lon="0.95535">
        <ele>225.09</ele>
        <time>2021-08-18T15:22:44Z</time>
      </trkpt>
      <trkpt lat="43.59729" lon="0.95477">
        <ele>225.57</ele>
        <time>2021-08-18T15:22:54Z</time>
      </trkpt>
      <trkpt lat="43.59736" lon="0.9542">
        <ele>226.05</ele>
        <time>2021-08-18T15:23:04Z</time>
      </trkpt>
      <trkpt lat="43.59735" lon="0.95366">
        <ele>227.01</ele>
        <time>2021-08-18T15:23:12Z</time>
      </trkpt>
      <trkpt lat="43.59735" lon="0.95352">
        <ele>227.01</ele>
        <time>2021-08-18T15:23:14Z</time>
      </trkpt>
      <trkpt lat="43.59739" lon="0.95319">
        <ele>227.01</ele>
        <time>2021-08-18T15:23:20Z</time>
      </trkpt>
      <trkpt lat="43.59745" lon="0.95293">
        <ele>227.01</ele>
        <time>2021-08-18T15:23:27Z</time>
      </trkpt>
      <trkpt lat="43.59756" lon="0.95267">
        <ele>227.01</ele>
        <time>2021-08-18T15:23:33Z</time>
      </trkpt>
      <trkpt lat="43.59772" lon="0.95226">
        <ele>227.49</ele>
        <time>2021-08-18T15:23:42Z</time>
      </trkpt>
      <trkpt lat="43.59782" lon="0.95197">
        <ele>229.41</ele>
        <time>2021-08-18T15:23:49Z</time>
      </trkpt>
      <trkpt lat="43.59795" lon="0.95163">
        <ele>230.37</ele>
        <time>2021-08-18T15:23:58Z</time>
      </trkpt>
      <trkpt lat="43.59807" lon="0.95131">
        <ele>231.81</ele>
        <time>2021-08-18T15:24:08Z</time>
      </trkpt>
      <trkpt lat="43.59814" lon="0.95112">
        <ele>232.3</ele>
        <time>2021-08-18T15:24:13Z</time>
      </trkpt>
      <trkpt lat="43.59834" lon="0.95075">
        <ele>232.3</ele>
        <time>2021-08-18T15:24:23Z</time>
      </trkpt>
      <trkpt lat="43.59846" lon="0.95054">
        <ele>232.3</ele>
        <time>2021-08-18T15:24:29Z</time>
      </trkpt>
      <trkpt lat="43.59863" lon="0.95026">
        <ele>232.3</ele>
        <time>2021-08-18T15:24:36Z</time>
      </trkpt>
      <trkpt lat="43.59889" lon="0.94981">
        <ele>232.78</ele>
        <time>2021-08-18T15:24:47Z</time>
      </trkpt>
      <trkpt lat="43.59918" lon="0.94926">
        <ele>234.7</ele>
        <time>2021-08-18T15:25:01Z</time>
      </trkpt>
      <trkpt lat="43.59937" lon="0.94892">
        <ele>237.1</ele>
        <time>2021-08-18T15:25:12Z</time>
      </trkpt>
      <trkpt lat="43.59951" lon="0.94867">
        <ele>237.58</ele>
        <time>2021-08-18T15:25:21Z</time>
      </trkpt>
      <trkpt lat="43.59965" lon="0.94846">
        <ele>239.51</ele>
        <time>2021-08-18T15:25:30Z</time>
      </trkpt>
      <trkpt lat="43.59979" lon="0.94849">
        <ele>239.99</ele>
        <time>2021-08-18T15:25:36Z</time>
      </trkpt>
      <trkpt lat="43.60005" lon="0.94863">
        <ele>239.02</ele>
        <time>2021-08-18T15:25:43Z</time>
      </trkpt>
      <trkpt lat="43.60018" lon="0.9487">
        <ele>238.54</ele>
        <time>2021-08-18T15:25:46Z</time>
      </trkpt>
      <trkpt lat="43.60022" lon="0.94872">
        <ele>238.54</ele>
        <time>2021-08-18T15:25:47Z</time>
      </trkpt>
      <trkpt lat="43.60031" lon="0.94878">
        <ele>237.58</ele>
        <time>2021-08-18T15:25:49Z</time>
      </trkpt>
      <trkpt lat="43.60078" lon="0.94902">
        <ele>235.18</ele>
        <time>2021-08-18T15:25:57Z</time>
      </trkpt>
      <trkpt lat="43.60083" lon="0.94906">
        <ele>234.7</ele>
        <time>2021-08-18T15:25:58Z</time>
      </trkpt>
      <trkpt lat="43.60118" lon="0.94924">
        <ele>234.7</ele>
        <time>2021-08-18T15:26:05Z</time>
      </trkpt>
      <trkpt lat="43.60148" lon="0.9494">
        <ele>236.14</ele>
        <time>2021-08-18T15:26:13Z</time>
      </trkpt>
      <trkpt lat="43.6017" lon="0.94952">
        <ele>238.06</ele>
        <time>2021-08-18T15:26:21Z</time>
      </trkpt>
      <trkpt lat="43.60185" lon="0.94961">
        <ele>239.99</ele>
        <time>2021-08-18T15:26:29Z</time>
      </trkpt>
      <trkpt lat="43.60203" lon="0.94973">
        <ele>241.91</ele>
        <time>2021-08-18T15:26:38Z</time>
      </trkpt>
      <trkpt lat="43.60223" lon="0.94987">
        <ele>241.43</ele>
        <time>2021-08-18T15:26:45Z</time>
      </trkpt>
      <trkpt lat="43.60241" lon="0.94998">
        <ele>237.58</ele>
        <time>2021-08-18T15:26:48Z</time>
      </trkpt>
      <trkpt lat="43.60257" lon="0.95008">
        <ele>234.7</ele>
        <time>2021-08-18T15:26:50Z</time>
      </trkpt>
      <trkpt lat="43.60286" lon="0.95025">
        <ele>229.89</ele>
        <time>2021-08-18T15:26:53Z</time>
      </trkpt>
      <trkpt lat="43.60318" lon="0.95043">
        <ele>226.53</ele>
        <time>2021-08-18T15:26:56Z</time>
      </trkpt>
      <trkpt lat="43.60351" lon="0.95061">
        <ele>225.09</ele>
        <time>2021-08-18T15:26:59Z</time>
      </trkpt>
      <trkpt lat="43.60407" lon="0.95095">
        <ele>224.12</ele>
        <time>2021-08-18T15:27:05Z</time>
      </trkpt>
      <trkpt lat="43.60419" lon="0.95101">
        <ele>225.57</ele>
        <time>2021-08-18T15:27:07Z</time>
      </trkpt>
      <trkpt lat="43.60422" lon="0.951">
        <ele>225.57</ele>
        <time>2021-08-18T15:27:08Z</time>
      </trkpt>
      <trkpt lat="43.60424" lon="0.95097">
        <ele>225.57</ele>
        <time>2021-08-18T15:27:09Z</time>
      </trkpt>
      <trkpt lat="43.60425" lon="0.95093">
        <ele>226.05</ele>
        <time>2021-08-18T15:27:10Z</time>
      </trkpt>
      <trkpt lat="43.60426" lon="0.95089">
        <ele>226.53</ele>
        <time>2021-08-18T15:27:11Z</time>
      </trkpt>
      <trkpt lat="43.60426" lon="0.95085">
        <ele>226.53</ele>
        <time>2021-08-18T15:27:12Z</time>
      </trkpt>
      <trkpt lat="43.60428" lon="0.9504">
        <ele>227.01</ele>
        <time>2021-08-18T15:27:22Z</time>
      </trkpt>
      <trkpt lat="43.60432" lon="0.94983">
        <ele>227.97</ele>
        <time>2021-08-18T15:27:33Z</time>
      </trkpt>
      <trkpt lat="43.60434" lon="0.94946">
        <ele>228.93</ele>
        <time>2021-08-18T15:27:42Z</time>
      </trkpt>
      <trkpt lat="43.60436" lon="0.94917">
        <ele>230.37</ele>
        <time>2021-08-18T15:27:51Z</time>
      </trkpt>
      <trkpt lat="43.60438" lon="0.94887">
        <ele>232.3</ele>
        <time>2021-08-18T15:28:01Z</time>
      </trkpt>
      <trkpt lat="43.6044" lon="0.9486">
        <ele>233.26</ele>
        <time>2021-08-18T15:28:10Z</time>
      </trkpt>
      <trkpt lat="43.60442" lon="0.94824">
        <ele>233.74</ele>
        <time>2021-08-18T15:28:19Z</time>
      </trkpt>
      <trkpt lat="43.60441" lon="0.94788">
        <ele>234.22</ele>
        <time>2021-08-18T15:28:27Z</time>
      </trkpt>
      <trkpt lat="43.60441" lon="0.94783">
        <ele>234.22</ele>
        <time>2021-08-18T15:28:28Z</time>
      </trkpt>
      <trkpt lat="43.60441" lon="0.94779">
        <ele>234.22</ele>
        <time>2021-08-18T15:28:29Z</time>
      </trkpt>
      <trkpt lat="43.60441" lon="0.94773">
        <ele>234.22</ele>
        <time>2021-08-18T15:28:30Z</time>
      </trkpt>
      <trkpt lat="43.60435" lon="0.94742">
        <ele>234.22</ele>
        <time>2021-08-18T15:28:35Z</time>
      </trkpt>
      <trkpt lat="43.60435" lon="0.94728">
        <ele>234.22</ele>
        <time>2021-08-18T15:28:37Z</time>
      </trkpt>
      <trkpt lat="43.60439" lon="0.94679">
        <ele>230.37</ele>
        <time>2021-08-18T15:28:43Z</time>
      </trkpt>
      <trkpt lat="43.6044" lon="0.9467">
        <ele>230.37</ele>
        <time>2021-08-18T15:28:44Z</time>
      </trkpt>
      <trkpt lat="43.60441" lon="0.94651">
        <ele>228.93</ele>
        <time>2021-08-18T15:28:46Z</time>
      </trkpt>
      <trkpt lat="43.60442" lon="0.9464">
        <ele>228.93</ele>
        <time>2021-08-18T15:28:47Z</time>
      </trkpt>
      <trkpt lat="43.60446" lon="0.94608">
        <ele>226.53</ele>
        <time>2021-08-18T15:28:50Z</time>
      </trkpt>
      <trkpt lat="43.60458" lon="0.9451">
        <ele>223.16</ele>
        <time>2021-08-18T15:28:59Z</time>
      </trkpt>
      <trkpt lat="43.60459" lon="0.945">
        <ele>223.16</ele>
        <time>2021-08-18T15:29:00Z</time>
      </trkpt>
      <trkpt lat="43.60465" lon="0.94406">
        <ele>220.76</ele>
        <time>2021-08-18T15:29:09Z</time>
      </trkpt>
      <trkpt lat="43.60462" lon="0.9436">
        <ele>217.88</ele>
        <time>2021-08-18T15:29:13Z</time>
      </trkpt>
      <trkpt lat="43.60461" lon="0.94333">
        <ele>214.03</ele>
        <time>2021-08-18T15:29:15Z</time>
      </trkpt>
      <trkpt lat="43.60461" lon="0.94321">
        <ele>214.03</ele>
        <time>2021-08-18T15:29:16Z</time>
      </trkpt>
      <trkpt lat="43.60464" lon="0.94242">
        <ele>212.11</ele>
        <time>2021-08-18T15:29:22Z</time>
      </trkpt>
      <trkpt lat="43.60466" lon="0.94229">
        <ele>212.11</ele>
        <time>2021-08-18T15:29:23Z</time>
      </trkpt>
      <trkpt lat="43.60483" lon="0.94157">
        <ele>211.63</ele>
        <time>2021-08-18T15:29:30Z</time>
      </trkpt>
      <trkpt lat="43.60497" lon="0.94096">
        <ele>211.15</ele>
        <time>2021-08-18T15:29:37Z</time>
      </trkpt>
      <trkpt lat="43.60498" lon="0.94073">
        <ele>210.67</ele>
        <time>2021-08-18T15:29:40Z</time>
      </trkpt>
      <trkpt lat="43.60494" lon="0.94016">
        <ele>210.67</ele>
        <time>2021-08-18T15:29:48Z</time>
      </trkpt>
      <trkpt lat="43.60495" lon="0.9401">
        <ele>210.67</ele>
        <time>2021-08-18T15:29:49Z</time>
      </trkpt>
      <trkpt lat="43.60495" lon="0.94004">
        <ele>210.19</ele>
        <time>2021-08-18T15:29:50Z</time>
      </trkpt>
      <trkpt lat="43.60501" lon="0.93955">
        <ele>209.7</ele>
        <time>2021-08-18T15:29:58Z</time>
      </trkpt>
      <trkpt lat="43.60501" lon="0.93948">
        <ele>209.7</ele>
        <time>2021-08-18T15:29:59Z</time>
      </trkpt>
      <trkpt lat="43.60502" lon="0.93942">
        <ele>209.7</ele>
        <time>2021-08-18T15:30:00Z</time>
      </trkpt>
      <trkpt lat="43.60501" lon="0.93912">
        <ele>209.7</ele>
        <time>2021-08-18T15:30:06Z</time>
      </trkpt>
      <trkpt lat="43.60497" lon="0.9389">
        <ele>209.7</ele>
        <time>2021-08-18T15:30:13Z</time>
      </trkpt>
      <trkpt lat="43.60495" lon="0.93874">
        <ele>211.15</ele>
        <time>2021-08-18T15:30:18Z</time>
      </trkpt>
      <trkpt lat="43.60492" lon="0.93848">
        <ele>211.63</ele>
        <time>2021-08-18T15:30:25Z</time>
      </trkpt>
      <trkpt lat="43.6049" lon="0.93812">
        <ele>213.07</ele>
        <time>2021-08-18T15:30:34Z</time>
      </trkpt>
      <trkpt lat="43.60489" lon="0.93788">
        <ele>214.51</ele>
        <time>2021-08-18T15:30:42Z</time>
      </trkpt>
      <trkpt lat="43.6049" lon="0.93763">
        <ele>215.47</ele>
        <time>2021-08-18T15:30:51Z</time>
      </trkpt>
      <trkpt lat="43.60491" lon="0.93745">
        <ele>216.91</ele>
        <time>2021-08-18T15:30:59Z</time>
      </trkpt>
      <trkpt lat="43.60492" lon="0.93727">
        <ele>217.88</ele>
        <time>2021-08-18T15:31:07Z</time>
      </trkpt>
      <trkpt lat="43.60492" lon="0.93711">
        <ele>218.36</ele>
        <time>2021-08-18T15:31:14Z</time>
      </trkpt>
      <trkpt lat="43.60494" lon="0.93687">
        <ele>220.76</ele>
        <time>2021-08-18T15:31:25Z</time>
      </trkpt>
      <trkpt lat="43.60496" lon="0.93664">
        <ele>221.72</ele>
        <time>2021-08-18T15:31:35Z</time>
      </trkpt>
      <trkpt lat="43.60499" lon="0.93645">
        <ele>223.16</ele>
        <time>2021-08-18T15:31:44Z</time>
      </trkpt>
      <trkpt lat="43.60502" lon="0.93616">
        <ele>225.57</ele>
        <time>2021-08-18T15:31:56Z</time>
      </trkpt>
      <trkpt lat="43.60506" lon="0.93598">
        <ele>226.05</ele>
        <time>2021-08-18T15:32:04Z</time>
      </trkpt>
      <trkpt lat="43.60513" lon="0.9357">
        <ele>227.49</ele>
        <time>2021-08-18T15:32:14Z</time>
      </trkpt>
      <trkpt lat="43.60524" lon="0.93538">
        <ele>228.45</ele>
        <time>2021-08-18T15:32:24Z</time>
      </trkpt>
      <trkpt lat="43.60535" lon="0.93513">
        <ele>229.41</ele>
        <time>2021-08-18T15:32:31Z</time>
      </trkpt>
      <trkpt lat="43.60551" lon="0.93481">
        <ele>229.41</ele>
        <time>2021-08-18T15:32:38Z</time>
      </trkpt>
      <trkpt lat="43.60569" lon="0.93446">
        <ele>228.45</ele>
        <time>2021-08-18T15:32:45Z</time>
      </trkpt>
      <trkpt lat="43.60572" lon="0.9344">
        <ele>228.45</ele>
        <time>2021-08-18T15:32:46Z</time>
      </trkpt>
      <trkpt lat="43.60593" lon="0.93381">
        <ele>227.97</ele>
        <time>2021-08-18T15:32:56Z</time>
      </trkpt>
      <trkpt lat="43.60612" lon="0.93337">
        <ele>226.05</ele>
        <time>2021-08-18T15:33:02Z</time>
      </trkpt>
      <trkpt lat="43.60641" lon="0.93271">
        <ele>223.64</ele>
        <time>2021-08-18T15:33:10Z</time>
      </trkpt>
      <trkpt lat="43.60656" lon="0.93208">
        <ele>221.72</ele>
        <time>2021-08-18T15:33:17Z</time>
      </trkpt>
      <trkpt lat="43.60665" lon="0.93148">
        <ele>221.72</ele>
        <time>2021-08-18T15:33:24Z</time>
      </trkpt>
      <trkpt lat="43.60675" lon="0.93092">
        <ele>221.72</ele>
        <time>2021-08-18T15:33:32Z</time>
      </trkpt>
      <trkpt lat="43.60689" lon="0.93038">
        <ele>221.24</ele>
        <time>2021-08-18T15:33:40Z</time>
      </trkpt>
      <trkpt lat="43.60699" lon="0.93009">
        <ele>220.28</ele>
        <time>2021-08-18T15:33:45Z</time>
      </trkpt>
      <trkpt lat="43.60708" lon="0.92969">
        <ele>219.8</ele>
        <time>2021-08-18T15:33:51Z</time>
      </trkpt>
      <trkpt lat="43.60716" lon="0.92897">
        <ele>219.32</ele>
        <time>2021-08-18T15:34:00Z</time>
      </trkpt>
      <trkpt lat="43.60723" lon="0.92842">
        <ele>218.36</ele>
        <time>2021-08-18T15:34:07Z</time>
      </trkpt>
      <trkpt lat="43.60731" lon="0.92772">
        <ele>218.36</ele>
        <time>2021-08-18T15:34:16Z</time>
      </trkpt>
      <trkpt lat="43.60743" lon="0.92698">
        <ele>219.32</ele>
        <time>2021-08-18T15:34:26Z</time>
      </trkpt>
      <trkpt lat="43.60747" lon="0.92681">
        <ele>217.88</ele>
        <time>2021-08-18T15:34:28Z</time>
      </trkpt>
      <trkpt lat="43.60763" lon="0.92609">
        <ele>216.91</ele>
        <time>2021-08-18T15:34:36Z</time>
      </trkpt>
      <trkpt lat="43.60782" lon="0.92532">
        <ele>215.47</ele>
        <time>2021-08-18T15:34:44Z</time>
      </trkpt>
      <trkpt lat="43.60788" lon="0.92515">
        <ele>215.47</ele>
        <time>2021-08-18T15:34:46Z</time>
      </trkpt>
      <trkpt lat="43.60821" lon="0.92446">
        <ele>214.51</ele>
        <time>2021-08-18T15:34:54Z</time>
      </trkpt>
      <trkpt lat="43.60852" lon="0.92376">
        <ele>213.55</ele>
        <time>2021-08-18T15:35:02Z</time>
      </trkpt>
      <trkpt lat="43.60891" lon="0.92281">
        <ele>210.67</ele>
        <time>2021-08-18T15:35:12Z</time>
      </trkpt>
      <trkpt lat="43.60915" lon="0.92213">
        <ele>207.78</ele>
        <time>2021-08-18T15:35:19Z</time>
      </trkpt>
      <trkpt lat="43.60933" lon="0.92171">
        <ele>203.94</ele>
        <time>2021-08-18T15:35:23Z</time>
      </trkpt>
      <trkpt lat="43.60948" lon="0.92141">
        <ele>201.05</ele>
        <time>2021-08-18T15:35:26Z</time>
      </trkpt>
      <trkpt lat="43.60959" lon="0.92119">
        <ele>197.21</ele>
        <time>2021-08-18T15:35:28Z</time>
      </trkpt>
      <trkpt lat="43.6097" lon="0.92094">
        <ele>192.88</ele>
        <time>2021-08-18T15:35:30Z</time>
      </trkpt>
      <trkpt lat="43.60986" lon="0.92054">
        <ele>189.52</ele>
        <time>2021-08-18T15:35:33Z</time>
      </trkpt>
      <trkpt lat="43.60991" lon="0.92041">
        <ele>189.04</ele>
        <time>2021-08-18T15:35:34Z</time>
      </trkpt>
      <trkpt lat="43.6101" lon="0.91981">
        <ele>189.04</ele>
        <time>2021-08-18T15:35:39Z</time>
      </trkpt>
      <trkpt lat="43.61012" lon="0.91973">
        <ele>191.44</ele>
        <time>2021-08-18T15:35:40Z</time>
      </trkpt>
      <trkpt lat="43.61013" lon="0.91966">
        <ele>192.4</ele>
        <time>2021-08-18T15:35:41Z</time>
      </trkpt>
      <trkpt lat="43.61015" lon="0.91955">
        <ele>194.32</ele>
        <time>2021-08-18T15:35:45Z</time>
      </trkpt>
      <trkpt lat="43.61015" lon="0.9195">
        <ele>195.77</ele>
        <time>2021-08-18T15:35:52Z</time>
      </trkpt>
      <trkpt lat="43.61015" lon="0.91945">
        <ele>197.21</ele>
        <time>2021-08-18T15:36:01Z</time>
      </trkpt>
      <trkpt lat="43.61015" lon="0.91939">
        <ele>198.65</ele>
        <time>2021-08-18T15:36:09Z</time>
      </trkpt>
      <trkpt lat="43.61016" lon="0.9193">
        <ele>200.09</ele>
        <time>2021-08-18T15:36:18Z</time>
      </trkpt>
      <trkpt lat="43.61017" lon="0.91923">
        <ele>202.01</ele>
        <time>2021-08-18T15:36:27Z</time>
      </trkpt>
      <trkpt lat="43.61017" lon="0.91918">
        <ele>202.49</ele>
        <time>2021-08-18T15:36:34Z</time>
      </trkpt>
      <trkpt lat="43.61018" lon="0.91909">
        <ele>204.42</ele>
        <time>2021-08-18T15:36:43Z</time>
      </trkpt>
      <trkpt lat="43.61019" lon="0.919">
        <ele>206.34</ele>
        <time>2021-08-18T15:36:53Z</time>
      </trkpt>
      <trkpt lat="43.6102" lon="0.91889">
        <ele>207.78</ele>
        <time>2021-08-18T15:37:02Z</time>
      </trkpt>
      <trkpt lat="43.61021" lon="0.91879">
        <ele>209.22</ele>
        <time>2021-08-18T15:37:09Z</time>
      </trkpt>
      <trkpt lat="43.61022" lon="0.91864">
        <ele>209.7</ele>
        <time>2021-08-18T15:37:18Z</time>
      </trkpt>
      <trkpt lat="43.61025" lon="0.91853">
        <ele>211.15</ele>
        <time>2021-08-18T15:37:27Z</time>
      </trkpt>
      <trkpt lat="43.61029" lon="0.91841">
        <ele>211.15</ele>
        <time>2021-08-18T15:37:34Z</time>
      </trkpt>
      <trkpt lat="43.61031" lon="0.91825">
        <ele>212.11</ele>
        <time>2021-08-18T15:37:43Z</time>
      </trkpt>
      <trkpt lat="43.61032" lon="0.91821">
        <ele>212.59</ele>
        <time>2021-08-18T15:37:50Z</time>
      </trkpt>
      <trkpt lat="43.61034" lon="0.91813">
        <ele>213.07</ele>
        <time>2021-08-18T15:37:55Z</time>
      </trkpt>
      <trkpt lat="43.61037" lon="0.918">
        <ele>213.55</ele>
        <time>2021-08-18T15:38:01Z</time>
      </trkpt>
      <trkpt lat="43.61044" lon="0.91776">
        <ele>214.03</ele>
        <time>2021-08-18T15:38:08Z</time>
      </trkpt>
      <trkpt lat="43.61054" lon="0.91734">
        <ele>214.51</ele>
        <time>2021-08-18T15:38:17Z</time>
      </trkpt>
      <trkpt lat="43.61062" lon="0.917">
        <ele>214.51</ele>
        <time>2021-08-18T15:38:23Z</time>
      </trkpt>
      <trkpt lat="43.61063" lon="0.91694">
        <ele>214.51</ele>
        <time>2021-08-18T15:38:24Z</time>
      </trkpt>
      <trkpt lat="43.61068" lon="0.91676">
        <ele>214.51</ele>
        <time>2021-08-18T15:38:27Z</time>
      </trkpt>
      <trkpt lat="43.61075" lon="0.91625">
        <ele>214.51</ele>
        <time>2021-08-18T15:38:35Z</time>
      </trkpt>
      <trkpt lat="43.61078" lon="0.91583">
        <ele>215.47</ele>
        <time>2021-08-18T15:38:43Z</time>
      </trkpt>
      <trkpt lat="43.6108" lon="0.91546">
        <ele>215.95</ele>
        <time>2021-08-18T15:38:50Z</time>
      </trkpt>
      <trkpt lat="43.6108" lon="0.91498">
        <ele>216.91</ele>
        <time>2021-08-18T15:38:59Z</time>
      </trkpt>
      <trkpt lat="43.61079" lon="0.9146">
        <ele>215.47</ele>
        <time>2021-08-18T15:39:05Z</time>
      </trkpt>
      <trkpt lat="43.61078" lon="0.91452">
        <ele>215.47</ele>
        <time>2021-08-18T15:39:06Z</time>
      </trkpt>
      <trkpt lat="43.61076" lon="0.91415">
        <ele>214.51</ele>
        <time>2021-08-18T15:39:11Z</time>
      </trkpt>
      <trkpt lat="43.61077" lon="0.91409">
        <ele>214.51</ele>
        <time>2021-08-18T15:39:12Z</time>
      </trkpt>
      <trkpt lat="43.61078" lon="0.91372">
        <ele>214.51</ele>
        <time>2021-08-18T15:39:18Z</time>
      </trkpt>
      <trkpt lat="43.61079" lon="0.91365">
        <ele>214.51</ele>
        <time>2021-08-18T15:39:19Z</time>
      </trkpt>
      <trkpt lat="43.61081" lon="0.91359">
        <ele>214.51</ele>
        <time>2021-08-18T15:39:20Z</time>
      </trkpt>
      <trkpt lat="43.61082" lon="0.91353">
        <ele>213.55</ele>
        <time>2021-08-18T15:39:21Z</time>
      </trkpt>
      <trkpt lat="43.61083" lon="0.91347">
        <ele>213.55</ele>
        <time>2021-08-18T15:39:22Z</time>
      </trkpt>
      <trkpt lat="43.61084" lon="0.91341">
        <ele>213.55</ele>
        <time>2021-08-18T15:39:23Z</time>
      </trkpt>
      <trkpt lat="43.61088" lon="0.91318">
        <ele>213.07</ele>
        <time>2021-08-18T15:39:27Z</time>
      </trkpt>
      <trkpt lat="43.61095" lon="0.91277">
        <ele>211.63</ele>
        <time>2021-08-18T15:39:33Z</time>
      </trkpt>
      <trkpt lat="43.61096" lon="0.9127">
        <ele>211.63</ele>
        <time>2021-08-18T15:39:34Z</time>
      </trkpt>
      <trkpt lat="43.61098" lon="0.91262">
        <ele>210.67</ele>
        <time>2021-08-18T15:39:35Z</time>
      </trkpt>
      <trkpt lat="43.61099" lon="0.91255">
        <ele>210.67</ele>
        <time>2021-08-18T15:39:36Z</time>
      </trkpt>
      <trkpt lat="43.611" lon="0.91247">
        <ele>210.67</ele>
        <time>2021-08-18T15:39:37Z</time>
      </trkpt>
      <trkpt lat="43.611" lon="0.9124">
        <ele>210.67</ele>
        <time>2021-08-18T15:39:38Z</time>
      </trkpt>
      <trkpt lat="43.61101" lon="0.91232">
        <ele>210.19</ele>
        <time>2021-08-18T15:39:39Z</time>
      </trkpt>
      <trkpt lat="43.61103" lon="0.91226">
        <ele>210.19</ele>
        <time>2021-08-18T15:39:40Z</time>
      </trkpt>
      <trkpt lat="43.61105" lon="0.91219">
        <ele>210.19</ele>
        <time>2021-08-18T15:39:41Z</time>
      </trkpt>
      <trkpt lat="43.61117" lon="0.91167">
        <ele>209.7</ele>
        <time>2021-08-18T15:39:49Z</time>
      </trkpt>
      <trkpt lat="43.61123" lon="0.91147">
        <ele>209.7</ele>
        <time>2021-08-18T15:39:52Z</time>
      </trkpt>
      <trkpt lat="43.6113" lon="0.91126">
        <ele>211.15</ele>
        <time>2021-08-18T15:39:55Z</time>
      </trkpt>
      <trkpt lat="43.61141" lon="0.91092">
        <ele>212.59</ele>
        <time>2021-08-18T15:40:02Z</time>
      </trkpt>
      <trkpt lat="43.61144" lon="0.91083">
        <ele>214.03</ele>
        <time>2021-08-18T15:40:05Z</time>
      </trkpt>
      <trkpt lat="43.61143" lon="0.91081">
        <ele>213.55</ele>
        <time>2021-08-18T15:40:06Z</time>
      </trkpt>
      <trkpt lat="43.61142" lon="0.9108">
        <ele>214.03</ele>
        <time>2021-08-18T15:40:07Z</time>
      </trkpt>
      <trkpt lat="43.61139" lon="0.9108">
        <ele>214.03</ele>
        <time>2021-08-18T15:40:08Z</time>
      </trkpt>
      <trkpt lat="43.61137" lon="0.91081">
        <ele>214.03</ele>
        <time>2021-08-18T15:40:09Z</time>
      </trkpt>
      <trkpt lat="43.61134" lon="0.91082">
        <ele>214.03</ele>
        <time>2021-08-18T15:40:10Z</time>
      </trkpt>
      <trkpt lat="43.61132" lon="0.91084">
        <ele>214.03</ele>
        <time>2021-08-18T15:40:11Z</time>
      </trkpt>
      <trkpt lat="43.61129" lon="0.91087">
        <ele>214.03</ele>
        <time>2021-08-18T15:40:12Z</time>
      </trkpt>
      <trkpt lat="43.61102" lon="0.91105">
        <ele>214.99</ele>
        <time>2021-08-18T15:40:21Z</time>
      </trkpt>
      <trkpt lat="43.61066" lon="0.91126">
        <ele>215.95</ele>
        <time>2021-08-18T15:40:32Z</time>
      </trkpt>
      <trkpt lat="43.61039" lon="0.91141">
        <ele>217.4</ele>
        <time>2021-08-18T15:40:40Z</time>
      </trkpt>
      <trkpt lat="43.61011" lon="0.91158">
        <ele>218.36</ele>
        <time>2021-08-18T15:40:49Z</time>
      </trkpt>
      <trkpt lat="43.60988" lon="0.91172">
        <ele>219.8</ele>
        <time>2021-08-18T15:40:57Z</time>
      </trkpt>
      <trkpt lat="43.60964" lon="0.91181">
        <ele>220.76</ele>
        <time>2021-08-18T15:41:05Z</time>
      </trkpt>
      <trkpt lat="43.60959" lon="0.91176">
        <ele>220.76</ele>
        <time>2021-08-18T15:41:07Z</time>
      </trkpt>
      <trkpt lat="43.60958" lon="0.91172">
        <ele>220.76</ele>
        <time>2021-08-18T15:41:08Z</time>
      </trkpt>
      <trkpt lat="43.60956" lon="0.91167">
        <ele>220.76</ele>
        <time>2021-08-18T15:41:09Z</time>
      </trkpt>
      <trkpt lat="43.60954" lon="0.91155">
        <ele>220.76</ele>
        <time>2021-08-18T15:41:11Z</time>
      </trkpt>
      <trkpt lat="43.60953" lon="0.91128">
        <ele>220.76</ele>
        <time>2021-08-18T15:41:15Z</time>
      </trkpt>
      <trkpt lat="43.60953" lon="0.91112">
        <ele>219.32</ele>
        <time>2021-08-18T15:41:17Z</time>
      </trkpt>
      <trkpt lat="43.60955" lon="0.91045">
        <ele>217.4</ele>
        <time>2021-08-18T15:41:25Z</time>
      </trkpt>
      <trkpt lat="43.60959" lon="0.90967">
        <ele>215.47</ele>
        <time>2021-08-18T15:41:34Z</time>
      </trkpt>
      <trkpt lat="43.60959" lon="0.90899">
        <ele>216.43</ele>
        <time>2021-08-18T15:41:42Z</time>
      </trkpt>
      <trkpt lat="43.60959" lon="0.90892">
        <ele>216.43</ele>
        <time>2021-08-18T15:41:43Z</time>
      </trkpt>
      <trkpt lat="43.60965" lon="0.90816">
        <ele>216.43</ele>
        <time>2021-08-18T15:41:53Z</time>
      </trkpt>
      <trkpt lat="43.60972" lon="0.90777">
        <ele>215.47</ele>
        <time>2021-08-18T15:41:58Z</time>
      </trkpt>
      <trkpt lat="43.60986" lon="0.9071">
        <ele>215.47</ele>
        <time>2021-08-18T15:42:06Z</time>
      </trkpt>
      <trkpt lat="43.61005" lon="0.90611">
        <ele>213.55</ele>
        <time>2021-08-18T15:42:16Z</time>
      </trkpt>
      <trkpt lat="43.61014" lon="0.90563">
        <ele>214.99</ele>
        <time>2021-08-18T15:42:22Z</time>
      </trkpt>
      <trkpt lat="43.61015" lon="0.90557">
        <ele>214.99</ele>
        <time>2021-08-18T15:42:23Z</time>
      </trkpt>
      <trkpt lat="43.61017" lon="0.90545">
        <ele>215.47</ele>
        <time>2021-08-18T15:42:25Z</time>
      </trkpt>
      <trkpt lat="43.61018" lon="0.90539">
        <ele>215.47</ele>
        <time>2021-08-18T15:42:26Z</time>
      </trkpt>
      <trkpt lat="43.61023" lon="0.90503">
        <ele>214.03</ele>
        <time>2021-08-18T15:42:31Z</time>
      </trkpt>
      <trkpt lat="43.61028" lon="0.90436">
        <ele>211.15</ele>
        <time>2021-08-18T15:42:38Z</time>
      </trkpt>
      <trkpt lat="43.61033" lon="0.90394">
        <ele>212.59</ele>
        <time>2021-08-18T15:42:43Z</time>
      </trkpt>
      <trkpt lat="43.61041" lon="0.90337">
        <ele>212.11</ele>
        <time>2021-08-18T15:42:51Z</time>
      </trkpt>
      <trkpt lat="43.61041" lon="0.90322">
        <ele>212.11</ele>
        <time>2021-08-18T15:42:53Z</time>
      </trkpt>
      <trkpt lat="43.61043" lon="0.90309">
        <ele>211.63</ele>
        <time>2021-08-18T15:42:55Z</time>
      </trkpt>
      <trkpt lat="43.61043" lon="0.90277">
        <ele>210.67</ele>
        <time>2021-08-18T15:43:00Z</time>
      </trkpt>
      <trkpt lat="43.61044" lon="0.9027">
        <ele>210.67</ele>
        <time>2021-08-18T15:43:01Z</time>
      </trkpt>
      <trkpt lat="43.61044" lon="0.90213">
        <ele>209.22</ele>
        <time>2021-08-18T15:43:09Z</time>
      </trkpt>
      <trkpt lat="43.61039" lon="0.90145">
        <ele>206.34</ele>
        <time>2021-08-18T15:43:16Z</time>
      </trkpt>
      <trkpt lat="43.61037" lon="0.90116">
        <ele>205.86</ele>
        <time>2021-08-18T15:43:19Z</time>
      </trkpt>
      <trkpt lat="43.61037" lon="0.90107">
        <ele>205.38</ele>
        <time>2021-08-18T15:43:20Z</time>
      </trkpt>
      <trkpt lat="43.61031" lon="0.90065">
        <ele>205.38</ele>
        <time>2021-08-18T15:43:26Z</time>
      </trkpt>
      <trkpt lat="43.61028" lon="0.90054">
        <ele>206.82</ele>
        <time>2021-08-18T15:43:28Z</time>
      </trkpt>
      <trkpt lat="43.61026" lon="0.90048">
        <ele>206.82</ele>
        <time>2021-08-18T15:43:29Z</time>
      </trkpt>
      <trkpt lat="43.61011" lon="0.90013">
        <ele>202.98</ele>
        <time>2021-08-18T15:43:34Z</time>
      </trkpt>
      <trkpt lat="43.61002" lon="0.89979">
        <ele>199.13</ele>
        <time>2021-08-18T15:43:38Z</time>
      </trkpt>
      <trkpt lat="43.60993" lon="0.89941">
        <ele>195.77</ele>
        <time>2021-08-18T15:43:42Z</time>
      </trkpt>
      <trkpt lat="43.60986" lon="0.89904">
        <ele>192.4</ele>
        <time>2021-08-18T15:43:46Z</time>
      </trkpt>
      <trkpt lat="43.60978" lon="0.8987">
        <ele>188.56</ele>
        <time>2021-08-18T15:43:50Z</time>
      </trkpt>
      <trkpt lat="43.60969" lon="0.89841">
        <ele>184.71</ele>
        <time>2021-08-18T15:43:53Z</time>
      </trkpt>
      <trkpt lat="43.60961" lon="0.89821">
        <ele>180.87</ele>
        <time>2021-08-18T15:43:55Z</time>
      </trkpt>
      <trkpt lat="43.60946" lon="0.89789">
        <ele>176.06</ele>
        <time>2021-08-18T15:43:58Z</time>
      </trkpt>
      <trkpt lat="43.60935" lon="0.89766">
        <ele>172.69</ele>
        <time>2021-08-18T15:44:00Z</time>
      </trkpt>
      <trkpt lat="43.60919" lon="0.89733">
        <ele>170.29</ele>
        <time>2021-08-18T15:44:03Z</time>
      </trkpt>
      <trkpt lat="43.60901" lon="0.89678">
        <ele>168.37</ele>
        <time>2021-08-18T15:44:08Z</time>
      </trkpt>
      <trkpt lat="43.60887" lon="0.89612">
        <ele>169.33</ele>
        <time>2021-08-18T15:44:15Z</time>
      </trkpt>
      <trkpt lat="43.60884" lon="0.89604">
        <ele>169.33</ele>
        <time>2021-08-18T15:44:16Z</time>
      </trkpt>
      <trkpt lat="43.60881" lon="0.89597">
        <ele>169.33</ele>
        <time>2021-08-18T15:44:17Z</time>
      </trkpt>
      <trkpt lat="43.60877" lon="0.89591">
        <ele>169.33</ele>
        <time>2021-08-18T15:44:18Z</time>
      </trkpt>
      <trkpt lat="43.60873" lon="0.89587">
        <ele>169.33</ele>
        <time>2021-08-18T15:44:19Z</time>
      </trkpt>
      <trkpt lat="43.60868" lon="0.89584">
        <ele>169.33</ele>
        <time>2021-08-18T15:44:20Z</time>
      </trkpt>
      <trkpt lat="43.60863" lon="0.89582">
        <ele>169.33</ele>
        <time>2021-08-18T15:44:21Z</time>
      </trkpt>
      <trkpt lat="43.60859" lon="0.89578">
        <ele>169.33</ele>
        <time>2021-08-18T15:44:22Z</time>
      </trkpt>
      <trkpt lat="43.60855" lon="0.89575">
        <ele>169.33</ele>
        <time>2021-08-18T15:44:23Z</time>
      </trkpt>
      <trkpt lat="43.6085" lon="0.89572">
        <ele>169.33</ele>
        <time>2021-08-18T15:44:24Z</time>
      </trkpt>
      <trkpt lat="43.60847" lon="0.8957">
        <ele>169.33</ele>
        <time>2021-08-18T15:44:25Z</time>
      </trkpt>
      <trkpt lat="43.60842" lon="0.89569">
        <ele>169.33</ele>
        <time>2021-08-18T15:44:26Z</time>
      </trkpt>
      <trkpt lat="43.60838" lon="0.89567">
        <ele>169.33</ele>
        <time>2021-08-18T15:44:27Z</time>
      </trkpt>
      <trkpt lat="43.60803" lon="0.89553">
        <ele>168.85</ele>
        <time>2021-08-18T15:44:35Z</time>
      </trkpt>
      <trkpt lat="43.60798" lon="0.89551">
        <ele>169.33</ele>
        <time>2021-08-18T15:44:36Z</time>
      </trkpt>
      <trkpt lat="43.60788" lon="0.89547">
        <ele>169.33</ele>
        <time>2021-08-18T15:44:38Z</time>
      </trkpt>
      <trkpt lat="43.60774" lon="0.89544">
        <ele>169.33</ele>
        <time>2021-08-18T15:44:41Z</time>
      </trkpt>
      <trkpt lat="43.60755" lon="0.89545">
        <ele>169.33</ele>
        <time>2021-08-18T15:44:45Z</time>
      </trkpt>
      <trkpt lat="43.6075" lon="0.89545">
        <ele>169.33</ele>
        <time>2021-08-18T15:44:46Z</time>
      </trkpt>
      <trkpt lat="43.60726" lon="0.89547">
        <ele>168.85</ele>
        <time>2021-08-18T15:44:51Z</time>
      </trkpt>
      <trkpt lat="43.60686" lon="0.89543">
        <ele>168.85</ele>
        <time>2021-08-18T15:44:59Z</time>
      </trkpt>
      <trkpt lat="43.60681" lon="0.89542">
        <ele>168.85</ele>
        <time>2021-08-18T15:45:00Z</time>
      </trkpt>
      <trkpt lat="43.60677" lon="0.8954">
        <ele>168.85</ele>
        <time>2021-08-18T15:45:01Z</time>
      </trkpt>
      <trkpt lat="43.60674" lon="0.89537">
        <ele>168.85</ele>
        <time>2021-08-18T15:45:02Z</time>
      </trkpt>
      <trkpt lat="43.60672" lon="0.89534">
        <ele>168.37</ele>
        <time>2021-08-18T15:45:03Z</time>
      </trkpt>
      <trkpt lat="43.60673" lon="0.89529">
        <ele>167.89</ele>
        <time>2021-08-18T15:45:04Z</time>
      </trkpt>
      <trkpt lat="43.60675" lon="0.89525">
        <ele>167.89</ele>
        <time>2021-08-18T15:45:05Z</time>
      </trkpt>
      <trkpt lat="43.60677" lon="0.89521">
        <ele>167.89</ele>
        <time>2021-08-18T15:45:06Z</time>
      </trkpt>
      <trkpt lat="43.6068" lon="0.89517">
        <ele>167.89</ele>
        <time>2021-08-18T15:45:07Z</time>
      </trkpt>
      <trkpt lat="43.60683" lon="0.89513">
        <ele>167.89</ele>
        <time>2021-08-18T15:45:08Z</time>
      </trkpt>
      <trkpt lat="43.60693" lon="0.89501">
        <ele>167.89</ele>
        <time>2021-08-18T15:45:11Z</time>
      </trkpt>
      <trkpt lat="43.60714" lon="0.89469">
        <ele>167.89</ele>
        <time>2021-08-18T15:45:19Z</time>
      </trkpt>
      <trkpt lat="43.60723" lon="0.89454">
        <ele>167.89</ele>
        <time>2021-08-18T15:45:23Z</time>
      </trkpt>
      <trkpt lat="43.6074" lon="0.89411">
        <ele>167.41</ele>
        <time>2021-08-18T15:45:30Z</time>
      </trkpt>
      <trkpt lat="43.60766" lon="0.89351">
        <ele>166.45</ele>
        <time>2021-08-18T15:45:39Z</time>
      </trkpt>
      <trkpt lat="43.60795" lon="0.89305">
        <ele>166.45</ele>
        <time>2021-08-18T15:45:47Z</time>
      </trkpt>
      <trkpt lat="43.60815" lon="0.89281">
        <ele>167.89</ele>
        <time>2021-08-18T15:45:52Z</time>
      </trkpt>
      <trkpt lat="43.60853" lon="0.89237">
        <ele>167.89</ele>
        <time>2021-08-18T15:46:02Z</time>
      </trkpt>
      <trkpt lat="43.60864" lon="0.89223">
        <ele>168.85</ele>
        <time>2021-08-18T15:46:06Z</time>
      </trkpt>
      <trkpt lat="43.60884" lon="0.89199">
        <ele>170.77</ele>
        <time>2021-08-18T15:46:14Z</time>
      </trkpt>
      <trkpt lat="43.60907" lon="0.89174">
        <ele>171.25</ele>
        <time>2021-08-18T15:46:23Z</time>
      </trkpt>
      <trkpt lat="43.60932" lon="0.8915">
        <ele>172.69</ele>
        <time>2021-08-18T15:46:31Z</time>
      </trkpt>
      <trkpt lat="43.6096" lon="0.89123">
        <ele>173.17</ele>
        <time>2021-08-18T15:46:40Z</time>
      </trkpt>
      <trkpt lat="43.6099" lon="0.89084">
        <ele>172.69</ele>
        <time>2021-08-18T15:46:49Z</time>
      </trkpt>
      <trkpt lat="43.61023" lon="0.89039">
        <ele>171.73</ele>
        <time>2021-08-18T15:46:58Z</time>
      </trkpt>
      <trkpt lat="43.61027" lon="0.89034">
        <ele>171.25</ele>
        <time>2021-08-18T15:46:59Z</time>
      </trkpt>
      <trkpt lat="43.61061" lon="0.88992">
        <ele>171.25</ele>
        <time>2021-08-18T15:47:08Z</time>
      </trkpt>
      <trkpt lat="43.61076" lon="0.88975">
        <ele>171.25</ele>
        <time>2021-08-18T15:47:12Z</time>
      </trkpt>
      <trkpt lat="43.61083" lon="0.88967">
        <ele>171.25</ele>
        <time>2021-08-18T15:47:14Z</time>
      </trkpt>
      <trkpt lat="43.61097" lon="0.88949">
        <ele>171.25</ele>
        <time>2021-08-18T15:47:18Z</time>
      </trkpt>
      <trkpt lat="43.61101" lon="0.88945">
        <ele>171.25</ele>
        <time>2021-08-18T15:47:19Z</time>
      </trkpt>
      <trkpt lat="43.61144" lon="0.88902">
        <ele>172.21</ele>
        <time>2021-08-18T15:47:30Z</time>
      </trkpt>
      <trkpt lat="43.61186" lon="0.88865">
        <ele>173.17</ele>
        <time>2021-08-18T15:47:41Z</time>
      </trkpt>
      <trkpt lat="43.61228" lon="0.88834">
        <ele>174.14</ele>
        <time>2021-08-18T15:47:52Z</time>
      </trkpt>
      <trkpt lat="43.61267" lon="0.88809">
        <ele>174.62</ele>
        <time>2021-08-18T15:48:02Z</time>
      </trkpt>
      <trkpt lat="43.61288" lon="0.88791">
        <ele>175.1</ele>
        <time>2021-08-18T15:48:08Z</time>
      </trkpt>
      <trkpt lat="43.61292" lon="0.88788">
        <ele>175.1</ele>
        <time>2021-08-18T15:48:09Z</time>
      </trkpt>
      <trkpt lat="43.61295" lon="0.88785">
        <ele>176.06</ele>
        <time>2021-08-18T15:48:10Z</time>
      </trkpt>
      <trkpt lat="43.61309" lon="0.88773">
        <ele>176.54</ele>
        <time>2021-08-18T15:48:14Z</time>
      </trkpt>
      <trkpt lat="43.61312" lon="0.88771">
        <ele>176.54</ele>
        <time>2021-08-18T15:48:15Z</time>
      </trkpt>
      <trkpt lat="43.61335" lon="0.88746">
        <ele>177.98</ele>
        <time>2021-08-18T15:48:24Z</time>
      </trkpt>
      <trkpt lat="43.61355" lon="0.88726">
        <ele>178.94</ele>
        <time>2021-08-18T15:48:32Z</time>
      </trkpt>
      <trkpt lat="43.61385" lon="0.88697">
        <ele>179.9</ele>
        <time>2021-08-18T15:48:42Z</time>
      </trkpt>
      <trkpt lat="43.61417" lon="0.88675">
        <ele>180.87</ele>
        <time>2021-08-18T15:48:52Z</time>
      </trkpt>
      <trkpt lat="43.61447" lon="0.88654">
        <ele>182.79</ele>
        <time>2021-08-18T15:49:03Z</time>
      </trkpt>
      <trkpt lat="43.61474" lon="0.88635">
        <ele>183.75</ele>
        <time>2021-08-18T15:49:13Z</time>
      </trkpt>
      <trkpt lat="43.61497" lon="0.8862">
        <ele>184.71</ele>
        <time>2021-08-18T15:49:21Z</time>
      </trkpt>
      <trkpt lat="43.61523" lon="0.88601">
        <ele>186.15</ele>
        <time>2021-08-18T15:49:30Z</time>
      </trkpt>
      <trkpt lat="43.6155" lon="0.88582">
        <ele>187.11</ele>
        <time>2021-08-18T15:49:39Z</time>
      </trkpt>
      <trkpt lat="43.61576" lon="0.88562">
        <ele>188.08</ele>
        <time>2021-08-18T15:49:48Z</time>
      </trkpt>
      <trkpt lat="43.61598" lon="0.88547">
        <ele>189.04</ele>
        <time>2021-08-18T15:49:55Z</time>
      </trkpt>
      <trkpt lat="43.61629" lon="0.88524">
        <ele>190.48</ele>
        <time>2021-08-18T15:50:06Z</time>
      </trkpt>
      <trkpt lat="43.61652" lon="0.88506">
        <ele>190.96</ele>
        <time>2021-08-18T15:50:14Z</time>
      </trkpt>
      <trkpt lat="43.61684" lon="0.88482">
        <ele>191.92</ele>
        <time>2021-08-18T15:50:24Z</time>
      </trkpt>
      <trkpt lat="43.61725" lon="0.88451">
        <ele>193.36</ele>
        <time>2021-08-18T15:50:37Z</time>
      </trkpt>
      <trkpt lat="43.61763" lon="0.88429">
        <ele>193.36</ele>
        <time>2021-08-18T15:50:48Z</time>
      </trkpt>
      <trkpt lat="43.61786" lon="0.88415">
        <ele>193.84</ele>
        <time>2021-08-18T15:50:55Z</time>
      </trkpt>
      <trkpt lat="43.61818" lon="0.88397">
        <ele>194.32</ele>
        <time>2021-08-18T15:51:05Z</time>
      </trkpt>
      <trkpt lat="43.61846" lon="0.88381">
        <ele>196.25</ele>
        <time>2021-08-18T15:51:13Z</time>
      </trkpt>
      <trkpt lat="43.61869" lon="0.88368">
        <ele>196.73</ele>
        <time>2021-08-18T15:51:20Z</time>
      </trkpt>
      <trkpt lat="43.61898" lon="0.8835">
        <ele>198.17</ele>
        <time>2021-08-18T15:51:30Z</time>
      </trkpt>
      <trkpt lat="43.61912" lon="0.88344">
        <ele>200.09</ele>
        <time>2021-08-18T15:51:38Z</time>
      </trkpt>
      <trkpt lat="43.61913" lon="0.88344">
        <ele>200.09</ele>
        <time>2021-08-18T15:51:52Z</time>
      </trkpt>
      <trkpt lat="43.61914" lon="0.88345">
        <ele>200.09</ele>
        <time>2021-08-18T15:52:13Z</time>
      </trkpt>
      <trkpt lat="43.61916" lon="0.88346">
        <ele>200.09</ele>
        <time>2021-08-18T15:52:22Z</time>
      </trkpt>
      <trkpt lat="43.61916" lon="0.88344">
        <ele>200.09</ele>
        <time>2021-08-18T15:52:39Z</time>
      </trkpt>
      <trkpt lat="43.61916" lon="0.88343">
        <ele>200.09</ele>
        <time>2021-08-18T15:52:40Z</time>
      </trkpt>
      <trkpt lat="43.61917" lon="0.88342">
        <ele>200.09</ele>
        <time>2021-08-18T15:52:41Z</time>
      </trkpt>
      <trkpt lat="43.61918" lon="0.8834">
        <ele>200.09</ele>
        <time>2021-08-18T15:52:42Z</time>
      </trkpt>
      <trkpt lat="43.61919" lon="0.88339">
        <ele>200.09</ele>
        <time>2021-08-18T15:52:43Z</time>
      </trkpt>
      <trkpt lat="43.6192" lon="0.88337">
        <ele>200.09</ele>
        <time>2021-08-18T15:52:44Z</time>
      </trkpt>
      <trkpt lat="43.61922" lon="0.88336">
        <ele>200.09</ele>
        <time>2021-08-18T15:52:45Z</time>
      </trkpt>
      <trkpt lat="43.61939" lon="0.88324">
        <ele>201.53</ele>
        <time>2021-08-18T15:52:51Z</time>
      </trkpt>
      <trkpt lat="43.61964" lon="0.88303">
        <ele>202.49</ele>
        <time>2021-08-18T15:52:59Z</time>
      </trkpt>
      <trkpt lat="43.61994" lon="0.8827">
        <ele>203.46</ele>
        <time>2021-08-18T15:53:09Z</time>
      </trkpt>
      <trkpt lat="43.62013" lon="0.88253">
        <ele>203.46</ele>
        <time>2021-08-18T15:53:14Z</time>
      </trkpt>
      <trkpt lat="43.62021" lon="0.88247">
        <ele>203.46</ele>
        <time>2021-08-18T15:53:16Z</time>
      </trkpt>
      <trkpt lat="43.62026" lon="0.88243">
        <ele>203.46</ele>
        <time>2021-08-18T15:53:17Z</time>
      </trkpt>
      <trkpt lat="43.6203" lon="0.8824">
        <ele>203.46</ele>
        <time>2021-08-18T15:53:18Z</time>
      </trkpt>
      <trkpt lat="43.62034" lon="0.88237">
        <ele>203.46</ele>
        <time>2021-08-18T15:53:19Z</time>
      </trkpt>
      <trkpt lat="43.62038" lon="0.88234">
        <ele>203.46</ele>
        <time>2021-08-18T15:53:20Z</time>
      </trkpt>
      <trkpt lat="43.62083" lon="0.88201">
        <ele>202.01</ele>
        <time>2021-08-18T15:53:29Z</time>
      </trkpt>
      <trkpt lat="43.62128" lon="0.88159">
        <ele>202.01</ele>
        <time>2021-08-18T15:53:39Z</time>
      </trkpt>
      <trkpt lat="43.6215" lon="0.88139">
        <ele>203.46</ele>
        <time>2021-08-18T15:53:44Z</time>
      </trkpt>
      <trkpt lat="43.62155" lon="0.88135">
        <ele>203.46</ele>
        <time>2021-08-18T15:53:45Z</time>
      </trkpt>
      <trkpt lat="43.62175" lon="0.88124">
        <ele>203.46</ele>
        <time>2021-08-18T15:53:49Z</time>
      </trkpt>
      <trkpt lat="43.6222" lon="0.88108">
        <ele>203.46</ele>
        <time>2021-08-18T15:53:57Z</time>
      </trkpt>
      <trkpt lat="43.62226" lon="0.88108">
        <ele>203.46</ele>
        <time>2021-08-18T15:53:58Z</time>
      </trkpt>
      <trkpt lat="43.62231" lon="0.88108">
        <ele>203.46</ele>
        <time>2021-08-18T15:53:59Z</time>
      </trkpt>
      <trkpt lat="43.62266" lon="0.88113">
        <ele>202.01</ele>
        <time>2021-08-18T15:54:05Z</time>
      </trkpt>
      <trkpt lat="43.62277" lon="0.88114">
        <ele>202.01</ele>
        <time>2021-08-18T15:54:07Z</time>
      </trkpt>
      <trkpt lat="43.62282" lon="0.8811">
        <ele>202.01</ele>
        <time>2021-08-18T15:54:08Z</time>
      </trkpt>
      <trkpt lat="43.62287" lon="0.88104">
        <ele>202.01</ele>
        <time>2021-08-18T15:54:09Z</time>
      </trkpt>
      <trkpt lat="43.62311" lon="0.88046">
        <ele>200.57</ele>
        <time>2021-08-18T15:54:16Z</time>
      </trkpt>
      <trkpt lat="43.62339" lon="0.87968">
        <ele>199.61</ele>
        <time>2021-08-18T15:54:25Z</time>
      </trkpt>
      <trkpt lat="43.62366" lon="0.87897">
        <ele>197.69</ele>
        <time>2021-08-18T15:54:33Z</time>
      </trkpt>
      <trkpt lat="43.62369" lon="0.87888">
        <ele>197.69</ele>
        <time>2021-08-18T15:54:34Z</time>
      </trkpt>
      <trkpt lat="43.62392" lon="0.87813">
        <ele>194.32</ele>
        <time>2021-08-18T15:54:41Z</time>
      </trkpt>
      <trkpt lat="43.62417" lon="0.87732">
        <ele>193.36</ele>
        <time>2021-08-18T15:54:49Z</time>
      </trkpt>
      <trkpt lat="43.6242" lon="0.87727">
        <ele>193.36</ele>
        <time>2021-08-18T15:54:51Z</time>
      </trkpt>
      <trkpt lat="43.6242" lon="0.87728">
        <ele>193.36</ele>
        <time>2021-08-18T15:54:52Z</time>
      </trkpt>
      <trkpt lat="43.62413" lon="0.87743">
        <ele>194.8</ele>
        <time>2021-08-18T15:54:57Z</time>
      </trkpt>
      <trkpt lat="43.6241" lon="0.87758">
        <ele>194.8</ele>
        <time>2021-08-18T15:55:00Z</time>
      </trkpt>
      <trkpt lat="43.62408" lon="0.87763">
        <ele>194.8</ele>
        <time>2021-08-18T15:55:01Z</time>
      </trkpt>
      <trkpt lat="43.62402" lon="0.87794">
        <ele>195.28</ele>
        <time>2021-08-18T15:55:06Z</time>
      </trkpt>
      <trkpt lat="43.62404" lon="0.878">
        <ele>195.28</ele>
        <time>2021-08-18T15:55:07Z</time>
      </trkpt>
      <trkpt lat="43.6241" lon="0.87813">
        <ele>193.84</ele>
        <time>2021-08-18T15:55:10Z</time>
      </trkpt>
      <trkpt lat="43.62412" lon="0.87815">
        <ele>193.84</ele>
        <time>2021-08-18T15:55:11Z</time>
      </trkpt>
      <trkpt lat="43.62414" lon="0.87814">
        <ele>193.84</ele>
        <time>2021-08-18T15:55:12Z</time>
      </trkpt>
      <trkpt lat="43.62415" lon="0.87812">
        <ele>193.84</ele>
        <time>2021-08-18T15:55:13Z</time>
      </trkpt>
      <trkpt lat="43.62416" lon="0.87808">
        <ele>193.84</ele>
        <time>2021-08-18T15:55:14Z</time>
      </trkpt>
      <trkpt lat="43.62417" lon="0.87805">
        <ele>193.36</ele>
        <time>2021-08-18T15:55:15Z</time>
      </trkpt>
      <trkpt lat="43.62426" lon="0.8778">
        <ele>193.36</ele>
        <time>2021-08-18T15:55:21Z</time>
      </trkpt>
      <trkpt lat="43.62427" lon="0.87779">
        <ele>192.88</ele>
        <time>2021-08-18T15:55:22Z</time>
      </trkpt>
      <trkpt lat="43.62428" lon="0.87777">
        <ele>192.88</ele>
        <time>2021-08-18T15:55:23Z</time>
      </trkpt>
      <trkpt lat="43.62437" lon="0.87758">
        <ele>191.92</ele>
        <time>2021-08-18T15:55:28Z</time>
      </trkpt>
      <trkpt lat="43.62445" lon="0.87748">
        <ele>190</ele>
        <time>2021-08-18T15:55:31Z</time>
      </trkpt>
      <trkpt lat="43.62447" lon="0.87749">
        <ele>189.04</ele>
        <time>2021-08-18T15:55:32Z</time>
      </trkpt>
      <trkpt lat="43.62451" lon="0.87752">
        <ele>189.04</ele>
        <time>2021-08-18T15:55:33Z</time>
      </trkpt>
      <trkpt lat="43.62454" lon="0.87757">
        <ele>188.08</ele>
        <time>2021-08-18T15:55:34Z</time>
      </trkpt>
      <trkpt lat="43.62458" lon="0.87762">
        <ele>187.11</ele>
        <time>2021-08-18T15:55:35Z</time>
      </trkpt>
      <trkpt lat="43.62467" lon="0.87771">
        <ele>185.67</ele>
        <time>2021-08-18T15:55:37Z</time>
      </trkpt>
      <trkpt lat="43.62469" lon="0.87775">
        <ele>185.67</ele>
        <time>2021-08-18T15:55:38Z</time>
      </trkpt>
      <trkpt lat="43.62475" lon="0.87777">
        <ele>184.71</ele>
        <time>2021-08-18T15:55:41Z</time>
      </trkpt>
      <trkpt lat="43.62489" lon="0.87753">
        <ele>182.79</ele>
        <time>2021-08-18T15:55:46Z</time>
      </trkpt>
      <trkpt lat="43.62499" lon="0.87742">
        <ele>181.35</ele>
        <time>2021-08-18T15:55:49Z</time>
      </trkpt>
      <trkpt lat="43.62514" lon="0.87759">
        <ele>183.27</ele>
        <time>2021-08-18T15:55:56Z</time>
      </trkpt>
      <trkpt lat="43.62527" lon="0.87773">
        <ele>184.71</ele>
        <time>2021-08-18T15:56:01Z</time>
      </trkpt>
      <trkpt lat="43.62542" lon="0.87788">
        <ele>186.63</ele>
        <time>2021-08-18T15:56:08Z</time>
      </trkpt>
      <trkpt lat="43.62544" lon="0.87791">
        <ele>187.11</ele>
        <time>2021-08-18T15:56:10Z</time>
      </trkpt>
      <trkpt lat="43.62544" lon="0.87794">
        <ele>187.11</ele>
        <time>2021-08-18T15:56:11Z</time>
      </trkpt>
      <trkpt lat="43.62543" lon="0.87797">
        <ele>187.11</ele>
        <time>2021-08-18T15:56:12Z</time>
      </trkpt>
      <trkpt lat="43.62542" lon="0.878">
        <ele>187.11</ele>
        <time>2021-08-18T15:56:13Z</time>
      </trkpt>
      <trkpt lat="43.6254" lon="0.87804">
        <ele>187.11</ele>
        <time>2021-08-18T15:56:14Z</time>
      </trkpt>
      <trkpt lat="43.62537" lon="0.87808">
        <ele>187.11</ele>
        <time>2021-08-18T15:56:15Z</time>
      </trkpt>
      <trkpt lat="43.62517" lon="0.87841">
        <ele>188.08</ele>
        <time>2021-08-18T15:56:24Z</time>
      </trkpt>
      <trkpt lat="43.62517" lon="0.87844">
        <ele>187.59</ele>
        <time>2021-08-18T15:56:25Z</time>
      </trkpt>
      <trkpt lat="43.62518" lon="0.87846">
        <ele>187.59</ele>
        <time>2021-08-18T15:56:26Z</time>
      </trkpt>
      <trkpt lat="43.62519" lon="0.87847">
        <ele>187.59</ele>
        <time>2021-08-18T15:56:27Z</time>
      </trkpt>
      <trkpt lat="43.62521" lon="0.87847">
        <ele>187.59</ele>
        <time>2021-08-18T15:56:28Z</time>
      </trkpt>
      <trkpt lat="43.62522" lon="0.87848">
        <ele>187.59</ele>
        <time>2021-08-18T15:56:29Z</time>
      </trkpt>
      <trkpt lat="43.62535" lon="0.8786">
        <ele>184.71</ele>
        <time>2021-08-18T15:56:34Z</time>
      </trkpt>
      <trkpt lat="43.62559" lon="0.87881">
        <ele>180.87</ele>
        <time>2021-08-18T15:56:39Z</time>
      </trkpt>
      <trkpt lat="43.62569" lon="0.87892">
        <ele>179.9</ele>
        <time>2021-08-18T15:56:41Z</time>
      </trkpt>
      <trkpt lat="43.62581" lon="0.87904">
        <ele>177.5</ele>
        <time>2021-08-18T15:56:44Z</time>
      </trkpt>
      <trkpt lat="43.62587" lon="0.87909">
        <ele>176.54</ele>
        <time>2021-08-18T15:56:47Z</time>
      </trkpt>
      <trkpt lat="43.62587" lon="0.8791">
        <ele>176.54</ele>
        <time>2021-08-18T15:56:48Z</time>
      </trkpt>
      <trkpt lat="43.62586" lon="0.87913">
        <ele>176.54</ele>
        <time>2021-08-18T15:56:50Z</time>
      </trkpt>
      <trkpt lat="43.62586" lon="0.87916">
        <ele>176.54</ele>
        <time>2021-08-18T15:56:51Z</time>
      </trkpt>
      <trkpt lat="43.62588" lon="0.87918">
        <ele>176.54</ele>
        <time>2021-08-18T15:56:52Z</time>
      </trkpt>
      <trkpt lat="43.6259" lon="0.87916">
        <ele>176.06</ele>
        <time>2021-08-18T15:56:53Z</time>
      </trkpt>
      <trkpt lat="43.62593" lon="0.87912">
        <ele>176.06</ele>
        <time>2021-08-18T15:56:54Z</time>
      </trkpt>
      <trkpt lat="43.62598" lon="0.87907">
        <ele>176.06</ele>
        <time>2021-08-18T15:56:55Z</time>
      </trkpt>
      <trkpt lat="43.62633" lon="0.87866">
        <ele>174.62</ele>
        <time>2021-08-18T15:57:03Z</time>
      </trkpt>
      <trkpt lat="43.6266" lon="0.87834">
        <ele>174.14</ele>
        <time>2021-08-18T15:57:09Z</time>
      </trkpt>
      <trkpt lat="43.62665" lon="0.87829">
        <ele>174.14</ele>
        <time>2021-08-18T15:57:10Z</time>
      </trkpt>
      <trkpt lat="43.62669" lon="0.87824">
        <ele>174.14</ele>
        <time>2021-08-18T15:57:11Z</time>
      </trkpt>
      <trkpt lat="43.62692" lon="0.87791">
        <ele>172.69</ele>
        <time>2021-08-18T15:57:17Z</time>
      </trkpt>
      <trkpt lat="43.62694" lon="0.87786">
        <ele>172.69</ele>
        <time>2021-08-18T15:57:18Z</time>
      </trkpt>
      <trkpt lat="43.62696" lon="0.87782">
        <ele>172.69</ele>
        <time>2021-08-18T15:57:19Z</time>
      </trkpt>
      <trkpt lat="43.62699" lon="0.87779">
        <ele>172.69</ele>
        <time>2021-08-18T15:57:20Z</time>
      </trkpt>
      <trkpt lat="43.62702" lon="0.87776">
        <ele>172.69</ele>
        <time>2021-08-18T15:57:21Z</time>
      </trkpt>
      <trkpt lat="43.62704" lon="0.87772">
        <ele>172.69</ele>
        <time>2021-08-18T15:57:22Z</time>
      </trkpt>
      <trkpt lat="43.62707" lon="0.87768">
        <ele>172.69</ele>
        <time>2021-08-18T15:57:23Z</time>
      </trkpt>
      <trkpt lat="43.62733" lon="0.8773">
        <ele>171.25</ele>
        <time>2021-08-18T15:57:30Z</time>
      </trkpt>
      <trkpt lat="43.62775" lon="0.87665">
        <ele>168.85</ele>
        <time>2021-08-18T15:57:39Z</time>
      </trkpt>
      <trkpt lat="43.62807" lon="0.87613">
        <ele>167.89</ele>
        <time>2021-08-18T15:57:46Z</time>
      </trkpt>
      <trkpt lat="43.62823" lon="0.87586">
        <ele>167.41</ele>
        <time>2021-08-18T15:57:52Z</time>
      </trkpt>
      <trkpt lat="43.62822" lon="0.87582">
        <ele>167.41</ele>
        <time>2021-08-18T15:57:53Z</time>
      </trkpt>
      <trkpt lat="43.6282" lon="0.87579">
        <ele>167.41</ele>
        <time>2021-08-18T15:57:54Z</time>
      </trkpt>
      <trkpt lat="43.62819" lon="0.87578">
        <ele>167.41</ele>
        <time>2021-08-18T15:57:55Z</time>
      </trkpt>
      <trkpt lat="43.62817" lon="0.87576">
        <ele>167.41</ele>
        <time>2021-08-18T15:57:56Z</time>
      </trkpt>
      <trkpt lat="43.62816" lon="0.87574">
        <ele>168.85</ele>
        <time>2021-08-18T15:57:57Z</time>
      </trkpt>
      <trkpt lat="43.62815" lon="0.87572">
        <ele>168.85</ele>
        <time>2021-08-18T15:57:58Z</time>
      </trkpt>
      <trkpt lat="43.62816" lon="0.87572">
        <ele>169.33</ele>
        <time>2021-08-18T15:58:03Z</time>
      </trkpt>
      <trkpt lat="43.62816" lon="0.87569">
        <ele>169.33</ele>
        <time>2021-08-18T15:58:16Z</time>
      </trkpt>
      <trkpt lat="43.62803" lon="0.87558">
        <ele>172.21</ele>
        <time>2021-08-18T15:58:23Z</time>
      </trkpt>
      <trkpt lat="43.62785" lon="0.87545">
        <ele>174.14</ele>
        <time>2021-08-18T15:58:31Z</time>
      </trkpt>
      <trkpt lat="43.62772" lon="0.87534">
        <ele>175.58</ele>
        <time>2021-08-18T15:58:40Z</time>
      </trkpt>
      <trkpt lat="43.6276" lon="0.87526">
        <ele>177.5</ele>
        <time>2021-08-18T15:58:49Z</time>
      </trkpt>
      <trkpt lat="43.62751" lon="0.87515">
        <ele>178.46</ele>
        <time>2021-08-18T15:58:57Z</time>
      </trkpt>
      <trkpt lat="43.62739" lon="0.87508">
        <ele>180.38</ele>
        <time>2021-08-18T15:59:05Z</time>
      </trkpt>
      <trkpt lat="43.62733" lon="0.87506">
        <ele>180.87</ele>
        <time>2021-08-18T15:59:11Z</time>
      </trkpt>
      <trkpt lat="43.62732" lon="0.87504">
        <ele>181.35</ele>
        <time>2021-08-18T15:59:15Z</time>
      </trkpt>
      <trkpt lat="43.62729" lon="0.87499">
        <ele>181.83</ele>
        <time>2021-08-18T15:59:19Z</time>
      </trkpt>
      <trkpt lat="43.62729" lon="0.87497">
        <ele>181.83</ele>
        <time>2021-08-18T15:59:20Z</time>
      </trkpt>
      <trkpt lat="43.6273" lon="0.87494">
        <ele>181.83</ele>
        <time>2021-08-18T15:59:21Z</time>
      </trkpt>
      <trkpt lat="43.6273" lon="0.8749">
        <ele>181.83</ele>
        <time>2021-08-18T15:59:22Z</time>
      </trkpt>
      <trkpt lat="43.62729" lon="0.87488">
        <ele>181.83</ele>
        <time>2021-08-18T15:59:23Z</time>
      </trkpt>
      <trkpt lat="43.62727" lon="0.87485">
        <ele>181.83</ele>
        <time>2021-08-18T15:59:24Z</time>
      </trkpt>
      <trkpt lat="43.62716" lon="0.87475">
        <ele>180.38</ele>
        <time>2021-08-18T15:59:29Z</time>
      </trkpt>
      <trkpt lat="43.62707" lon="0.87462">
        <ele>177.5</ele>
        <time>2021-08-18T15:59:33Z</time>
      </trkpt>
      <trkpt lat="43.62699" lon="0.87451">
        <ele>173.66</ele>
        <time>2021-08-18T15:59:36Z</time>
      </trkpt>
      <trkpt lat="43.62685" lon="0.87434">
        <ele>170.29</ele>
        <time>2021-08-18T15:59:41Z</time>
      </trkpt>
      <trkpt lat="43.62676" lon="0.87418">
        <ele>167.41</ele>
        <time>2021-08-18T15:59:46Z</time>
      </trkpt>
      <trkpt lat="43.62661" lon="0.87405">
        <ele>165.48</ele>
        <time>2021-08-18T15:59:49Z</time>
      </trkpt>
      <trkpt lat="43.62659" lon="0.87401">
        <ele>165.48</ele>
        <time>2021-08-18T15:59:50Z</time>
      </trkpt>
      <trkpt lat="43.6266" lon="0.87397">
        <ele>165</ele>
        <time>2021-08-18T15:59:51Z</time>
      </trkpt>
      <trkpt lat="43.62661" lon="0.87394">
        <ele>165.48</ele>
        <time>2021-08-18T15:59:52Z</time>
      </trkpt>
      <trkpt lat="43.62664" lon="0.87391">
        <ele>165</ele>
        <time>2021-08-18T15:59:53Z</time>
      </trkpt>
      <trkpt lat="43.62666" lon="0.87387">
        <ele>165</ele>
        <time>2021-08-18T15:59:54Z</time>
      </trkpt>
      <trkpt lat="43.62692" lon="0.87351">
        <ele>163.56</ele>
        <time>2021-08-18T16:00:01Z</time>
      </trkpt>
      <trkpt lat="43.62726" lon="0.87304">
        <ele>160.2</ele>
        <time>2021-08-18T16:00:08Z</time>
      </trkpt>
      <trkpt lat="43.62756" lon="0.87266">
        <ele>159.72</ele>
        <time>2021-08-18T16:00:14Z</time>
      </trkpt>
      <trkpt lat="43.62772" lon="0.87241">
        <ele>159.72</ele>
        <time>2021-08-18T16:00:18Z</time>
      </trkpt>
      <trkpt lat="43.62774" lon="0.87235">
        <ele>159.72</ele>
        <time>2021-08-18T16:00:19Z</time>
      </trkpt>
      <trkpt lat="43.62774" lon="0.87229">
        <ele>160.2</ele>
        <time>2021-08-18T16:00:20Z</time>
      </trkpt>
      <trkpt lat="43.62773" lon="0.87224">
        <ele>160.2</ele>
        <time>2021-08-18T16:00:21Z</time>
      </trkpt>
      <trkpt lat="43.62771" lon="0.87221">
        <ele>160.2</ele>
        <time>2021-08-18T16:00:22Z</time>
      </trkpt>
      <trkpt lat="43.62768" lon="0.87219">
        <ele>160.2</ele>
        <time>2021-08-18T16:00:23Z</time>
      </trkpt>
      <trkpt lat="43.62765" lon="0.87217">
        <ele>160.2</ele>
        <time>2021-08-18T16:00:24Z</time>
      </trkpt>
      <trkpt lat="43.62762" lon="0.87214">
        <ele>160.2</ele>
        <time>2021-08-18T16:00:25Z</time>
      </trkpt>
      <trkpt lat="43.62745" lon="0.87197">
        <ele>160.2</ele>
        <time>2021-08-18T16:00:31Z</time>
      </trkpt>
      <trkpt lat="43.62719" lon="0.87174">
        <ele>163.08</ele>
        <time>2021-08-18T16:00:40Z</time>
      </trkpt>
      <trkpt lat="43.62698" lon="0.87158">
        <ele>163.56</ele>
        <time>2021-08-18T16:00:48Z</time>
      </trkpt>
      <trkpt lat="43.62677" lon="0.87144">
        <ele>162.12</ele>
        <time>2021-08-18T16:00:53Z</time>
      </trkpt>
      <trkpt lat="43.62665" lon="0.87136">
        <ele>161.64</ele>
        <time>2021-08-18T16:00:55Z</time>
      </trkpt>
      <trkpt lat="43.62618" lon="0.87106">
        <ele>157.79</ele>
        <time>2021-08-18T16:01:02Z</time>
      </trkpt>
      <trkpt lat="43.62604" lon="0.87097">
        <ele>157.31</ele>
        <time>2021-08-18T16:01:04Z</time>
      </trkpt>
      <trkpt lat="43.6255" lon="0.87065">
        <ele>154.43</ele>
        <time>2021-08-18T16:01:11Z</time>
      </trkpt>
      <trkpt lat="43.62545" lon="0.8706">
        <ele>154.43</ele>
        <time>2021-08-18T16:01:12Z</time>
      </trkpt>
      <trkpt lat="43.62541" lon="0.87055">
        <ele>153.95</ele>
        <time>2021-08-18T16:01:13Z</time>
      </trkpt>
      <trkpt lat="43.62539" lon="0.87048">
        <ele>153.47</ele>
        <time>2021-08-18T16:01:14Z</time>
      </trkpt>
      <trkpt lat="43.62539" lon="0.87041">
        <ele>152.99</ele>
        <time>2021-08-18T16:01:15Z</time>
      </trkpt>
      <trkpt lat="43.62539" lon="0.87033">
        <ele>152.99</ele>
        <time>2021-08-18T16:01:16Z</time>
      </trkpt>
      <trkpt lat="43.62541" lon="0.87026">
        <ele>152.99</ele>
        <time>2021-08-18T16:01:17Z</time>
      </trkpt>
      <trkpt lat="43.62551" lon="0.8698">
        <ele>152.99</ele>
        <time>2021-08-18T16:01:23Z</time>
      </trkpt>
      <trkpt lat="43.62552" lon="0.86972">
        <ele>152.99</ele>
        <time>2021-08-18T16:01:24Z</time>
      </trkpt>
      <trkpt lat="43.62564" lon="0.86913">
        <ele>152.99</ele>
        <time>2021-08-18T16:01:32Z</time>
      </trkpt>
      <trkpt lat="43.6257" lon="0.86882">
        <ele>152.99</ele>
        <time>2021-08-18T16:01:36Z</time>
      </trkpt>
      <trkpt lat="43.6257" lon="0.86843">
        <ele>152.03</ele>
        <time>2021-08-18T16:01:41Z</time>
      </trkpt>
      <trkpt lat="43.6257" lon="0.86829">
        <ele>152.03</ele>
        <time>2021-08-18T16:01:43Z</time>
      </trkpt>
      <trkpt lat="43.62571" lon="0.86822">
        <ele>152.03</ele>
        <time>2021-08-18T16:01:44Z</time>
      </trkpt>
      <trkpt lat="43.62574" lon="0.86817">
        <ele>152.03</ele>
        <time>2021-08-18T16:01:45Z</time>
      </trkpt>
      <trkpt lat="43.62578" lon="0.86814">
        <ele>152.03</ele>
        <time>2021-08-18T16:01:46Z</time>
      </trkpt>
      <trkpt lat="43.62582" lon="0.86813">
        <ele>152.03</ele>
        <time>2021-08-18T16:01:47Z</time>
      </trkpt>
      <trkpt lat="43.62586" lon="0.86814">
        <ele>152.03</ele>
        <time>2021-08-18T16:01:48Z</time>
      </trkpt>
      <trkpt lat="43.62591" lon="0.86815">
        <ele>152.03</ele>
        <time>2021-08-18T16:01:49Z</time>
      </trkpt>
      <trkpt lat="43.62637" lon="0.8683">
        <ele>152.03</ele>
        <time>2021-08-18T16:01:58Z</time>
      </trkpt>
      <trkpt lat="43.62681" lon="0.86842">
        <ele>152.03</ele>
        <time>2021-08-18T16:02:06Z</time>
      </trkpt>
      <trkpt lat="43.62732" lon="0.86857">
        <ele>152.03</ele>
        <time>2021-08-18T16:02:16Z</time>
      </trkpt>
      <trkpt lat="43.62737" lon="0.86856">
        <ele>152.03</ele>
        <time>2021-08-18T16:02:17Z</time>
      </trkpt>
      <trkpt lat="43.62742" lon="0.86854">
        <ele>152.03</ele>
        <time>2021-08-18T16:02:18Z</time>
      </trkpt>
      <trkpt lat="43.6275" lon="0.86848">
        <ele>152.03</ele>
        <time>2021-08-18T16:02:20Z</time>
      </trkpt>
      <trkpt lat="43.62754" lon="0.86847">
        <ele>152.03</ele>
        <time>2021-08-18T16:02:21Z</time>
      </trkpt>
      <trkpt lat="43.62759" lon="0.86846">
        <ele>152.03</ele>
        <time>2021-08-18T16:02:22Z</time>
      </trkpt>
      <trkpt lat="43.62764" lon="0.86847">
        <ele>152.03</ele>
        <time>2021-08-18T16:02:23Z</time>
      </trkpt>
      <trkpt lat="43.62769" lon="0.86849">
        <ele>152.03</ele>
        <time>2021-08-18T16:02:24Z</time>
      </trkpt>
      <trkpt lat="43.62774" lon="0.86851">
        <ele>152.03</ele>
        <time>2021-08-18T16:02:25Z</time>
      </trkpt>
      <trkpt lat="43.62779" lon="0.86853">
        <ele>152.03</ele>
        <time>2021-08-18T16:02:26Z</time>
      </trkpt>
      <trkpt lat="43.62802" lon="0.86861">
        <ele>152.03</ele>
        <time>2021-08-18T16:02:31Z</time>
      </trkpt>
      <trkpt lat="43.62806" lon="0.86864">
        <ele>152.03</ele>
        <time>2021-08-18T16:02:32Z</time>
      </trkpt>
      <trkpt lat="43.62811" lon="0.86866">
        <ele>152.03</ele>
        <time>2021-08-18T16:02:33Z</time>
      </trkpt>
      <trkpt lat="43.62815" lon="0.86868">
        <ele>152.03</ele>
        <time>2021-08-18T16:02:34Z</time>
      </trkpt>
      <trkpt lat="43.6282" lon="0.8687">
        <ele>152.03</ele>
        <time>2021-08-18T16:02:35Z</time>
      </trkpt>
      <trkpt lat="43.62864" lon="0.86897">
        <ele>152.03</ele>
        <time>2021-08-18T16:02:45Z</time>
      </trkpt>
      <trkpt lat="43.6291" lon="0.86925">
        <ele>152.03</ele>
        <time>2021-08-18T16:02:54Z</time>
      </trkpt>
      <trkpt lat="43.62953" lon="0.86951">
        <ele>152.03</ele>
        <time>2021-08-18T16:03:03Z</time>
      </trkpt>
      <trkpt lat="43.62957" lon="0.86949">
        <ele>151.54</ele>
        <time>2021-08-18T16:03:04Z</time>
      </trkpt>
      <trkpt lat="43.62959" lon="0.86945">
        <ele>151.54</ele>
        <time>2021-08-18T16:03:05Z</time>
      </trkpt>
      <trkpt lat="43.62961" lon="0.86941">
        <ele>151.54</ele>
        <time>2021-08-18T16:03:06Z</time>
      </trkpt>
      <trkpt lat="43.62962" lon="0.86935">
        <ele>151.54</ele>
        <time>2021-08-18T16:03:07Z</time>
      </trkpt>
      <trkpt lat="43.62963" lon="0.86928">
        <ele>151.54</ele>
        <time>2021-08-18T16:03:08Z</time>
      </trkpt>
      <trkpt lat="43.6297" lon="0.86895">
        <ele>151.54</ele>
        <time>2021-08-18T16:03:13Z</time>
      </trkpt>
      <trkpt lat="43.62971" lon="0.86888">
        <ele>151.54</ele>
        <time>2021-08-18T16:03:14Z</time>
      </trkpt>
      <trkpt lat="43.62988" lon="0.86831">
        <ele>151.06</ele>
        <time>2021-08-18T16:03:23Z</time>
      </trkpt>
      <trkpt lat="43.63001" lon="0.86784">
        <ele>151.06</ele>
        <time>2021-08-18T16:03:31Z</time>
      </trkpt>
      <trkpt lat="43.63014" lon="0.86737">
        <ele>151.06</ele>
        <time>2021-08-18T16:03:39Z</time>
      </trkpt>
      <trkpt lat="43.63025" lon="0.86701">
        <ele>152.51</ele>
        <time>2021-08-18T16:03:46Z</time>
      </trkpt>
      <trkpt lat="43.63035" lon="0.8667">
        <ele>153.47</ele>
        <time>2021-08-18T16:03:53Z</time>
      </trkpt>
      <trkpt lat="43.63045" lon="0.86638">
        <ele>154.43</ele>
        <time>2021-08-18T16:04:01Z</time>
      </trkpt>
      <trkpt lat="43.63055" lon="0.86608">
        <ele>154.91</ele>
        <time>2021-08-18T16:04:09Z</time>
      </trkpt>
      <trkpt lat="43.63059" lon="0.86597">
        <ele>155.87</ele>
        <time>2021-08-18T16:04:13Z</time>
      </trkpt>
      <trkpt lat="43.63064" lon="0.86591">
        <ele>155.87</ele>
        <time>2021-08-18T16:04:18Z</time>
      </trkpt>
      <trkpt lat="43.63076" lon="0.8657">
        <ele>156.35</ele>
        <time>2021-08-18T16:04:25Z</time>
      </trkpt>
      <trkpt lat="43.63089" lon="0.86526">
        <ele>156.83</ele>
        <time>2021-08-18T16:04:35Z</time>
      </trkpt>
      <trkpt lat="43.63098" lon="0.86491">
        <ele>158.27</ele>
        <time>2021-08-18T16:04:44Z</time>
      </trkpt>
      <trkpt lat="43.6311" lon="0.8647">
        <ele>160.2</ele>
        <time>2021-08-18T16:04:52Z</time>
      </trkpt>
      <trkpt lat="43.63114" lon="0.86459">
        <ele>160.2</ele>
        <time>2021-08-18T16:04:56Z</time>
      </trkpt>
      <trkpt lat="43.63113" lon="0.86456">
        <ele>160.2</ele>
        <time>2021-08-18T16:04:57Z</time>
      </trkpt>
      <trkpt lat="43.63101" lon="0.86434">
        <ele>160.2</ele>
        <time>2021-08-18T16:05:03Z</time>
      </trkpt>
      <trkpt lat="43.63091" lon="0.86424">
        <ele>160.2</ele>
        <time>2021-08-18T16:05:06Z</time>
      </trkpt>
      <trkpt lat="43.63074" lon="0.8641">
        <ele>160.2</ele>
        <time>2021-08-18T16:05:10Z</time>
      </trkpt>
      <trkpt lat="43.63069" lon="0.86406">
        <ele>159.24</ele>
        <time>2021-08-18T16:05:11Z</time>
      </trkpt>
      <trkpt lat="43.63065" lon="0.86402">
        <ele>159.24</ele>
        <time>2021-08-18T16:05:12Z</time>
      </trkpt>
      <trkpt lat="43.63034" lon="0.86362">
        <ele>157.79</ele>
        <time>2021-08-18T16:05:19Z</time>
      </trkpt>
      <trkpt lat="43.63027" lon="0.86349">
        <ele>157.79</ele>
        <time>2021-08-18T16:05:21Z</time>
      </trkpt>
      <trkpt lat="43.63023" lon="0.86342">
        <ele>157.79</ele>
        <time>2021-08-18T16:05:22Z</time>
      </trkpt>
      <trkpt lat="43.63021" lon="0.86334">
        <ele>157.79</ele>
        <time>2021-08-18T16:05:23Z</time>
      </trkpt>
      <trkpt lat="43.63018" lon="0.86326">
        <ele>157.79</ele>
        <time>2021-08-18T16:05:24Z</time>
      </trkpt>
      <trkpt lat="43.63017" lon="0.86317">
        <ele>157.79</ele>
        <time>2021-08-18T16:05:25Z</time>
      </trkpt>
      <trkpt lat="43.63015" lon="0.86309">
        <ele>157.31</ele>
        <time>2021-08-18T16:05:26Z</time>
      </trkpt>
      <trkpt lat="43.63005" lon="0.86244">
        <ele>156.83</ele>
        <time>2021-08-18T16:05:34Z</time>
      </trkpt>
      <trkpt lat="43.62994" lon="0.86183">
        <ele>156.83</ele>
        <time>2021-08-18T16:05:42Z</time>
      </trkpt>
      <trkpt lat="43.62984" lon="0.86133">
        <ele>156.83</ele>
        <time>2021-08-18T16:05:49Z</time>
      </trkpt>
      <trkpt lat="43.62976" lon="0.86068">
        <ele>158.75</ele>
        <time>2021-08-18T16:05:58Z</time>
      </trkpt>
      <trkpt lat="43.62976" lon="0.86052">
        <ele>158.75</ele>
        <time>2021-08-18T16:06:00Z</time>
      </trkpt>
      <trkpt lat="43.62985" lon="0.85989">
        <ele>159.72</ele>
        <time>2021-08-18T16:06:09Z</time>
      </trkpt>
      <trkpt lat="43.63002" lon="0.85917">
        <ele>160.2</ele>
        <time>2021-08-18T16:06:20Z</time>
      </trkpt>
      <trkpt lat="43.63015" lon="0.85862">
        <ele>160.68</ele>
        <time>2021-08-18T16:06:29Z</time>
      </trkpt>
      <trkpt lat="43.63026" lon="0.85813">
        <ele>161.16</ele>
        <time>2021-08-18T16:06:37Z</time>
      </trkpt>
      <trkpt lat="43.63038" lon="0.85756">
        <ele>162.6</ele>
        <time>2021-08-18T16:06:46Z</time>
      </trkpt>
      <trkpt lat="43.63039" lon="0.8575">
        <ele>162.6</ele>
        <time>2021-08-18T16:06:47Z</time>
      </trkpt>
      <trkpt lat="43.63039" lon="0.85743">
        <ele>162.6</ele>
        <time>2021-08-18T16:06:48Z</time>
      </trkpt>
      <trkpt lat="43.63039" lon="0.85737">
        <ele>162.6</ele>
        <time>2021-08-18T16:06:49Z</time>
      </trkpt>
      <trkpt lat="43.63038" lon="0.8573">
        <ele>162.6</ele>
        <time>2021-08-18T16:06:50Z</time>
      </trkpt>
      <trkpt lat="43.63028" lon="0.85681">
        <ele>163.08</ele>
        <time>2021-08-18T16:06:58Z</time>
      </trkpt>
      <trkpt lat="43.63018" lon="0.8563">
        <ele>164.04</ele>
        <time>2021-08-18T16:07:07Z</time>
      </trkpt>
      <trkpt lat="43.6301" lon="0.85576">
        <ele>164.52</ele>
        <time>2021-08-18T16:07:16Z</time>
      </trkpt>
      <trkpt lat="43.63007" lon="0.85533">
        <ele>165</ele>
        <time>2021-08-18T16:07:23Z</time>
      </trkpt>
      <trkpt lat="43.63007" lon="0.85501">
        <ele>165.48</ele>
        <time>2021-08-18T16:07:28Z</time>
      </trkpt>
      <trkpt lat="43.63009" lon="0.85443">
        <ele>165.48</ele>
        <time>2021-08-18T16:07:37Z</time>
      </trkpt>
      <trkpt lat="43.63013" lon="0.85389">
        <ele>166.45</ele>
        <time>2021-08-18T16:07:46Z</time>
      </trkpt>
      <trkpt lat="43.63012" lon="0.85388">
        <ele>166.45</ele>
        <time>2021-08-18T16:07:47Z</time>
      </trkpt>
      <trkpt lat="43.63011" lon="0.85395">
        <ele>166.93</ele>
        <time>2021-08-18T16:07:51Z</time>
      </trkpt>
      <trkpt lat="43.63011" lon="0.854">
        <ele>166.93</ele>
        <time>2021-08-18T16:07:52Z</time>
      </trkpt>
      <trkpt lat="43.6301" lon="0.85405">
        <ele>166.93</ele>
        <time>2021-08-18T16:07:53Z</time>
      </trkpt>
      <trkpt lat="43.6301" lon="0.85411">
        <ele>166.93</ele>
        <time>2021-08-18T16:07:54Z</time>
      </trkpt>
      <trkpt lat="43.63009" lon="0.85417">
        <ele>166.93</ele>
        <time>2021-08-18T16:07:55Z</time>
      </trkpt>
      <trkpt lat="43.63008" lon="0.85445">
        <ele>165.48</ele>
        <time>2021-08-18T16:07:59Z</time>
      </trkpt>
      <trkpt lat="43.63008" lon="0.85452">
        <ele>165.48</ele>
        <time>2021-08-18T16:08:00Z</time>
      </trkpt>
      <trkpt lat="43.63008" lon="0.85459">
        <ele>165.48</ele>
        <time>2021-08-18T16:08:01Z</time>
      </trkpt>
      <trkpt lat="43.63007" lon="0.8548">
        <ele>165</ele>
        <time>2021-08-18T16:08:04Z</time>
      </trkpt>
      <trkpt lat="43.63005" lon="0.85484">
        <ele>165</ele>
        <time>2021-08-18T16:08:05Z</time>
      </trkpt>
      <trkpt lat="43.63" lon="0.85487">
        <ele>165</ele>
        <time>2021-08-18T16:08:07Z</time>
      </trkpt>
      <trkpt lat="43.62997" lon="0.85485">
        <ele>164.52</ele>
        <time>2021-08-18T16:08:08Z</time>
      </trkpt>
      <trkpt lat="43.62976" lon="0.85467">
        <ele>164.04</ele>
        <time>2021-08-18T16:08:15Z</time>
      </trkpt>
      <trkpt lat="43.62964" lon="0.85454">
        <ele>164.04</ele>
        <time>2021-08-18T16:08:21Z</time>
      </trkpt>
      <trkpt lat="43.6295" lon="0.85437">
        <ele>165.48</ele>
        <time>2021-08-18T16:08:28Z</time>
      </trkpt>
      <trkpt lat="43.62935" lon="0.8542">
        <ele>166.93</ele>
        <time>2021-08-18T16:08:36Z</time>
      </trkpt>
      <trkpt lat="43.62923" lon="0.8541">
        <ele>169.33</ele>
        <time>2021-08-18T16:08:45Z</time>
      </trkpt>
      <trkpt lat="43.62921" lon="0.85409">
        <ele>169.33</ele>
        <time>2021-08-18T16:08:46Z</time>
      </trkpt>
      <trkpt lat="43.62911" lon="0.85404">
        <ele>170.77</ele>
        <time>2021-08-18T16:08:53Z</time>
      </trkpt>
      <trkpt lat="43.62899" lon="0.85399">
        <ele>172.21</ele>
        <time>2021-08-18T16:09:01Z</time>
      </trkpt>
      <trkpt lat="43.62889" lon="0.85397">
        <ele>173.66</ele>
        <time>2021-08-18T16:09:09Z</time>
      </trkpt>
      <trkpt lat="43.62887" lon="0.85397">
        <ele>173.66</ele>
        <time>2021-08-18T16:09:10Z</time>
      </trkpt>
      <trkpt lat="43.62885" lon="0.85396">
        <ele>173.66</ele>
        <time>2021-08-18T16:09:11Z</time>
      </trkpt>
      <trkpt lat="43.62884" lon="0.85396">
        <ele>174.14</ele>
        <time>2021-08-18T16:09:12Z</time>
      </trkpt>
      <trkpt lat="43.62883" lon="0.85395">
        <ele>174.14</ele>
        <time>2021-08-18T16:09:13Z</time>
      </trkpt>
      <trkpt lat="43.62882" lon="0.85394">
        <ele>174.14</ele>
        <time>2021-08-18T16:09:14Z</time>
      </trkpt>
      <trkpt lat="43.62872" lon="0.85392">
        <ele>175.58</ele>
        <time>2021-08-18T16:09:23Z</time>
      </trkpt>
      <trkpt lat="43.62866" lon="0.85389">
        <ele>177.5</ele>
        <time>2021-08-18T16:09:32Z</time>
      </trkpt>
      <trkpt lat="43.62858" lon="0.85387">
        <ele>178.46</ele>
        <time>2021-08-18T16:09:41Z</time>
      </trkpt>
      <trkpt lat="43.62851" lon="0.85385">
        <ele>180.38</ele>
        <time>2021-08-18T16:09:49Z</time>
      </trkpt>
      <trkpt lat="43.62844" lon="0.8538">
        <ele>181.83</ele>
        <time>2021-08-18T16:09:59Z</time>
      </trkpt>
      <trkpt lat="43.6284" lon="0.85377">
        <ele>181.83</ele>
        <time>2021-08-18T16:10:04Z</time>
      </trkpt>
      <trkpt lat="43.62839" lon="0.85375">
        <ele>181.83</ele>
        <time>2021-08-18T16:10:05Z</time>
      </trkpt>
      <trkpt lat="43.62838" lon="0.85374">
        <ele>181.83</ele>
        <time>2021-08-18T16:10:06Z</time>
      </trkpt>
      <trkpt lat="43.62837" lon="0.85371">
        <ele>181.83</ele>
        <time>2021-08-18T16:10:07Z</time>
      </trkpt>
      <trkpt lat="43.62836" lon="0.85369">
        <ele>182.31</ele>
        <time>2021-08-18T16:10:08Z</time>
      </trkpt>
      <trkpt lat="43.62829" lon="0.85347">
        <ele>182.79</ele>
        <time>2021-08-18T16:10:15Z</time>
      </trkpt>
      <trkpt lat="43.6282" lon="0.85322">
        <ele>183.75</ele>
        <time>2021-08-18T16:10:22Z</time>
      </trkpt>
      <trkpt lat="43.62807" lon="0.85301">
        <ele>184.71</ele>
        <time>2021-08-18T16:10:29Z</time>
      </trkpt>
      <trkpt lat="43.62788" lon="0.85293">
        <ele>186.15</ele>
        <time>2021-08-18T16:10:37Z</time>
      </trkpt>
      <trkpt lat="43.62774" lon="0.85288">
        <ele>187.59</ele>
        <time>2021-08-18T16:10:46Z</time>
      </trkpt>
      <trkpt lat="43.62768" lon="0.85286">
        <ele>188.56</ele>
        <time>2021-08-18T16:10:52Z</time>
      </trkpt>
      <trkpt lat="43.62761" lon="0.85284">
        <ele>190.48</ele>
        <time>2021-08-18T16:11:00Z</time>
      </trkpt>
      <trkpt lat="43.62751" lon="0.85282">
        <ele>191.92</ele>
        <time>2021-08-18T16:11:09Z</time>
      </trkpt>
      <trkpt lat="43.62742" lon="0.85281">
        <ele>193.84</ele>
        <time>2021-08-18T16:11:19Z</time>
      </trkpt>
      <trkpt lat="43.6273" lon="0.85279">
        <ele>195.28</ele>
        <time>2021-08-18T16:11:29Z</time>
      </trkpt>
      <trkpt lat="43.62718" lon="0.85274">
        <ele>197.21</ele>
        <time>2021-08-18T16:11:39Z</time>
      </trkpt>
      <trkpt lat="43.62717" lon="0.85272">
        <ele>197.21</ele>
        <time>2021-08-18T16:11:40Z</time>
      </trkpt>
      <trkpt lat="43.62712" lon="0.8526">
        <ele>198.65</ele>
        <time>2021-08-18T16:11:49Z</time>
      </trkpt>
      <trkpt lat="43.62711" lon="0.85256">
        <ele>198.65</ele>
        <time>2021-08-18T16:11:54Z</time>
      </trkpt>
      <trkpt lat="43.6271" lon="0.85239">
        <ele>199.13</ele>
        <time>2021-08-18T16:12:00Z</time>
      </trkpt>
      <trkpt lat="43.62709" lon="0.85214">
        <ele>200.09</ele>
        <time>2021-08-18T16:12:07Z</time>
      </trkpt>
      <trkpt lat="43.62707" lon="0.85185">
        <ele>201.53</ele>
        <time>2021-08-18T16:12:15Z</time>
      </trkpt>
      <trkpt lat="43.62705" lon="0.85153">
        <ele>202.49</ele>
        <time>2021-08-18T16:12:23Z</time>
      </trkpt>
      <trkpt lat="43.62692" lon="0.85128">
        <ele>203.46</ele>
        <time>2021-08-18T16:12:31Z</time>
      </trkpt>
      <trkpt lat="43.62672" lon="0.8509">
        <ele>203.46</ele>
        <time>2021-08-18T16:12:40Z</time>
      </trkpt>
      <trkpt lat="43.62662" lon="0.85069">
        <ele>203.46</ele>
        <time>2021-08-18T16:12:44Z</time>
      </trkpt>
      <trkpt lat="43.62659" lon="0.85063">
        <ele>203.46</ele>
        <time>2021-08-18T16:12:45Z</time>
      </trkpt>
      <trkpt lat="43.62657" lon="0.85058">
        <ele>203.46</ele>
        <time>2021-08-18T16:12:46Z</time>
      </trkpt>
      <trkpt lat="43.62641" lon="0.85012">
        <ele>203.46</ele>
        <time>2021-08-18T16:12:54Z</time>
      </trkpt>
      <trkpt lat="43.6263" lon="0.84973">
        <ele>204.42</ele>
        <time>2021-08-18T16:13:01Z</time>
      </trkpt>
      <trkpt lat="43.62625" lon="0.84946">
        <ele>204.42</ele>
        <time>2021-08-18T16:13:06Z</time>
      </trkpt>
      <trkpt lat="43.62614" lon="0.84892">
        <ele>205.86</ele>
        <time>2021-08-18T16:13:14Z</time>
      </trkpt>
      <trkpt lat="43.62607" lon="0.84855">
        <ele>206.82</ele>
        <time>2021-08-18T16:13:21Z</time>
      </trkpt>
      <trkpt lat="43.62598" lon="0.84812">
        <ele>208.74</ele>
        <time>2021-08-18T16:13:31Z</time>
      </trkpt>
      <trkpt lat="43.62591" lon="0.8477">
        <ele>210.19</ele>
        <time>2021-08-18T16:13:41Z</time>
      </trkpt>
      <trkpt lat="43.62593" lon="0.84728">
        <ele>211.63</ele>
        <time>2021-08-18T16:13:50Z</time>
      </trkpt>
      <trkpt lat="43.62607" lon="0.84676">
        <ele>212.11</ele>
        <time>2021-08-18T16:14:01Z</time>
      </trkpt>
      <trkpt lat="43.6262" lon="0.84626">
        <ele>212.59</ele>
        <time>2021-08-18T16:14:11Z</time>
      </trkpt>
      <trkpt lat="43.62636" lon="0.84575">
        <ele>213.07</ele>
        <time>2021-08-18T16:14:21Z</time>
      </trkpt>
      <trkpt lat="43.6265" lon="0.84516">
        <ele>214.51</ele>
        <time>2021-08-18T16:14:32Z</time>
      </trkpt>
      <trkpt lat="43.6265" lon="0.84508">
        <ele>214.51</ele>
        <time>2021-08-18T16:14:34Z</time>
      </trkpt>
      <trkpt lat="43.62649" lon="0.84504">
        <ele>214.51</ele>
        <time>2021-08-18T16:14:35Z</time>
      </trkpt>
      <trkpt lat="43.62647" lon="0.845">
        <ele>214.51</ele>
        <time>2021-08-18T16:14:36Z</time>
      </trkpt>
      <trkpt lat="43.62644" lon="0.84496">
        <ele>214.51</ele>
        <time>2021-08-18T16:14:37Z</time>
      </trkpt>
      <trkpt lat="43.62642" lon="0.84493">
        <ele>214.51</ele>
        <time>2021-08-18T16:14:38Z</time>
      </trkpt>
      <trkpt lat="43.62639" lon="0.84489">
        <ele>214.51</ele>
        <time>2021-08-18T16:14:39Z</time>
      </trkpt>
      <trkpt lat="43.62636" lon="0.84487">
        <ele>214.51</ele>
        <time>2021-08-18T16:14:40Z</time>
      </trkpt>
      <trkpt lat="43.62633" lon="0.84486">
        <ele>214.51</ele>
        <time>2021-08-18T16:14:41Z</time>
      </trkpt>
      <trkpt lat="43.62631" lon="0.84485">
        <ele>214.51</ele>
        <time>2021-08-18T16:14:42Z</time>
      </trkpt>
      <trkpt lat="43.6263" lon="0.84485">
        <ele>214.51</ele>
        <time>2021-08-18T16:14:47Z</time>
      </trkpt>
      <trkpt lat="43.62627" lon="0.84486">
        <ele>213.07</ele>
        <time>2021-08-18T16:14:53Z</time>
      </trkpt>
      <trkpt lat="43.62623" lon="0.84488">
        <ele>212.59</ele>
        <time>2021-08-18T16:15:07Z</time>
      </trkpt>
      <trkpt lat="43.62603" lon="0.84496">
        <ele>212.11</ele>
        <time>2021-08-18T16:15:13Z</time>
      </trkpt>
      <trkpt lat="43.62573" lon="0.8451">
        <ele>209.22</ele>
        <time>2021-08-18T16:15:19Z</time>
      </trkpt>
      <trkpt lat="43.62559" lon="0.84516">
        <ele>208.74</ele>
        <time>2021-08-18T16:15:21Z</time>
      </trkpt>
      <trkpt lat="43.62519" lon="0.84534">
        <ele>204.9</ele>
        <time>2021-08-18T16:15:28Z</time>
      </trkpt>
      <trkpt lat="43.62506" lon="0.84539">
        <ele>203.94</ele>
        <time>2021-08-18T16:15:30Z</time>
      </trkpt>
      <trkpt lat="43.62479" lon="0.84551">
        <ele>202.01</ele>
        <time>2021-08-18T16:15:34Z</time>
      </trkpt>
      <trkpt lat="43.62453" lon="0.84563">
        <ele>201.05</ele>
        <time>2021-08-18T16:15:38Z</time>
      </trkpt>
      <trkpt lat="43.62434" lon="0.84564">
        <ele>200.09</ele>
        <time>2021-08-18T16:15:42Z</time>
      </trkpt>
      <trkpt lat="43.62414" lon="0.84552">
        <ele>199.61</ele>
        <time>2021-08-18T16:15:49Z</time>
      </trkpt>
      <trkpt lat="43.62415" lon="0.84557">
        <ele>199.13</ele>
        <time>2021-08-18T16:15:53Z</time>
      </trkpt>
      <trkpt lat="43.62433" lon="0.84564">
        <ele>198.65</ele>
        <time>2021-08-18T16:15:58Z</time>
      </trkpt>
      <trkpt lat="43.62449" lon="0.84564">
        <ele>198.65</ele>
        <time>2021-08-18T16:16:02Z</time>
      </trkpt>
      <trkpt lat="43.6246" lon="0.84559">
        <ele>200.09</ele>
        <time>2021-08-18T16:16:05Z</time>
      </trkpt>
      <trkpt lat="43.62484" lon="0.84549">
        <ele>202.01</ele>
        <time>2021-08-18T16:16:13Z</time>
      </trkpt>
      <trkpt lat="43.62511" lon="0.84535">
        <ele>203.94</ele>
        <time>2021-08-18T16:16:24Z</time>
      </trkpt>
      <trkpt lat="43.62529" lon="0.84528">
        <ele>205.38</ele>
        <time>2021-08-18T16:16:32Z</time>
      </trkpt>
      <trkpt lat="43.62549" lon="0.84518">
        <ele>207.3</ele>
        <time>2021-08-18T16:16:41Z</time>
      </trkpt>
      <trkpt lat="43.62569" lon="0.84509">
        <ele>208.26</ele>
        <time>2021-08-18T16:16:50Z</time>
      </trkpt>
      <trkpt lat="43.6259" lon="0.84501">
        <ele>210.19</ele>
        <time>2021-08-18T16:16:59Z</time>
      </trkpt>
      <trkpt lat="43.62614" lon="0.8449">
        <ele>211.63</ele>
        <time>2021-08-18T16:17:10Z</time>
      </trkpt>
      <trkpt lat="43.62619" lon="0.84488">
        <ele>212.11</ele>
        <time>2021-08-18T16:17:12Z</time>
      </trkpt>
      <trkpt lat="43.62623" lon="0.84479">
        <ele>213.55</ele>
        <time>2021-08-18T16:17:17Z</time>
      </trkpt>
      <trkpt lat="43.62622" lon="0.84474">
        <ele>214.99</ele>
        <time>2021-08-18T16:17:21Z</time>
      </trkpt>
      <trkpt lat="43.62623" lon="0.84471">
        <ele>215.47</ele>
        <time>2021-08-18T16:17:30Z</time>
      </trkpt>
      <trkpt lat="43.62622" lon="0.84462">
        <ele>212.11</ele>
        <time>2021-08-18T16:17:37Z</time>
      </trkpt>
      <trkpt lat="43.62621" lon="0.84459">
        <ele>211.15</ele>
        <time>2021-08-18T16:17:39Z</time>
      </trkpt>
      <trkpt lat="43.62621" lon="0.84453">
        <ele>210.67</ele>
        <time>2021-08-18T16:17:43Z</time>
      </trkpt>
      <trkpt lat="43.62618" lon="0.84448">
        <ele>210.67</ele>
        <time>2021-08-18T16:17:46Z</time>
      </trkpt>
      <trkpt lat="43.62608" lon="0.84448">
        <ele>210.67</ele>
        <time>2021-08-18T16:17:52Z</time>
      </trkpt>
      <trkpt lat="43.62606" lon="0.84449">
        <ele>210.67</ele>
        <time>2021-08-18T16:17:53Z</time>
      </trkpt>
      <trkpt lat="43.62588" lon="0.84447">
        <ele>210.67</ele>
        <time>2021-08-18T16:17:59Z</time>
      </trkpt>
      <trkpt lat="43.6258" lon="0.84442">
        <ele>210.67</ele>
        <time>2021-08-18T16:18:02Z</time>
      </trkpt>
      <trkpt lat="43.62581" lon="0.84433">
        <ele>210.19</ele>
        <time>2021-08-18T16:18:09Z</time>
      </trkpt>
      <trkpt lat="43.62569" lon="0.84419">
        <ele>208.74</ele>
        <time>2021-08-18T16:18:16Z</time>
      </trkpt>
      <trkpt lat="43.62565" lon="0.8441">
        <ele>208.74</ele>
        <time>2021-08-18T16:18:18Z</time>
      </trkpt>
      <trkpt lat="43.62554" lon="0.84371">
        <ele>207.78</ele>
        <time>2021-08-18T16:18:25Z</time>
      </trkpt>
      <trkpt lat="43.62554" lon="0.84366">
        <ele>207.78</ele>
        <time>2021-08-18T16:18:26Z</time>
      </trkpt>
      <trkpt lat="43.62555" lon="0.84362">
        <ele>207.3</ele>
        <time>2021-08-18T16:18:27Z</time>
      </trkpt>
      <trkpt lat="43.62556" lon="0.84356">
        <ele>207.3</ele>
        <time>2021-08-18T16:18:29Z</time>
      </trkpt>
      <trkpt lat="43.62556" lon="0.84353">
        <ele>207.3</ele>
        <time>2021-08-18T16:18:30Z</time>
      </trkpt>
      <trkpt lat="43.62554" lon="0.84349">
        <ele>206.82</ele>
        <time>2021-08-18T16:18:31Z</time>
      </trkpt>
      <trkpt lat="43.62551" lon="0.84344">
        <ele>206.82</ele>
        <time>2021-08-18T16:18:32Z</time>
      </trkpt>
      <trkpt lat="43.62548" lon="0.84339">
        <ele>206.34</ele>
        <time>2021-08-18T16:18:33Z</time>
      </trkpt>
      <trkpt lat="43.62518" lon="0.84289">
        <ele>205.86</ele>
        <time>2021-08-18T16:18:41Z</time>
      </trkpt>
      <trkpt lat="43.62485" lon="0.84236">
        <ele>207.3</ele>
        <time>2021-08-18T16:18:50Z</time>
      </trkpt>
      <trkpt lat="43.62462" lon="0.84197">
        <ele>209.7</ele>
        <time>2021-08-18T16:18:59Z</time>
      </trkpt>
      <trkpt lat="43.62445" lon="0.84169">
        <ele>211.63</ele>
        <time>2021-08-18T16:19:06Z</time>
      </trkpt>
      <trkpt lat="43.62425" lon="0.84138">
        <ele>211.63</ele>
        <time>2021-08-18T16:19:15Z</time>
      </trkpt>
      <trkpt lat="43.62415" lon="0.84125">
        <ele>210.67</ele>
        <time>2021-08-18T16:19:19Z</time>
      </trkpt>
      <trkpt lat="43.62412" lon="0.84119">
        <ele>209.7</ele>
        <time>2021-08-18T16:19:20Z</time>
      </trkpt>
      <trkpt lat="43.62403" lon="0.84094">
        <ele>204.9</ele>
        <time>2021-08-18T16:19:23Z</time>
      </trkpt>
      <trkpt lat="43.624" lon="0.84084">
        <ele>204.9</ele>
        <time>2021-08-18T16:19:24Z</time>
      </trkpt>
      <trkpt lat="43.62396" lon="0.84072">
        <ele>201.53</ele>
        <time>2021-08-18T16:19:25Z</time>
      </trkpt>
      <trkpt lat="43.62386" lon="0.84048">
        <ele>198.17</ele>
        <time>2021-08-18T16:19:27Z</time>
      </trkpt>
      <trkpt lat="43.62372" lon="0.8401">
        <ele>194.8</ele>
        <time>2021-08-18T16:19:30Z</time>
      </trkpt>
      <trkpt lat="43.62362" lon="0.83986">
        <ele>191.44</ele>
        <time>2021-08-18T16:19:32Z</time>
      </trkpt>
      <trkpt lat="43.62357" lon="0.83974">
        <ele>191.44</ele>
        <time>2021-08-18T16:19:33Z</time>
      </trkpt>
      <trkpt lat="43.62347" lon="0.83951">
        <ele>190</ele>
        <time>2021-08-18T16:19:35Z</time>
      </trkpt>
      <trkpt lat="43.62342" lon="0.8394">
        <ele>188.56</ele>
        <time>2021-08-18T16:19:36Z</time>
      </trkpt>
      <trkpt lat="43.62336" lon="0.8393">
        <ele>188.08</ele>
        <time>2021-08-18T16:19:37Z</time>
      </trkpt>
      <trkpt lat="43.62318" lon="0.83901">
        <ele>183.75</ele>
        <time>2021-08-18T16:19:40Z</time>
      </trkpt>
      <trkpt lat="43.62311" lon="0.83888">
        <ele>182.79</ele>
        <time>2021-08-18T16:19:41Z</time>
      </trkpt>
      <trkpt lat="43.62306" lon="0.83877">
        <ele>181.83</ele>
        <time>2021-08-18T16:19:42Z</time>
      </trkpt>
      <trkpt lat="43.6228" lon="0.83819">
        <ele>180.38</ele>
        <time>2021-08-18T16:19:47Z</time>
      </trkpt>
      <trkpt lat="43.62257" lon="0.83778">
        <ele>177.5</ele>
        <time>2021-08-18T16:19:51Z</time>
      </trkpt>
      <trkpt lat="43.62252" lon="0.83766">
        <ele>176.54</ele>
        <time>2021-08-18T16:19:52Z</time>
      </trkpt>
      <trkpt lat="43.62237" lon="0.83724">
        <ele>176.06</ele>
        <time>2021-08-18T16:19:56Z</time>
      </trkpt>
      <trkpt lat="43.62235" lon="0.83719">
        <ele>176.06</ele>
        <time>2021-08-18T16:19:57Z</time>
      </trkpt>
      <trkpt lat="43.62232" lon="0.83697">
        <ele>176.54</ele>
        <time>2021-08-18T16:20:03Z</time>
      </trkpt>
      <trkpt lat="43.62231" lon="0.8369">
        <ele>177.5</ele>
        <time>2021-08-18T16:20:05Z</time>
      </trkpt>
      <trkpt lat="43.62229" lon="0.8367">
        <ele>178.94</ele>
        <time>2021-08-18T16:20:11Z</time>
      </trkpt>
      <trkpt lat="43.62229" lon="0.83665">
        <ele>178.94</ele>
        <time>2021-08-18T16:20:16Z</time>
      </trkpt>
      <trkpt lat="43.62233" lon="0.83666">
        <ele>178.94</ele>
        <time>2021-08-18T16:20:38Z</time>
      </trkpt>
      <trkpt lat="43.62231" lon="0.83659">
        <ele>178.94</ele>
        <time>2021-08-18T16:20:55Z</time>
      </trkpt>
      <trkpt lat="43.6223" lon="0.83643">
        <ele>179.42</ele>
        <time>2021-08-18T16:21:01Z</time>
      </trkpt>
      <trkpt lat="43.62227" lon="0.83617">
        <ele>179.9</ele>
        <time>2021-08-18T16:21:07Z</time>
      </trkpt>
      <trkpt lat="43.62223" lon="0.83593">
        <ele>181.83</ele>
        <time>2021-08-18T16:21:14Z</time>
      </trkpt>
      <trkpt lat="43.6222" lon="0.83576">
        <ele>182.79</ele>
        <time>2021-08-18T16:21:21Z</time>
      </trkpt>
      <trkpt lat="43.62213" lon="0.83547">
        <ele>184.71</ele>
        <time>2021-08-18T16:21:31Z</time>
      </trkpt>
      <trkpt lat="43.62208" lon="0.83528">
        <ele>185.67</ele>
        <time>2021-08-18T16:21:38Z</time>
      </trkpt>
      <trkpt lat="43.62199" lon="0.83498">
        <ele>187.11</ele>
        <time>2021-08-18T16:21:48Z</time>
      </trkpt>
      <trkpt lat="43.62189" lon="0.83466">
        <ele>188.08</ele>
        <time>2021-08-18T16:21:58Z</time>
      </trkpt>
      <trkpt lat="43.62183" lon="0.8345">
        <ele>189.04</ele>
        <time>2021-08-18T16:22:04Z</time>
      </trkpt>
      <trkpt lat="43.62177" lon="0.83434">
        <ele>190</ele>
        <time>2021-08-18T16:22:11Z</time>
      </trkpt>
      <trkpt lat="43.62172" lon="0.83416">
        <ele>191.92</ele>
        <time>2021-08-18T16:22:20Z</time>
      </trkpt>
      <trkpt lat="43.62166" lon="0.83403">
        <ele>193.36</ele>
        <time>2021-08-18T16:22:30Z</time>
      </trkpt>
      <trkpt lat="43.62164" lon="0.83399">
        <ele>193.84</ele>
        <time>2021-08-18T16:22:33Z</time>
      </trkpt>
      <trkpt lat="43.62163" lon="0.83398">
        <ele>193.84</ele>
        <time>2021-08-18T16:22:34Z</time>
      </trkpt>
      <trkpt lat="43.62159" lon="0.83391">
        <ele>194.8</ele>
        <time>2021-08-18T16:22:42Z</time>
      </trkpt>
      <trkpt lat="43.62153" lon="0.83381">
        <ele>194.8</ele>
        <time>2021-08-18T16:22:48Z</time>
      </trkpt>
      <trkpt lat="43.62139" lon="0.83358">
        <ele>195.77</ele>
        <time>2021-08-18T16:22:56Z</time>
      </trkpt>
      <trkpt lat="43.62127" lon="0.83328">
        <ele>196.25</ele>
        <time>2021-08-18T16:23:04Z</time>
      </trkpt>
      <trkpt lat="43.62118" lon="0.83301">
        <ele>197.21</ele>
        <time>2021-08-18T16:23:11Z</time>
      </trkpt>
      <trkpt lat="43.62112" lon="0.8328">
        <ele>198.17</ele>
        <time>2021-08-18T16:23:17Z</time>
      </trkpt>
      <trkpt lat="43.62106" lon="0.83256">
        <ele>199.13</ele>
        <time>2021-08-18T16:23:24Z</time>
      </trkpt>
      <trkpt lat="43.62101" lon="0.83236">
        <ele>200.09</ele>
        <time>2021-08-18T16:23:31Z</time>
      </trkpt>
      <trkpt lat="43.62097" lon="0.83218">
        <ele>202.01</ele>
        <time>2021-08-18T16:23:39Z</time>
      </trkpt>
      <trkpt lat="43.62092" lon="0.83202">
        <ele>202.49</ele>
        <time>2021-08-18T16:23:47Z</time>
      </trkpt>
      <trkpt lat="43.62086" lon="0.83181">
        <ele>203.46</ele>
        <time>2021-08-18T16:23:56Z</time>
      </trkpt>
      <trkpt lat="43.6208" lon="0.83162">
        <ele>205.38</ele>
        <time>2021-08-18T16:24:05Z</time>
      </trkpt>
      <trkpt lat="43.62077" lon="0.83154">
        <ele>205.38</ele>
        <time>2021-08-18T16:24:11Z</time>
      </trkpt>
      <trkpt lat="43.62074" lon="0.83143">
        <ele>206.34</ele>
        <time>2021-08-18T16:24:16Z</time>
      </trkpt>
      <trkpt lat="43.62069" lon="0.83122">
        <ele>207.78</ele>
        <time>2021-08-18T16:24:23Z</time>
      </trkpt>
      <trkpt lat="43.62064" lon="0.831">
        <ele>209.22</ele>
        <time>2021-08-18T16:24:31Z</time>
      </trkpt>
      <trkpt lat="43.62062" lon="0.83087">
        <ele>209.7</ele>
        <time>2021-08-18T16:24:36Z</time>
      </trkpt>
      <trkpt lat="43.62062" lon="0.83085">
        <ele>209.7</ele>
        <time>2021-08-18T16:24:37Z</time>
      </trkpt>
      <trkpt lat="43.62062" lon="0.83082">
        <ele>209.7</ele>
        <time>2021-08-18T16:24:38Z</time>
      </trkpt>
      <trkpt lat="43.62062" lon="0.8308">
        <ele>210.67</ele>
        <time>2021-08-18T16:24:39Z</time>
      </trkpt>
      <trkpt lat="43.62061" lon="0.83077">
        <ele>210.67</ele>
        <time>2021-08-18T16:24:40Z</time>
      </trkpt>
      <trkpt lat="43.6206" lon="0.83075">
        <ele>210.67</ele>
        <time>2021-08-18T16:24:41Z</time>
      </trkpt>
      <trkpt lat="43.6206" lon="0.83072">
        <ele>211.15</ele>
        <time>2021-08-18T16:24:42Z</time>
      </trkpt>
      <trkpt lat="43.62059" lon="0.8307">
        <ele>211.15</ele>
        <time>2021-08-18T16:24:43Z</time>
      </trkpt>
      <trkpt lat="43.62059" lon="0.83067">
        <ele>211.63</ele>
        <time>2021-08-18T16:24:44Z</time>
      </trkpt>
      <trkpt lat="43.62056" lon="0.83052">
        <ele>212.11</ele>
        <time>2021-08-18T16:24:51Z</time>
      </trkpt>
      <trkpt lat="43.62052" lon="0.83037">
        <ele>213.07</ele>
        <time>2021-08-18T16:24:57Z</time>
      </trkpt>
      <trkpt lat="43.62047" lon="0.8302">
        <ele>214.51</ele>
        <time>2021-08-18T16:25:05Z</time>
      </trkpt>
      <trkpt lat="43.62044" lon="0.83003">
        <ele>215.95</ele>
        <time>2021-08-18T16:25:12Z</time>
      </trkpt>
      <trkpt lat="43.6204" lon="0.82986">
        <ele>216.91</ele>
        <time>2021-08-18T16:25:19Z</time>
      </trkpt>
      <trkpt lat="43.62036" lon="0.82966">
        <ele>217.88</ele>
        <time>2021-08-18T16:25:27Z</time>
      </trkpt>
      <trkpt lat="43.62036" lon="0.82942">
        <ele>219.8</ele>
        <time>2021-08-18T16:25:37Z</time>
      </trkpt>
      <trkpt lat="43.62037" lon="0.8292">
        <ele>222.2</ele>
        <time>2021-08-18T16:25:46Z</time>
      </trkpt>
      <trkpt lat="43.62038" lon="0.82897">
        <ele>223.64</ele>
        <time>2021-08-18T16:25:53Z</time>
      </trkpt>
      <trkpt lat="43.62038" lon="0.82872">
        <ele>224.61</ele>
        <time>2021-08-18T16:26:01Z</time>
      </trkpt>
      <trkpt lat="43.62039" lon="0.82862">
        <ele>224.61</ele>
        <time>2021-08-18T16:26:05Z</time>
      </trkpt>
      <trkpt lat="43.62039" lon="0.82859">
        <ele>224.61</ele>
        <time>2021-08-18T16:26:06Z</time>
      </trkpt>
      <trkpt lat="43.62038" lon="0.82856">
        <ele>224.61</ele>
        <time>2021-08-18T16:26:07Z</time>
      </trkpt>
      <trkpt lat="43.62037" lon="0.82854">
        <ele>225.09</ele>
        <time>2021-08-18T16:26:08Z</time>
      </trkpt>
      <trkpt lat="43.62036" lon="0.82852">
        <ele>225.57</ele>
        <time>2021-08-18T16:26:09Z</time>
      </trkpt>
      <trkpt lat="43.62035" lon="0.82849">
        <ele>225.57</ele>
        <time>2021-08-18T16:26:10Z</time>
      </trkpt>
      <trkpt lat="43.62033" lon="0.8284">
        <ele>225.57</ele>
        <time>2021-08-18T16:26:13Z</time>
      </trkpt>
      <trkpt lat="43.62034" lon="0.82836">
        <ele>225.57</ele>
        <time>2021-08-18T16:26:14Z</time>
      </trkpt>
      <trkpt lat="43.62034" lon="0.82833">
        <ele>225.57</ele>
        <time>2021-08-18T16:26:15Z</time>
      </trkpt>
      <trkpt lat="43.62035" lon="0.82829">
        <ele>225.57</ele>
        <time>2021-08-18T16:26:16Z</time>
      </trkpt>
      <trkpt lat="43.62037" lon="0.82824">
        <ele>225.57</ele>
        <time>2021-08-18T16:26:17Z</time>
      </trkpt>
      <trkpt lat="43.62048" lon="0.82795">
        <ele>226.05</ele>
        <time>2021-08-18T16:26:24Z</time>
      </trkpt>
      <trkpt lat="43.62052" lon="0.82769">
        <ele>226.05</ele>
        <time>2021-08-18T16:26:30Z</time>
      </trkpt>
      <trkpt lat="43.62049" lon="0.82739">
        <ele>224.61</ele>
        <time>2021-08-18T16:26:35Z</time>
      </trkpt>
      <trkpt lat="43.62045" lon="0.82694">
        <ele>221.24</ele>
        <time>2021-08-18T16:26:40Z</time>
      </trkpt>
      <trkpt lat="43.62043" lon="0.82639">
        <ele>218.36</ele>
        <time>2021-08-18T16:26:45Z</time>
      </trkpt>
      <trkpt lat="43.62043" lon="0.82586">
        <ele>214.99</ele>
        <time>2021-08-18T16:26:49Z</time>
      </trkpt>
      <trkpt lat="43.62041" lon="0.82528">
        <ele>211.63</ele>
        <time>2021-08-18T16:26:53Z</time>
      </trkpt>
      <trkpt lat="43.6204" lon="0.82497">
        <ele>208.26</ele>
        <time>2021-08-18T16:26:55Z</time>
      </trkpt>
      <trkpt lat="43.62039" lon="0.82469">
        <ele>207.3</ele>
        <time>2021-08-18T16:26:57Z</time>
      </trkpt>
      <trkpt lat="43.62038" lon="0.82417">
        <ele>209.22</ele>
        <time>2021-08-18T16:27:01Z</time>
      </trkpt>
      <trkpt lat="43.62035" lon="0.8236">
        <ele>210.67</ele>
        <time>2021-08-18T16:27:07Z</time>
      </trkpt>
      <trkpt lat="43.62033" lon="0.82319">
        <ele>207.3</ele>
        <time>2021-08-18T16:27:11Z</time>
      </trkpt>
      <trkpt lat="43.62032" lon="0.82306">
        <ele>207.3</ele>
        <time>2021-08-18T16:27:12Z</time>
      </trkpt>
      <trkpt lat="43.6203" lon="0.82271">
        <ele>205.86</ele>
        <time>2021-08-18T16:27:15Z</time>
      </trkpt>
      <trkpt lat="43.62022" lon="0.82134">
        <ele>203.46</ele>
        <time>2021-08-18T16:27:27Z</time>
      </trkpt>
      <trkpt lat="43.62022" lon="0.82058">
        <ele>200.09</ele>
        <time>2021-08-18T16:27:34Z</time>
      </trkpt>
      <trkpt lat="43.62023" lon="0.82048">
        <ele>200.09</ele>
        <time>2021-08-18T16:27:35Z</time>
      </trkpt>
      <trkpt lat="43.62036" lon="0.81948">
        <ele>198.17</ele>
        <time>2021-08-18T16:27:44Z</time>
      </trkpt>
      <trkpt lat="43.62053" lon="0.81891">
        <ele>198.17</ele>
        <time>2021-08-18T16:27:50Z</time>
      </trkpt>
      <trkpt lat="43.6206" lon="0.81875">
        <ele>198.17</ele>
        <time>2021-08-18T16:27:52Z</time>
      </trkpt>
      <trkpt lat="43.62064" lon="0.81869">
        <ele>197.69</ele>
        <time>2021-08-18T16:27:53Z</time>
      </trkpt>
      <trkpt lat="43.62068" lon="0.81862">
        <ele>197.69</ele>
        <time>2021-08-18T16:27:54Z</time>
      </trkpt>
      <trkpt lat="43.62077" lon="0.81852">
        <ele>197.69</ele>
        <time>2021-08-18T16:27:56Z</time>
      </trkpt>
      <trkpt lat="43.62082" lon="0.81847">
        <ele>197.69</ele>
        <time>2021-08-18T16:27:57Z</time>
      </trkpt>
      <trkpt lat="43.62086" lon="0.81842">
        <ele>197.69</ele>
        <time>2021-08-18T16:27:58Z</time>
      </trkpt>
      <trkpt lat="43.62098" lon="0.81825">
        <ele>198.17</ele>
        <time>2021-08-18T16:28:03Z</time>
      </trkpt>
      <trkpt lat="43.621" lon="0.81819">
        <ele>199.61</ele>
        <time>2021-08-18T16:28:05Z</time>
      </trkpt>
      <trkpt lat="43.62098" lon="0.81809">
        <ele>199.61</ele>
        <time>2021-08-18T16:28:08Z</time>
      </trkpt>
      <trkpt lat="43.62095" lon="0.81806">
        <ele>199.61</ele>
        <time>2021-08-18T16:28:09Z</time>
      </trkpt>
      <trkpt lat="43.62092" lon="0.81803">
        <ele>199.61</ele>
        <time>2021-08-18T16:28:10Z</time>
      </trkpt>
      <trkpt lat="43.62084" lon="0.81785">
        <ele>199.61</ele>
        <time>2021-08-18T16:28:14Z</time>
      </trkpt>
      <trkpt lat="43.62083" lon="0.81779">
        <ele>199.61</ele>
        <time>2021-08-18T16:28:15Z</time>
      </trkpt>
      <trkpt lat="43.62083" lon="0.81773">
        <ele>200.09</ele>
        <time>2021-08-18T16:28:16Z</time>
      </trkpt>
      <trkpt lat="43.62085" lon="0.81734">
        <ele>200.57</ele>
        <time>2021-08-18T16:28:24Z</time>
      </trkpt>
      <trkpt lat="43.62087" lon="0.81701">
        <ele>200.57</ele>
        <time>2021-08-18T16:28:33Z</time>
      </trkpt>
      <trkpt lat="43.62088" lon="0.81672">
        <ele>202.49</ele>
        <time>2021-08-18T16:28:42Z</time>
      </trkpt>
      <trkpt lat="43.6209" lon="0.81643">
        <ele>203.94</ele>
        <time>2021-08-18T16:28:51Z</time>
      </trkpt>
      <trkpt lat="43.62091" lon="0.81629">
        <ele>204.42</ele>
        <time>2021-08-18T16:28:57Z</time>
      </trkpt>
      <trkpt lat="43.62091" lon="0.81613">
        <ele>204.9</ele>
        <time>2021-08-18T16:29:04Z</time>
      </trkpt>
      <trkpt lat="43.62093" lon="0.81593">
        <ele>206.34</ele>
        <time>2021-08-18T16:29:13Z</time>
      </trkpt>
      <trkpt lat="43.62094" lon="0.81567">
        <ele>208.26</ele>
        <time>2021-08-18T16:29:24Z</time>
      </trkpt>
      <trkpt lat="43.62095" lon="0.81554">
        <ele>208.74</ele>
        <time>2021-08-18T16:29:30Z</time>
      </trkpt>
      <trkpt lat="43.62095" lon="0.81551">
        <ele>208.74</ele>
        <time>2021-08-18T16:29:31Z</time>
      </trkpt>
      <trkpt lat="43.62095" lon="0.81549">
        <ele>208.74</ele>
        <time>2021-08-18T16:29:32Z</time>
      </trkpt>
      <trkpt lat="43.62097" lon="0.81527">
        <ele>210.19</ele>
        <time>2021-08-18T16:29:41Z</time>
      </trkpt>
      <trkpt lat="43.62098" lon="0.81507">
        <ele>210.67</ele>
        <time>2021-08-18T16:29:49Z</time>
      </trkpt>
      <trkpt lat="43.62101" lon="0.81488">
        <ele>212.11</ele>
        <time>2021-08-18T16:29:57Z</time>
      </trkpt>
      <trkpt lat="43.62104" lon="0.81468">
        <ele>212.59</ele>
        <time>2021-08-18T16:30:05Z</time>
      </trkpt>
      <trkpt lat="43.62107" lon="0.81441">
        <ele>214.03</ele>
        <time>2021-08-18T16:30:15Z</time>
      </trkpt>
      <trkpt lat="43.62112" lon="0.81406">
        <ele>215.47</ele>
        <time>2021-08-18T16:30:26Z</time>
      </trkpt>
      <trkpt lat="43.62114" lon="0.81384">
        <ele>214.99</ele>
        <time>2021-08-18T16:30:33Z</time>
      </trkpt>
      <trkpt lat="43.62116" lon="0.81347">
        <ele>215.95</ele>
        <time>2021-08-18T16:30:43Z</time>
      </trkpt>
      <trkpt lat="43.62117" lon="0.81316">
        <ele>218.36</ele>
        <time>2021-08-18T16:30:53Z</time>
      </trkpt>
      <trkpt lat="43.62117" lon="0.81288">
        <ele>218.84</ele>
        <time>2021-08-18T16:31:02Z</time>
      </trkpt>
      <trkpt lat="43.62116" lon="0.81267">
        <ele>219.8</ele>
        <time>2021-08-18T16:31:10Z</time>
      </trkpt>
      <trkpt lat="43.62116" lon="0.81246">
        <ele>220.28</ele>
        <time>2021-08-18T16:31:18Z</time>
      </trkpt>
      <trkpt lat="43.62116" lon="0.81218">
        <ele>222.2</ele>
        <time>2021-08-18T16:31:27Z</time>
      </trkpt>
      <trkpt lat="43.62115" lon="0.81186">
        <ele>223.64</ele>
        <time>2021-08-18T16:31:37Z</time>
      </trkpt>
      <trkpt lat="43.62114" lon="0.81164">
        <ele>224.61</ele>
        <time>2021-08-18T16:31:45Z</time>
      </trkpt>
      <trkpt lat="43.62113" lon="0.81142">
        <ele>225.57</ele>
        <time>2021-08-18T16:31:54Z</time>
      </trkpt>
      <trkpt lat="43.62112" lon="0.81121">
        <ele>227.01</ele>
        <time>2021-08-18T16:32:02Z</time>
      </trkpt>
      <trkpt lat="43.62111" lon="0.81096">
        <ele>227.97</ele>
        <time>2021-08-18T16:32:12Z</time>
      </trkpt>
      <trkpt lat="43.6211" lon="0.81079">
        <ele>228.93</ele>
        <time>2021-08-18T16:32:19Z</time>
      </trkpt>
      <trkpt lat="43.62109" lon="0.81058">
        <ele>230.85</ele>
        <time>2021-08-18T16:32:28Z</time>
      </trkpt>
      <trkpt lat="43.62108" lon="0.81039">
        <ele>232.3</ele>
        <time>2021-08-18T16:32:36Z</time>
      </trkpt>
      <trkpt lat="43.62107" lon="0.81016">
        <ele>233.26</ele>
        <time>2021-08-18T16:32:45Z</time>
      </trkpt>
      <trkpt lat="43.62103" lon="0.80997">
        <ele>234.22</ele>
        <time>2021-08-18T16:32:53Z</time>
      </trkpt>
      <trkpt lat="43.62101" lon="0.80979">
        <ele>235.18</ele>
        <time>2021-08-18T16:32:59Z</time>
      </trkpt>
      <trkpt lat="43.62094" lon="0.80954">
        <ele>233.74</ele>
        <time>2021-08-18T16:33:05Z</time>
      </trkpt>
      <trkpt lat="43.62092" lon="0.80948">
        <ele>233.74</ele>
        <time>2021-08-18T16:33:06Z</time>
      </trkpt>
      <trkpt lat="43.62084" lon="0.80927">
        <ele>231.33</ele>
        <time>2021-08-18T16:33:09Z</time>
      </trkpt>
      <trkpt lat="43.62081" lon="0.8092">
        <ele>230.37</ele>
        <time>2021-08-18T16:33:10Z</time>
      </trkpt>
      <trkpt lat="43.62077" lon="0.80913">
        <ele>228.93</ele>
        <time>2021-08-18T16:33:11Z</time>
      </trkpt>
      <trkpt lat="43.62071" lon="0.80906">
        <ele>227.97</ele>
        <time>2021-08-18T16:33:12Z</time>
      </trkpt>
      <trkpt lat="43.62064" lon="0.80899">
        <ele>227.49</ele>
        <time>2021-08-18T16:33:13Z</time>
      </trkpt>
      <trkpt lat="43.62057" lon="0.80893">
        <ele>226.05</ele>
        <time>2021-08-18T16:33:14Z</time>
      </trkpt>
      <trkpt lat="43.6205" lon="0.80886">
        <ele>226.05</ele>
        <time>2021-08-18T16:33:15Z</time>
      </trkpt>
      <trkpt lat="43.62005" lon="0.80838">
        <ele>223.16</ele>
        <time>2021-08-18T16:33:22Z</time>
      </trkpt>
      <trkpt lat="43.61982" lon="0.80815">
        <ele>223.64</ele>
        <time>2021-08-18T16:33:26Z</time>
      </trkpt>
      <trkpt lat="43.61956" lon="0.80782">
        <ele>223.16</ele>
        <time>2021-08-18T16:33:32Z</time>
      </trkpt>
      <trkpt lat="43.61952" lon="0.80777">
        <ele>223.16</ele>
        <time>2021-08-18T16:33:33Z</time>
      </trkpt>
      <trkpt lat="43.6195" lon="0.80772">
        <ele>223.16</ele>
        <time>2021-08-18T16:33:34Z</time>
      </trkpt>
      <trkpt lat="43.61932" lon="0.80743">
        <ele>224.61</ele>
        <time>2021-08-18T16:33:42Z</time>
      </trkpt>
      <trkpt lat="43.61913" lon="0.80707">
        <ele>225.09</ele>
        <time>2021-08-18T16:33:53Z</time>
      </trkpt>
      <trkpt lat="43.61901" lon="0.80687">
        <ele>225.09</ele>
        <time>2021-08-18T16:34:00Z</time>
      </trkpt>
      <trkpt lat="43.61889" lon="0.80662">
        <ele>226.05</ele>
        <time>2021-08-18T16:34:08Z</time>
      </trkpt>
      <trkpt lat="43.61872" lon="0.8063">
        <ele>227.01</ele>
        <time>2021-08-18T16:34:18Z</time>
      </trkpt>
      <trkpt lat="43.61859" lon="0.80606">
        <ele>227.97</ele>
        <time>2021-08-18T16:34:26Z</time>
      </trkpt>
      <trkpt lat="43.61844" lon="0.80576">
        <ele>229.41</ele>
        <time>2021-08-18T16:34:36Z</time>
      </trkpt>
      <trkpt lat="43.61838" lon="0.80558">
        <ele>229.89</ele>
        <time>2021-08-18T16:34:42Z</time>
      </trkpt>
      <trkpt lat="43.61832" lon="0.80533">
        <ele>231.33</ele>
        <time>2021-08-18T16:34:50Z</time>
      </trkpt>
      <trkpt lat="43.61827" lon="0.80508">
        <ele>232.78</ele>
        <time>2021-08-18T16:34:58Z</time>
      </trkpt>
      <trkpt lat="43.61822" lon="0.80477">
        <ele>234.22</ele>
        <time>2021-08-18T16:35:07Z</time>
      </trkpt>
      <trkpt lat="43.61817" lon="0.80448">
        <ele>234.7</ele>
        <time>2021-08-18T16:35:15Z</time>
      </trkpt>
      <trkpt lat="43.61811" lon="0.80413">
        <ele>236.14</ele>
        <time>2021-08-18T16:35:25Z</time>
      </trkpt>
      <trkpt lat="43.61806" lon="0.80381">
        <ele>238.06</ele>
        <time>2021-08-18T16:35:34Z</time>
      </trkpt>
      <trkpt lat="43.61803" lon="0.80361">
        <ele>238.54</ele>
        <time>2021-08-18T16:35:40Z</time>
      </trkpt>
      <trkpt lat="43.61806" lon="0.80329">
        <ele>238.54</ele>
        <time>2021-08-18T16:35:48Z</time>
      </trkpt>
      <trkpt lat="43.6181" lon="0.80297">
        <ele>238.54</ele>
        <time>2021-08-18T16:35:56Z</time>
      </trkpt>
      <trkpt lat="43.61817" lon="0.80268">
        <ele>237.1</ele>
        <time>2021-08-18T16:36:02Z</time>
      </trkpt>
      <trkpt lat="43.61829" lon="0.80217">
        <ele>236.14</ele>
        <time>2021-08-18T16:36:12Z</time>
      </trkpt>
      <trkpt lat="43.61834" lon="0.80198">
        <ele>236.14</ele>
        <time>2021-08-18T16:36:17Z</time>
      </trkpt>
      <trkpt lat="43.61833" lon="0.80199">
        <ele>236.14</ele>
        <time>2021-08-18T16:36:26Z</time>
      </trkpt>
      <trkpt lat="43.61834" lon="0.80198">
        <ele>236.14</ele>
        <time>2021-08-18T16:36:52Z</time>
      </trkpt>
      <trkpt lat="43.61834" lon="0.80198">
        <ele>236.14</ele>
        <time>2021-08-18T16:37:10Z</time>
      </trkpt>
      <trkpt lat="43.61835" lon="0.80193">
        <ele>236.14</ele>
        <time>2021-08-18T16:37:21Z</time>
      </trkpt>
      <trkpt lat="43.6184" lon="0.80163">
        <ele>234.7</ele>
        <time>2021-08-18T16:37:27Z</time>
      </trkpt>
      <trkpt lat="43.61843" lon="0.80151">
        <ele>234.22</ele>
        <time>2021-08-18T16:37:29Z</time>
      </trkpt>
      <trkpt lat="43.61851" lon="0.80114">
        <ele>231.33</ele>
        <time>2021-08-18T16:37:34Z</time>
      </trkpt>
      <trkpt lat="43.61855" lon="0.80097">
        <ele>230.37</ele>
        <time>2021-08-18T16:37:36Z</time>
      </trkpt>
      <trkpt lat="43.61863" lon="0.8006">
        <ele>228.45</ele>
        <time>2021-08-18T16:37:40Z</time>
      </trkpt>
      <trkpt lat="43.61878" lon="0.7999">
        <ele>226.05</ele>
        <time>2021-08-18T16:37:47Z</time>
      </trkpt>
      <trkpt lat="43.61898" lon="0.7991">
        <ele>223.64</ele>
        <time>2021-08-18T16:37:55Z</time>
      </trkpt>
      <trkpt lat="43.61907" lon="0.79873">
        <ele>225.09</ele>
        <time>2021-08-18T16:37:59Z</time>
      </trkpt>
      <trkpt lat="43.61923" lon="0.79811">
        <ele>225.57</ele>
        <time>2021-08-18T16:38:07Z</time>
      </trkpt>
      <trkpt lat="43.61946" lon="0.7973">
        <ele>224.12</ele>
        <time>2021-08-18T16:38:18Z</time>
      </trkpt>
      <trkpt lat="43.61969" lon="0.79649">
        <ele>223.16</ele>
        <time>2021-08-18T16:38:28Z</time>
      </trkpt>
      <trkpt lat="43.61976" lon="0.79581">
        <ele>220.28</ele>
        <time>2021-08-18T16:38:35Z</time>
      </trkpt>
      <trkpt lat="43.61979" lon="0.79537">
        <ele>218.36</ele>
        <time>2021-08-18T16:38:39Z</time>
      </trkpt>
      <trkpt lat="43.61976" lon="0.7949">
        <ele>215.95</ele>
        <time>2021-08-18T16:38:43Z</time>
      </trkpt>
      <trkpt lat="43.61971" lon="0.79451">
        <ele>213.07</ele>
        <time>2021-08-18T16:38:46Z</time>
      </trkpt>
      <trkpt lat="43.6196" lon="0.79398">
        <ele>209.7</ele>
        <time>2021-08-18T16:38:50Z</time>
      </trkpt>
      <trkpt lat="43.61947" lon="0.79344">
        <ele>207.78</ele>
        <time>2021-08-18T16:38:54Z</time>
      </trkpt>
      <trkpt lat="43.61932" lon="0.79264">
        <ele>204.42</ele>
        <time>2021-08-18T16:39:00Z</time>
      </trkpt>
      <trkpt lat="43.61928" lon="0.79195">
        <ele>201.05</ele>
        <time>2021-08-18T16:39:05Z</time>
      </trkpt>
      <trkpt lat="43.61929" lon="0.79181">
        <ele>201.05</ele>
        <time>2021-08-18T16:39:06Z</time>
      </trkpt>
      <trkpt lat="43.61936" lon="0.79105">
        <ele>200.57</ele>
        <time>2021-08-18T16:39:12Z</time>
      </trkpt>
      <trkpt lat="43.61942" lon="0.79071">
        <ele>199.13</ele>
        <time>2021-08-18T16:39:15Z</time>
      </trkpt>
      <trkpt lat="43.61949" lon="0.7903">
        <ele>200.57</ele>
        <time>2021-08-18T16:39:19Z</time>
      </trkpt>
      <trkpt lat="43.61959" lon="0.78965">
        <ele>200.57</ele>
        <time>2021-08-18T16:39:26Z</time>
      </trkpt>
      <trkpt lat="43.6197" lon="0.78904">
        <ele>201.53</ele>
        <time>2021-08-18T16:39:34Z</time>
      </trkpt>
      <trkpt lat="43.61978" lon="0.78853">
        <ele>202.49</ele>
        <time>2021-08-18T16:39:41Z</time>
      </trkpt>
      <trkpt lat="43.61994" lon="0.78768">
        <ele>202.49</ele>
        <time>2021-08-18T16:39:52Z</time>
      </trkpt>
      <trkpt lat="43.62008" lon="0.78689">
        <ele>202.49</ele>
        <time>2021-08-18T16:40:02Z</time>
      </trkpt>
      <trkpt lat="43.62024" lon="0.78607">
        <ele>202.98</ele>
        <time>2021-08-18T16:40:13Z</time>
      </trkpt>
      <trkpt lat="43.62026" lon="0.78553">
        <ele>202.98</ele>
        <time>2021-08-18T16:40:20Z</time>
      </trkpt>
      <trkpt lat="43.62025" lon="0.78485">
        <ele>200.09</ele>
        <time>2021-08-18T16:40:27Z</time>
      </trkpt>
      <trkpt lat="43.62025" lon="0.78389">
        <ele>199.61</ele>
        <time>2021-08-18T16:40:37Z</time>
      </trkpt>
      <trkpt lat="43.62024" lon="0.78347">
        <ele>199.61</ele>
        <time>2021-08-18T16:40:42Z</time>
      </trkpt>
      <trkpt lat="43.62022" lon="0.78339">
        <ele>200.09</ele>
        <time>2021-08-18T16:40:43Z</time>
      </trkpt>
      <trkpt lat="43.62017" lon="0.78334">
        <ele>200.09</ele>
        <time>2021-08-18T16:40:44Z</time>
      </trkpt>
      <trkpt lat="43.62012" lon="0.7833">
        <ele>201.53</ele>
        <time>2021-08-18T16:40:45Z</time>
      </trkpt>
      <trkpt lat="43.62006" lon="0.78329">
        <ele>201.53</ele>
        <time>2021-08-18T16:40:46Z</time>
      </trkpt>
      <trkpt lat="43.62" lon="0.78327">
        <ele>201.53</ele>
        <time>2021-08-18T16:40:47Z</time>
      </trkpt>
      <trkpt lat="43.61994" lon="0.78326">
        <ele>201.53</ele>
        <time>2021-08-18T16:40:48Z</time>
      </trkpt>
      <trkpt lat="43.61979" lon="0.78323">
        <ele>202.49</ele>
        <time>2021-08-18T16:40:51Z</time>
      </trkpt>
      <trkpt lat="43.61974" lon="0.78321">
        <ele>202.98</ele>
        <time>2021-08-18T16:40:52Z</time>
      </trkpt>
      <trkpt lat="43.6197" lon="0.78317">
        <ele>202.98</ele>
        <time>2021-08-18T16:40:53Z</time>
      </trkpt>
      <trkpt lat="43.61966" lon="0.78313">
        <ele>203.46</ele>
        <time>2021-08-18T16:40:54Z</time>
      </trkpt>
      <trkpt lat="43.61962" lon="0.78308">
        <ele>203.46</ele>
        <time>2021-08-18T16:40:55Z</time>
      </trkpt>
      <trkpt lat="43.61959" lon="0.78303">
        <ele>203.46</ele>
        <time>2021-08-18T16:40:56Z</time>
      </trkpt>
      <trkpt lat="43.61957" lon="0.78296">
        <ele>203.46</ele>
        <time>2021-08-18T16:40:57Z</time>
      </trkpt>
      <trkpt lat="43.61954" lon="0.7829">
        <ele>203.46</ele>
        <time>2021-08-18T16:40:58Z</time>
      </trkpt>
      <trkpt lat="43.61952" lon="0.78282">
        <ele>203.46</ele>
        <time>2021-08-18T16:40:59Z</time>
      </trkpt>
      <trkpt lat="43.61928" lon="0.78204">
        <ele>202.01</ele>
        <time>2021-08-18T16:41:09Z</time>
      </trkpt>
      <trkpt lat="43.61909" lon="0.78145">
        <ele>202.01</ele>
        <time>2021-08-18T16:41:17Z</time>
      </trkpt>
      <trkpt lat="43.61894" lon="0.78081">
        <ele>202.01</ele>
        <time>2021-08-18T16:41:25Z</time>
      </trkpt>
      <trkpt lat="43.61894" lon="0.78072">
        <ele>201.53</ele>
        <time>2021-08-18T16:41:26Z</time>
      </trkpt>
      <trkpt lat="43.61894" lon="0.78055">
        <ele>201.53</ele>
        <time>2021-08-18T16:41:28Z</time>
      </trkpt>
      <trkpt lat="43.61902" lon="0.77987">
        <ele>203.46</ele>
        <time>2021-08-18T16:41:37Z</time>
      </trkpt>
      <trkpt lat="43.61903" lon="0.7798">
        <ele>203.46</ele>
        <time>2021-08-18T16:41:38Z</time>
      </trkpt>
      <trkpt lat="43.61916" lon="0.77916">
        <ele>202.98</ele>
        <time>2021-08-18T16:41:47Z</time>
      </trkpt>
      <trkpt lat="43.61922" lon="0.77886">
        <ele>202.01</ele>
        <time>2021-08-18T16:41:51Z</time>
      </trkpt>
      <trkpt lat="43.61924" lon="0.77826">
        <ele>199.61</ele>
        <time>2021-08-18T16:41:58Z</time>
      </trkpt>
      <trkpt lat="43.61922" lon="0.77807">
        <ele>198.65</ele>
        <time>2021-08-18T16:42:00Z</time>
      </trkpt>
      <trkpt lat="43.6192" lon="0.77797">
        <ele>198.65</ele>
        <time>2021-08-18T16:42:01Z</time>
      </trkpt>
      <trkpt lat="43.61917" lon="0.77787">
        <ele>197.21</ele>
        <time>2021-08-18T16:42:02Z</time>
      </trkpt>
      <trkpt lat="43.61913" lon="0.77777">
        <ele>197.21</ele>
        <time>2021-08-18T16:42:03Z</time>
      </trkpt>
      <trkpt lat="43.61908" lon="0.77767">
        <ele>196.25</ele>
        <time>2021-08-18T16:42:04Z</time>
      </trkpt>
      <trkpt lat="43.61902" lon="0.77759">
        <ele>195.77</ele>
        <time>2021-08-18T16:42:05Z</time>
      </trkpt>
      <trkpt lat="43.61896" lon="0.77751">
        <ele>194.8</ele>
        <time>2021-08-18T16:42:06Z</time>
      </trkpt>
      <trkpt lat="43.6189" lon="0.77743">
        <ele>194.8</ele>
        <time>2021-08-18T16:42:07Z</time>
      </trkpt>
      <trkpt lat="43.61864" lon="0.77717">
        <ele>191.92</ele>
        <time>2021-08-18T16:42:11Z</time>
      </trkpt>
      <trkpt lat="43.61842" lon="0.77693">
        <ele>190</ele>
        <time>2021-08-18T16:42:15Z</time>
      </trkpt>
      <trkpt lat="43.6182" lon="0.77667">
        <ele>187.11</ele>
        <time>2021-08-18T16:42:19Z</time>
      </trkpt>
      <trkpt lat="43.61816" lon="0.77658">
        <ele>186.15</ele>
        <time>2021-08-18T16:42:20Z</time>
      </trkpt>
      <trkpt lat="43.61812" lon="0.77649">
        <ele>186.15</ele>
        <time>2021-08-18T16:42:21Z</time>
      </trkpt>
      <trkpt lat="43.6181" lon="0.77639">
        <ele>185.67</ele>
        <time>2021-08-18T16:42:22Z</time>
      </trkpt>
      <trkpt lat="43.61807" lon="0.77629">
        <ele>184.71</ele>
        <time>2021-08-18T16:42:23Z</time>
      </trkpt>
      <trkpt lat="43.61803" lon="0.77611">
        <ele>183.75</ele>
        <time>2021-08-18T16:42:25Z</time>
      </trkpt>
      <trkpt lat="43.61803" lon="0.77563">
        <ele>179.9</ele>
        <time>2021-08-18T16:42:30Z</time>
      </trkpt>
      <trkpt lat="43.61809" lon="0.77519">
        <ele>177.02</ele>
        <time>2021-08-18T16:42:34Z</time>
      </trkpt>
      <trkpt lat="43.61814" lon="0.77483">
        <ele>173.17</ele>
        <time>2021-08-18T16:42:37Z</time>
      </trkpt>
      <trkpt lat="43.6182" lon="0.77446">
        <ele>169.81</ele>
        <time>2021-08-18T16:42:40Z</time>
      </trkpt>
      <trkpt lat="43.61823" lon="0.77423">
        <ele>168.37</ele>
        <time>2021-08-18T16:42:42Z</time>
      </trkpt>
      <trkpt lat="43.61822" lon="0.77412">
        <ele>167.41</ele>
        <time>2021-08-18T16:42:43Z</time>
      </trkpt>
      <trkpt lat="43.6182" lon="0.77401">
        <ele>166.45</ele>
        <time>2021-08-18T16:42:44Z</time>
      </trkpt>
      <trkpt lat="43.61815" lon="0.77391">
        <ele>165.48</ele>
        <time>2021-08-18T16:42:45Z</time>
      </trkpt>
      <trkpt lat="43.61808" lon="0.77381">
        <ele>164.04</ele>
        <time>2021-08-18T16:42:46Z</time>
      </trkpt>
      <trkpt lat="43.61801" lon="0.77374">
        <ele>163.56</ele>
        <time>2021-08-18T16:42:47Z</time>
      </trkpt>
      <trkpt lat="43.61793" lon="0.77366">
        <ele>163.08</ele>
        <time>2021-08-18T16:42:48Z</time>
      </trkpt>
      <trkpt lat="43.6176" lon="0.77334">
        <ele>159.72</ele>
        <time>2021-08-18T16:42:52Z</time>
      </trkpt>
      <trkpt lat="43.61751" lon="0.77326">
        <ele>159.72</ele>
        <time>2021-08-18T16:42:53Z</time>
      </trkpt>
      <trkpt lat="43.61719" lon="0.77294">
        <ele>159.24</ele>
        <time>2021-08-18T16:42:57Z</time>
      </trkpt>
      <trkpt lat="43.61675" lon="0.7725">
        <ele>160.2</ele>
        <time>2021-08-18T16:43:03Z</time>
      </trkpt>
      <trkpt lat="43.61669" lon="0.77244">
        <ele>160.2</ele>
        <time>2021-08-18T16:43:04Z</time>
      </trkpt>
      <trkpt lat="43.61632" lon="0.77203">
        <ele>161.16</ele>
        <time>2021-08-18T16:43:11Z</time>
      </trkpt>
      <trkpt lat="43.61599" lon="0.77152">
        <ele>161.64</ele>
        <time>2021-08-18T16:43:19Z</time>
      </trkpt>
      <trkpt lat="43.61593" lon="0.77136">
        <ele>160.2</ele>
        <time>2021-08-18T16:43:21Z</time>
      </trkpt>
      <trkpt lat="43.61586" lon="0.77118">
        <ele>159.72</ele>
        <time>2021-08-18T16:43:23Z</time>
      </trkpt>
      <trkpt lat="43.61553" lon="0.77066">
        <ele>158.75</ele>
        <time>2021-08-18T16:43:30Z</time>
      </trkpt>
      <trkpt lat="43.61538" lon="0.7704">
        <ele>158.75</ele>
        <time>2021-08-18T16:43:34Z</time>
      </trkpt>
      <trkpt lat="43.61537" lon="0.77033">
        <ele>158.75</ele>
        <time>2021-08-18T16:43:35Z</time>
      </trkpt>
      <trkpt lat="43.61537" lon="0.77025">
        <ele>158.75</ele>
        <time>2021-08-18T16:43:36Z</time>
      </trkpt>
      <trkpt lat="43.61539" lon="0.77019">
        <ele>159.72</ele>
        <time>2021-08-18T16:43:37Z</time>
      </trkpt>
      <trkpt lat="43.61542" lon="0.77015">
        <ele>160.2</ele>
        <time>2021-08-18T16:43:38Z</time>
      </trkpt>
      <trkpt lat="43.61547" lon="0.77011">
        <ele>159.72</ele>
        <time>2021-08-18T16:43:39Z</time>
      </trkpt>
      <trkpt lat="43.61551" lon="0.77007">
        <ele>160.2</ele>
        <time>2021-08-18T16:43:40Z</time>
      </trkpt>
      <trkpt lat="43.61554" lon="0.77002">
        <ele>160.2</ele>
        <time>2021-08-18T16:43:41Z</time>
      </trkpt>
      <trkpt lat="43.61558" lon="0.76997">
        <ele>160.2</ele>
        <time>2021-08-18T16:43:42Z</time>
      </trkpt>
      <trkpt lat="43.61593" lon="0.76954">
        <ele>160.2</ele>
        <time>2021-08-18T16:43:50Z</time>
      </trkpt>
      <trkpt lat="43.61602" lon="0.76944">
        <ele>158.75</ele>
        <time>2021-08-18T16:43:52Z</time>
      </trkpt>
      <trkpt lat="43.61636" lon="0.76911">
        <ele>158.75</ele>
        <time>2021-08-18T16:43:59Z</time>
      </trkpt>
      <trkpt lat="43.61677" lon="0.76862">
        <ele>158.75</ele>
        <time>2021-08-18T16:44:08Z</time>
      </trkpt>
      <trkpt lat="43.61713" lon="0.76804">
        <ele>158.75</ele>
        <time>2021-08-18T16:44:17Z</time>
      </trkpt>
      <trkpt lat="43.61746" lon="0.76747">
        <ele>158.75</ele>
        <time>2021-08-18T16:44:26Z</time>
      </trkpt>
      <trkpt lat="43.6177" lon="0.76708">
        <ele>158.75</ele>
        <time>2021-08-18T16:44:34Z</time>
      </trkpt>
      <trkpt lat="43.61775" lon="0.76702">
        <ele>159.72</ele>
        <time>2021-08-18T16:44:38Z</time>
      </trkpt>
      <trkpt lat="43.61775" lon="0.76699">
        <ele>159.72</ele>
        <time>2021-08-18T16:44:39Z</time>
      </trkpt>
      <trkpt lat="43.61774" lon="0.76696">
        <ele>159.72</ele>
        <time>2021-08-18T16:44:40Z</time>
      </trkpt>
      <trkpt lat="43.61772" lon="0.76692">
        <ele>159.72</ele>
        <time>2021-08-18T16:44:41Z</time>
      </trkpt>
      <trkpt lat="43.61771" lon="0.76689">
        <ele>159.72</ele>
        <time>2021-08-18T16:44:42Z</time>
      </trkpt>
      <trkpt lat="43.61769" lon="0.76684">
        <ele>159.72</ele>
        <time>2021-08-18T16:44:43Z</time>
      </trkpt>
      <trkpt lat="43.61768" lon="0.7668">
        <ele>159.72</ele>
        <time>2021-08-18T16:44:44Z</time>
      </trkpt>
      <trkpt lat="43.61768" lon="0.76675">
        <ele>159.72</ele>
        <time>2021-08-18T16:44:45Z</time>
      </trkpt>
      <trkpt lat="43.61768" lon="0.7667">
        <ele>159.72</ele>
        <time>2021-08-18T16:44:46Z</time>
      </trkpt>
      <trkpt lat="43.61768" lon="0.76665">
        <ele>159.72</ele>
        <time>2021-08-18T16:44:47Z</time>
      </trkpt>
      <trkpt lat="43.61767" lon="0.76634">
        <ele>161.16</ele>
        <time>2021-08-18T16:44:54Z</time>
      </trkpt>
      <trkpt lat="43.61766" lon="0.76604">
        <ele>162.6</ele>
        <time>2021-08-18T16:45:02Z</time>
      </trkpt>
      <trkpt lat="43.61761" lon="0.76572">
        <ele>164.04</ele>
        <time>2021-08-18T16:45:12Z</time>
      </trkpt>
      <trkpt lat="43.61754" lon="0.76541">
        <ele>165.96</ele>
        <time>2021-08-18T16:45:23Z</time>
      </trkpt>
      <trkpt lat="43.61748" lon="0.76515">
        <ele>167.41</ele>
        <time>2021-08-18T16:45:32Z</time>
      </trkpt>
      <trkpt lat="43.61744" lon="0.7648">
        <ele>168.37</ele>
        <time>2021-08-18T16:45:42Z</time>
      </trkpt>
      <trkpt lat="43.61746" lon="0.7645">
        <ele>168.85</ele>
        <time>2021-08-18T16:45:50Z</time>
      </trkpt>
      <trkpt lat="43.61751" lon="0.76413">
        <ele>170.29</ele>
        <time>2021-08-18T16:46:00Z</time>
      </trkpt>
      <trkpt lat="43.61756" lon="0.76374">
        <ele>171.73</ele>
        <time>2021-08-18T16:46:11Z</time>
      </trkpt>
      <trkpt lat="43.61762" lon="0.7633">
        <ele>173.17</ele>
        <time>2021-08-18T16:46:23Z</time>
      </trkpt>
      <trkpt lat="43.61767" lon="0.76288">
        <ele>174.14</ele>
        <time>2021-08-18T16:46:34Z</time>
      </trkpt>
      <trkpt lat="43.61772" lon="0.76245">
        <ele>175.58</ele>
        <time>2021-08-18T16:46:45Z</time>
      </trkpt>
      <trkpt lat="43.61772" lon="0.76199">
        <ele>177.02</ele>
        <time>2021-08-18T16:46:55Z</time>
      </trkpt>
      <trkpt lat="43.61772" lon="0.7616">
        <ele>178.46</ele>
        <time>2021-08-18T16:47:04Z</time>
      </trkpt>
      <trkpt lat="43.61771" lon="0.76133">
        <ele>179.42</ele>
        <time>2021-08-18T16:47:11Z</time>
      </trkpt>
      <trkpt lat="43.61771" lon="0.76109">
        <ele>180.38</ele>
        <time>2021-08-18T16:47:19Z</time>
      </trkpt>
      <trkpt lat="43.61773" lon="0.76075">
        <ele>181.83</ele>
        <time>2021-08-18T16:47:29Z</time>
      </trkpt>
      <trkpt lat="43.61777" lon="0.76042">
        <ele>183.27</ele>
        <time>2021-08-18T16:47:38Z</time>
      </trkpt>
      <trkpt lat="43.61784" lon="0.76011">
        <ele>184.23</ele>
        <time>2021-08-18T16:47:47Z</time>
      </trkpt>
      <trkpt lat="43.61792" lon="0.75984">
        <ele>185.19</ele>
        <time>2021-08-18T16:47:55Z</time>
      </trkpt>
      <trkpt lat="43.61806" lon="0.75948">
        <ele>187.11</ele>
        <time>2021-08-18T16:48:05Z</time>
      </trkpt>
      <trkpt lat="43.6182" lon="0.7591">
        <ele>188.08</ele>
        <time>2021-08-18T16:48:14Z</time>
      </trkpt>
      <trkpt lat="43.61836" lon="0.75863">
        <ele>190</ele>
        <time>2021-08-18T16:48:25Z</time>
      </trkpt>
      <trkpt lat="43.61849" lon="0.7582">
        <ele>190.96</ele>
        <time>2021-08-18T16:48:35Z</time>
      </trkpt>
      <trkpt lat="43.6186" lon="0.7578">
        <ele>191.92</ele>
        <time>2021-08-18T16:48:44Z</time>
      </trkpt>
      <trkpt lat="43.61869" lon="0.75743">
        <ele>193.36</ele>
        <time>2021-08-18T16:48:53Z</time>
      </trkpt>
      <trkpt lat="43.61878" lon="0.75706">
        <ele>195.77</ele>
        <time>2021-08-18T16:49:02Z</time>
      </trkpt>
      <trkpt lat="43.61892" lon="0.75649">
        <ele>196.73</ele>
        <time>2021-08-18T16:49:15Z</time>
      </trkpt>
      <trkpt lat="43.61905" lon="0.75602">
        <ele>197.69</ele>
        <time>2021-08-18T16:49:25Z</time>
      </trkpt>
      <trkpt lat="43.61917" lon="0.75554">
        <ele>198.65</ele>
        <time>2021-08-18T16:49:35Z</time>
      </trkpt>
      <trkpt lat="43.61928" lon="0.75506">
        <ele>199.61</ele>
        <time>2021-08-18T16:49:45Z</time>
      </trkpt>
      <trkpt lat="43.61937" lon="0.75465">
        <ele>201.53</ele>
        <time>2021-08-18T16:49:54Z</time>
      </trkpt>
      <trkpt lat="43.61945" lon="0.75429">
        <ele>202.01</ele>
        <time>2021-08-18T16:50:02Z</time>
      </trkpt>
      <trkpt lat="43.61953" lon="0.75384">
        <ele>203.94</ele>
        <time>2021-08-18T16:50:12Z</time>
      </trkpt>
      <trkpt lat="43.61957" lon="0.75363">
        <ele>203.94</ele>
        <time>2021-08-18T16:50:19Z</time>
      </trkpt>
      <trkpt lat="43.6196" lon="0.75333">
        <ele>204.42</ele>
        <time>2021-08-18T16:50:26Z</time>
      </trkpt>
      <trkpt lat="43.61963" lon="0.75304">
        <ele>204.9</ele>
        <time>2021-08-18T16:50:32Z</time>
      </trkpt>
      <trkpt lat="43.61966" lon="0.75268">
        <ele>205.38</ele>
        <time>2021-08-18T16:50:39Z</time>
      </trkpt>
      <trkpt lat="43.6197" lon="0.7523">
        <ele>205.86</ele>
        <time>2021-08-18T16:50:46Z</time>
      </trkpt>
      <trkpt lat="43.61971" lon="0.75188">
        <ele>206.82</ele>
        <time>2021-08-18T16:50:54Z</time>
      </trkpt>
      <trkpt lat="43.61971" lon="0.75151">
        <ele>207.3</ele>
        <time>2021-08-18T16:51:01Z</time>
      </trkpt>
      <trkpt lat="43.6197" lon="0.75093">
        <ele>207.78</ele>
        <time>2021-08-18T16:51:11Z</time>
      </trkpt>
      <trkpt lat="43.61968" lon="0.7504">
        <ele>208.26</ele>
        <time>2021-08-18T16:51:21Z</time>
      </trkpt>
      <trkpt lat="43.61967" lon="0.74983">
        <ele>208.74</ele>
        <time>2021-08-18T16:51:30Z</time>
      </trkpt>
      <trkpt lat="43.61965" lon="0.74903">
        <ele>208.74</ele>
        <time>2021-08-18T16:51:42Z</time>
      </trkpt>
      <trkpt lat="43.61963" lon="0.74851">
        <ele>207.3</ele>
        <time>2021-08-18T16:51:50Z</time>
      </trkpt>
      <trkpt lat="43.61963" lon="0.74845">
        <ele>207.3</ele>
        <time>2021-08-18T16:51:51Z</time>
      </trkpt>
      <trkpt lat="43.61962" lon="0.74828">
        <ele>208.74</ele>
        <time>2021-08-18T16:51:54Z</time>
      </trkpt>
      <trkpt lat="43.6196" lon="0.74768">
        <ele>208.74</ele>
        <time>2021-08-18T16:52:03Z</time>
      </trkpt>
      <trkpt lat="43.6196" lon="0.74756">
        <ele>208.74</ele>
        <time>2021-08-18T16:52:05Z</time>
      </trkpt>
      <trkpt lat="43.61963" lon="0.74731">
        <ele>209.22</ele>
        <time>2021-08-18T16:52:09Z</time>
      </trkpt>
      <trkpt lat="43.61965" lon="0.74725">
        <ele>209.22</ele>
        <time>2021-08-18T16:52:10Z</time>
      </trkpt>
      <trkpt lat="43.61967" lon="0.7472">
        <ele>209.22</ele>
        <time>2021-08-18T16:52:11Z</time>
      </trkpt>
      <trkpt lat="43.61983" lon="0.74691">
        <ele>210.67</ele>
        <time>2021-08-18T16:52:18Z</time>
      </trkpt>
      <trkpt lat="43.61998" lon="0.74668">
        <ele>211.63</ele>
        <time>2021-08-18T16:52:24Z</time>
      </trkpt>
      <trkpt lat="43.62022" lon="0.74631">
        <ele>213.55</ele>
        <time>2021-08-18T16:52:33Z</time>
      </trkpt>
      <trkpt lat="43.62043" lon="0.74599">
        <ele>214.99</ele>
        <time>2021-08-18T16:52:42Z</time>
      </trkpt>
      <trkpt lat="43.62057" lon="0.74575">
        <ele>215.47</ele>
        <time>2021-08-18T16:52:49Z</time>
      </trkpt>
      <trkpt lat="43.62067" lon="0.74551">
        <ele>214.03</ele>
        <time>2021-08-18T16:52:54Z</time>
      </trkpt>
      <trkpt lat="43.6208" lon="0.74514">
        <ele>210.67</ele>
        <time>2021-08-18T16:52:59Z</time>
      </trkpt>
      <trkpt lat="43.62082" lon="0.74505">
        <ele>210.67</ele>
        <time>2021-08-18T16:53:00Z</time>
      </trkpt>
      <trkpt lat="43.62091" lon="0.74462">
        <ele>207.3</ele>
        <time>2021-08-18T16:53:04Z</time>
      </trkpt>
      <trkpt lat="43.62098" lon="0.74425">
        <ele>203.94</ele>
        <time>2021-08-18T16:53:07Z</time>
      </trkpt>
      <trkpt lat="43.62106" lon="0.74383">
        <ele>200.57</ele>
        <time>2021-08-18T16:53:10Z</time>
      </trkpt>
      <trkpt lat="43.62115" lon="0.74338">
        <ele>196.73</ele>
        <time>2021-08-18T16:53:13Z</time>
      </trkpt>
      <trkpt lat="43.62124" lon="0.74292">
        <ele>195.77</ele>
        <time>2021-08-18T16:53:16Z</time>
      </trkpt>
      <trkpt lat="43.62134" lon="0.7423">
        <ele>192.4</ele>
        <time>2021-08-18T16:53:20Z</time>
      </trkpt>
      <trkpt lat="43.62145" lon="0.74171">
        <ele>189.52</ele>
        <time>2021-08-18T16:53:24Z</time>
      </trkpt>
      <trkpt lat="43.62156" lon="0.74128">
        <ele>187.59</ele>
        <time>2021-08-18T16:53:27Z</time>
      </trkpt>
      <trkpt lat="43.62182" lon="0.74076">
        <ele>184.23</ele>
        <time>2021-08-18T16:53:31Z</time>
      </trkpt>
      <trkpt lat="43.62215" lon="0.74034">
        <ele>180.87</ele>
        <time>2021-08-18T16:53:35Z</time>
      </trkpt>
      <trkpt lat="43.62259" lon="0.73985">
        <ele>177.02</ele>
        <time>2021-08-18T16:53:40Z</time>
      </trkpt>
      <trkpt lat="43.62278" lon="0.73969">
        <ele>175.58</ele>
        <time>2021-08-18T16:53:42Z</time>
      </trkpt>
      <trkpt lat="43.62289" lon="0.73963">
        <ele>174.62</ele>
        <time>2021-08-18T16:53:43Z</time>
      </trkpt>
      <trkpt lat="43.623" lon="0.73959">
        <ele>174.14</ele>
        <time>2021-08-18T16:53:44Z</time>
      </trkpt>
      <trkpt lat="43.6231" lon="0.73956">
        <ele>174.14</ele>
        <time>2021-08-18T16:53:45Z</time>
      </trkpt>
      <trkpt lat="43.62321" lon="0.73954">
        <ele>174.14</ele>
        <time>2021-08-18T16:53:46Z</time>
      </trkpt>
      <trkpt lat="43.62362" lon="0.73941">
        <ele>176.54</ele>
        <time>2021-08-18T16:53:51Z</time>
      </trkpt>
      <trkpt lat="43.62368" lon="0.73937">
        <ele>176.54</ele>
        <time>2021-08-18T16:53:52Z</time>
      </trkpt>
      <trkpt lat="43.62374" lon="0.73933">
        <ele>177.02</ele>
        <time>2021-08-18T16:53:53Z</time>
      </trkpt>
      <trkpt lat="43.62378" lon="0.73928">
        <ele>177.98</ele>
        <time>2021-08-18T16:53:54Z</time>
      </trkpt>
      <trkpt lat="43.62382" lon="0.73922">
        <ele>178.46</ele>
        <time>2021-08-18T16:53:55Z</time>
      </trkpt>
      <trkpt lat="43.62385" lon="0.73918">
        <ele>178.46</ele>
        <time>2021-08-18T16:53:56Z</time>
      </trkpt>
      <trkpt lat="43.62396" lon="0.73898">
        <ele>180.87</ele>
        <time>2021-08-18T16:54:02Z</time>
      </trkpt>
      <trkpt lat="43.62409" lon="0.73868">
        <ele>182.79</ele>
        <time>2021-08-18T16:54:12Z</time>
      </trkpt>
      <trkpt lat="43.62418" lon="0.73846">
        <ele>184.71</ele>
        <time>2021-08-18T16:54:21Z</time>
      </trkpt>
      <trkpt lat="43.62427" lon="0.73825">
        <ele>185.67</ele>
        <time>2021-08-18T16:54:30Z</time>
      </trkpt>
      <trkpt lat="43.62436" lon="0.73801">
        <ele>187.11</ele>
        <time>2021-08-18T16:54:40Z</time>
      </trkpt>
      <trkpt lat="43.62445" lon="0.73781">
        <ele>188.08</ele>
        <time>2021-08-18T16:54:48Z</time>
      </trkpt>
      <trkpt lat="43.62457" lon="0.73748">
        <ele>189.52</ele>
        <time>2021-08-18T16:54:59Z</time>
      </trkpt>
      <trkpt lat="43.62466" lon="0.73726">
        <ele>190.48</ele>
        <time>2021-08-18T16:55:07Z</time>
      </trkpt>
      <trkpt lat="43.62475" lon="0.73696">
        <ele>191.92</ele>
        <time>2021-08-18T16:55:17Z</time>
      </trkpt>
      <trkpt lat="43.62486" lon="0.73662">
        <ele>192.88</ele>
        <time>2021-08-18T16:55:28Z</time>
      </trkpt>
      <trkpt lat="43.62498" lon="0.7363">
        <ele>194.8</ele>
        <time>2021-08-18T16:55:39Z</time>
      </trkpt>
      <trkpt lat="43.62508" lon="0.736">
        <ele>196.25</ele>
        <time>2021-08-18T16:55:49Z</time>
      </trkpt>
      <trkpt lat="43.62518" lon="0.73569">
        <ele>198.17</ele>
        <time>2021-08-18T16:55:59Z</time>
      </trkpt>
      <trkpt lat="43.62527" lon="0.7354">
        <ele>199.61</ele>
        <time>2021-08-18T16:56:07Z</time>
      </trkpt>
      <trkpt lat="43.62533" lon="0.73503">
        <ele>200.57</ele>
        <time>2021-08-18T16:56:17Z</time>
      </trkpt>
      <trkpt lat="43.62528" lon="0.73468">
        <ele>201.05</ele>
        <time>2021-08-18T16:56:24Z</time>
      </trkpt>
      <trkpt lat="43.62526" lon="0.73449">
        <ele>199.61</ele>
        <time>2021-08-18T16:56:27Z</time>
      </trkpt>
      <trkpt lat="43.62523" lon="0.73434">
        <ele>199.13</ele>
        <time>2021-08-18T16:56:29Z</time>
      </trkpt>
      <trkpt lat="43.62523" lon="0.73427">
        <ele>198.65</ele>
        <time>2021-08-18T16:56:30Z</time>
      </trkpt>
      <trkpt lat="43.62523" lon="0.7342">
        <ele>198.65</ele>
        <time>2021-08-18T16:56:31Z</time>
      </trkpt>
      <trkpt lat="43.62525" lon="0.73405">
        <ele>197.69</ele>
        <time>2021-08-18T16:56:33Z</time>
      </trkpt>
      <trkpt lat="43.62526" lon="0.73397">
        <ele>197.69</ele>
        <time>2021-08-18T16:56:34Z</time>
      </trkpt>
      <trkpt lat="43.6254" lon="0.73349">
        <ele>197.69</ele>
        <time>2021-08-18T16:56:41Z</time>
      </trkpt>
      <trkpt lat="43.62543" lon="0.73343">
        <ele>197.69</ele>
        <time>2021-08-18T16:56:42Z</time>
      </trkpt>
      <trkpt lat="43.62545" lon="0.73339">
        <ele>199.13</ele>
        <time>2021-08-18T16:56:43Z</time>
      </trkpt>
      <trkpt lat="43.62548" lon="0.73335">
        <ele>199.13</ele>
        <time>2021-08-18T16:56:44Z</time>
      </trkpt>
      <trkpt lat="43.62551" lon="0.73331">
        <ele>199.61</ele>
        <time>2021-08-18T16:56:45Z</time>
      </trkpt>
      <trkpt lat="43.62554" lon="0.73329">
        <ele>199.61</ele>
        <time>2021-08-18T16:56:46Z</time>
      </trkpt>
      <trkpt lat="43.62557" lon="0.73327">
        <ele>200.09</ele>
        <time>2021-08-18T16:56:47Z</time>
      </trkpt>
      <trkpt lat="43.6257" lon="0.73323">
        <ele>201.53</ele>
        <time>2021-08-18T16:56:54Z</time>
      </trkpt>
      <trkpt lat="43.62591" lon="0.73322">
        <ele>202.98</ele>
        <time>2021-08-18T16:57:06Z</time>
      </trkpt>
      <trkpt lat="43.62605" lon="0.73321">
        <ele>204.9</ele>
        <time>2021-08-18T16:57:14Z</time>
      </trkpt>
      <trkpt lat="43.62621" lon="0.7332">
        <ele>205.86</ele>
        <time>2021-08-18T16:57:22Z</time>
      </trkpt>
      <trkpt lat="43.62644" lon="0.73318">
        <ele>207.3</ele>
        <time>2021-08-18T16:57:33Z</time>
      </trkpt>
      <trkpt lat="43.62665" lon="0.73317">
        <ele>208.74</ele>
        <time>2021-08-18T16:57:43Z</time>
      </trkpt>
      <trkpt lat="43.62681" lon="0.73311">
        <ele>209.7</ele>
        <time>2021-08-18T16:57:51Z</time>
      </trkpt>
      <trkpt lat="43.62697" lon="0.73294">
        <ele>211.15</ele>
        <time>2021-08-18T16:58:01Z</time>
      </trkpt>
      <trkpt lat="43.62708" lon="0.73272">
        <ele>212.59</ele>
        <time>2021-08-18T16:58:10Z</time>
      </trkpt>
      <trkpt lat="43.62715" lon="0.7325">
        <ele>213.07</ele>
        <time>2021-08-18T16:58:18Z</time>
      </trkpt>
      <trkpt lat="43.62726" lon="0.73218">
        <ele>214.51</ele>
        <time>2021-08-18T16:58:28Z</time>
      </trkpt>
      <trkpt lat="43.6274" lon="0.73174">
        <ele>215.47</ele>
        <time>2021-08-18T16:58:39Z</time>
      </trkpt>
      <trkpt lat="43.62752" lon="0.73138">
        <ele>216.91</ele>
        <time>2021-08-18T16:58:48Z</time>
      </trkpt>
      <trkpt lat="43.62764" lon="0.73102">
        <ele>217.88</ele>
        <time>2021-08-18T16:58:57Z</time>
      </trkpt>
      <trkpt lat="43.62775" lon="0.73068">
        <ele>218.84</ele>
        <time>2021-08-18T16:59:06Z</time>
      </trkpt>
      <trkpt lat="43.62786" lon="0.73037">
        <ele>220.28</ele>
        <time>2021-08-18T16:59:14Z</time>
      </trkpt>
      <trkpt lat="43.62797" lon="0.73006">
        <ele>221.24</ele>
        <time>2021-08-18T16:59:23Z</time>
      </trkpt>
      <trkpt lat="43.62809" lon="0.72967">
        <ele>222.68</ele>
        <time>2021-08-18T16:59:33Z</time>
      </trkpt>
      <trkpt lat="43.62823" lon="0.72926">
        <ele>223.16</ele>
        <time>2021-08-18T16:59:43Z</time>
      </trkpt>
      <trkpt lat="43.6284" lon="0.72875">
        <ele>224.61</ele>
        <time>2021-08-18T16:59:55Z</time>
      </trkpt>
      <trkpt lat="43.62853" lon="0.72834">
        <ele>225.09</ele>
        <time>2021-08-18T17:00:04Z</time>
      </trkpt>
      <trkpt lat="43.62872" lon="0.72779">
        <ele>225.57</ele>
        <time>2021-08-18T17:00:15Z</time>
      </trkpt>
      <trkpt lat="43.62893" lon="0.72739">
        <ele>226.05</ele>
        <time>2021-08-18T17:00:23Z</time>
      </trkpt>
      <trkpt lat="43.62922" lon="0.727">
        <ele>227.01</ele>
        <time>2021-08-18T17:00:33Z</time>
      </trkpt>
      <trkpt lat="43.62944" lon="0.72672">
        <ele>227.97</ele>
        <time>2021-08-18T17:00:41Z</time>
      </trkpt>
      <trkpt lat="43.62969" lon="0.72633">
        <ele>229.41</ele>
        <time>2021-08-18T17:00:51Z</time>
      </trkpt>
      <trkpt lat="43.62989" lon="0.72596">
        <ele>229.89</ele>
        <time>2021-08-18T17:01:00Z</time>
      </trkpt>
      <trkpt lat="43.63009" lon="0.72553">
        <ele>231.33</ele>
        <time>2021-08-18T17:01:10Z</time>
      </trkpt>
      <trkpt lat="43.63024" lon="0.72518">
        <ele>231.81</ele>
        <time>2021-08-18T17:01:18Z</time>
      </trkpt>
      <trkpt lat="43.6304" lon="0.72481">
        <ele>233.74</ele>
        <time>2021-08-18T17:01:27Z</time>
      </trkpt>
      <trkpt lat="43.63057" lon="0.72438">
        <ele>233.74</ele>
        <time>2021-08-18T17:01:37Z</time>
      </trkpt>
      <trkpt lat="43.63073" lon="0.724">
        <ele>234.22</ele>
        <time>2021-08-18T17:01:46Z</time>
      </trkpt>
      <trkpt lat="43.63084" lon="0.72375">
        <ele>234.7</ele>
        <time>2021-08-18T17:01:51Z</time>
      </trkpt>
      <trkpt lat="43.63085" lon="0.7237">
        <ele>234.7</ele>
        <time>2021-08-18T17:01:52Z</time>
      </trkpt>
      <trkpt lat="43.63093" lon="0.72344">
        <ele>235.18</ele>
        <time>2021-08-18T17:01:57Z</time>
      </trkpt>
      <trkpt lat="43.63105" lon="0.72305">
        <ele>235.18</ele>
        <time>2021-08-18T17:02:04Z</time>
      </trkpt>
      <trkpt lat="43.63111" lon="0.72288">
        <ele>235.66</ele>
        <time>2021-08-18T17:02:07Z</time>
      </trkpt>
      <trkpt lat="43.63126" lon="0.72229">
        <ele>236.14</ele>
        <time>2021-08-18T17:02:17Z</time>
      </trkpt>
      <trkpt lat="43.63128" lon="0.72221">
        <ele>236.14</ele>
        <time>2021-08-18T17:02:18Z</time>
      </trkpt>
      <trkpt lat="43.63141" lon="0.72165">
        <ele>237.58</ele>
        <time>2021-08-18T17:02:28Z</time>
      </trkpt>
      <trkpt lat="43.63147" lon="0.72125">
        <ele>239.02</ele>
        <time>2021-08-18T17:02:36Z</time>
      </trkpt>
      <trkpt lat="43.63153" lon="0.72083">
        <ele>239.99</ele>
        <time>2021-08-18T17:02:44Z</time>
      </trkpt>
      <trkpt lat="43.63157" lon="0.72043">
        <ele>240.95</ele>
        <time>2021-08-18T17:02:51Z</time>
      </trkpt>
      <trkpt lat="43.63163" lon="0.72004">
        <ele>241.91</ele>
        <time>2021-08-18T17:02:59Z</time>
      </trkpt>
      <trkpt lat="43.63165" lon="0.71974">
        <ele>243.83</ele>
        <time>2021-08-18T17:03:07Z</time>
      </trkpt>
      <trkpt lat="43.63168" lon="0.71953">
        <ele>245.27</ele>
        <time>2021-08-18T17:03:14Z</time>
      </trkpt>
      <trkpt lat="43.63173" lon="0.71918">
        <ele>246.72</ele>
        <time>2021-08-18T17:03:25Z</time>
      </trkpt>
      <trkpt lat="43.63178" lon="0.71889">
        <ele>248.16</ele>
        <time>2021-08-18T17:03:34Z</time>
      </trkpt>
      <trkpt lat="43.63184" lon="0.7185">
        <ele>249.12</ele>
        <time>2021-08-18T17:03:44Z</time>
      </trkpt>
      <trkpt lat="43.63191" lon="0.71801">
        <ele>249.12</ele>
        <time>2021-08-18T17:03:53Z</time>
      </trkpt>
      <trkpt lat="43.63199" lon="0.71748">
        <ele>249.12</ele>
        <time>2021-08-18T17:04:01Z</time>
      </trkpt>
      <trkpt lat="43.63209" lon="0.71689">
        <ele>249.12</ele>
        <time>2021-08-18T17:04:09Z</time>
      </trkpt>
      <trkpt lat="43.63214" lon="0.71639">
        <ele>247.2</ele>
        <time>2021-08-18T17:04:15Z</time>
      </trkpt>
      <trkpt lat="43.63213" lon="0.71601">
        <ele>246.23</ele>
        <time>2021-08-18T17:04:19Z</time>
      </trkpt>
      <trkpt lat="43.6321" lon="0.71547">
        <ele>242.39</ele>
        <time>2021-08-18T17:04:24Z</time>
      </trkpt>
      <trkpt lat="43.63207" lon="0.71499">
        <ele>239.51</ele>
        <time>2021-08-18T17:04:28Z</time>
      </trkpt>
      <trkpt lat="43.63203" lon="0.71447">
        <ele>237.1</ele>
        <time>2021-08-18T17:04:32Z</time>
      </trkpt>
      <trkpt lat="43.63203" lon="0.71375">
        <ele>237.1</ele>
        <time>2021-08-18T17:04:38Z</time>
      </trkpt>
      <trkpt lat="43.6321" lon="0.71312">
        <ele>238.54</ele>
        <time>2021-08-18T17:04:45Z</time>
      </trkpt>
      <trkpt lat="43.6321" lon="0.71304">
        <ele>238.54</ele>
        <time>2021-08-18T17:04:46Z</time>
      </trkpt>
      <trkpt lat="43.63212" lon="0.71273">
        <ele>239.51</ele>
        <time>2021-08-18T17:04:50Z</time>
      </trkpt>
      <trkpt lat="43.63209" lon="0.71212">
        <ele>240.95</ele>
        <time>2021-08-18T17:04:58Z</time>
      </trkpt>
      <trkpt lat="43.63199" lon="0.71155">
        <ele>242.39</ele>
        <time>2021-08-18T17:05:07Z</time>
      </trkpt>
      <trkpt lat="43.63187" lon="0.71118">
        <ele>243.83</ele>
        <time>2021-08-18T17:05:15Z</time>
      </trkpt>
      <trkpt lat="43.63175" lon="0.71082">
        <ele>244.31</ele>
        <time>2021-08-18T17:05:23Z</time>
      </trkpt>
      <trkpt lat="43.63172" lon="0.7107">
        <ele>244.31</ele>
        <time>2021-08-18T17:05:25Z</time>
      </trkpt>
      <trkpt lat="43.63171" lon="0.71046">
        <ele>242.39</ele>
        <time>2021-08-18T17:05:28Z</time>
      </trkpt>
      <trkpt lat="43.63171" lon="0.71038">
        <ele>242.39</ele>
        <time>2021-08-18T17:05:29Z</time>
      </trkpt>
      <trkpt lat="43.63171" lon="0.71029">
        <ele>240.95</ele>
        <time>2021-08-18T17:05:30Z</time>
      </trkpt>
      <trkpt lat="43.63173" lon="0.71011">
        <ele>239.99</ele>
        <time>2021-08-18T17:05:32Z</time>
      </trkpt>
      <trkpt lat="43.63179" lon="0.70958">
        <ele>237.1</ele>
        <time>2021-08-18T17:05:37Z</time>
      </trkpt>
      <trkpt lat="43.63184" lon="0.70894">
        <ele>233.26</ele>
        <time>2021-08-18T17:05:42Z</time>
      </trkpt>
      <trkpt lat="43.632" lon="0.70804">
        <ele>231.33</ele>
        <time>2021-08-18T17:05:49Z</time>
      </trkpt>
      <trkpt lat="43.63215" lon="0.7072">
        <ele>230.37</ele>
        <time>2021-08-18T17:05:56Z</time>
      </trkpt>
      <trkpt lat="43.63237" lon="0.706">
        <ele>227.01</ele>
        <time>2021-08-18T17:06:06Z</time>
      </trkpt>
      <trkpt lat="43.63251" lon="0.70523">
        <ele>223.16</ele>
        <time>2021-08-18T17:06:12Z</time>
      </trkpt>
      <trkpt lat="43.63253" lon="0.70509">
        <ele>223.16</ele>
        <time>2021-08-18T17:06:13Z</time>
      </trkpt>
      <trkpt lat="43.63266" lon="0.70439">
        <ele>219.8</ele>
        <time>2021-08-18T17:06:18Z</time>
      </trkpt>
      <trkpt lat="43.63284" lon="0.70334">
        <ele>220.28</ele>
        <time>2021-08-18T17:06:26Z</time>
      </trkpt>
      <trkpt lat="43.63302" lon="0.7022">
        <ele>218.36</ele>
        <time>2021-08-18T17:06:36Z</time>
      </trkpt>
      <trkpt lat="43.6332" lon="0.70124">
        <ele>215.47</ele>
        <time>2021-08-18T17:06:44Z</time>
      </trkpt>
      <trkpt lat="43.6333" lon="0.7006">
        <ele>212.11</ele>
        <time>2021-08-18T17:06:49Z</time>
      </trkpt>
      <trkpt lat="43.63332" lon="0.70047">
        <ele>212.11</ele>
        <time>2021-08-18T17:06:50Z</time>
      </trkpt>
      <trkpt lat="43.63342" lon="0.69992">
        <ele>207.78</ele>
        <time>2021-08-18T17:06:54Z</time>
      </trkpt>
      <trkpt lat="43.63346" lon="0.69964">
        <ele>206.82</ele>
        <time>2021-08-18T17:06:56Z</time>
      </trkpt>
      <trkpt lat="43.63361" lon="0.69895">
        <ele>203.46</ele>
        <time>2021-08-18T17:07:01Z</time>
      </trkpt>
      <trkpt lat="43.63382" lon="0.69841">
        <ele>200.09</ele>
        <time>2021-08-18T17:07:05Z</time>
      </trkpt>
      <trkpt lat="43.63394" lon="0.69814">
        <ele>199.61</ele>
        <time>2021-08-18T17:07:07Z</time>
      </trkpt>
      <trkpt lat="43.63411" lon="0.69773">
        <ele>196.25</ele>
        <time>2021-08-18T17:07:10Z</time>
      </trkpt>
      <trkpt lat="43.63423" lon="0.69745">
        <ele>195.28</ele>
        <time>2021-08-18T17:07:12Z</time>
      </trkpt>
      <trkpt lat="43.63442" lon="0.69705">
        <ele>193.36</ele>
        <time>2021-08-18T17:07:15Z</time>
      </trkpt>
      <trkpt lat="43.63458" lon="0.69662">
        <ele>189.52</ele>
        <time>2021-08-18T17:07:18Z</time>
      </trkpt>
      <trkpt lat="43.63462" lon="0.69645">
        <ele>188.56</ele>
        <time>2021-08-18T17:07:19Z</time>
      </trkpt>
      <trkpt lat="43.63465" lon="0.69629">
        <ele>187.59</ele>
        <time>2021-08-18T17:07:20Z</time>
      </trkpt>
      <trkpt lat="43.63468" lon="0.69596">
        <ele>187.11</ele>
        <time>2021-08-18T17:07:22Z</time>
      </trkpt>
      <trkpt lat="43.63471" lon="0.69562">
        <ele>185.19</ele>
        <time>2021-08-18T17:07:24Z</time>
      </trkpt>
      <trkpt lat="43.63477" lon="0.6947">
        <ele>188.56</ele>
        <time>2021-08-18T17:07:30Z</time>
      </trkpt>
      <trkpt lat="43.63477" lon="0.69458">
        <ele>188.56</ele>
        <time>2021-08-18T17:07:31Z</time>
      </trkpt>
      <trkpt lat="43.63479" lon="0.69415">
        <ele>191.92</ele>
        <time>2021-08-18T17:07:35Z</time>
      </trkpt>
      <trkpt lat="43.63482" lon="0.69391">
        <ele>193.36</ele>
        <time>2021-08-18T17:07:38Z</time>
      </trkpt>
      <trkpt lat="43.63482" lon="0.69384">
        <ele>193.36</ele>
        <time>2021-08-18T17:07:39Z</time>
      </trkpt>
      <trkpt lat="43.63483" lon="0.69377">
        <ele>193.36</ele>
        <time>2021-08-18T17:07:40Z</time>
      </trkpt>
      <trkpt lat="43.63483" lon="0.69372">
        <ele>194.32</ele>
        <time>2021-08-18T17:07:41Z</time>
      </trkpt>
      <trkpt lat="43.63484" lon="0.69366">
        <ele>194.32</ele>
        <time>2021-08-18T17:07:42Z</time>
      </trkpt>
      <trkpt lat="43.63486" lon="0.69332">
        <ele>195.77</ele>
        <time>2021-08-18T17:07:49Z</time>
      </trkpt>
      <trkpt lat="43.63489" lon="0.69289">
        <ele>196.25</ele>
        <time>2021-08-18T17:07:58Z</time>
      </trkpt>
      <trkpt lat="43.63491" lon="0.69261">
        <ele>197.21</ele>
        <time>2021-08-18T17:08:04Z</time>
      </trkpt>
      <trkpt lat="43.63498" lon="0.69224">
        <ele>197.69</ele>
        <time>2021-08-18T17:08:12Z</time>
      </trkpt>
      <trkpt lat="43.63508" lon="0.69187">
        <ele>197.69</ele>
        <time>2021-08-18T17:08:20Z</time>
      </trkpt>
      <trkpt lat="43.63525" lon="0.6914">
        <ele>197.69</ele>
        <time>2021-08-18T17:08:30Z</time>
      </trkpt>
      <trkpt lat="43.63544" lon="0.69088">
        <ele>196.73</ele>
        <time>2021-08-18T17:08:40Z</time>
      </trkpt>
      <trkpt lat="43.63558" lon="0.6905">
        <ele>195.77</ele>
        <time>2021-08-18T17:08:48Z</time>
      </trkpt>
      <trkpt lat="43.63568" lon="0.69021">
        <ele>195.77</ele>
        <time>2021-08-18T17:08:55Z</time>
      </trkpt>
      <trkpt lat="43.63567" lon="0.69013">
        <ele>195.77</ele>
        <time>2021-08-18T17:08:57Z</time>
      </trkpt>
      <trkpt lat="43.63565" lon="0.69012">
        <ele>197.21</ele>
        <time>2021-08-18T17:08:58Z</time>
      </trkpt>
      <trkpt lat="43.63563" lon="0.69011">
        <ele>197.21</ele>
        <time>2021-08-18T17:08:59Z</time>
      </trkpt>
      <trkpt lat="43.6356" lon="0.69011">
        <ele>197.21</ele>
        <time>2021-08-18T17:09:00Z</time>
      </trkpt>
      <trkpt lat="43.63558" lon="0.69009">
        <ele>197.21</ele>
        <time>2021-08-18T17:09:01Z</time>
      </trkpt>
      <trkpt lat="43.63556" lon="0.69008">
        <ele>197.21</ele>
        <time>2021-08-18T17:09:02Z</time>
      </trkpt>
      <trkpt lat="43.63537" lon="0.69002">
        <ele>198.17</ele>
        <time>2021-08-18T17:09:09Z</time>
      </trkpt>
      <trkpt lat="43.63511" lon="0.68995">
        <ele>200.57</ele>
        <time>2021-08-18T17:09:19Z</time>
      </trkpt>
      <trkpt lat="43.63486" lon="0.68988">
        <ele>202.01</ele>
        <time>2021-08-18T17:09:30Z</time>
      </trkpt>
      <trkpt lat="43.63468" lon="0.68983">
        <ele>202.49</ele>
        <time>2021-08-18T17:09:38Z</time>
      </trkpt>
      <trkpt lat="43.63448" lon="0.68977">
        <ele>203.94</ele>
        <time>2021-08-18T17:09:47Z</time>
      </trkpt>
      <trkpt lat="43.63428" lon="0.6897">
        <ele>206.34</ele>
        <time>2021-08-18T17:09:58Z</time>
      </trkpt>
      <trkpt lat="43.6341" lon="0.68965">
        <ele>207.78</ele>
        <time>2021-08-18T17:10:07Z</time>
      </trkpt>
      <trkpt lat="43.63396" lon="0.68961">
        <ele>208.74</ele>
        <time>2021-08-18T17:10:15Z</time>
      </trkpt>
      <trkpt lat="43.63376" lon="0.68956">
        <ele>211.15</ele>
        <time>2021-08-18T17:10:26Z</time>
      </trkpt>
      <trkpt lat="43.63361" lon="0.68952">
        <ele>212.59</ele>
        <time>2021-08-18T17:10:34Z</time>
      </trkpt>
      <trkpt lat="43.63342" lon="0.68949">
        <ele>214.51</ele>
        <time>2021-08-18T17:10:43Z</time>
      </trkpt>
      <trkpt lat="43.63326" lon="0.68945">
        <ele>214.99</ele>
        <time>2021-08-18T17:10:51Z</time>
      </trkpt>
      <trkpt lat="43.63313" lon="0.68941">
        <ele>215.95</ele>
        <time>2021-08-18T17:10:58Z</time>
      </trkpt>
      <trkpt lat="43.633" lon="0.68937">
        <ele>217.4</ele>
        <time>2021-08-18T17:11:04Z</time>
      </trkpt>
      <trkpt lat="43.63276" lon="0.68932">
        <ele>218.84</ele>
        <time>2021-08-18T17:11:15Z</time>
      </trkpt>
      <trkpt lat="43.63259" lon="0.68926">
        <ele>219.8</ele>
        <time>2021-08-18T17:11:22Z</time>
      </trkpt>
      <trkpt lat="43.63234" lon="0.6892">
        <ele>220.28</ele>
        <time>2021-08-18T17:11:31Z</time>
      </trkpt>
      <trkpt lat="43.63213" lon="0.68914">
        <ele>220.76</ele>
        <time>2021-08-18T17:11:38Z</time>
      </trkpt>
      <trkpt lat="43.63192" lon="0.68912">
        <ele>221.24</ele>
        <time>2021-08-18T17:11:45Z</time>
      </trkpt>
      <trkpt lat="43.63178" lon="0.68908">
        <ele>221.72</ele>
        <time>2021-08-18T17:11:50Z</time>
      </trkpt>
      <trkpt lat="43.63176" lon="0.68905">
        <ele>221.72</ele>
        <time>2021-08-18T17:11:51Z</time>
      </trkpt>
      <trkpt lat="43.63175" lon="0.68904">
        <ele>221.72</ele>
        <time>2021-08-18T17:11:52Z</time>
      </trkpt>
      <trkpt lat="43.63173" lon="0.68901">
        <ele>221.72</ele>
        <time>2021-08-18T17:11:53Z</time>
      </trkpt>
      <trkpt lat="43.63171" lon="0.68899">
        <ele>221.72</ele>
        <time>2021-08-18T17:11:54Z</time>
      </trkpt>
      <trkpt lat="43.6317" lon="0.68898">
        <ele>222.68</ele>
        <time>2021-08-18T17:11:55Z</time>
      </trkpt>
      <trkpt lat="43.63169" lon="0.68896">
        <ele>222.68</ele>
        <time>2021-08-18T17:11:56Z</time>
      </trkpt>
      <trkpt lat="43.6317" lon="0.68893">
        <ele>222.68</ele>
        <time>2021-08-18T17:11:57Z</time>
      </trkpt>
      <trkpt lat="43.6317" lon="0.68891">
        <ele>222.68</ele>
        <time>2021-08-18T17:11:58Z</time>
      </trkpt>
      <trkpt lat="43.63171" lon="0.6889">
        <ele>222.68</ele>
        <time>2021-08-18T17:12:04Z</time>
      </trkpt>
      <trkpt lat="43.63171" lon="0.68888">
        <ele>222.68</ele>
        <time>2021-08-18T17:12:17Z</time>
      </trkpt>
      <trkpt lat="43.63172" lon="0.68889">
        <ele>222.68</ele>
        <time>2021-08-18T17:12:23Z</time>
      </trkpt>
      <trkpt lat="43.63171" lon="0.6889">
        <ele>222.68</ele>
        <time>2021-08-18T17:12:33Z</time>
      </trkpt>
      <trkpt lat="43.63172" lon="0.68884">
        <ele>222.68</ele>
        <time>2021-08-18T17:12:41Z</time>
      </trkpt>
      <trkpt lat="43.63173" lon="0.68883">
        <ele>222.68</ele>
        <time>2021-08-18T17:12:43Z</time>
      </trkpt>
      <trkpt lat="43.63174" lon="0.68881">
        <ele>222.68</ele>
        <time>2021-08-18T17:12:44Z</time>
      </trkpt>
      <trkpt lat="43.6318" lon="0.68871">
        <ele>221.24</ele>
        <time>2021-08-18T17:12:48Z</time>
      </trkpt>
      <trkpt lat="43.63198" lon="0.68842">
        <ele>219.8</ele>
        <time>2021-08-18T17:12:55Z</time>
      </trkpt>
      <trkpt lat="43.63223" lon="0.68795">
        <ele>217.4</ele>
        <time>2021-08-18T17:13:03Z</time>
      </trkpt>
      <trkpt lat="43.63253" lon="0.68737">
        <ele>215.95</ele>
        <time>2021-08-18T17:13:12Z</time>
      </trkpt>
      <trkpt lat="43.63286" lon="0.68682">
        <ele>214.51</ele>
        <time>2021-08-18T17:13:21Z</time>
      </trkpt>
      <trkpt lat="43.63297" lon="0.68663">
        <ele>213.55</ele>
        <time>2021-08-18T17:13:24Z</time>
      </trkpt>
      <trkpt lat="43.63316" lon="0.68613">
        <ele>213.07</ele>
        <time>2021-08-18T17:13:31Z</time>
      </trkpt>
      <trkpt lat="43.63333" lon="0.68549">
        <ele>212.59</ele>
        <time>2021-08-18T17:13:40Z</time>
      </trkpt>
      <trkpt lat="43.63335" lon="0.68542">
        <ele>212.59</ele>
        <time>2021-08-18T17:13:41Z</time>
      </trkpt>
      <trkpt lat="43.63336" lon="0.68536">
        <ele>212.59</ele>
        <time>2021-08-18T17:13:42Z</time>
      </trkpt>
      <trkpt lat="43.63349" lon="0.6849">
        <ele>213.55</ele>
        <time>2021-08-18T17:13:50Z</time>
      </trkpt>
      <trkpt lat="43.63352" lon="0.6848">
        <ele>213.55</ele>
        <time>2021-08-18T17:13:54Z</time>
      </trkpt>
      <trkpt lat="43.63353" lon="0.68478">
        <ele>213.55</ele>
        <time>2021-08-18T17:13:55Z</time>
      </trkpt>
      <trkpt lat="43.63354" lon="0.68477">
        <ele>213.55</ele>
        <time>2021-08-18T17:13:56Z</time>
      </trkpt>
      <trkpt lat="43.63355" lon="0.68477">
        <ele>214.03</ele>
        <time>2021-08-18T17:13:57Z</time>
      </trkpt>
      <trkpt lat="43.63357" lon="0.68485">
        <ele>214.03</ele>
        <time>2021-08-18T17:14:01Z</time>
      </trkpt>
      <trkpt lat="43.63355" lon="0.68487">
        <ele>214.03</ele>
        <time>2021-08-18T17:14:02Z</time>
      </trkpt>
      <trkpt lat="43.63349" lon="0.68492">
        <ele>214.03</ele>
        <time>2021-08-18T17:14:06Z</time>
      </trkpt>
      <trkpt lat="43.63347" lon="0.68495">
        <ele>214.03</ele>
        <time>2021-08-18T17:14:07Z</time>
      </trkpt>
      <trkpt lat="43.63346" lon="0.68498">
        <ele>214.03</ele>
        <time>2021-08-18T17:14:08Z</time>
      </trkpt>
      <trkpt lat="43.63345" lon="0.68502">
        <ele>214.03</ele>
        <time>2021-08-18T17:14:09Z</time>
      </trkpt>
      <trkpt lat="43.63344" lon="0.68506">
        <ele>214.03</ele>
        <time>2021-08-18T17:14:10Z</time>
      </trkpt>
      <trkpt lat="43.63336" lon="0.6854">
        <ele>214.03</ele>
        <time>2021-08-18T17:14:19Z</time>
      </trkpt>
      <trkpt lat="43.63332" lon="0.68559">
        <ele>214.03</ele>
        <time>2021-08-18T17:14:24Z</time>
      </trkpt>
      <trkpt lat="43.63333" lon="0.68567">
        <ele>214.03</ele>
        <time>2021-08-18T17:14:27Z</time>
      </trkpt>
      <trkpt lat="43.63334" lon="0.68568">
        <ele>214.03</ele>
        <time>2021-08-18T17:14:28Z</time>
      </trkpt>
      <trkpt lat="43.63335" lon="0.68569">
        <ele>213.07</ele>
        <time>2021-08-18T17:14:29Z</time>
      </trkpt>
      <trkpt lat="43.63337" lon="0.68569">
        <ele>213.07</ele>
        <time>2021-08-18T17:14:30Z</time>
      </trkpt>
      <trkpt lat="43.63339" lon="0.68569">
        <ele>213.07</ele>
        <time>2021-08-18T17:14:31Z</time>
      </trkpt>
      <trkpt lat="43.6335" lon="0.68568">
        <ele>211.63</ele>
        <time>2021-08-18T17:14:37Z</time>
      </trkpt>
      <trkpt lat="43.63351" lon="0.68569">
        <ele>211.63</ele>
        <time>2021-08-18T17:14:43Z</time>
      </trkpt>
      <trkpt lat="43.63353" lon="0.68569">
        <ele>211.15</ele>
        <time>2021-08-18T17:14:47Z</time>
      </trkpt>
      <trkpt lat="43.63355" lon="0.68569">
        <ele>211.15</ele>
        <time>2021-08-18T17:14:48Z</time>
      </trkpt>
      <trkpt lat="43.63357" lon="0.68569">
        <ele>211.15</ele>
        <time>2021-08-18T17:14:49Z</time>
      </trkpt>
      <trkpt lat="43.6338" lon="0.68563">
        <ele>210.19</ele>
        <time>2021-08-18T17:14:57Z</time>
      </trkpt>
      <trkpt lat="43.63409" lon="0.68557">
        <ele>209.22</ele>
        <time>2021-08-18T17:15:05Z</time>
      </trkpt>
      <trkpt lat="43.63424" lon="0.68557">
        <ele>208.26</ele>
        <time>2021-08-18T17:15:09Z</time>
      </trkpt>
      <trkpt lat="43.63428" lon="0.68556">
        <ele>208.26</ele>
        <time>2021-08-18T17:15:10Z</time>
      </trkpt>
      <trkpt lat="43.63453" lon="0.68548">
        <ele>206.34</ele>
        <time>2021-08-18T17:15:17Z</time>
      </trkpt>
      <trkpt lat="43.63458" lon="0.68548">
        <ele>205.38</ele>
        <time>2021-08-18T17:15:18Z</time>
      </trkpt>
      <trkpt lat="43.63463" lon="0.68549">
        <ele>204.9</ele>
        <time>2021-08-18T17:15:19Z</time>
      </trkpt>
      <trkpt lat="43.63469" lon="0.6855">
        <ele>204.42</ele>
        <time>2021-08-18T17:15:20Z</time>
      </trkpt>
      <trkpt lat="43.63475" lon="0.6855">
        <ele>203.94</ele>
        <time>2021-08-18T17:15:21Z</time>
      </trkpt>
      <trkpt lat="43.6348" lon="0.68549">
        <ele>203.94</ele>
        <time>2021-08-18T17:15:22Z</time>
      </trkpt>
      <trkpt lat="43.63516" lon="0.68547">
        <ele>202.49</ele>
        <time>2021-08-18T17:15:28Z</time>
      </trkpt>
      <trkpt lat="43.63557" lon="0.6854">
        <ele>201.05</ele>
        <time>2021-08-18T17:15:35Z</time>
      </trkpt>
      <trkpt lat="43.63594" lon="0.68524">
        <ele>199.13</ele>
        <time>2021-08-18T17:15:42Z</time>
      </trkpt>
      <trkpt lat="43.63632" lon="0.68504">
        <ele>197.69</ele>
        <time>2021-08-18T17:15:50Z</time>
      </trkpt>
      <trkpt lat="43.63661" lon="0.68483">
        <ele>197.69</ele>
        <time>2021-08-18T17:15:57Z</time>
      </trkpt>
      <trkpt lat="43.63668" lon="0.68476">
        <ele>197.69</ele>
        <time>2021-08-18T17:15:59Z</time>
      </trkpt>
      <trkpt lat="43.63671" lon="0.68473">
        <ele>197.69</ele>
        <time>2021-08-18T17:16:00Z</time>
      </trkpt>
      <trkpt lat="43.63673" lon="0.68469">
        <ele>197.21</ele>
        <time>2021-08-18T17:16:01Z</time>
      </trkpt>
      <trkpt lat="43.63675" lon="0.68466">
        <ele>197.21</ele>
        <time>2021-08-18T17:16:02Z</time>
      </trkpt>
      <trkpt lat="43.63676" lon="0.68463">
        <ele>197.21</ele>
        <time>2021-08-18T17:16:03Z</time>
      </trkpt>
      <trkpt lat="43.63677" lon="0.68462">
        <ele>197.21</ele>
        <time>2021-08-18T17:16:04Z</time>
      </trkpt>
      <trkpt lat="43.63679" lon="0.68459">
        <ele>197.21</ele>
        <time>2021-08-18T17:16:05Z</time>
      </trkpt>
      <trkpt lat="43.6368" lon="0.68455">
        <ele>197.21</ele>
        <time>2021-08-18T17:16:06Z</time>
      </trkpt>
      <trkpt lat="43.63688" lon="0.68436">
        <ele>198.17</ele>
        <time>2021-08-18T17:16:11Z</time>
      </trkpt>
      <trkpt lat="43.6369" lon="0.68431">
        <ele>198.17</ele>
        <time>2021-08-18T17:16:12Z</time>
      </trkpt>
      <trkpt lat="43.63692" lon="0.68426">
        <ele>199.13</ele>
        <time>2021-08-18T17:16:13Z</time>
      </trkpt>
      <trkpt lat="43.63702" lon="0.68399">
        <ele>201.05</ele>
        <time>2021-08-18T17:16:20Z</time>
      </trkpt>
      <trkpt lat="43.6371" lon="0.68377">
        <ele>202.01</ele>
        <time>2021-08-18T17:16:28Z</time>
      </trkpt>
      <trkpt lat="43.63717" lon="0.68359">
        <ele>203.46</ele>
        <time>2021-08-18T17:16:35Z</time>
      </trkpt>
      <trkpt lat="43.63724" lon="0.68339">
        <ele>204.42</ele>
        <time>2021-08-18T17:16:42Z</time>
      </trkpt>
      <trkpt lat="43.63732" lon="0.68314">
        <ele>206.82</ele>
        <time>2021-08-18T17:16:52Z</time>
      </trkpt>
      <trkpt lat="43.63735" lon="0.68291">
        <ele>208.74</ele>
        <time>2021-08-18T17:17:01Z</time>
      </trkpt>
      <trkpt lat="43.63735" lon="0.68284">
        <ele>208.74</ele>
        <time>2021-08-18T17:17:04Z</time>
      </trkpt>
      <trkpt lat="43.63744" lon="0.68269">
        <ele>209.22</ele>
        <time>2021-08-18T17:17:11Z</time>
      </trkpt>
      <trkpt lat="43.63757" lon="0.68259">
        <ele>209.22</ele>
        <time>2021-08-18T17:17:16Z</time>
      </trkpt>
      <trkpt lat="43.63781" lon="0.68235">
        <ele>209.22</ele>
        <time>2021-08-18T17:17:23Z</time>
      </trkpt>
      <trkpt lat="43.63806" lon="0.68209">
        <ele>209.7</ele>
        <time>2021-08-18T17:17:31Z</time>
      </trkpt>
      <trkpt lat="43.63838" lon="0.68173">
        <ele>209.7</ele>
        <time>2021-08-18T17:17:40Z</time>
      </trkpt>
      <trkpt lat="43.63866" lon="0.68133">
        <ele>209.7</ele>
        <time>2021-08-18T17:17:48Z</time>
      </trkpt>
      <trkpt lat="43.63891" lon="0.68097">
        <ele>210.19</ele>
        <time>2021-08-18T17:17:55Z</time>
      </trkpt>
      <trkpt lat="43.63913" lon="0.68063">
        <ele>208.74</ele>
        <time>2021-08-18T17:18:01Z</time>
      </trkpt>
      <trkpt lat="43.63916" lon="0.68056">
        <ele>208.74</ele>
        <time>2021-08-18T17:18:02Z</time>
      </trkpt>
      <trkpt lat="43.63945" lon="0.67992">
        <ele>206.34</ele>
        <time>2021-08-18T17:18:11Z</time>
      </trkpt>
      <trkpt lat="43.63949" lon="0.67985">
        <ele>205.86</ele>
        <time>2021-08-18T17:18:12Z</time>
      </trkpt>
      <trkpt lat="43.63954" lon="0.67978">
        <ele>205.86</ele>
        <time>2021-08-18T17:18:13Z</time>
      </trkpt>
      <trkpt lat="43.63972" lon="0.67947">
        <ele>203.46</ele>
        <time>2021-08-18T17:18:17Z</time>
      </trkpt>
      <trkpt lat="43.63981" lon="0.67931">
        <ele>202.01</ele>
        <time>2021-08-18T17:18:19Z</time>
      </trkpt>
      <trkpt lat="43.64006" lon="0.67886">
        <ele>201.53</ele>
        <time>2021-08-18T17:18:25Z</time>
      </trkpt>
      <trkpt lat="43.64034" lon="0.67822">
        <ele>199.13</ele>
        <time>2021-08-18T17:18:33Z</time>
      </trkpt>
      <trkpt lat="43.64051" lon="0.67771">
        <ele>195.28</ele>
        <time>2021-08-18T17:18:38Z</time>
      </trkpt>
      <trkpt lat="43.64053" lon="0.6776">
        <ele>195.28</ele>
        <time>2021-08-18T17:18:39Z</time>
      </trkpt>
      <trkpt lat="43.64065" lon="0.67717">
        <ele>190.96</ele>
        <time>2021-08-18T17:18:43Z</time>
      </trkpt>
      <trkpt lat="43.64068" lon="0.67705">
        <ele>190.96</ele>
        <time>2021-08-18T17:18:44Z</time>
      </trkpt>
      <trkpt lat="43.64076" lon="0.6767">
        <ele>187.59</ele>
        <time>2021-08-18T17:18:47Z</time>
      </trkpt>
      <trkpt lat="43.64079" lon="0.67661">
        <ele>187.59</ele>
        <time>2021-08-18T17:18:48Z</time>
      </trkpt>
      <trkpt lat="43.64082" lon="0.67652">
        <ele>187.59</ele>
        <time>2021-08-18T17:18:49Z</time>
      </trkpt>
      <trkpt lat="43.64085" lon="0.67645">
        <ele>186.63</ele>
        <time>2021-08-18T17:18:50Z</time>
      </trkpt>
      <trkpt lat="43.64094" lon="0.6763">
        <ele>184.71</ele>
        <time>2021-08-18T17:18:52Z</time>
      </trkpt>
      <trkpt lat="43.641" lon="0.67623">
        <ele>183.75</ele>
        <time>2021-08-18T17:18:53Z</time>
      </trkpt>
      <trkpt lat="43.64105" lon="0.67616">
        <ele>183.27</ele>
        <time>2021-08-18T17:18:54Z</time>
      </trkpt>
      <trkpt lat="43.6411" lon="0.67607">
        <ele>182.31</ele>
        <time>2021-08-18T17:18:55Z</time>
      </trkpt>
      <trkpt lat="43.64113" lon="0.67598">
        <ele>181.83</ele>
        <time>2021-08-18T17:18:56Z</time>
      </trkpt>
      <trkpt lat="43.64116" lon="0.67587">
        <ele>180.87</ele>
        <time>2021-08-18T17:18:57Z</time>
      </trkpt>
      <trkpt lat="43.6413" lon="0.6754">
        <ele>178.46</ele>
        <time>2021-08-18T17:19:02Z</time>
      </trkpt>
      <trkpt lat="43.64147" lon="0.675">
        <ele>174.62</ele>
        <time>2021-08-18T17:19:07Z</time>
      </trkpt>
      <trkpt lat="43.64157" lon="0.67483">
        <ele>171.73</ele>
        <time>2021-08-18T17:19:09Z</time>
      </trkpt>
      <trkpt lat="43.6417" lon="0.67465">
        <ele>169.33</ele>
        <time>2021-08-18T17:19:11Z</time>
      </trkpt>
      <trkpt lat="43.64176" lon="0.67453">
        <ele>168.37</ele>
        <time>2021-08-18T17:19:12Z</time>
      </trkpt>
      <trkpt lat="43.6418" lon="0.67442">
        <ele>167.41</ele>
        <time>2021-08-18T17:19:13Z</time>
      </trkpt>
      <trkpt lat="43.64186" lon="0.67421">
        <ele>166.45</ele>
        <time>2021-08-18T17:19:15Z</time>
      </trkpt>
      <trkpt lat="43.64189" lon="0.67406">
        <ele>167.41</ele>
        <time>2021-08-18T17:19:18Z</time>
      </trkpt>
      <trkpt lat="43.64192" lon="0.67395">
        <ele>165.96</ele>
        <time>2021-08-18T17:19:22Z</time>
      </trkpt>
      <trkpt lat="43.64193" lon="0.67393">
        <ele>165.48</ele>
        <time>2021-08-18T17:19:23Z</time>
      </trkpt>
      <trkpt lat="43.64193" lon="0.6739">
        <ele>167.41</ele>
        <time>2021-08-18T17:19:27Z</time>
      </trkpt>
      <trkpt lat="43.64194" lon="0.67383">
        <ele>167.89</ele>
        <time>2021-08-18T17:19:34Z</time>
      </trkpt>
      <trkpt lat="43.64195" lon="0.67372">
        <ele>167.89</ele>
        <time>2021-08-18T17:19:41Z</time>
      </trkpt>
      <trkpt lat="43.64195" lon="0.6737">
        <ele>167.89</ele>
        <time>2021-08-18T17:19:42Z</time>
      </trkpt>
      <trkpt lat="43.64197" lon="0.67345">
        <ele>168.37</ele>
        <time>2021-08-18T17:19:50Z</time>
      </trkpt>
      <trkpt lat="43.64199" lon="0.67318">
        <ele>168.85</ele>
        <time>2021-08-18T17:19:56Z</time>
      </trkpt>
      <trkpt lat="43.642" lon="0.67294">
        <ele>170.29</ele>
        <time>2021-08-18T17:20:04Z</time>
      </trkpt>
      <trkpt lat="43.64202" lon="0.67282">
        <ele>172.21</ele>
        <time>2021-08-18T17:20:12Z</time>
      </trkpt>
      <trkpt lat="43.64204" lon="0.67268">
        <ele>173.66</ele>
        <time>2021-08-18T17:20:22Z</time>
      </trkpt>
      <trkpt lat="43.64207" lon="0.67255">
        <ele>175.58</ele>
        <time>2021-08-18T17:20:31Z</time>
      </trkpt>
      <trkpt lat="43.64207" lon="0.67241">
        <ele>176.06</ele>
        <time>2021-08-18T17:20:41Z</time>
      </trkpt>
      <trkpt lat="43.64207" lon="0.67237">
        <ele>176.54</ele>
        <time>2021-08-18T17:20:47Z</time>
      </trkpt>
      <trkpt lat="43.64208" lon="0.6722">
        <ele>176.54</ele>
        <time>2021-08-18T17:20:54Z</time>
      </trkpt>
      <trkpt lat="43.6421" lon="0.67193">
        <ele>177.5</ele>
        <time>2021-08-18T17:21:02Z</time>
      </trkpt>
      <trkpt lat="43.64211" lon="0.67168">
        <ele>179.42</ele>
        <time>2021-08-18T17:21:10Z</time>
      </trkpt>
      <trkpt lat="43.64215" lon="0.67148">
        <ele>179.42</ele>
        <time>2021-08-18T17:21:17Z</time>
      </trkpt>
      <trkpt lat="43.64217" lon="0.67112">
        <ele>180.87</ele>
        <time>2021-08-18T17:21:27Z</time>
      </trkpt>
      <trkpt lat="43.64219" lon="0.67076">
        <ele>182.79</ele>
        <time>2021-08-18T17:21:38Z</time>
      </trkpt>
      <trkpt lat="43.64222" lon="0.67047">
        <ele>182.79</ele>
        <time>2021-08-18T17:21:47Z</time>
      </trkpt>
      <trkpt lat="43.64232" lon="0.67018">
        <ele>183.27</ele>
        <time>2021-08-18T17:21:55Z</time>
      </trkpt>
      <trkpt lat="43.64244" lon="0.66982">
        <ele>183.75</ele>
        <time>2021-08-18T17:22:03Z</time>
      </trkpt>
      <trkpt lat="43.64242" lon="0.66968">
        <ele>185.67</ele>
        <time>2021-08-18T17:22:09Z</time>
      </trkpt>
      <trkpt lat="43.64242" lon="0.66942">
        <ele>185.19</ele>
        <time>2021-08-18T17:22:16Z</time>
      </trkpt>
      <trkpt lat="43.64235" lon="0.66903">
        <ele>186.63</ele>
        <time>2021-08-18T17:22:27Z</time>
      </trkpt>
      <trkpt lat="43.64228" lon="0.66872">
        <ele>188.08</ele>
        <time>2021-08-18T17:22:37Z</time>
      </trkpt>
      <trkpt lat="43.64223" lon="0.66849">
        <ele>189.52</ele>
        <time>2021-08-18T17:22:47Z</time>
      </trkpt>
      <trkpt lat="43.64217" lon="0.66824">
        <ele>191.44</ele>
        <time>2021-08-18T17:22:58Z</time>
      </trkpt>
      <trkpt lat="43.64212" lon="0.66801">
        <ele>191.92</ele>
        <time>2021-08-18T17:23:08Z</time>
      </trkpt>
      <trkpt lat="43.64207" lon="0.66782">
        <ele>193.84</ele>
        <time>2021-08-18T17:23:16Z</time>
      </trkpt>
      <trkpt lat="43.64201" lon="0.66759">
        <ele>194.8</ele>
        <time>2021-08-18T17:23:25Z</time>
      </trkpt>
      <trkpt lat="43.642" lon="0.66736">
        <ele>195.77</ele>
        <time>2021-08-18T17:23:34Z</time>
      </trkpt>
      <trkpt lat="43.64198" lon="0.6671">
        <ele>196.73</ele>
        <time>2021-08-18T17:23:44Z</time>
      </trkpt>
      <trkpt lat="43.64196" lon="0.66681">
        <ele>197.21</ele>
        <time>2021-08-18T17:23:54Z</time>
      </trkpt>
      <trkpt lat="43.64194" lon="0.66657">
        <ele>198.65</ele>
        <time>2021-08-18T17:24:03Z</time>
      </trkpt>
      <trkpt lat="43.64192" lon="0.6663">
        <ele>200.09</ele>
        <time>2021-08-18T17:24:13Z</time>
      </trkpt>
      <trkpt lat="43.64191" lon="0.66606">
        <ele>201.05</ele>
        <time>2021-08-18T17:24:22Z</time>
      </trkpt>
      <trkpt lat="43.64191" lon="0.66581">
        <ele>202.01</ele>
        <time>2021-08-18T17:24:31Z</time>
      </trkpt>
      <trkpt lat="43.64191" lon="0.6655">
        <ele>202.98</ele>
        <time>2021-08-18T17:24:42Z</time>
      </trkpt>
      <trkpt lat="43.6419" lon="0.6653">
        <ele>203.94</ele>
        <time>2021-08-18T17:24:50Z</time>
      </trkpt>
      <trkpt lat="43.64189" lon="0.66511">
        <ele>205.38</ele>
        <time>2021-08-18T17:24:58Z</time>
      </trkpt>
      <trkpt lat="43.64188" lon="0.66489">
        <ele>206.34</ele>
        <time>2021-08-18T17:25:08Z</time>
      </trkpt>
      <trkpt lat="43.64188" lon="0.66469">
        <ele>207.78</ele>
        <time>2021-08-18T17:25:18Z</time>
      </trkpt>
      <trkpt lat="43.64189" lon="0.66451">
        <ele>208.74</ele>
        <time>2021-08-18T17:25:27Z</time>
      </trkpt>
      <trkpt lat="43.64189" lon="0.6644">
        <ele>211.15</ele>
        <time>2021-08-18T17:25:34Z</time>
      </trkpt>
      <trkpt lat="43.64189" lon="0.66423">
        <ele>213.07</ele>
        <time>2021-08-18T17:25:47Z</time>
      </trkpt>
      <trkpt lat="43.6419" lon="0.6641">
        <ele>214.51</ele>
        <time>2021-08-18T17:25:57Z</time>
      </trkpt>
      <trkpt lat="43.6419" lon="0.66407">
        <ele>214.99</ele>
        <time>2021-08-18T17:26:04Z</time>
      </trkpt>
      <trkpt lat="43.6419" lon="0.66396">
        <ele>215.95</ele>
        <time>2021-08-18T17:26:10Z</time>
      </trkpt>
      <trkpt lat="43.64191" lon="0.66371">
        <ele>217.88</ele>
        <time>2021-08-18T17:26:21Z</time>
      </trkpt>
      <trkpt lat="43.64192" lon="0.66349">
        <ele>219.32</ele>
        <time>2021-08-18T17:26:31Z</time>
      </trkpt>
      <trkpt lat="43.64194" lon="0.66329">
        <ele>220.76</ele>
        <time>2021-08-18T17:26:41Z</time>
      </trkpt>
      <trkpt lat="43.64195" lon="0.66319">
        <ele>221.72</ele>
        <time>2021-08-18T17:26:48Z</time>
      </trkpt>
      <trkpt lat="43.64194" lon="0.6632">
        <ele>221.72</ele>
        <time>2021-08-18T17:26:58Z</time>
      </trkpt>
      <trkpt lat="43.64193" lon="0.66317">
        <ele>221.72</ele>
        <time>2021-08-18T17:27:11Z</time>
      </trkpt>
      <trkpt lat="43.64193" lon="0.66311">
        <ele>222.68</ele>
        <time>2021-08-18T17:27:18Z</time>
      </trkpt>
      <trkpt lat="43.64195" lon="0.66301">
        <ele>225.09</ele>
        <time>2021-08-18T17:27:27Z</time>
      </trkpt>
      <trkpt lat="43.64195" lon="0.66292">
        <ele>226.53</ele>
        <time>2021-08-18T17:27:35Z</time>
      </trkpt>
      <trkpt lat="43.64197" lon="0.6628">
        <ele>227.97</ele>
        <time>2021-08-18T17:27:45Z</time>
      </trkpt>
      <trkpt lat="43.64199" lon="0.66272">
        <ele>229.89</ele>
        <time>2021-08-18T17:27:54Z</time>
      </trkpt>
      <trkpt lat="43.64201" lon="0.66266">
        <ele>230.85</ele>
        <time>2021-08-18T17:28:02Z</time>
      </trkpt>
      <trkpt lat="43.64204" lon="0.66255">
        <ele>232.78</ele>
        <time>2021-08-18T17:28:12Z</time>
      </trkpt>
      <trkpt lat="43.64207" lon="0.66252">
        <ele>232.78</ele>
        <time>2021-08-18T17:28:16Z</time>
      </trkpt>
      <trkpt lat="43.64209" lon="0.66251">
        <ele>232.78</ele>
        <time>2021-08-18T17:28:17Z</time>
      </trkpt>
      <trkpt lat="43.6421" lon="0.66251">
        <ele>232.78</ele>
        <time>2021-08-18T17:28:18Z</time>
      </trkpt>
      <trkpt lat="43.64212" lon="0.66252">
        <ele>232.78</ele>
        <time>2021-08-18T17:28:19Z</time>
      </trkpt>
      <trkpt lat="43.64214" lon="0.66252">
        <ele>232.78</ele>
        <time>2021-08-18T17:28:20Z</time>
      </trkpt>
      <trkpt lat="43.64216" lon="0.66253">
        <ele>232.78</ele>
        <time>2021-08-18T17:28:21Z</time>
      </trkpt>
      <trkpt lat="43.64217" lon="0.66253">
        <ele>232.78</ele>
        <time>2021-08-18T17:28:22Z</time>
      </trkpt>
      <trkpt lat="43.64219" lon="0.66254">
        <ele>232.78</ele>
        <time>2021-08-18T17:28:23Z</time>
      </trkpt>
      <trkpt lat="43.64221" lon="0.66255">
        <ele>232.78</ele>
        <time>2021-08-18T17:28:24Z</time>
      </trkpt>
      <trkpt lat="43.64223" lon="0.66256">
        <ele>232.78</ele>
        <time>2021-08-18T17:28:25Z</time>
      </trkpt>
      <trkpt lat="43.64225" lon="0.66256">
        <ele>232.78</ele>
        <time>2021-08-18T17:28:26Z</time>
      </trkpt>
      <trkpt lat="43.64243" lon="0.66269">
        <ele>232.78</ele>
        <time>2021-08-18T17:28:32Z</time>
      </trkpt>
      <trkpt lat="43.64267" lon="0.66285">
        <ele>233.74</ele>
        <time>2021-08-18T17:28:40Z</time>
      </trkpt>
      <trkpt lat="43.64286" lon="0.66281">
        <ele>234.22</ele>
        <time>2021-08-18T17:28:46Z</time>
      </trkpt>
      <trkpt lat="43.64307" lon="0.66284">
        <ele>235.66</ele>
        <time>2021-08-18T17:28:53Z</time>
      </trkpt>
      <trkpt lat="43.64325" lon="0.66289">
        <ele>236.14</ele>
        <time>2021-08-18T17:28:59Z</time>
      </trkpt>
      <trkpt lat="43.6433" lon="0.66289">
        <ele>234.7</ele>
        <time>2021-08-18T17:29:00Z</time>
      </trkpt>
      <trkpt lat="43.64334" lon="0.66288">
        <ele>234.7</ele>
        <time>2021-08-18T17:29:01Z</time>
      </trkpt>
      <trkpt lat="43.64337" lon="0.66285">
        <ele>234.7</ele>
        <time>2021-08-18T17:29:02Z</time>
      </trkpt>
      <trkpt lat="43.6434" lon="0.66282">
        <ele>234.7</ele>
        <time>2021-08-18T17:29:03Z</time>
      </trkpt>
      <trkpt lat="43.64343" lon="0.66279">
        <ele>234.7</ele>
        <time>2021-08-18T17:29:04Z</time>
      </trkpt>
      <trkpt lat="43.64369" lon="0.66252">
        <ele>234.22</ele>
        <time>2021-08-18T17:29:12Z</time>
      </trkpt>
      <trkpt lat="43.64374" lon="0.66249">
        <ele>234.22</ele>
        <time>2021-08-18T17:29:13Z</time>
      </trkpt>
      <trkpt lat="43.64382" lon="0.66244">
        <ele>234.22</ele>
        <time>2021-08-18T17:29:15Z</time>
      </trkpt>
      <trkpt lat="43.64386" lon="0.66243">
        <ele>234.22</ele>
        <time>2021-08-18T17:29:16Z</time>
      </trkpt>
      <trkpt lat="43.64389" lon="0.66242">
        <ele>234.22</ele>
        <time>2021-08-18T17:29:17Z</time>
      </trkpt>
      <trkpt lat="43.64393" lon="0.66242">
        <ele>235.66</ele>
        <time>2021-08-18T17:29:18Z</time>
      </trkpt>
      <trkpt lat="43.64395" lon="0.66242">
        <ele>236.14</ele>
        <time>2021-08-18T17:29:19Z</time>
      </trkpt>
      <trkpt lat="43.64415" lon="0.66237">
        <ele>236.14</ele>
        <time>2021-08-18T17:29:25Z</time>
      </trkpt>
      <trkpt lat="43.64447" lon="0.66213">
        <ele>236.62</ele>
        <time>2021-08-18T17:29:34Z</time>
      </trkpt>
      <trkpt lat="43.64486" lon="0.66175">
        <ele>236.14</ele>
        <time>2021-08-18T17:29:45Z</time>
      </trkpt>
      <trkpt lat="43.64518" lon="0.66148">
        <ele>236.62</ele>
        <time>2021-08-18T17:29:54Z</time>
      </trkpt>
      <trkpt lat="43.64549" lon="0.66113">
        <ele>236.62</ele>
        <time>2021-08-18T17:30:02Z</time>
      </trkpt>
      <trkpt lat="43.64578" lon="0.66081">
        <ele>235.66</ele>
        <time>2021-08-18T17:30:10Z</time>
      </trkpt>
      <trkpt lat="43.64593" lon="0.66064">
        <ele>234.7</ele>
        <time>2021-08-18T17:30:14Z</time>
      </trkpt>
      <trkpt lat="43.64597" lon="0.66058">
        <ele>234.7</ele>
        <time>2021-08-18T17:30:15Z</time>
      </trkpt>
      <trkpt lat="43.646" lon="0.66055">
        <ele>234.7</ele>
        <time>2021-08-18T17:30:16Z</time>
      </trkpt>
      <trkpt lat="43.64607" lon="0.66045">
        <ele>234.7</ele>
        <time>2021-08-18T17:30:18Z</time>
      </trkpt>
      <trkpt lat="43.64611" lon="0.66039">
        <ele>234.7</ele>
        <time>2021-08-18T17:30:19Z</time>
      </trkpt>
      <trkpt lat="43.6463" lon="0.65999">
        <ele>235.66</ele>
        <time>2021-08-18T17:30:26Z</time>
      </trkpt>
      <trkpt lat="43.64641" lon="0.65965">
        <ele>235.66</ele>
        <time>2021-08-18T17:30:31Z</time>
      </trkpt>
      <trkpt lat="43.64642" lon="0.65958">
        <ele>235.66</ele>
        <time>2021-08-18T17:30:32Z</time>
      </trkpt>
      <trkpt lat="43.64644" lon="0.65952">
        <ele>235.66</ele>
        <time>2021-08-18T17:30:33Z</time>
      </trkpt>
      <trkpt lat="43.64648" lon="0.65941">
        <ele>235.66</ele>
        <time>2021-08-18T17:30:35Z</time>
      </trkpt>
      <trkpt lat="43.64651" lon="0.65937">
        <ele>235.66</ele>
        <time>2021-08-18T17:30:36Z</time>
      </trkpt>
      <trkpt lat="43.64654" lon="0.65932">
        <ele>235.66</ele>
        <time>2021-08-18T17:30:37Z</time>
      </trkpt>
      <trkpt lat="43.64661" lon="0.65921">
        <ele>235.66</ele>
        <time>2021-08-18T17:30:39Z</time>
      </trkpt>
      <trkpt lat="43.6468" lon="0.65897">
        <ele>235.66</ele>
        <time>2021-08-18T17:30:44Z</time>
      </trkpt>
      <trkpt lat="43.64688" lon="0.65888">
        <ele>235.66</ele>
        <time>2021-08-18T17:30:46Z</time>
      </trkpt>
      <trkpt lat="43.64692" lon="0.65882">
        <ele>235.66</ele>
        <time>2021-08-18T17:30:47Z</time>
      </trkpt>
      <trkpt lat="43.64701" lon="0.65871">
        <ele>234.7</ele>
        <time>2021-08-18T17:30:49Z</time>
      </trkpt>
      <trkpt lat="43.64704" lon="0.65864">
        <ele>234.7</ele>
        <time>2021-08-18T17:30:50Z</time>
      </trkpt>
      <trkpt lat="43.64708" lon="0.65858">
        <ele>234.7</ele>
        <time>2021-08-18T17:30:51Z</time>
      </trkpt>
      <trkpt lat="43.64713" lon="0.65844">
        <ele>234.7</ele>
        <time>2021-08-18T17:30:53Z</time>
      </trkpt>
      <trkpt lat="43.64715" lon="0.65837">
        <ele>234.7</ele>
        <time>2021-08-18T17:30:54Z</time>
      </trkpt>
      <trkpt lat="43.64717" lon="0.6583">
        <ele>234.7</ele>
        <time>2021-08-18T17:30:55Z</time>
      </trkpt>
      <trkpt lat="43.6472" lon="0.65823">
        <ele>234.7</ele>
        <time>2021-08-18T17:30:56Z</time>
      </trkpt>
      <trkpt lat="43.64723" lon="0.65818">
        <ele>234.7</ele>
        <time>2021-08-18T17:30:57Z</time>
      </trkpt>
      <trkpt lat="43.64727" lon="0.65813">
        <ele>234.7</ele>
        <time>2021-08-18T17:30:58Z</time>
      </trkpt>
      <trkpt lat="43.6473" lon="0.65808">
        <ele>234.7</ele>
        <time>2021-08-18T17:30:59Z</time>
      </trkpt>
      <trkpt lat="43.64734" lon="0.65803">
        <ele>234.7</ele>
        <time>2021-08-18T17:31:00Z</time>
      </trkpt>
      <trkpt lat="43.64738" lon="0.658">
        <ele>234.7</ele>
        <time>2021-08-18T17:31:01Z</time>
      </trkpt>
      <trkpt lat="43.64748" lon="0.65794">
        <ele>233.74</ele>
        <time>2021-08-18T17:31:03Z</time>
      </trkpt>
      <trkpt lat="43.64752" lon="0.65789">
        <ele>233.26</ele>
        <time>2021-08-18T17:31:04Z</time>
      </trkpt>
      <trkpt lat="43.64757" lon="0.65783">
        <ele>233.26</ele>
        <time>2021-08-18T17:31:05Z</time>
      </trkpt>
      <trkpt lat="43.64761" lon="0.65777">
        <ele>232.78</ele>
        <time>2021-08-18T17:31:06Z</time>
      </trkpt>
      <trkpt lat="43.64766" lon="0.65771">
        <ele>232.3</ele>
        <time>2021-08-18T17:31:07Z</time>
      </trkpt>
      <trkpt lat="43.64781" lon="0.6575">
        <ele>229.89</ele>
        <time>2021-08-18T17:31:10Z</time>
      </trkpt>
      <trkpt lat="43.64791" lon="0.65734">
        <ele>227.49</ele>
        <time>2021-08-18T17:31:12Z</time>
      </trkpt>
      <trkpt lat="43.64797" lon="0.65728">
        <ele>227.49</ele>
        <time>2021-08-18T17:31:13Z</time>
      </trkpt>
      <trkpt lat="43.64804" lon="0.65724">
        <ele>226.53</ele>
        <time>2021-08-18T17:31:14Z</time>
      </trkpt>
      <trkpt lat="43.64812" lon="0.65721">
        <ele>225.57</ele>
        <time>2021-08-18T17:31:15Z</time>
      </trkpt>
      <trkpt lat="43.6482" lon="0.6572">
        <ele>224.12</ele>
        <time>2021-08-18T17:31:16Z</time>
      </trkpt>
      <trkpt lat="43.64828" lon="0.6572">
        <ele>223.64</ele>
        <time>2021-08-18T17:31:17Z</time>
      </trkpt>
      <trkpt lat="43.64845" lon="0.6572">
        <ele>222.2</ele>
        <time>2021-08-18T17:31:20Z</time>
      </trkpt>
      <trkpt lat="43.64849" lon="0.65721">
        <ele>222.2</ele>
        <time>2021-08-18T17:31:21Z</time>
      </trkpt>
      <trkpt lat="43.64851" lon="0.65723">
        <ele>221.72</ele>
        <time>2021-08-18T17:31:22Z</time>
      </trkpt>
      <trkpt lat="43.64853" lon="0.65725">
        <ele>221.24</ele>
        <time>2021-08-18T17:31:23Z</time>
      </trkpt>
      <trkpt lat="43.64855" lon="0.65727">
        <ele>221.24</ele>
        <time>2021-08-18T17:31:24Z</time>
      </trkpt>
      <trkpt lat="43.64858" lon="0.65728">
        <ele>220.28</ele>
        <time>2021-08-18T17:31:25Z</time>
      </trkpt>
      <trkpt lat="43.64862" lon="0.6573">
        <ele>219.32</ele>
        <time>2021-08-18T17:31:26Z</time>
      </trkpt>
      <trkpt lat="43.64866" lon="0.65733">
        <ele>218.84</ele>
        <time>2021-08-18T17:31:27Z</time>
      </trkpt>
      <trkpt lat="43.64879" lon="0.65744">
        <ele>216.43</ele>
        <time>2021-08-18T17:31:31Z</time>
      </trkpt>
      <trkpt lat="43.64881" lon="0.65747">
        <ele>215.95</ele>
        <time>2021-08-18T17:31:32Z</time>
      </trkpt>
      <trkpt lat="43.64882" lon="0.65751">
        <ele>215.95</ele>
        <time>2021-08-18T17:31:33Z</time>
      </trkpt>
      <trkpt lat="43.64883" lon="0.65756">
        <ele>214.99</ele>
        <time>2021-08-18T17:31:34Z</time>
      </trkpt>
      <trkpt lat="43.64885" lon="0.6576">
        <ele>214.51</ele>
        <time>2021-08-18T17:31:35Z</time>
      </trkpt>
      <trkpt lat="43.64888" lon="0.65763">
        <ele>214.51</ele>
        <time>2021-08-18T17:31:36Z</time>
      </trkpt>
      <trkpt lat="43.64892" lon="0.65764">
        <ele>214.51</ele>
        <time>2021-08-18T17:31:37Z</time>
      </trkpt>
      <trkpt lat="43.64896" lon="0.65765">
        <ele>213.55</ele>
        <time>2021-08-18T17:31:38Z</time>
      </trkpt>
      <trkpt lat="43.64901" lon="0.65766">
        <ele>213.55</ele>
        <time>2021-08-18T17:31:39Z</time>
      </trkpt>
      <trkpt lat="43.64929" lon="0.65775">
        <ele>213.55</ele>
        <time>2021-08-18T17:31:46Z</time>
      </trkpt>
      <trkpt lat="43.64956" lon="0.65781">
        <ele>213.55</ele>
        <time>2021-08-18T17:31:55Z</time>
      </trkpt>
      <trkpt lat="43.64969" lon="0.65772">
        <ele>214.99</ele>
        <time>2021-08-18T17:32:00Z</time>
      </trkpt>
      <trkpt lat="43.64986" lon="0.65743">
        <ele>215.95</ele>
        <time>2021-08-18T17:32:09Z</time>
      </trkpt>
      <trkpt lat="43.65002" lon="0.65719">
        <ele>216.43</ele>
        <time>2021-08-18T17:32:16Z</time>
      </trkpt>
      <trkpt lat="43.65019" lon="0.65689">
        <ele>216.91</ele>
        <time>2021-08-18T17:32:24Z</time>
      </trkpt>
      <trkpt lat="43.65033" lon="0.65668">
        <ele>217.88</ele>
        <time>2021-08-18T17:32:30Z</time>
      </trkpt>
      <trkpt lat="43.65045" lon="0.6565">
        <ele>218.84</ele>
        <time>2021-08-18T17:32:36Z</time>
      </trkpt>
      <trkpt lat="43.65053" lon="0.65632">
        <ele>220.76</ele>
        <time>2021-08-18T17:32:43Z</time>
      </trkpt>
      <trkpt lat="43.65061" lon="0.65619">
        <ele>221.72</ele>
        <time>2021-08-18T17:32:52Z</time>
      </trkpt>
      <trkpt lat="43.65067" lon="0.65609">
        <ele>223.64</ele>
        <time>2021-08-18T17:32:59Z</time>
      </trkpt>
      <trkpt lat="43.65074" lon="0.65596">
        <ele>224.61</ele>
        <time>2021-08-18T17:33:07Z</time>
      </trkpt>
      <trkpt lat="43.65078" lon="0.6559">
        <ele>226.05</ele>
        <time>2021-08-18T17:33:11Z</time>
      </trkpt>
      <trkpt lat="43.65079" lon="0.65589">
        <ele>226.05</ele>
        <time>2021-08-18T17:33:12Z</time>
      </trkpt>
      <trkpt lat="43.6508" lon="0.65588">
        <ele>226.05</ele>
        <time>2021-08-18T17:33:13Z</time>
      </trkpt>
      <trkpt lat="43.65082" lon="0.65586">
        <ele>226.05</ele>
        <time>2021-08-18T17:33:14Z</time>
      </trkpt>
      <trkpt lat="43.65083" lon="0.65585">
        <ele>226.53</ele>
        <time>2021-08-18T17:33:15Z</time>
      </trkpt>
      <trkpt lat="43.65084" lon="0.65583">
        <ele>226.53</ele>
        <time>2021-08-18T17:33:16Z</time>
      </trkpt>
      <trkpt lat="43.65091" lon="0.65569">
        <ele>227.01</ele>
        <time>2021-08-18T17:33:22Z</time>
      </trkpt>
      <trkpt lat="43.65106" lon="0.65545">
        <ele>226.53</ele>
        <time>2021-08-18T17:33:29Z</time>
      </trkpt>
      <trkpt lat="43.65109" lon="0.6554">
        <ele>225.09</ele>
        <time>2021-08-18T17:33:30Z</time>
      </trkpt>
      <trkpt lat="43.65113" lon="0.65534">
        <ele>224.61</ele>
        <time>2021-08-18T17:33:31Z</time>
      </trkpt>
      <trkpt lat="43.65116" lon="0.65527">
        <ele>224.61</ele>
        <time>2021-08-18T17:33:32Z</time>
      </trkpt>
      <trkpt lat="43.65123" lon="0.65512">
        <ele>223.16</ele>
        <time>2021-08-18T17:33:34Z</time>
      </trkpt>
      <trkpt lat="43.65146" lon="0.65462">
        <ele>222.2</ele>
        <time>2021-08-18T17:33:41Z</time>
      </trkpt>
      <trkpt lat="43.65148" lon="0.65456">
        <ele>222.2</ele>
        <time>2021-08-18T17:33:42Z</time>
      </trkpt>
      <trkpt lat="43.6515" lon="0.6545">
        <ele>223.16</ele>
        <time>2021-08-18T17:33:43Z</time>
      </trkpt>
      <trkpt lat="43.65158" lon="0.65423">
        <ele>224.61</ele>
        <time>2021-08-18T17:33:49Z</time>
      </trkpt>
      <trkpt lat="43.65164" lon="0.65403">
        <ele>226.05</ele>
        <time>2021-08-18T17:33:57Z</time>
      </trkpt>
      <trkpt lat="43.65166" lon="0.65389">
        <ele>226.53</ele>
        <time>2021-08-18T17:34:05Z</time>
      </trkpt>
      <trkpt lat="43.65169" lon="0.65378">
        <ele>228.45</ele>
        <time>2021-08-18T17:34:12Z</time>
      </trkpt>
      <trkpt lat="43.6517" lon="0.65375">
        <ele>228.93</ele>
        <time>2021-08-18T17:34:14Z</time>
      </trkpt>
      <trkpt lat="43.6517" lon="0.65373">
        <ele>228.93</ele>
        <time>2021-08-18T17:34:15Z</time>
      </trkpt>
      <trkpt lat="43.65171" lon="0.65371">
        <ele>228.93</ele>
        <time>2021-08-18T17:34:16Z</time>
      </trkpt>
      <trkpt lat="43.65171" lon="0.65369">
        <ele>228.93</ele>
        <time>2021-08-18T17:34:17Z</time>
      </trkpt>
      <trkpt lat="43.65173" lon="0.65363">
        <ele>229.89</ele>
        <time>2021-08-18T17:34:21Z</time>
      </trkpt>
      <trkpt lat="43.65173" lon="0.65361">
        <ele>230.37</ele>
        <time>2021-08-18T17:34:22Z</time>
      </trkpt>
      <trkpt lat="43.65179" lon="0.65345">
        <ele>231.81</ele>
        <time>2021-08-18T17:34:31Z</time>
      </trkpt>
      <trkpt lat="43.65188" lon="0.65323">
        <ele>232.3</ele>
        <time>2021-08-18T17:34:39Z</time>
      </trkpt>
      <trkpt lat="43.65194" lon="0.65299">
        <ele>233.74</ele>
        <time>2021-08-18T17:34:47Z</time>
      </trkpt>
      <trkpt lat="43.65203" lon="0.65266">
        <ele>233.74</ele>
        <time>2021-08-18T17:34:55Z</time>
      </trkpt>
      <trkpt lat="43.65211" lon="0.6523">
        <ele>234.22</ele>
        <time>2021-08-18T17:35:03Z</time>
      </trkpt>
      <trkpt lat="43.65215" lon="0.65206">
        <ele>235.18</ele>
        <time>2021-08-18T17:35:09Z</time>
      </trkpt>
      <trkpt lat="43.65222" lon="0.65168">
        <ele>235.66</ele>
        <time>2021-08-18T17:35:17Z</time>
      </trkpt>
      <trkpt lat="43.65228" lon="0.65129">
        <ele>236.62</ele>
        <time>2021-08-18T17:35:25Z</time>
      </trkpt>
      <trkpt lat="43.65234" lon="0.65083">
        <ele>236.62</ele>
        <time>2021-08-18T17:35:34Z</time>
      </trkpt>
      <trkpt lat="43.65239" lon="0.65064">
        <ele>236.62</ele>
        <time>2021-08-18T17:35:38Z</time>
      </trkpt>
      <trkpt lat="43.65241" lon="0.65058">
        <ele>236.62</ele>
        <time>2021-08-18T17:35:39Z</time>
      </trkpt>
      <trkpt lat="43.65243" lon="0.65054">
        <ele>236.62</ele>
        <time>2021-08-18T17:35:40Z</time>
      </trkpt>
      <trkpt lat="43.65246" lon="0.6505">
        <ele>236.62</ele>
        <time>2021-08-18T17:35:41Z</time>
      </trkpt>
      <trkpt lat="43.65249" lon="0.65046">
        <ele>236.62</ele>
        <time>2021-08-18T17:35:42Z</time>
      </trkpt>
      <trkpt lat="43.65251" lon="0.65044">
        <ele>236.62</ele>
        <time>2021-08-18T17:35:43Z</time>
      </trkpt>
      <trkpt lat="43.6527" lon="0.65024">
        <ele>236.62</ele>
        <time>2021-08-18T17:35:49Z</time>
      </trkpt>
      <trkpt lat="43.65294" lon="0.64997">
        <ele>236.62</ele>
        <time>2021-08-18T17:35:56Z</time>
      </trkpt>
      <trkpt lat="43.65314" lon="0.64964">
        <ele>235.18</ele>
        <time>2021-08-18T17:36:04Z</time>
      </trkpt>
      <trkpt lat="43.6533" lon="0.64915">
        <ele>234.22</ele>
        <time>2021-08-18T17:36:13Z</time>
      </trkpt>
      <trkpt lat="43.65335" lon="0.6486">
        <ele>233.74</ele>
        <time>2021-08-18T17:36:21Z</time>
      </trkpt>
      <trkpt lat="43.65335" lon="0.64847">
        <ele>233.74</ele>
        <time>2021-08-18T17:36:23Z</time>
      </trkpt>
      <trkpt lat="43.65334" lon="0.64841">
        <ele>232.78</ele>
        <time>2021-08-18T17:36:24Z</time>
      </trkpt>
      <trkpt lat="43.65332" lon="0.64834">
        <ele>231.33</ele>
        <time>2021-08-18T17:36:25Z</time>
      </trkpt>
      <trkpt lat="43.65315" lon="0.64795">
        <ele>228.93</ele>
        <time>2021-08-18T17:36:30Z</time>
      </trkpt>
      <trkpt lat="43.65312" lon="0.64786">
        <ele>227.97</ele>
        <time>2021-08-18T17:36:31Z</time>
      </trkpt>
      <trkpt lat="43.65302" lon="0.64752">
        <ele>225.09</ele>
        <time>2021-08-18T17:36:34Z</time>
      </trkpt>
      <trkpt lat="43.65297" lon="0.64741">
        <ele>225.09</ele>
        <time>2021-08-18T17:36:35Z</time>
      </trkpt>
      <trkpt lat="43.65292" lon="0.6473">
        <ele>224.12</ele>
        <time>2021-08-18T17:36:36Z</time>
      </trkpt>
      <trkpt lat="43.65269" lon="0.64691">
        <ele>220.76</ele>
        <time>2021-08-18T17:36:41Z</time>
      </trkpt>
      <trkpt lat="43.65266" lon="0.64686">
        <ele>219.8</ele>
        <time>2021-08-18T17:36:42Z</time>
      </trkpt>
      <trkpt lat="43.65261" lon="0.64681">
        <ele>219.32</ele>
        <time>2021-08-18T17:36:43Z</time>
      </trkpt>
      <trkpt lat="43.65242" lon="0.64665">
        <ele>216.91</ele>
        <time>2021-08-18T17:36:47Z</time>
      </trkpt>
      <trkpt lat="43.65232" lon="0.64659">
        <ele>215.95</ele>
        <time>2021-08-18T17:36:51Z</time>
      </trkpt>
      <trkpt lat="43.6523" lon="0.64662">
        <ele>214.99</ele>
        <time>2021-08-18T17:36:52Z</time>
      </trkpt>
      <trkpt lat="43.6523" lon="0.64667">
        <ele>214.51</ele>
        <time>2021-08-18T17:36:53Z</time>
      </trkpt>
      <trkpt lat="43.6523" lon="0.64671">
        <ele>214.03</ele>
        <time>2021-08-18T17:36:54Z</time>
      </trkpt>
      <trkpt lat="43.65231" lon="0.64675">
        <ele>213.07</ele>
        <time>2021-08-18T17:36:55Z</time>
      </trkpt>
      <trkpt lat="43.65231" lon="0.64679">
        <ele>213.07</ele>
        <time>2021-08-18T17:36:56Z</time>
      </trkpt>
      <trkpt lat="43.65231" lon="0.64683">
        <ele>212.11</ele>
        <time>2021-08-18T17:36:57Z</time>
      </trkpt>
      <trkpt lat="43.65231" lon="0.64687">
        <ele>211.63</ele>
        <time>2021-08-18T17:36:58Z</time>
      </trkpt>
      <trkpt lat="43.65229" lon="0.6469">
        <ele>211.15</ele>
        <time>2021-08-18T17:36:59Z</time>
      </trkpt>
      <trkpt lat="43.65227" lon="0.64693">
        <ele>210.19</ele>
        <time>2021-08-18T17:37:00Z</time>
      </trkpt>
      <trkpt lat="43.65224" lon="0.64694">
        <ele>209.7</ele>
        <time>2021-08-18T17:37:01Z</time>
      </trkpt>
      <trkpt lat="43.65221" lon="0.64695">
        <ele>209.22</ele>
        <time>2021-08-18T17:37:02Z</time>
      </trkpt>
      <trkpt lat="43.65217" lon="0.64695">
        <ele>208.74</ele>
        <time>2021-08-18T17:37:03Z</time>
      </trkpt>
      <trkpt lat="43.65212" lon="0.64693">
        <ele>208.26</ele>
        <time>2021-08-18T17:37:04Z</time>
      </trkpt>
      <trkpt lat="43.65208" lon="0.6469">
        <ele>207.78</ele>
        <time>2021-08-18T17:37:05Z</time>
      </trkpt>
      <trkpt lat="43.65203" lon="0.64686">
        <ele>207.3</ele>
        <time>2021-08-18T17:37:06Z</time>
      </trkpt>
      <trkpt lat="43.652" lon="0.64682">
        <ele>207.78</ele>
        <time>2021-08-18T17:37:07Z</time>
      </trkpt>
      <trkpt lat="43.65197" lon="0.64677">
        <ele>207.78</ele>
        <time>2021-08-18T17:37:08Z</time>
      </trkpt>
      <trkpt lat="43.65194" lon="0.64672">
        <ele>207.78</ele>
        <time>2021-08-18T17:37:09Z</time>
      </trkpt>
      <trkpt lat="43.65181" lon="0.64651">
        <ele>208.74</ele>
        <time>2021-08-18T17:37:15Z</time>
      </trkpt>
      <trkpt lat="43.65168" lon="0.64629">
        <ele>210.67</ele>
        <time>2021-08-18T17:37:22Z</time>
      </trkpt>
      <trkpt lat="43.6516" lon="0.64605">
        <ele>211.15</ele>
        <time>2021-08-18T17:37:29Z</time>
      </trkpt>
      <trkpt lat="43.65156" lon="0.64595">
        <ele>209.7</ele>
        <time>2021-08-18T17:37:31Z</time>
      </trkpt>
      <trkpt lat="43.65148" lon="0.64557">
        <ele>208.26</ele>
        <time>2021-08-18T17:37:38Z</time>
      </trkpt>
      <trkpt lat="43.65147" lon="0.64551">
        <ele>208.26</ele>
        <time>2021-08-18T17:37:39Z</time>
      </trkpt>
      <trkpt lat="43.65147" lon="0.64545">
        <ele>208.26</ele>
        <time>2021-08-18T17:37:40Z</time>
      </trkpt>
      <trkpt lat="43.65147" lon="0.64539">
        <ele>208.26</ele>
        <time>2021-08-18T17:37:41Z</time>
      </trkpt>
      <trkpt lat="43.65147" lon="0.64533">
        <ele>208.26</ele>
        <time>2021-08-18T17:37:42Z</time>
      </trkpt>
      <trkpt lat="43.65147" lon="0.64527">
        <ele>208.26</ele>
        <time>2021-08-18T17:37:43Z</time>
      </trkpt>
      <trkpt lat="43.65155" lon="0.64488">
        <ele>207.78</ele>
        <time>2021-08-18T17:37:50Z</time>
      </trkpt>
      <trkpt lat="43.65168" lon="0.64452">
        <ele>204.42</ele>
        <time>2021-08-18T17:37:56Z</time>
      </trkpt>
      <trkpt lat="43.65181" lon="0.64429">
        <ele>200.57</ele>
        <time>2021-08-18T17:37:59Z</time>
      </trkpt>
      <trkpt lat="43.65189" lon="0.6441">
        <ele>197.69</ele>
        <time>2021-08-18T17:38:01Z</time>
      </trkpt>
      <trkpt lat="43.65193" lon="0.64401">
        <ele>196.25</ele>
        <time>2021-08-18T17:38:02Z</time>
      </trkpt>
      <trkpt lat="43.65195" lon="0.64391">
        <ele>195.28</ele>
        <time>2021-08-18T17:38:03Z</time>
      </trkpt>
      <trkpt lat="43.65194" lon="0.6438">
        <ele>193.84</ele>
        <time>2021-08-18T17:38:04Z</time>
      </trkpt>
      <trkpt lat="43.65192" lon="0.64369">
        <ele>192.4</ele>
        <time>2021-08-18T17:38:05Z</time>
      </trkpt>
      <trkpt lat="43.65188" lon="0.64358">
        <ele>190.96</ele>
        <time>2021-08-18T17:38:06Z</time>
      </trkpt>
      <trkpt lat="43.65184" lon="0.64347">
        <ele>190.96</ele>
        <time>2021-08-18T17:38:07Z</time>
      </trkpt>
      <trkpt lat="43.6518" lon="0.64337">
        <ele>189.52</ele>
        <time>2021-08-18T17:38:08Z</time>
      </trkpt>
      <trkpt lat="43.65175" lon="0.64327">
        <ele>188.08</ele>
        <time>2021-08-18T17:38:09Z</time>
      </trkpt>
      <trkpt lat="43.65161" lon="0.64299">
        <ele>184.71</ele>
        <time>2021-08-18T17:38:12Z</time>
      </trkpt>
      <trkpt lat="43.6515" lon="0.64279">
        <ele>181.35</ele>
        <time>2021-08-18T17:38:14Z</time>
      </trkpt>
      <trkpt lat="43.6514" lon="0.64259">
        <ele>178.46</ele>
        <time>2021-08-18T17:38:16Z</time>
      </trkpt>
      <trkpt lat="43.65128" lon="0.64236">
        <ele>175.1</ele>
        <time>2021-08-18T17:38:18Z</time>
      </trkpt>
      <trkpt lat="43.65115" lon="0.64212">
        <ele>171.25</ele>
        <time>2021-08-18T17:38:20Z</time>
      </trkpt>
      <trkpt lat="43.65093" lon="0.64178">
        <ele>166.93</ele>
        <time>2021-08-18T17:38:23Z</time>
      </trkpt>
      <trkpt lat="43.65077" lon="0.64156">
        <ele>163.08</ele>
        <time>2021-08-18T17:38:25Z</time>
      </trkpt>
      <trkpt lat="43.65055" lon="0.64123">
        <ele>158.75</ele>
        <time>2021-08-18T17:38:28Z</time>
      </trkpt>
      <trkpt lat="43.65034" lon="0.64094">
        <ele>156.35</ele>
        <time>2021-08-18T17:38:31Z</time>
      </trkpt>
      <trkpt lat="43.65011" lon="0.6406">
        <ele>153.47</ele>
        <time>2021-08-18T17:38:36Z</time>
      </trkpt>
      <trkpt lat="43.65008" lon="0.64053">
        <ele>152.99</ele>
        <time>2021-08-18T17:38:37Z</time>
      </trkpt>
      <trkpt lat="43.65008" lon="0.64044">
        <ele>151.06</ele>
        <time>2021-08-18T17:38:38Z</time>
      </trkpt>
      <trkpt lat="43.6501" lon="0.64032">
        <ele>150.1</ele>
        <time>2021-08-18T17:38:39Z</time>
      </trkpt>
      <trkpt lat="43.65013" lon="0.64025">
        <ele>149.14</ele>
        <time>2021-08-18T17:38:40Z</time>
      </trkpt>
      <trkpt lat="43.65017" lon="0.64015">
        <ele>148.18</ele>
        <time>2021-08-18T17:38:41Z</time>
      </trkpt>
      <trkpt lat="43.65046" lon="0.63942">
        <ele>145.78</ele>
        <time>2021-08-18T17:38:48Z</time>
      </trkpt>
      <trkpt lat="43.65059" lon="0.63898">
        <ele>145.3</ele>
        <time>2021-08-18T17:38:53Z</time>
      </trkpt>
      <trkpt lat="43.6506" lon="0.6389">
        <ele>146.74</ele>
        <time>2021-08-18T17:38:54Z</time>
      </trkpt>
      <trkpt lat="43.65059" lon="0.63883">
        <ele>146.74</ele>
        <time>2021-08-18T17:38:55Z</time>
      </trkpt>
      <trkpt lat="43.65059" lon="0.63877">
        <ele>146.74</ele>
        <time>2021-08-18T17:38:56Z</time>
      </trkpt>
      <trkpt lat="43.65049" lon="0.63826">
        <ele>146.74</ele>
        <time>2021-08-18T17:39:03Z</time>
      </trkpt>
      <trkpt lat="43.65039" lon="0.63758">
        <ele>147.22</ele>
        <time>2021-08-18T17:39:14Z</time>
      </trkpt>
      <trkpt lat="43.65037" lon="0.63718">
        <ele>148.18</ele>
        <time>2021-08-18T17:39:22Z</time>
      </trkpt>
      <trkpt lat="43.65035" lon="0.63683">
        <ele>149.62</ele>
        <time>2021-08-18T17:39:31Z</time>
      </trkpt>
      <trkpt lat="43.65033" lon="0.63652">
        <ele>151.06</ele>
        <time>2021-08-18T17:39:41Z</time>
      </trkpt>
      <trkpt lat="43.65031" lon="0.63628">
        <ele>152.51</ele>
        <time>2021-08-18T17:39:50Z</time>
      </trkpt>
      <trkpt lat="43.6503" lon="0.63609">
        <ele>153.95</ele>
        <time>2021-08-18T17:39:59Z</time>
      </trkpt>
      <trkpt lat="43.65027" lon="0.63585">
        <ele>155.87</ele>
        <time>2021-08-18T17:40:09Z</time>
      </trkpt>
      <trkpt lat="43.65025" lon="0.63568">
        <ele>156.35</ele>
        <time>2021-08-18T17:40:17Z</time>
      </trkpt>
      <trkpt lat="43.65025" lon="0.63554">
        <ele>157.79</ele>
        <time>2021-08-18T17:40:26Z</time>
      </trkpt>
      <trkpt lat="43.65027" lon="0.63554">
        <ele>157.79</ele>
        <time>2021-08-18T17:40:41Z</time>
      </trkpt>
      <trkpt lat="43.65026" lon="0.63553">
        <ele>157.79</ele>
        <time>2021-08-18T17:40:46Z</time>
      </trkpt>
      <trkpt lat="43.65026" lon="0.63551">
        <ele>157.79</ele>
        <time>2021-08-18T17:41:04Z</time>
      </trkpt>
      <trkpt lat="43.65026" lon="0.63552">
        <ele>157.79</ele>
        <time>2021-08-18T17:41:24Z</time>
      </trkpt>
      <trkpt lat="43.65026" lon="0.63553">
        <ele>157.79</ele>
        <time>2021-08-18T17:41:41Z</time>
      </trkpt>
      <trkpt lat="43.65026" lon="0.63555">
        <ele>157.79</ele>
        <time>2021-08-18T17:41:59Z</time>
      </trkpt>
      <trkpt lat="43.65027" lon="0.63555">
        <ele>157.79</ele>
        <time>2021-08-18T17:42:17Z</time>
      </trkpt>
      <trkpt lat="43.65028" lon="0.63555">
        <ele>157.79</ele>
        <time>2021-08-18T17:42:20Z</time>
      </trkpt>
      <trkpt lat="43.65028" lon="0.63556">
        <ele>157.79</ele>
        <time>2021-08-18T17:42:25Z</time>
      </trkpt>
      <trkpt lat="43.65027" lon="0.63559">
        <ele>157.79</ele>
        <time>2021-08-18T17:42:27Z</time>
      </trkpt>
      <trkpt lat="43.65027" lon="0.63557">
        <ele>157.79</ele>
        <time>2021-08-18T17:42:32Z</time>
      </trkpt>
      <trkpt lat="43.65026" lon="0.63552">
        <ele>157.79</ele>
        <time>2021-08-18T17:42:53Z</time>
      </trkpt>
      <trkpt lat="43.65026" lon="0.63552">
        <ele>157.31</ele>
        <time>2021-08-18T17:43:12Z</time>
      </trkpt>
      <trkpt lat="43.65026" lon="0.63552">
        <ele>157.79</ele>
        <time>2021-08-18T17:43:27Z</time>
      </trkpt>
      <trkpt lat="43.65026" lon="0.63551">
        <ele>157.79</ele>
        <time>2021-08-18T17:43:42Z</time>
      </trkpt>
      <trkpt lat="43.65025" lon="0.6355">
        <ele>158.27</ele>
        <time>2021-08-18T17:43:52Z</time>
      </trkpt>
      <trkpt lat="43.65025" lon="0.6355">
        <ele>158.27</ele>
        <time>2021-08-18T17:43:55Z</time>
      </trkpt>
      <trkpt lat="43.65024" lon="0.63547">
        <ele>158.27</ele>
        <time>2021-08-18T17:43:57Z</time>
      </trkpt>
      <trkpt lat="43.65024" lon="0.63545">
        <ele>158.27</ele>
        <time>2021-08-18T17:43:58Z</time>
      </trkpt>
      <trkpt lat="43.65024" lon="0.63543">
        <ele>158.27</ele>
        <time>2021-08-18T17:43:59Z</time>
      </trkpt>
      <trkpt lat="43.65024" lon="0.63541">
        <ele>158.27</ele>
        <time>2021-08-18T17:44:00Z</time>
      </trkpt>
      <trkpt lat="43.65024" lon="0.63539">
        <ele>158.75</ele>
        <time>2021-08-18T17:44:01Z</time>
      </trkpt>
      <trkpt lat="43.65024" lon="0.63537">
        <ele>158.75</ele>
        <time>2021-08-18T17:44:02Z</time>
      </trkpt>
      <trkpt lat="43.65022" lon="0.63516">
        <ele>161.16</ele>
        <time>2021-08-18T17:44:12Z</time>
      </trkpt>
      <trkpt lat="43.65022" lon="0.63514">
        <ele>161.16</ele>
        <time>2021-08-18T17:44:13Z</time>
      </trkpt>
      <trkpt lat="43.65022" lon="0.63507">
        <ele>161.64</ele>
        <time>2021-08-18T17:44:16Z</time>
      </trkpt>
      <trkpt lat="43.65022" lon="0.63505">
        <ele>161.64</ele>
        <time>2021-08-18T17:44:17Z</time>
      </trkpt>
      <trkpt lat="43.65021" lon="0.63503">
        <ele>162.12</ele>
        <time>2021-08-18T17:44:18Z</time>
      </trkpt>
      <trkpt lat="43.65021" lon="0.63501">
        <ele>162.12</ele>
        <time>2021-08-18T17:44:19Z</time>
      </trkpt>
      <trkpt lat="43.65021" lon="0.63499">
        <ele>162.6</ele>
        <time>2021-08-18T17:44:20Z</time>
      </trkpt>
      <trkpt lat="43.6502" lon="0.63497">
        <ele>162.6</ele>
        <time>2021-08-18T17:44:21Z</time>
      </trkpt>
      <trkpt lat="43.6502" lon="0.63495">
        <ele>163.08</ele>
        <time>2021-08-18T17:44:22Z</time>
      </trkpt>
      <trkpt lat="43.6502" lon="0.63493">
        <ele>163.08</ele>
        <time>2021-08-18T17:44:23Z</time>
      </trkpt>
      <trkpt lat="43.65018" lon="0.63469">
        <ele>164.52</ele>
        <time>2021-08-18T17:44:34Z</time>
      </trkpt>
      <trkpt lat="43.65016" lon="0.6345">
        <ele>165.48</ele>
        <time>2021-08-18T17:44:43Z</time>
      </trkpt>
      <trkpt lat="43.65014" lon="0.63429">
        <ele>167.41</ele>
        <time>2021-08-18T17:44:53Z</time>
      </trkpt>
      <trkpt lat="43.65013" lon="0.63412">
        <ele>168.85</ele>
        <time>2021-08-18T17:45:01Z</time>
      </trkpt>
      <trkpt lat="43.65011" lon="0.63393">
        <ele>170.29</ele>
        <time>2021-08-18T17:45:09Z</time>
      </trkpt>
      <trkpt lat="43.6501" lon="0.63373">
        <ele>172.21</ele>
        <time>2021-08-18T17:45:17Z</time>
      </trkpt>
      <trkpt lat="43.65011" lon="0.63352">
        <ele>173.66</ele>
        <time>2021-08-18T17:45:25Z</time>
      </trkpt>
      <trkpt lat="43.65011" lon="0.6333">
        <ele>175.58</ele>
        <time>2021-08-18T17:45:34Z</time>
      </trkpt>
      <trkpt lat="43.65012" lon="0.63312">
        <ele>177.5</ele>
        <time>2021-08-18T17:45:42Z</time>
      </trkpt>
      <trkpt lat="43.65018" lon="0.63289">
        <ele>178.46</ele>
        <time>2021-08-18T17:45:51Z</time>
      </trkpt>
      <trkpt lat="43.6502" lon="0.63288">
        <ele>178.46</ele>
        <time>2021-08-18T17:45:52Z</time>
      </trkpt>
      <trkpt lat="43.65022" lon="0.63287">
        <ele>178.46</ele>
        <time>2021-08-18T17:45:53Z</time>
      </trkpt>
      <trkpt lat="43.65047" lon="0.63286">
        <ele>177.5</ele>
        <time>2021-08-18T17:45:59Z</time>
      </trkpt>
      <trkpt lat="43.65058" lon="0.63287">
        <ele>176.54</ele>
        <time>2021-08-18T17:46:01Z</time>
      </trkpt>
      <trkpt lat="43.65064" lon="0.63287">
        <ele>176.06</ele>
        <time>2021-08-18T17:46:02Z</time>
      </trkpt>
      <trkpt lat="43.65077" lon="0.63288">
        <ele>174.62</ele>
        <time>2021-08-18T17:46:04Z</time>
      </trkpt>
      <trkpt lat="43.65112" lon="0.63285">
        <ele>172.21</ele>
        <time>2021-08-18T17:46:09Z</time>
      </trkpt>
      <trkpt lat="43.6512" lon="0.63281">
        <ele>171.25</ele>
        <time>2021-08-18T17:46:10Z</time>
      </trkpt>
      <trkpt lat="43.65127" lon="0.63275">
        <ele>170.77</ele>
        <time>2021-08-18T17:46:11Z</time>
      </trkpt>
      <trkpt lat="43.65134" lon="0.63268">
        <ele>169.81</ele>
        <time>2021-08-18T17:46:12Z</time>
      </trkpt>
      <trkpt lat="43.6514" lon="0.63261">
        <ele>169.33</ele>
        <time>2021-08-18T17:46:13Z</time>
      </trkpt>
      <trkpt lat="43.65147" lon="0.63254">
        <ele>169.33</ele>
        <time>2021-08-18T17:46:14Z</time>
      </trkpt>
      <trkpt lat="43.65182" lon="0.63218">
        <ele>165.96</ele>
        <time>2021-08-18T17:46:19Z</time>
      </trkpt>
      <trkpt lat="43.6519" lon="0.63214">
        <ele>165.96</ele>
        <time>2021-08-18T17:46:20Z</time>
      </trkpt>
      <trkpt lat="43.65199" lon="0.6321">
        <ele>165.48</ele>
        <time>2021-08-18T17:46:21Z</time>
      </trkpt>
      <trkpt lat="43.65207" lon="0.63208">
        <ele>164.52</ele>
        <time>2021-08-18T17:46:22Z</time>
      </trkpt>
      <trkpt lat="43.65216" lon="0.63206">
        <ele>164.04</ele>
        <time>2021-08-18T17:46:23Z</time>
      </trkpt>
      <trkpt lat="43.65262" lon="0.632">
        <ele>160.68</ele>
        <time>2021-08-18T17:46:28Z</time>
      </trkpt>
      <trkpt lat="43.65319" lon="0.63188">
        <ele>156.83</ele>
        <time>2021-08-18T17:46:34Z</time>
      </trkpt>
      <trkpt lat="43.65369" lon="0.63177">
        <ele>153.47</ele>
        <time>2021-08-18T17:46:39Z</time>
      </trkpt>
      <trkpt lat="43.65399" lon="0.6317">
        <ele>152.03</ele>
        <time>2021-08-18T17:46:42Z</time>
      </trkpt>
      <trkpt lat="43.65409" lon="0.63167">
        <ele>151.06</ele>
        <time>2021-08-18T17:46:43Z</time>
      </trkpt>
      <trkpt lat="43.65419" lon="0.63162">
        <ele>150.58</ele>
        <time>2021-08-18T17:46:44Z</time>
      </trkpt>
      <trkpt lat="43.65436" lon="0.6315">
        <ele>149.62</ele>
        <time>2021-08-18T17:46:46Z</time>
      </trkpt>
      <trkpt lat="43.65444" lon="0.63143">
        <ele>149.62</ele>
        <time>2021-08-18T17:46:47Z</time>
      </trkpt>
      <trkpt lat="43.65451" lon="0.63135">
        <ele>149.62</ele>
        <time>2021-08-18T17:46:48Z</time>
      </trkpt>
      <trkpt lat="43.65464" lon="0.63118">
        <ele>148.66</ele>
        <time>2021-08-18T17:46:50Z</time>
      </trkpt>
      <trkpt lat="43.65481" lon="0.63085">
        <ele>145.78</ele>
        <time>2021-08-18T17:46:53Z</time>
      </trkpt>
      <trkpt lat="43.65498" lon="0.63051">
        <ele>142.41</ele>
        <time>2021-08-18T17:46:56Z</time>
      </trkpt>
      <trkpt lat="43.65511" lon="0.63029">
        <ele>141.45</ele>
        <time>2021-08-18T17:46:58Z</time>
      </trkpt>
      <trkpt lat="43.65519" lon="0.6302">
        <ele>140.97</ele>
        <time>2021-08-18T17:46:59Z</time>
      </trkpt>
      <trkpt lat="43.65534" lon="0.63004">
        <ele>140.97</ele>
        <time>2021-08-18T17:47:01Z</time>
      </trkpt>
      <trkpt lat="43.65567" lon="0.62975">
        <ele>142.89</ele>
        <time>2021-08-18T17:47:06Z</time>
      </trkpt>
      <trkpt lat="43.65595" lon="0.62951">
        <ele>143.85</ele>
        <time>2021-08-18T17:47:12Z</time>
      </trkpt>
      <trkpt lat="43.65617" lon="0.62931">
        <ele>146.26</ele>
        <time>2021-08-18T17:47:18Z</time>
      </trkpt>
      <trkpt lat="43.65621" lon="0.62928">
        <ele>146.74</ele>
        <time>2021-08-18T17:47:19Z</time>
      </trkpt>
      <trkpt lat="43.65633" lon="0.62917">
        <ele>147.7</ele>
        <time>2021-08-18T17:47:24Z</time>
      </trkpt>
      <trkpt lat="43.65648" lon="0.62905">
        <ele>148.18</ele>
        <time>2021-08-18T17:47:30Z</time>
      </trkpt>
      <trkpt lat="43.65673" lon="0.62882">
        <ele>148.18</ele>
        <time>2021-08-18T17:47:39Z</time>
      </trkpt>
      <trkpt lat="43.6569" lon="0.62864">
        <ele>146.74</ele>
        <time>2021-08-18T17:47:45Z</time>
      </trkpt>
      <trkpt lat="43.65693" lon="0.62859">
        <ele>146.74</ele>
        <time>2021-08-18T17:47:46Z</time>
      </trkpt>
      <trkpt lat="43.65696" lon="0.62854">
        <ele>146.74</ele>
        <time>2021-08-18T17:47:47Z</time>
      </trkpt>
      <trkpt lat="43.65698" lon="0.62847">
        <ele>146.26</ele>
        <time>2021-08-18T17:47:48Z</time>
      </trkpt>
      <trkpt lat="43.65699" lon="0.62841">
        <ele>146.26</ele>
        <time>2021-08-18T17:47:49Z</time>
      </trkpt>
      <trkpt lat="43.657" lon="0.62836">
        <ele>146.26</ele>
        <time>2021-08-18T17:47:50Z</time>
      </trkpt>
      <trkpt lat="43.657" lon="0.6283">
        <ele>146.26</ele>
        <time>2021-08-18T17:47:51Z</time>
      </trkpt>
      <trkpt lat="43.65704" lon="0.62782">
        <ele>146.74</ele>
        <time>2021-08-18T17:48:00Z</time>
      </trkpt>
      <trkpt lat="43.65706" lon="0.62772">
        <ele>147.7</ele>
        <time>2021-08-18T17:48:02Z</time>
      </trkpt>
      <trkpt lat="43.65716" lon="0.6275">
        <ele>148.18</ele>
        <time>2021-08-18T17:48:08Z</time>
      </trkpt>
      <trkpt lat="43.65717" lon="0.6273">
        <ele>148.66</ele>
        <time>2021-08-18T17:48:14Z</time>
      </trkpt>
      <trkpt lat="43.65704" lon="0.62708">
        <ele>149.14</ele>
        <time>2021-08-18T17:48:20Z</time>
      </trkpt>
      <trkpt lat="43.65682" lon="0.62676">
        <ele>150.58</ele>
        <time>2021-08-18T17:48:30Z</time>
      </trkpt>
      <trkpt lat="43.65662" lon="0.62646">
        <ele>151.54</ele>
        <time>2021-08-18T17:48:39Z</time>
      </trkpt>
      <trkpt lat="43.65639" lon="0.62611">
        <ele>152.99</ele>
        <time>2021-08-18T17:48:49Z</time>
      </trkpt>
      <trkpt lat="43.65627" lon="0.62594">
        <ele>153.95</ele>
        <time>2021-08-18T17:48:55Z</time>
      </trkpt>
      <trkpt lat="43.65625" lon="0.62594">
        <ele>153.95</ele>
        <time>2021-08-18T17:48:56Z</time>
      </trkpt>
      <trkpt lat="43.65628" lon="0.626">
        <ele>154.43</ele>
        <time>2021-08-18T17:48:58Z</time>
      </trkpt>
      <trkpt lat="43.6563" lon="0.62604">
        <ele>154.43</ele>
        <time>2021-08-18T17:48:59Z</time>
      </trkpt>
      <trkpt lat="43.65633" lon="0.62607">
        <ele>154.43</ele>
        <time>2021-08-18T17:49:00Z</time>
      </trkpt>
      <trkpt lat="43.65635" lon="0.62611">
        <ele>154.43</ele>
        <time>2021-08-18T17:49:01Z</time>
      </trkpt>
      <trkpt lat="43.65641" lon="0.62622">
        <ele>153.47</ele>
        <time>2021-08-18T17:49:03Z</time>
      </trkpt>
      <trkpt lat="43.65671" lon="0.62666">
        <ele>151.54</ele>
        <time>2021-08-18T17:49:11Z</time>
      </trkpt>
      <trkpt lat="43.65702" lon="0.62713">
        <ele>149.62</ele>
        <time>2021-08-18T17:49:19Z</time>
      </trkpt>
      <trkpt lat="43.65713" lon="0.6273">
        <ele>149.14</ele>
        <time>2021-08-18T17:49:25Z</time>
      </trkpt>
      <trkpt lat="43.65729" lon="0.62737">
        <ele>148.18</ele>
        <time>2021-08-18T17:49:30Z</time>
      </trkpt>
      <trkpt lat="43.65732" lon="0.62735">
        <ele>147.7</ele>
        <time>2021-08-18T17:49:31Z</time>
      </trkpt>
      <trkpt lat="43.65734" lon="0.62732">
        <ele>147.7</ele>
        <time>2021-08-18T17:49:32Z</time>
      </trkpt>
      <trkpt lat="43.65736" lon="0.62727">
        <ele>147.7</ele>
        <time>2021-08-18T17:49:33Z</time>
      </trkpt>
      <trkpt lat="43.65737" lon="0.62722">
        <ele>147.22</ele>
        <time>2021-08-18T17:49:34Z</time>
      </trkpt>
      <trkpt lat="43.65739" lon="0.62718">
        <ele>147.22</ele>
        <time>2021-08-18T17:49:35Z</time>
      </trkpt>
      <trkpt lat="43.65741" lon="0.62715">
        <ele>146.74</ele>
        <time>2021-08-18T17:49:36Z</time>
      </trkpt>
      <trkpt lat="43.65744" lon="0.62713">
        <ele>146.74</ele>
        <time>2021-08-18T17:49:37Z</time>
      </trkpt>
      <trkpt lat="43.65746" lon="0.6271">
        <ele>146.74</ele>
        <time>2021-08-18T17:49:38Z</time>
      </trkpt>
      <trkpt lat="43.65747" lon="0.62706">
        <ele>146.74</ele>
        <time>2021-08-18T17:49:39Z</time>
      </trkpt>
      <trkpt lat="43.65748" lon="0.62702">
        <ele>146.74</ele>
        <time>2021-08-18T17:49:40Z</time>
      </trkpt>
      <trkpt lat="43.65748" lon="0.62697">
        <ele>146.74</ele>
        <time>2021-08-18T17:49:41Z</time>
      </trkpt>
      <trkpt lat="43.65749" lon="0.62693">
        <ele>146.74</ele>
        <time>2021-08-18T17:49:42Z</time>
      </trkpt>
      <trkpt lat="43.65746" lon="0.62675">
        <ele>146.74</ele>
        <time>2021-08-18T17:49:47Z</time>
      </trkpt>
      <trkpt lat="43.65738" lon="0.62644">
        <ele>148.66</ele>
        <time>2021-08-18T17:49:56Z</time>
      </trkpt>
      <trkpt lat="43.65732" lon="0.62613">
        <ele>149.14</ele>
        <time>2021-08-18T17:50:03Z</time>
      </trkpt>
      <trkpt lat="43.65723" lon="0.62575">
        <ele>150.58</ele>
        <time>2021-08-18T17:50:12Z</time>
      </trkpt>
      <trkpt lat="43.65716" lon="0.62539">
        <ele>151.54</ele>
        <time>2021-08-18T17:50:21Z</time>
      </trkpt>
      <trkpt lat="43.65705" lon="0.62487">
        <ele>153.47</ele>
        <time>2021-08-18T17:50:34Z</time>
      </trkpt>
      <trkpt lat="43.65696" lon="0.62447">
        <ele>154.91</ele>
        <time>2021-08-18T17:50:45Z</time>
      </trkpt>
      <trkpt lat="43.6569" lon="0.62417">
        <ele>156.35</ele>
        <time>2021-08-18T17:50:54Z</time>
      </trkpt>
      <trkpt lat="43.65685" lon="0.62388">
        <ele>157.79</ele>
        <time>2021-08-18T17:51:03Z</time>
      </trkpt>
      <trkpt lat="43.65678" lon="0.62358">
        <ele>159.24</ele>
        <time>2021-08-18T17:51:13Z</time>
      </trkpt>
      <trkpt lat="43.65672" lon="0.6233">
        <ele>160.68</ele>
        <time>2021-08-18T17:51:23Z</time>
      </trkpt>
      <trkpt lat="43.65664" lon="0.62295">
        <ele>162.6</ele>
        <time>2021-08-18T17:51:36Z</time>
      </trkpt>
      <trkpt lat="43.65657" lon="0.62266">
        <ele>165</ele>
        <time>2021-08-18T17:51:47Z</time>
      </trkpt>
      <trkpt lat="43.65652" lon="0.62242">
        <ele>165.96</ele>
        <time>2021-08-18T17:51:56Z</time>
      </trkpt>
      <trkpt lat="43.65646" lon="0.62222">
        <ele>167.89</ele>
        <time>2021-08-18T17:52:04Z</time>
      </trkpt>
      <trkpt lat="43.65637" lon="0.62189">
        <ele>169.81</ele>
        <time>2021-08-18T17:52:16Z</time>
      </trkpt>
      <trkpt lat="43.65632" lon="0.62167">
        <ele>171.25</ele>
        <time>2021-08-18T17:52:25Z</time>
      </trkpt>
      <trkpt lat="43.65627" lon="0.62146">
        <ele>172.69</ele>
        <time>2021-08-18T17:52:33Z</time>
      </trkpt>
      <trkpt lat="43.65621" lon="0.62119">
        <ele>174.62</ele>
        <time>2021-08-18T17:52:43Z</time>
      </trkpt>
      <trkpt lat="43.65617" lon="0.62095">
        <ele>176.06</ele>
        <time>2021-08-18T17:52:52Z</time>
      </trkpt>
      <trkpt lat="43.65613" lon="0.62072">
        <ele>177.98</ele>
        <time>2021-08-18T17:53:01Z</time>
      </trkpt>
      <trkpt lat="43.65608" lon="0.62049">
        <ele>179.42</ele>
        <time>2021-08-18T17:53:11Z</time>
      </trkpt>
      <trkpt lat="43.65602" lon="0.62026">
        <ele>181.35</ele>
        <time>2021-08-18T17:53:21Z</time>
      </trkpt>
      <trkpt lat="43.65597" lon="0.62006">
        <ele>182.79</ele>
        <time>2021-08-18T17:53:30Z</time>
      </trkpt>
      <trkpt lat="43.65593" lon="0.61981">
        <ele>184.71</ele>
        <time>2021-08-18T17:53:40Z</time>
      </trkpt>
      <trkpt lat="43.65586" lon="0.6195">
        <ele>186.63</ele>
        <time>2021-08-18T17:53:51Z</time>
      </trkpt>
      <trkpt lat="43.65577" lon="0.61918">
        <ele>188.56</ele>
        <time>2021-08-18T17:54:02Z</time>
      </trkpt>
      <trkpt lat="43.65569" lon="0.61876">
        <ele>189.52</ele>
        <time>2021-08-18T17:54:13Z</time>
      </trkpt>
      <trkpt lat="43.6556" lon="0.61828">
        <ele>190</ele>
        <time>2021-08-18T17:54:22Z</time>
      </trkpt>
      <trkpt lat="43.6556" lon="0.61823">
        <ele>190</ele>
        <time>2021-08-18T17:54:23Z</time>
      </trkpt>
      <trkpt lat="43.65555" lon="0.61794">
        <ele>190</ele>
        <time>2021-08-18T17:54:28Z</time>
      </trkpt>
      <trkpt lat="43.65549" lon="0.61756">
        <ele>190</ele>
        <time>2021-08-18T17:54:35Z</time>
      </trkpt>
      <trkpt lat="43.65548" lon="0.61749">
        <ele>188.56</ele>
        <time>2021-08-18T17:54:36Z</time>
      </trkpt>
      <trkpt lat="43.6554" lon="0.61695">
        <ele>188.56</ele>
        <time>2021-08-18T17:54:44Z</time>
      </trkpt>
      <trkpt lat="43.65532" lon="0.61646">
        <ele>188.56</ele>
        <time>2021-08-18T17:54:53Z</time>
      </trkpt>
      <trkpt lat="43.65525" lon="0.61611">
        <ele>188.56</ele>
        <time>2021-08-18T17:55:01Z</time>
      </trkpt>
      <trkpt lat="43.65521" lon="0.61596">
        <ele>188.08</ele>
        <time>2021-08-18T17:55:04Z</time>
      </trkpt>
      <trkpt lat="43.65517" lon="0.61585">
        <ele>187.59</ele>
        <time>2021-08-18T17:55:06Z</time>
      </trkpt>
      <trkpt lat="43.65515" lon="0.61578">
        <ele>187.59</ele>
        <time>2021-08-18T17:55:07Z</time>
      </trkpt>
      <trkpt lat="43.65501" lon="0.61528">
        <ele>185.19</ele>
        <time>2021-08-18T17:55:14Z</time>
      </trkpt>
      <trkpt lat="43.65483" lon="0.6147">
        <ele>181.83</ele>
        <time>2021-08-18T17:55:21Z</time>
      </trkpt>
      <trkpt lat="43.6547" lon="0.61429">
        <ele>178.46</ele>
        <time>2021-08-18T17:55:25Z</time>
      </trkpt>
      <trkpt lat="43.65458" lon="0.61392">
        <ele>175.58</ele>
        <time>2021-08-18T17:55:28Z</time>
      </trkpt>
      <trkpt lat="43.65445" lon="0.61344">
        <ele>172.21</ele>
        <time>2021-08-18T17:55:32Z</time>
      </trkpt>
      <trkpt lat="43.65445" lon="0.61338">
        <ele>172.21</ele>
        <time>2021-08-18T17:55:33Z</time>
      </trkpt>
      <trkpt lat="43.65448" lon="0.61335">
        <ele>172.21</ele>
        <time>2021-08-18T17:55:34Z</time>
      </trkpt>
      <trkpt lat="43.65452" lon="0.61334">
        <ele>171.73</ele>
        <time>2021-08-18T17:55:35Z</time>
      </trkpt>
      <trkpt lat="43.65456" lon="0.61333">
        <ele>171.25</ele>
        <time>2021-08-18T17:55:36Z</time>
      </trkpt>
      <trkpt lat="43.65477" lon="0.61326">
        <ele>171.25</ele>
        <time>2021-08-18T17:55:41Z</time>
      </trkpt>
      <trkpt lat="43.65482" lon="0.61325">
        <ele>171.25</ele>
        <time>2021-08-18T17:55:42Z</time>
      </trkpt>
      <trkpt lat="43.65517" lon="0.61312">
        <ele>171.25</ele>
        <time>2021-08-18T17:55:49Z</time>
      </trkpt>
      <trkpt lat="43.6555" lon="0.61294">
        <ele>172.69</ele>
        <time>2021-08-18T17:55:57Z</time>
      </trkpt>
      <trkpt lat="43.65568" lon="0.61274">
        <ele>175.1</ele>
        <time>2021-08-18T17:56:05Z</time>
      </trkpt>
      <trkpt lat="43.65578" lon="0.61248">
        <ele>176.54</ele>
        <time>2021-08-18T17:56:13Z</time>
      </trkpt>
      <trkpt lat="43.65588" lon="0.61219">
        <ele>177.02</ele>
        <time>2021-08-18T17:56:21Z</time>
      </trkpt>
      <trkpt lat="43.65602" lon="0.61181">
        <ele>177.5</ele>
        <time>2021-08-18T17:56:30Z</time>
      </trkpt>
      <trkpt lat="43.6561" lon="0.61162">
        <ele>179.42</ele>
        <time>2021-08-18T17:56:36Z</time>
      </trkpt>
      <trkpt lat="43.65623" lon="0.6115">
        <ele>180.38</ele>
        <time>2021-08-18T17:56:42Z</time>
      </trkpt>
      <trkpt lat="43.6564" lon="0.61125">
        <ele>180.87</ele>
        <time>2021-08-18T17:56:50Z</time>
      </trkpt>
      <trkpt lat="43.6565" lon="0.61102">
        <ele>182.79</ele>
        <time>2021-08-18T17:56:58Z</time>
      </trkpt>
      <trkpt lat="43.65659" lon="0.61081">
        <ele>184.71</ele>
        <time>2021-08-18T17:57:07Z</time>
      </trkpt>
      <trkpt lat="43.65666" lon="0.61064">
        <ele>185.19</ele>
        <time>2021-08-18T17:57:13Z</time>
      </trkpt>
      <trkpt lat="43.65666" lon="0.61058">
        <ele>185.19</ele>
        <time>2021-08-18T17:57:14Z</time>
      </trkpt>
      <trkpt lat="43.65664" lon="0.61054">
        <ele>183.75</ele>
        <time>2021-08-18T17:57:15Z</time>
      </trkpt>
      <trkpt lat="43.65661" lon="0.61049">
        <ele>183.75</ele>
        <time>2021-08-18T17:57:16Z</time>
      </trkpt>
      <trkpt lat="43.65656" lon="0.61044">
        <ele>182.79</ele>
        <time>2021-08-18T17:57:17Z</time>
      </trkpt>
      <trkpt lat="43.65653" lon="0.6104">
        <ele>181.83</ele>
        <time>2021-08-18T17:57:18Z</time>
      </trkpt>
      <trkpt lat="43.65648" lon="0.61035">
        <ele>181.35</ele>
        <time>2021-08-18T17:57:19Z</time>
      </trkpt>
      <trkpt lat="43.65639" lon="0.6102">
        <ele>180.38</ele>
        <time>2021-08-18T17:57:21Z</time>
      </trkpt>
      <trkpt lat="43.65627" lon="0.60993">
        <ele>178.46</ele>
        <time>2021-08-18T17:57:24Z</time>
      </trkpt>
      <trkpt lat="43.6562" lon="0.60974">
        <ele>177.5</ele>
        <time>2021-08-18T17:57:26Z</time>
      </trkpt>
      <trkpt lat="43.6559" lon="0.60914">
        <ele>174.14</ele>
        <time>2021-08-18T17:57:33Z</time>
      </trkpt>
      <trkpt lat="43.65585" lon="0.60906">
        <ele>174.14</ele>
        <time>2021-08-18T17:57:34Z</time>
      </trkpt>
      <trkpt lat="43.6556" lon="0.60861">
        <ele>171.25</ele>
        <time>2021-08-18T17:57:39Z</time>
      </trkpt>
      <trkpt lat="43.65537" lon="0.60821">
        <ele>169.33</ele>
        <time>2021-08-18T17:57:44Z</time>
      </trkpt>
      <trkpt lat="43.65534" lon="0.60813">
        <ele>169.33</ele>
        <time>2021-08-18T17:57:45Z</time>
      </trkpt>
      <trkpt lat="43.65532" lon="0.60805">
        <ele>169.33</ele>
        <time>2021-08-18T17:57:46Z</time>
      </trkpt>
      <trkpt lat="43.65531" lon="0.60796">
        <ele>168.85</ele>
        <time>2021-08-18T17:57:47Z</time>
      </trkpt>
      <trkpt lat="43.65532" lon="0.60787">
        <ele>168.85</ele>
        <time>2021-08-18T17:57:48Z</time>
      </trkpt>
      <trkpt lat="43.65534" lon="0.60782">
        <ele>168.37</ele>
        <time>2021-08-18T17:57:49Z</time>
      </trkpt>
      <trkpt lat="43.65536" lon="0.60775">
        <ele>168.85</ele>
        <time>2021-08-18T17:57:50Z</time>
      </trkpt>
      <trkpt lat="43.65553" lon="0.60716">
        <ele>165.48</ele>
        <time>2021-08-18T17:57:57Z</time>
      </trkpt>
      <trkpt lat="43.65575" lon="0.60651">
        <ele>162.6</ele>
        <time>2021-08-18T17:58:04Z</time>
      </trkpt>
      <trkpt lat="43.65588" lon="0.60609">
        <ele>160.68</ele>
        <time>2021-08-18T17:58:08Z</time>
      </trkpt>
      <trkpt lat="43.65603" lon="0.60562">
        <ele>156.83</ele>
        <time>2021-08-18T17:58:12Z</time>
      </trkpt>
      <trkpt lat="43.65613" lon="0.60525">
        <ele>155.39</ele>
        <time>2021-08-18T17:58:15Z</time>
      </trkpt>
      <trkpt lat="43.65635" lon="0.60444">
        <ele>153.95</ele>
        <time>2021-08-18T17:58:22Z</time>
      </trkpt>
      <trkpt lat="43.6564" lon="0.60438">
        <ele>153.47</ele>
        <time>2021-08-18T17:58:23Z</time>
      </trkpt>
      <trkpt lat="43.65647" lon="0.60433">
        <ele>152.99</ele>
        <time>2021-08-18T17:58:24Z</time>
      </trkpt>
      <trkpt lat="43.65654" lon="0.60431">
        <ele>152.51</ele>
        <time>2021-08-18T17:58:25Z</time>
      </trkpt>
      <trkpt lat="43.65662" lon="0.60427">
        <ele>152.51</ele>
        <time>2021-08-18T17:58:26Z</time>
      </trkpt>
      <trkpt lat="43.65667" lon="0.60422">
        <ele>152.03</ele>
        <time>2021-08-18T17:58:27Z</time>
      </trkpt>
      <trkpt lat="43.65671" lon="0.60412">
        <ele>151.06</ele>
        <time>2021-08-18T17:58:28Z</time>
      </trkpt>
      <trkpt lat="43.65673" lon="0.60404">
        <ele>150.58</ele>
        <time>2021-08-18T17:58:29Z</time>
      </trkpt>
      <trkpt lat="43.65674" lon="0.60393">
        <ele>149.62</ele>
        <time>2021-08-18T17:58:30Z</time>
      </trkpt>
      <trkpt lat="43.65676" lon="0.60343">
        <ele>146.26</ele>
        <time>2021-08-18T17:58:34Z</time>
      </trkpt>
      <trkpt lat="43.65679" lon="0.60304">
        <ele>142.89</ele>
        <time>2021-08-18T17:58:37Z</time>
      </trkpt>
      <trkpt lat="43.65681" lon="0.6029">
        <ele>142.41</ele>
        <time>2021-08-18T17:58:38Z</time>
      </trkpt>
      <trkpt lat="43.65684" lon="0.60232">
        <ele>139.53</ele>
        <time>2021-08-18T17:58:42Z</time>
      </trkpt>
      <trkpt lat="43.65685" lon="0.60218">
        <ele>139.53</ele>
        <time>2021-08-18T17:58:43Z</time>
      </trkpt>
      <trkpt lat="43.65687" lon="0.60191">
        <ele>138.09</ele>
        <time>2021-08-18T17:58:45Z</time>
      </trkpt>
      <trkpt lat="43.65688" lon="0.60155">
        <ele>136.64</ele>
        <time>2021-08-18T17:58:48Z</time>
      </trkpt>
      <trkpt lat="43.6569" lon="0.60144">
        <ele>136.16</ele>
        <time>2021-08-18T17:58:49Z</time>
      </trkpt>
      <trkpt lat="43.65694" lon="0.60107">
        <ele>135.2</ele>
        <time>2021-08-18T17:58:52Z</time>
      </trkpt>
      <trkpt lat="43.65698" lon="0.60061">
        <ele>133.76</ele>
        <time>2021-08-18T17:58:56Z</time>
      </trkpt>
      <trkpt lat="43.65705" lon="0.59978">
        <ele>132.8</ele>
        <time>2021-08-18T17:59:04Z</time>
      </trkpt>
      <trkpt lat="43.65711" lon="0.59907">
        <ele>132.32</ele>
        <time>2021-08-18T17:59:12Z</time>
      </trkpt>
      <trkpt lat="43.65717" lon="0.59834">
        <ele>131.36</ele>
        <time>2021-08-18T17:59:21Z</time>
      </trkpt>
      <trkpt lat="43.6572" lon="0.59784">
        <ele>130.4</ele>
        <time>2021-08-18T17:59:28Z</time>
      </trkpt>
      <trkpt lat="43.65723" lon="0.59763">
        <ele>130.88</ele>
        <time>2021-08-18T17:59:35Z</time>
      </trkpt>
      <trkpt lat="43.65723" lon="0.59764">
        <ele>130.4</ele>
        <time>2021-08-18T17:59:52Z</time>
      </trkpt>
      <trkpt lat="43.65724" lon="0.59753">
        <ele>130.4</ele>
        <time>2021-08-18T17:59:58Z</time>
      </trkpt>
      <trkpt lat="43.65724" lon="0.59738">
        <ele>130.4</ele>
        <time>2021-08-18T18:00:02Z</time>
      </trkpt>
      <trkpt lat="43.65722" lon="0.59735">
        <ele>130.4</ele>
        <time>2021-08-18T18:00:03Z</time>
      </trkpt>
      <trkpt lat="43.65719" lon="0.59732">
        <ele>130.4</ele>
        <time>2021-08-18T18:00:04Z</time>
      </trkpt>
      <trkpt lat="43.65716" lon="0.59729">
        <ele>130.4</ele>
        <time>2021-08-18T18:00:05Z</time>
      </trkpt>
      <trkpt lat="43.65713" lon="0.59727">
        <ele>130.4</ele>
        <time>2021-08-18T18:00:06Z</time>
      </trkpt>
      <trkpt lat="43.65687" lon="0.59713">
        <ele>130.4</ele>
        <time>2021-08-18T18:00:13Z</time>
      </trkpt>
      <trkpt lat="43.65648" lon="0.59693">
        <ele>130.4</ele>
        <time>2021-08-18T18:00:22Z</time>
      </trkpt>
      <trkpt lat="43.65612" lon="0.59675">
        <ele>129.92</ele>
        <time>2021-08-18T18:00:30Z</time>
      </trkpt>
      <trkpt lat="43.65568" lon="0.59652">
        <ele>129.92</ele>
        <time>2021-08-18T18:00:40Z</time>
      </trkpt>
      <trkpt lat="43.65514" lon="0.59625">
        <ele>129.92</ele>
        <time>2021-08-18T18:00:51Z</time>
      </trkpt>
      <trkpt lat="43.65483" lon="0.59609">
        <ele>130.88</ele>
        <time>2021-08-18T18:00:58Z</time>
      </trkpt>
      <trkpt lat="43.65479" lon="0.59607">
        <ele>130.88</ele>
        <time>2021-08-18T18:00:59Z</time>
      </trkpt>
      <trkpt lat="43.65471" lon="0.59604">
        <ele>130.88</ele>
        <time>2021-08-18T18:01:01Z</time>
      </trkpt>
      <trkpt lat="43.65467" lon="0.59605">
        <ele>130.88</ele>
        <time>2021-08-18T18:01:02Z</time>
      </trkpt>
      <trkpt lat="43.65464" lon="0.59608">
        <ele>130.88</ele>
        <time>2021-08-18T18:01:03Z</time>
      </trkpt>
      <trkpt lat="43.65464" lon="0.59611">
        <ele>130.88</ele>
        <time>2021-08-18T18:01:04Z</time>
      </trkpt>
      <trkpt lat="43.65466" lon="0.59612">
        <ele>130.88</ele>
        <time>2021-08-18T18:01:05Z</time>
      </trkpt>
      <trkpt lat="43.65469" lon="0.59613">
        <ele>130.88</ele>
        <time>2021-08-18T18:01:06Z</time>
      </trkpt>
      <trkpt lat="43.65472" lon="0.59614">
        <ele>130.88</ele>
        <time>2021-08-18T18:01:07Z</time>
      </trkpt>
      <trkpt lat="43.65486" lon="0.59621">
        <ele>130.88</ele>
        <time>2021-08-18T18:01:11Z</time>
      </trkpt>
      <trkpt lat="43.6552" lon="0.59638">
        <ele>130.88</ele>
        <time>2021-08-18T18:01:18Z</time>
      </trkpt>
      <trkpt lat="43.65557" lon="0.59657">
        <ele>130.88</ele>
        <time>2021-08-18T18:01:26Z</time>
      </trkpt>
      <trkpt lat="43.65573" lon="0.59664">
        <ele>130.88</ele>
        <time>2021-08-18T18:01:31Z</time>
      </trkpt>
      <trkpt lat="43.65577" lon="0.59662">
        <ele>130.88</ele>
        <time>2021-08-18T18:01:33Z</time>
      </trkpt>
      <trkpt lat="43.65578" lon="0.59659">
        <ele>130.88</ele>
        <time>2021-08-18T18:01:34Z</time>
      </trkpt>
      <trkpt lat="43.65579" lon="0.59654">
        <ele>130.88</ele>
        <time>2021-08-18T18:01:35Z</time>
      </trkpt>
      <trkpt lat="43.6558" lon="0.59649">
        <ele>129.43</ele>
        <time>2021-08-18T18:01:36Z</time>
      </trkpt>
      <trkpt lat="43.65581" lon="0.59643">
        <ele>129.43</ele>
        <time>2021-08-18T18:01:37Z</time>
      </trkpt>
      <trkpt lat="43.65582" lon="0.59636">
        <ele>129.43</ele>
        <time>2021-08-18T18:01:38Z</time>
      </trkpt>
      <trkpt lat="43.65584" lon="0.5963">
        <ele>129.43</ele>
        <time>2021-08-18T18:01:39Z</time>
      </trkpt>
      <trkpt lat="43.65585" lon="0.59623">
        <ele>128.95</ele>
        <time>2021-08-18T18:01:40Z</time>
      </trkpt>
      <trkpt lat="43.65587" lon="0.59617">
        <ele>128.95</ele>
        <time>2021-08-18T18:01:41Z</time>
      </trkpt>
      <trkpt lat="43.65588" lon="0.59611">
        <ele>128.95</ele>
        <time>2021-08-18T18:01:42Z</time>
      </trkpt>
      <trkpt lat="43.6559" lon="0.59605">
        <ele>128.95</ele>
        <time>2021-08-18T18:01:43Z</time>
      </trkpt>
      <trkpt lat="43.65592" lon="0.59598">
        <ele>128.95</ele>
        <time>2021-08-18T18:01:44Z</time>
      </trkpt>
      <trkpt lat="43.65597" lon="0.59564">
        <ele>128.47</ele>
        <time>2021-08-18T18:01:50Z</time>
      </trkpt>
      <trkpt lat="43.65594" lon="0.5956">
        <ele>128.47</ele>
        <time>2021-08-18T18:01:51Z</time>
      </trkpt>
      <trkpt lat="43.65591" lon="0.59558">
        <ele>128.47</ele>
        <time>2021-08-18T18:01:52Z</time>
      </trkpt>
      <trkpt lat="43.65588" lon="0.59557">
        <ele>128.47</ele>
        <time>2021-08-18T18:01:53Z</time>
      </trkpt>
      <trkpt lat="43.65584" lon="0.59556">
        <ele>128.47</ele>
        <time>2021-08-18T18:01:54Z</time>
      </trkpt>
      <trkpt lat="43.6558" lon="0.59554">
        <ele>128.47</ele>
        <time>2021-08-18T18:01:55Z</time>
      </trkpt>
      <trkpt lat="43.65576" lon="0.59552">
        <ele>128.47</ele>
        <time>2021-08-18T18:01:56Z</time>
      </trkpt>
      <trkpt lat="43.65574" lon="0.59548">
        <ele>128.47</ele>
        <time>2021-08-18T18:01:57Z</time>
      </trkpt>
      <trkpt lat="43.65573" lon="0.59542">
        <ele>128.47</ele>
        <time>2021-08-18T18:01:58Z</time>
      </trkpt>
      <trkpt lat="43.65569" lon="0.59513">
        <ele>127.99</ele>
        <time>2021-08-18T18:02:04Z</time>
      </trkpt>
      <trkpt lat="43.65558" lon="0.59496">
        <ele>127.99</ele>
        <time>2021-08-18T18:02:10Z</time>
      </trkpt>
      <trkpt lat="43.65555" lon="0.59492">
        <ele>127.99</ele>
        <time>2021-08-18T18:02:11Z</time>
      </trkpt>
      <trkpt lat="43.65553" lon="0.59487">
        <ele>127.99</ele>
        <time>2021-08-18T18:02:12Z</time>
      </trkpt>
      <trkpt lat="43.65552" lon="0.59481">
        <ele>127.99</ele>
        <time>2021-08-18T18:02:13Z</time>
      </trkpt>
      <trkpt lat="43.65551" lon="0.59447">
        <ele>127.51</ele>
        <time>2021-08-18T18:02:18Z</time>
      </trkpt>
      <trkpt lat="43.65557" lon="0.59414">
        <ele>127.03</ele>
        <time>2021-08-18T18:02:23Z</time>
      </trkpt>
      <trkpt lat="43.65558" lon="0.59407">
        <ele>127.03</ele>
        <time>2021-08-18T18:02:24Z</time>
      </trkpt>
      <trkpt lat="43.65558" lon="0.59401">
        <ele>127.03</ele>
        <time>2021-08-18T18:02:25Z</time>
      </trkpt>
      <trkpt lat="43.65558" lon="0.59395">
        <ele>127.03</ele>
        <time>2021-08-18T18:02:26Z</time>
      </trkpt>
      <trkpt lat="43.65557" lon="0.59389">
        <ele>127.03</ele>
        <time>2021-08-18T18:02:27Z</time>
      </trkpt>
      <trkpt lat="43.65556" lon="0.59383">
        <ele>127.03</ele>
        <time>2021-08-18T18:02:28Z</time>
      </trkpt>
      <trkpt lat="43.65554" lon="0.59378">
        <ele>127.03</ele>
        <time>2021-08-18T18:02:29Z</time>
      </trkpt>
      <trkpt lat="43.65551" lon="0.59373">
        <ele>127.03</ele>
        <time>2021-08-18T18:02:30Z</time>
      </trkpt>
      <trkpt lat="43.65548" lon="0.59368">
        <ele>127.03</ele>
        <time>2021-08-18T18:02:31Z</time>
      </trkpt>
      <trkpt lat="43.65542" lon="0.59357">
        <ele>127.03</ele>
        <time>2021-08-18T18:02:33Z</time>
      </trkpt>
      <trkpt lat="43.6554" lon="0.59352">
        <ele>127.03</ele>
        <time>2021-08-18T18:02:34Z</time>
      </trkpt>
      <trkpt lat="43.65539" lon="0.59345">
        <ele>127.03</ele>
        <time>2021-08-18T18:02:35Z</time>
      </trkpt>
      <trkpt lat="43.65538" lon="0.59339">
        <ele>127.03</ele>
        <time>2021-08-18T18:02:36Z</time>
      </trkpt>
      <trkpt lat="43.65537" lon="0.59333">
        <ele>127.03</ele>
        <time>2021-08-18T18:02:37Z</time>
      </trkpt>
      <trkpt lat="43.65538" lon="0.59327">
        <ele>127.03</ele>
        <time>2021-08-18T18:02:38Z</time>
      </trkpt>
      <trkpt lat="43.6554" lon="0.59321">
        <ele>127.03</ele>
        <time>2021-08-18T18:02:39Z</time>
      </trkpt>
      <trkpt lat="43.65541" lon="0.59316">
        <ele>127.03</ele>
        <time>2021-08-18T18:02:40Z</time>
      </trkpt>
      <trkpt lat="43.65554" lon="0.59281">
        <ele>127.03</ele>
        <time>2021-08-18T18:02:46Z</time>
      </trkpt>
      <trkpt lat="43.65558" lon="0.5927">
        <ele>127.03</ele>
        <time>2021-08-18T18:02:48Z</time>
      </trkpt>
      <trkpt lat="43.6556" lon="0.59265">
        <ele>127.03</ele>
        <time>2021-08-18T18:02:49Z</time>
      </trkpt>
      <trkpt lat="43.65562" lon="0.59261">
        <ele>127.03</ele>
        <time>2021-08-18T18:02:50Z</time>
      </trkpt>
      <trkpt lat="43.65564" lon="0.59256">
        <ele>127.03</ele>
        <time>2021-08-18T18:02:51Z</time>
      </trkpt>
      <trkpt lat="43.65566" lon="0.59251">
        <ele>127.03</ele>
        <time>2021-08-18T18:02:52Z</time>
      </trkpt>
      <trkpt lat="43.65567" lon="0.59246">
        <ele>128.47</ele>
        <time>2021-08-18T18:02:53Z</time>
      </trkpt>
      <trkpt lat="43.65567" lon="0.59243">
        <ele>128.95</ele>
        <time>2021-08-18T18:02:54Z</time>
      </trkpt>
      <trkpt lat="43.65566" lon="0.59241">
        <ele>128.95</ele>
        <time>2021-08-18T18:02:55Z</time>
      </trkpt>
      <trkpt lat="43.65564" lon="0.59238">
        <ele>128.95</ele>
        <time>2021-08-18T18:02:56Z</time>
      </trkpt>
      <trkpt lat="43.65561" lon="0.59236">
        <ele>128.95</ele>
        <time>2021-08-18T18:02:57Z</time>
      </trkpt>
      <trkpt lat="43.65557" lon="0.59235">
        <ele>128.95</ele>
        <time>2021-08-18T18:02:58Z</time>
      </trkpt>
      <trkpt lat="43.65525" lon="0.59222">
        <ele>128.95</ele>
        <time>2021-08-18T18:03:05Z</time>
      </trkpt>
      <trkpt lat="43.65475" lon="0.59205">
        <ele>128.95</ele>
        <time>2021-08-18T18:03:15Z</time>
      </trkpt>
      <trkpt lat="43.6542" lon="0.59183">
        <ele>128.95</ele>
        <time>2021-08-18T18:03:26Z</time>
      </trkpt>
      <trkpt lat="43.65367" lon="0.59154">
        <ele>128.95</ele>
        <time>2021-08-18T18:03:37Z</time>
      </trkpt>
      <trkpt lat="43.65345" lon="0.59141">
        <ele>128.95</ele>
        <time>2021-08-18T18:03:42Z</time>
      </trkpt>
      <trkpt lat="43.65341" lon="0.5914">
        <ele>128.95</ele>
        <time>2021-08-18T18:03:43Z</time>
      </trkpt>
      <trkpt lat="43.65337" lon="0.59139">
        <ele>129.43</ele>
        <time>2021-08-18T18:03:44Z</time>
      </trkpt>
      <trkpt lat="43.65301" lon="0.59127">
        <ele>129.43</ele>
        <time>2021-08-18T18:03:52Z</time>
      </trkpt>
      <trkpt lat="43.65267" lon="0.59121">
        <ele>129.92</ele>
        <time>2021-08-18T18:03:59Z</time>
      </trkpt>
      <trkpt lat="43.65229" lon="0.59121">
        <ele>129.92</ele>
        <time>2021-08-18T18:04:07Z</time>
      </trkpt>
      <trkpt lat="43.65186" lon="0.59128">
        <ele>129.92</ele>
        <time>2021-08-18T18:04:16Z</time>
      </trkpt>
      <trkpt lat="43.65171" lon="0.59132">
        <ele>129.92</ele>
        <time>2021-08-18T18:04:19Z</time>
      </trkpt>
      <trkpt lat="43.65132" lon="0.59139">
        <ele>129.92</ele>
        <time>2021-08-18T18:04:26Z</time>
      </trkpt>
      <trkpt lat="43.6508" lon="0.59145">
        <ele>127.03</ele>
        <time>2021-08-18T18:04:34Z</time>
      </trkpt>
      <trkpt lat="43.65037" lon="0.59138">
        <ele>127.03</ele>
        <time>2021-08-18T18:04:41Z</time>
      </trkpt>
      <trkpt lat="43.65009" lon="0.5913">
        <ele>127.03</ele>
        <time>2021-08-18T18:04:47Z</time>
      </trkpt>
      <trkpt lat="43.65004" lon="0.59127">
        <ele>127.03</ele>
        <time>2021-08-18T18:04:48Z</time>
      </trkpt>
      <trkpt lat="43.65001" lon="0.59124">
        <ele>127.03</ele>
        <time>2021-08-18T18:04:49Z</time>
      </trkpt>
      <trkpt lat="43.6497" lon="0.591">
        <ele>127.03</ele>
        <time>2021-08-18T18:04:57Z</time>
      </trkpt>
      <trkpt lat="43.64946" lon="0.59081">
        <ele>127.99</ele>
        <time>2021-08-18T18:05:03Z</time>
      </trkpt>
      <trkpt lat="43.64943" lon="0.59078">
        <ele>128.95</ele>
        <time>2021-08-18T18:05:04Z</time>
      </trkpt>
      <trkpt lat="43.64938" lon="0.59076">
        <ele>128.95</ele>
        <time>2021-08-18T18:05:05Z</time>
      </trkpt>
      <trkpt lat="43.64934" lon="0.59073">
        <ele>128.95</ele>
        <time>2021-08-18T18:05:06Z</time>
      </trkpt>
      <trkpt lat="43.64931" lon="0.59071">
        <ele>128.95</ele>
        <time>2021-08-18T18:05:07Z</time>
      </trkpt>
      <trkpt lat="43.64914" lon="0.59061">
        <ele>130.4</ele>
        <time>2021-08-18T18:05:14Z</time>
      </trkpt>
      <trkpt lat="43.64896" lon="0.59053">
        <ele>131.84</ele>
        <time>2021-08-18T18:05:21Z</time>
      </trkpt>
      <trkpt lat="43.64884" lon="0.59036">
        <ele>132.8</ele>
        <time>2021-08-18T18:05:27Z</time>
      </trkpt>
      <trkpt lat="43.64884" lon="0.59032">
        <ele>132.8</ele>
        <time>2021-08-18T18:05:28Z</time>
      </trkpt>
      <trkpt lat="43.64894" lon="0.58993">
        <ele>133.28</ele>
        <time>2021-08-18T18:05:38Z</time>
      </trkpt>
      <trkpt lat="43.64902" lon="0.58962">
        <ele>133.28</ele>
        <time>2021-08-18T18:05:46Z</time>
      </trkpt>
      <trkpt lat="43.64906" lon="0.58941">
        <ele>133.28</ele>
        <time>2021-08-18T18:05:52Z</time>
      </trkpt>
      <trkpt lat="43.64904" lon="0.58939">
        <ele>133.28</ele>
        <time>2021-08-18T18:05:53Z</time>
      </trkpt>
      <trkpt lat="43.64902" lon="0.58937">
        <ele>133.28</ele>
        <time>2021-08-18T18:05:54Z</time>
      </trkpt>
      <trkpt lat="43.64902" lon="0.58936">
        <ele>133.28</ele>
        <time>2021-08-18T18:05:58Z</time>
      </trkpt>
      <trkpt lat="43.64903" lon="0.58936">
        <ele>133.28</ele>
        <time>2021-08-18T18:05:59Z</time>
      </trkpt>
      <trkpt lat="43.64904" lon="0.58936">
        <ele>133.28</ele>
        <time>2021-08-18T18:06:00Z</time>
      </trkpt>
      <trkpt lat="43.64906" lon="0.58938">
        <ele>133.28</ele>
        <time>2021-08-18T18:06:01Z</time>
      </trkpt>
      <trkpt lat="43.64908" lon="0.58938">
        <ele>133.28</ele>
        <time>2021-08-18T18:06:02Z</time>
      </trkpt>
      <trkpt lat="43.64911" lon="0.58937">
        <ele>133.28</ele>
        <time>2021-08-18T18:06:03Z</time>
      </trkpt>
      <trkpt lat="43.64913" lon="0.58935">
        <ele>133.28</ele>
        <time>2021-08-18T18:06:04Z</time>
      </trkpt>
      <trkpt lat="43.64914" lon="0.58932">
        <ele>133.28</ele>
        <time>2021-08-18T18:06:05Z</time>
      </trkpt>
      <trkpt lat="43.64916" lon="0.58929">
        <ele>133.28</ele>
        <time>2021-08-18T18:06:06Z</time>
      </trkpt>
      <trkpt lat="43.64917" lon="0.58927">
        <ele>133.28</ele>
        <time>2021-08-18T18:06:07Z</time>
      </trkpt>
      <trkpt lat="43.64918" lon="0.58925">
        <ele>133.28</ele>
        <time>2021-08-18T18:06:08Z</time>
      </trkpt>
      <trkpt lat="43.64918" lon="0.58923">
        <ele>133.28</ele>
        <time>2021-08-18T18:06:09Z</time>
      </trkpt>
      <trkpt lat="43.64921" lon="0.5892">
        <ele>133.28</ele>
        <time>2021-08-18T18:06:13Z</time>
      </trkpt>
      <trkpt lat="43.6492" lon="0.58923">
        <ele>133.76</ele>
        <time>2021-08-18T18:06:24Z</time>
      </trkpt>
      <trkpt lat="43.64918" lon="0.58922">
        <ele>133.76</ele>
        <time>2021-08-18T18:06:39Z</time>
      </trkpt>
      <trkpt lat="43.64919" lon="0.58922">
        <ele>133.76</ele>
        <time>2021-08-18T18:06:50Z</time>
      </trkpt>
      <trkpt lat="43.64919" lon="0.58922">
        <ele>133.76</ele>
        <time>2021-08-18T18:07:01Z</time>
      </trkpt>
      <trkpt lat="43.64919" lon="0.58922">
        <ele>133.76</ele>
        <time>2021-08-18T18:07:12Z</time>
      </trkpt>
      <trkpt lat="43.64919" lon="0.58921">
        <ele>133.76</ele>
        <time>2021-08-18T18:07:16Z</time>
      </trkpt>
      <trkpt lat="43.6492" lon="0.5892">
        <ele>133.76</ele>
        <time>2021-08-18T18:07:20Z</time>
      </trkpt>
      <trkpt lat="43.64921" lon="0.58918">
        <ele>133.76</ele>
        <time>2021-08-18T18:07:26Z</time>
      </trkpt>
      <trkpt lat="43.64919" lon="0.58911">
        <ele>133.76</ele>
        <time>2021-08-18T18:07:42Z</time>
      </trkpt>
      <trkpt lat="43.64918" lon="0.5891">
        <ele>133.76</ele>
        <time>2021-08-18T18:07:56Z</time>
      </trkpt>
      <trkpt lat="43.64917" lon="0.58909">
        <ele>133.76</ele>
        <time>2021-08-18T18:08:12Z</time>
      </trkpt>
      <trkpt lat="43.6492" lon="0.58911">
        <ele>133.76</ele>
        <time>2021-08-18T18:08:30Z</time>
      </trkpt>
      <trkpt lat="43.64921" lon="0.58911">
        <ele>133.76</ele>
        <time>2021-08-18T18:08:45Z</time>
      </trkpt>
      <trkpt lat="43.64923" lon="0.5891">
        <ele>133.76</ele>
        <time>2021-08-18T18:09:00Z</time>
      </trkpt>
      <trkpt lat="43.64926" lon="0.58911">
        <ele>133.76</ele>
        <time>2021-08-18T18:09:20Z</time>
      </trkpt>
      <trkpt lat="43.64929" lon="0.58916">
        <ele>133.76</ele>
        <time>2021-08-18T18:09:33Z</time>
      </trkpt>
      <trkpt lat="43.64932" lon="0.58917">
        <ele>133.76</ele>
        <time>2021-08-18T18:09:51Z</time>
      </trkpt>
      <trkpt lat="43.64932" lon="0.5892">
        <ele>133.76</ele>
        <time>2021-08-18T18:10:08Z</time>
      </trkpt>
      <trkpt lat="43.64931" lon="0.58919">
        <ele>133.76</ele>
        <time>2021-08-18T18:10:24Z</time>
      </trkpt>
      <trkpt lat="43.64927" lon="0.58916">
        <ele>133.76</ele>
        <time>2021-08-18T18:10:41Z</time>
      </trkpt>
      <trkpt lat="43.64921" lon="0.5891">
        <ele>133.76</ele>
        <time>2021-08-18T18:10:59Z</time>
      </trkpt>
      <trkpt lat="43.64919" lon="0.58908">
        <ele>133.76</ele>
        <time>2021-08-18T18:11:18Z</time>
      </trkpt>
      <trkpt lat="43.64917" lon="0.58906">
        <ele>133.76</ele>
        <time>2021-08-18T18:11:38Z</time>
      </trkpt>
      <trkpt lat="43.64918" lon="0.58908">
        <ele>134.24</ele>
        <time>2021-08-18T18:11:57Z</time>
      </trkpt>
      <trkpt lat="43.64921" lon="0.58908">
        <ele>134.24</ele>
        <time>2021-08-18T18:12:15Z</time>
      </trkpt>
      <trkpt lat="43.64924" lon="0.5891">
        <ele>134.24</ele>
        <time>2021-08-18T18:12:25Z</time>
      </trkpt>
      <trkpt lat="43.64926" lon="0.58909">
        <ele>134.24</ele>
        <time>2021-08-18T18:12:44Z</time>
      </trkpt>
      <trkpt lat="43.64915" lon="0.58902">
        <ele>134.24</ele>
        <time>2021-08-18T18:13:06Z</time>
      </trkpt>
      <trkpt lat="43.64914" lon="0.58901">
        <ele>134.24</ele>
        <time>2021-08-18T18:13:21Z</time>
      </trkpt>
      <trkpt lat="43.64915" lon="0.58899">
        <ele>134.24</ele>
        <time>2021-08-18T18:13:31Z</time>
      </trkpt>
      <trkpt lat="43.64914" lon="0.58897">
        <ele>135.2</ele>
        <time>2021-08-18T18:13:55Z</time>
      </trkpt>
      <trkpt lat="43.64916" lon="0.58901">
        <ele>135.2</ele>
        <time>2021-08-18T18:14:13Z</time>
      </trkpt>
      <trkpt lat="43.64917" lon="0.58903">
        <ele>135.2</ele>
        <time>2021-08-18T18:14:38Z</time>
      </trkpt>
      <trkpt lat="43.6492" lon="0.58905">
        <ele>135.2</ele>
        <time>2021-08-18T18:14:53Z</time>
      </trkpt>
      <trkpt lat="43.64922" lon="0.58908">
        <ele>135.68</ele>
        <time>2021-08-18T18:15:09Z</time>
      </trkpt>
      <trkpt lat="43.64924" lon="0.58909">
        <ele>135.68</ele>
        <time>2021-08-18T18:15:22Z</time>
      </trkpt>
      <trkpt lat="43.64923" lon="0.58911">
        <ele>135.68</ele>
        <time>2021-08-18T18:15:37Z</time>
      </trkpt>
      <trkpt lat="43.64923" lon="0.58911">
        <ele>135.68</ele>
        <time>2021-08-18T18:15:47Z</time>
      </trkpt>
      <trkpt lat="43.6492" lon="0.58907">
        <ele>135.68</ele>
        <time>2021-08-18T18:16:04Z</time>
      </trkpt>
      <trkpt lat="43.6492" lon="0.58907">
        <ele>135.68</ele>
        <time>2021-08-18T18:16:25Z</time>
      </trkpt>
      <trkpt lat="43.64921" lon="0.58909">
        <ele>135.68</ele>
        <time>2021-08-18T18:16:42Z</time>
      </trkpt>
      <trkpt lat="43.64924" lon="0.5891">
        <ele>135.68</ele>
        <time>2021-08-18T18:16:57Z</time>
      </trkpt>
      <trkpt lat="43.64925" lon="0.5891">
        <ele>135.68</ele>
        <time>2021-08-18T18:17:07Z</time>
      </trkpt>
      <trkpt lat="43.64924" lon="0.5891">
        <ele>135.68</ele>
        <time>2021-08-18T18:17:20Z</time>
      </trkpt>
      <trkpt lat="43.64927" lon="0.5891">
        <ele>135.68</ele>
        <time>2021-08-18T18:17:36Z</time>
      </trkpt>
      <trkpt lat="43.6493" lon="0.5891">
        <ele>135.68</ele>
        <time>2021-08-18T18:17:51Z</time>
      </trkpt>
      <trkpt lat="43.64931" lon="0.5891">
        <ele>135.68</ele>
        <time>2021-08-18T18:18:11Z</time>
      </trkpt>
      <trkpt lat="43.6493" lon="0.58909">
        <ele>135.68</ele>
        <time>2021-08-18T18:18:29Z</time>
      </trkpt>
      <trkpt lat="43.64931" lon="0.58908">
        <ele>135.68</ele>
        <time>2021-08-18T18:18:43Z</time>
      </trkpt>
      <trkpt lat="43.6493" lon="0.58906">
        <ele>135.68</ele>
        <time>2021-08-18T18:18:56Z</time>
      </trkpt>
      <trkpt lat="43.64931" lon="0.58906">
        <ele>135.68</ele>
        <time>2021-08-18T18:19:11Z</time>
      </trkpt>
      <trkpt lat="43.6493" lon="0.58907">
        <ele>136.16</ele>
        <time>2021-08-18T18:19:25Z</time>
      </trkpt>
      <trkpt lat="43.64928" lon="0.58909">
        <ele>136.16</ele>
        <time>2021-08-18T18:19:41Z</time>
      </trkpt>
      <trkpt lat="43.64928" lon="0.58911">
        <ele>136.16</ele>
        <time>2021-08-18T18:19:52Z</time>
      </trkpt>
      <trkpt lat="43.64927" lon="0.58912">
        <ele>136.16</ele>
        <time>2021-08-18T18:20:06Z</time>
      </trkpt>
      <trkpt lat="43.64928" lon="0.58913">
        <ele>136.16</ele>
        <time>2021-08-18T18:20:24Z</time>
      </trkpt>
      <trkpt lat="43.64928" lon="0.58913">
        <ele>136.16</ele>
        <time>2021-08-18T18:20:46Z</time>
      </trkpt>
      <trkpt lat="43.64926" lon="0.58915">
        <ele>136.16</ele>
        <time>2021-08-18T18:21:03Z</time>
      </trkpt>
      <trkpt lat="43.64925" lon="0.58914">
        <ele>136.16</ele>
        <time>2021-08-18T18:21:16Z</time>
      </trkpt>
      <trkpt lat="43.64921" lon="0.58913">
        <ele>136.16</ele>
        <time>2021-08-18T18:21:34Z</time>
      </trkpt>
      <trkpt lat="43.64919" lon="0.58913">
        <ele>136.16</ele>
        <time>2021-08-18T18:21:46Z</time>
      </trkpt>
      <trkpt lat="43.64919" lon="0.58913">
        <ele>136.16</ele>
        <time>2021-08-18T18:22:02Z</time>
      </trkpt>
      <trkpt lat="43.6492" lon="0.58911">
        <ele>136.16</ele>
        <time>2021-08-18T18:22:16Z</time>
      </trkpt>
      <trkpt lat="43.64922" lon="0.58911">
        <ele>136.64</ele>
        <time>2021-08-18T18:22:34Z</time>
      </trkpt>
      <trkpt lat="43.64925" lon="0.58912">
        <ele>136.64</ele>
        <time>2021-08-18T18:22:49Z</time>
      </trkpt>
      <trkpt lat="43.64926" lon="0.58913">
        <ele>136.64</ele>
        <time>2021-08-18T18:23:05Z</time>
      </trkpt>
      <trkpt lat="43.64926" lon="0.58915">
        <ele>136.64</ele>
        <time>2021-08-18T18:23:16Z</time>
      </trkpt>
      <trkpt lat="43.64925" lon="0.58917">
        <ele>136.64</ele>
        <time>2021-08-18T18:23:32Z</time>
      </trkpt>
      <trkpt lat="43.64924" lon="0.58917">
        <ele>136.64</ele>
        <time>2021-08-18T18:23:46Z</time>
      </trkpt>
      <trkpt lat="43.64923" lon="0.58917">
        <ele>136.64</ele>
        <time>2021-08-18T18:24:03Z</time>
      </trkpt>
      <trkpt lat="43.64922" lon="0.58916">
        <ele>136.64</ele>
        <time>2021-08-18T18:24:25Z</time>
      </trkpt>
      <trkpt lat="43.64921" lon="0.58914">
        <ele>136.64</ele>
        <time>2021-08-18T18:24:41Z</time>
      </trkpt>
      <trkpt lat="43.64924" lon="0.58913">
        <ele>136.64</ele>
        <time>2021-08-18T18:25:02Z</time>
      </trkpt>
      <trkpt lat="43.64926" lon="0.58913">
        <ele>136.64</ele>
        <time>2021-08-18T18:25:21Z</time>
      </trkpt>
      <trkpt lat="43.64928" lon="0.58916">
        <ele>136.64</ele>
        <time>2021-08-18T18:25:36Z</time>
      </trkpt>
      <trkpt lat="43.64928" lon="0.58918">
        <ele>136.64</ele>
        <time>2021-08-18T18:25:54Z</time>
      </trkpt>
      <trkpt lat="43.64928" lon="0.58918">
        <ele>136.64</ele>
        <time>2021-08-18T18:26:06Z</time>
      </trkpt>
      <trkpt lat="43.64927" lon="0.58918">
        <ele>136.64</ele>
        <time>2021-08-18T18:26:21Z</time>
      </trkpt>
      <trkpt lat="43.64926" lon="0.58917">
        <ele>136.64</ele>
        <time>2021-08-18T18:26:38Z</time>
      </trkpt>
      <trkpt lat="43.64927" lon="0.58916">
        <ele>136.16</ele>
        <time>2021-08-18T18:26:53Z</time>
      </trkpt>
      <trkpt lat="43.64928" lon="0.58916">
        <ele>136.16</ele>
        <time>2021-08-18T18:27:07Z</time>
      </trkpt>
      <trkpt lat="43.64928" lon="0.58916">
        <ele>136.16</ele>
        <time>2021-08-18T18:27:20Z</time>
      </trkpt>
      <trkpt lat="43.64929" lon="0.58915">
        <ele>136.16</ele>
        <time>2021-08-18T18:27:32Z</time>
      </trkpt>
      <trkpt lat="43.64927" lon="0.58914">
        <ele>136.16</ele>
        <time>2021-08-18T18:27:47Z</time>
      </trkpt>
      <trkpt lat="43.64926" lon="0.58913">
        <ele>136.16</ele>
        <time>2021-08-18T18:28:00Z</time>
      </trkpt>
      <trkpt lat="43.64924" lon="0.58916">
        <ele>136.16</ele>
        <time>2021-08-18T18:28:17Z</time>
      </trkpt>
      <trkpt lat="43.64922" lon="0.58915">
        <ele>136.16</ele>
        <time>2021-08-18T18:28:31Z</time>
      </trkpt>
      <trkpt lat="43.6492" lon="0.58914">
        <ele>136.16</ele>
        <time>2021-08-18T18:28:44Z</time>
      </trkpt>
      <trkpt lat="43.64917" lon="0.58913">
        <ele>136.16</ele>
        <time>2021-08-18T18:29:00Z</time>
      </trkpt>
      <trkpt lat="43.64916" lon="0.58914">
        <ele>136.16</ele>
        <time>2021-08-18T18:29:21Z</time>
      </trkpt>
      <trkpt lat="43.64915" lon="0.58916">
        <ele>136.64</ele>
        <time>2021-08-18T18:29:38Z</time>
      </trkpt>
      <trkpt lat="43.64912" lon="0.58916">
        <ele>136.64</ele>
        <time>2021-08-18T18:29:52Z</time>
      </trkpt>
      <trkpt lat="43.64911" lon="0.58916">
        <ele>136.64</ele>
        <time>2021-08-18T18:30:05Z</time>
      </trkpt>
      <trkpt lat="43.64912" lon="0.58915">
        <ele>136.64</ele>
        <time>2021-08-18T18:30:22Z</time>
      </trkpt>
      <trkpt lat="43.64913" lon="0.58916">
        <ele>136.64</ele>
        <time>2021-08-18T18:30:39Z</time>
      </trkpt>
      <trkpt lat="43.64914" lon="0.58917">
        <ele>136.64</ele>
        <time>2021-08-18T18:30:52Z</time>
      </trkpt>
      <trkpt lat="43.64913" lon="0.58917">
        <ele>136.64</ele>
        <time>2021-08-18T18:31:06Z</time>
      </trkpt>
      <trkpt lat="43.6491" lon="0.58915">
        <ele>136.64</ele>
        <time>2021-08-18T18:31:21Z</time>
      </trkpt>
      <trkpt lat="43.64908" lon="0.58914">
        <ele>137.13</ele>
        <time>2021-08-18T18:31:40Z</time>
      </trkpt>
      <trkpt lat="43.64907" lon="0.58913">
        <ele>137.13</ele>
        <time>2021-08-18T18:31:55Z</time>
      </trkpt>
      <trkpt lat="43.64906" lon="0.58912">
        <ele>137.13</ele>
        <time>2021-08-18T18:32:13Z</time>
      </trkpt>
      <trkpt lat="43.64908" lon="0.58914">
        <ele>137.13</ele>
        <time>2021-08-18T18:32:31Z</time>
      </trkpt>
      <trkpt lat="43.64912" lon="0.58916">
        <ele>137.61</ele>
        <time>2021-08-18T18:32:51Z</time>
      </trkpt>
      <trkpt lat="43.64916" lon="0.58917">
        <ele>137.61</ele>
        <time>2021-08-18T18:33:06Z</time>
      </trkpt>
      <trkpt lat="43.64917" lon="0.58916">
        <ele>137.61</ele>
        <time>2021-08-18T18:33:21Z</time>
      </trkpt>
      <trkpt lat="43.64921" lon="0.58916">
        <ele>137.61</ele>
        <time>2021-08-18T18:33:42Z</time>
      </trkpt>
      <trkpt lat="43.64924" lon="0.58915">
        <ele>137.61</ele>
        <time>2021-08-18T18:33:56Z</time>
      </trkpt>
      <trkpt lat="43.64926" lon="0.58916">
        <ele>137.61</ele>
        <time>2021-08-18T18:34:08Z</time>
      </trkpt>
      <trkpt lat="43.64926" lon="0.58917">
        <ele>137.61</ele>
        <time>2021-08-18T18:34:25Z</time>
      </trkpt>
      <trkpt lat="43.64927" lon="0.58915">
        <ele>137.13</ele>
        <time>2021-08-18T18:34:37Z</time>
      </trkpt>
      <trkpt lat="43.64927" lon="0.58917">
        <ele>137.13</ele>
        <time>2021-08-18T18:34:44Z</time>
      </trkpt>
      <trkpt lat="43.64926" lon="0.58919">
        <ele>137.13</ele>
        <time>2021-08-18T18:34:57Z</time>
      </trkpt>
      <trkpt lat="43.64924" lon="0.58919">
        <ele>137.13</ele>
        <time>2021-08-18T18:35:12Z</time>
      </trkpt>
      <trkpt lat="43.64924" lon="0.58919">
        <ele>137.13</ele>
        <time>2021-08-18T18:35:23Z</time>
      </trkpt>
      <trkpt lat="43.64924" lon="0.58919">
        <ele>137.13</ele>
        <time>2021-08-18T18:35:40Z</time>
      </trkpt>
      <trkpt lat="43.64924" lon="0.58917">
        <ele>137.13</ele>
        <time>2021-08-18T18:35:58Z</time>
      </trkpt>
      <trkpt lat="43.64926" lon="0.58918">
        <ele>136.64</ele>
        <time>2021-08-18T18:36:22Z</time>
      </trkpt>
      <trkpt lat="43.64925" lon="0.58917">
        <ele>136.64</ele>
        <time>2021-08-18T18:36:43Z</time>
      </trkpt>
      <trkpt lat="43.64925" lon="0.58917">
        <ele>136.64</ele>
        <time>2021-08-18T18:37:06Z</time>
      </trkpt>
      <trkpt lat="43.64923" lon="0.58918">
        <ele>136.64</ele>
        <time>2021-08-18T18:37:32Z</time>
      </trkpt>
      <trkpt lat="43.64922" lon="0.58917">
        <ele>136.64</ele>
        <time>2021-08-18T18:37:45Z</time>
      </trkpt>
      <trkpt lat="43.64923" lon="0.58916">
        <ele>136.64</ele>
        <time>2021-08-18T18:38:01Z</time>
      </trkpt>
      <trkpt lat="43.64924" lon="0.58915">
        <ele>136.64</ele>
        <time>2021-08-18T18:38:25Z</time>
      </trkpt>
      <trkpt lat="43.64924" lon="0.58915">
        <ele>136.64</ele>
        <time>2021-08-18T18:38:38Z</time>
      </trkpt>
      <trkpt lat="43.64923" lon="0.58915">
        <ele>136.64</ele>
        <time>2021-08-18T18:38:57Z</time>
      </trkpt>
      <trkpt lat="43.64923" lon="0.58914">
        <ele>136.64</ele>
        <time>2021-08-18T18:39:04Z</time>
      </trkpt>
      <trkpt lat="43.64921" lon="0.58913">
        <ele>136.64</ele>
        <time>2021-08-18T18:39:34Z</time>
      </trkpt>
      <trkpt lat="43.64925" lon="0.58914">
        <ele>136.64</ele>
        <time>2021-08-18T18:39:54Z</time>
      </trkpt>
      <trkpt lat="43.64926" lon="0.58915">
        <ele>136.64</ele>
        <time>2021-08-18T18:40:20Z</time>
      </trkpt>
      <trkpt lat="43.64927" lon="0.58916">
        <ele>136.64</ele>
        <time>2021-08-18T18:40:37Z</time>
      </trkpt>
      <trkpt lat="43.64927" lon="0.58916">
        <ele>136.64</ele>
        <time>2021-08-18T18:40:55Z</time>
      </trkpt>
      <trkpt lat="43.64927" lon="0.58916">
        <ele>136.64</ele>
        <time>2021-08-18T18:41:10Z</time>
      </trkpt>
      <trkpt lat="43.64926" lon="0.58915">
        <ele>136.64</ele>
        <time>2021-08-18T18:41:27Z</time>
      </trkpt>
      <trkpt lat="43.64923" lon="0.58915">
        <ele>136.64</ele>
        <time>2021-08-18T18:41:54Z</time>
      </trkpt>
      <trkpt lat="43.64923" lon="0.58916">
        <ele>136.64</ele>
        <time>2021-08-18T18:42:20Z</time>
      </trkpt>
      <trkpt lat="43.64923" lon="0.58918">
        <ele>136.64</ele>
        <time>2021-08-18T18:42:42Z</time>
      </trkpt>
      <trkpt lat="43.64923" lon="0.58919">
        <ele>136.64</ele>
        <time>2021-08-18T18:43:06Z</time>
      </trkpt>
      <trkpt lat="43.64923" lon="0.58919">
        <ele>136.64</ele>
        <time>2021-08-18T18:43:35Z</time>
      </trkpt>
      <trkpt lat="43.64926" lon="0.58919">
        <ele>136.64</ele>
        <time>2021-08-18T18:43:53Z</time>
      </trkpt>
      <trkpt lat="43.64925" lon="0.58919">
        <ele>136.64</ele>
        <time>2021-08-18T18:43:56Z</time>
      </trkpt>
      <trkpt lat="43.64923" lon="0.58918">
        <ele>136.64</ele>
        <time>2021-08-18T18:43:57Z</time>
      </trkpt>
      <trkpt lat="43.64922" lon="0.58916">
        <ele>136.64</ele>
        <time>2021-08-18T18:44:02Z</time>
      </trkpt>
      <trkpt lat="43.64924" lon="0.58916">
        <ele>136.64</ele>
        <time>2021-08-18T18:44:27Z</time>
      </trkpt>
      <trkpt lat="43.64924" lon="0.58916">
        <ele>136.64</ele>
        <time>2021-08-18T18:44:42Z</time>
      </trkpt>
      <trkpt lat="43.64924" lon="0.58918">
        <ele>136.64</ele>
        <time>2021-08-18T18:45:06Z</time>
      </trkpt>
      <trkpt lat="43.64925" lon="0.58917">
        <ele>136.64</ele>
        <time>2021-08-18T18:45:38Z</time>
      </trkpt>
      <trkpt lat="43.64926" lon="0.58916">
        <ele>136.64</ele>
        <time>2021-08-18T18:45:57Z</time>
      </trkpt>
      <trkpt lat="43.64928" lon="0.58918">
        <ele>136.64</ele>
        <time>2021-08-18T18:46:22Z</time>
      </trkpt>
      <trkpt lat="43.64929" lon="0.58919">
        <ele>136.64</ele>
        <time>2021-08-18T18:46:41Z</time>
      </trkpt>
      <trkpt lat="43.64929" lon="0.58919">
        <ele>136.16</ele>
        <time>2021-08-18T18:47:09Z</time>
      </trkpt>
      <trkpt lat="43.64929" lon="0.58918">
        <ele>136.16</ele>
        <time>2021-08-18T18:47:30Z</time>
      </trkpt>
      <trkpt lat="43.64929" lon="0.58918">
        <ele>136.16</ele>
        <time>2021-08-18T18:47:47Z</time>
      </trkpt>
      <trkpt lat="43.64928" lon="0.58917">
        <ele>136.16</ele>
        <time>2021-08-18T18:48:11Z</time>
      </trkpt>
      <trkpt lat="43.64926" lon="0.58918">
        <ele>136.16</ele>
        <time>2021-08-18T18:48:37Z</time>
      </trkpt>
      <trkpt lat="43.64926" lon="0.58917">
        <ele>136.16</ele>
        <time>2021-08-18T18:48:55Z</time>
      </trkpt>
      <trkpt lat="43.64927" lon="0.58917">
        <ele>136.16</ele>
        <time>2021-08-18T18:48:57Z</time>
      </trkpt>
      <trkpt lat="43.64928" lon="0.58918">
        <ele>135.68</ele>
        <time>2021-08-18T18:49:04Z</time>
      </trkpt>
      <trkpt lat="43.64928" lon="0.58918">
        <ele>135.68</ele>
        <time>2021-08-18T18:49:31Z</time>
      </trkpt>
      <trkpt lat="43.64928" lon="0.58918">
        <ele>135.68</ele>
        <time>2021-08-18T18:49:44Z</time>
      </trkpt>
      <trkpt lat="43.64928" lon="0.58918">
        <ele>135.68</ele>
        <time>2021-08-18T18:49:59Z</time>
      </trkpt>
      <trkpt lat="43.64927" lon="0.58916">
        <ele>136.16</ele>
        <time>2021-08-18T18:50:23Z</time>
      </trkpt>
      <trkpt lat="43.64926" lon="0.58916">
        <ele>136.16</ele>
        <time>2021-08-18T18:50:45Z</time>
      </trkpt>
      <trkpt lat="43.64924" lon="0.58917">
        <ele>136.16</ele>
        <time>2021-08-18T18:51:08Z</time>
      </trkpt>
      <trkpt lat="43.64921" lon="0.58916">
        <ele>136.16</ele>
        <time>2021-08-18T18:51:32Z</time>
      </trkpt>
      <trkpt lat="43.64919" lon="0.58913">
        <ele>136.16</ele>
        <time>2021-08-18T18:51:50Z</time>
      </trkpt>
      <trkpt lat="43.64918" lon="0.58912">
        <ele>136.16</ele>
        <time>2021-08-18T18:52:08Z</time>
      </trkpt>
      <trkpt lat="43.6492" lon="0.58913">
        <ele>136.16</ele>
        <time>2021-08-18T18:52:31Z</time>
      </trkpt>
      <trkpt lat="43.6492" lon="0.58912">
        <ele>136.16</ele>
        <time>2021-08-18T18:52:55Z</time>
      </trkpt>
      <trkpt lat="43.64921" lon="0.58911">
        <ele>135.68</ele>
        <time>2021-08-18T18:53:17Z</time>
      </trkpt>
      <trkpt lat="43.64923" lon="0.58912">
        <ele>135.68</ele>
        <time>2021-08-18T18:53:38Z</time>
      </trkpt>
      <trkpt lat="43.64925" lon="0.58914">
        <ele>135.68</ele>
        <time>2021-08-18T18:54:05Z</time>
      </trkpt>
      <trkpt lat="43.64924" lon="0.58914">
        <ele>135.68</ele>
        <time>2021-08-18T18:54:27Z</time>
      </trkpt>
      <trkpt lat="43.64924" lon="0.58914">
        <ele>135.68</ele>
        <time>2021-08-18T18:54:49Z</time>
      </trkpt>
      <trkpt lat="43.64922" lon="0.58916">
        <ele>135.68</ele>
        <time>2021-08-18T18:55:08Z</time>
      </trkpt>
      <trkpt lat="43.64922" lon="0.58915">
        <ele>135.68</ele>
        <time>2021-08-18T18:55:33Z</time>
      </trkpt>
      <trkpt lat="43.64924" lon="0.58915">
        <ele>135.68</ele>
        <time>2021-08-18T18:55:52Z</time>
      </trkpt>
      <trkpt lat="43.64925" lon="0.58918">
        <ele>135.68</ele>
        <time>2021-08-18T18:56:19Z</time>
      </trkpt>
      <trkpt lat="43.64926" lon="0.58918">
        <ele>135.68</ele>
        <time>2021-08-18T18:56:39Z</time>
      </trkpt>
      <trkpt lat="43.64927" lon="0.58917">
        <ele>135.68</ele>
        <time>2021-08-18T18:56:58Z</time>
      </trkpt>
      <trkpt lat="43.64929" lon="0.58915">
        <ele>135.68</ele>
        <time>2021-08-18T18:57:14Z</time>
      </trkpt>
      <trkpt lat="43.64928" lon="0.58913">
        <ele>135.2</ele>
        <time>2021-08-18T18:57:40Z</time>
      </trkpt>
      <trkpt lat="43.64931" lon="0.58914">
        <ele>135.2</ele>
        <time>2021-08-18T18:58:00Z</time>
      </trkpt>
      <trkpt lat="43.64932" lon="0.58914">
        <ele>135.2</ele>
        <time>2021-08-18T18:58:17Z</time>
      </trkpt>
      <trkpt lat="43.64933" lon="0.58915">
        <ele>135.2</ele>
        <time>2021-08-18T18:58:35Z</time>
      </trkpt>
      <trkpt lat="43.64934" lon="0.58916">
        <ele>134.72</ele>
        <time>2021-08-18T18:58:51Z</time>
      </trkpt>
      <trkpt lat="43.64933" lon="0.58917">
        <ele>134.72</ele>
        <time>2021-08-18T18:59:09Z</time>
      </trkpt>
      <trkpt lat="43.64927" lon="0.58914">
        <ele>134.72</ele>
        <time>2021-08-18T18:59:28Z</time>
      </trkpt>
      <trkpt lat="43.64924" lon="0.58912">
        <ele>134.72</ele>
        <time>2021-08-18T18:59:46Z</time>
      </trkpt>
      <trkpt lat="43.64924" lon="0.58913">
        <ele>134.72</ele>
        <time>2021-08-18T19:00:04Z</time>
      </trkpt>
      <trkpt lat="43.64924" lon="0.58914">
        <ele>134.72</ele>
        <time>2021-08-18T19:00:19Z</time>
      </trkpt>
      <trkpt lat="43.64924" lon="0.58915">
        <ele>134.72</ele>
        <time>2021-08-18T19:00:35Z</time>
      </trkpt>
      <trkpt lat="43.64923" lon="0.58915">
        <ele>134.72</ele>
        <time>2021-08-18T19:00:51Z</time>
      </trkpt>
      <trkpt lat="43.64919" lon="0.58911">
        <ele>134.72</ele>
        <time>2021-08-18T19:01:08Z</time>
      </trkpt>
      <trkpt lat="43.64918" lon="0.58909">
        <ele>134.72</ele>
        <time>2021-08-18T19:01:28Z</time>
      </trkpt>
      <trkpt lat="43.64917" lon="0.58909">
        <ele>134.72</ele>
        <time>2021-08-18T19:01:46Z</time>
      </trkpt>
      <trkpt lat="43.6492" lon="0.58913">
        <ele>134.72</ele>
        <time>2021-08-18T19:02:04Z</time>
      </trkpt>
      <trkpt lat="43.64919" lon="0.58913">
        <ele>134.72</ele>
        <time>2021-08-18T19:02:24Z</time>
      </trkpt>
      <trkpt lat="43.64921" lon="0.58914">
        <ele>134.72</ele>
        <time>2021-08-18T19:02:47Z</time>
      </trkpt>
      <trkpt lat="43.64918" lon="0.58912">
        <ele>134.72</ele>
        <time>2021-08-18T19:03:07Z</time>
      </trkpt>
      <trkpt lat="43.64912" lon="0.58906">
        <ele>134.72</ele>
        <time>2021-08-18T19:03:25Z</time>
      </trkpt>
      <trkpt lat="43.64911" lon="0.58905">
        <ele>135.2</ele>
        <time>2021-08-18T19:03:44Z</time>
      </trkpt>
      <trkpt lat="43.64912" lon="0.58905">
        <ele>135.2</ele>
        <time>2021-08-18T19:04:02Z</time>
      </trkpt>
      <trkpt lat="43.64907" lon="0.58901">
        <ele>135.2</ele>
        <time>2021-08-18T19:04:20Z</time>
      </trkpt>
      <trkpt lat="43.64908" lon="0.58902">
        <ele>135.2</ele>
        <time>2021-08-18T19:04:36Z</time>
      </trkpt>
      <trkpt lat="43.64903" lon="0.58898">
        <ele>135.2</ele>
        <time>2021-08-18T19:04:56Z</time>
      </trkpt>
      <trkpt lat="43.64913" lon="0.58908">
        <ele>135.2</ele>
        <time>2021-08-18T19:05:11Z</time>
      </trkpt>
      <trkpt lat="43.64915" lon="0.5891">
        <ele>135.2</ele>
        <time>2021-08-18T19:05:24Z</time>
      </trkpt>
      <trkpt lat="43.64918" lon="0.58915">
        <ele>135.2</ele>
        <time>2021-08-18T19:05:46Z</time>
      </trkpt>
      <trkpt lat="43.64919" lon="0.58917">
        <ele>135.2</ele>
        <time>2021-08-18T19:06:10Z</time>
      </trkpt>
      <trkpt lat="43.64912" lon="0.58911">
        <ele>135.68</ele>
        <time>2021-08-18T19:06:30Z</time>
      </trkpt>
      <trkpt lat="43.64913" lon="0.58911">
        <ele>135.68</ele>
        <time>2021-08-18T19:06:48Z</time>
      </trkpt>
      <trkpt lat="43.64915" lon="0.58913">
        <ele>135.68</ele>
        <time>2021-08-18T19:07:04Z</time>
      </trkpt>
      <trkpt lat="43.64919" lon="0.58918">
        <ele>135.68</ele>
        <time>2021-08-18T19:07:23Z</time>
      </trkpt>
      <trkpt lat="43.64918" lon="0.58918">
        <ele>135.68</ele>
        <time>2021-08-18T19:07:38Z</time>
      </trkpt>
      <trkpt lat="43.64916" lon="0.58916">
        <ele>135.68</ele>
        <time>2021-08-18T19:08:01Z</time>
      </trkpt>
      <trkpt lat="43.64918" lon="0.58918">
        <ele>135.68</ele>
        <time>2021-08-18T19:08:24Z</time>
      </trkpt>
      <trkpt lat="43.6492" lon="0.5892">
        <ele>135.68</ele>
        <time>2021-08-18T19:08:47Z</time>
      </trkpt>
      <trkpt lat="43.6492" lon="0.58918">
        <ele>136.16</ele>
        <time>2021-08-18T19:09:03Z</time>
      </trkpt>
      <trkpt lat="43.64921" lon="0.58918">
        <ele>136.16</ele>
        <time>2021-08-18T19:09:24Z</time>
      </trkpt>
      <trkpt lat="43.64922" lon="0.58919">
        <ele>136.16</ele>
        <time>2021-08-18T19:09:44Z</time>
      </trkpt>
      <trkpt lat="43.6492" lon="0.58919">
        <ele>136.16</ele>
        <time>2021-08-18T19:09:57Z</time>
      </trkpt>
      <trkpt lat="43.64918" lon="0.58917">
        <ele>136.16</ele>
        <time>2021-08-18T19:10:16Z</time>
      </trkpt>
      <trkpt lat="43.64916" lon="0.58913">
        <ele>136.16</ele>
        <time>2021-08-18T19:10:37Z</time>
      </trkpt>
      <trkpt lat="43.64917" lon="0.58915">
        <ele>136.16</ele>
        <time>2021-08-18T19:10:55Z</time>
      </trkpt>
      <trkpt lat="43.64921" lon="0.58919">
        <ele>136.16</ele>
        <time>2021-08-18T19:11:13Z</time>
      </trkpt>
      <trkpt lat="43.64924" lon="0.5892">
        <ele>135.2</ele>
        <time>2021-08-18T19:11:27Z</time>
      </trkpt>
      <trkpt lat="43.64924" lon="0.5892">
        <ele>135.2</ele>
        <time>2021-08-18T19:11:43Z</time>
      </trkpt>
      <trkpt lat="43.64918" lon="0.58916">
        <ele>135.2</ele>
        <time>2021-08-18T19:12:03Z</time>
      </trkpt>
      <trkpt lat="43.64917" lon="0.58915">
        <ele>135.2</ele>
        <time>2021-08-18T19:12:20Z</time>
      </trkpt>
      <trkpt lat="43.64918" lon="0.58917">
        <ele>135.68</ele>
        <time>2021-08-18T19:12:36Z</time>
      </trkpt>
      <trkpt lat="43.64917" lon="0.58919">
        <ele>135.68</ele>
        <time>2021-08-18T19:12:49Z</time>
      </trkpt>
      <trkpt lat="43.6492" lon="0.58923">
        <ele>135.68</ele>
        <time>2021-08-18T19:13:08Z</time>
      </trkpt>
      <trkpt lat="43.64921" lon="0.58924">
        <ele>135.68</ele>
        <time>2021-08-18T19:13:24Z</time>
      </trkpt>
      <trkpt lat="43.64921" lon="0.58923">
        <ele>135.68</ele>
        <time>2021-08-18T19:13:36Z</time>
      </trkpt>
      <trkpt lat="43.64918" lon="0.58923">
        <ele>135.68</ele>
        <time>2021-08-18T19:13:50Z</time>
      </trkpt>
      <trkpt lat="43.6492" lon="0.58922">
        <ele>135.68</ele>
        <time>2021-08-18T19:14:00Z</time>
      </trkpt>
      <trkpt lat="43.64917" lon="0.58914">
        <ele>135.68</ele>
        <time>2021-08-18T19:14:16Z</time>
      </trkpt>
      <trkpt lat="43.64908" lon="0.58905">
        <ele>135.68</ele>
        <time>2021-08-18T19:14:34Z</time>
      </trkpt>
      <trkpt lat="43.64902" lon="0.58901">
        <ele>135.68</ele>
        <time>2021-08-18T19:14:49Z</time>
      </trkpt>
      <trkpt lat="43.64905" lon="0.58903">
        <ele>135.68</ele>
        <time>2021-08-18T19:15:00Z</time>
      </trkpt>
      <trkpt lat="43.64909" lon="0.58903">
        <ele>135.68</ele>
        <time>2021-08-18T19:15:10Z</time>
      </trkpt>
      <trkpt lat="43.64917" lon="0.58907">
        <ele>135.68</ele>
        <time>2021-08-18T19:15:24Z</time>
      </trkpt>
      <trkpt lat="43.64922" lon="0.5891">
        <ele>135.68</ele>
        <time>2021-08-18T19:15:41Z</time>
      </trkpt>
      <trkpt lat="43.64924" lon="0.58913">
        <ele>135.68</ele>
        <time>2021-08-18T19:15:51Z</time>
      </trkpt>
      <trkpt lat="43.64924" lon="0.58916">
        <ele>135.68</ele>
        <time>2021-08-18T19:16:02Z</time>
      </trkpt>
      <trkpt lat="43.64919" lon="0.5891">
        <ele>135.68</ele>
        <time>2021-08-18T19:16:18Z</time>
      </trkpt>
      <trkpt lat="43.64917" lon="0.58906">
        <ele>135.68</ele>
        <time>2021-08-18T19:16:38Z</time>
      </trkpt>
      <trkpt lat="43.64917" lon="0.58908">
        <ele>135.68</ele>
        <time>2021-08-18T19:16:52Z</time>
      </trkpt>
      <trkpt lat="43.64917" lon="0.58907">
        <ele>135.68</ele>
        <time>2021-08-18T19:17:08Z</time>
      </trkpt>
      <trkpt lat="43.64919" lon="0.58912">
        <ele>135.68</ele>
        <time>2021-08-18T19:17:23Z</time>
      </trkpt>
      <trkpt lat="43.64919" lon="0.5891">
        <ele>135.2</ele>
        <time>2021-08-18T19:17:36Z</time>
      </trkpt>
      <trkpt lat="43.64919" lon="0.58909">
        <ele>135.2</ele>
        <time>2021-08-18T19:17:50Z</time>
      </trkpt>
      <trkpt lat="43.64917" lon="0.58907">
        <ele>135.2</ele>
        <time>2021-08-18T19:18:00Z</time>
      </trkpt>
      <trkpt lat="43.64917" lon="0.58908">
        <ele>135.2</ele>
        <time>2021-08-18T19:18:09Z</time>
      </trkpt>
      <trkpt lat="43.64919" lon="0.58908">
        <ele>135.2</ele>
        <time>2021-08-18T19:18:22Z</time>
      </trkpt>
      <trkpt lat="43.6492" lon="0.5891">
        <ele>135.2</ele>
        <time>2021-08-18T19:18:36Z</time>
      </trkpt>
      <trkpt lat="43.64924" lon="0.5891">
        <ele>135.2</ele>
        <time>2021-08-18T19:18:53Z</time>
      </trkpt>
      <trkpt lat="43.64922" lon="0.58911">
        <ele>135.2</ele>
        <time>2021-08-18T19:19:08Z</time>
      </trkpt>
      <trkpt lat="43.64921" lon="0.58914">
        <ele>135.2</ele>
        <time>2021-08-18T19:19:19Z</time>
      </trkpt>
      <trkpt lat="43.64922" lon="0.58916">
        <ele>135.2</ele>
        <time>2021-08-18T19:19:34Z</time>
      </trkpt>
      <trkpt lat="43.64921" lon="0.58915">
        <ele>135.2</ele>
        <time>2021-08-18T19:19:46Z</time>
      </trkpt>
      <trkpt lat="43.64921" lon="0.58914">
        <ele>135.2</ele>
        <time>2021-08-18T19:19:56Z</time>
      </trkpt>
      <trkpt lat="43.64922" lon="0.58914">
        <ele>135.2</ele>
        <time>2021-08-18T19:20:04Z</time>
      </trkpt>
      <trkpt lat="43.64923" lon="0.58917">
        <ele>135.2</ele>
        <time>2021-08-18T19:20:11Z</time>
      </trkpt>
      <trkpt lat="43.64921" lon="0.5892">
        <ele>135.2</ele>
        <time>2021-08-18T19:20:14Z</time>
      </trkpt>
      <trkpt lat="43.6492" lon="0.58922">
        <ele>135.2</ele>
        <time>2021-08-18T19:20:15Z</time>
      </trkpt>
      <trkpt lat="43.64919" lon="0.58927">
        <ele>135.2</ele>
        <time>2021-08-18T19:20:18Z</time>
      </trkpt>
      <trkpt lat="43.64919" lon="0.58928">
        <ele>135.2</ele>
        <time>2021-08-18T19:20:19Z</time>
      </trkpt>
      <trkpt lat="43.6492" lon="0.58927">
        <ele>135.2</ele>
        <time>2021-08-18T19:20:20Z</time>
      </trkpt>
      <trkpt lat="43.64921" lon="0.58926">
        <ele>135.2</ele>
        <time>2021-08-18T19:20:21Z</time>
      </trkpt>
      <trkpt lat="43.64922" lon="0.58924">
        <ele>135.2</ele>
        <time>2021-08-18T19:20:22Z</time>
      </trkpt>
      <trkpt lat="43.64925" lon="0.58917">
        <ele>135.2</ele>
        <time>2021-08-18T19:20:27Z</time>
      </trkpt>
      <trkpt lat="43.64925" lon="0.58915">
        <ele>135.2</ele>
        <time>2021-08-18T19:20:28Z</time>
      </trkpt>
      <trkpt lat="43.64924" lon="0.58913">
        <ele>135.2</ele>
        <time>2021-08-18T19:20:29Z</time>
      </trkpt>
      <trkpt lat="43.64923" lon="0.58912">
        <ele>135.2</ele>
        <time>2021-08-18T19:20:30Z</time>
      </trkpt>
      <trkpt lat="43.64922" lon="0.5891">
        <ele>135.2</ele>
        <time>2021-08-18T19:20:31Z</time>
      </trkpt>
      <trkpt lat="43.64914" lon="0.5891">
        <ele>135.2</ele>
        <time>2021-08-18T19:20:36Z</time>
      </trkpt>
      <trkpt lat="43.64912" lon="0.58913">
        <ele>135.2</ele>
        <time>2021-08-18T19:20:37Z</time>
      </trkpt>
      <trkpt lat="43.64911" lon="0.58917">
        <ele>135.2</ele>
        <time>2021-08-18T19:20:38Z</time>
      </trkpt>
      <trkpt lat="43.64909" lon="0.58921">
        <ele>135.2</ele>
        <time>2021-08-18T19:20:39Z</time>
      </trkpt>
      <trkpt lat="43.64907" lon="0.58924">
        <ele>134.72</ele>
        <time>2021-08-18T19:20:40Z</time>
      </trkpt>
      <trkpt lat="43.64905" lon="0.58927">
        <ele>134.72</ele>
        <time>2021-08-18T19:20:41Z</time>
      </trkpt>
      <trkpt lat="43.64902" lon="0.5893">
        <ele>134.72</ele>
        <time>2021-08-18T19:20:42Z</time>
      </trkpt>
      <trkpt lat="43.64899" lon="0.58932">
        <ele>134.72</ele>
        <time>2021-08-18T19:20:43Z</time>
      </trkpt>
      <trkpt lat="43.64895" lon="0.58933">
        <ele>134.72</ele>
        <time>2021-08-18T19:20:44Z</time>
      </trkpt>
      <trkpt lat="43.64891" lon="0.58933">
        <ele>134.24</ele>
        <time>2021-08-18T19:20:45Z</time>
      </trkpt>
      <trkpt lat="43.64888" lon="0.58933">
        <ele>134.24</ele>
        <time>2021-08-18T19:20:46Z</time>
      </trkpt>
      <trkpt lat="43.64883" lon="0.58932">
        <ele>133.76</ele>
        <time>2021-08-18T19:20:47Z</time>
      </trkpt>
      <trkpt lat="43.6488" lon="0.58931">
        <ele>133.76</ele>
        <time>2021-08-18T19:20:48Z</time>
      </trkpt>
      <trkpt lat="43.64875" lon="0.58929">
        <ele>133.28</ele>
        <time>2021-08-18T19:20:49Z</time>
      </trkpt>
      <trkpt lat="43.64871" lon="0.58927">
        <ele>133.28</ele>
        <time>2021-08-18T19:20:50Z</time>
      </trkpt>
      <trkpt lat="43.6484" lon="0.58912">
        <ele>131.84</ele>
        <time>2021-08-18T19:20:57Z</time>
      </trkpt>
      <trkpt lat="43.64819" lon="0.58903">
        <ele>131.84</ele>
        <time>2021-08-18T19:21:01Z</time>
      </trkpt>
      <trkpt lat="43.64782" lon="0.58885">
        <ele>132.32</ele>
        <time>2021-08-18T19:21:09Z</time>
      </trkpt>
      <trkpt lat="43.64743" lon="0.58871">
        <ele>132.32</ele>
        <time>2021-08-18T19:21:19Z</time>
      </trkpt>
      <trkpt lat="43.64723" lon="0.58861">
        <ele>132.32</ele>
        <time>2021-08-18T19:21:24Z</time>
      </trkpt>
      <trkpt lat="43.6472" lon="0.58858">
        <ele>132.32</ele>
        <time>2021-08-18T19:21:25Z</time>
      </trkpt>
      <trkpt lat="43.64716" lon="0.58856">
        <ele>132.32</ele>
        <time>2021-08-18T19:21:26Z</time>
      </trkpt>
      <trkpt lat="43.64712" lon="0.58854">
        <ele>132.32</ele>
        <time>2021-08-18T19:21:27Z</time>
      </trkpt>
      <trkpt lat="43.64708" lon="0.58852">
        <ele>132.32</ele>
        <time>2021-08-18T19:21:28Z</time>
      </trkpt>
      <trkpt lat="43.64704" lon="0.5885">
        <ele>132.32</ele>
        <time>2021-08-18T19:21:29Z</time>
      </trkpt>
      <trkpt lat="43.64687" lon="0.58842">
        <ele>131.84</ele>
        <time>2021-08-18T19:21:33Z</time>
      </trkpt>
      <trkpt lat="43.6467" lon="0.58837">
        <ele>131.84</ele>
        <time>2021-08-18T19:21:37Z</time>
      </trkpt>
      <trkpt lat="43.64666" lon="0.58836">
        <ele>131.84</ele>
        <time>2021-08-18T19:21:38Z</time>
      </trkpt>
      <trkpt lat="43.64642" lon="0.58825">
        <ele>131.84</ele>
        <time>2021-08-18T19:21:44Z</time>
      </trkpt>
      <trkpt lat="43.64639" lon="0.58823">
        <ele>131.84</ele>
        <time>2021-08-18T19:21:45Z</time>
      </trkpt>
      <trkpt lat="43.64627" lon="0.58816">
        <ele>131.84</ele>
        <time>2021-08-18T19:21:48Z</time>
      </trkpt>
      <trkpt lat="43.64591" lon="0.58798">
        <ele>131.84</ele>
        <time>2021-08-18T19:21:56Z</time>
      </trkpt>
      <trkpt lat="43.64557" lon="0.58784">
        <ele>131.84</ele>
        <time>2021-08-18T19:22:04Z</time>
      </trkpt>
      <trkpt lat="43.6453" lon="0.58771">
        <ele>131.84</ele>
        <time>2021-08-18T19:22:11Z</time>
      </trkpt>
      <trkpt lat="43.64526" lon="0.58766">
        <ele>131.84</ele>
        <time>2021-08-18T19:22:13Z</time>
      </trkpt>
      <trkpt lat="43.64525" lon="0.58762">
        <ele>131.84</ele>
        <time>2021-08-18T19:22:14Z</time>
      </trkpt>
      <trkpt lat="43.64525" lon="0.58759">
        <ele>131.84</ele>
        <time>2021-08-18T19:22:15Z</time>
      </trkpt>
      <trkpt lat="43.64525" lon="0.58756">
        <ele>131.84</ele>
        <time>2021-08-18T19:22:16Z</time>
      </trkpt>
      <trkpt lat="43.64526" lon="0.58753">
        <ele>131.84</ele>
        <time>2021-08-18T19:22:17Z</time>
      </trkpt>
      <trkpt lat="43.64527" lon="0.58749">
        <ele>131.36</ele>
        <time>2021-08-18T19:22:18Z</time>
      </trkpt>
      <trkpt lat="43.64528" lon="0.58747">
        <ele>131.36</ele>
        <time>2021-08-18T19:22:19Z</time>
      </trkpt>
      <trkpt lat="43.64529" lon="0.58745">
        <ele>130.88</ele>
        <time>2021-08-18T19:22:21Z</time>
      </trkpt>
      <trkpt lat="43.64532" lon="0.58745">
        <ele>130.88</ele>
        <time>2021-08-18T19:22:22Z</time>
      </trkpt>
      <trkpt lat="43.64553" lon="0.5875">
        <ele>130.88</ele>
        <time>2021-08-18T19:22:30Z</time>
      </trkpt>
      <trkpt lat="43.64573" lon="0.58752">
        <ele>130.88</ele>
        <time>2021-08-18T19:22:38Z</time>
      </trkpt>
      <trkpt lat="43.64581" lon="0.58754">
        <ele>132.32</ele>
        <time>2021-08-18T19:22:42Z</time>
      </trkpt>
      <trkpt lat="43.64593" lon="0.58756">
        <ele>132.8</ele>
        <time>2021-08-18T19:22:48Z</time>
      </trkpt>
      <trkpt lat="43.64613" lon="0.58754">
        <ele>133.76</ele>
        <time>2021-08-18T19:22:56Z</time>
      </trkpt>
      <trkpt lat="43.64631" lon="0.58756">
        <ele>134.72</ele>
        <time>2021-08-18T19:23:03Z</time>
      </trkpt>
      <trkpt lat="43.64649" lon="0.58757">
        <ele>135.68</ele>
        <time>2021-08-18T19:23:11Z</time>
      </trkpt>
      <trkpt lat="43.64652" lon="0.58756">
        <ele>135.68</ele>
        <time>2021-08-18T19:23:17Z</time>
      </trkpt>
      <trkpt lat="43.64656" lon="0.58755">
        <ele>135.68</ele>
        <time>2021-08-18T19:23:31Z</time>
      </trkpt>
      <trkpt lat="43.64666" lon="0.58757">
        <ele>136.64</ele>
        <time>2021-08-18T19:23:38Z</time>
      </trkpt>
      <trkpt lat="43.64677" lon="0.58758">
        <ele>138.09</ele>
        <time>2021-08-18T19:23:47Z</time>
      </trkpt>
      <trkpt lat="43.64686" lon="0.58759">
        <ele>138.57</ele>
        <time>2021-08-18T19:23:54Z</time>
      </trkpt>
      <trkpt lat="43.64689" lon="0.58756">
        <ele>139.05</ele>
        <time>2021-08-18T19:23:57Z</time>
      </trkpt>
      <trkpt lat="43.647" lon="0.58744">
        <ele>140.49</ele>
        <time>2021-08-18T19:24:04Z</time>
      </trkpt>
      <trkpt lat="43.64702" lon="0.58743">
        <ele>140.97</ele>
        <time>2021-08-18T19:24:06Z</time>
      </trkpt>
      <trkpt lat="43.64703" lon="0.58741">
        <ele>140.97</ele>
        <time>2021-08-18T19:24:09Z</time>
      </trkpt>
      <trkpt lat="43.64703" lon="0.58739">
        <ele>141.45</ele>
        <time>2021-08-18T19:24:10Z</time>
      </trkpt>
      <trkpt lat="43.64702" lon="0.58737">
        <ele>141.45</ele>
        <time>2021-08-18T19:24:11Z</time>
      </trkpt>
      <trkpt lat="43.64703" lon="0.58736">
        <ele>141.45</ele>
        <time>2021-08-18T19:24:12Z</time>
      </trkpt>
      <trkpt lat="43.64702" lon="0.58734">
        <ele>141.45</ele>
        <time>2021-08-18T19:24:13Z</time>
      </trkpt>
      <trkpt lat="43.64702" lon="0.58725">
        <ele>143.37</ele>
        <time>2021-08-18T19:24:20Z</time>
      </trkpt>
      <trkpt lat="43.64704" lon="0.58706">
        <ele>144.34</ele>
        <time>2021-08-18T19:24:28Z</time>
      </trkpt>
      <trkpt lat="43.64705" lon="0.58704">
        <ele>144.82</ele>
        <time>2021-08-18T19:24:29Z</time>
      </trkpt>
      <trkpt lat="43.64708" lon="0.58686">
        <ele>145.78</ele>
        <time>2021-08-18T19:24:39Z</time>
      </trkpt>
      <trkpt lat="43.64711" lon="0.58683">
        <ele>146.26</ele>
        <time>2021-08-18T19:24:46Z</time>
      </trkpt>
      <trkpt lat="43.64713" lon="0.58684">
        <ele>146.26</ele>
        <time>2021-08-18T19:24:49Z</time>
      </trkpt>
      <trkpt lat="43.64723" lon="0.5869">
        <ele>147.22</ele>
        <time>2021-08-18T19:24:58Z</time>
      </trkpt>
      <trkpt lat="43.64735" lon="0.58698">
        <ele>147.7</ele>
        <time>2021-08-18T19:25:07Z</time>
      </trkpt>
      <trkpt lat="43.64745" lon="0.58707">
        <ele>148.18</ele>
        <time>2021-08-18T19:25:16Z</time>
      </trkpt>
      <trkpt lat="43.64755" lon="0.58716">
        <ele>149.14</ele>
        <time>2021-08-18T19:25:25Z</time>
      </trkpt>
      <trkpt lat="43.64765" lon="0.58724">
        <ele>150.58</ele>
        <time>2021-08-18T19:25:35Z</time>
      </trkpt>
      <trkpt lat="43.64767" lon="0.58725">
        <ele>150.58</ele>
        <time>2021-08-18T19:25:38Z</time>
      </trkpt>
      <trkpt lat="43.6477" lon="0.58727">
        <ele>151.54</ele>
        <time>2021-08-18T19:25:42Z</time>
      </trkpt>
      <trkpt lat="43.64781" lon="0.58731">
        <ele>152.51</ele>
        <time>2021-08-18T19:25:54Z</time>
      </trkpt>
      <trkpt lat="43.64791" lon="0.58739">
        <ele>153.47</ele>
        <time>2021-08-18T19:26:02Z</time>
      </trkpt>
      <trkpt lat="43.64796" lon="0.58742">
        <ele>153.95</ele>
        <time>2021-08-18T19:26:07Z</time>
      </trkpt>
      <trkpt lat="43.64807" lon="0.58743">
        <ele>155.39</ele>
        <time>2021-08-18T19:26:18Z</time>
      </trkpt>
      <trkpt lat="43.64812" lon="0.5874">
        <ele>155.39</ele>
        <time>2021-08-18T19:26:21Z</time>
      </trkpt>
      <trkpt lat="43.64813" lon="0.5874">
        <ele>155.87</ele>
        <time>2021-08-18T19:26:22Z</time>
      </trkpt>
      <trkpt lat="43.6482" lon="0.58736">
        <ele>156.35</ele>
        <time>2021-08-18T19:26:28Z</time>
      </trkpt>
      <trkpt lat="43.64824" lon="0.58716">
        <ele>157.79</ele>
        <time>2021-08-18T19:26:39Z</time>
      </trkpt>
      <trkpt lat="43.64825" lon="0.58707">
        <ele>157.79</ele>
        <time>2021-08-18T19:26:46Z</time>
      </trkpt>
      <trkpt lat="43.64822" lon="0.58705">
        <ele>158.27</ele>
        <time>2021-08-18T19:26:49Z</time>
      </trkpt>
      <trkpt lat="43.64821" lon="0.58704">
        <ele>158.27</ele>
        <time>2021-08-18T19:26:50Z</time>
      </trkpt>
      <trkpt lat="43.64821" lon="0.58703">
        <ele>158.75</ele>
        <time>2021-08-18T19:26:51Z</time>
      </trkpt>
      <trkpt lat="43.64814" lon="0.58697">
        <ele>160.2</ele>
        <time>2021-08-18T19:27:00Z</time>
      </trkpt>
      <trkpt lat="43.64805" lon="0.58687">
        <ele>161.16</ele>
        <time>2021-08-18T19:27:09Z</time>
      </trkpt>
      <trkpt lat="43.648" lon="0.5868">
        <ele>161.64</ele>
        <time>2021-08-18T19:27:17Z</time>
      </trkpt>
      <trkpt lat="43.64789" lon="0.58668">
        <ele>163.08</ele>
        <time>2021-08-18T19:27:28Z</time>
      </trkpt>
      <trkpt lat="43.64787" lon="0.58662">
        <ele>162.6</ele>
        <time>2021-08-18T19:27:36Z</time>
      </trkpt>
      <trkpt lat="43.64784" lon="0.58656">
        <ele>163.08</ele>
        <time>2021-08-18T19:27:42Z</time>
      </trkpt>
      <trkpt lat="43.64775" lon="0.58633">
        <ele>163.56</ele>
        <time>2021-08-18T19:27:53Z</time>
      </trkpt>
      <trkpt lat="43.64766" lon="0.58617">
        <ele>165</ele>
        <time>2021-08-18T19:28:01Z</time>
      </trkpt>
      <trkpt lat="43.64759" lon="0.586">
        <ele>165.48</ele>
        <time>2021-08-18T19:28:08Z</time>
      </trkpt>
      <trkpt lat="43.64752" lon="0.58578">
        <ele>166.45</ele>
        <time>2021-08-18T19:28:16Z</time>
      </trkpt>
      <trkpt lat="43.64743" lon="0.58553">
        <ele>166.93</ele>
        <time>2021-08-18T19:28:25Z</time>
      </trkpt>
      <trkpt lat="43.64734" lon="0.58543">
        <ele>167.41</ele>
        <time>2021-08-18T19:28:31Z</time>
      </trkpt>
      <trkpt lat="43.64721" lon="0.58521">
        <ele>167.89</ele>
        <time>2021-08-18T19:28:40Z</time>
      </trkpt>
      <trkpt lat="43.64693" lon="0.58506">
        <ele>166.45</ele>
        <time>2021-08-18T19:28:48Z</time>
      </trkpt>
      <trkpt lat="43.64669" lon="0.58499">
        <ele>167.89</ele>
        <time>2021-08-18T19:28:56Z</time>
      </trkpt>
      <trkpt lat="43.64661" lon="0.58486">
        <ele>168.37</ele>
        <time>2021-08-18T19:29:02Z</time>
      </trkpt>
      <trkpt lat="43.64656" lon="0.58479">
        <ele>168.85</ele>
        <time>2021-08-18T19:29:05Z</time>
      </trkpt>
      <trkpt lat="43.64653" lon="0.58449">
        <ele>170.29</ele>
        <time>2021-08-18T19:29:15Z</time>
      </trkpt>
      <trkpt lat="43.64661" lon="0.58426">
        <ele>171.25</ele>
        <time>2021-08-18T19:29:23Z</time>
      </trkpt>
      <trkpt lat="43.64667" lon="0.58413">
        <ele>171.73</ele>
        <time>2021-08-18T19:29:28Z</time>
      </trkpt>
      <trkpt lat="43.64669" lon="0.58412">
        <ele>172.21</ele>
        <time>2021-08-18T19:29:29Z</time>
      </trkpt>
      <trkpt lat="43.64672" lon="0.58409">
        <ele>172.69</ele>
        <time>2021-08-18T19:29:35Z</time>
      </trkpt>
      <trkpt lat="43.64675" lon="0.58405">
        <ele>172.69</ele>
        <time>2021-08-18T19:29:48Z</time>
      </trkpt>
      <trkpt lat="43.64679" lon="0.58398">
        <ele>172.69</ele>
        <time>2021-08-18T19:29:53Z</time>
      </trkpt>
      <trkpt lat="43.6468" lon="0.58396">
        <ele>172.69</ele>
        <time>2021-08-18T19:29:54Z</time>
      </trkpt>
      <trkpt lat="43.6468" lon="0.58394">
        <ele>172.69</ele>
        <time>2021-08-18T19:29:55Z</time>
      </trkpt>
      <trkpt lat="43.64681" lon="0.58392">
        <ele>172.69</ele>
        <time>2021-08-18T19:29:56Z</time>
      </trkpt>
      <trkpt lat="43.64683" lon="0.5839">
        <ele>172.69</ele>
        <time>2021-08-18T19:29:57Z</time>
      </trkpt>
      <trkpt lat="43.64694" lon="0.58368">
        <ele>172.69</ele>
        <time>2021-08-18T19:30:05Z</time>
      </trkpt>
      <trkpt lat="43.64694" lon="0.58364">
        <ele>172.69</ele>
        <time>2021-08-18T19:30:06Z</time>
      </trkpt>
      <trkpt lat="43.64693" lon="0.58361">
        <ele>172.69</ele>
        <time>2021-08-18T19:30:07Z</time>
      </trkpt>
      <trkpt lat="43.64691" lon="0.58359">
        <ele>172.69</ele>
        <time>2021-08-18T19:30:08Z</time>
      </trkpt>
      <trkpt lat="43.64675" lon="0.58336">
        <ele>172.69</ele>
        <time>2021-08-18T19:30:18Z</time>
      </trkpt>
      <trkpt lat="43.64668" lon="0.58316">
        <ele>172.69</ele>
        <time>2021-08-18T19:30:24Z</time>
      </trkpt>
      <trkpt lat="43.64664" lon="0.58312">
        <ele>172.69</ele>
        <time>2021-08-18T19:30:26Z</time>
      </trkpt>
      <trkpt lat="43.64659" lon="0.58308">
        <ele>171.25</ele>
        <time>2021-08-18T19:30:28Z</time>
      </trkpt>
      <trkpt lat="43.64652" lon="0.58303">
        <ele>170.29</ele>
        <time>2021-08-18T19:30:30Z</time>
      </trkpt>
      <trkpt lat="43.64636" lon="0.58295">
        <ele>168.37</ele>
        <time>2021-08-18T19:30:34Z</time>
      </trkpt>
      <trkpt lat="43.64632" lon="0.58292">
        <ele>168.37</ele>
        <time>2021-08-18T19:30:35Z</time>
      </trkpt>
      <trkpt lat="43.64627" lon="0.5829">
        <ele>167.41</ele>
        <time>2021-08-18T19:30:36Z</time>
      </trkpt>
      <trkpt lat="43.64619" lon="0.58285">
        <ele>166.45</ele>
        <time>2021-08-18T19:30:38Z</time>
      </trkpt>
      <trkpt lat="43.64603" lon="0.58276">
        <ele>164.52</ele>
        <time>2021-08-18T19:30:42Z</time>
      </trkpt>
      <trkpt lat="43.64593" lon="0.58268">
        <ele>163.08</ele>
        <time>2021-08-18T19:30:45Z</time>
      </trkpt>
      <trkpt lat="43.64568" lon="0.58254">
        <ele>159.72</ele>
        <time>2021-08-18T19:30:51Z</time>
      </trkpt>
      <trkpt lat="43.64542" lon="0.58232">
        <ele>155.87</ele>
        <time>2021-08-18T19:30:59Z</time>
      </trkpt>
      <trkpt lat="43.64543" lon="0.58224">
        <ele>154.91</ele>
        <time>2021-08-18T19:31:00Z</time>
      </trkpt>
      <trkpt lat="43.64545" lon="0.58217">
        <ele>154.43</ele>
        <time>2021-08-18T19:31:01Z</time>
      </trkpt>
      <trkpt lat="43.64552" lon="0.58192">
        <ele>152.99</ele>
        <time>2021-08-18T19:31:04Z</time>
      </trkpt>
      <trkpt lat="43.64553" lon="0.58185">
        <ele>152.99</ele>
        <time>2021-08-18T19:31:05Z</time>
      </trkpt>
      <trkpt lat="43.64554" lon="0.58177">
        <ele>152.99</ele>
        <time>2021-08-18T19:31:06Z</time>
      </trkpt>
      <trkpt lat="43.64555" lon="0.58153">
        <ele>152.99</ele>
        <time>2021-08-18T19:31:10Z</time>
      </trkpt>
      <trkpt lat="43.64555" lon="0.58147">
        <ele>152.99</ele>
        <time>2021-08-18T19:31:11Z</time>
      </trkpt>
      <trkpt lat="43.64561" lon="0.5809">
        <ele>150.58</ele>
        <time>2021-08-18T19:31:19Z</time>
      </trkpt>
      <trkpt lat="43.64565" lon="0.58029">
        <ele>149.14</ele>
        <time>2021-08-18T19:31:28Z</time>
      </trkpt>
      <trkpt lat="43.64572" lon="0.57985">
        <ele>146.26</ele>
        <time>2021-08-18T19:31:34Z</time>
      </trkpt>
      <trkpt lat="43.64582" lon="0.57914">
        <ele>143.85</ele>
        <time>2021-08-18T19:31:42Z</time>
      </trkpt>
      <trkpt lat="43.64588" lon="0.57858">
        <ele>143.85</ele>
        <time>2021-08-18T19:31:49Z</time>
      </trkpt>
      <trkpt lat="43.64589" lon="0.57837">
        <ele>145.3</ele>
        <time>2021-08-18T19:31:53Z</time>
      </trkpt>
      <trkpt lat="43.64589" lon="0.57811">
        <ele>146.26</ele>
        <time>2021-08-18T19:32:00Z</time>
      </trkpt>
      <trkpt lat="43.64591" lon="0.57789">
        <ele>147.22</ele>
        <time>2021-08-18T19:32:07Z</time>
      </trkpt>
      <trkpt lat="43.64591" lon="0.57789">
        <ele>147.22</ele>
        <time>2021-08-18T19:32:18Z</time>
      </trkpt>
      <trkpt lat="43.64589" lon="0.57789">
        <ele>147.22</ele>
        <time>2021-08-18T19:32:41Z</time>
      </trkpt>
      <trkpt lat="43.64589" lon="0.57787">
        <ele>147.22</ele>
        <time>2021-08-18T19:32:56Z</time>
      </trkpt>
      <trkpt lat="43.64588" lon="0.57783">
        <ele>147.22</ele>
        <time>2021-08-18T19:32:59Z</time>
      </trkpt>
      <trkpt lat="43.64588" lon="0.57781">
        <ele>147.22</ele>
        <time>2021-08-18T19:33:00Z</time>
      </trkpt>
      <trkpt lat="43.64588" lon="0.57778">
        <ele>147.7</ele>
        <time>2021-08-18T19:33:01Z</time>
      </trkpt>
      <trkpt lat="43.64588" lon="0.57776">
        <ele>147.7</ele>
        <time>2021-08-18T19:33:02Z</time>
      </trkpt>
      <trkpt lat="43.64588" lon="0.57773">
        <ele>147.7</ele>
        <time>2021-08-18T19:33:03Z</time>
      </trkpt>
      <trkpt lat="43.64589" lon="0.57758">
        <ele>148.18</ele>
        <time>2021-08-18T19:33:10Z</time>
      </trkpt>
      <trkpt lat="43.64588" lon="0.57758">
        <ele>148.18</ele>
        <time>2021-08-18T19:33:28Z</time>
      </trkpt>
      <trkpt lat="43.64589" lon="0.57751">
        <ele>148.18</ele>
        <time>2021-08-18T19:33:37Z</time>
      </trkpt>
      <trkpt lat="43.64591" lon="0.57739">
        <ele>148.66</ele>
        <time>2021-08-18T19:33:41Z</time>
      </trkpt>
      <trkpt lat="43.64592" lon="0.57735">
        <ele>148.66</ele>
        <time>2021-08-18T19:33:42Z</time>
      </trkpt>
      <trkpt lat="43.64592" lon="0.57731">
        <ele>148.66</ele>
        <time>2021-08-18T19:33:43Z</time>
      </trkpt>
      <trkpt lat="43.64596" lon="0.57694">
        <ele>149.14</ele>
        <time>2021-08-18T19:33:51Z</time>
      </trkpt>
      <trkpt lat="43.64603" lon="0.5765">
        <ele>150.1</ele>
        <time>2021-08-18T19:34:01Z</time>
      </trkpt>
      <trkpt lat="43.64606" lon="0.57621">
        <ele>150.58</ele>
        <time>2021-08-18T19:34:08Z</time>
      </trkpt>
      <trkpt lat="43.64611" lon="0.57592">
        <ele>151.06</ele>
        <time>2021-08-18T19:34:15Z</time>
      </trkpt>
      <trkpt lat="43.64619" lon="0.57559">
        <ele>151.54</ele>
        <time>2021-08-18T19:34:23Z</time>
      </trkpt>
      <trkpt lat="43.64628" lon="0.57528">
        <ele>152.03</ele>
        <time>2021-08-18T19:34:31Z</time>
      </trkpt>
      <trkpt lat="43.64639" lon="0.57476">
        <ele>152.51</ele>
        <time>2021-08-18T19:34:43Z</time>
      </trkpt>
      <trkpt lat="43.64635" lon="0.5745">
        <ele>152.99</ele>
        <time>2021-08-18T19:34:49Z</time>
      </trkpt>
      <trkpt lat="43.64619" lon="0.5742">
        <ele>153.47</ele>
        <time>2021-08-18T19:34:57Z</time>
      </trkpt>
      <trkpt lat="43.646" lon="0.57397">
        <ele>154.43</ele>
        <time>2021-08-18T19:35:05Z</time>
      </trkpt>
      <trkpt lat="43.64582" lon="0.57377">
        <ele>155.39</ele>
        <time>2021-08-18T19:35:14Z</time>
      </trkpt>
      <trkpt lat="43.64567" lon="0.57363">
        <ele>156.83</ele>
        <time>2021-08-18T19:35:23Z</time>
      </trkpt>
      <trkpt lat="43.6455" lon="0.57348">
        <ele>157.79</ele>
        <time>2021-08-18T19:35:33Z</time>
      </trkpt>
      <trkpt lat="43.64527" lon="0.57336">
        <ele>157.79</ele>
        <time>2021-08-18T19:35:44Z</time>
      </trkpt>
      <trkpt lat="43.64514" lon="0.57325">
        <ele>159.24</ele>
        <time>2021-08-18T19:35:52Z</time>
      </trkpt>
      <trkpt lat="43.64504" lon="0.57306">
        <ele>160.2</ele>
        <time>2021-08-18T19:36:01Z</time>
      </trkpt>
      <trkpt lat="43.64503" lon="0.57282">
        <ele>161.64</ele>
        <time>2021-08-18T19:36:09Z</time>
      </trkpt>
      <trkpt lat="43.64502" lon="0.57277">
        <ele>161.64</ele>
        <time>2021-08-18T19:36:11Z</time>
      </trkpt>
      <trkpt lat="43.64501" lon="0.57274">
        <ele>161.64</ele>
        <time>2021-08-18T19:36:12Z</time>
      </trkpt>
      <trkpt lat="43.64501" lon="0.57244">
        <ele>162.12</ele>
        <time>2021-08-18T19:36:21Z</time>
      </trkpt>
      <trkpt lat="43.645" lon="0.57216">
        <ele>162.6</ele>
        <time>2021-08-18T19:36:28Z</time>
      </trkpt>
      <trkpt lat="43.645" lon="0.57166">
        <ele>163.08</ele>
        <time>2021-08-18T19:36:40Z</time>
      </trkpt>
      <trkpt lat="43.64503" lon="0.57129">
        <ele>164.04</ele>
        <time>2021-08-18T19:36:49Z</time>
      </trkpt>
      <trkpt lat="43.64505" lon="0.57089">
        <ele>165</ele>
        <time>2021-08-18T19:36:59Z</time>
      </trkpt>
      <trkpt lat="43.64505" lon="0.57064">
        <ele>165.96</ele>
        <time>2021-08-18T19:37:07Z</time>
      </trkpt>
      <trkpt lat="43.64506" lon="0.57044">
        <ele>167.41</ele>
        <time>2021-08-18T19:37:13Z</time>
      </trkpt>
      <trkpt lat="43.64509" lon="0.57019">
        <ele>168.37</ele>
        <time>2021-08-18T19:37:22Z</time>
      </trkpt>
      <trkpt lat="43.64513" lon="0.56997">
        <ele>168.85</ele>
        <time>2021-08-18T19:37:30Z</time>
      </trkpt>
      <trkpt lat="43.64518" lon="0.56972">
        <ele>169.81</ele>
        <time>2021-08-18T19:37:39Z</time>
      </trkpt>
      <trkpt lat="43.64524" lon="0.5694">
        <ele>170.29</ele>
        <time>2021-08-18T19:37:50Z</time>
      </trkpt>
      <trkpt lat="43.64529" lon="0.56916">
        <ele>170.77</ele>
        <time>2021-08-18T19:37:58Z</time>
      </trkpt>
      <trkpt lat="43.64534" lon="0.56891">
        <ele>172.21</ele>
        <time>2021-08-18T19:38:07Z</time>
      </trkpt>
      <trkpt lat="43.64539" lon="0.56861">
        <ele>173.17</ele>
        <time>2021-08-18T19:38:18Z</time>
      </trkpt>
      <trkpt lat="43.64541" lon="0.56832">
        <ele>174.62</ele>
        <time>2021-08-18T19:38:28Z</time>
      </trkpt>
      <trkpt lat="43.64542" lon="0.56805">
        <ele>175.58</ele>
        <time>2021-08-18T19:38:38Z</time>
      </trkpt>
      <trkpt lat="43.64543" lon="0.56777">
        <ele>176.54</ele>
        <time>2021-08-18T19:38:48Z</time>
      </trkpt>
      <trkpt lat="43.64547" lon="0.56753">
        <ele>177.5</ele>
        <time>2021-08-18T19:38:56Z</time>
      </trkpt>
      <trkpt lat="43.64551" lon="0.56736">
        <ele>177.98</ele>
        <time>2021-08-18T19:39:03Z</time>
      </trkpt>
      <trkpt lat="43.64554" lon="0.56715">
        <ele>178.94</ele>
        <time>2021-08-18T19:39:11Z</time>
      </trkpt>
      <trkpt lat="43.64557" lon="0.56694">
        <ele>179.9</ele>
        <time>2021-08-18T19:39:19Z</time>
      </trkpt>
      <trkpt lat="43.64559" lon="0.56667">
        <ele>181.35</ele>
        <time>2021-08-18T19:39:30Z</time>
      </trkpt>
      <trkpt lat="43.64561" lon="0.56651">
        <ele>182.31</ele>
        <time>2021-08-18T19:39:38Z</time>
      </trkpt>
      <trkpt lat="43.64559" lon="0.56651">
        <ele>182.31</ele>
        <time>2021-08-18T19:39:50Z</time>
      </trkpt>
      <trkpt lat="43.6456" lon="0.56645">
        <ele>182.31</ele>
        <time>2021-08-18T19:40:01Z</time>
      </trkpt>
      <trkpt lat="43.64561" lon="0.56629">
        <ele>183.27</ele>
        <time>2021-08-18T19:40:08Z</time>
      </trkpt>
      <trkpt lat="43.64563" lon="0.56612">
        <ele>184.71</ele>
        <time>2021-08-18T19:40:16Z</time>
      </trkpt>
      <trkpt lat="43.64564" lon="0.56592">
        <ele>185.67</ele>
        <time>2021-08-18T19:40:25Z</time>
      </trkpt>
      <trkpt lat="43.64568" lon="0.56574">
        <ele>187.11</ele>
        <time>2021-08-18T19:40:34Z</time>
      </trkpt>
      <trkpt lat="43.64569" lon="0.56566">
        <ele>188.08</ele>
        <time>2021-08-18T19:40:39Z</time>
      </trkpt>
      <trkpt lat="43.6457" lon="0.56556">
        <ele>189.04</ele>
        <time>2021-08-18T19:40:45Z</time>
      </trkpt>
      <trkpt lat="43.64571" lon="0.56547">
        <ele>190</ele>
        <time>2021-08-18T19:40:51Z</time>
      </trkpt>
      <trkpt lat="43.64573" lon="0.56528">
        <ele>191.92</ele>
        <time>2021-08-18T19:41:03Z</time>
      </trkpt>
      <trkpt lat="43.64574" lon="0.56512">
        <ele>193.36</ele>
        <time>2021-08-18T19:41:14Z</time>
      </trkpt>
      <trkpt lat="43.64575" lon="0.56499">
        <ele>194.32</ele>
        <time>2021-08-18T19:41:22Z</time>
      </trkpt>
      <trkpt lat="43.64576" lon="0.56487">
        <ele>195.77</ele>
        <time>2021-08-18T19:41:29Z</time>
      </trkpt>
      <trkpt lat="43.64577" lon="0.56476">
        <ele>196.25</ele>
        <time>2021-08-18T19:41:36Z</time>
      </trkpt>
      <trkpt lat="43.6458" lon="0.56457">
        <ele>198.17</ele>
        <time>2021-08-18T19:41:47Z</time>
      </trkpt>
      <trkpt lat="43.64584" lon="0.56445">
        <ele>199.13</ele>
        <time>2021-08-18T19:41:55Z</time>
      </trkpt>
      <trkpt lat="43.64587" lon="0.56428">
        <ele>200.57</ele>
        <time>2021-08-18T19:42:05Z</time>
      </trkpt>
      <trkpt lat="43.64594" lon="0.56413">
        <ele>202.49</ele>
        <time>2021-08-18T19:42:16Z</time>
      </trkpt>
      <trkpt lat="43.64595" lon="0.5641">
        <ele>202.49</ele>
        <time>2021-08-18T19:42:22Z</time>
      </trkpt>
      <trkpt lat="43.64598" lon="0.56404">
        <ele>202.98</ele>
        <time>2021-08-18T19:42:27Z</time>
      </trkpt>
      <trkpt lat="43.64603" lon="0.56391">
        <ele>203.46</ele>
        <time>2021-08-18T19:42:33Z</time>
      </trkpt>
      <trkpt lat="43.64611" lon="0.56373">
        <ele>204.42</ele>
        <time>2021-08-18T19:42:41Z</time>
      </trkpt>
      <trkpt lat="43.64621" lon="0.56353">
        <ele>205.38</ele>
        <time>2021-08-18T19:42:50Z</time>
      </trkpt>
      <trkpt lat="43.64626" lon="0.56336">
        <ele>206.34</ele>
        <time>2021-08-18T19:42:58Z</time>
      </trkpt>
      <trkpt lat="43.64629" lon="0.5631">
        <ele>206.82</ele>
        <time>2021-08-18T19:43:06Z</time>
      </trkpt>
      <trkpt lat="43.64627" lon="0.56286">
        <ele>206.82</ele>
        <time>2021-08-18T19:43:12Z</time>
      </trkpt>
      <trkpt lat="43.64619" lon="0.56246">
        <ele>205.38</ele>
        <time>2021-08-18T19:43:21Z</time>
      </trkpt>
      <trkpt lat="43.64607" lon="0.56205">
        <ele>201.53</ele>
        <time>2021-08-18T19:43:28Z</time>
      </trkpt>
      <trkpt lat="43.64606" lon="0.56198">
        <ele>201.05</ele>
        <time>2021-08-18T19:43:29Z</time>
      </trkpt>
      <trkpt lat="43.64606" lon="0.56167">
        <ele>197.69</ele>
        <time>2021-08-18T19:43:33Z</time>
      </trkpt>
      <trkpt lat="43.64608" lon="0.56131">
        <ele>194.32</ele>
        <time>2021-08-18T19:43:37Z</time>
      </trkpt>
      <trkpt lat="43.6461" lon="0.56104">
        <ele>192.4</ele>
        <time>2021-08-18T19:43:40Z</time>
      </trkpt>
      <trkpt lat="43.64611" lon="0.56069">
        <ele>189.52</ele>
        <time>2021-08-18T19:43:44Z</time>
      </trkpt>
      <trkpt lat="43.6461" lon="0.56061">
        <ele>189.04</ele>
        <time>2021-08-18T19:43:45Z</time>
      </trkpt>
      <trkpt lat="43.64603" lon="0.56027">
        <ele>186.15</ele>
        <time>2021-08-18T19:43:49Z</time>
      </trkpt>
      <trkpt lat="43.646" lon="0.56019">
        <ele>186.15</ele>
        <time>2021-08-18T19:43:50Z</time>
      </trkpt>
      <trkpt lat="43.64597" lon="0.56012">
        <ele>184.71</ele>
        <time>2021-08-18T19:43:51Z</time>
      </trkpt>
      <trkpt lat="43.64573" lon="0.55961">
        <ele>181.83</ele>
        <time>2021-08-18T19:43:57Z</time>
      </trkpt>
      <trkpt lat="43.64553" lon="0.55912">
        <ele>180.38</ele>
        <time>2021-08-18T19:44:03Z</time>
      </trkpt>
      <trkpt lat="43.64552" lon="0.55904">
        <ele>180.38</ele>
        <time>2021-08-18T19:44:04Z</time>
      </trkpt>
      <trkpt lat="43.64551" lon="0.55896">
        <ele>180.38</ele>
        <time>2021-08-18T19:44:05Z</time>
      </trkpt>
      <trkpt lat="43.64552" lon="0.55888">
        <ele>180.38</ele>
        <time>2021-08-18T19:44:06Z</time>
      </trkpt>
      <trkpt lat="43.64552" lon="0.5588">
        <ele>180.38</ele>
        <time>2021-08-18T19:44:07Z</time>
      </trkpt>
      <trkpt lat="43.64554" lon="0.55842">
        <ele>180.38</ele>
        <time>2021-08-18T19:44:13Z</time>
      </trkpt>
      <trkpt lat="43.64552" lon="0.55836">
        <ele>180.38</ele>
        <time>2021-08-18T19:44:14Z</time>
      </trkpt>
      <trkpt lat="43.6455" lon="0.55826">
        <ele>180.38</ele>
        <time>2021-08-18T19:44:16Z</time>
      </trkpt>
      <trkpt lat="43.64539" lon="0.5578">
        <ele>180.38</ele>
        <time>2021-08-18T19:44:24Z</time>
      </trkpt>
      <trkpt lat="43.64519" lon="0.55747">
        <ele>179.9</ele>
        <time>2021-08-18T19:44:30Z</time>
      </trkpt>
      <trkpt lat="43.64511" lon="0.55739">
        <ele>179.9</ele>
        <time>2021-08-18T19:44:32Z</time>
      </trkpt>
      <trkpt lat="43.64506" lon="0.55736">
        <ele>179.9</ele>
        <time>2021-08-18T19:44:33Z</time>
      </trkpt>
      <trkpt lat="43.64468" lon="0.5571">
        <ele>177.02</ele>
        <time>2021-08-18T19:44:41Z</time>
      </trkpt>
      <trkpt lat="43.64464" lon="0.55706">
        <ele>177.02</ele>
        <time>2021-08-18T19:44:42Z</time>
      </trkpt>
      <trkpt lat="43.6446" lon="0.55701">
        <ele>176.54</ele>
        <time>2021-08-18T19:44:43Z</time>
      </trkpt>
      <trkpt lat="43.64456" lon="0.55696">
        <ele>176.06</ele>
        <time>2021-08-18T19:44:44Z</time>
      </trkpt>
      <trkpt lat="43.64453" lon="0.55691">
        <ele>175.58</ele>
        <time>2021-08-18T19:44:45Z</time>
      </trkpt>
      <trkpt lat="43.64442" lon="0.55669">
        <ele>173.66</ele>
        <time>2021-08-18T19:44:48Z</time>
      </trkpt>
      <trkpt lat="43.64439" lon="0.55661">
        <ele>173.17</ele>
        <time>2021-08-18T19:44:49Z</time>
      </trkpt>
      <trkpt lat="43.64437" lon="0.55651">
        <ele>173.17</ele>
        <time>2021-08-18T19:44:50Z</time>
      </trkpt>
      <trkpt lat="43.64436" lon="0.55641">
        <ele>172.21</ele>
        <time>2021-08-18T19:44:51Z</time>
      </trkpt>
      <trkpt lat="43.64435" lon="0.5563">
        <ele>171.73</ele>
        <time>2021-08-18T19:44:52Z</time>
      </trkpt>
      <trkpt lat="43.64435" lon="0.5562">
        <ele>171.73</ele>
        <time>2021-08-18T19:44:53Z</time>
      </trkpt>
      <trkpt lat="43.64435" lon="0.55555">
        <ele>168.37</ele>
        <time>2021-08-18T19:44:59Z</time>
      </trkpt>
      <trkpt lat="43.64439" lon="0.55534">
        <ele>167.89</ele>
        <time>2021-08-18T19:45:01Z</time>
      </trkpt>
      <trkpt lat="43.64455" lon="0.55466">
        <ele>166.93</ele>
        <time>2021-08-18T19:45:08Z</time>
      </trkpt>
      <trkpt lat="43.6446" lon="0.55414">
        <ele>168.85</ele>
        <time>2021-08-18T19:45:15Z</time>
      </trkpt>
      <trkpt lat="43.64462" lon="0.55378">
        <ele>170.29</ele>
        <time>2021-08-18T19:45:22Z</time>
      </trkpt>
      <trkpt lat="43.64468" lon="0.55344">
        <ele>171.73</ele>
        <time>2021-08-18T19:45:30Z</time>
      </trkpt>
      <trkpt lat="43.64473" lon="0.55307">
        <ele>171.73</ele>
        <time>2021-08-18T19:45:38Z</time>
      </trkpt>
      <trkpt lat="43.64474" lon="0.55287">
        <ele>170.29</ele>
        <time>2021-08-18T19:45:41Z</time>
      </trkpt>
      <trkpt lat="43.64474" lon="0.55273">
        <ele>169.81</ele>
        <time>2021-08-18T19:45:43Z</time>
      </trkpt>
      <trkpt lat="43.64473" lon="0.55257">
        <ele>168.85</ele>
        <time>2021-08-18T19:45:45Z</time>
      </trkpt>
      <trkpt lat="43.64479" lon="0.55185">
        <ele>166.93</ele>
        <time>2021-08-18T19:45:53Z</time>
      </trkpt>
      <trkpt lat="43.6448" lon="0.55163">
        <ele>167.41</ele>
        <time>2021-08-18T19:45:56Z</time>
      </trkpt>
      <trkpt lat="43.64482" lon="0.55132">
        <ele>168.85</ele>
        <time>2021-08-18T19:46:02Z</time>
      </trkpt>
      <trkpt lat="43.64484" lon="0.551">
        <ele>169.81</ele>
        <time>2021-08-18T19:46:10Z</time>
      </trkpt>
      <trkpt lat="43.64486" lon="0.55067">
        <ele>170.29</ele>
        <time>2021-08-18T19:46:18Z</time>
      </trkpt>
      <trkpt lat="43.64489" lon="0.55038">
        <ele>171.25</ele>
        <time>2021-08-18T19:46:27Z</time>
      </trkpt>
      <trkpt lat="43.64491" lon="0.55003">
        <ele>171.73</ele>
        <time>2021-08-18T19:46:36Z</time>
      </trkpt>
      <trkpt lat="43.64494" lon="0.54968">
        <ele>172.69</ele>
        <time>2021-08-18T19:46:45Z</time>
      </trkpt>
      <trkpt lat="43.64495" lon="0.54949">
        <ele>173.17</ele>
        <time>2021-08-18T19:46:52Z</time>
      </trkpt>
      <trkpt lat="43.64497" lon="0.54928">
        <ele>173.66</ele>
        <time>2021-08-18T19:46:59Z</time>
      </trkpt>
      <trkpt lat="43.64498" lon="0.54896">
        <ele>174.62</ele>
        <time>2021-08-18T19:47:08Z</time>
      </trkpt>
      <trkpt lat="43.645" lon="0.54869">
        <ele>176.06</ele>
        <time>2021-08-18T19:47:17Z</time>
      </trkpt>
      <trkpt lat="43.64502" lon="0.54838">
        <ele>176.54</ele>
        <time>2021-08-18T19:47:27Z</time>
      </trkpt>
      <trkpt lat="43.64503" lon="0.54811">
        <ele>178.46</ele>
        <time>2021-08-18T19:47:37Z</time>
      </trkpt>
      <trkpt lat="43.64503" lon="0.54784">
        <ele>178.94</ele>
        <time>2021-08-18T19:47:46Z</time>
      </trkpt>
      <trkpt lat="43.64506" lon="0.54759">
        <ele>179.9</ele>
        <time>2021-08-18T19:47:55Z</time>
      </trkpt>
      <trkpt lat="43.64511" lon="0.5474">
        <ele>181.35</ele>
        <time>2021-08-18T19:48:03Z</time>
      </trkpt>
      <trkpt lat="43.64515" lon="0.54723">
        <ele>182.79</ele>
        <time>2021-08-18T19:48:11Z</time>
      </trkpt>
      <trkpt lat="43.64519" lon="0.54704">
        <ele>183.75</ele>
        <time>2021-08-18T19:48:21Z</time>
      </trkpt>
      <trkpt lat="43.64521" lon="0.54684">
        <ele>185.19</ele>
        <time>2021-08-18T19:48:32Z</time>
      </trkpt>
      <trkpt lat="43.64521" lon="0.54682">
        <ele>185.67</ele>
        <time>2021-08-18T19:48:33Z</time>
      </trkpt>
      <trkpt lat="43.64522" lon="0.5466">
        <ele>187.11</ele>
        <time>2021-08-18T19:48:44Z</time>
      </trkpt>
      <trkpt lat="43.64524" lon="0.54643">
        <ele>188.56</ele>
        <time>2021-08-18T19:48:53Z</time>
      </trkpt>
      <trkpt lat="43.64526" lon="0.54625">
        <ele>190</ele>
        <time>2021-08-18T19:49:03Z</time>
      </trkpt>
      <trkpt lat="43.64527" lon="0.54619">
        <ele>190.48</ele>
        <time>2021-08-18T19:49:06Z</time>
      </trkpt>
      <trkpt lat="43.64527" lon="0.54617">
        <ele>190.48</ele>
        <time>2021-08-18T19:49:07Z</time>
      </trkpt>
      <trkpt lat="43.64527" lon="0.54615">
        <ele>190.48</ele>
        <time>2021-08-18T19:49:08Z</time>
      </trkpt>
      <trkpt lat="43.64528" lon="0.54614">
        <ele>190.48</ele>
        <time>2021-08-18T19:49:09Z</time>
      </trkpt>
      <trkpt lat="43.64528" lon="0.54612">
        <ele>190.96</ele>
        <time>2021-08-18T19:49:10Z</time>
      </trkpt>
      <trkpt lat="43.64529" lon="0.54596">
        <ele>192.4</ele>
        <time>2021-08-18T19:49:19Z</time>
      </trkpt>
      <trkpt lat="43.64529" lon="0.54586">
        <ele>193.36</ele>
        <time>2021-08-18T19:49:27Z</time>
      </trkpt>
      <trkpt lat="43.64529" lon="0.54577">
        <ele>194.8</ele>
        <time>2021-08-18T19:49:35Z</time>
      </trkpt>
      <trkpt lat="43.64529" lon="0.54574">
        <ele>194.8</ele>
        <time>2021-08-18T19:49:38Z</time>
      </trkpt>
      <trkpt lat="43.64528" lon="0.54558">
        <ele>196.73</ele>
        <time>2021-08-18T19:49:49Z</time>
      </trkpt>
      <trkpt lat="43.64527" lon="0.54543">
        <ele>197.69</ele>
        <time>2021-08-18T19:49:58Z</time>
      </trkpt>
      <trkpt lat="43.64526" lon="0.54525">
        <ele>198.65</ele>
        <time>2021-08-18T19:50:08Z</time>
      </trkpt>
      <trkpt lat="43.64527" lon="0.54509">
        <ele>200.09</ele>
        <time>2021-08-18T19:50:17Z</time>
      </trkpt>
      <trkpt lat="43.64526" lon="0.54492">
        <ele>201.53</ele>
        <time>2021-08-18T19:50:28Z</time>
      </trkpt>
      <trkpt lat="43.64525" lon="0.54475">
        <ele>202.98</ele>
        <time>2021-08-18T19:50:38Z</time>
      </trkpt>
      <trkpt lat="43.64524" lon="0.54462">
        <ele>203.94</ele>
        <time>2021-08-18T19:50:45Z</time>
      </trkpt>
      <trkpt lat="43.64522" lon="0.54453">
        <ele>204.42</ele>
        <time>2021-08-18T19:50:53Z</time>
      </trkpt>
      <trkpt lat="43.64522" lon="0.54449">
        <ele>204.42</ele>
        <time>2021-08-18T19:50:56Z</time>
      </trkpt>
      <trkpt lat="43.64519" lon="0.54431">
        <ele>204.9</ele>
        <time>2021-08-18T19:51:04Z</time>
      </trkpt>
      <trkpt lat="43.64515" lon="0.54406">
        <ele>206.34</ele>
        <time>2021-08-18T19:51:14Z</time>
      </trkpt>
      <trkpt lat="43.64511" lon="0.54388">
        <ele>207.3</ele>
        <time>2021-08-18T19:51:21Z</time>
      </trkpt>
      <trkpt lat="43.64511" lon="0.54386">
        <ele>207.78</ele>
        <time>2021-08-18T19:51:22Z</time>
      </trkpt>
      <trkpt lat="43.64509" lon="0.54368">
        <ele>208.26</ele>
        <time>2021-08-18T19:51:30Z</time>
      </trkpt>
      <trkpt lat="43.64508" lon="0.54356">
        <ele>209.22</ele>
        <time>2021-08-18T19:51:37Z</time>
      </trkpt>
      <trkpt lat="43.64507" lon="0.5434">
        <ele>211.15</ele>
        <time>2021-08-18T19:51:47Z</time>
      </trkpt>
      <trkpt lat="43.64506" lon="0.54327">
        <ele>212.59</ele>
        <time>2021-08-18T19:51:56Z</time>
      </trkpt>
      <trkpt lat="43.64501" lon="0.54313">
        <ele>214.51</ele>
        <time>2021-08-18T19:52:06Z</time>
      </trkpt>
      <trkpt lat="43.64496" lon="0.54296">
        <ele>215.95</ele>
        <time>2021-08-18T19:52:18Z</time>
      </trkpt>
      <trkpt lat="43.64495" lon="0.54276">
        <ele>217.88</ele>
        <time>2021-08-18T19:52:30Z</time>
      </trkpt>
      <trkpt lat="43.64496" lon="0.5426">
        <ele>219.32</ele>
        <time>2021-08-18T19:52:39Z</time>
      </trkpt>
      <trkpt lat="43.64498" lon="0.54247">
        <ele>220.28</ele>
        <time>2021-08-18T19:52:48Z</time>
      </trkpt>
      <trkpt lat="43.64501" lon="0.54227">
        <ele>222.2</ele>
        <time>2021-08-18T19:53:00Z</time>
      </trkpt>
      <trkpt lat="43.64504" lon="0.54208">
        <ele>224.12</ele>
        <time>2021-08-18T19:53:11Z</time>
      </trkpt>
      <trkpt lat="43.64504" lon="0.54207">
        <ele>224.12</ele>
        <time>2021-08-18T19:53:12Z</time>
      </trkpt>
      <trkpt lat="43.64507" lon="0.54189">
        <ele>226.05</ele>
        <time>2021-08-18T19:53:23Z</time>
      </trkpt>
      <trkpt lat="43.64511" lon="0.54172">
        <ele>227.49</ele>
        <time>2021-08-18T19:53:34Z</time>
      </trkpt>
      <trkpt lat="43.64516" lon="0.54154">
        <ele>228.93</ele>
        <time>2021-08-18T19:53:45Z</time>
      </trkpt>
      <trkpt lat="43.64518" lon="0.5415">
        <ele>229.41</ele>
        <time>2021-08-18T19:53:52Z</time>
      </trkpt>
      <trkpt lat="43.64517" lon="0.54149">
        <ele>229.41</ele>
        <time>2021-08-18T19:54:07Z</time>
      </trkpt>
      <trkpt lat="43.64517" lon="0.54145">
        <ele>229.41</ele>
        <time>2021-08-18T19:54:11Z</time>
      </trkpt>
      <trkpt lat="43.64517" lon="0.54143">
        <ele>229.41</ele>
        <time>2021-08-18T19:54:12Z</time>
      </trkpt>
      <trkpt lat="43.64518" lon="0.54142">
        <ele>229.41</ele>
        <time>2021-08-18T19:54:13Z</time>
      </trkpt>
      <trkpt lat="43.64519" lon="0.5414">
        <ele>230.37</ele>
        <time>2021-08-18T19:54:14Z</time>
      </trkpt>
      <trkpt lat="43.6452" lon="0.54139">
        <ele>230.85</ele>
        <time>2021-08-18T19:54:15Z</time>
      </trkpt>
      <trkpt lat="43.64521" lon="0.54137">
        <ele>230.85</ele>
        <time>2021-08-18T19:54:16Z</time>
      </trkpt>
      <trkpt lat="43.64521" lon="0.54135">
        <ele>230.85</ele>
        <time>2021-08-18T19:54:17Z</time>
      </trkpt>
      <trkpt lat="43.64522" lon="0.54133">
        <ele>230.85</ele>
        <time>2021-08-18T19:54:18Z</time>
      </trkpt>
      <trkpt lat="43.64531" lon="0.54112">
        <ele>232.3</ele>
        <time>2021-08-18T19:54:28Z</time>
      </trkpt>
      <trkpt lat="43.6454" lon="0.54094">
        <ele>234.22</ele>
        <time>2021-08-18T19:54:37Z</time>
      </trkpt>
      <trkpt lat="43.64547" lon="0.5408">
        <ele>235.66</ele>
        <time>2021-08-18T19:54:45Z</time>
      </trkpt>
      <trkpt lat="43.64554" lon="0.54067">
        <ele>236.62</ele>
        <time>2021-08-18T19:54:53Z</time>
      </trkpt>
      <trkpt lat="43.64565" lon="0.54045">
        <ele>239.02</ele>
        <time>2021-08-18T19:55:05Z</time>
      </trkpt>
      <trkpt lat="43.64574" lon="0.54028">
        <ele>239.99</ele>
        <time>2021-08-18T19:55:14Z</time>
      </trkpt>
      <trkpt lat="43.64581" lon="0.54013">
        <ele>240.95</ele>
        <time>2021-08-18T19:55:21Z</time>
      </trkpt>
      <trkpt lat="43.64589" lon="0.53993">
        <ele>242.39</ele>
        <time>2021-08-18T19:55:30Z</time>
      </trkpt>
      <trkpt lat="43.64595" lon="0.53974">
        <ele>243.35</ele>
        <time>2021-08-18T19:55:38Z</time>
      </trkpt>
      <trkpt lat="43.64601" lon="0.53952">
        <ele>243.35</ele>
        <time>2021-08-18T19:55:45Z</time>
      </trkpt>
      <trkpt lat="43.6461" lon="0.53922">
        <ele>244.31</ele>
        <time>2021-08-18T19:55:53Z</time>
      </trkpt>
      <trkpt lat="43.64623" lon="0.53892">
        <ele>242.87</ele>
        <time>2021-08-18T19:55:59Z</time>
      </trkpt>
      <trkpt lat="43.64648" lon="0.53845">
        <ele>239.99</ele>
        <time>2021-08-18T19:56:06Z</time>
      </trkpt>
      <trkpt lat="43.64688" lon="0.53776">
        <ele>237.1</ele>
        <time>2021-08-18T19:56:15Z</time>
      </trkpt>
      <trkpt lat="43.64719" lon="0.53732">
        <ele>237.58</ele>
        <time>2021-08-18T19:56:22Z</time>
      </trkpt>
      <trkpt lat="43.64723" lon="0.53728">
        <ele>237.58</ele>
        <time>2021-08-18T19:56:23Z</time>
      </trkpt>
      <trkpt lat="43.64743" lon="0.5371">
        <ele>239.02</ele>
        <time>2021-08-18T19:56:29Z</time>
      </trkpt>
      <trkpt lat="43.64758" lon="0.53697">
        <ele>240.95</ele>
        <time>2021-08-18T19:56:36Z</time>
      </trkpt>
      <trkpt lat="43.64765" lon="0.53691">
        <ele>242.39</ele>
        <time>2021-08-18T19:56:43Z</time>
      </trkpt>
      <trkpt lat="43.64773" lon="0.53682">
        <ele>243.35</ele>
        <time>2021-08-18T19:56:51Z</time>
      </trkpt>
      <trkpt lat="43.64783" lon="0.53672">
        <ele>245.27</ele>
        <time>2021-08-18T19:57:01Z</time>
      </trkpt>
      <trkpt lat="43.64792" lon="0.5366">
        <ele>246.72</ele>
        <time>2021-08-18T19:57:11Z</time>
      </trkpt>
      <trkpt lat="43.64801" lon="0.5365">
        <ele>247.68</ele>
        <time>2021-08-18T19:57:20Z</time>
      </trkpt>
      <trkpt lat="43.64804" lon="0.53647">
        <ele>248.16</ele>
        <time>2021-08-18T19:57:27Z</time>
      </trkpt>
      <trkpt lat="43.64805" lon="0.53646">
        <ele>248.16</ele>
        <time>2021-08-18T19:57:28Z</time>
      </trkpt>
      <trkpt lat="43.64806" lon="0.53644">
        <ele>248.64</ele>
        <time>2021-08-18T19:57:29Z</time>
      </trkpt>
      <trkpt lat="43.64819" lon="0.5363">
        <ele>249.6</ele>
        <time>2021-08-18T19:57:37Z</time>
      </trkpt>
      <trkpt lat="43.64836" lon="0.53616">
        <ele>250.08</ele>
        <time>2021-08-18T19:57:45Z</time>
      </trkpt>
      <trkpt lat="43.64865" lon="0.53595">
        <ele>250.08</ele>
        <time>2021-08-18T19:57:54Z</time>
      </trkpt>
      <trkpt lat="43.6488" lon="0.53581">
        <ele>250.08</ele>
        <time>2021-08-18T19:57:58Z</time>
      </trkpt>
      <trkpt lat="43.64909" lon="0.53547">
        <ele>250.08</ele>
        <time>2021-08-18T19:58:07Z</time>
      </trkpt>
      <trkpt lat="43.64936" lon="0.53509">
        <ele>250.56</ele>
        <time>2021-08-18T19:58:17Z</time>
      </trkpt>
      <trkpt lat="43.64961" lon="0.5347">
        <ele>250.56</ele>
        <time>2021-08-18T19:58:27Z</time>
      </trkpt>
      <trkpt lat="43.64984" lon="0.53431">
        <ele>251.52</ele>
        <time>2021-08-18T19:58:37Z</time>
      </trkpt>
      <trkpt lat="43.65003" lon="0.53402">
        <ele>252</ele>
        <time>2021-08-18T19:58:45Z</time>
      </trkpt>
      <trkpt lat="43.6503" lon="0.53367">
        <ele>253.44</ele>
        <time>2021-08-18T19:58:57Z</time>
      </trkpt>
      <trkpt lat="43.65053" lon="0.53343">
        <ele>254.41</ele>
        <time>2021-08-18T19:59:06Z</time>
      </trkpt>
      <trkpt lat="43.65072" lon="0.53324">
        <ele>255.37</ele>
        <time>2021-08-18T19:59:14Z</time>
      </trkpt>
      <trkpt lat="43.65085" lon="0.53303">
        <ele>255.85</ele>
        <time>2021-08-18T19:59:21Z</time>
      </trkpt>
      <trkpt lat="43.651" lon="0.53277">
        <ele>256.81</ele>
        <time>2021-08-18T19:59:29Z</time>
      </trkpt>
      <trkpt lat="43.65116" lon="0.53246">
        <ele>256.81</ele>
        <time>2021-08-18T19:59:37Z</time>
      </trkpt>
      <trkpt lat="43.65135" lon="0.53203">
        <ele>257.29</ele>
        <time>2021-08-18T19:59:46Z</time>
      </trkpt>
      <trkpt lat="43.65148" lon="0.5317">
        <ele>257.77</ele>
        <time>2021-08-18T19:59:53Z</time>
      </trkpt>
      <trkpt lat="43.65154" lon="0.53141">
        <ele>260.17</ele>
        <time>2021-08-18T20:00:01Z</time>
      </trkpt>
      <trkpt lat="43.65157" lon="0.5311">
        <ele>262.1</ele>
        <time>2021-08-18T20:00:10Z</time>
      </trkpt>
      <trkpt lat="43.65158" lon="0.53088">
        <ele>262.58</ele>
        <time>2021-08-18T20:00:17Z</time>
      </trkpt>
      <trkpt lat="43.65149" lon="0.53071">
        <ele>262.58</ele>
        <time>2021-08-18T20:00:22Z</time>
      </trkpt>
      <trkpt lat="43.65123" lon="0.53041">
        <ele>261.14</ele>
        <time>2021-08-18T20:00:31Z</time>
      </trkpt>
      <trkpt lat="43.65095" lon="0.53007">
        <ele>260.65</ele>
        <time>2021-08-18T20:00:40Z</time>
      </trkpt>
      <trkpt lat="43.65092" lon="0.53004">
        <ele>260.65</ele>
        <time>2021-08-18T20:00:41Z</time>
      </trkpt>
      <trkpt lat="43.65089" lon="0.53">
        <ele>260.65</ele>
        <time>2021-08-18T20:00:42Z</time>
      </trkpt>
      <trkpt lat="43.6507" lon="0.52978">
        <ele>262.1</ele>
        <time>2021-08-18T20:00:49Z</time>
      </trkpt>
      <trkpt lat="43.65058" lon="0.52958">
        <ele>263.06</ele>
        <time>2021-08-18T20:00:56Z</time>
      </trkpt>
      <trkpt lat="43.65055" lon="0.52928">
        <ele>264.5</ele>
        <time>2021-08-18T20:01:04Z</time>
      </trkpt>
      <trkpt lat="43.65057" lon="0.52897">
        <ele>265.94</ele>
        <time>2021-08-18T20:01:12Z</time>
      </trkpt>
      <trkpt lat="43.65062" lon="0.52856">
        <ele>267.38</ele>
        <time>2021-08-18T20:01:22Z</time>
      </trkpt>
      <trkpt lat="43.6507" lon="0.52821">
        <ele>268.35</ele>
        <time>2021-08-18T20:01:31Z</time>
      </trkpt>
      <trkpt lat="43.65083" lon="0.52782">
        <ele>268.35</ele>
        <time>2021-08-18T20:01:40Z</time>
      </trkpt>
      <trkpt lat="43.65091" lon="0.52758">
        <ele>268.83</ele>
        <time>2021-08-18T20:01:45Z</time>
      </trkpt>
      <trkpt lat="43.65106" lon="0.52712">
        <ele>268.83</ele>
        <time>2021-08-18T20:01:54Z</time>
      </trkpt>
      <trkpt lat="43.65111" lon="0.52697">
        <ele>268.83</ele>
        <time>2021-08-18T20:01:57Z</time>
      </trkpt>
      <trkpt lat="43.65131" lon="0.52638">
        <ele>268.83</ele>
        <time>2021-08-18T20:02:08Z</time>
      </trkpt>
      <trkpt lat="43.65144" lon="0.52602">
        <ele>269.79</ele>
        <time>2021-08-18T20:02:15Z</time>
      </trkpt>
      <trkpt lat="43.65163" lon="0.52549">
        <ele>269.79</ele>
        <time>2021-08-18T20:02:24Z</time>
      </trkpt>
      <trkpt lat="43.65179" lon="0.5251">
        <ele>270.27</ele>
        <time>2021-08-18T20:02:31Z</time>
      </trkpt>
      <trkpt lat="43.65197" lon="0.52474">
        <ele>270.75</ele>
        <time>2021-08-18T20:02:39Z</time>
      </trkpt>
      <trkpt lat="43.65213" lon="0.5244">
        <ele>270.75</ele>
        <time>2021-08-18T20:02:47Z</time>
      </trkpt>
      <trkpt lat="43.65235" lon="0.52392">
        <ele>270.75</ele>
        <time>2021-08-18T20:02:55Z</time>
      </trkpt>
      <trkpt lat="43.65256" lon="0.52343">
        <ele>271.23</ele>
        <time>2021-08-18T20:03:03Z</time>
      </trkpt>
      <trkpt lat="43.65274" lon="0.52306">
        <ele>272.67</ele>
        <time>2021-08-18T20:03:10Z</time>
      </trkpt>
      <trkpt lat="43.65287" lon="0.52272">
        <ele>273.63</ele>
        <time>2021-08-18T20:03:17Z</time>
      </trkpt>
      <trkpt lat="43.65289" lon="0.52267">
        <ele>273.63</ele>
        <time>2021-08-18T20:03:18Z</time>
      </trkpt>
      <trkpt lat="43.65291" lon="0.52256">
        <ele>273.63</ele>
        <time>2021-08-18T20:03:20Z</time>
      </trkpt>
      <trkpt lat="43.65292" lon="0.5225">
        <ele>273.63</ele>
        <time>2021-08-18T20:03:21Z</time>
      </trkpt>
      <trkpt lat="43.65298" lon="0.5221">
        <ele>275.07</ele>
        <time>2021-08-18T20:03:29Z</time>
      </trkpt>
      <trkpt lat="43.65301" lon="0.52173">
        <ele>275.56</ele>
        <time>2021-08-18T20:03:35Z</time>
      </trkpt>
      <trkpt lat="43.65305" lon="0.52129">
        <ele>275.56</ele>
        <time>2021-08-18T20:03:42Z</time>
      </trkpt>
      <trkpt lat="43.65305" lon="0.52116">
        <ele>275.56</ele>
        <time>2021-08-18T20:03:44Z</time>
      </trkpt>
      <trkpt lat="43.65304" lon="0.52109">
        <ele>275.56</ele>
        <time>2021-08-18T20:03:45Z</time>
      </trkpt>
      <trkpt lat="43.65303" lon="0.52077">
        <ele>275.56</ele>
        <time>2021-08-18T20:03:50Z</time>
      </trkpt>
      <trkpt lat="43.65303" lon="0.52071">
        <ele>275.56</ele>
        <time>2021-08-18T20:03:51Z</time>
      </trkpt>
      <trkpt lat="43.65302" lon="0.52064">
        <ele>274.11</ele>
        <time>2021-08-18T20:03:52Z</time>
      </trkpt>
      <trkpt lat="43.65301" lon="0.52058">
        <ele>274.11</ele>
        <time>2021-08-18T20:03:53Z</time>
      </trkpt>
      <trkpt lat="43.65301" lon="0.52052">
        <ele>274.11</ele>
        <time>2021-08-18T20:03:54Z</time>
      </trkpt>
      <trkpt lat="43.65291" lon="0.5199">
        <ele>274.11</ele>
        <time>2021-08-18T20:04:03Z</time>
      </trkpt>
      <trkpt lat="43.65288" lon="0.51959">
        <ele>273.63</ele>
        <time>2021-08-18T20:04:08Z</time>
      </trkpt>
      <trkpt lat="43.65288" lon="0.51929">
        <ele>273.63</ele>
        <time>2021-08-18T20:04:14Z</time>
      </trkpt>
      <trkpt lat="43.65297" lon="0.51889">
        <ele>273.63</ele>
        <time>2021-08-18T20:04:22Z</time>
      </trkpt>
      <trkpt lat="43.65304" lon="0.51845">
        <ele>272.67</ele>
        <time>2021-08-18T20:04:30Z</time>
      </trkpt>
      <trkpt lat="43.65321" lon="0.51775">
        <ele>271.23</ele>
        <time>2021-08-18T20:04:41Z</time>
      </trkpt>
      <trkpt lat="43.65322" lon="0.51769">
        <ele>271.23</ele>
        <time>2021-08-18T20:04:42Z</time>
      </trkpt>
      <trkpt lat="43.65336" lon="0.51709">
        <ele>270.27</ele>
        <time>2021-08-18T20:04:51Z</time>
      </trkpt>
      <trkpt lat="43.65347" lon="0.51653">
        <ele>270.27</ele>
        <time>2021-08-18T20:04:59Z</time>
      </trkpt>
      <trkpt lat="43.6536" lon="0.51594">
        <ele>270.75</ele>
        <time>2021-08-18T20:05:08Z</time>
      </trkpt>
      <trkpt lat="43.65362" lon="0.51588">
        <ele>270.75</ele>
        <time>2021-08-18T20:05:09Z</time>
      </trkpt>
      <trkpt lat="43.65363" lon="0.51582">
        <ele>270.75</ele>
        <time>2021-08-18T20:05:10Z</time>
      </trkpt>
      <trkpt lat="43.65364" lon="0.51576">
        <ele>270.75</ele>
        <time>2021-08-18T20:05:11Z</time>
      </trkpt>
      <trkpt lat="43.65366" lon="0.5157">
        <ele>270.75</ele>
        <time>2021-08-18T20:05:12Z</time>
      </trkpt>
      <trkpt lat="43.65367" lon="0.51565">
        <ele>270.75</ele>
        <time>2021-08-18T20:05:13Z</time>
      </trkpt>
      <trkpt lat="43.65368" lon="0.51559">
        <ele>270.75</ele>
        <time>2021-08-18T20:05:14Z</time>
      </trkpt>
      <trkpt lat="43.65369" lon="0.51553">
        <ele>270.75</ele>
        <time>2021-08-18T20:05:15Z</time>
      </trkpt>
      <trkpt lat="43.6537" lon="0.51547">
        <ele>270.75</ele>
        <time>2021-08-18T20:05:16Z</time>
      </trkpt>
      <trkpt lat="43.65375" lon="0.51511">
        <ele>271.71</ele>
        <time>2021-08-18T20:05:23Z</time>
      </trkpt>
      <trkpt lat="43.65378" lon="0.51474">
        <ele>272.67</ele>
        <time>2021-08-18T20:05:30Z</time>
      </trkpt>
      <trkpt lat="43.6538" lon="0.51441">
        <ele>272.67</ele>
        <time>2021-08-18T20:05:37Z</time>
      </trkpt>
      <trkpt lat="43.65383" lon="0.51424">
        <ele>272.67</ele>
        <time>2021-08-18T20:05:41Z</time>
      </trkpt>
      <trkpt lat="43.65385" lon="0.5142">
        <ele>272.67</ele>
        <time>2021-08-18T20:05:42Z</time>
      </trkpt>
      <trkpt lat="43.65388" lon="0.51417">
        <ele>272.67</ele>
        <time>2021-08-18T20:05:43Z</time>
      </trkpt>
      <trkpt lat="43.65391" lon="0.51415">
        <ele>272.67</ele>
        <time>2021-08-18T20:05:44Z</time>
      </trkpt>
      <trkpt lat="43.65394" lon="0.51413">
        <ele>272.67</ele>
        <time>2021-08-18T20:05:45Z</time>
      </trkpt>
      <trkpt lat="43.65397" lon="0.51409">
        <ele>272.67</ele>
        <time>2021-08-18T20:05:46Z</time>
      </trkpt>
      <trkpt lat="43.65398" lon="0.51405">
        <ele>272.67</ele>
        <time>2021-08-18T20:05:47Z</time>
      </trkpt>
      <trkpt lat="43.65399" lon="0.51401">
        <ele>272.67</ele>
        <time>2021-08-18T20:05:48Z</time>
      </trkpt>
      <trkpt lat="43.654" lon="0.51397">
        <ele>272.67</ele>
        <time>2021-08-18T20:05:49Z</time>
      </trkpt>
      <trkpt lat="43.65401" lon="0.51393">
        <ele>272.67</ele>
        <time>2021-08-18T20:05:50Z</time>
      </trkpt>
      <trkpt lat="43.65401" lon="0.51389">
        <ele>272.67</ele>
        <time>2021-08-18T20:05:51Z</time>
      </trkpt>
      <trkpt lat="43.65401" lon="0.51385">
        <ele>272.67</ele>
        <time>2021-08-18T20:05:52Z</time>
      </trkpt>
      <trkpt lat="43.65401" lon="0.51382">
        <ele>272.67</ele>
        <time>2021-08-18T20:05:53Z</time>
      </trkpt>
      <trkpt lat="43.654" lon="0.51378">
        <ele>272.67</ele>
        <time>2021-08-18T20:05:54Z</time>
      </trkpt>
      <trkpt lat="43.654" lon="0.51375">
        <ele>272.67</ele>
        <time>2021-08-18T20:05:55Z</time>
      </trkpt>
      <trkpt lat="43.654" lon="0.51373">
        <ele>272.67</ele>
        <time>2021-08-18T20:05:56Z</time>
      </trkpt>
      <trkpt lat="43.654" lon="0.5137">
        <ele>272.67</ele>
        <time>2021-08-18T20:05:57Z</time>
      </trkpt>
      <trkpt lat="43.654" lon="0.51368">
        <ele>272.67</ele>
        <time>2021-08-18T20:05:58Z</time>
      </trkpt>
      <trkpt lat="43.654" lon="0.51366">
        <ele>272.67</ele>
        <time>2021-08-18T20:05:59Z</time>
      </trkpt>
      <trkpt lat="43.65402" lon="0.51364">
        <ele>272.67</ele>
        <time>2021-08-18T20:06:00Z</time>
      </trkpt>
      <trkpt lat="43.65403" lon="0.51362">
        <ele>272.67</ele>
        <time>2021-08-18T20:06:01Z</time>
      </trkpt>
      <trkpt lat="43.65404" lon="0.51359">
        <ele>272.67</ele>
        <time>2021-08-18T20:06:02Z</time>
      </trkpt>
      <trkpt lat="43.65405" lon="0.51357">
        <ele>272.67</ele>
        <time>2021-08-18T20:06:03Z</time>
      </trkpt>
      <trkpt lat="43.65406" lon="0.51354">
        <ele>272.67</ele>
        <time>2021-08-18T20:06:04Z</time>
      </trkpt>
      <trkpt lat="43.65406" lon="0.51351">
        <ele>272.67</ele>
        <time>2021-08-18T20:06:05Z</time>
      </trkpt>
      <trkpt lat="43.65407" lon="0.51349">
        <ele>272.67</ele>
        <time>2021-08-18T20:06:06Z</time>
      </trkpt>
      <trkpt lat="43.65408" lon="0.51345">
        <ele>273.15</ele>
        <time>2021-08-18T20:06:11Z</time>
      </trkpt>
      <trkpt lat="43.65411" lon="0.51344">
        <ele>273.15</ele>
        <time>2021-08-18T20:06:17Z</time>
      </trkpt>
      <trkpt lat="43.65413" lon="0.51344">
        <ele>273.15</ele>
        <time>2021-08-18T20:06:18Z</time>
      </trkpt>
      <trkpt lat="43.65414" lon="0.51344">
        <ele>273.15</ele>
        <time>2021-08-18T20:06:19Z</time>
      </trkpt>
      <trkpt lat="43.65416" lon="0.51345">
        <ele>273.15</ele>
        <time>2021-08-18T20:06:20Z</time>
      </trkpt>
      <trkpt lat="43.65418" lon="0.51346">
        <ele>271.71</ele>
        <time>2021-08-18T20:06:21Z</time>
      </trkpt>
      <trkpt lat="43.6542" lon="0.51347">
        <ele>271.23</ele>
        <time>2021-08-18T20:06:22Z</time>
      </trkpt>
      <trkpt lat="43.65422" lon="0.51348">
        <ele>271.23</ele>
        <time>2021-08-18T20:06:23Z</time>
      </trkpt>
    </trkseg>
  </trk>
</gpx>